<?xml version="1.0" encoding="UTF-8" standalone="no" ?>
<gpx xmlns="http://www.topografix.com/GPX/1/1" xmlns:xsi="http://www.w3.org/2001/XMLSchema-instance" xsi:schemaLocation="http://www.topografix.com/GPX/1/1 http://www.topografix.com/GPX/1/1/gpx.xsd" version="1.1" creator="VisuGPX - https://www.visugpx.com">
  <metadata>
    <name>Bruxelles-Kaliningrad 3: Rotterdam -&amp;gt; Leiden</name>
  </metadata>
  <trk>
    <name><![CDATA[Day 3: Rotterdam -> Leiden]]></name>
    <extensions>
      <line xmlns="http://www.topografix.com/GPX/gpx_style/0/2">
        <color>0000FF</color>
        <width>4</width>
      </line>
    </extensions>
    <trkseg>
      <trkpt lat="51.91277" lon="4.46166">
        <ele>39.700256</ele>
        <time>2024-07-04T06:30:54.151Z</time>
      </trkpt>
      <trkpt lat="51.91294" lon="4.46172">
        <ele>39.700256</ele>
        <time>2024-07-04T06:30:55.295Z</time>
      </trkpt>
      <trkpt lat="51.9128" lon="4.46172">
        <ele>39.700256</ele>
        <time>2024-07-04T06:31:55.289Z</time>
      </trkpt>
      <trkpt lat="51.91283" lon="4.46199">
        <ele>39.700256</ele>
        <time>2024-07-04T06:32:59.305Z</time>
      </trkpt>
      <trkpt lat="51.91284" lon="4.46183">
        <ele>39.700256</ele>
        <time>2024-07-04T06:33:20.302Z</time>
      </trkpt>
      <trkpt lat="51.91279" lon="4.46168">
        <ele>39.700256</ele>
        <time>2024-07-04T06:33:27.305Z</time>
      </trkpt>
      <trkpt lat="51.91276" lon="4.46155">
        <ele>39.700256</ele>
        <time>2024-07-04T06:33:40.307Z</time>
      </trkpt>
      <trkpt lat="51.91273" lon="4.4614">
        <ele>39.700256</ele>
        <time>2024-07-04T06:33:44.313Z</time>
      </trkpt>
      <trkpt lat="51.9127" lon="4.46126">
        <ele>39.518945</ele>
        <time>2024-07-04T06:33:47.406Z</time>
      </trkpt>
      <trkpt lat="51.91266" lon="4.46108">
        <ele>39.118585</ele>
        <time>2024-07-04T06:33:51.309Z</time>
      </trkpt>
      <trkpt lat="51.91262" lon="4.4609">
        <ele>38.711912</ele>
        <time>2024-07-04T06:33:55.323Z</time>
      </trkpt>
      <trkpt lat="51.91259" lon="4.46076">
        <ele>38.387854</ele>
        <time>2024-07-04T06:33:58.319Z</time>
      </trkpt>
      <trkpt lat="51.91255" lon="4.46059">
        <ele>38.00616</ele>
        <time>2024-07-04T06:34:02.298Z</time>
      </trkpt>
      <trkpt lat="51.91252" lon="4.46043">
        <ele>37.636868</ele>
        <time>2024-07-04T06:34:06.317Z</time>
      </trkpt>
      <trkpt lat="51.91249" lon="4.46026">
        <ele>37.26095</ele>
        <time>2024-07-04T06:34:11.315Z</time>
      </trkpt>
      <trkpt lat="51.91247" lon="4.46009">
        <ele>36.908701</ele>
        <time>2024-07-04T06:34:15.318Z</time>
      </trkpt>
      <trkpt lat="51.91239" lon="4.46002">
        <ele>36.574213</ele>
        <time>2024-07-04T06:34:18.303Z</time>
      </trkpt>
      <trkpt lat="51.91229" lon="4.46004">
        <ele>36.225958</ele>
        <time>2024-07-04T06:34:21.305Z</time>
      </trkpt>
      <trkpt lat="51.91218" lon="4.46007">
        <ele>35.851342</ele>
        <time>2024-07-04T06:34:24.322Z</time>
      </trkpt>
      <trkpt lat="51.91207" lon="4.46008">
        <ele>35.469974</ele>
        <time>2024-07-04T06:34:27.313Z</time>
      </trkpt>
      <trkpt lat="51.91196" lon="4.46009">
        <ele>35.106432</ele>
        <time>2024-07-04T06:34:30.314Z</time>
      </trkpt>
      <trkpt lat="51.91186" lon="4.46009">
        <ele>34.750422</ele>
        <time>2024-07-04T06:34:33.328Z</time>
      </trkpt>
      <trkpt lat="51.91174" lon="4.46012">
        <ele>34.338823</ele>
        <time>2024-07-04T06:34:36.311Z</time>
      </trkpt>
      <trkpt lat="51.91163" lon="4.46008">
        <ele>33.941586</ele>
        <time>2024-07-04T06:34:39.310Z</time>
      </trkpt>
      <trkpt lat="51.91151" lon="4.46003">
        <ele>33.528933</ele>
        <time>2024-07-04T06:34:42.314Z</time>
      </trkpt>
      <trkpt lat="51.91141" lon="4.46">
        <ele>33.953913</ele>
        <time>2024-07-04T06:34:45.313Z</time>
      </trkpt>
      <trkpt lat="51.91131" lon="4.45997">
        <ele>34.45822</ele>
        <time>2024-07-04T06:34:48.325Z</time>
      </trkpt>
      <trkpt lat="51.91121" lon="4.45996">
        <ele>34.94717</ele>
        <time>2024-07-04T06:34:51.331Z</time>
      </trkpt>
      <trkpt lat="51.91111" lon="4.45996">
        <ele>35.465068</ele>
        <time>2024-07-04T06:34:54.323Z</time>
      </trkpt>
      <trkpt lat="51.91101" lon="4.45995">
        <ele>35.954221</ele>
        <time>2024-07-04T06:34:57.311Z</time>
      </trkpt>
      <trkpt lat="51.91092" lon="4.45994">
        <ele>36.414957</ele>
        <time>2024-07-04T06:35:00.321Z</time>
      </trkpt>
      <trkpt lat="51.91083" lon="4.45993">
        <ele>36.86818</ele>
        <time>2024-07-04T06:35:03.296Z</time>
      </trkpt>
      <trkpt lat="51.91075" lon="4.45984">
        <ele>37.321171</ele>
        <time>2024-07-04T06:35:07.300Z</time>
      </trkpt>
      <trkpt lat="51.91069" lon="4.45967">
        <ele>37.927941</ele>
        <time>2024-07-04T06:35:11.323Z</time>
      </trkpt>
      <trkpt lat="51.91063" lon="4.45955">
        <ele>38.430127</ele>
        <time>2024-07-04T06:35:14.316Z</time>
      </trkpt>
      <trkpt lat="51.91057" lon="4.45939">
        <ele>38.992211</ele>
        <time>2024-07-04T06:35:17.311Z</time>
      </trkpt>
      <trkpt lat="51.9105" lon="4.45923">
        <ele>39.583066</ele>
        <time>2024-07-04T06:35:20.282Z</time>
      </trkpt>
      <trkpt lat="51.91042" lon="4.45911">
        <ele>40.135216</ele>
        <time>2024-07-04T06:35:23.310Z</time>
      </trkpt>
      <trkpt lat="51.91035" lon="4.45898">
        <ele>40.688732</ele>
        <time>2024-07-04T06:35:26.333Z</time>
      </trkpt>
      <trkpt lat="51.91025" lon="4.45888">
        <ele>41.270187</ele>
        <time>2024-07-04T06:35:29.291Z</time>
      </trkpt>
      <trkpt lat="51.91015" lon="4.45876">
        <ele>41.887573</ele>
        <time>2024-07-04T06:35:32.330Z</time>
      </trkpt>
      <trkpt lat="51.91006" lon="4.45863">
        <ele>42.459093</ele>
        <time>2024-07-04T06:35:35.323Z</time>
      </trkpt>
      <trkpt lat="51.90998" lon="4.4585">
        <ele>42.663955</ele>
        <time>2024-07-04T06:35:38.293Z</time>
      </trkpt>
      <trkpt lat="51.90993" lon="4.45834">
        <ele>42.868307</ele>
        <time>2024-07-04T06:35:41.293Z</time>
      </trkpt>
      <trkpt lat="51.90988" lon="4.45819">
        <ele>43.071029</ele>
        <time>2024-07-04T06:35:44.319Z</time>
      </trkpt>
      <trkpt lat="51.90984" lon="4.45803">
        <ele>43.269157</ele>
        <time>2024-07-04T06:35:47.311Z</time>
      </trkpt>
      <trkpt lat="51.90979" lon="4.45788">
        <ele>43.472051</ele>
        <time>2024-07-04T06:35:51.329Z</time>
      </trkpt>
      <trkpt lat="51.90974" lon="4.45775">
        <ele>43.640121</ele>
        <time>2024-07-04T06:35:55.318Z</time>
      </trkpt>
      <trkpt lat="51.9097" lon="4.45761">
        <ele>43.820915</ele>
        <time>2024-07-04T06:35:58.324Z</time>
      </trkpt>
      <trkpt lat="51.90965" lon="4.45743">
        <ele>44.047396</ele>
        <time>2024-07-04T06:36:01.321Z</time>
      </trkpt>
      <trkpt lat="51.90959" lon="4.45726">
        <ele>44.270974</ele>
        <time>2024-07-04T06:36:04.317Z</time>
      </trkpt>
      <trkpt lat="51.9095" lon="4.45725">
        <ele>44.441393</ele>
        <time>2024-07-04T06:36:10.307Z</time>
      </trkpt>
      <trkpt lat="51.90944" lon="4.45736">
        <ele>44.611126</ele>
        <time>2024-07-04T06:36:13.313Z</time>
      </trkpt>
      <trkpt lat="51.90936" lon="4.45745">
        <ele>44.797338</ele>
        <time>2024-07-04T06:36:17.294Z</time>
      </trkpt>
      <trkpt lat="51.90932" lon="4.4573">
        <ele>44.990756</ele>
        <time>2024-07-04T06:36:21.322Z</time>
      </trkpt>
      <trkpt lat="51.90927" lon="4.45713">
        <ele>45.194872</ele>
        <time>2024-07-04T06:36:24.312Z</time>
      </trkpt>
      <trkpt lat="51.90922" lon="4.45695">
        <ele>45.429611</ele>
        <time>2024-07-04T06:36:27.309Z</time>
      </trkpt>
      <trkpt lat="51.90918" lon="4.45676">
        <ele>45.668412</ele>
        <time>2024-07-04T06:36:30.305Z</time>
      </trkpt>
      <trkpt lat="51.90911" lon="4.45657">
        <ele>45.897285</ele>
        <time>2024-07-04T06:36:33.314Z</time>
      </trkpt>
      <trkpt lat="51.90906" lon="4.45643">
        <ele>46.040585</ele>
        <time>2024-07-04T06:36:35.325Z</time>
      </trkpt>
      <trkpt lat="51.90902" lon="4.45629">
        <ele>46.187732</ele>
        <time>2024-07-04T06:36:37.299Z</time>
      </trkpt>
      <trkpt lat="51.90898" lon="4.45614">
        <ele>46.341349</ele>
        <time>2024-07-04T06:36:39.314Z</time>
      </trkpt>
      <trkpt lat="51.90894" lon="4.45598">
        <ele>46.495298</ele>
        <time>2024-07-04T06:36:41.307Z</time>
      </trkpt>
      <trkpt lat="51.9089" lon="4.45584">
        <ele>46.644369</ele>
        <time>2024-07-04T06:36:43.295Z</time>
      </trkpt>
      <trkpt lat="51.90886" lon="4.45569">
        <ele>46.798934</ele>
        <time>2024-07-04T06:36:45.313Z</time>
      </trkpt>
      <trkpt lat="51.90883" lon="4.45553">
        <ele>46.950983</ele>
        <time>2024-07-04T06:36:47.332Z</time>
      </trkpt>
      <trkpt lat="51.9088" lon="4.45537">
        <ele>47.105379</ele>
        <time>2024-07-04T06:36:49.306Z</time>
      </trkpt>
      <trkpt lat="51.90878" lon="4.45519">
        <ele>47.277699</ele>
        <time>2024-07-04T06:36:51.312Z</time>
      </trkpt>
      <trkpt lat="51.90876" lon="4.45501">
        <ele>47.447859</ele>
        <time>2024-07-04T06:36:53.324Z</time>
      </trkpt>
      <trkpt lat="51.90875" lon="4.45484">
        <ele>47.609384</ele>
        <time>2024-07-04T06:36:55.315Z</time>
      </trkpt>
      <trkpt lat="51.90873" lon="4.45469">
        <ele>47.754641</ele>
        <time>2024-07-04T06:36:57.341Z</time>
      </trkpt>
      <trkpt lat="51.90874" lon="4.45453">
        <ele>47.901216</ele>
        <time>2024-07-04T06:36:59.306Z</time>
      </trkpt>
      <trkpt lat="51.90876" lon="4.45438">
        <ele>48.045333</ele>
        <time>2024-07-04T06:37:01.295Z</time>
      </trkpt>
      <trkpt lat="51.90878" lon="4.45424">
        <ele>48.184448</ele>
        <time>2024-07-04T06:37:03.309Z</time>
      </trkpt>
      <trkpt lat="51.9088" lon="4.45409">
        <ele>48.32107</ele>
        <time>2024-07-04T06:37:05.311Z</time>
      </trkpt>
      <trkpt lat="51.90884" lon="4.4539">
        <ele>48.506159</ele>
        <time>2024-07-04T06:37:08.319Z</time>
      </trkpt>
      <trkpt lat="51.90887" lon="4.45371">
        <ele>48.57509</ele>
        <time>2024-07-04T06:37:11.322Z</time>
      </trkpt>
      <trkpt lat="51.9089" lon="4.45352">
        <ele>48.631323</ele>
        <time>2024-07-04T06:37:14.335Z</time>
      </trkpt>
      <trkpt lat="51.90894" lon="4.45333">
        <ele>48.687297</ele>
        <time>2024-07-04T06:37:17.330Z</time>
      </trkpt>
      <trkpt lat="51.90897" lon="4.45313">
        <ele>48.746574</ele>
        <time>2024-07-04T06:37:20.325Z</time>
      </trkpt>
      <trkpt lat="51.90899" lon="4.45293">
        <ele>48.804905</ele>
        <time>2024-07-04T06:37:23.314Z</time>
      </trkpt>
      <trkpt lat="51.90902" lon="4.45273">
        <ele>48.861659</ele>
        <time>2024-07-04T06:37:26.322Z</time>
      </trkpt>
      <trkpt lat="51.90905" lon="4.45253">
        <ele>48.921848</ele>
        <time>2024-07-04T06:37:29.316Z</time>
      </trkpt>
      <trkpt lat="51.90908" lon="4.45232">
        <ele>48.982168</ele>
        <time>2024-07-04T06:37:32.309Z</time>
      </trkpt>
      <trkpt lat="51.9091" lon="4.45211">
        <ele>49.041984</ele>
        <time>2024-07-04T06:37:35.305Z</time>
      </trkpt>
      <trkpt lat="51.90913" lon="4.4519">
        <ele>49.103028</ele>
        <time>2024-07-04T06:37:38.333Z</time>
      </trkpt>
      <trkpt lat="51.90915" lon="4.45175">
        <ele>49.146613</ele>
        <time>2024-07-04T06:37:40.312Z</time>
      </trkpt>
      <trkpt lat="51.90918" lon="4.45155">
        <ele>49.206343</ele>
        <time>2024-07-04T06:37:43.315Z</time>
      </trkpt>
      <trkpt lat="51.9092" lon="4.45136">
        <ele>49.262166</ele>
        <time>2024-07-04T06:37:46.312Z</time>
      </trkpt>
      <trkpt lat="51.90924" lon="4.45116">
        <ele>49.321336</ele>
        <time>2024-07-04T06:37:49.328Z</time>
      </trkpt>
      <trkpt lat="51.90928" lon="4.45096">
        <ele>49.255326</ele>
        <time>2024-07-04T06:37:52.309Z</time>
      </trkpt>
      <trkpt lat="51.90933" lon="4.45079">
        <ele>49.073284</ele>
        <time>2024-07-04T06:37:55.295Z</time>
      </trkpt>
      <trkpt lat="51.9094" lon="4.45065">
        <ele>48.906318</ele>
        <time>2024-07-04T06:37:58.310Z</time>
      </trkpt>
      <trkpt lat="51.90944" lon="4.45052">
        <ele>48.757014</ele>
        <time>2024-07-04T06:38:01.311Z</time>
      </trkpt>
      <trkpt lat="51.9095" lon="4.45038">
        <ele>48.601728</ele>
        <time>2024-07-04T06:38:04.308Z</time>
      </trkpt>
      <trkpt lat="51.90957" lon="4.45026">
        <ele>48.443468</ele>
        <time>2024-07-04T06:38:07.323Z</time>
      </trkpt>
      <trkpt lat="51.90964" lon="4.45013">
        <ele>48.278194</ele>
        <time>2024-07-04T06:38:10.324Z</time>
      </trkpt>
      <trkpt lat="51.90972" lon="4.45001">
        <ele>48.108931</ele>
        <time>2024-07-04T06:38:14.319Z</time>
      </trkpt>
      <trkpt lat="51.90979" lon="4.44977">
        <ele>47.850286</ele>
        <time>2024-07-04T06:39:04.307Z</time>
      </trkpt>
      <trkpt lat="51.90974" lon="4.4496">
        <ele>47.667313</ele>
        <time>2024-07-04T06:39:08.339Z</time>
      </trkpt>
      <trkpt lat="51.90968" lon="4.44947">
        <ele>47.511246</ele>
        <time>2024-07-04T06:39:11.313Z</time>
      </trkpt>
      <trkpt lat="51.90966" lon="4.44932">
        <ele>47.362578</ele>
        <time>2024-07-04T06:39:14.287Z</time>
      </trkpt>
      <trkpt lat="51.90971" lon="4.44917">
        <ele>47.194553</ele>
        <time>2024-07-04T06:39:18.309Z</time>
      </trkpt>
      <trkpt lat="51.90975" lon="4.44903">
        <ele>47.051583</ele>
        <time>2024-07-04T06:39:22.297Z</time>
      </trkpt>
      <trkpt lat="51.90978" lon="4.44888">
        <ele>46.897019</ele>
        <time>2024-07-04T06:39:26.311Z</time>
      </trkpt>
      <trkpt lat="51.90981" lon="4.44872">
        <ele>46.738667</ele>
        <time>2024-07-04T06:39:29.315Z</time>
      </trkpt>
      <trkpt lat="51.90983" lon="4.44855">
        <ele>46.579382</ele>
        <time>2024-07-04T06:39:32.322Z</time>
      </trkpt>
      <trkpt lat="51.90983" lon="4.44841">
        <ele>46.76976</ele>
        <time>2024-07-04T06:39:34.323Z</time>
      </trkpt>
      <trkpt lat="51.90984" lon="4.44825">
        <ele>47.035774</ele>
        <time>2024-07-04T06:39:36.325Z</time>
      </trkpt>
      <trkpt lat="51.90985" lon="4.44804">
        <ele>47.391589</ele>
        <time>2024-07-04T06:39:39.301Z</time>
      </trkpt>
      <trkpt lat="51.90986" lon="4.44783">
        <ele>47.751595</ele>
        <time>2024-07-04T06:39:42.306Z</time>
      </trkpt>
      <trkpt lat="51.90988" lon="4.44762">
        <ele>48.117127</ele>
        <time>2024-07-04T06:39:45.330Z</time>
      </trkpt>
      <trkpt lat="51.90991" lon="4.44743">
        <ele>48.445506</ele>
        <time>2024-07-04T06:39:48.317Z</time>
      </trkpt>
      <trkpt lat="51.90991" lon="4.44723">
        <ele>48.788267</ele>
        <time>2024-07-04T06:39:51.312Z</time>
      </trkpt>
      <trkpt lat="51.90992" lon="4.44703">
        <ele>49.133451</ele>
        <time>2024-07-04T06:39:54.307Z</time>
      </trkpt>
      <trkpt lat="51.90995" lon="4.44683">
        <ele>49.475147</ele>
        <time>2024-07-04T06:39:57.292Z</time>
      </trkpt>
      <trkpt lat="51.90996" lon="4.44664">
        <ele>49.804355</ele>
        <time>2024-07-04T06:40:00.310Z</time>
      </trkpt>
      <trkpt lat="51.90997" lon="4.44644">
        <ele>50.147421</ele>
        <time>2024-07-04T06:40:03.309Z</time>
      </trkpt>
      <trkpt lat="51.91" lon="4.44625">
        <ele>50.488661</ele>
        <time>2024-07-04T06:40:06.296Z</time>
      </trkpt>
      <trkpt lat="51.91003" lon="4.44604">
        <ele>50.847646</ele>
        <time>2024-07-04T06:40:09.312Z</time>
      </trkpt>
      <trkpt lat="51.91005" lon="4.44584">
        <ele>51.191291</ele>
        <time>2024-07-04T06:40:12.314Z</time>
      </trkpt>
      <trkpt lat="51.91007" lon="4.44564">
        <ele>51.525348</ele>
        <time>2024-07-04T06:40:15.307Z</time>
      </trkpt>
      <trkpt lat="51.91008" lon="4.44544">
        <ele>51.462648</ele>
        <time>2024-07-04T06:40:18.325Z</time>
      </trkpt>
      <trkpt lat="51.91009" lon="4.44524">
        <ele>51.398488</ele>
        <time>2024-07-04T06:40:21.318Z</time>
      </trkpt>
      <trkpt lat="51.91012" lon="4.44505">
        <ele>51.336243</ele>
        <time>2024-07-04T06:40:24.311Z</time>
      </trkpt>
      <trkpt lat="51.91015" lon="4.44484">
        <ele>51.271074</ele>
        <time>2024-07-04T06:40:27.319Z</time>
      </trkpt>
      <trkpt lat="51.91019" lon="4.44465">
        <ele>51.206296</ele>
        <time>2024-07-04T06:40:30.319Z</time>
      </trkpt>
      <trkpt lat="51.91023" lon="4.44445">
        <ele>51.141901</ele>
        <time>2024-07-04T06:40:33.305Z</time>
      </trkpt>
      <trkpt lat="51.91028" lon="4.44426">
        <ele>51.077848</ele>
        <time>2024-07-04T06:40:36.320Z</time>
      </trkpt>
      <trkpt lat="51.91033" lon="4.44406">
        <ele>51.0109</ele>
        <time>2024-07-04T06:40:39.317Z</time>
      </trkpt>
      <trkpt lat="51.91038" lon="4.44387">
        <ele>50.944033</ele>
        <time>2024-07-04T06:40:42.310Z</time>
      </trkpt>
      <trkpt lat="51.91043" lon="4.44367">
        <ele>50.876381</ele>
        <time>2024-07-04T06:40:45.317Z</time>
      </trkpt>
      <trkpt lat="51.91045" lon="4.44353">
        <ele>50.830643</ele>
        <time>2024-07-04T06:40:47.309Z</time>
      </trkpt>
      <trkpt lat="51.91048" lon="4.44339">
        <ele>50.78485</ele>
        <time>2024-07-04T06:40:49.320Z</time>
      </trkpt>
      <trkpt lat="51.91051" lon="4.44325">
        <ele>50.736938</ele>
        <time>2024-07-04T06:40:51.322Z</time>
      </trkpt>
      <trkpt lat="51.91055" lon="4.44305">
        <ele>50.670653</ele>
        <time>2024-07-04T06:40:54.322Z</time>
      </trkpt>
      <trkpt lat="51.91059" lon="4.44284">
        <ele>50.604527</ele>
        <time>2024-07-04T06:40:57.328Z</time>
      </trkpt>
      <trkpt lat="51.91063" lon="4.44264">
        <ele>50.547328</ele>
        <time>2024-07-04T06:41:00.313Z</time>
      </trkpt>
      <trkpt lat="51.91067" lon="4.44244">
        <ele>50.491793</ele>
        <time>2024-07-04T06:41:03.305Z</time>
      </trkpt>
      <trkpt lat="51.9107" lon="4.44228">
        <ele>50.446773</ele>
        <time>2024-07-04T06:41:05.303Z</time>
      </trkpt>
      <trkpt lat="51.91072" lon="4.44212">
        <ele>50.404516</ele>
        <time>2024-07-04T06:41:07.312Z</time>
      </trkpt>
      <trkpt lat="51.91074" lon="4.44197">
        <ele>50.361563</ele>
        <time>2024-07-04T06:41:09.328Z</time>
      </trkpt>
      <trkpt lat="51.91077" lon="4.44182">
        <ele>50.319113</ele>
        <time>2024-07-04T06:41:11.308Z</time>
      </trkpt>
      <trkpt lat="51.91079" lon="4.44167">
        <ele>50.277291</ele>
        <time>2024-07-04T06:41:13.330Z</time>
      </trkpt>
      <trkpt lat="51.91082" lon="4.44152">
        <ele>50.236103</ele>
        <time>2024-07-04T06:41:15.331Z</time>
      </trkpt>
      <trkpt lat="51.91085" lon="4.44137">
        <ele>50.192805</ele>
        <time>2024-07-04T06:41:17.313Z</time>
      </trkpt>
      <trkpt lat="51.91089" lon="4.44123">
        <ele>50.151919</ele>
        <time>2024-07-04T06:41:19.314Z</time>
      </trkpt>
      <trkpt lat="51.91092" lon="4.44109">
        <ele>50.112365</ele>
        <time>2024-07-04T06:41:21.305Z</time>
      </trkpt>
      <trkpt lat="51.91096" lon="4.44095">
        <ele>50.071901</ele>
        <time>2024-07-04T06:41:23.293Z</time>
      </trkpt>
      <trkpt lat="51.91099" lon="4.44081">
        <ele>50.031923</ele>
        <time>2024-07-04T06:41:25.315Z</time>
      </trkpt>
      <trkpt lat="51.91103" lon="4.44067">
        <ele>49.991534</ele>
        <time>2024-07-04T06:41:27.308Z</time>
      </trkpt>
      <trkpt lat="51.91108" lon="4.44049">
        <ele>49.938057</ele>
        <time>2024-07-04T06:41:30.324Z</time>
      </trkpt>
      <trkpt lat="51.91112" lon="4.4403">
        <ele>49.88336</ele>
        <time>2024-07-04T06:41:33.311Z</time>
      </trkpt>
      <trkpt lat="51.91119" lon="4.4401">
        <ele>49.827302</ele>
        <time>2024-07-04T06:41:36.315Z</time>
      </trkpt>
      <trkpt lat="51.91124" lon="4.43991">
        <ele>49.803084</ele>
        <time>2024-07-04T06:41:39.312Z</time>
      </trkpt>
      <trkpt lat="51.91131" lon="4.43971">
        <ele>49.778284</ele>
        <time>2024-07-04T06:41:42.314Z</time>
      </trkpt>
      <trkpt lat="51.91136" lon="4.43957">
        <ele>49.760815</ele>
        <time>2024-07-04T06:41:44.312Z</time>
      </trkpt>
      <trkpt lat="51.91141" lon="4.43938">
        <ele>49.736869</ele>
        <time>2024-07-04T06:41:47.308Z</time>
      </trkpt>
      <trkpt lat="51.91146" lon="4.43924">
        <ele>49.719953</ele>
        <time>2024-07-04T06:41:49.308Z</time>
      </trkpt>
      <trkpt lat="51.91152" lon="4.43906">
        <ele>49.697143</ele>
        <time>2024-07-04T06:41:52.308Z</time>
      </trkpt>
      <trkpt lat="51.91157" lon="4.43887">
        <ele>49.674003</ele>
        <time>2024-07-04T06:41:55.301Z</time>
      </trkpt>
      <trkpt lat="51.91162" lon="4.43867">
        <ele>49.650114</ele>
        <time>2024-07-04T06:41:58.308Z</time>
      </trkpt>
      <trkpt lat="51.91169" lon="4.43849">
        <ele>49.626695</ele>
        <time>2024-07-04T06:42:01.299Z</time>
      </trkpt>
      <trkpt lat="51.91174" lon="4.43831">
        <ele>49.604358</ele>
        <time>2024-07-04T06:42:04.308Z</time>
      </trkpt>
      <trkpt lat="51.91179" lon="4.43812">
        <ele>49.581475</ele>
        <time>2024-07-04T06:42:07.311Z</time>
      </trkpt>
      <trkpt lat="51.91185" lon="4.43793">
        <ele>49.557578</ele>
        <time>2024-07-04T06:42:10.294Z</time>
      </trkpt>
      <trkpt lat="51.91189" lon="4.43779">
        <ele>49.541015</ele>
        <time>2024-07-04T06:42:12.307Z</time>
      </trkpt>
      <trkpt lat="51.91193" lon="4.43766">
        <ele>49.524777</ele>
        <time>2024-07-04T06:42:14.309Z</time>
      </trkpt>
      <trkpt lat="51.91198" lon="4.43746">
        <ele>49.556734</ele>
        <time>2024-07-04T06:42:17.340Z</time>
      </trkpt>
      <trkpt lat="51.91204" lon="4.43727">
        <ele>49.747262</ele>
        <time>2024-07-04T06:42:20.339Z</time>
      </trkpt>
      <trkpt lat="51.91209" lon="4.43708">
        <ele>49.933329</ele>
        <time>2024-07-04T06:42:23.312Z</time>
      </trkpt>
      <trkpt lat="51.91214" lon="4.43695">
        <ele>50.068686</ele>
        <time>2024-07-04T06:42:25.327Z</time>
      </trkpt>
      <trkpt lat="51.91218" lon="4.43682">
        <ele>50.202855</ele>
        <time>2024-07-04T06:42:27.323Z</time>
      </trkpt>
      <trkpt lat="51.91225" lon="4.43665">
        <ele>50.381741</ele>
        <time>2024-07-04T06:42:30.328Z</time>
      </trkpt>
      <trkpt lat="51.91233" lon="4.43654">
        <ele>50.532828</ele>
        <time>2024-07-04T06:42:33.300Z</time>
      </trkpt>
      <trkpt lat="51.91239" lon="4.43641">
        <ele>50.678072</ele>
        <time>2024-07-04T06:42:40.299Z</time>
      </trkpt>
      <trkpt lat="51.91239" lon="4.4364">
        <ele>50.684196</ele>
        <time>2024-07-04T06:42:44.539Z</time>
      </trkpt>
      <trkpt lat="51.9124" lon="4.43625">
        <ele>50.822659</ele>
        <time>2024-07-04T06:43:38.308Z</time>
      </trkpt>
      <trkpt lat="51.91244" lon="4.4361">
        <ele>50.967723</ele>
        <time>2024-07-04T06:43:41.343Z</time>
      </trkpt>
      <trkpt lat="51.91248" lon="4.43591">
        <ele>51.147492</ele>
        <time>2024-07-04T06:43:44.333Z</time>
      </trkpt>
      <trkpt lat="51.91253" lon="4.43574">
        <ele>51.316433</ele>
        <time>2024-07-04T06:43:47.305Z</time>
      </trkpt>
      <trkpt lat="51.91258" lon="4.43557">
        <ele>51.48208</ele>
        <time>2024-07-04T06:43:50.299Z</time>
      </trkpt>
      <trkpt lat="51.91263" lon="4.43542">
        <ele>51.641927</ele>
        <time>2024-07-04T06:43:53.320Z</time>
      </trkpt>
      <trkpt lat="51.91268" lon="4.43524">
        <ele>51.818781</ele>
        <time>2024-07-04T06:43:56.324Z</time>
      </trkpt>
      <trkpt lat="51.91273" lon="4.43508">
        <ele>51.975265</ele>
        <time>2024-07-04T06:43:59.333Z</time>
      </trkpt>
      <trkpt lat="51.91277" lon="4.43491">
        <ele>52.126236</ele>
        <time>2024-07-04T06:44:02.338Z</time>
      </trkpt>
      <trkpt lat="51.91282" lon="4.43473">
        <ele>52.140254</ele>
        <time>2024-07-04T06:44:05.329Z</time>
      </trkpt>
      <trkpt lat="51.91286" lon="4.43454">
        <ele>52.154729</ele>
        <time>2024-07-04T06:44:08.324Z</time>
      </trkpt>
      <trkpt lat="51.91291" lon="4.43436">
        <ele>52.16896</ele>
        <time>2024-07-04T06:44:11.317Z</time>
      </trkpt>
      <trkpt lat="51.91296" lon="4.43419">
        <ele>52.181978</ele>
        <time>2024-07-04T06:44:14.323Z</time>
      </trkpt>
      <trkpt lat="51.91302" lon="4.43406">
        <ele>52.194306</ele>
        <time>2024-07-04T06:44:17.307Z</time>
      </trkpt>
      <trkpt lat="51.91311" lon="4.43395">
        <ele>52.206929</ele>
        <time>2024-07-04T06:44:20.311Z</time>
      </trkpt>
      <trkpt lat="51.91319" lon="4.43382">
        <ele>52.220473</ele>
        <time>2024-07-04T06:44:23.314Z</time>
      </trkpt>
      <trkpt lat="51.91326" lon="4.43366">
        <ele>52.234178</ele>
        <time>2024-07-04T06:44:26.313Z</time>
      </trkpt>
      <trkpt lat="51.91331" lon="4.43351">
        <ele>52.247193</ele>
        <time>2024-07-04T06:44:29.319Z</time>
      </trkpt>
      <trkpt lat="51.91328" lon="4.43336">
        <ele>52.258504</ele>
        <time>2024-07-04T06:44:32.326Z</time>
      </trkpt>
      <trkpt lat="51.91323" lon="4.43321">
        <ele>52.270699</ele>
        <time>2024-07-04T06:44:35.319Z</time>
      </trkpt>
      <trkpt lat="51.91318" lon="4.43308">
        <ele>52.281517</ele>
        <time>2024-07-04T06:44:38.316Z</time>
      </trkpt>
      <trkpt lat="51.91313" lon="4.43292">
        <ele>52.294175</ele>
        <time>2024-07-04T06:44:41.330Z</time>
      </trkpt>
      <trkpt lat="51.91311" lon="4.43275">
        <ele>52.306551</ele>
        <time>2024-07-04T06:44:44.312Z</time>
      </trkpt>
      <trkpt lat="51.91312" lon="4.43256">
        <ele>52.32008</ele>
        <time>2024-07-04T06:44:47.318Z</time>
      </trkpt>
      <trkpt lat="51.91316" lon="4.4324">
        <ele>52.332833</ele>
        <time>2024-07-04T06:44:50.313Z</time>
      </trkpt>
      <trkpt lat="51.91319" lon="4.43223">
        <ele>52.349429</ele>
        <time>2024-07-04T06:44:53.323Z</time>
      </trkpt>
      <trkpt lat="51.91322" lon="4.43207">
        <ele>52.366104</ele>
        <time>2024-07-04T06:44:56.323Z</time>
      </trkpt>
      <trkpt lat="51.91325" lon="4.43192">
        <ele>52.381695</ele>
        <time>2024-07-04T06:44:59.334Z</time>
      </trkpt>
      <trkpt lat="51.91328" lon="4.43175">
        <ele>52.399003</ele>
        <time>2024-07-04T06:45:02.305Z</time>
      </trkpt>
      <trkpt lat="51.91331" lon="4.43157">
        <ele>52.417671</ele>
        <time>2024-07-04T06:45:05.316Z</time>
      </trkpt>
      <trkpt lat="51.91334" lon="4.43138">
        <ele>52.436826</ele>
        <time>2024-07-04T06:45:08.322Z</time>
      </trkpt>
      <trkpt lat="51.91336" lon="4.43119">
        <ele>52.455367</ele>
        <time>2024-07-04T06:45:11.328Z</time>
      </trkpt>
      <trkpt lat="51.91339" lon="4.43104">
        <ele>52.471352</ele>
        <time>2024-07-04T06:45:14.314Z</time>
      </trkpt>
      <trkpt lat="51.91342" lon="4.43069">
        <ele>52.506211</ele>
        <time>2024-07-04T06:46:13.308Z</time>
      </trkpt>
      <trkpt lat="51.91344" lon="4.43048">
        <ele>52.526465</ele>
        <time>2024-07-04T06:46:16.316Z</time>
      </trkpt>
      <trkpt lat="51.91347" lon="4.43027">
        <ele>52.547752</ele>
        <time>2024-07-04T06:46:19.321Z</time>
      </trkpt>
      <trkpt lat="51.91348" lon="4.43013">
        <ele>52.562441</ele>
        <time>2024-07-04T06:46:21.325Z</time>
      </trkpt>
      <trkpt lat="51.91351" lon="4.42998">
        <ele>52.577337</ele>
        <time>2024-07-04T06:46:23.326Z</time>
      </trkpt>
      <trkpt lat="51.91353" lon="4.42983">
        <ele>52.592836</ele>
        <time>2024-07-04T06:46:25.313Z</time>
      </trkpt>
      <trkpt lat="51.91353" lon="4.42968">
        <ele>52.607238</ele>
        <time>2024-07-04T06:46:27.318Z</time>
      </trkpt>
      <trkpt lat="51.91352" lon="4.42947">
        <ele>52.631668</ele>
        <time>2024-07-04T06:46:30.317Z</time>
      </trkpt>
      <trkpt lat="51.9135" lon="4.42926">
        <ele>52.662862</ele>
        <time>2024-07-04T06:46:33.326Z</time>
      </trkpt>
      <trkpt lat="51.91349" lon="4.4291">
        <ele>52.685021</ele>
        <time>2024-07-04T06:46:35.332Z</time>
      </trkpt>
      <trkpt lat="51.91348" lon="4.42895">
        <ele>52.706767</ele>
        <time>2024-07-04T06:46:37.329Z</time>
      </trkpt>
      <trkpt lat="51.91348" lon="4.4288">
        <ele>52.729329</ele>
        <time>2024-07-04T06:46:39.314Z</time>
      </trkpt>
      <trkpt lat="51.91347" lon="4.42864">
        <ele>52.751761</ele>
        <time>2024-07-04T06:46:41.322Z</time>
      </trkpt>
      <trkpt lat="51.91346" lon="4.42849">
        <ele>52.774208</ele>
        <time>2024-07-04T06:46:43.324Z</time>
      </trkpt>
      <trkpt lat="51.91347" lon="4.42833">
        <ele>52.79677</ele>
        <time>2024-07-04T06:46:45.321Z</time>
      </trkpt>
      <trkpt lat="51.91347" lon="4.42818">
        <ele>52.818322</ele>
        <time>2024-07-04T06:46:47.332Z</time>
      </trkpt>
      <trkpt lat="51.91348" lon="4.42803">
        <ele>52.840321</ele>
        <time>2024-07-04T06:46:49.342Z</time>
      </trkpt>
      <trkpt lat="51.91348" lon="4.42788">
        <ele>52.861698</ele>
        <time>2024-07-04T06:46:51.328Z</time>
      </trkpt>
      <trkpt lat="51.91349" lon="4.42774">
        <ele>52.882806</ele>
        <time>2024-07-04T06:46:53.311Z</time>
      </trkpt>
      <trkpt lat="51.91349" lon="4.42758">
        <ele>52.905054</ele>
        <time>2024-07-04T06:46:55.311Z</time>
      </trkpt>
      <trkpt lat="51.91349" lon="4.42743">
        <ele>52.927341</ele>
        <time>2024-07-04T06:46:57.321Z</time>
      </trkpt>
      <trkpt lat="51.9135" lon="4.42727">
        <ele>52.95075</ele>
        <time>2024-07-04T06:46:59.335Z</time>
      </trkpt>
      <trkpt lat="51.9135" lon="4.4271">
        <ele>52.975308</ele>
        <time>2024-07-04T06:47:01.329Z</time>
      </trkpt>
      <trkpt lat="51.9135" lon="4.42694">
        <ele>52.998436</ele>
        <time>2024-07-04T06:47:03.317Z</time>
      </trkpt>
      <trkpt lat="51.91351" lon="4.42677">
        <ele>53.02255</ele>
        <time>2024-07-04T06:47:05.323Z</time>
      </trkpt>
      <trkpt lat="51.91352" lon="4.4266">
        <ele>53.039637</ele>
        <time>2024-07-04T06:47:07.319Z</time>
      </trkpt>
      <trkpt lat="51.91353" lon="4.42645">
        <ele>53.021962</ele>
        <time>2024-07-04T06:47:09.326Z</time>
      </trkpt>
      <trkpt lat="51.91354" lon="4.42628">
        <ele>53.003033</ele>
        <time>2024-07-04T06:47:11.319Z</time>
      </trkpt>
      <trkpt lat="51.91355" lon="4.42612">
        <ele>52.985103</ele>
        <time>2024-07-04T06:47:13.315Z</time>
      </trkpt>
      <trkpt lat="51.91356" lon="4.42595">
        <ele>52.9668</ele>
        <time>2024-07-04T06:47:15.332Z</time>
      </trkpt>
      <trkpt lat="51.91357" lon="4.42579">
        <ele>52.94868</ele>
        <time>2024-07-04T06:47:17.339Z</time>
      </trkpt>
      <trkpt lat="51.91358" lon="4.42563">
        <ele>52.930212</ele>
        <time>2024-07-04T06:47:19.317Z</time>
      </trkpt>
      <trkpt lat="51.91359" lon="4.42546">
        <ele>52.91182</ele>
        <time>2024-07-04T06:47:21.319Z</time>
      </trkpt>
      <trkpt lat="51.9136" lon="4.4253">
        <ele>52.893759</ele>
        <time>2024-07-04T06:47:23.311Z</time>
      </trkpt>
      <trkpt lat="51.91361" lon="4.42514">
        <ele>52.876051</ele>
        <time>2024-07-04T06:47:25.308Z</time>
      </trkpt>
      <trkpt lat="51.91363" lon="4.42498">
        <ele>52.857947</ele>
        <time>2024-07-04T06:47:27.330Z</time>
      </trkpt>
      <trkpt lat="51.91364" lon="4.42482">
        <ele>52.839795</ele>
        <time>2024-07-04T06:47:29.330Z</time>
      </trkpt>
      <trkpt lat="51.91364" lon="4.42466">
        <ele>52.821327</ele>
        <time>2024-07-04T06:47:31.332Z</time>
      </trkpt>
      <trkpt lat="51.91366" lon="4.42449">
        <ele>52.802449</ele>
        <time>2024-07-04T06:47:33.335Z</time>
      </trkpt>
      <trkpt lat="51.91366" lon="4.42433">
        <ele>52.784355</ele>
        <time>2024-07-04T06:47:35.321Z</time>
      </trkpt>
      <trkpt lat="51.91368" lon="4.42416">
        <ele>52.765374</ele>
        <time>2024-07-04T06:47:37.323Z</time>
      </trkpt>
      <trkpt lat="51.91369" lon="4.424">
        <ele>52.74818</ele>
        <time>2024-07-04T06:47:39.317Z</time>
      </trkpt>
      <trkpt lat="51.91369" lon="4.42385">
        <ele>52.730419</ele>
        <time>2024-07-04T06:47:41.322Z</time>
      </trkpt>
      <trkpt lat="51.9137" lon="4.42368">
        <ele>52.731434</ele>
        <time>2024-07-04T06:47:43.314Z</time>
      </trkpt>
      <trkpt lat="51.91372" lon="4.42353">
        <ele>52.774959</ele>
        <time>2024-07-04T06:47:45.317Z</time>
      </trkpt>
      <trkpt lat="51.91372" lon="4.42337">
        <ele>52.817964</ele>
        <time>2024-07-04T06:47:47.336Z</time>
      </trkpt>
      <trkpt lat="51.91373" lon="4.42321">
        <ele>52.86156</ele>
        <time>2024-07-04T06:47:49.324Z</time>
      </trkpt>
      <trkpt lat="51.91375" lon="4.42306">
        <ele>52.905085</ele>
        <time>2024-07-04T06:47:51.335Z</time>
      </trkpt>
      <trkpt lat="51.91376" lon="4.4229">
        <ele>52.948681</ele>
        <time>2024-07-04T06:47:53.331Z</time>
      </trkpt>
      <trkpt lat="51.91377" lon="4.42274">
        <ele>52.992422</ele>
        <time>2024-07-04T06:47:55.319Z</time>
      </trkpt>
      <trkpt lat="51.91378" lon="4.42259">
        <ele>53.034187</ele>
        <time>2024-07-04T06:47:57.321Z</time>
      </trkpt>
      <trkpt lat="51.91379" lon="4.42243">
        <ele>53.078609</ele>
        <time>2024-07-04T06:47:59.320Z</time>
      </trkpt>
      <trkpt lat="51.9138" lon="4.42228">
        <ele>53.121654</ele>
        <time>2024-07-04T06:48:01.316Z</time>
      </trkpt>
      <trkpt lat="51.9138" lon="4.42212">
        <ele>53.164625</ele>
        <time>2024-07-04T06:48:03.323Z</time>
      </trkpt>
      <trkpt lat="51.91381" lon="4.42196">
        <ele>53.208772</ele>
        <time>2024-07-04T06:48:05.322Z</time>
      </trkpt>
      <trkpt lat="51.91382" lon="4.42181">
        <ele>53.250675</ele>
        <time>2024-07-04T06:48:07.317Z</time>
      </trkpt>
      <trkpt lat="51.91384" lon="4.42167">
        <ele>53.291028</ele>
        <time>2024-07-04T06:48:09.320Z</time>
      </trkpt>
      <trkpt lat="51.91385" lon="4.42152">
        <ele>53.333207</ele>
        <time>2024-07-04T06:48:11.320Z</time>
      </trkpt>
      <trkpt lat="51.91386" lon="4.42137">
        <ele>53.375699</ele>
        <time>2024-07-04T06:48:13.318Z</time>
      </trkpt>
      <trkpt lat="51.91387" lon="4.42121">
        <ele>53.42032</ele>
        <time>2024-07-04T06:48:15.323Z</time>
      </trkpt>
      <trkpt lat="51.91388" lon="4.42105">
        <ele>53.463842</ele>
        <time>2024-07-04T06:48:17.320Z</time>
      </trkpt>
      <trkpt lat="51.91389" lon="4.42089">
        <ele>53.506848</ele>
        <time>2024-07-04T06:48:19.323Z</time>
      </trkpt>
      <trkpt lat="51.91389" lon="4.42074">
        <ele>53.523156</ele>
        <time>2024-07-04T06:48:21.317Z</time>
      </trkpt>
      <trkpt lat="51.9139" lon="4.42059">
        <ele>53.522103</ele>
        <time>2024-07-04T06:48:23.315Z</time>
      </trkpt>
      <trkpt lat="51.9139" lon="4.42043">
        <ele>53.521024</ele>
        <time>2024-07-04T06:48:25.329Z</time>
      </trkpt>
      <trkpt lat="51.91393" lon="4.42022">
        <ele>53.519501</ele>
        <time>2024-07-04T06:48:28.328Z</time>
      </trkpt>
      <trkpt lat="51.91394" lon="4.42007">
        <ele>53.518478</ele>
        <time>2024-07-04T06:48:30.334Z</time>
      </trkpt>
      <trkpt lat="51.91394" lon="4.41992">
        <ele>53.517452</ele>
        <time>2024-07-04T06:48:32.324Z</time>
      </trkpt>
      <trkpt lat="51.91395" lon="4.41976">
        <ele>53.51637</ele>
        <time>2024-07-04T06:48:34.334Z</time>
      </trkpt>
      <trkpt lat="51.91396" lon="4.41961">
        <ele>53.515317</ele>
        <time>2024-07-04T06:48:36.317Z</time>
      </trkpt>
      <trkpt lat="51.91396" lon="4.41946">
        <ele>53.514294</ele>
        <time>2024-07-04T06:48:38.312Z</time>
      </trkpt>
      <trkpt lat="51.91397" lon="4.4193">
        <ele>53.513144</ele>
        <time>2024-07-04T06:48:40.323Z</time>
      </trkpt>
      <trkpt lat="51.91398" lon="4.41915">
        <ele>53.512074</ele>
        <time>2024-07-04T06:48:42.320Z</time>
      </trkpt>
      <trkpt lat="51.914" lon="4.41898">
        <ele>53.510946</ele>
        <time>2024-07-04T06:48:44.309Z</time>
      </trkpt>
      <trkpt lat="51.914" lon="4.41883">
        <ele>53.509915</ele>
        <time>2024-07-04T06:48:46.337Z</time>
      </trkpt>
      <trkpt lat="51.91401" lon="4.41869">
        <ele>53.508895</ele>
        <time>2024-07-04T06:48:48.325Z</time>
      </trkpt>
      <trkpt lat="51.91403" lon="4.41854">
        <ele>53.507828</ele>
        <time>2024-07-04T06:48:50.320Z</time>
      </trkpt>
      <trkpt lat="51.91404" lon="4.41832">
        <ele>53.506321</ele>
        <time>2024-07-04T06:48:53.315Z</time>
      </trkpt>
      <trkpt lat="51.91405" lon="4.41811">
        <ele>53.504871</ele>
        <time>2024-07-04T06:48:56.324Z</time>
      </trkpt>
      <trkpt lat="51.91407" lon="4.4179">
        <ele>53.49727</ele>
        <time>2024-07-04T06:48:59.329Z</time>
      </trkpt>
      <trkpt lat="51.91408" lon="4.41769">
        <ele>53.460968</ele>
        <time>2024-07-04T06:49:02.335Z</time>
      </trkpt>
      <trkpt lat="51.91409" lon="4.41747">
        <ele>53.424313</ele>
        <time>2024-07-04T06:49:05.315Z</time>
      </trkpt>
      <trkpt lat="51.91411" lon="4.41727">
        <ele>53.389163</ele>
        <time>2024-07-04T06:49:08.327Z</time>
      </trkpt>
      <trkpt lat="51.91411" lon="4.41707">
        <ele>53.355082</ele>
        <time>2024-07-04T06:49:11.319Z</time>
      </trkpt>
      <trkpt lat="51.91413" lon="4.41687">
        <ele>53.320616</ele>
        <time>2024-07-04T06:49:14.304Z</time>
      </trkpt>
      <trkpt lat="51.91415" lon="4.41668">
        <ele>53.285701</ele>
        <time>2024-07-04T06:49:17.332Z</time>
      </trkpt>
      <trkpt lat="51.91417" lon="4.41649">
        <ele>53.253074</ele>
        <time>2024-07-04T06:49:20.319Z</time>
      </trkpt>
      <trkpt lat="51.9142" lon="4.4163">
        <ele>53.219523</ele>
        <time>2024-07-04T06:49:23.329Z</time>
      </trkpt>
      <trkpt lat="51.9142" lon="4.41608">
        <ele>53.182199</ele>
        <time>2024-07-04T06:49:26.312Z</time>
      </trkpt>
      <trkpt lat="51.9142" lon="4.41593">
        <ele>53.156913</ele>
        <time>2024-07-04T06:49:28.321Z</time>
      </trkpt>
      <trkpt lat="51.91421" lon="4.41578">
        <ele>53.130058</ele>
        <time>2024-07-04T06:49:30.325Z</time>
      </trkpt>
      <trkpt lat="51.91422" lon="4.41562">
        <ele>53.102843</ele>
        <time>2024-07-04T06:49:32.318Z</time>
      </trkpt>
      <trkpt lat="51.91423" lon="4.41547">
        <ele>53.076873</ele>
        <time>2024-07-04T06:49:34.333Z</time>
      </trkpt>
      <trkpt lat="51.91423" lon="4.41532">
        <ele>53.050326</ele>
        <time>2024-07-04T06:49:36.332Z</time>
      </trkpt>
      <trkpt lat="51.91424" lon="4.41517">
        <ele>53.02493</ele>
        <time>2024-07-04T06:49:38.317Z</time>
      </trkpt>
      <trkpt lat="51.91425" lon="4.41502">
        <ele>53.014067</ele>
        <time>2024-07-04T06:49:40.399Z</time>
      </trkpt>
      <trkpt lat="51.91426" lon="4.41487">
        <ele>53.100208</ele>
        <time>2024-07-04T06:49:42.320Z</time>
      </trkpt>
      <trkpt lat="51.91427" lon="4.41467">
        <ele>53.21967</ele>
        <time>2024-07-04T06:49:45.342Z</time>
      </trkpt>
      <trkpt lat="51.9143" lon="4.41446">
        <ele>53.343612</ele>
        <time>2024-07-04T06:49:48.320Z</time>
      </trkpt>
      <trkpt lat="51.91431" lon="4.41425">
        <ele>53.462951</ele>
        <time>2024-07-04T06:49:51.322Z</time>
      </trkpt>
      <trkpt lat="51.91432" lon="4.41411">
        <ele>53.548427</ele>
        <time>2024-07-04T06:49:53.340Z</time>
      </trkpt>
      <trkpt lat="51.91432" lon="4.41396">
        <ele>53.634398</ele>
        <time>2024-07-04T06:49:55.322Z</time>
      </trkpt>
      <trkpt lat="51.91434" lon="4.41381">
        <ele>53.720331</ele>
        <time>2024-07-04T06:49:57.339Z</time>
      </trkpt>
      <trkpt lat="51.91435" lon="4.4136">
        <ele>53.841983</ele>
        <time>2024-07-04T06:50:00.315Z</time>
      </trkpt>
      <trkpt lat="51.91435" lon="4.41339">
        <ele>53.965822</ele>
        <time>2024-07-04T06:50:03.316Z</time>
      </trkpt>
      <trkpt lat="51.91436" lon="4.41318">
        <ele>54.084881</ele>
        <time>2024-07-04T06:50:06.317Z</time>
      </trkpt>
      <trkpt lat="51.91436" lon="4.41298">
        <ele>54.205141</ele>
        <time>2024-07-04T06:50:09.327Z</time>
      </trkpt>
      <trkpt lat="51.91437" lon="4.41283">
        <ele>54.291076</ele>
        <time>2024-07-04T06:50:11.331Z</time>
      </trkpt>
      <trkpt lat="51.91439" lon="4.41262">
        <ele>54.412965</ele>
        <time>2024-07-04T06:50:14.323Z</time>
      </trkpt>
      <trkpt lat="51.9144" lon="4.41242">
        <ele>54.529411</ele>
        <time>2024-07-04T06:50:17.320Z</time>
      </trkpt>
      <trkpt lat="51.91435" lon="4.41221">
        <ele>54.655922</ele>
        <time>2024-07-04T06:50:20.319Z</time>
      </trkpt>
      <trkpt lat="51.91435" lon="4.41205">
        <ele>54.694826</ele>
        <time>2024-07-04T06:50:22.338Z</time>
      </trkpt>
      <trkpt lat="51.91436" lon="4.41188">
        <ele>54.695345</ele>
        <time>2024-07-04T06:50:24.337Z</time>
      </trkpt>
      <trkpt lat="51.91437" lon="4.41172">
        <ele>54.69584</ele>
        <time>2024-07-04T06:50:26.335Z</time>
      </trkpt>
      <trkpt lat="51.91439" lon="4.41158">
        <ele>54.696302</ele>
        <time>2024-07-04T06:50:28.313Z</time>
      </trkpt>
      <trkpt lat="51.91441" lon="4.41143">
        <ele>54.696759</ele>
        <time>2024-07-04T06:50:30.333Z</time>
      </trkpt>
      <trkpt lat="51.91443" lon="4.41123">
        <ele>54.697405</ele>
        <time>2024-07-04T06:50:33.341Z</time>
      </trkpt>
      <trkpt lat="51.91445" lon="4.41103">
        <ele>54.698017</ele>
        <time>2024-07-04T06:50:36.327Z</time>
      </trkpt>
      <trkpt lat="51.91447" lon="4.41083">
        <ele>54.698646</ele>
        <time>2024-07-04T06:50:39.311Z</time>
      </trkpt>
      <trkpt lat="51.91448" lon="4.41068">
        <ele>54.699102</ele>
        <time>2024-07-04T06:50:41.330Z</time>
      </trkpt>
      <trkpt lat="51.91448" lon="4.41048">
        <ele>54.699736</ele>
        <time>2024-07-04T06:50:44.308Z</time>
      </trkpt>
      <trkpt lat="51.91449" lon="4.41028">
        <ele>54.700351</ele>
        <time>2024-07-04T06:50:47.336Z</time>
      </trkpt>
      <trkpt lat="51.9145" lon="4.41009">
        <ele>54.700944</ele>
        <time>2024-07-04T06:50:50.332Z</time>
      </trkpt>
      <trkpt lat="51.91453" lon="4.40991">
        <ele>54.70152</ele>
        <time>2024-07-04T06:50:53.335Z</time>
      </trkpt>
      <trkpt lat="51.91453" lon="4.40974">
        <ele>54.702053</ele>
        <time>2024-07-04T06:50:56.340Z</time>
      </trkpt>
      <trkpt lat="51.91455" lon="4.40959">
        <ele>54.702509</ele>
        <time>2024-07-04T06:50:59.326Z</time>
      </trkpt>
      <trkpt lat="51.91457" lon="4.40943">
        <ele>54.703012</ele>
        <time>2024-07-04T06:51:03.317Z</time>
      </trkpt>
      <trkpt lat="51.9146" lon="4.40927">
        <ele>54.698983</ele>
        <time>2024-07-04T06:51:08.319Z</time>
      </trkpt>
      <trkpt lat="51.91463" lon="4.40911">
        <ele>54.533601</ele>
        <time>2024-07-04T06:51:18.319Z</time>
      </trkpt>
      <trkpt lat="51.91465" lon="4.40893">
        <ele>54.340663</ele>
        <time>2024-07-04T06:51:22.309Z</time>
      </trkpt>
      <trkpt lat="51.91467" lon="4.40878">
        <ele>54.172722</ele>
        <time>2024-07-04T06:51:25.329Z</time>
      </trkpt>
      <trkpt lat="51.91469" lon="4.40858">
        <ele>53.962684</ele>
        <time>2024-07-04T06:51:28.299Z</time>
      </trkpt>
      <trkpt lat="51.91471" lon="4.40838">
        <ele>53.74733</ele>
        <time>2024-07-04T06:51:31.321Z</time>
      </trkpt>
      <trkpt lat="51.91473" lon="4.40819">
        <ele>53.550987</ele>
        <time>2024-07-04T06:51:34.318Z</time>
      </trkpt>
      <trkpt lat="51.91476" lon="4.408">
        <ele>53.351233</ele>
        <time>2024-07-04T06:51:37.344Z</time>
      </trkpt>
      <trkpt lat="51.91478" lon="4.40782">
        <ele>53.151479</ele>
        <time>2024-07-04T06:51:40.324Z</time>
      </trkpt>
      <trkpt lat="51.9148" lon="4.40763">
        <ele>52.95308</ele>
        <time>2024-07-04T06:51:43.318Z</time>
      </trkpt>
      <trkpt lat="51.91483" lon="4.40743">
        <ele>52.74272</ele>
        <time>2024-07-04T06:51:46.320Z</time>
      </trkpt>
      <trkpt lat="51.91485" lon="4.40723">
        <ele>52.525556</ele>
        <time>2024-07-04T06:51:49.318Z</time>
      </trkpt>
      <trkpt lat="51.91486" lon="4.40702">
        <ele>52.301813</ele>
        <time>2024-07-04T06:51:52.312Z</time>
      </trkpt>
      <trkpt lat="51.91487" lon="4.4068">
        <ele>52.07502</ele>
        <time>2024-07-04T06:51:55.302Z</time>
      </trkpt>
      <trkpt lat="51.91489" lon="4.40659">
        <ele>51.850352</ele>
        <time>2024-07-04T06:51:58.339Z</time>
      </trkpt>
      <trkpt lat="51.91491" lon="4.40639">
        <ele>51.647053</ele>
        <time>2024-07-04T06:52:01.320Z</time>
      </trkpt>
      <trkpt lat="51.91492" lon="4.40617">
        <ele>51.604798</ele>
        <time>2024-07-04T06:52:04.300Z</time>
      </trkpt>
      <trkpt lat="51.91493" lon="4.40603">
        <ele>51.576203</ele>
        <time>2024-07-04T06:52:06.323Z</time>
      </trkpt>
      <trkpt lat="51.91493" lon="4.40588">
        <ele>51.547859</ele>
        <time>2024-07-04T06:52:08.297Z</time>
      </trkpt>
      <trkpt lat="51.91494" lon="4.40568">
        <ele>51.508013</ele>
        <time>2024-07-04T06:52:11.314Z</time>
      </trkpt>
      <trkpt lat="51.91496" lon="4.40548">
        <ele>51.469434</ele>
        <time>2024-07-04T06:52:14.329Z</time>
      </trkpt>
      <trkpt lat="51.91497" lon="4.40528">
        <ele>51.431143</ele>
        <time>2024-07-04T06:52:17.315Z</time>
      </trkpt>
      <trkpt lat="51.91498" lon="4.40509">
        <ele>51.393522</ele>
        <time>2024-07-04T06:52:20.314Z</time>
      </trkpt>
      <trkpt lat="51.915" lon="4.4049">
        <ele>51.355838</ele>
        <time>2024-07-04T06:52:23.335Z</time>
      </trkpt>
      <trkpt lat="51.91501" lon="4.40472">
        <ele>51.320786</ele>
        <time>2024-07-04T06:52:26.316Z</time>
      </trkpt>
      <trkpt lat="51.91502" lon="4.40453">
        <ele>51.283968</ele>
        <time>2024-07-04T06:52:29.312Z</time>
      </trkpt>
      <trkpt lat="51.91502" lon="4.40432">
        <ele>51.242657</ele>
        <time>2024-07-04T06:52:32.316Z</time>
      </trkpt>
      <trkpt lat="51.91502" lon="4.40411">
        <ele>51.202121</ele>
        <time>2024-07-04T06:52:35.335Z</time>
      </trkpt>
      <trkpt lat="51.91502" lon="4.4039">
        <ele>51.161779</ele>
        <time>2024-07-04T06:52:38.317Z</time>
      </trkpt>
      <trkpt lat="51.91502" lon="4.40372">
        <ele>51.12745</ele>
        <time>2024-07-04T06:52:41.334Z</time>
      </trkpt>
      <trkpt lat="51.915" lon="4.40354">
        <ele>51.09154</ele>
        <time>2024-07-04T06:52:44.316Z</time>
      </trkpt>
      <trkpt lat="51.91497" lon="4.40335">
        <ele>51.159099</ele>
        <time>2024-07-04T06:52:47.317Z</time>
      </trkpt>
      <trkpt lat="51.91493" lon="4.4032">
        <ele>51.240847</ele>
        <time>2024-07-04T06:52:50.331Z</time>
      </trkpt>
      <trkpt lat="51.9149" lon="4.40306">
        <ele>51.314443</ele>
        <time>2024-07-04T06:52:53.328Z</time>
      </trkpt>
      <trkpt lat="51.91485" lon="4.40291">
        <ele>51.39703</ele>
        <time>2024-07-04T06:52:57.322Z</time>
      </trkpt>
      <trkpt lat="51.91476" lon="4.40278">
        <ele>51.495067</ele>
        <time>2024-07-04T06:53:19.313Z</time>
      </trkpt>
      <trkpt lat="51.91473" lon="4.40262">
        <ele>51.580304</ele>
        <time>2024-07-04T06:53:52.316Z</time>
      </trkpt>
      <trkpt lat="51.91469" lon="4.40246">
        <ele>51.662372</ele>
        <time>2024-07-04T06:53:56.321Z</time>
      </trkpt>
      <trkpt lat="51.91464" lon="4.40229">
        <ele>51.758577</ele>
        <time>2024-07-04T06:54:00.315Z</time>
      </trkpt>
      <trkpt lat="51.9146" lon="4.40213">
        <ele>51.841403</ele>
        <time>2024-07-04T06:54:03.322Z</time>
      </trkpt>
      <trkpt lat="51.91455" lon="4.40198">
        <ele>51.925316</ele>
        <time>2024-07-04T06:54:06.321Z</time>
      </trkpt>
      <trkpt lat="51.91449" lon="4.40183">
        <ele>52.018799</ele>
        <time>2024-07-04T06:54:09.323Z</time>
      </trkpt>
      <trkpt lat="51.91442" lon="4.4017">
        <ele>52.100746</ele>
        <time>2024-07-04T06:54:12.320Z</time>
      </trkpt>
      <trkpt lat="51.9143" lon="4.40166">
        <ele>52.202366</ele>
        <time>2024-07-04T06:54:15.358Z</time>
      </trkpt>
      <trkpt lat="51.9142" lon="4.40163">
        <ele>52.282309</ele>
        <time>2024-07-04T06:54:17.328Z</time>
      </trkpt>
      <trkpt lat="51.91408" lon="4.4016">
        <ele>52.381964</ele>
        <time>2024-07-04T06:54:20.304Z</time>
      </trkpt>
      <trkpt lat="51.91397" lon="4.40155">
        <ele>52.469015</ele>
        <time>2024-07-04T06:54:23.327Z</time>
      </trkpt>
      <trkpt lat="51.91387" lon="4.40147">
        <ele>52.514083</ele>
        <time>2024-07-04T06:54:26.300Z</time>
      </trkpt>
      <trkpt lat="51.9138" lon="4.40136">
        <ele>52.471841</ele>
        <time>2024-07-04T06:54:28.304Z</time>
      </trkpt>
      <trkpt lat="51.91374" lon="4.40123">
        <ele>52.430564</ele>
        <time>2024-07-04T06:54:30.309Z</time>
      </trkpt>
      <trkpt lat="51.91368" lon="4.40109">
        <ele>52.388715</ele>
        <time>2024-07-04T06:54:32.308Z</time>
      </trkpt>
      <trkpt lat="51.91363" lon="4.40097">
        <ele>52.347861</ele>
        <time>2024-07-04T06:54:34.332Z</time>
      </trkpt>
      <trkpt lat="51.91358" lon="4.40084">
        <ele>52.309358</ele>
        <time>2024-07-04T06:54:36.307Z</time>
      </trkpt>
      <trkpt lat="51.9135" lon="4.4007">
        <ele>52.259881</ele>
        <time>2024-07-04T06:54:39.321Z</time>
      </trkpt>
      <trkpt lat="51.91343" lon="4.40056">
        <ele>52.212412</ele>
        <time>2024-07-04T06:54:42.312Z</time>
      </trkpt>
      <trkpt lat="51.91336" lon="4.40044">
        <ele>52.167807</ele>
        <time>2024-07-04T06:54:45.322Z</time>
      </trkpt>
      <trkpt lat="51.91328" lon="4.40031">
        <ele>52.121648</ele>
        <time>2024-07-04T06:54:48.335Z</time>
      </trkpt>
      <trkpt lat="51.9132" lon="4.40018">
        <ele>52.070653</ele>
        <time>2024-07-04T06:54:51.323Z</time>
      </trkpt>
      <trkpt lat="51.91313" lon="4.40008">
        <ele>52.031913</ele>
        <time>2024-07-04T06:54:53.316Z</time>
      </trkpt>
      <trkpt lat="51.91306" lon="4.39997">
        <ele>51.993426</ele>
        <time>2024-07-04T06:54:55.324Z</time>
      </trkpt>
      <trkpt lat="51.913" lon="4.39986">
        <ele>51.953219</ele>
        <time>2024-07-04T06:54:57.318Z</time>
      </trkpt>
      <trkpt lat="51.91291" lon="4.3997">
        <ele>51.897562</ele>
        <time>2024-07-04T06:55:00.319Z</time>
      </trkpt>
      <trkpt lat="51.91281" lon="4.39956">
        <ele>51.840344</ele>
        <time>2024-07-04T06:55:03.321Z</time>
      </trkpt>
      <trkpt lat="51.91271" lon="4.39944">
        <ele>51.788104</ele>
        <time>2024-07-04T06:55:06.315Z</time>
      </trkpt>
      <trkpt lat="51.91264" lon="4.39933">
        <ele>51.722822</ele>
        <time>2024-07-04T06:55:09.312Z</time>
      </trkpt>
      <trkpt lat="51.91258" lon="4.39921">
        <ele>51.637632</ele>
        <time>2024-07-04T06:55:12.319Z</time>
      </trkpt>
      <trkpt lat="51.91259" lon="4.39906">
        <ele>51.552762</ele>
        <time>2024-07-04T06:55:15.340Z</time>
      </trkpt>
      <trkpt lat="51.91261" lon="4.39883">
        <ele>51.426812</ele>
        <time>2024-07-04T06:56:47.322Z</time>
      </trkpt>
      <trkpt lat="51.91269" lon="4.39871">
        <ele>51.330262</ele>
        <time>2024-07-04T06:56:52.298Z</time>
      </trkpt>
      <trkpt lat="51.91277" lon="4.39859">
        <ele>51.233313</ele>
        <time>2024-07-04T06:56:56.323Z</time>
      </trkpt>
      <trkpt lat="51.91283" lon="4.39848">
        <ele>51.150005</ele>
        <time>2024-07-04T06:56:59.308Z</time>
      </trkpt>
      <trkpt lat="51.91291" lon="4.39835">
        <ele>51.055068</ele>
        <time>2024-07-04T06:57:02.315Z</time>
      </trkpt>
      <trkpt lat="51.91299" lon="4.39823">
        <ele>50.959829</ele>
        <time>2024-07-04T06:57:05.348Z</time>
      </trkpt>
      <trkpt lat="51.91307" lon="4.3981">
        <ele>50.85966</ele>
        <time>2024-07-04T06:57:08.309Z</time>
      </trkpt>
      <trkpt lat="51.91313" lon="4.39798">
        <ele>50.770088</ele>
        <time>2024-07-04T06:57:11.322Z</time>
      </trkpt>
      <trkpt lat="51.9132" lon="4.39786">
        <ele>50.683975</ele>
        <time>2024-07-04T06:57:14.319Z</time>
      </trkpt>
      <trkpt lat="51.91327" lon="4.39775">
        <ele>50.598419</ele>
        <time>2024-07-04T06:57:17.328Z</time>
      </trkpt>
      <trkpt lat="51.91333" lon="4.39763">
        <ele>50.508848</ele>
        <time>2024-07-04T06:57:20.316Z</time>
      </trkpt>
      <trkpt lat="51.91334" lon="4.39747">
        <ele>50.422693</ele>
        <time>2024-07-04T06:57:23.320Z</time>
      </trkpt>
      <trkpt lat="51.9133" lon="4.39734">
        <ele>50.341464</ele>
        <time>2024-07-04T06:57:26.306Z</time>
      </trkpt>
      <trkpt lat="51.91321" lon="4.39729">
        <ele>50.259064</ele>
        <time>2024-07-04T06:57:28.306Z</time>
      </trkpt>
      <trkpt lat="51.91313" lon="4.39721">
        <ele>50.177683</ele>
        <time>2024-07-04T06:57:30.339Z</time>
      </trkpt>
      <trkpt lat="51.91307" lon="4.39709">
        <ele>50.013854</ele>
        <time>2024-07-04T06:57:32.329Z</time>
      </trkpt>
      <trkpt lat="51.91301" lon="4.39697">
        <ele>49.849537</ele>
        <time>2024-07-04T06:57:34.327Z</time>
      </trkpt>
      <trkpt lat="51.91295" lon="4.39686">
        <ele>49.686437</ele>
        <time>2024-07-04T06:57:36.310Z</time>
      </trkpt>
      <trkpt lat="51.91288" lon="4.39674">
        <ele>49.5111</ele>
        <time>2024-07-04T06:57:38.314Z</time>
      </trkpt>
      <trkpt lat="51.91281" lon="4.39664">
        <ele>49.342951</ele>
        <time>2024-07-04T06:57:40.329Z</time>
      </trkpt>
      <trkpt lat="51.91275" lon="4.39652">
        <ele>49.174836</ele>
        <time>2024-07-04T06:57:42.330Z</time>
      </trkpt>
      <trkpt lat="51.91266" lon="4.39637">
        <ele>48.949581</ele>
        <time>2024-07-04T06:57:45.330Z</time>
      </trkpt>
      <trkpt lat="51.91258" lon="4.39627">
        <ele>48.778931</ele>
        <time>2024-07-04T06:57:47.329Z</time>
      </trkpt>
      <trkpt lat="51.91251" lon="4.39616">
        <ele>48.613617</ele>
        <time>2024-07-04T06:57:49.331Z</time>
      </trkpt>
      <trkpt lat="51.91244" lon="4.39604">
        <ele>48.434158</ele>
        <time>2024-07-04T06:57:51.325Z</time>
      </trkpt>
      <trkpt lat="51.91237" lon="4.39594">
        <ele>48.260775</ele>
        <time>2024-07-04T06:57:53.308Z</time>
      </trkpt>
      <trkpt lat="51.9123" lon="4.39583">
        <ele>48.101232</ele>
        <time>2024-07-04T06:57:55.314Z</time>
      </trkpt>
      <trkpt lat="51.91222" lon="4.39568">
        <ele>47.877741</ele>
        <time>2024-07-04T06:57:58.314Z</time>
      </trkpt>
      <trkpt lat="51.91217" lon="4.39555">
        <ele>47.710458</ele>
        <time>2024-07-04T06:58:00.318Z</time>
      </trkpt>
      <trkpt lat="51.91213" lon="4.39541">
        <ele>47.546628</ele>
        <time>2024-07-04T06:58:02.306Z</time>
      </trkpt>
      <trkpt lat="51.91207" lon="4.39522">
        <ele>47.320724</ele>
        <time>2024-07-04T06:58:05.331Z</time>
      </trkpt>
      <trkpt lat="51.91201" lon="4.39504">
        <ele>47.093855</ele>
        <time>2024-07-04T06:58:08.321Z</time>
      </trkpt>
      <trkpt lat="51.91196" lon="4.39485">
        <ele>46.882763</ele>
        <time>2024-07-04T06:58:11.302Z</time>
      </trkpt>
      <trkpt lat="51.91192" lon="4.39471">
        <ele>46.729862</ele>
        <time>2024-07-04T06:58:13.315Z</time>
      </trkpt>
      <trkpt lat="51.91189" lon="4.39457">
        <ele>46.571562</ele>
        <time>2024-07-04T06:58:15.329Z</time>
      </trkpt>
      <trkpt lat="51.91186" lon="4.39443">
        <ele>46.420524</ele>
        <time>2024-07-04T06:58:17.318Z</time>
      </trkpt>
      <trkpt lat="51.91181" lon="4.39423">
        <ele>46.205324</ele>
        <time>2024-07-04T06:58:20.318Z</time>
      </trkpt>
      <trkpt lat="51.91176" lon="4.39404">
        <ele>45.990122</ele>
        <time>2024-07-04T06:58:23.334Z</time>
      </trkpt>
      <trkpt lat="51.91172" lon="4.3939">
        <ele>45.834073</ele>
        <time>2024-07-04T06:58:25.331Z</time>
      </trkpt>
      <trkpt lat="51.91168" lon="4.39375">
        <ele>45.674242</ele>
        <time>2024-07-04T06:58:27.320Z</time>
      </trkpt>
      <trkpt lat="51.91164" lon="4.39362">
        <ele>45.517718</ele>
        <time>2024-07-04T06:58:29.325Z</time>
      </trkpt>
      <trkpt lat="51.91161" lon="4.3934">
        <ele>45.291446</ele>
        <time>2024-07-04T06:58:32.328Z</time>
      </trkpt>
      <trkpt lat="51.91158" lon="4.39324">
        <ele>45.121724</ele>
        <time>2024-07-04T06:58:34.317Z</time>
      </trkpt>
      <trkpt lat="51.91155" lon="4.39309">
        <ele>44.955398</ele>
        <time>2024-07-04T06:58:36.319Z</time>
      </trkpt>
      <trkpt lat="51.91152" lon="4.39292">
        <ele>44.780316</ele>
        <time>2024-07-04T06:58:38.316Z</time>
      </trkpt>
      <trkpt lat="51.91149" lon="4.39275">
        <ele>44.602814</ele>
        <time>2024-07-04T06:58:40.320Z</time>
      </trkpt>
      <trkpt lat="51.91147" lon="4.39259">
        <ele>44.433535</ele>
        <time>2024-07-04T06:58:42.314Z</time>
      </trkpt>
      <trkpt lat="51.91145" lon="4.39244">
        <ele>44.277456</ele>
        <time>2024-07-04T06:58:44.323Z</time>
      </trkpt>
      <trkpt lat="51.91143" lon="4.39229">
        <ele>44.123838</ele>
        <time>2024-07-04T06:58:46.318Z</time>
      </trkpt>
      <trkpt lat="51.91142" lon="4.39214">
        <ele>44.126497</ele>
        <time>2024-07-04T06:58:48.317Z</time>
      </trkpt>
      <trkpt lat="51.9114" lon="4.39199">
        <ele>44.26592</ele>
        <time>2024-07-04T06:58:50.317Z</time>
      </trkpt>
      <trkpt lat="51.91139" lon="4.39184">
        <ele>44.403098</ele>
        <time>2024-07-04T06:58:52.332Z</time>
      </trkpt>
      <trkpt lat="51.91137" lon="4.3917">
        <ele>44.538539</ele>
        <time>2024-07-04T06:58:54.318Z</time>
      </trkpt>
      <trkpt lat="51.91136" lon="4.39155">
        <ele>44.673981</ele>
        <time>2024-07-04T06:58:56.308Z</time>
      </trkpt>
      <trkpt lat="51.91132" lon="4.39141">
        <ele>44.813931</ele>
        <time>2024-07-04T06:58:58.313Z</time>
      </trkpt>
      <trkpt lat="51.91129" lon="4.39127">
        <ele>44.947212</ele>
        <time>2024-07-04T06:59:00.323Z</time>
      </trkpt>
      <trkpt lat="51.91128" lon="4.39112">
        <ele>45.081873</ele>
        <time>2024-07-04T06:59:02.303Z</time>
      </trkpt>
      <trkpt lat="51.91127" lon="4.39097">
        <ele>45.226087</ele>
        <time>2024-07-04T06:59:04.317Z</time>
      </trkpt>
      <trkpt lat="51.91127" lon="4.39075">
        <ele>45.419485</ele>
        <time>2024-07-04T06:59:07.319Z</time>
      </trkpt>
      <trkpt lat="51.91132" lon="4.39058">
        <ele>45.591576</ele>
        <time>2024-07-04T06:59:10.306Z</time>
      </trkpt>
      <trkpt lat="51.91129" lon="4.39039">
        <ele>45.769878</ele>
        <time>2024-07-04T06:59:13.307Z</time>
      </trkpt>
      <trkpt lat="51.91127" lon="4.39018">
        <ele>45.96448</ele>
        <time>2024-07-04T06:59:16.314Z</time>
      </trkpt>
      <trkpt lat="51.91127" lon="4.38998">
        <ele>46.149585</ele>
        <time>2024-07-04T06:59:19.319Z</time>
      </trkpt>
      <trkpt lat="51.91127" lon="4.38978">
        <ele>46.3274</ele>
        <time>2024-07-04T06:59:22.300Z</time>
      </trkpt>
      <trkpt lat="51.91128" lon="4.38957">
        <ele>46.522248</ele>
        <time>2024-07-04T06:59:25.317Z</time>
      </trkpt>
      <trkpt lat="51.91129" lon="4.38936">
        <ele>46.710487</ele>
        <time>2024-07-04T06:59:28.306Z</time>
      </trkpt>
      <trkpt lat="51.91129" lon="4.38921">
        <ele>46.750805</ele>
        <time>2024-07-04T06:59:30.317Z</time>
      </trkpt>
      <trkpt lat="51.91129" lon="4.389">
        <ele>46.809112</ele>
        <time>2024-07-04T06:59:33.327Z</time>
      </trkpt>
      <trkpt lat="51.9113" lon="4.3888">
        <ele>46.865254</ele>
        <time>2024-07-04T06:59:36.323Z</time>
      </trkpt>
      <trkpt lat="51.91131" lon="4.38861">
        <ele>46.918364</ele>
        <time>2024-07-04T06:59:39.323Z</time>
      </trkpt>
      <trkpt lat="51.91131" lon="4.38841">
        <ele>46.973882</ele>
        <time>2024-07-04T06:59:42.317Z</time>
      </trkpt>
      <trkpt lat="51.91131" lon="4.3882">
        <ele>47.029939</ele>
        <time>2024-07-04T06:59:45.343Z</time>
      </trkpt>
      <trkpt lat="51.91132" lon="4.38806">
        <ele>47.070537</ele>
        <time>2024-07-04T06:59:47.332Z</time>
      </trkpt>
      <trkpt lat="51.91133" lon="4.38784">
        <ele>47.130109</ele>
        <time>2024-07-04T06:59:50.330Z</time>
      </trkpt>
      <trkpt lat="51.91134" lon="4.38764">
        <ele>47.187008</ele>
        <time>2024-07-04T06:59:53.314Z</time>
      </trkpt>
      <trkpt lat="51.91134" lon="4.38743">
        <ele>47.244997</ele>
        <time>2024-07-04T06:59:56.322Z</time>
      </trkpt>
      <trkpt lat="51.91134" lon="4.38728">
        <ele>47.285591</ele>
        <time>2024-07-04T06:59:58.317Z</time>
      </trkpt>
      <trkpt lat="51.91135" lon="4.38709">
        <ele>47.337696</ele>
        <time>2024-07-04T07:00:01.317Z</time>
      </trkpt>
      <trkpt lat="51.91135" lon="4.38689">
        <ele>47.393243</ele>
        <time>2024-07-04T07:00:04.319Z</time>
      </trkpt>
      <trkpt lat="51.91135" lon="4.38669">
        <ele>47.450142</ele>
        <time>2024-07-04T07:00:07.336Z</time>
      </trkpt>
      <trkpt lat="51.91136" lon="4.38649">
        <ele>47.503556</ele>
        <time>2024-07-04T07:00:10.319Z</time>
      </trkpt>
      <trkpt lat="51.91137" lon="4.38631">
        <ele>47.501948</ele>
        <time>2024-07-04T07:00:13.316Z</time>
      </trkpt>
      <trkpt lat="51.91137" lon="4.38611">
        <ele>47.484458</ele>
        <time>2024-07-04T07:00:16.336Z</time>
      </trkpt>
      <trkpt lat="51.91139" lon="4.38591">
        <ele>47.467597</ele>
        <time>2024-07-04T07:00:19.325Z</time>
      </trkpt>
      <trkpt lat="51.91141" lon="4.38572">
        <ele>47.450066</ele>
        <time>2024-07-04T07:00:22.310Z</time>
      </trkpt>
      <trkpt lat="51.91142" lon="4.38552">
        <ele>47.432893</ele>
        <time>2024-07-04T07:00:25.317Z</time>
      </trkpt>
      <trkpt lat="51.91143" lon="4.38534">
        <ele>47.416954</ele>
        <time>2024-07-04T07:00:28.335Z</time>
      </trkpt>
      <trkpt lat="51.91144" lon="4.38516">
        <ele>47.401108</ele>
        <time>2024-07-04T07:00:31.333Z</time>
      </trkpt>
      <trkpt lat="51.91145" lon="4.38497">
        <ele>47.384398</ele>
        <time>2024-07-04T07:00:34.317Z</time>
      </trkpt>
      <trkpt lat="51.91145" lon="4.38476">
        <ele>47.366641</ele>
        <time>2024-07-04T07:00:37.317Z</time>
      </trkpt>
      <trkpt lat="51.91147" lon="4.38457">
        <ele>47.349748</ele>
        <time>2024-07-04T07:00:40.318Z</time>
      </trkpt>
      <trkpt lat="51.91148" lon="4.38439">
        <ele>47.333599</ele>
        <time>2024-07-04T07:00:43.321Z</time>
      </trkpt>
      <trkpt lat="51.91152" lon="4.38421">
        <ele>47.317484</ele>
        <time>2024-07-04T07:00:46.319Z</time>
      </trkpt>
      <trkpt lat="51.91157" lon="4.38404">
        <ele>47.300557</ele>
        <time>2024-07-04T07:00:49.332Z</time>
      </trkpt>
      <trkpt lat="51.91163" lon="4.38386">
        <ele>47.282841</ele>
        <time>2024-07-04T07:00:52.326Z</time>
      </trkpt>
      <trkpt lat="51.91165" lon="4.38367">
        <ele>47.26589</ele>
        <time>2024-07-04T07:00:55.334Z</time>
      </trkpt>
      <trkpt lat="51.91164" lon="4.38349">
        <ele>47.165442</ele>
        <time>2024-07-04T07:00:58.310Z</time>
      </trkpt>
      <trkpt lat="51.91161" lon="4.38329">
        <ele>46.991883</ele>
        <time>2024-07-04T07:01:01.322Z</time>
      </trkpt>
      <trkpt lat="51.91159" lon="4.38311">
        <ele>46.831368</ele>
        <time>2024-07-04T07:01:04.323Z</time>
      </trkpt>
      <trkpt lat="51.91156" lon="4.38294">
        <ele>46.692222</ele>
        <time>2024-07-04T07:01:07.318Z</time>
      </trkpt>
      <trkpt lat="51.91154" lon="4.38274">
        <ele>46.51825</ele>
        <time>2024-07-04T07:01:10.320Z</time>
      </trkpt>
      <trkpt lat="51.91153" lon="4.38255">
        <ele>46.362982</ele>
        <time>2024-07-04T07:01:13.309Z</time>
      </trkpt>
      <trkpt lat="51.91151" lon="4.38237">
        <ele>46.210932</ele>
        <time>2024-07-04T07:01:16.333Z</time>
      </trkpt>
      <trkpt lat="51.91151" lon="4.3822">
        <ele>46.06879</ele>
        <time>2024-07-04T07:01:19.312Z</time>
      </trkpt>
      <trkpt lat="51.91151" lon="4.38202">
        <ele>45.912436</ele>
        <time>2024-07-04T07:01:23.294Z</time>
      </trkpt>
      <trkpt lat="51.91151" lon="4.38185">
        <ele>45.776154</ele>
        <time>2024-07-04T07:01:26.314Z</time>
      </trkpt>
      <trkpt lat="51.91151" lon="4.38169">
        <ele>45.638173</ele>
        <time>2024-07-04T07:01:29.325Z</time>
      </trkpt>
      <trkpt lat="51.9115" lon="4.38151">
        <ele>45.482193</ele>
        <time>2024-07-04T07:01:32.329Z</time>
      </trkpt>
      <trkpt lat="51.91146" lon="4.38131">
        <ele>45.310018</ele>
        <time>2024-07-04T07:01:35.320Z</time>
      </trkpt>
      <trkpt lat="51.91145" lon="4.38112">
        <ele>45.152128</ele>
        <time>2024-07-04T07:01:38.314Z</time>
      </trkpt>
      <trkpt lat="51.91144" lon="4.38094">
        <ele>44.99883</ele>
        <time>2024-07-04T07:01:41.322Z</time>
      </trkpt>
      <trkpt lat="51.91143" lon="4.38076">
        <ele>44.848289</ele>
        <time>2024-07-04T07:01:44.318Z</time>
      </trkpt>
      <trkpt lat="51.91141" lon="4.38058">
        <ele>45.066496</ele>
        <time>2024-07-04T07:01:47.332Z</time>
      </trkpt>
      <trkpt lat="51.91139" lon="4.3804">
        <ele>45.379784</ele>
        <time>2024-07-04T07:01:50.321Z</time>
      </trkpt>
      <trkpt lat="51.91137" lon="4.38021">
        <ele>45.686257</ele>
        <time>2024-07-04T07:01:53.318Z</time>
      </trkpt>
      <trkpt lat="51.91134" lon="4.38004">
        <ele>45.990302</ele>
        <time>2024-07-04T07:01:56.315Z</time>
      </trkpt>
      <trkpt lat="51.91131" lon="4.37987">
        <ele>46.277317</ele>
        <time>2024-07-04T07:01:59.318Z</time>
      </trkpt>
      <trkpt lat="51.91129" lon="4.3797">
        <ele>46.562726</ele>
        <time>2024-07-04T07:02:02.315Z</time>
      </trkpt>
      <trkpt lat="51.91127" lon="4.37954">
        <ele>46.829099</ele>
        <time>2024-07-04T07:02:05.329Z</time>
      </trkpt>
      <trkpt lat="51.91124" lon="4.37936">
        <ele>47.136339</ele>
        <time>2024-07-04T07:02:09.333Z</time>
      </trkpt>
      <trkpt lat="51.91121" lon="4.37921">
        <ele>47.407137</ele>
        <time>2024-07-04T07:02:14.313Z</time>
      </trkpt>
      <trkpt lat="51.91107" lon="4.37919">
        <ele>47.769644</ele>
        <time>2024-07-04T07:02:39.314Z</time>
      </trkpt>
      <trkpt lat="51.91096" lon="4.37919">
        <ele>48.058797</ele>
        <time>2024-07-04T07:02:43.335Z</time>
      </trkpt>
      <trkpt lat="51.91088" lon="4.37899">
        <ele>48.450967</ele>
        <time>2024-07-04T07:03:02.320Z</time>
      </trkpt>
      <trkpt lat="51.91082" lon="4.37881">
        <ele>48.778737</ele>
        <time>2024-07-04T07:03:06.320Z</time>
      </trkpt>
      <trkpt lat="51.91074" lon="4.37874">
        <ele>49.040248</ele>
        <time>2024-07-04T07:03:09.321Z</time>
      </trkpt>
      <trkpt lat="51.91064" lon="4.37865">
        <ele>49.334693</ele>
        <time>2024-07-04T07:03:13.306Z</time>
      </trkpt>
      <trkpt lat="51.9106" lon="4.3785">
        <ele>49.60761</ele>
        <time>2024-07-04T07:03:16.325Z</time>
      </trkpt>
      <trkpt lat="51.91057" lon="4.37834">
        <ele>49.92063</ele>
        <time>2024-07-04T07:03:19.318Z</time>
      </trkpt>
      <trkpt lat="51.91053" lon="4.37818">
        <ele>50.243352</ele>
        <time>2024-07-04T07:03:22.315Z</time>
      </trkpt>
      <trkpt lat="51.91048" lon="4.37804">
        <ele>50.55103</ele>
        <time>2024-07-04T07:03:25.334Z</time>
      </trkpt>
      <trkpt lat="51.91043" lon="4.37789">
        <ele>50.867193</ele>
        <time>2024-07-04T07:03:28.306Z</time>
      </trkpt>
      <trkpt lat="51.91039" lon="4.37774">
        <ele>51.157222</ele>
        <time>2024-07-04T07:03:31.331Z</time>
      </trkpt>
      <trkpt lat="51.91035" lon="4.37761">
        <ele>51.435276</ele>
        <time>2024-07-04T07:03:34.317Z</time>
      </trkpt>
      <trkpt lat="51.91031" lon="4.37747">
        <ele>51.727017</ele>
        <time>2024-07-04T07:03:37.320Z</time>
      </trkpt>
      <trkpt lat="51.91027" lon="4.37731">
        <ele>52.046007</ele>
        <time>2024-07-04T07:03:40.325Z</time>
      </trkpt>
      <trkpt lat="51.91025" lon="4.37712">
        <ele>52.4006</ele>
        <time>2024-07-04T07:03:43.308Z</time>
      </trkpt>
      <trkpt lat="51.91022" lon="4.37694">
        <ele>52.754096</ele>
        <time>2024-07-04T07:03:46.323Z</time>
      </trkpt>
      <trkpt lat="51.91017" lon="4.37675">
        <ele>53.134939</ele>
        <time>2024-07-04T07:03:49.309Z</time>
      </trkpt>
      <trkpt lat="51.91012" lon="4.37656">
        <ele>53.506541</ele>
        <time>2024-07-04T07:03:52.324Z</time>
      </trkpt>
      <trkpt lat="51.91007" lon="4.37638">
        <ele>53.88609</ele>
        <time>2024-07-04T07:03:55.321Z</time>
      </trkpt>
      <trkpt lat="51.91002" lon="4.3762">
        <ele>54.244073</ele>
        <time>2024-07-04T07:03:58.334Z</time>
      </trkpt>
      <trkpt lat="51.90998" lon="4.37604">
        <ele>54.570381</ele>
        <time>2024-07-04T07:04:01.325Z</time>
      </trkpt>
      <trkpt lat="51.90994" lon="4.3759">
        <ele>54.872586</ele>
        <time>2024-07-04T07:04:04.316Z</time>
      </trkpt>
      <trkpt lat="51.90989" lon="4.37577">
        <ele>55.062401</ele>
        <time>2024-07-04T07:04:07.317Z</time>
      </trkpt>
      <trkpt lat="51.90985" lon="4.3756">
        <ele>55.03557</ele>
        <time>2024-07-04T07:04:11.333Z</time>
      </trkpt>
      <trkpt lat="51.9098" lon="4.37542">
        <ele>55.007019</ele>
        <time>2024-07-04T07:04:14.323Z</time>
      </trkpt>
      <trkpt lat="51.90976" lon="4.37528">
        <ele>54.985445</ele>
        <time>2024-07-04T07:04:16.326Z</time>
      </trkpt>
      <trkpt lat="51.90972" lon="4.37514">
        <ele>54.962705</ele>
        <time>2024-07-04T07:04:18.323Z</time>
      </trkpt>
      <trkpt lat="51.90969" lon="4.37497">
        <ele>54.937269</ele>
        <time>2024-07-04T07:04:20.327Z</time>
      </trkpt>
      <trkpt lat="51.90964" lon="4.37483">
        <ele>54.913167</ele>
        <time>2024-07-04T07:04:22.329Z</time>
      </trkpt>
      <trkpt lat="51.9096" lon="4.37468">
        <ele>54.889683</ele>
        <time>2024-07-04T07:04:24.323Z</time>
      </trkpt>
      <trkpt lat="51.90956" lon="4.37452">
        <ele>54.864826</ele>
        <time>2024-07-04T07:04:26.328Z</time>
      </trkpt>
      <trkpt lat="51.90952" lon="4.37438">
        <ele>54.84144</ele>
        <time>2024-07-04T07:04:28.316Z</time>
      </trkpt>
      <trkpt lat="51.90948" lon="4.37423">
        <ele>54.818088</ele>
        <time>2024-07-04T07:04:30.320Z</time>
      </trkpt>
      <trkpt lat="51.90942" lon="4.3741">
        <ele>54.794637</ele>
        <time>2024-07-04T07:04:32.326Z</time>
      </trkpt>
      <trkpt lat="51.90937" lon="4.37395">
        <ele>54.769451</ele>
        <time>2024-07-04T07:04:34.317Z</time>
      </trkpt>
      <trkpt lat="51.90932" lon="4.37381">
        <ele>54.745006</ele>
        <time>2024-07-04T07:04:36.322Z</time>
      </trkpt>
      <trkpt lat="51.90926" lon="4.37366">
        <ele>54.719807</ele>
        <time>2024-07-04T07:04:38.319Z</time>
      </trkpt>
      <trkpt lat="51.90922" lon="4.37352">
        <ele>54.696443</ele>
        <time>2024-07-04T07:04:40.319Z</time>
      </trkpt>
      <trkpt lat="51.90917" lon="4.37336">
        <ele>54.670871</ele>
        <time>2024-07-04T07:04:42.327Z</time>
      </trkpt>
      <trkpt lat="51.90912" lon="4.37321">
        <ele>54.646582</ele>
        <time>2024-07-04T07:04:44.335Z</time>
      </trkpt>
      <trkpt lat="51.90908" lon="4.37306">
        <ele>54.567919</ele>
        <time>2024-07-04T07:04:46.332Z</time>
      </trkpt>
      <trkpt lat="51.90904" lon="4.3729">
        <ele>54.473747</ele>
        <time>2024-07-04T07:04:48.335Z</time>
      </trkpt>
      <trkpt lat="51.909" lon="4.37274">
        <ele>54.379437</ele>
        <time>2024-07-04T07:04:50.322Z</time>
      </trkpt>
      <trkpt lat="51.90897" lon="4.37257">
        <ele>54.285135</ele>
        <time>2024-07-04T07:04:52.332Z</time>
      </trkpt>
      <trkpt lat="51.90893" lon="4.3724">
        <ele>54.189955</ele>
        <time>2024-07-04T07:04:54.316Z</time>
      </trkpt>
      <trkpt lat="51.90889" lon="4.37223">
        <ele>54.09055</ele>
        <time>2024-07-04T07:04:56.332Z</time>
      </trkpt>
      <trkpt lat="51.90886" lon="4.37206">
        <ele>53.996756</ele>
        <time>2024-07-04T07:04:58.322Z</time>
      </trkpt>
      <trkpt lat="51.90883" lon="4.37189">
        <ele>53.90135</ele>
        <time>2024-07-04T07:05:00.314Z</time>
      </trkpt>
      <trkpt lat="51.9088" lon="4.37171">
        <ele>53.800669</ele>
        <time>2024-07-04T07:05:02.321Z</time>
      </trkpt>
      <trkpt lat="51.90877" lon="4.37153">
        <ele>53.69806</ele>
        <time>2024-07-04T07:05:04.321Z</time>
      </trkpt>
      <trkpt lat="51.90874" lon="4.37134">
        <ele>53.596272</ele>
        <time>2024-07-04T07:05:06.329Z</time>
      </trkpt>
      <trkpt lat="51.90871" lon="4.37115">
        <ele>53.490413</ele>
        <time>2024-07-04T07:05:08.310Z</time>
      </trkpt>
      <trkpt lat="51.90869" lon="4.37095">
        <ele>53.381355</ele>
        <time>2024-07-04T07:05:10.323Z</time>
      </trkpt>
      <trkpt lat="51.90867" lon="4.37075">
        <ele>53.270176</ele>
        <time>2024-07-04T07:05:12.310Z</time>
      </trkpt>
      <trkpt lat="51.90866" lon="4.37053">
        <ele>53.155407</ele>
        <time>2024-07-04T07:05:14.319Z</time>
      </trkpt>
      <trkpt lat="51.90866" lon="4.37036">
        <ele>53.088594</ele>
        <time>2024-07-04T07:05:16.317Z</time>
      </trkpt>
      <trkpt lat="51.90867" lon="4.37017">
        <ele>53.181795</ele>
        <time>2024-07-04T07:05:18.300Z</time>
      </trkpt>
      <trkpt lat="51.90867" lon="4.36995">
        <ele>53.285687</ele>
        <time>2024-07-04T07:05:20.301Z</time>
      </trkpt>
      <trkpt lat="51.90862" lon="4.36979">
        <ele>53.371482</ele>
        <time>2024-07-04T07:05:22.308Z</time>
      </trkpt>
      <trkpt lat="51.90861" lon="4.36961">
        <ele>53.457207</ele>
        <time>2024-07-04T07:05:24.334Z</time>
      </trkpt>
      <trkpt lat="51.90861" lon="4.36944">
        <ele>53.539683</ele>
        <time>2024-07-04T07:05:26.310Z</time>
      </trkpt>
      <trkpt lat="51.90862" lon="4.36928">
        <ele>53.618336</ele>
        <time>2024-07-04T07:05:28.319Z</time>
      </trkpt>
      <trkpt lat="51.90863" lon="4.36913">
        <ele>53.690831</ele>
        <time>2024-07-04T07:05:30.332Z</time>
      </trkpt>
      <trkpt lat="51.90863" lon="4.36898">
        <ele>53.761225</ele>
        <time>2024-07-04T07:05:32.323Z</time>
      </trkpt>
      <trkpt lat="51.90862" lon="4.36878">
        <ele>53.855073</ele>
        <time>2024-07-04T07:05:35.319Z</time>
      </trkpt>
      <trkpt lat="51.90862" lon="4.36858">
        <ele>53.95237</ele>
        <time>2024-07-04T07:05:38.332Z</time>
      </trkpt>
      <trkpt lat="51.90861" lon="4.36838">
        <ele>54.048171</ele>
        <time>2024-07-04T07:05:41.321Z</time>
      </trkpt>
      <trkpt lat="51.9086" lon="4.36819">
        <ele>54.140643</ele>
        <time>2024-07-04T07:05:44.321Z</time>
      </trkpt>
      <trkpt lat="51.90859" lon="4.36799">
        <ele>54.234115</ele>
        <time>2024-07-04T07:05:47.321Z</time>
      </trkpt>
      <trkpt lat="51.90859" lon="4.3678">
        <ele>54.325569</ele>
        <time>2024-07-04T07:05:50.329Z</time>
      </trkpt>
      <trkpt lat="51.90859" lon="4.36762">
        <ele>54.413181</ele>
        <time>2024-07-04T07:05:53.316Z</time>
      </trkpt>
      <trkpt lat="51.9086" lon="4.36743">
        <ele>54.479679</ele>
        <time>2024-07-04T07:05:56.329Z</time>
      </trkpt>
      <trkpt lat="51.90862" lon="4.36725">
        <ele>54.501957</ele>
        <time>2024-07-04T07:05:59.316Z</time>
      </trkpt>
      <trkpt lat="51.90864" lon="4.36706">
        <ele>54.524437</ele>
        <time>2024-07-04T07:06:02.335Z</time>
      </trkpt>
      <trkpt lat="51.90867" lon="4.36688">
        <ele>54.545963</ele>
        <time>2024-07-04T07:06:05.309Z</time>
      </trkpt>
      <trkpt lat="51.90869" lon="4.36672">
        <ele>54.565581</ele>
        <time>2024-07-04T07:06:08.317Z</time>
      </trkpt>
      <trkpt lat="51.90872" lon="4.36658">
        <ele>54.583206</ele>
        <time>2024-07-04T07:06:11.326Z</time>
      </trkpt>
      <trkpt lat="51.90875" lon="4.36643">
        <ele>54.602405</ele>
        <time>2024-07-04T07:06:15.319Z</time>
      </trkpt>
      <trkpt lat="51.90877" lon="4.36628">
        <ele>54.619616</ele>
        <time>2024-07-04T07:06:19.319Z</time>
      </trkpt>
      <trkpt lat="51.9088" lon="4.36614">
        <ele>54.63729</ele>
        <time>2024-07-04T07:06:24.319Z</time>
      </trkpt>
      <trkpt lat="51.90884" lon="4.36598">
        <ele>54.657193</ele>
        <time>2024-07-04T07:06:36.309Z</time>
      </trkpt>
      <trkpt lat="51.90889" lon="4.36581">
        <ele>54.680303</ele>
        <time>2024-07-04T07:06:40.333Z</time>
      </trkpt>
      <trkpt lat="51.90891" lon="4.36564">
        <ele>54.700292</ele>
        <time>2024-07-04T07:06:43.327Z</time>
      </trkpt>
      <trkpt lat="51.90896" lon="4.36551">
        <ele>54.719098</ele>
        <time>2024-07-04T07:06:46.307Z</time>
      </trkpt>
      <trkpt lat="51.90907" lon="4.36551">
        <ele>54.740742</ele>
        <time>2024-07-04T07:06:49.299Z</time>
      </trkpt>
      <trkpt lat="51.90918" lon="4.3655">
        <ele>54.761072</ele>
        <time>2024-07-04T07:06:52.326Z</time>
      </trkpt>
      <trkpt lat="51.90929" lon="4.36547">
        <ele>54.782211</ele>
        <time>2024-07-04T07:06:55.310Z</time>
      </trkpt>
      <trkpt lat="51.90936" lon="4.36532">
        <ele>54.804833</ele>
        <time>2024-07-04T07:06:58.305Z</time>
      </trkpt>
      <trkpt lat="51.9094" lon="4.36512">
        <ele>54.766612</ele>
        <time>2024-07-04T07:07:01.312Z</time>
      </trkpt>
      <trkpt lat="51.90943" lon="4.36497">
        <ele>54.696656</ele>
        <time>2024-07-04T07:07:03.329Z</time>
      </trkpt>
      <trkpt lat="51.90946" lon="4.36483">
        <ele>54.626359</ele>
        <time>2024-07-04T07:07:05.331Z</time>
      </trkpt>
      <trkpt lat="51.9095" lon="4.36468">
        <ele>54.552089</ele>
        <time>2024-07-04T07:07:07.320Z</time>
      </trkpt>
      <trkpt lat="51.90953" lon="4.36452">
        <ele>54.472623</ele>
        <time>2024-07-04T07:07:09.303Z</time>
      </trkpt>
      <trkpt lat="51.90957" lon="4.36435">
        <ele>54.391426</ele>
        <time>2024-07-04T07:07:11.324Z</time>
      </trkpt>
      <trkpt lat="51.90961" lon="4.36417">
        <ele>54.301883</ele>
        <time>2024-07-04T07:07:13.315Z</time>
      </trkpt>
      <trkpt lat="51.90966" lon="4.36397">
        <ele>54.205212</ele>
        <time>2024-07-04T07:07:15.319Z</time>
      </trkpt>
      <trkpt lat="51.90969" lon="4.36376">
        <ele>54.102309</ele>
        <time>2024-07-04T07:07:17.329Z</time>
      </trkpt>
      <trkpt lat="51.9097" lon="4.36352">
        <ele>53.992204</ele>
        <time>2024-07-04T07:07:19.312Z</time>
      </trkpt>
      <trkpt lat="51.90974" lon="4.36332">
        <ele>53.898025</ele>
        <time>2024-07-04T07:07:21.305Z</time>
      </trkpt>
      <trkpt lat="51.90977" lon="4.36316">
        <ele>53.818226</ele>
        <time>2024-07-04T07:07:23.316Z</time>
      </trkpt>
      <trkpt lat="51.9098" lon="4.36302">
        <ele>53.750251</ele>
        <time>2024-07-04T07:07:25.325Z</time>
      </trkpt>
      <trkpt lat="51.90985" lon="4.36285">
        <ele>53.662957</ele>
        <time>2024-07-04T07:07:28.321Z</time>
      </trkpt>
      <trkpt lat="51.90987" lon="4.36269">
        <ele>53.587667</ele>
        <time>2024-07-04T07:07:31.329Z</time>
      </trkpt>
      <trkpt lat="51.90989" lon="4.36253">
        <ele>53.51554</ele>
        <time>2024-07-04T07:07:34.316Z</time>
      </trkpt>
      <trkpt lat="51.90988" lon="4.36238">
        <ele>53.496566</ele>
        <time>2024-07-04T07:07:37.315Z</time>
      </trkpt>
      <trkpt lat="51.90988" lon="4.36223">
        <ele>53.551748</ele>
        <time>2024-07-04T07:07:40.315Z</time>
      </trkpt>
      <trkpt lat="51.90987" lon="4.36203">
        <ele>53.621501</ele>
        <time>2024-07-04T07:07:44.317Z</time>
      </trkpt>
      <trkpt lat="51.90983" lon="4.3619">
        <ele>53.676524</ele>
        <time>2024-07-04T07:07:46.318Z</time>
      </trkpt>
      <trkpt lat="51.90978" lon="4.36176">
        <ele>53.731548</ele>
        <time>2024-07-04T07:07:48.316Z</time>
      </trkpt>
      <trkpt lat="51.90971" lon="4.36159">
        <ele>53.805433</ele>
        <time>2024-07-04T07:07:51.304Z</time>
      </trkpt>
      <trkpt lat="51.90962" lon="4.36144">
        <ele>53.881842</ele>
        <time>2024-07-04T07:07:54.316Z</time>
      </trkpt>
      <trkpt lat="51.90955" lon="4.36133">
        <ele>53.934888</ele>
        <time>2024-07-04T07:07:56.320Z</time>
      </trkpt>
      <trkpt lat="51.90949" lon="4.36123">
        <ele>53.987735</ele>
        <time>2024-07-04T07:07:58.312Z</time>
      </trkpt>
      <trkpt lat="51.90941" lon="4.36114">
        <ele>54.041656</ele>
        <time>2024-07-04T07:08:00.318Z</time>
      </trkpt>
      <trkpt lat="51.90932" lon="4.36099">
        <ele>54.116851</ele>
        <time>2024-07-04T07:08:03.325Z</time>
      </trkpt>
      <trkpt lat="51.90922" lon="4.36086">
        <ele>54.193129</ele>
        <time>2024-07-04T07:08:06.323Z</time>
      </trkpt>
      <trkpt lat="51.90912" lon="4.36072">
        <ele>54.267581</ele>
        <time>2024-07-04T07:08:09.329Z</time>
      </trkpt>
      <trkpt lat="51.90905" lon="4.36062">
        <ele>54.32225</ele>
        <time>2024-07-04T07:08:11.322Z</time>
      </trkpt>
      <trkpt lat="51.90897" lon="4.36048">
        <ele>54.393044</ele>
        <time>2024-07-04T07:08:14.313Z</time>
      </trkpt>
      <trkpt lat="51.90887" lon="4.36036">
        <ele>54.46593</ele>
        <time>2024-07-04T07:08:17.323Z</time>
      </trkpt>
      <trkpt lat="51.90878" lon="4.36023">
        <ele>54.520802</ele>
        <time>2024-07-04T07:08:20.295Z</time>
      </trkpt>
      <trkpt lat="51.90869" lon="4.3601">
        <ele>54.530745</ele>
        <time>2024-07-04T07:08:23.323Z</time>
      </trkpt>
      <trkpt lat="51.9086" lon="4.35997">
        <ele>54.540848</ele>
        <time>2024-07-04T07:08:26.319Z</time>
      </trkpt>
      <trkpt lat="51.90851" lon="4.35982">
        <ele>54.551024</ele>
        <time>2024-07-04T07:08:29.318Z</time>
      </trkpt>
      <trkpt lat="51.90842" lon="4.3597">
        <ele>54.56081</ele>
        <time>2024-07-04T07:08:32.315Z</time>
      </trkpt>
      <trkpt lat="51.90833" lon="4.35955">
        <ele>54.571228</ele>
        <time>2024-07-04T07:08:35.327Z</time>
      </trkpt>
      <trkpt lat="51.90824" lon="4.35943">
        <ele>54.581071</ele>
        <time>2024-07-04T07:08:38.316Z</time>
      </trkpt>
      <trkpt lat="51.90816" lon="4.35931">
        <ele>54.590139</ele>
        <time>2024-07-04T07:08:41.317Z</time>
      </trkpt>
      <trkpt lat="51.90807" lon="4.35918">
        <ele>54.599545</ele>
        <time>2024-07-04T07:08:44.315Z</time>
      </trkpt>
      <trkpt lat="51.908" lon="4.35905">
        <ele>54.608679</ele>
        <time>2024-07-04T07:08:47.328Z</time>
      </trkpt>
      <trkpt lat="51.90791" lon="4.3589">
        <ele>54.619215</ele>
        <time>2024-07-04T07:08:50.313Z</time>
      </trkpt>
      <trkpt lat="51.90782" lon="4.35876">
        <ele>54.629456</ele>
        <time>2024-07-04T07:08:53.340Z</time>
      </trkpt>
      <trkpt lat="51.90773" lon="4.3586">
        <ele>54.640177</ele>
        <time>2024-07-04T07:08:56.330Z</time>
      </trkpt>
      <trkpt lat="51.90764" lon="4.35844">
        <ele>54.651131</ele>
        <time>2024-07-04T07:08:59.322Z</time>
      </trkpt>
      <trkpt lat="51.90757" lon="4.35827">
        <ele>54.661671</ele>
        <time>2024-07-04T07:09:02.332Z</time>
      </trkpt>
      <trkpt lat="51.9075" lon="4.35811">
        <ele>54.723145</ele>
        <time>2024-07-04T07:09:05.331Z</time>
      </trkpt>
      <trkpt lat="51.90743" lon="4.35794">
        <ele>54.841826</ele>
        <time>2024-07-04T07:09:08.314Z</time>
      </trkpt>
      <trkpt lat="51.90737" lon="4.35778">
        <ele>54.950026</ele>
        <time>2024-07-04T07:09:11.330Z</time>
      </trkpt>
      <trkpt lat="51.9073" lon="4.35764">
        <ele>55.049419</ele>
        <time>2024-07-04T07:09:14.327Z</time>
      </trkpt>
      <trkpt lat="51.90723" lon="4.35752">
        <ele>55.143591</ele>
        <time>2024-07-04T07:09:17.321Z</time>
      </trkpt>
      <trkpt lat="51.90716" lon="4.35739">
        <ele>55.2401</ele>
        <time>2024-07-04T07:09:20.322Z</time>
      </trkpt>
      <trkpt lat="51.90709" lon="4.35726">
        <ele>55.340587</ele>
        <time>2024-07-04T07:09:23.315Z</time>
      </trkpt>
      <trkpt lat="51.90701" lon="4.35713">
        <ele>55.444031</ele>
        <time>2024-07-04T07:09:26.317Z</time>
      </trkpt>
      <trkpt lat="51.90694" lon="4.357">
        <ele>55.549927</ele>
        <time>2024-07-04T07:09:29.325Z</time>
      </trkpt>
      <trkpt lat="51.90685" lon="4.35685">
        <ele>55.664201</ele>
        <time>2024-07-04T07:09:32.324Z</time>
      </trkpt>
      <trkpt lat="51.90678" lon="4.35669">
        <ele>55.78059</ele>
        <time>2024-07-04T07:09:35.326Z</time>
      </trkpt>
      <trkpt lat="51.90669" lon="4.35654">
        <ele>55.897854</ele>
        <time>2024-07-04T07:09:38.328Z</time>
      </trkpt>
      <trkpt lat="51.90662" lon="4.3564">
        <ele>56.00374</ele>
        <time>2024-07-04T07:09:41.317Z</time>
      </trkpt>
      <trkpt lat="51.90653" lon="4.35625">
        <ele>56.119713</ele>
        <time>2024-07-04T07:09:44.324Z</time>
      </trkpt>
      <trkpt lat="51.90646" lon="4.35609">
        <ele>56.234594</ele>
        <time>2024-07-04T07:09:47.334Z</time>
      </trkpt>
      <trkpt lat="51.90639" lon="4.35593">
        <ele>56.334871</ele>
        <time>2024-07-04T07:09:50.333Z</time>
      </trkpt>
      <trkpt lat="51.90632" lon="4.35579">
        <ele>56.360477</ele>
        <time>2024-07-04T07:09:53.321Z</time>
      </trkpt>
      <trkpt lat="51.90626" lon="4.35563">
        <ele>56.385971</ele>
        <time>2024-07-04T07:09:56.325Z</time>
      </trkpt>
      <trkpt lat="51.90619" lon="4.35548">
        <ele>56.411616</ele>
        <time>2024-07-04T07:09:59.318Z</time>
      </trkpt>
      <trkpt lat="51.90611" lon="4.35537">
        <ele>56.436153</ele>
        <time>2024-07-04T07:10:02.304Z</time>
      </trkpt>
      <trkpt lat="51.90601" lon="4.35526">
        <ele>56.462444</ele>
        <time>2024-07-04T07:10:05.334Z</time>
      </trkpt>
      <trkpt lat="51.90596" lon="4.35508">
        <ele>56.490849</ele>
        <time>2024-07-04T07:10:08.300Z</time>
      </trkpt>
      <trkpt lat="51.90588" lon="4.35493">
        <ele>56.518092</ele>
        <time>2024-07-04T07:10:11.318Z</time>
      </trkpt>
      <trkpt lat="51.90581" lon="4.35477">
        <ele>56.544093</ele>
        <time>2024-07-04T07:10:14.313Z</time>
      </trkpt>
      <trkpt lat="51.90575" lon="4.35461">
        <ele>56.570179</ele>
        <time>2024-07-04T07:10:17.319Z</time>
      </trkpt>
      <trkpt lat="51.90569" lon="4.35445">
        <ele>56.596397</ele>
        <time>2024-07-04T07:10:20.315Z</time>
      </trkpt>
      <trkpt lat="51.90562" lon="4.35429">
        <ele>56.624143</ele>
        <time>2024-07-04T07:10:23.306Z</time>
      </trkpt>
      <trkpt lat="51.90555" lon="4.35412">
        <ele>56.651682</ele>
        <time>2024-07-04T07:10:26.319Z</time>
      </trkpt>
      <trkpt lat="51.90548" lon="4.35395">
        <ele>56.680242</ele>
        <time>2024-07-04T07:10:29.335Z</time>
      </trkpt>
      <trkpt lat="51.90541" lon="4.35377">
        <ele>56.70963</ele>
        <time>2024-07-04T07:10:32.325Z</time>
      </trkpt>
      <trkpt lat="51.90534" lon="4.35359">
        <ele>56.732387</ele>
        <time>2024-07-04T07:10:35.319Z</time>
      </trkpt>
      <trkpt lat="51.90528" lon="4.35342">
        <ele>56.689356</ele>
        <time>2024-07-04T07:10:38.319Z</time>
      </trkpt>
      <trkpt lat="51.90522" lon="4.35326">
        <ele>56.647915</ele>
        <time>2024-07-04T07:10:41.319Z</time>
      </trkpt>
      <trkpt lat="51.90516" lon="4.35308">
        <ele>56.604822</ele>
        <time>2024-07-04T07:10:44.334Z</time>
      </trkpt>
      <trkpt lat="51.9051" lon="4.35292">
        <ele>56.564102</ele>
        <time>2024-07-04T07:10:47.317Z</time>
      </trkpt>
      <trkpt lat="51.90505" lon="4.35276">
        <ele>56.525963</ele>
        <time>2024-07-04T07:10:50.317Z</time>
      </trkpt>
      <trkpt lat="51.90501" lon="4.35263">
        <ele>56.493449</ele>
        <time>2024-07-04T07:10:53.316Z</time>
      </trkpt>
      <trkpt lat="51.90497" lon="4.35248">
        <ele>56.457599</ele>
        <time>2024-07-04T07:10:56.317Z</time>
      </trkpt>
      <trkpt lat="51.90492" lon="4.35233">
        <ele>56.420468</ele>
        <time>2024-07-04T07:10:59.308Z</time>
      </trkpt>
      <trkpt lat="51.90486" lon="4.35216">
        <ele>56.380445</ele>
        <time>2024-07-04T07:11:02.317Z</time>
      </trkpt>
      <trkpt lat="51.90481" lon="4.352">
        <ele>56.34116</ele>
        <time>2024-07-04T07:11:05.338Z</time>
      </trkpt>
      <trkpt lat="51.90476" lon="4.35184">
        <ele>56.302554</ele>
        <time>2024-07-04T07:11:08.336Z</time>
      </trkpt>
      <trkpt lat="51.90471" lon="4.35167">
        <ele>56.261661</ele>
        <time>2024-07-04T07:11:11.335Z</time>
      </trkpt>
      <trkpt lat="51.90466" lon="4.35149">
        <ele>56.219246</ele>
        <time>2024-07-04T07:11:14.324Z</time>
      </trkpt>
      <trkpt lat="51.90461" lon="4.35131">
        <ele>56.175211</ele>
        <time>2024-07-04T07:11:17.322Z</time>
      </trkpt>
      <trkpt lat="51.90456" lon="4.35114">
        <ele>56.134231</ele>
        <time>2024-07-04T07:11:20.316Z</time>
      </trkpt>
      <trkpt lat="51.90451" lon="4.35096">
        <ele>56.120964</ele>
        <time>2024-07-04T07:11:23.315Z</time>
      </trkpt>
      <trkpt lat="51.90446" lon="4.35078">
        <ele>56.172607</ele>
        <time>2024-07-04T07:11:26.315Z</time>
      </trkpt>
      <trkpt lat="51.90441" lon="4.3506">
        <ele>56.224303</ele>
        <time>2024-07-04T07:11:29.312Z</time>
      </trkpt>
      <trkpt lat="51.90435" lon="4.35042">
        <ele>56.27521</ele>
        <time>2024-07-04T07:11:32.316Z</time>
      </trkpt>
      <trkpt lat="51.90431" lon="4.35023">
        <ele>56.325688</ele>
        <time>2024-07-04T07:11:35.307Z</time>
      </trkpt>
      <trkpt lat="51.90427" lon="4.35005">
        <ele>56.375307</ele>
        <time>2024-07-04T07:11:38.336Z</time>
      </trkpt>
      <trkpt lat="51.90424" lon="4.34987">
        <ele>56.423957</ele>
        <time>2024-07-04T07:11:41.317Z</time>
      </trkpt>
      <trkpt lat="51.9042" lon="4.3497">
        <ele>56.470779</ele>
        <time>2024-07-04T07:11:44.312Z</time>
      </trkpt>
      <trkpt lat="51.90416" lon="4.34951">
        <ele>56.519782</ele>
        <time>2024-07-04T07:11:47.329Z</time>
      </trkpt>
      <trkpt lat="51.90413" lon="4.34934">
        <ele>56.565502</ele>
        <time>2024-07-04T07:11:50.327Z</time>
      </trkpt>
      <trkpt lat="51.90407" lon="4.34917">
        <ele>56.615655</ele>
        <time>2024-07-04T07:11:53.326Z</time>
      </trkpt>
      <trkpt lat="51.90404" lon="4.34899">
        <ele>56.664296</ele>
        <time>2024-07-04T07:11:56.299Z</time>
      </trkpt>
      <trkpt lat="51.904" lon="4.3488">
        <ele>56.71515</ele>
        <time>2024-07-04T07:11:59.312Z</time>
      </trkpt>
      <trkpt lat="51.90397" lon="4.34863">
        <ele>56.761181</ele>
        <time>2024-07-04T07:12:02.327Z</time>
      </trkpt>
      <trkpt lat="51.90393" lon="4.34846">
        <ele>56.805355</ele>
        <time>2024-07-04T07:12:05.334Z</time>
      </trkpt>
      <trkpt lat="51.90389" lon="4.3483">
        <ele>56.850803</ele>
        <time>2024-07-04T07:12:08.340Z</time>
      </trkpt>
      <trkpt lat="51.90386" lon="4.34811">
        <ele>56.722007</ele>
        <time>2024-07-04T07:12:11.323Z</time>
      </trkpt>
      <trkpt lat="51.90382" lon="4.34793">
        <ele>56.592895</ele>
        <time>2024-07-04T07:12:14.317Z</time>
      </trkpt>
      <trkpt lat="51.9038" lon="4.34778">
        <ele>56.490243</ele>
        <time>2024-07-04T07:12:17.328Z</time>
      </trkpt>
      <trkpt lat="51.90373" lon="4.34765">
        <ele>56.377111</ele>
        <time>2024-07-04T07:12:21.309Z</time>
      </trkpt>
      <trkpt lat="51.90363" lon="4.34768">
        <ele>56.275372</ele>
        <time>2024-07-04T07:12:24.314Z</time>
      </trkpt>
      <trkpt lat="51.90354" lon="4.34772">
        <ele>56.172361</ele>
        <time>2024-07-04T07:12:27.322Z</time>
      </trkpt>
      <trkpt lat="51.90343" lon="4.34778">
        <ele>56.043973</ele>
        <time>2024-07-04T07:12:31.322Z</time>
      </trkpt>
      <trkpt lat="51.90333" lon="4.34782">
        <ele>55.932028</ele>
        <time>2024-07-04T07:12:34.332Z</time>
      </trkpt>
      <trkpt lat="51.90322" lon="4.34788">
        <ele>55.81103</ele>
        <time>2024-07-04T07:12:37.313Z</time>
      </trkpt>
      <trkpt lat="51.90311" lon="4.3479">
        <ele>55.692322</ele>
        <time>2024-07-04T07:12:40.324Z</time>
      </trkpt>
      <trkpt lat="51.90303" lon="4.34785">
        <ele>55.594068</ele>
        <time>2024-07-04T07:12:43.308Z</time>
      </trkpt>
      <trkpt lat="51.90294" lon="4.34772">
        <ele>55.465017</ele>
        <time>2024-07-04T07:12:47.323Z</time>
      </trkpt>
      <trkpt lat="51.90289" lon="4.34759">
        <ele>55.366007</ele>
        <time>2024-07-04T07:12:50.320Z</time>
      </trkpt>
      <trkpt lat="51.90286" lon="4.34745">
        <ele>55.265857</ele>
        <time>2024-07-04T07:12:53.323Z</time>
      </trkpt>
      <trkpt lat="51.90284" lon="4.3473">
        <ele>55.167023</ele>
        <time>2024-07-04T07:12:56.330Z</time>
      </trkpt>
      <trkpt lat="51.90283" lon="4.34712">
        <ele>55.040686</ele>
        <time>2024-07-04T07:13:00.312Z</time>
      </trkpt>
      <trkpt lat="51.90286" lon="4.34696">
        <ele>54.930693</ele>
        <time>2024-07-04T07:13:03.310Z</time>
      </trkpt>
      <trkpt lat="51.90295" lon="4.34686">
        <ele>54.834489</ele>
        <time>2024-07-04T07:13:06.317Z</time>
      </trkpt>
      <trkpt lat="51.90306" lon="4.3468">
        <ele>54.735723</ele>
        <time>2024-07-04T07:13:09.308Z</time>
      </trkpt>
      <trkpt lat="51.90318" lon="4.34675">
        <ele>54.631501</ele>
        <time>2024-07-04T07:13:12.326Z</time>
      </trkpt>
      <trkpt lat="51.90329" lon="4.34669">
        <ele>54.532144</ele>
        <time>2024-07-04T07:13:15.325Z</time>
      </trkpt>
      <trkpt lat="51.9034" lon="4.34664">
        <ele>54.434817</ele>
        <time>2024-07-04T07:13:18.327Z</time>
      </trkpt>
      <trkpt lat="51.90348" lon="4.34654">
        <ele>54.351421</ele>
        <time>2024-07-04T07:13:21.317Z</time>
      </trkpt>
      <trkpt lat="51.90345" lon="4.34637">
        <ele>54.260072</ele>
        <time>2024-07-04T07:13:24.312Z</time>
      </trkpt>
      <trkpt lat="51.90343" lon="4.3462">
        <ele>54.167191</ele>
        <time>2024-07-04T07:13:27.321Z</time>
      </trkpt>
      <trkpt lat="51.90342" lon="4.34601">
        <ele>54.065837</ele>
        <time>2024-07-04T07:13:30.314Z</time>
      </trkpt>
      <trkpt lat="51.90339" lon="4.34581">
        <ele>53.960404</ele>
        <time>2024-07-04T07:13:33.300Z</time>
      </trkpt>
      <trkpt lat="51.90335" lon="4.34561">
        <ele>53.849128</ele>
        <time>2024-07-04T07:13:36.298Z</time>
      </trkpt>
      <trkpt lat="51.90332" lon="4.34547">
        <ele>53.770007</ele>
        <time>2024-07-04T07:13:38.312Z</time>
      </trkpt>
      <trkpt lat="51.90329" lon="4.34533">
        <ele>53.691649</ele>
        <time>2024-07-04T07:13:40.315Z</time>
      </trkpt>
      <trkpt lat="51.90326" lon="4.34518">
        <ele>53.60998</ele>
        <time>2024-07-04T07:13:42.312Z</time>
      </trkpt>
      <trkpt lat="51.90322" lon="4.34504">
        <ele>53.531874</ele>
        <time>2024-07-04T07:13:44.333Z</time>
      </trkpt>
      <trkpt lat="51.90319" lon="4.34491">
        <ele>53.454228</ele>
        <time>2024-07-04T07:13:46.334Z</time>
      </trkpt>
      <trkpt lat="51.90315" lon="4.34477">
        <ele>53.377229</ele>
        <time>2024-07-04T07:13:48.291Z</time>
      </trkpt>
      <trkpt lat="51.90312" lon="4.34463">
        <ele>53.429776</ele>
        <time>2024-07-04T07:13:50.313Z</time>
      </trkpt>
      <trkpt lat="51.9031" lon="4.34449">
        <ele>53.488708</ele>
        <time>2024-07-04T07:13:52.316Z</time>
      </trkpt>
      <trkpt lat="51.90307" lon="4.34429">
        <ele>53.571822</ele>
        <time>2024-07-04T07:13:55.316Z</time>
      </trkpt>
      <trkpt lat="51.90304" lon="4.3441">
        <ele>53.650419</ele>
        <time>2024-07-04T07:13:58.316Z</time>
      </trkpt>
      <trkpt lat="51.903" lon="4.34389">
        <ele>53.736452</ele>
        <time>2024-07-04T07:14:01.324Z</time>
      </trkpt>
      <trkpt lat="51.90296" lon="4.34368">
        <ele>53.823716</ele>
        <time>2024-07-04T07:14:04.309Z</time>
      </trkpt>
      <trkpt lat="51.90292" lon="4.34348">
        <ele>53.906627</ele>
        <time>2024-07-04T07:14:07.331Z</time>
      </trkpt>
      <trkpt lat="51.90289" lon="4.34329">
        <ele>53.987033</ele>
        <time>2024-07-04T07:14:10.320Z</time>
      </trkpt>
      <trkpt lat="51.90285" lon="4.34311">
        <ele>54.065208</ele>
        <time>2024-07-04T07:14:13.316Z</time>
      </trkpt>
      <trkpt lat="51.90281" lon="4.34292">
        <ele>54.144304</ele>
        <time>2024-07-04T07:14:16.326Z</time>
      </trkpt>
      <trkpt lat="51.90277" lon="4.34272">
        <ele>54.22757</ele>
        <time>2024-07-04T07:14:19.324Z</time>
      </trkpt>
      <trkpt lat="51.90274" lon="4.34252">
        <ele>54.309916</ele>
        <time>2024-07-04T07:14:22.325Z</time>
      </trkpt>
      <trkpt lat="51.9027" lon="4.34233">
        <ele>54.389399</ele>
        <time>2024-07-04T07:14:25.321Z</time>
      </trkpt>
      <trkpt lat="51.90267" lon="4.34214">
        <ele>54.467172</ele>
        <time>2024-07-04T07:14:28.313Z</time>
      </trkpt>
      <trkpt lat="51.90264" lon="4.34196">
        <ele>54.535239</ele>
        <time>2024-07-04T07:14:31.324Z</time>
      </trkpt>
      <trkpt lat="51.90261" lon="4.34178">
        <ele>54.516508</ele>
        <time>2024-07-04T07:14:34.325Z</time>
      </trkpt>
      <trkpt lat="51.90258" lon="4.3416">
        <ele>54.497333</ele>
        <time>2024-07-04T07:14:37.319Z</time>
      </trkpt>
      <trkpt lat="51.90255" lon="4.34144">
        <ele>54.479862</ele>
        <time>2024-07-04T07:14:40.327Z</time>
      </trkpt>
      <trkpt lat="51.90252" lon="4.34125">
        <ele>54.460307</ele>
        <time>2024-07-04T07:14:43.327Z</time>
      </trkpt>
      <trkpt lat="51.90249" lon="4.34106">
        <ele>54.440759</ele>
        <time>2024-07-04T07:14:46.319Z</time>
      </trkpt>
      <trkpt lat="51.90246" lon="4.34088">
        <ele>54.421233</ele>
        <time>2024-07-04T07:14:49.319Z</time>
      </trkpt>
      <trkpt lat="51.90243" lon="4.34069">
        <ele>54.401873</ele>
        <time>2024-07-04T07:14:52.296Z</time>
      </trkpt>
      <trkpt lat="51.90239" lon="4.3405">
        <ele>54.380969</ele>
        <time>2024-07-04T07:14:55.324Z</time>
      </trkpt>
      <trkpt lat="51.90236" lon="4.3403">
        <ele>54.360253</ele>
        <time>2024-07-04T07:14:58.336Z</time>
      </trkpt>
      <trkpt lat="51.90232" lon="4.3401">
        <ele>54.339252</ele>
        <time>2024-07-04T07:15:01.319Z</time>
      </trkpt>
      <trkpt lat="51.90229" lon="4.33991">
        <ele>54.319568</ele>
        <time>2024-07-04T07:15:04.319Z</time>
      </trkpt>
      <trkpt lat="51.90225" lon="4.33971">
        <ele>54.298469</ele>
        <time>2024-07-04T07:15:07.319Z</time>
      </trkpt>
      <trkpt lat="51.90223" lon="4.33952">
        <ele>54.278531</ele>
        <time>2024-07-04T07:15:10.315Z</time>
      </trkpt>
      <trkpt lat="51.90219" lon="4.33933">
        <ele>54.257869</ele>
        <time>2024-07-04T07:15:13.328Z</time>
      </trkpt>
      <trkpt lat="51.90216" lon="4.33912">
        <ele>54.243707</ele>
        <time>2024-07-04T07:15:16.316Z</time>
      </trkpt>
      <trkpt lat="51.90213" lon="4.33892">
        <ele>54.258272</ele>
        <time>2024-07-04T07:15:19.304Z</time>
      </trkpt>
      <trkpt lat="51.90209" lon="4.33873">
        <ele>54.271971</ele>
        <time>2024-07-04T07:15:22.314Z</time>
      </trkpt>
      <trkpt lat="51.90206" lon="4.33853">
        <ele>54.286429</ele>
        <time>2024-07-04T07:15:25.315Z</time>
      </trkpt>
      <trkpt lat="51.90201" lon="4.33835">
        <ele>54.29956</ele>
        <time>2024-07-04T07:15:28.313Z</time>
      </trkpt>
      <trkpt lat="51.90191" lon="4.33827">
        <ele>54.312369</ele>
        <time>2024-07-04T07:15:31.318Z</time>
      </trkpt>
      <trkpt lat="51.90179" lon="4.33828">
        <ele>54.325638</ele>
        <time>2024-07-04T07:15:34.313Z</time>
      </trkpt>
      <trkpt lat="51.90169" lon="4.3383">
        <ele>54.337934</ele>
        <time>2024-07-04T07:15:37.307Z</time>
      </trkpt>
      <trkpt lat="51.90159" lon="4.33826">
        <ele>54.34915</ele>
        <time>2024-07-04T07:15:41.324Z</time>
      </trkpt>
      <trkpt lat="51.9016" lon="4.33808">
        <ele>54.361537</ele>
        <time>2024-07-04T07:15:44.295Z</time>
      </trkpt>
      <trkpt lat="51.90159" lon="4.33789">
        <ele>54.374912</ele>
        <time>2024-07-04T07:15:47.331Z</time>
      </trkpt>
      <trkpt lat="51.90156" lon="4.33771">
        <ele>54.388254</ele>
        <time>2024-07-04T07:15:50.318Z</time>
      </trkpt>
      <trkpt lat="51.90153" lon="4.33752">
        <ele>54.40174</ele>
        <time>2024-07-04T07:15:53.308Z</time>
      </trkpt>
      <trkpt lat="51.90153" lon="4.33733">
        <ele>54.414414</ele>
        <time>2024-07-04T07:15:56.325Z</time>
      </trkpt>
      <trkpt lat="51.90152" lon="4.33714">
        <ele>54.428161</ele>
        <time>2024-07-04T07:15:59.329Z</time>
      </trkpt>
      <trkpt lat="51.90151" lon="4.33698">
        <ele>54.438771</ele>
        <time>2024-07-04T07:16:01.319Z</time>
      </trkpt>
      <trkpt lat="51.90151" lon="4.33683">
        <ele>54.408392</ele>
        <time>2024-07-04T07:16:03.307Z</time>
      </trkpt>
      <trkpt lat="51.9015" lon="4.33666">
        <ele>54.348324</ele>
        <time>2024-07-04T07:16:05.337Z</time>
      </trkpt>
      <trkpt lat="51.90148" lon="4.33648">
        <ele>54.286816</ele>
        <time>2024-07-04T07:16:07.313Z</time>
      </trkpt>
      <trkpt lat="51.90145" lon="4.33633">
        <ele>54.22855</ele>
        <time>2024-07-04T07:16:09.336Z</time>
      </trkpt>
      <trkpt lat="51.90143" lon="4.33618">
        <ele>54.174287</ele>
        <time>2024-07-04T07:16:11.324Z</time>
      </trkpt>
      <trkpt lat="51.90139" lon="4.33597">
        <ele>54.098523</ele>
        <time>2024-07-04T07:16:14.323Z</time>
      </trkpt>
      <trkpt lat="51.90136" lon="4.33583">
        <ele>54.046959</ele>
        <time>2024-07-04T07:16:16.328Z</time>
      </trkpt>
      <trkpt lat="51.90133" lon="4.33562">
        <ele>53.971719</ele>
        <time>2024-07-04T07:16:19.319Z</time>
      </trkpt>
      <trkpt lat="51.90131" lon="4.33548">
        <ele>53.919245</ele>
        <time>2024-07-04T07:16:21.330Z</time>
      </trkpt>
      <trkpt lat="51.90127" lon="4.33527">
        <ele>53.844005</ele>
        <time>2024-07-04T07:16:24.314Z</time>
      </trkpt>
      <trkpt lat="51.90123" lon="4.33507">
        <ele>53.770454</ele>
        <time>2024-07-04T07:16:27.328Z</time>
      </trkpt>
      <trkpt lat="51.9012" lon="4.33487">
        <ele>53.697165</ele>
        <time>2024-07-04T07:16:30.312Z</time>
      </trkpt>
      <trkpt lat="51.90117" lon="4.33468">
        <ele>53.626309</ele>
        <time>2024-07-04T07:16:33.311Z</time>
      </trkpt>
      <trkpt lat="51.90114" lon="4.33447">
        <ele>53.554124</ele>
        <time>2024-07-04T07:16:36.329Z</time>
      </trkpt>
      <trkpt lat="51.90112" lon="4.33428">
        <ele>53.483207</ele>
        <time>2024-07-04T07:16:39.319Z</time>
      </trkpt>
      <trkpt lat="51.90109" lon="4.33408">
        <ele>53.414625</ele>
        <time>2024-07-04T07:16:42.329Z</time>
      </trkpt>
      <trkpt lat="51.90107" lon="4.33389">
        <ele>53.364001</ele>
        <time>2024-07-04T07:16:45.323Z</time>
      </trkpt>
      <trkpt lat="51.90105" lon="4.33371">
        <ele>53.314698</ele>
        <time>2024-07-04T07:16:48.315Z</time>
      </trkpt>
      <trkpt lat="51.90103" lon="4.33351">
        <ele>53.263125</ele>
        <time>2024-07-04T07:16:51.316Z</time>
      </trkpt>
      <trkpt lat="51.901" lon="4.33332">
        <ele>53.212578</ele>
        <time>2024-07-04T07:16:54.311Z</time>
      </trkpt>
      <trkpt lat="51.90098" lon="4.33313">
        <ele>53.159893</ele>
        <time>2024-07-04T07:16:57.330Z</time>
      </trkpt>
      <trkpt lat="51.90097" lon="4.33293">
        <ele>53.107081</ele>
        <time>2024-07-04T07:17:00.323Z</time>
      </trkpt>
      <trkpt lat="51.90095" lon="4.33273">
        <ele>53.056027</ele>
        <time>2024-07-04T07:17:03.324Z</time>
      </trkpt>
      <trkpt lat="51.90094" lon="4.33254">
        <ele>53.004819</ele>
        <time>2024-07-04T07:17:06.320Z</time>
      </trkpt>
      <trkpt lat="51.90093" lon="4.33234">
        <ele>52.952319</ele>
        <time>2024-07-04T07:17:09.319Z</time>
      </trkpt>
      <trkpt lat="51.90092" lon="4.33214">
        <ele>52.898837</ele>
        <time>2024-07-04T07:17:12.321Z</time>
      </trkpt>
      <trkpt lat="51.90091" lon="4.33193">
        <ele>52.845434</ele>
        <time>2024-07-04T07:17:15.312Z</time>
      </trkpt>
      <trkpt lat="51.90091" lon="4.33172">
        <ele>52.790701</ele>
        <time>2024-07-04T07:17:18.294Z</time>
      </trkpt>
      <trkpt lat="51.9009" lon="4.33153">
        <ele>52.739199</ele>
        <time>2024-07-04T07:17:21.314Z</time>
      </trkpt>
      <trkpt lat="51.90089" lon="4.33133">
        <ele>52.68652</ele>
        <time>2024-07-04T07:17:24.317Z</time>
      </trkpt>
      <trkpt lat="51.90089" lon="4.33112">
        <ele>52.65351</ele>
        <time>2024-07-04T07:17:27.328Z</time>
      </trkpt>
      <trkpt lat="51.90089" lon="4.33092">
        <ele>52.649837</ele>
        <time>2024-07-04T07:17:30.315Z</time>
      </trkpt>
      <trkpt lat="51.90089" lon="4.33071">
        <ele>52.646091</ele>
        <time>2024-07-04T07:17:33.336Z</time>
      </trkpt>
      <trkpt lat="51.90089" lon="4.33052">
        <ele>52.64251</ele>
        <time>2024-07-04T07:17:36.334Z</time>
      </trkpt>
      <trkpt lat="51.9009" lon="4.33032">
        <ele>52.638832</ele>
        <time>2024-07-04T07:17:39.322Z</time>
      </trkpt>
      <trkpt lat="51.9009" lon="4.33012">
        <ele>52.63521</ele>
        <time>2024-07-04T07:17:42.306Z</time>
      </trkpt>
      <trkpt lat="51.90091" lon="4.32993">
        <ele>52.63165</ele>
        <time>2024-07-04T07:17:45.335Z</time>
      </trkpt>
      <trkpt lat="51.90093" lon="4.32973">
        <ele>52.627975</ele>
        <time>2024-07-04T07:17:48.322Z</time>
      </trkpt>
      <trkpt lat="51.90094" lon="4.32953">
        <ele>52.624336</ele>
        <time>2024-07-04T07:17:51.318Z</time>
      </trkpt>
      <trkpt lat="51.90095" lon="4.32932">
        <ele>52.620561</ele>
        <time>2024-07-04T07:17:54.319Z</time>
      </trkpt>
      <trkpt lat="51.90097" lon="4.32913">
        <ele>52.61693</ele>
        <time>2024-07-04T07:17:57.318Z</time>
      </trkpt>
      <trkpt lat="51.90099" lon="4.32893">
        <ele>52.613255</ele>
        <time>2024-07-04T07:18:00.316Z</time>
      </trkpt>
      <trkpt lat="51.90101" lon="4.32873">
        <ele>52.609525</ele>
        <time>2024-07-04T07:18:03.320Z</time>
      </trkpt>
      <trkpt lat="51.90103" lon="4.32853">
        <ele>52.605956</ele>
        <time>2024-07-04T07:18:06.313Z</time>
      </trkpt>
      <trkpt lat="51.90105" lon="4.32833">
        <ele>52.602238</ele>
        <time>2024-07-04T07:18:09.322Z</time>
      </trkpt>
      <trkpt lat="51.90107" lon="4.32813">
        <ele>52.590005</ele>
        <time>2024-07-04T07:18:12.313Z</time>
      </trkpt>
      <trkpt lat="51.90109" lon="4.32792">
        <ele>52.576723</ele>
        <time>2024-07-04T07:18:15.300Z</time>
      </trkpt>
      <trkpt lat="51.90112" lon="4.32773">
        <ele>52.564523</ele>
        <time>2024-07-04T07:18:18.325Z</time>
      </trkpt>
      <trkpt lat="51.90114" lon="4.32753">
        <ele>52.552036</ele>
        <time>2024-07-04T07:18:21.331Z</time>
      </trkpt>
      <trkpt lat="51.90117" lon="4.32733">
        <ele>52.539148</ele>
        <time>2024-07-04T07:18:24.313Z</time>
      </trkpt>
      <trkpt lat="51.90121" lon="4.32713">
        <ele>52.526004</ele>
        <time>2024-07-04T07:18:27.323Z</time>
      </trkpt>
      <trkpt lat="51.90124" lon="4.32694">
        <ele>52.513408</ele>
        <time>2024-07-04T07:18:30.313Z</time>
      </trkpt>
      <trkpt lat="51.90128" lon="4.32674">
        <ele>52.500444</ele>
        <time>2024-07-04T07:18:33.335Z</time>
      </trkpt>
      <trkpt lat="51.90131" lon="4.32654">
        <ele>52.487565</ele>
        <time>2024-07-04T07:18:36.313Z</time>
      </trkpt>
      <trkpt lat="51.90135" lon="4.32634">
        <ele>52.474382</ele>
        <time>2024-07-04T07:18:39.325Z</time>
      </trkpt>
      <trkpt lat="51.90138" lon="4.32614">
        <ele>52.46142</ele>
        <time>2024-07-04T07:18:42.304Z</time>
      </trkpt>
      <trkpt lat="51.90143" lon="4.32595">
        <ele>52.448771</ele>
        <time>2024-07-04T07:18:45.322Z</time>
      </trkpt>
      <trkpt lat="51.90147" lon="4.32576">
        <ele>52.435898</ele>
        <time>2024-07-04T07:18:48.326Z</time>
      </trkpt>
      <trkpt lat="51.9015" lon="4.32556">
        <ele>52.422726</ele>
        <time>2024-07-04T07:18:51.318Z</time>
      </trkpt>
      <trkpt lat="51.90155" lon="4.32537">
        <ele>52.430097</ele>
        <time>2024-07-04T07:18:54.314Z</time>
      </trkpt>
      <trkpt lat="51.90158" lon="4.32517">
        <ele>52.446417</ele>
        <time>2024-07-04T07:18:57.330Z</time>
      </trkpt>
      <trkpt lat="51.90162" lon="4.32498">
        <ele>52.46233</ele>
        <time>2024-07-04T07:19:00.315Z</time>
      </trkpt>
      <trkpt lat="51.90166" lon="4.32479">
        <ele>52.478803</ele>
        <time>2024-07-04T07:19:03.324Z</time>
      </trkpt>
      <trkpt lat="51.9017" lon="4.32459">
        <ele>52.495085</ele>
        <time>2024-07-04T07:19:06.319Z</time>
      </trkpt>
      <trkpt lat="51.90173" lon="4.32441">
        <ele>52.510333</ele>
        <time>2024-07-04T07:19:09.327Z</time>
      </trkpt>
      <trkpt lat="51.90177" lon="4.32426">
        <ele>52.523734</ele>
        <time>2024-07-04T07:19:12.336Z</time>
      </trkpt>
      <trkpt lat="51.9018" lon="4.32412">
        <ele>52.53551</ele>
        <time>2024-07-04T07:19:15.318Z</time>
      </trkpt>
      <trkpt lat="51.90185" lon="4.32396">
        <ele>52.549229</ele>
        <time>2024-07-04T07:19:19.319Z</time>
      </trkpt>
      <trkpt lat="51.90188" lon="4.32382">
        <ele>52.561609</ele>
        <time>2024-07-04T07:19:24.331Z</time>
      </trkpt>
      <trkpt lat="51.90176" lon="4.32374">
        <ele>52.577989</ele>
        <time>2024-07-04T07:19:43.329Z</time>
      </trkpt>
      <trkpt lat="51.90175" lon="4.32357">
        <ele>52.591778</ele>
        <time>2024-07-04T07:19:46.314Z</time>
      </trkpt>
      <trkpt lat="51.90179" lon="4.3234">
        <ele>52.60676</ele>
        <time>2024-07-04T07:19:49.321Z</time>
      </trkpt>
      <trkpt lat="51.90182" lon="4.32321">
        <ele>52.622818</ele>
        <time>2024-07-04T07:19:52.321Z</time>
      </trkpt>
      <trkpt lat="51.90178" lon="4.32301">
        <ele>52.639303</ele>
        <time>2024-07-04T07:19:55.317Z</time>
      </trkpt>
      <trkpt lat="51.90174" lon="4.32283">
        <ele>52.640946</ele>
        <time>2024-07-04T07:19:58.318Z</time>
      </trkpt>
      <trkpt lat="51.90171" lon="4.32265">
        <ele>52.570327</ele>
        <time>2024-07-04T07:20:01.322Z</time>
      </trkpt>
      <trkpt lat="51.90168" lon="4.32248">
        <ele>52.502821</ele>
        <time>2024-07-04T07:20:04.315Z</time>
      </trkpt>
      <trkpt lat="51.90165" lon="4.32233">
        <ele>52.442635</ele>
        <time>2024-07-04T07:20:07.323Z</time>
      </trkpt>
      <trkpt lat="51.90162" lon="4.32217">
        <ele>52.376962</ele>
        <time>2024-07-04T07:20:10.328Z</time>
      </trkpt>
      <trkpt lat="51.90158" lon="4.32199">
        <ele>52.303784</ele>
        <time>2024-07-04T07:20:13.315Z</time>
      </trkpt>
      <trkpt lat="51.90155" lon="4.32179">
        <ele>52.22535</ele>
        <time>2024-07-04T07:20:16.315Z</time>
      </trkpt>
      <trkpt lat="51.90152" lon="4.32158">
        <ele>52.142581</ele>
        <time>2024-07-04T07:20:19.306Z</time>
      </trkpt>
      <trkpt lat="51.9015" lon="4.32137">
        <ele>52.062196</ele>
        <time>2024-07-04T07:20:22.316Z</time>
      </trkpt>
      <trkpt lat="51.90146" lon="4.32117">
        <ele>51.983336</ele>
        <time>2024-07-04T07:20:25.316Z</time>
      </trkpt>
      <trkpt lat="51.90142" lon="4.32096">
        <ele>51.900253</ele>
        <time>2024-07-04T07:20:28.327Z</time>
      </trkpt>
      <trkpt lat="51.90139" lon="4.32076">
        <ele>51.818645</ele>
        <time>2024-07-04T07:20:31.316Z</time>
      </trkpt>
      <trkpt lat="51.90135" lon="4.32055">
        <ele>51.736129</ele>
        <time>2024-07-04T07:20:34.319Z</time>
      </trkpt>
      <trkpt lat="51.90133" lon="4.32041">
        <ele>51.679221</ele>
        <time>2024-07-04T07:20:36.319Z</time>
      </trkpt>
      <trkpt lat="51.90129" lon="4.32021">
        <ele>51.599624</ele>
        <time>2024-07-04T07:20:39.329Z</time>
      </trkpt>
      <trkpt lat="51.90126" lon="4.32002">
        <ele>51.533697</ele>
        <time>2024-07-04T07:20:42.314Z</time>
      </trkpt>
      <trkpt lat="51.90122" lon="4.31983">
        <ele>51.513993</ele>
        <time>2024-07-04T07:20:45.332Z</time>
      </trkpt>
      <trkpt lat="51.90121" lon="4.31964">
        <ele>51.49495</ele>
        <time>2024-07-04T07:20:48.311Z</time>
      </trkpt>
      <trkpt lat="51.90119" lon="4.31945">
        <ele>51.476665</ele>
        <time>2024-07-04T07:20:51.312Z</time>
      </trkpt>
      <trkpt lat="51.90118" lon="4.31926">
        <ele>51.457656</ele>
        <time>2024-07-04T07:20:54.327Z</time>
      </trkpt>
      <trkpt lat="51.90117" lon="4.31907">
        <ele>51.438883</ele>
        <time>2024-07-04T07:20:57.323Z</time>
      </trkpt>
      <trkpt lat="51.90116" lon="4.31887">
        <ele>51.420012</ele>
        <time>2024-07-04T07:21:00.313Z</time>
      </trkpt>
      <trkpt lat="51.90114" lon="4.31868">
        <ele>51.401026</ele>
        <time>2024-07-04T07:21:03.330Z</time>
      </trkpt>
      <trkpt lat="51.90113" lon="4.31849">
        <ele>51.382059</ele>
        <time>2024-07-04T07:21:06.319Z</time>
      </trkpt>
      <trkpt lat="51.90112" lon="4.3183">
        <ele>51.363556</ele>
        <time>2024-07-04T07:21:09.318Z</time>
      </trkpt>
      <trkpt lat="51.9011" lon="4.31811">
        <ele>51.345384</ele>
        <time>2024-07-04T07:21:12.328Z</time>
      </trkpt>
      <trkpt lat="51.90115" lon="4.31794">
        <ele>51.327169</ele>
        <time>2024-07-04T07:21:15.329Z</time>
      </trkpt>
      <trkpt lat="51.90116" lon="4.31777">
        <ele>51.310644</ele>
        <time>2024-07-04T07:21:18.308Z</time>
      </trkpt>
      <trkpt lat="51.9011" lon="4.31765">
        <ele>51.295913</ele>
        <time>2024-07-04T07:21:21.318Z</time>
      </trkpt>
      <trkpt lat="51.90107" lon="4.31749">
        <ele>51.279702</ele>
        <time>2024-07-04T07:21:24.330Z</time>
      </trkpt>
      <trkpt lat="51.90106" lon="4.31733">
        <ele>51.263795</ele>
        <time>2024-07-04T07:21:27.325Z</time>
      </trkpt>
      <trkpt lat="51.90105" lon="4.31716">
        <ele>51.243754</ele>
        <time>2024-07-04T07:21:30.317Z</time>
      </trkpt>
      <trkpt lat="51.90104" lon="4.31695">
        <ele>51.205092</ele>
        <time>2024-07-04T07:21:33.317Z</time>
      </trkpt>
      <trkpt lat="51.90102" lon="4.31675">
        <ele>51.166957</ele>
        <time>2024-07-04T07:21:36.318Z</time>
      </trkpt>
      <trkpt lat="51.90101" lon="4.31654">
        <ele>51.129561</ele>
        <time>2024-07-04T07:21:39.316Z</time>
      </trkpt>
      <trkpt lat="51.90099" lon="4.31634">
        <ele>51.091479</ele>
        <time>2024-07-04T07:21:42.317Z</time>
      </trkpt>
      <trkpt lat="51.90098" lon="4.31614">
        <ele>51.054736</ele>
        <time>2024-07-04T07:21:45.319Z</time>
      </trkpt>
      <trkpt lat="51.90096" lon="4.31593">
        <ele>51.016353</ele>
        <time>2024-07-04T07:21:48.323Z</time>
      </trkpt>
      <trkpt lat="51.90093" lon="4.31572">
        <ele>50.978267</ele>
        <time>2024-07-04T07:21:51.328Z</time>
      </trkpt>
      <trkpt lat="51.90092" lon="4.31553">
        <ele>50.942494</ele>
        <time>2024-07-04T07:21:54.332Z</time>
      </trkpt>
      <trkpt lat="51.9009" lon="4.31534">
        <ele>50.907809</ele>
        <time>2024-07-04T07:21:57.318Z</time>
      </trkpt>
      <trkpt lat="51.90089" lon="4.31513">
        <ele>50.869944</ele>
        <time>2024-07-04T07:22:00.311Z</time>
      </trkpt>
      <trkpt lat="51.90087" lon="4.31493">
        <ele>50.832548</ele>
        <time>2024-07-04T07:22:03.328Z</time>
      </trkpt>
      <trkpt lat="51.90085" lon="4.31474">
        <ele>50.797</ele>
        <time>2024-07-04T07:22:06.312Z</time>
      </trkpt>
      <trkpt lat="51.90083" lon="4.31455">
        <ele>50.761995</ele>
        <time>2024-07-04T07:22:09.326Z</time>
      </trkpt>
      <trkpt lat="51.90081" lon="4.31434">
        <ele>50.72396</ele>
        <time>2024-07-04T07:22:12.317Z</time>
      </trkpt>
      <trkpt lat="51.90079" lon="4.31415">
        <ele>50.856124</ele>
        <time>2024-07-04T07:22:15.330Z</time>
      </trkpt>
      <trkpt lat="51.90077" lon="4.31396">
        <ele>51.003964</ele>
        <time>2024-07-04T07:22:18.299Z</time>
      </trkpt>
      <trkpt lat="51.90076" lon="4.31375">
        <ele>51.165077</ele>
        <time>2024-07-04T07:22:21.317Z</time>
      </trkpt>
      <trkpt lat="51.90074" lon="4.31356">
        <ele>51.310053</ele>
        <time>2024-07-04T07:22:24.324Z</time>
      </trkpt>
      <trkpt lat="51.90071" lon="4.31339">
        <ele>51.450435</ele>
        <time>2024-07-04T07:22:27.297Z</time>
      </trkpt>
      <trkpt lat="51.90069" lon="4.31321">
        <ele>51.585966</ele>
        <time>2024-07-04T07:22:30.310Z</time>
      </trkpt>
      <trkpt lat="51.90067" lon="4.31304">
        <ele>51.723578</ele>
        <time>2024-07-04T07:22:33.314Z</time>
      </trkpt>
      <trkpt lat="51.90064" lon="4.31286">
        <ele>51.867444</ele>
        <time>2024-07-04T07:22:36.333Z</time>
      </trkpt>
      <trkpt lat="51.90062" lon="4.31268">
        <ele>52.005929</ele>
        <time>2024-07-04T07:22:39.319Z</time>
      </trkpt>
      <trkpt lat="51.90059" lon="4.31253">
        <ele>52.122881</ele>
        <time>2024-07-04T07:22:42.304Z</time>
      </trkpt>
      <trkpt lat="51.90056" lon="4.31235">
        <ele>52.266171</ele>
        <time>2024-07-04T07:22:46.313Z</time>
      </trkpt>
      <trkpt lat="51.90051" lon="4.31218">
        <ele>52.411821</ele>
        <time>2024-07-04T07:22:50.316Z</time>
      </trkpt>
      <trkpt lat="51.90052" lon="4.31199">
        <ele>52.557889</ele>
        <time>2024-07-04T07:22:54.309Z</time>
      </trkpt>
      <trkpt lat="51.90053" lon="4.31182">
        <ele>52.689257</ele>
        <time>2024-07-04T07:22:57.303Z</time>
      </trkpt>
      <trkpt lat="51.90054" lon="4.31166">
        <ele>52.813249</ele>
        <time>2024-07-04T07:23:00.315Z</time>
      </trkpt>
      <trkpt lat="51.90057" lon="4.31148">
        <ele>52.950685</ele>
        <time>2024-07-04T07:23:03.321Z</time>
      </trkpt>
      <trkpt lat="51.90062" lon="4.3113">
        <ele>52.941407</ele>
        <time>2024-07-04T07:23:06.310Z</time>
      </trkpt>
      <trkpt lat="51.90065" lon="4.31115">
        <ele>52.930391</ele>
        <time>2024-07-04T07:23:08.320Z</time>
      </trkpt>
      <trkpt lat="51.90068" lon="4.31101">
        <ele>52.919616</ele>
        <time>2024-07-04T07:23:10.317Z</time>
      </trkpt>
      <trkpt lat="51.9007" lon="4.31085">
        <ele>52.907728</ele>
        <time>2024-07-04T07:23:12.316Z</time>
      </trkpt>
      <trkpt lat="51.90072" lon="4.31069">
        <ele>52.895851</ele>
        <time>2024-07-04T07:23:14.316Z</time>
      </trkpt>
      <trkpt lat="51.90075" lon="4.31053">
        <ele>52.88401</ele>
        <time>2024-07-04T07:23:16.319Z</time>
      </trkpt>
      <trkpt lat="51.90077" lon="4.31036">
        <ele>52.871842</ele>
        <time>2024-07-04T07:23:18.332Z</time>
      </trkpt>
      <trkpt lat="51.9008" lon="4.31021">
        <ele>52.860103</ele>
        <time>2024-07-04T07:23:20.317Z</time>
      </trkpt>
      <trkpt lat="51.90082" lon="4.31006">
        <ele>52.849261</ele>
        <time>2024-07-04T07:23:22.325Z</time>
      </trkpt>
      <trkpt lat="51.90084" lon="4.30992">
        <ele>52.8387</ele>
        <time>2024-07-04T07:23:24.316Z</time>
      </trkpt>
      <trkpt lat="51.90086" lon="4.30973">
        <ele>52.824765</ele>
        <time>2024-07-04T07:23:27.320Z</time>
      </trkpt>
      <trkpt lat="51.90087" lon="4.30953">
        <ele>52.810672</ele>
        <time>2024-07-04T07:23:30.315Z</time>
      </trkpt>
      <trkpt lat="51.90088" lon="4.30934">
        <ele>52.797201</ele>
        <time>2024-07-04T07:23:33.325Z</time>
      </trkpt>
      <trkpt lat="51.90087" lon="4.30917">
        <ele>52.784506</ele>
        <time>2024-07-04T07:23:36.318Z</time>
      </trkpt>
      <trkpt lat="51.90083" lon="4.30902">
        <ele>52.772644</ele>
        <time>2024-07-04T07:23:39.305Z</time>
      </trkpt>
      <trkpt lat="51.90079" lon="4.30887">
        <ele>52.761052</ele>
        <time>2024-07-04T07:23:42.317Z</time>
      </trkpt>
      <trkpt lat="51.90076" lon="4.30873">
        <ele>52.750372</ele>
        <time>2024-07-04T07:23:45.316Z</time>
      </trkpt>
      <trkpt lat="51.90072" lon="4.30859">
        <ele>52.799248</ele>
        <time>2024-07-04T07:23:48.335Z</time>
      </trkpt>
      <trkpt lat="51.90068" lon="4.30844">
        <ele>52.898512</ele>
        <time>2024-07-04T07:23:51.317Z</time>
      </trkpt>
      <trkpt lat="51.90065" lon="4.30823">
        <ele>53.022604</ele>
        <time>2024-07-04T07:23:54.310Z</time>
      </trkpt>
      <trkpt lat="51.90066" lon="4.30804">
        <ele>53.139522</ele>
        <time>2024-07-04T07:23:57.327Z</time>
      </trkpt>
      <trkpt lat="51.90067" lon="4.30784">
        <ele>53.256129</ele>
        <time>2024-07-04T07:24:00.310Z</time>
      </trkpt>
      <trkpt lat="51.90069" lon="4.30766">
        <ele>53.364515</ele>
        <time>2024-07-04T07:24:03.319Z</time>
      </trkpt>
      <trkpt lat="51.9007" lon="4.30749">
        <ele>53.465137</ele>
        <time>2024-07-04T07:24:06.318Z</time>
      </trkpt>
      <trkpt lat="51.90072" lon="4.30734">
        <ele>53.553791</ele>
        <time>2024-07-04T07:24:09.318Z</time>
      </trkpt>
      <trkpt lat="51.90074" lon="4.30715">
        <ele>53.667461</ele>
        <time>2024-07-04T07:24:13.328Z</time>
      </trkpt>
      <trkpt lat="51.90076" lon="4.30697">
        <ele>53.778793</ele>
        <time>2024-07-04T07:24:17.327Z</time>
      </trkpt>
      <trkpt lat="51.90068" lon="4.30685">
        <ele>53.875645</ele>
        <time>2024-07-04T07:24:22.303Z</time>
      </trkpt>
      <trkpt lat="51.90059" lon="4.30683">
        <ele>53.971143</ele>
        <time>2024-07-04T07:24:25.316Z</time>
      </trkpt>
      <trkpt lat="51.90048" lon="4.3068">
        <ele>54.078404</ele>
        <time>2024-07-04T07:24:28.322Z</time>
      </trkpt>
      <trkpt lat="51.90036" lon="4.30677">
        <ele>54.191253</ele>
        <time>2024-07-04T07:24:31.324Z</time>
      </trkpt>
      <trkpt lat="51.90023" lon="4.30674">
        <ele>54.318794</ele>
        <time>2024-07-04T07:24:34.311Z</time>
      </trkpt>
      <trkpt lat="51.9001" lon="4.30672">
        <ele>54.44463</ele>
        <time>2024-07-04T07:24:37.322Z</time>
      </trkpt>
      <trkpt lat="51.89997" lon="4.30668">
        <ele>54.433485</ele>
        <time>2024-07-04T07:24:40.334Z</time>
      </trkpt>
      <trkpt lat="51.89984" lon="4.30664">
        <ele>54.37864</ele>
        <time>2024-07-04T07:24:43.321Z</time>
      </trkpt>
      <trkpt lat="51.89971" lon="4.3066">
        <ele>54.323297</ele>
        <time>2024-07-04T07:24:46.309Z</time>
      </trkpt>
      <trkpt lat="51.89958" lon="4.30656">
        <ele>54.26917</ele>
        <time>2024-07-04T07:24:49.333Z</time>
      </trkpt>
      <trkpt lat="51.89945" lon="4.30653">
        <ele>54.216382</ele>
        <time>2024-07-04T07:24:52.330Z</time>
      </trkpt>
      <trkpt lat="51.89933" lon="4.3065">
        <ele>54.163159</ele>
        <time>2024-07-04T07:24:55.324Z</time>
      </trkpt>
      <trkpt lat="51.8992" lon="4.30647">
        <ele>54.111662</ele>
        <time>2024-07-04T07:24:58.315Z</time>
      </trkpt>
      <trkpt lat="51.89908" lon="4.30643">
        <ele>54.060916</ele>
        <time>2024-07-04T07:25:01.336Z</time>
      </trkpt>
      <trkpt lat="51.89896" lon="4.30641">
        <ele>54.009763</ele>
        <time>2024-07-04T07:25:04.318Z</time>
      </trkpt>
      <trkpt lat="51.89884" lon="4.30638">
        <ele>53.95946</ele>
        <time>2024-07-04T07:25:07.324Z</time>
      </trkpt>
      <trkpt lat="51.89875" lon="4.30635">
        <ele>53.922097</ele>
        <time>2024-07-04T07:25:09.317Z</time>
      </trkpt>
      <trkpt lat="51.89862" lon="4.30633">
        <ele>53.869403</ele>
        <time>2024-07-04T07:25:12.319Z</time>
      </trkpt>
      <trkpt lat="51.8985" lon="4.30628">
        <ele>53.817941</ele>
        <time>2024-07-04T07:25:15.328Z</time>
      </trkpt>
      <trkpt lat="51.89842" lon="4.30612">
        <ele>53.764251</ele>
        <time>2024-07-04T07:25:18.334Z</time>
      </trkpt>
      <trkpt lat="51.89834" lon="4.30596">
        <ele>53.695788</ele>
        <time>2024-07-04T07:25:21.333Z</time>
      </trkpt>
      <trkpt lat="51.89832" lon="4.30574">
        <ele>53.595795</ele>
        <time>2024-07-04T07:25:24.329Z</time>
      </trkpt>
      <trkpt lat="51.89833" lon="4.30558">
        <ele>53.524243</ele>
        <time>2024-07-04T07:25:26.314Z</time>
      </trkpt>
      <trkpt lat="51.89834" lon="4.3054">
        <ele>53.445511</ele>
        <time>2024-07-04T07:25:28.337Z</time>
      </trkpt>
      <trkpt lat="51.89834" lon="4.30522">
        <ele>53.361263</ele>
        <time>2024-07-04T07:25:30.322Z</time>
      </trkpt>
      <trkpt lat="51.89834" lon="4.30501">
        <ele>53.270715</ele>
        <time>2024-07-04T07:25:32.317Z</time>
      </trkpt>
      <trkpt lat="51.89835" lon="4.30481">
        <ele>53.177227</ele>
        <time>2024-07-04T07:25:34.314Z</time>
      </trkpt>
      <trkpt lat="51.89838" lon="4.30463">
        <ele>53.095578</ele>
        <time>2024-07-04T07:25:36.310Z</time>
      </trkpt>
      <trkpt lat="51.89839" lon="4.30447">
        <ele>53.022273</ele>
        <time>2024-07-04T07:25:38.322Z</time>
      </trkpt>
      <trkpt lat="51.89842" lon="4.30426">
        <ele>52.925706</ele>
        <time>2024-07-04T07:25:41.318Z</time>
      </trkpt>
      <trkpt lat="51.89844" lon="4.30405">
        <ele>52.832366</ele>
        <time>2024-07-04T07:25:44.317Z</time>
      </trkpt>
      <trkpt lat="51.89847" lon="4.30385">
        <ele>52.74013</ele>
        <time>2024-07-04T07:25:47.325Z</time>
      </trkpt>
      <trkpt lat="51.8985" lon="4.30364">
        <ele>52.645279</ele>
        <time>2024-07-04T07:25:50.314Z</time>
      </trkpt>
      <trkpt lat="51.89852" lon="4.30343">
        <ele>52.549437</ele>
        <time>2024-07-04T07:25:53.321Z</time>
      </trkpt>
      <trkpt lat="51.89854" lon="4.30329">
        <ele>52.483296</ele>
        <time>2024-07-04T07:25:55.313Z</time>
      </trkpt>
      <trkpt lat="51.89857" lon="4.30308">
        <ele>52.436494</ele>
        <time>2024-07-04T07:25:58.325Z</time>
      </trkpt>
      <trkpt lat="51.89859" lon="4.30287">
        <ele>52.463165</ele>
        <time>2024-07-04T07:26:01.321Z</time>
      </trkpt>
      <trkpt lat="51.89861" lon="4.30266">
        <ele>52.489363</ele>
        <time>2024-07-04T07:26:04.317Z</time>
      </trkpt>
      <trkpt lat="51.89864" lon="4.30245">
        <ele>52.515957</ele>
        <time>2024-07-04T07:26:07.318Z</time>
      </trkpt>
      <trkpt lat="51.89866" lon="4.3023">
        <ele>52.534782</ele>
        <time>2024-07-04T07:26:09.319Z</time>
      </trkpt>
      <trkpt lat="51.89869" lon="4.30209">
        <ele>52.560222</ele>
        <time>2024-07-04T07:26:12.319Z</time>
      </trkpt>
      <trkpt lat="51.8987" lon="4.30188">
        <ele>52.586932</ele>
        <time>2024-07-04T07:26:15.357Z</time>
      </trkpt>
      <trkpt lat="51.89873" lon="4.30166">
        <ele>52.614048</ele>
        <time>2024-07-04T07:26:18.319Z</time>
      </trkpt>
      <trkpt lat="51.89875" lon="4.30152">
        <ele>52.631991</ele>
        <time>2024-07-04T07:26:20.332Z</time>
      </trkpt>
      <trkpt lat="51.89877" lon="4.30131">
        <ele>52.658106</ele>
        <time>2024-07-04T07:26:23.322Z</time>
      </trkpt>
      <trkpt lat="51.8988" lon="4.30109">
        <ele>52.684786</ele>
        <time>2024-07-04T07:26:26.315Z</time>
      </trkpt>
      <trkpt lat="51.89883" lon="4.30089">
        <ele>52.710391</ele>
        <time>2024-07-04T07:26:29.309Z</time>
      </trkpt>
      <trkpt lat="51.89885" lon="4.30069">
        <ele>52.735625</ele>
        <time>2024-07-04T07:26:32.337Z</time>
      </trkpt>
      <trkpt lat="51.89888" lon="4.30048">
        <ele>52.761537</ele>
        <time>2024-07-04T07:26:35.316Z</time>
      </trkpt>
      <trkpt lat="51.8989" lon="4.30028">
        <ele>52.785417</ele>
        <time>2024-07-04T07:26:38.331Z</time>
      </trkpt>
      <trkpt lat="51.89893" lon="4.30008">
        <ele>52.79708</ele>
        <time>2024-07-04T07:26:41.320Z</time>
      </trkpt>
      <trkpt lat="51.89896" lon="4.29986">
        <ele>52.809193</ele>
        <time>2024-07-04T07:26:44.319Z</time>
      </trkpt>
      <trkpt lat="51.89899" lon="4.29967">
        <ele>52.820628</ele>
        <time>2024-07-04T07:26:47.325Z</time>
      </trkpt>
      <trkpt lat="51.89901" lon="4.29946">
        <ele>52.832541</ele>
        <time>2024-07-04T07:26:50.332Z</time>
      </trkpt>
      <trkpt lat="51.89903" lon="4.29925">
        <ele>52.84435</ele>
        <time>2024-07-04T07:26:53.324Z</time>
      </trkpt>
      <trkpt lat="51.89906" lon="4.29906">
        <ele>52.855655</ele>
        <time>2024-07-04T07:26:56.327Z</time>
      </trkpt>
      <trkpt lat="51.89909" lon="4.29892">
        <ele>52.863914</ele>
        <time>2024-07-04T07:26:58.312Z</time>
      </trkpt>
      <trkpt lat="51.89912" lon="4.29871">
        <ele>52.875624</ele>
        <time>2024-07-04T07:27:01.317Z</time>
      </trkpt>
      <trkpt lat="51.89913" lon="4.29857">
        <ele>52.883988</ele>
        <time>2024-07-04T07:27:03.333Z</time>
      </trkpt>
      <trkpt lat="51.89916" lon="4.29843">
        <ele>52.892192</ele>
        <time>2024-07-04T07:27:05.326Z</time>
      </trkpt>
      <trkpt lat="51.89918" lon="4.29828">
        <ele>52.900557</ele>
        <time>2024-07-04T07:27:07.308Z</time>
      </trkpt>
      <trkpt lat="51.89919" lon="4.29814">
        <ele>52.90877</ele>
        <time>2024-07-04T07:27:09.320Z</time>
      </trkpt>
      <trkpt lat="51.89921" lon="4.29799">
        <ele>52.917155</ele>
        <time>2024-07-04T07:27:11.334Z</time>
      </trkpt>
      <trkpt lat="51.89924" lon="4.29778">
        <ele>52.929544</ele>
        <time>2024-07-04T07:27:14.325Z</time>
      </trkpt>
      <trkpt lat="51.89926" lon="4.29763">
        <ele>52.938073</ele>
        <time>2024-07-04T07:27:16.317Z</time>
      </trkpt>
      <trkpt lat="51.89929" lon="4.29743">
        <ele>52.937344</ele>
        <time>2024-07-04T07:27:19.322Z</time>
      </trkpt>
      <trkpt lat="51.89932" lon="4.29723">
        <ele>52.872147</ele>
        <time>2024-07-04T07:27:22.314Z</time>
      </trkpt>
      <trkpt lat="51.89935" lon="4.29703">
        <ele>52.803191</ele>
        <time>2024-07-04T07:27:25.334Z</time>
      </trkpt>
      <trkpt lat="51.89937" lon="4.29683">
        <ele>52.737448</ele>
        <time>2024-07-04T07:27:28.316Z</time>
      </trkpt>
      <trkpt lat="51.8994" lon="4.29666">
        <ele>52.680259</ele>
        <time>2024-07-04T07:27:31.315Z</time>
      </trkpt>
      <trkpt lat="51.89944" lon="4.29648">
        <ele>52.620424</ele>
        <time>2024-07-04T07:27:34.314Z</time>
      </trkpt>
      <trkpt lat="51.89946" lon="4.29629">
        <ele>52.555017</ele>
        <time>2024-07-04T07:27:37.336Z</time>
      </trkpt>
      <trkpt lat="51.89949" lon="4.2961">
        <ele>52.491611</ele>
        <time>2024-07-04T07:27:40.305Z</time>
      </trkpt>
      <trkpt lat="51.89952" lon="4.29592">
        <ele>52.43129</ele>
        <time>2024-07-04T07:27:43.334Z</time>
      </trkpt>
      <trkpt lat="51.89955" lon="4.29576">
        <ele>52.377614</ele>
        <time>2024-07-04T07:27:46.306Z</time>
      </trkpt>
      <trkpt lat="51.89958" lon="4.29561">
        <ele>52.325199</ele>
        <time>2024-07-04T07:27:49.322Z</time>
      </trkpt>
      <trkpt lat="51.8996" lon="4.29546">
        <ele>52.276826</ele>
        <time>2024-07-04T07:27:52.318Z</time>
      </trkpt>
      <trkpt lat="51.89962" lon="4.29531">
        <ele>52.226686</ele>
        <time>2024-07-04T07:27:56.321Z</time>
      </trkpt>
      <trkpt lat="51.89965" lon="4.29513">
        <ele>52.166393</ele>
        <time>2024-07-04T07:28:01.309Z</time>
      </trkpt>
      <trkpt lat="51.8997" lon="4.295">
        <ele>52.117563</ele>
        <time>2024-07-04T07:28:06.297Z</time>
      </trkpt>
      <trkpt lat="51.89971" lon="4.29496">
        <ele>52.101699</ele>
        <time>2024-07-04T07:31:01.145Z</time>
      </trkpt>
      <trkpt lat="51.8997" lon="4.29476">
        <ele>52.039117</ele>
        <time>2024-07-04T07:32:05.314Z</time>
      </trkpt>
      <trkpt lat="51.89972" lon="4.29462">
        <ele>52.017343</ele>
        <time>2024-07-04T07:32:09.320Z</time>
      </trkpt>
      <trkpt lat="51.89974" lon="4.29448">
        <ele>52.108577</ele>
        <time>2024-07-04T07:32:14.306Z</time>
      </trkpt>
      <trkpt lat="51.89977" lon="4.29432">
        <ele>52.207586</ele>
        <time>2024-07-04T07:32:19.342Z</time>
      </trkpt>
      <trkpt lat="51.8998" lon="4.29418">
        <ele>52.307102</ele>
        <time>2024-07-04T07:32:24.308Z</time>
      </trkpt>
      <trkpt lat="51.89983" lon="4.29403">
        <ele>52.400359</ele>
        <time>2024-07-04T07:32:28.357Z</time>
      </trkpt>
      <trkpt lat="51.89986" lon="4.29388">
        <ele>52.499909</ele>
        <time>2024-07-04T07:32:32.299Z</time>
      </trkpt>
      <trkpt lat="51.8999" lon="4.29372">
        <ele>52.611972</ele>
        <time>2024-07-04T07:32:36.319Z</time>
      </trkpt>
      <trkpt lat="51.89993" lon="4.29353">
        <ele>52.733366</ele>
        <time>2024-07-04T07:32:40.296Z</time>
      </trkpt>
      <trkpt lat="51.89995" lon="4.29338">
        <ele>52.830908</ele>
        <time>2024-07-04T07:32:43.307Z</time>
      </trkpt>
      <trkpt lat="51.89998" lon="4.29324">
        <ele>52.924799</ele>
        <time>2024-07-04T07:32:46.327Z</time>
      </trkpt>
      <trkpt lat="51.90006" lon="4.29315">
        <ele>53.021046</ele>
        <time>2024-07-04T07:32:49.316Z</time>
      </trkpt>
      <trkpt lat="51.90015" lon="4.29307">
        <ele>53.118577</ele>
        <time>2024-07-04T07:32:52.330Z</time>
      </trkpt>
      <trkpt lat="51.90023" lon="4.293">
        <ele>53.213862</ele>
        <time>2024-07-04T07:32:55.307Z</time>
      </trkpt>
      <trkpt lat="51.90032" lon="4.29295">
        <ele>53.310652</ele>
        <time>2024-07-04T07:32:58.315Z</time>
      </trkpt>
      <trkpt lat="51.90043" lon="4.29288">
        <ele>53.431259</ele>
        <time>2024-07-04T07:33:02.315Z</time>
      </trkpt>
      <trkpt lat="51.90052" lon="4.29284">
        <ele>53.523749</ele>
        <time>2024-07-04T07:33:05.328Z</time>
      </trkpt>
      <trkpt lat="51.90062" lon="4.29279">
        <ele>53.629735</ele>
        <time>2024-07-04T07:33:09.318Z</time>
      </trkpt>
      <trkpt lat="51.90071" lon="4.29272">
        <ele>53.730509</ele>
        <time>2024-07-04T07:33:12.311Z</time>
      </trkpt>
      <trkpt lat="51.90083" lon="4.29263">
        <ele>53.837953</ele>
        <time>2024-07-04T07:33:15.311Z</time>
      </trkpt>
      <trkpt lat="51.90091" lon="4.29253">
        <ele>53.870556</ele>
        <time>2024-07-04T07:33:17.308Z</time>
      </trkpt>
      <trkpt lat="51.90098" lon="4.29242">
        <ele>53.90477</ele>
        <time>2024-07-04T07:33:19.297Z</time>
      </trkpt>
      <trkpt lat="51.90106" lon="4.29231">
        <ele>53.93776</ele>
        <time>2024-07-04T07:33:21.313Z</time>
      </trkpt>
      <trkpt lat="51.90116" lon="4.29217">
        <ele>53.983403</ele>
        <time>2024-07-04T07:33:24.300Z</time>
      </trkpt>
      <trkpt lat="51.90123" lon="4.29205">
        <ele>54.01555</ele>
        <time>2024-07-04T07:33:26.314Z</time>
      </trkpt>
      <trkpt lat="51.90129" lon="4.29194">
        <ele>54.046045</ele>
        <time>2024-07-04T07:33:28.325Z</time>
      </trkpt>
      <trkpt lat="51.90135" lon="4.29182">
        <ele>54.076719</ele>
        <time>2024-07-04T07:33:30.327Z</time>
      </trkpt>
      <trkpt lat="51.90143" lon="4.29166">
        <ele>54.119925</ele>
        <time>2024-07-04T07:33:33.338Z</time>
      </trkpt>
      <trkpt lat="51.90151" lon="4.2915">
        <ele>54.161657</ele>
        <time>2024-07-04T07:33:36.315Z</time>
      </trkpt>
      <trkpt lat="51.90157" lon="4.29134">
        <ele>54.200328</ele>
        <time>2024-07-04T07:33:39.312Z</time>
      </trkpt>
      <trkpt lat="51.90164" lon="4.2912">
        <ele>54.23769</ele>
        <time>2024-07-04T07:33:42.327Z</time>
      </trkpt>
      <trkpt lat="51.90172" lon="4.29111">
        <ele>54.268286</ele>
        <time>2024-07-04T07:33:45.331Z</time>
      </trkpt>
      <trkpt lat="51.90181" lon="4.2912">
        <ele>54.303505</ele>
        <time>2024-07-04T07:33:48.304Z</time>
      </trkpt>
      <trkpt lat="51.90191" lon="4.29128">
        <ele>54.339602</ele>
        <time>2024-07-04T07:33:51.335Z</time>
      </trkpt>
      <trkpt lat="51.902" lon="4.29127">
        <ele>54.370586</ele>
        <time>2024-07-04T07:33:54.309Z</time>
      </trkpt>
      <trkpt lat="51.90204" lon="4.29113">
        <ele>54.4005</ele>
        <time>2024-07-04T07:33:57.317Z</time>
      </trkpt>
      <trkpt lat="51.9021" lon="4.291">
        <ele>54.43238</ele>
        <time>2024-07-04T07:34:01.310Z</time>
      </trkpt>
      <trkpt lat="51.90215" lon="4.29087">
        <ele>54.455494</ele>
        <time>2024-07-04T07:34:04.326Z</time>
      </trkpt>
      <trkpt lat="51.9022" lon="4.29075">
        <ele>54.479213</ele>
        <time>2024-07-04T07:34:07.340Z</time>
      </trkpt>
      <trkpt lat="51.90226" lon="4.29062">
        <ele>54.505942</ele>
        <time>2024-07-04T07:34:10.320Z</time>
      </trkpt>
      <trkpt lat="51.90233" lon="4.29048">
        <ele>54.533616</ele>
        <time>2024-07-04T07:34:13.334Z</time>
      </trkpt>
      <trkpt lat="51.90239" lon="4.29032">
        <ele>54.564185</ele>
        <time>2024-07-04T07:34:16.329Z</time>
      </trkpt>
      <trkpt lat="51.90247" lon="4.29016">
        <ele>54.59523</ele>
        <time>2024-07-04T07:34:19.296Z</time>
      </trkpt>
      <trkpt lat="51.90254" lon="4.28999">
        <ele>54.62731</ele>
        <time>2024-07-04T07:34:22.331Z</time>
      </trkpt>
      <trkpt lat="51.90261" lon="4.28983">
        <ele>54.659837</ele>
        <time>2024-07-04T07:34:25.311Z</time>
      </trkpt>
      <trkpt lat="51.90268" lon="4.28966">
        <ele>54.692994</ele>
        <time>2024-07-04T07:34:28.312Z</time>
      </trkpt>
      <trkpt lat="51.90275" lon="4.28949">
        <ele>54.723678</ele>
        <time>2024-07-04T07:34:31.316Z</time>
      </trkpt>
      <trkpt lat="51.90281" lon="4.28936">
        <ele>54.74959</ele>
        <time>2024-07-04T07:34:34.332Z</time>
      </trkpt>
      <trkpt lat="51.90287" lon="4.28923">
        <ele>54.776129</ele>
        <time>2024-07-04T07:34:37.299Z</time>
      </trkpt>
      <trkpt lat="51.90293" lon="4.28907">
        <ele>54.806003</ele>
        <time>2024-07-04T07:34:40.316Z</time>
      </trkpt>
      <trkpt lat="51.903" lon="4.2889">
        <ele>54.838715</ele>
        <time>2024-07-04T07:34:43.329Z</time>
      </trkpt>
      <trkpt lat="51.90306" lon="4.28875">
        <ele>54.86683</ele>
        <time>2024-07-04T07:34:46.309Z</time>
      </trkpt>
      <trkpt lat="51.90311" lon="4.28861">
        <ele>54.867866</ele>
        <time>2024-07-04T07:34:49.327Z</time>
      </trkpt>
      <trkpt lat="51.90316" lon="4.28848">
        <ele>54.829287</ele>
        <time>2024-07-04T07:34:52.311Z</time>
      </trkpt>
      <trkpt lat="51.90322" lon="4.28835">
        <ele>54.78898</ele>
        <time>2024-07-04T07:34:55.330Z</time>
      </trkpt>
      <trkpt lat="51.90328" lon="4.28822">
        <ele>54.7486</ele>
        <time>2024-07-04T07:34:58.299Z</time>
      </trkpt>
      <trkpt lat="51.90333" lon="4.28809">
        <ele>54.708219</ele>
        <time>2024-07-04T07:35:01.312Z</time>
      </trkpt>
      <trkpt lat="51.90339" lon="4.28795">
        <ele>54.665328</ele>
        <time>2024-07-04T07:35:04.312Z</time>
      </trkpt>
      <trkpt lat="51.90344" lon="4.2878">
        <ele>54.622204</ele>
        <time>2024-07-04T07:35:07.318Z</time>
      </trkpt>
      <trkpt lat="51.90349" lon="4.28764">
        <ele>54.575568</ele>
        <time>2024-07-04T07:35:10.314Z</time>
      </trkpt>
      <trkpt lat="51.90356" lon="4.28748">
        <ele>54.52565</ele>
        <time>2024-07-04T07:35:13.327Z</time>
      </trkpt>
      <trkpt lat="51.90362" lon="4.28731">
        <ele>54.474514</ele>
        <time>2024-07-04T07:35:16.327Z</time>
      </trkpt>
      <trkpt lat="51.90369" lon="4.28715">
        <ele>54.425533</ele>
        <time>2024-07-04T07:35:19.297Z</time>
      </trkpt>
      <trkpt lat="51.90376" lon="4.28699">
        <ele>54.377394</ele>
        <time>2024-07-04T07:35:22.316Z</time>
      </trkpt>
      <trkpt lat="51.90382" lon="4.28682">
        <ele>54.326699</ele>
        <time>2024-07-04T07:35:25.315Z</time>
      </trkpt>
      <trkpt lat="51.90389" lon="4.28666">
        <ele>54.274432</ele>
        <time>2024-07-04T07:35:28.321Z</time>
      </trkpt>
      <trkpt lat="51.90396" lon="4.28647">
        <ele>54.219852</ele>
        <time>2024-07-04T07:35:31.317Z</time>
      </trkpt>
      <trkpt lat="51.90402" lon="4.28628">
        <ele>54.165947</ele>
        <time>2024-07-04T07:35:34.315Z</time>
      </trkpt>
      <trkpt lat="51.90409" lon="4.28612">
        <ele>54.134013</ele>
        <time>2024-07-04T07:35:37.308Z</time>
      </trkpt>
      <trkpt lat="51.90415" lon="4.28595">
        <ele>54.119911</ele>
        <time>2024-07-04T07:35:40.314Z</time>
      </trkpt>
      <trkpt lat="51.90422" lon="4.28578">
        <ele>54.104952</ele>
        <time>2024-07-04T07:35:43.326Z</time>
      </trkpt>
      <trkpt lat="51.90429" lon="4.2856">
        <ele>54.090018</ele>
        <time>2024-07-04T07:35:46.318Z</time>
      </trkpt>
      <trkpt lat="51.90436" lon="4.28542">
        <ele>54.074834</ele>
        <time>2024-07-04T07:35:49.321Z</time>
      </trkpt>
      <trkpt lat="51.90442" lon="4.28525">
        <ele>54.060209</ele>
        <time>2024-07-04T07:35:52.315Z</time>
      </trkpt>
      <trkpt lat="51.90449" lon="4.28509">
        <ele>54.046563</ele>
        <time>2024-07-04T07:35:55.337Z</time>
      </trkpt>
      <trkpt lat="51.90454" lon="4.28492">
        <ele>54.032596</ele>
        <time>2024-07-04T07:35:58.329Z</time>
      </trkpt>
      <trkpt lat="51.9046" lon="4.28475">
        <ele>54.018946</ele>
        <time>2024-07-04T07:36:01.314Z</time>
      </trkpt>
      <trkpt lat="51.90466" lon="4.2846">
        <ele>54.006152</ele>
        <time>2024-07-04T07:36:04.319Z</time>
      </trkpt>
      <trkpt lat="51.90471" lon="4.28444">
        <ele>53.992992</ele>
        <time>2024-07-04T07:36:07.333Z</time>
      </trkpt>
      <trkpt lat="51.90478" lon="4.28431">
        <ele>53.980535</ele>
        <time>2024-07-04T07:36:10.317Z</time>
      </trkpt>
      <trkpt lat="51.90488" lon="4.28423">
        <ele>53.968325</ele>
        <time>2024-07-04T07:36:13.327Z</time>
      </trkpt>
      <trkpt lat="51.90493" lon="4.28409">
        <ele>53.956026</ele>
        <time>2024-07-04T07:36:16.312Z</time>
      </trkpt>
      <trkpt lat="51.90498" lon="4.28395">
        <ele>53.944826</ele>
        <time>2024-07-04T07:36:19.316Z</time>
      </trkpt>
      <trkpt lat="51.90503" lon="4.28381">
        <ele>53.93295</ele>
        <time>2024-07-04T07:36:22.309Z</time>
      </trkpt>
      <trkpt lat="51.90505" lon="4.28364">
        <ele>53.981303</ele>
        <time>2024-07-04T07:36:25.312Z</time>
      </trkpt>
      <trkpt lat="51.90509" lon="4.28349">
        <ele>54.032915</ele>
        <time>2024-07-04T07:36:28.300Z</time>
      </trkpt>
      <trkpt lat="51.90515" lon="4.28335">
        <ele>54.085373</ele>
        <time>2024-07-04T07:36:31.318Z</time>
      </trkpt>
      <trkpt lat="51.9052" lon="4.28321">
        <ele>54.138325</ele>
        <time>2024-07-04T07:36:34.333Z</time>
      </trkpt>
      <trkpt lat="51.90525" lon="4.28308">
        <ele>54.189909</ele>
        <time>2024-07-04T07:36:37.325Z</time>
      </trkpt>
      <trkpt lat="51.90531" lon="4.28293">
        <ele>54.244519</ele>
        <time>2024-07-04T07:36:40.334Z</time>
      </trkpt>
      <trkpt lat="51.90537" lon="4.28278">
        <ele>54.302934</ele>
        <time>2024-07-04T07:36:43.316Z</time>
      </trkpt>
      <trkpt lat="51.90541" lon="4.28261">
        <ele>54.363048</ele>
        <time>2024-07-04T07:36:46.317Z</time>
      </trkpt>
      <trkpt lat="51.90547" lon="4.28245">
        <ele>54.421479</ele>
        <time>2024-07-04T07:36:49.327Z</time>
      </trkpt>
      <trkpt lat="51.90553" lon="4.28229">
        <ele>54.480892</ele>
        <time>2024-07-04T07:36:52.305Z</time>
      </trkpt>
      <trkpt lat="51.90558" lon="4.28214">
        <ele>54.536575</ele>
        <time>2024-07-04T07:36:55.312Z</time>
      </trkpt>
      <trkpt lat="51.90564" lon="4.282">
        <ele>54.590651</ele>
        <time>2024-07-04T07:36:58.316Z</time>
      </trkpt>
      <trkpt lat="51.90571" lon="4.28186">
        <ele>54.64658</ele>
        <time>2024-07-04T07:37:01.335Z</time>
      </trkpt>
      <trkpt lat="51.90578" lon="4.28174">
        <ele>54.699065</ele>
        <time>2024-07-04T07:37:04.318Z</time>
      </trkpt>
      <trkpt lat="51.90585" lon="4.28162">
        <ele>54.753019</ele>
        <time>2024-07-04T07:37:07.331Z</time>
      </trkpt>
      <trkpt lat="51.90593" lon="4.28151">
        <ele>54.809589</ele>
        <time>2024-07-04T07:37:10.324Z</time>
      </trkpt>
      <trkpt lat="51.90602" lon="4.28139">
        <ele>54.867235</ele>
        <time>2024-07-04T07:37:13.334Z</time>
      </trkpt>
      <trkpt lat="51.90611" lon="4.28129">
        <ele>54.896551</ele>
        <time>2024-07-04T07:37:16.324Z</time>
      </trkpt>
      <trkpt lat="51.9062" lon="4.28121">
        <ele>54.924887</ele>
        <time>2024-07-04T07:37:19.342Z</time>
      </trkpt>
      <trkpt lat="51.9063" lon="4.28111">
        <ele>54.954696</ele>
        <time>2024-07-04T07:37:22.324Z</time>
      </trkpt>
      <trkpt lat="51.90638" lon="4.281">
        <ele>54.981733</ele>
        <time>2024-07-04T07:37:25.310Z</time>
      </trkpt>
      <trkpt lat="51.90644" lon="4.2809">
        <ele>55.006364</ele>
        <time>2024-07-04T07:37:28.308Z</time>
      </trkpt>
      <trkpt lat="51.90651" lon="4.28079">
        <ele>55.031494</ele>
        <time>2024-07-04T07:37:31.327Z</time>
      </trkpt>
      <trkpt lat="51.90657" lon="4.28067">
        <ele>55.056981</ele>
        <time>2024-07-04T07:37:34.309Z</time>
      </trkpt>
      <trkpt lat="51.90662" lon="4.28054">
        <ele>55.080886</ele>
        <time>2024-07-04T07:37:37.301Z</time>
      </trkpt>
      <trkpt lat="51.9067" lon="4.28039">
        <ele>55.112872</ele>
        <time>2024-07-04T07:37:41.325Z</time>
      </trkpt>
      <trkpt lat="51.90675" lon="4.28027">
        <ele>55.137068</ele>
        <time>2024-07-04T07:37:44.324Z</time>
      </trkpt>
      <trkpt lat="51.9068" lon="4.28014">
        <ele>55.162447</ele>
        <time>2024-07-04T07:37:47.329Z</time>
      </trkpt>
      <trkpt lat="51.90687" lon="4.28002">
        <ele>55.188889</ele>
        <time>2024-07-04T07:37:50.312Z</time>
      </trkpt>
      <trkpt lat="51.90693" lon="4.27986">
        <ele>55.220896</ele>
        <time>2024-07-04T07:37:53.298Z</time>
      </trkpt>
      <trkpt lat="51.90701" lon="4.27967">
        <ele>55.257481</ele>
        <time>2024-07-04T07:37:56.312Z</time>
      </trkpt>
      <trkpt lat="51.90707" lon="4.27954">
        <ele>55.283788</ele>
        <time>2024-07-04T07:37:58.313Z</time>
      </trkpt>
      <trkpt lat="51.90713" lon="4.27939">
        <ele>55.313834</ele>
        <time>2024-07-04T07:38:00.338Z</time>
      </trkpt>
      <trkpt lat="51.9072" lon="4.27923">
        <ele>55.335602</ele>
        <time>2024-07-04T07:38:02.311Z</time>
      </trkpt>
      <trkpt lat="51.90725" lon="4.27905">
        <ele>55.247826</ele>
        <time>2024-07-04T07:38:04.320Z</time>
      </trkpt>
      <trkpt lat="51.90728" lon="4.27887">
        <ele>55.164039</ele>
        <time>2024-07-04T07:38:06.305Z</time>
      </trkpt>
      <trkpt lat="51.90731" lon="4.2787">
        <ele>55.084389</ele>
        <time>2024-07-04T07:38:08.333Z</time>
      </trkpt>
      <trkpt lat="51.90733" lon="4.27854">
        <ele>55.009246</ele>
        <time>2024-07-04T07:38:10.319Z</time>
      </trkpt>
      <trkpt lat="51.90737" lon="4.2784">
        <ele>54.938999</ele>
        <time>2024-07-04T07:38:12.332Z</time>
      </trkpt>
      <trkpt lat="51.90741" lon="4.27825">
        <ele>54.868049</ele>
        <time>2024-07-04T07:38:14.298Z</time>
      </trkpt>
      <trkpt lat="51.90747" lon="4.27806">
        <ele>54.768544</ele>
        <time>2024-07-04T07:38:17.322Z</time>
      </trkpt>
      <trkpt lat="51.90754" lon="4.27789">
        <ele>54.674822</ele>
        <time>2024-07-04T07:38:20.333Z</time>
      </trkpt>
      <trkpt lat="51.90761" lon="4.27773">
        <ele>54.584432</ele>
        <time>2024-07-04T07:38:23.316Z</time>
      </trkpt>
      <trkpt lat="51.90769" lon="4.27755">
        <ele>54.485579</ele>
        <time>2024-07-04T07:38:26.314Z</time>
      </trkpt>
      <trkpt lat="51.90775" lon="4.27737">
        <ele>54.390954</ele>
        <time>2024-07-04T07:38:29.316Z</time>
      </trkpt>
      <trkpt lat="51.90782" lon="4.2772">
        <ele>54.300713</ele>
        <time>2024-07-04T07:38:32.321Z</time>
      </trkpt>
      <trkpt lat="51.90789" lon="4.27703">
        <ele>54.207789</ele>
        <time>2024-07-04T07:38:35.332Z</time>
      </trkpt>
      <trkpt lat="51.90795" lon="4.27685">
        <ele>54.116031</ele>
        <time>2024-07-04T07:38:38.323Z</time>
      </trkpt>
      <trkpt lat="51.90801" lon="4.27667">
        <ele>54.021867</ele>
        <time>2024-07-04T07:38:41.295Z</time>
      </trkpt>
      <trkpt lat="51.90806" lon="4.27649">
        <ele>53.968712</ele>
        <time>2024-07-04T07:38:44.310Z</time>
      </trkpt>
      <trkpt lat="51.9081" lon="4.27629">
        <ele>53.913749</ele>
        <time>2024-07-04T07:38:47.315Z</time>
      </trkpt>
      <trkpt lat="51.90812" lon="4.27608">
        <ele>53.859306</ele>
        <time>2024-07-04T07:38:50.301Z</time>
      </trkpt>
      <trkpt lat="51.90814" lon="4.27588">
        <ele>53.806533</ele>
        <time>2024-07-04T07:38:53.327Z</time>
      </trkpt>
      <trkpt lat="51.90815" lon="4.27569">
        <ele>53.754563</ele>
        <time>2024-07-04T07:38:56.335Z</time>
      </trkpt>
      <trkpt lat="51.90814" lon="4.27548">
        <ele>53.701382</ele>
        <time>2024-07-04T07:38:59.341Z</time>
      </trkpt>
      <trkpt lat="51.90813" lon="4.27529">
        <ele>53.64935</ele>
        <time>2024-07-04T07:39:02.314Z</time>
      </trkpt>
      <trkpt lat="51.90811" lon="4.2751">
        <ele>53.598376</ele>
        <time>2024-07-04T07:39:05.316Z</time>
      </trkpt>
      <trkpt lat="51.90808" lon="4.27491">
        <ele>53.549037</ele>
        <time>2024-07-04T07:39:08.316Z</time>
      </trkpt>
      <trkpt lat="51.90805" lon="4.27474">
        <ele>53.500232</ele>
        <time>2024-07-04T07:39:11.335Z</time>
      </trkpt>
      <trkpt lat="51.908" lon="4.27455">
        <ele>53.447306</ele>
        <time>2024-07-04T07:39:14.294Z</time>
      </trkpt>
      <trkpt lat="51.90791" lon="4.2744">
        <ele>53.392532</ele>
        <time>2024-07-04T07:39:17.331Z</time>
      </trkpt>
      <trkpt lat="51.90782" lon="4.27426">
        <ele>53.338452</ele>
        <time>2024-07-04T07:39:20.326Z</time>
      </trkpt>
      <trkpt lat="51.90776" lon="4.27415">
        <ele>53.299896</ele>
        <time>2024-07-04T07:39:22.326Z</time>
      </trkpt>
      <trkpt lat="51.90767" lon="4.274">
        <ele>53.248326</ele>
        <time>2024-07-04T07:39:25.327Z</time>
      </trkpt>
      <trkpt lat="51.90757" lon="4.27386">
        <ele>53.215155</ele>
        <time>2024-07-04T07:39:28.326Z</time>
      </trkpt>
      <trkpt lat="51.90748" lon="4.27371">
        <ele>53.182703</ele>
        <time>2024-07-04T07:39:31.322Z</time>
      </trkpt>
      <trkpt lat="51.9074" lon="4.27356">
        <ele>53.15145</ele>
        <time>2024-07-04T07:39:34.327Z</time>
      </trkpt>
      <trkpt lat="51.90735" lon="4.27338">
        <ele>53.11982</ele>
        <time>2024-07-04T07:39:37.309Z</time>
      </trkpt>
      <trkpt lat="51.9073" lon="4.27318">
        <ele>53.086892</ele>
        <time>2024-07-04T07:39:40.320Z</time>
      </trkpt>
      <trkpt lat="51.90728" lon="4.27303">
        <ele>53.062945</ele>
        <time>2024-07-04T07:39:42.317Z</time>
      </trkpt>
      <trkpt lat="51.90729" lon="4.27282">
        <ele>53.030417</ele>
        <time>2024-07-04T07:39:45.305Z</time>
      </trkpt>
      <trkpt lat="51.90734" lon="4.27266">
        <ele>53.001413</ele>
        <time>2024-07-04T07:39:48.311Z</time>
      </trkpt>
      <trkpt lat="51.90741" lon="4.27249">
        <ele>52.969426</ele>
        <time>2024-07-04T07:39:51.318Z</time>
      </trkpt>
      <trkpt lat="51.90748" lon="4.27237">
        <ele>52.943395</ele>
        <time>2024-07-04T07:39:53.333Z</time>
      </trkpt>
      <trkpt lat="51.90755" lon="4.27224">
        <ele>52.916704</ele>
        <time>2024-07-04T07:39:55.321Z</time>
      </trkpt>
      <trkpt lat="51.90761" lon="4.27211">
        <ele>52.891319</ele>
        <time>2024-07-04T07:39:57.322Z</time>
      </trkpt>
      <trkpt lat="51.90769" lon="4.27202">
        <ele>52.866114</ele>
        <time>2024-07-04T07:39:59.327Z</time>
      </trkpt>
      <trkpt lat="51.90778" lon="4.27205">
        <ele>52.843097</ele>
        <time>2024-07-04T07:40:01.317Z</time>
      </trkpt>
      <trkpt lat="51.9079" lon="4.27196">
        <ele>52.8105</ele>
        <time>2024-07-04T07:40:04.329Z</time>
      </trkpt>
      <trkpt lat="51.90796" lon="4.27185">
        <ele>52.789706</ele>
        <time>2024-07-04T07:40:06.309Z</time>
      </trkpt>
      <trkpt lat="51.90803" lon="4.2717">
        <ele>52.767659</ele>
        <time>2024-07-04T07:40:09.320Z</time>
      </trkpt>
      <trkpt lat="51.90811" lon="4.27154">
        <ele>52.744276</ele>
        <time>2024-07-04T07:40:12.317Z</time>
      </trkpt>
      <trkpt lat="51.90818" lon="4.27138">
        <ele>52.721126</ele>
        <time>2024-07-04T07:40:15.313Z</time>
      </trkpt>
      <trkpt lat="51.90826" lon="4.27122">
        <ele>52.697587</ele>
        <time>2024-07-04T07:40:18.322Z</time>
      </trkpt>
      <trkpt lat="51.90834" lon="4.27106">
        <ele>52.673398</ele>
        <time>2024-07-04T07:40:21.331Z</time>
      </trkpt>
      <trkpt lat="51.9084" lon="4.27095">
        <ele>52.656285</ele>
        <time>2024-07-04T07:40:23.318Z</time>
      </trkpt>
      <trkpt lat="51.90846" lon="4.27084">
        <ele>52.639031</ele>
        <time>2024-07-04T07:40:25.318Z</time>
      </trkpt>
      <trkpt lat="51.90855" lon="4.27067">
        <ele>52.613827</ele>
        <time>2024-07-04T07:40:28.316Z</time>
      </trkpt>
      <trkpt lat="51.90863" lon="4.27051">
        <ele>52.589002</ele>
        <time>2024-07-04T07:40:31.331Z</time>
      </trkpt>
      <trkpt lat="51.90871" lon="4.27034">
        <ele>52.563944</ele>
        <time>2024-07-04T07:40:34.327Z</time>
      </trkpt>
      <trkpt lat="51.90877" lon="4.27022">
        <ele>52.546893</ele>
        <time>2024-07-04T07:40:36.313Z</time>
      </trkpt>
      <trkpt lat="51.90885" lon="4.27006">
        <ele>52.52312</ele>
        <time>2024-07-04T07:40:39.311Z</time>
      </trkpt>
      <trkpt lat="51.90892" lon="4.26992">
        <ele>52.501579</ele>
        <time>2024-07-04T07:40:42.313Z</time>
      </trkpt>
      <trkpt lat="51.90898" lon="4.26979">
        <ele>52.482527</ele>
        <time>2024-07-04T07:40:45.313Z</time>
      </trkpt>
      <trkpt lat="51.90905" lon="4.26967">
        <ele>52.462858</ele>
        <time>2024-07-04T07:40:48.325Z</time>
      </trkpt>
      <trkpt lat="51.90913" lon="4.26955">
        <ele>52.38959</ele>
        <time>2024-07-04T07:40:51.319Z</time>
      </trkpt>
      <trkpt lat="51.90919" lon="4.26942">
        <ele>52.296488</ele>
        <time>2024-07-04T07:40:54.332Z</time>
      </trkpt>
      <trkpt lat="51.90927" lon="4.26929">
        <ele>52.200891</ele>
        <time>2024-07-04T07:40:57.314Z</time>
      </trkpt>
      <trkpt lat="51.90933" lon="4.26914">
        <ele>52.102704</ele>
        <time>2024-07-04T07:41:00.313Z</time>
      </trkpt>
      <trkpt lat="51.9094" lon="4.26898">
        <ele>52.00067</ele>
        <time>2024-07-04T07:41:03.311Z</time>
      </trkpt>
      <trkpt lat="51.90947" lon="4.26883">
        <ele>51.898389</ele>
        <time>2024-07-04T07:41:06.313Z</time>
      </trkpt>
      <trkpt lat="51.90954" lon="4.26869">
        <ele>51.795464</ele>
        <time>2024-07-04T07:41:09.333Z</time>
      </trkpt>
      <trkpt lat="51.90961" lon="4.26854">
        <ele>51.69631</ele>
        <time>2024-07-04T07:41:12.323Z</time>
      </trkpt>
      <trkpt lat="51.90968" lon="4.2684">
        <ele>51.599288</ele>
        <time>2024-07-04T07:41:15.335Z</time>
      </trkpt>
      <trkpt lat="51.90974" lon="4.26828">
        <ele>51.50784</ele>
        <time>2024-07-04T07:41:18.332Z</time>
      </trkpt>
      <trkpt lat="51.90981" lon="4.26815">
        <ele>51.414821</ele>
        <time>2024-07-04T07:41:21.325Z</time>
      </trkpt>
      <trkpt lat="51.90988" lon="4.26801">
        <ele>51.317375</ele>
        <time>2024-07-04T07:41:24.316Z</time>
      </trkpt>
      <trkpt lat="51.90995" lon="4.26788">
        <ele>51.224977</ele>
        <time>2024-07-04T07:41:27.322Z</time>
      </trkpt>
      <trkpt lat="51.91001" lon="4.26773">
        <ele>51.124785</ele>
        <time>2024-07-04T07:41:30.302Z</time>
      </trkpt>
      <trkpt lat="51.91008" lon="4.26758">
        <ele>51.02599</ele>
        <time>2024-07-04T07:41:33.313Z</time>
      </trkpt>
      <trkpt lat="51.91015" lon="4.26741">
        <ele>50.918138</ele>
        <time>2024-07-04T07:41:36.311Z</time>
      </trkpt>
      <trkpt lat="51.91022" lon="4.26726">
        <ele>50.888352</ele>
        <time>2024-07-04T07:41:39.327Z</time>
      </trkpt>
      <trkpt lat="51.91028" lon="4.2671">
        <ele>50.914758</ele>
        <time>2024-07-04T07:41:42.333Z</time>
      </trkpt>
      <trkpt lat="51.91033" lon="4.26695">
        <ele>50.939968</ele>
        <time>2024-07-04T07:41:45.317Z</time>
      </trkpt>
      <trkpt lat="51.91039" lon="4.2668">
        <ele>50.964677</ele>
        <time>2024-07-04T07:41:48.313Z</time>
      </trkpt>
      <trkpt lat="51.91045" lon="4.26665">
        <ele>50.99</ele>
        <time>2024-07-04T07:41:51.338Z</time>
      </trkpt>
      <trkpt lat="51.91053" lon="4.26652">
        <ele>51.017025</ele>
        <time>2024-07-04T07:41:54.311Z</time>
      </trkpt>
      <trkpt lat="51.9106" lon="4.26636">
        <ele>51.044614</ele>
        <time>2024-07-04T07:41:57.303Z</time>
      </trkpt>
      <trkpt lat="51.91068" lon="4.2662">
        <ele>51.072822</ele>
        <time>2024-07-04T07:42:00.323Z</time>
      </trkpt>
      <trkpt lat="51.91075" lon="4.26604">
        <ele>51.101926</ele>
        <time>2024-07-04T07:42:03.334Z</time>
      </trkpt>
      <trkpt lat="51.91082" lon="4.26587">
        <ele>51.130295</ele>
        <time>2024-07-04T07:42:06.331Z</time>
      </trkpt>
      <trkpt lat="51.9109" lon="4.26571">
        <ele>51.159898</ele>
        <time>2024-07-04T07:42:09.323Z</time>
      </trkpt>
      <trkpt lat="51.91099" lon="4.26555">
        <ele>51.190498</ele>
        <time>2024-07-04T07:42:12.332Z</time>
      </trkpt>
      <trkpt lat="51.91107" lon="4.26538">
        <ele>51.220873</ele>
        <time>2024-07-04T07:42:15.319Z</time>
      </trkpt>
      <trkpt lat="51.91116" lon="4.26523">
        <ele>51.250959</ele>
        <time>2024-07-04T07:42:18.311Z</time>
      </trkpt>
      <trkpt lat="51.91125" lon="4.26508">
        <ele>51.281468</ele>
        <time>2024-07-04T07:42:21.327Z</time>
      </trkpt>
      <trkpt lat="51.91132" lon="4.26497">
        <ele>51.294039</ele>
        <time>2024-07-04T07:42:23.319Z</time>
      </trkpt>
      <trkpt lat="51.9114" lon="4.26482">
        <ele>51.306545</ele>
        <time>2024-07-04T07:42:26.311Z</time>
      </trkpt>
      <trkpt lat="51.91149" lon="4.26467">
        <ele>51.318472</ele>
        <time>2024-07-04T07:42:29.318Z</time>
      </trkpt>
      <trkpt lat="51.91157" lon="4.26453">
        <ele>51.329975</ele>
        <time>2024-07-04T07:42:32.309Z</time>
      </trkpt>
      <trkpt lat="51.91164" lon="4.26439">
        <ele>51.341327</ele>
        <time>2024-07-04T07:42:35.322Z</time>
      </trkpt>
      <trkpt lat="51.91171" lon="4.26425">
        <ele>51.352206</ele>
        <time>2024-07-04T07:42:38.322Z</time>
      </trkpt>
      <trkpt lat="51.91179" lon="4.26412">
        <ele>51.363665</ele>
        <time>2024-07-04T07:42:41.313Z</time>
      </trkpt>
      <trkpt lat="51.91187" lon="4.26396">
        <ele>51.375902</ele>
        <time>2024-07-04T07:42:44.288Z</time>
      </trkpt>
      <trkpt lat="51.91195" lon="4.26381">
        <ele>51.387811</ele>
        <time>2024-07-04T07:42:47.333Z</time>
      </trkpt>
      <trkpt lat="51.91202" lon="4.26365">
        <ele>51.400114</ele>
        <time>2024-07-04T07:42:50.311Z</time>
      </trkpt>
      <trkpt lat="51.91209" lon="4.2635">
        <ele>51.411421</ele>
        <time>2024-07-04T07:42:53.324Z</time>
      </trkpt>
      <trkpt lat="51.91216" lon="4.26334">
        <ele>51.423477</ele>
        <time>2024-07-04T07:42:56.311Z</time>
      </trkpt>
      <trkpt lat="51.91224" lon="4.26318">
        <ele>51.435387</ele>
        <time>2024-07-04T07:42:59.335Z</time>
      </trkpt>
      <trkpt lat="51.91231" lon="4.26302">
        <ele>51.447697</ele>
        <time>2024-07-04T07:43:02.335Z</time>
      </trkpt>
      <trkpt lat="51.91238" lon="4.26287">
        <ele>51.459081</ele>
        <time>2024-07-04T07:43:05.329Z</time>
      </trkpt>
      <trkpt lat="51.91245" lon="4.2627">
        <ele>51.487712</ele>
        <time>2024-07-04T07:43:08.338Z</time>
      </trkpt>
      <trkpt lat="51.91252" lon="4.26255">
        <ele>51.528597</ele>
        <time>2024-07-04T07:43:11.296Z</time>
      </trkpt>
      <trkpt lat="51.91258" lon="4.26242">
        <ele>51.564582</ele>
        <time>2024-07-04T07:43:14.319Z</time>
      </trkpt>
      <trkpt lat="51.91264" lon="4.26229">
        <ele>51.600072</ele>
        <time>2024-07-04T07:43:17.319Z</time>
      </trkpt>
      <trkpt lat="51.91269" lon="4.26214">
        <ele>51.635236</ele>
        <time>2024-07-04T07:43:20.306Z</time>
      </trkpt>
      <trkpt lat="51.91268" lon="4.26198">
        <ele>51.670689</ele>
        <time>2024-07-04T07:43:23.310Z</time>
      </trkpt>
      <trkpt lat="51.91274" lon="4.26184">
        <ele>51.708231</ele>
        <time>2024-07-04T07:43:26.307Z</time>
      </trkpt>
      <trkpt lat="51.9128" lon="4.26171">
        <ele>51.743616</ele>
        <time>2024-07-04T07:43:29.325Z</time>
      </trkpt>
      <trkpt lat="51.91285" lon="4.26157">
        <ele>51.77994</ele>
        <time>2024-07-04T07:43:32.331Z</time>
      </trkpt>
      <trkpt lat="51.9129" lon="4.26143">
        <ele>51.814425</ele>
        <time>2024-07-04T07:43:35.312Z</time>
      </trkpt>
      <trkpt lat="51.91296" lon="4.26131">
        <ele>51.847111</ele>
        <time>2024-07-04T07:43:38.313Z</time>
      </trkpt>
      <trkpt lat="51.91303" lon="4.26117">
        <ele>51.886152</ele>
        <time>2024-07-04T07:43:42.319Z</time>
      </trkpt>
      <trkpt lat="51.91301" lon="4.26102">
        <ele>51.919304</ele>
        <time>2024-07-04T07:43:46.323Z</time>
      </trkpt>
      <trkpt lat="51.91296" lon="4.26089">
        <ele>51.953967</ele>
        <time>2024-07-04T07:43:50.319Z</time>
      </trkpt>
      <trkpt lat="51.91294" lon="4.26073">
        <ele>51.989841</ele>
        <time>2024-07-04T07:43:54.318Z</time>
      </trkpt>
      <trkpt lat="51.91291" lon="4.26057">
        <ele>52.025553</ele>
        <time>2024-07-04T07:43:58.309Z</time>
      </trkpt>
      <trkpt lat="51.91286" lon="4.2604">
        <ele>52.066158</ele>
        <time>2024-07-04T07:44:02.319Z</time>
      </trkpt>
      <trkpt lat="51.91281" lon="4.26027">
        <ele>52.093272</ele>
        <time>2024-07-04T07:44:05.293Z</time>
      </trkpt>
      <trkpt lat="51.91276" lon="4.26014">
        <ele>52.062764</ele>
        <time>2024-07-04T07:44:08.326Z</time>
      </trkpt>
      <trkpt lat="51.9127" lon="4.26002">
        <ele>52.032841</ele>
        <time>2024-07-04T07:44:11.326Z</time>
      </trkpt>
      <trkpt lat="51.91264" lon="4.25986">
        <ele>51.996594</ele>
        <time>2024-07-04T07:44:15.323Z</time>
      </trkpt>
      <trkpt lat="51.91259" lon="4.25972">
        <ele>51.963728</ele>
        <time>2024-07-04T07:44:19.315Z</time>
      </trkpt>
      <trkpt lat="51.91254" lon="4.25959">
        <ele>51.932184</ele>
        <time>2024-07-04T07:44:23.335Z</time>
      </trkpt>
      <trkpt lat="51.91248" lon="4.25944">
        <ele>51.897463</ele>
        <time>2024-07-04T07:44:27.327Z</time>
      </trkpt>
      <trkpt lat="51.91243" lon="4.2593">
        <ele>51.86628</ele>
        <time>2024-07-04T07:44:31.333Z</time>
      </trkpt>
      <trkpt lat="51.91238" lon="4.25918">
        <ele>51.837285</ele>
        <time>2024-07-04T07:44:35.329Z</time>
      </trkpt>
      <trkpt lat="51.91233" lon="4.25904">
        <ele>51.804403</ele>
        <time>2024-07-04T07:44:39.323Z</time>
      </trkpt>
      <trkpt lat="51.91228" lon="4.25886">
        <ele>51.766914</ele>
        <time>2024-07-04T07:44:43.325Z</time>
      </trkpt>
      <trkpt lat="51.91225" lon="4.25871">
        <ele>51.734414</ele>
        <time>2024-07-04T07:44:47.303Z</time>
      </trkpt>
      <trkpt lat="51.91218" lon="4.25858">
        <ele>51.700919</ele>
        <time>2024-07-04T07:44:51.318Z</time>
      </trkpt>
      <trkpt lat="51.91219" lon="4.25841">
        <ele>51.668214</ele>
        <time>2024-07-04T07:44:55.308Z</time>
      </trkpt>
      <trkpt lat="51.91227" lon="4.25827">
        <ele>51.630709</ele>
        <time>2024-07-04T07:44:59.308Z</time>
      </trkpt>
      <trkpt lat="51.91234" lon="4.25813">
        <ele>51.593288</ele>
        <time>2024-07-04T07:45:03.317Z</time>
      </trkpt>
      <trkpt lat="51.91242" lon="4.25799">
        <ele>51.556683</ele>
        <time>2024-07-04T07:45:07.294Z</time>
      </trkpt>
      <trkpt lat="51.91248" lon="4.25785">
        <ele>51.523161</ele>
        <time>2024-07-04T07:45:11.327Z</time>
      </trkpt>
      <trkpt lat="51.91255" lon="4.25772">
        <ele>51.543328</ele>
        <time>2024-07-04T07:45:15.324Z</time>
      </trkpt>
      <trkpt lat="51.91261" lon="4.25758">
        <ele>51.57204</ele>
        <time>2024-07-04T07:45:19.300Z</time>
      </trkpt>
      <trkpt lat="51.91267" lon="4.25745">
        <ele>51.601158</ele>
        <time>2024-07-04T07:45:23.334Z</time>
      </trkpt>
      <trkpt lat="51.91277" lon="4.25736">
        <ele>51.631584</ele>
        <time>2024-07-04T07:45:27.316Z</time>
      </trkpt>
      <trkpt lat="51.91282" lon="4.25721">
        <ele>51.661134</ele>
        <time>2024-07-04T07:45:31.308Z</time>
      </trkpt>
      <trkpt lat="51.91288" lon="4.25705">
        <ele>51.692552</ele>
        <time>2024-07-04T07:45:35.319Z</time>
      </trkpt>
      <trkpt lat="51.91289" lon="4.2569">
        <ele>51.717981</ele>
        <time>2024-07-04T07:45:39.314Z</time>
      </trkpt>
      <trkpt lat="51.91291" lon="4.25675">
        <ele>51.744176</ele>
        <time>2024-07-04T07:45:43.313Z</time>
      </trkpt>
      <trkpt lat="51.91293" lon="4.25658">
        <ele>51.773368</ele>
        <time>2024-07-04T07:45:47.313Z</time>
      </trkpt>
      <trkpt lat="51.91295" lon="4.25641">
        <ele>51.80161</ele>
        <time>2024-07-04T07:45:51.319Z</time>
      </trkpt>
      <trkpt lat="51.91297" lon="4.25625">
        <ele>51.829023</ele>
        <time>2024-07-04T07:45:54.333Z</time>
      </trkpt>
      <trkpt lat="51.913" lon="4.25604">
        <ele>51.865999</ele>
        <time>2024-07-04T07:45:57.319Z</time>
      </trkpt>
      <trkpt lat="51.91302" lon="4.25589">
        <ele>51.892918</ele>
        <time>2024-07-04T07:45:59.322Z</time>
      </trkpt>
      <trkpt lat="51.91304" lon="4.25572">
        <ele>51.920992</ele>
        <time>2024-07-04T07:46:01.314Z</time>
      </trkpt>
      <trkpt lat="51.91308" lon="4.25552">
        <ele>51.957013</ele>
        <time>2024-07-04T07:46:04.310Z</time>
      </trkpt>
      <trkpt lat="51.91312" lon="4.25533">
        <ele>51.991866</ele>
        <time>2024-07-04T07:46:07.336Z</time>
      </trkpt>
      <trkpt lat="51.91319" lon="4.25517">
        <ele>52.007997</ele>
        <time>2024-07-04T07:46:10.325Z</time>
      </trkpt>
      <trkpt lat="51.91325" lon="4.255">
        <ele>51.996671</ele>
        <time>2024-07-04T07:46:13.321Z</time>
      </trkpt>
      <trkpt lat="51.91331" lon="4.25482">
        <ele>51.98479</ele>
        <time>2024-07-04T07:46:16.329Z</time>
      </trkpt>
      <trkpt lat="51.91337" lon="4.25466">
        <ele>51.974181</ele>
        <time>2024-07-04T07:46:19.333Z</time>
      </trkpt>
      <trkpt lat="51.91342" lon="4.2545">
        <ele>51.963103</ele>
        <time>2024-07-04T07:46:22.332Z</time>
      </trkpt>
      <trkpt lat="51.91347" lon="4.25433">
        <ele>51.952116</ele>
        <time>2024-07-04T07:46:25.293Z</time>
      </trkpt>
      <trkpt lat="51.91352" lon="4.25416">
        <ele>51.940811</ele>
        <time>2024-07-04T07:46:28.305Z</time>
      </trkpt>
      <trkpt lat="51.91358" lon="4.25398">
        <ele>51.929017</ele>
        <time>2024-07-04T07:46:31.315Z</time>
      </trkpt>
      <trkpt lat="51.91364" lon="4.25381">
        <ele>51.917684</ele>
        <time>2024-07-04T07:46:34.329Z</time>
      </trkpt>
      <trkpt lat="51.91368" lon="4.25363">
        <ele>51.906495</ele>
        <time>2024-07-04T07:46:37.293Z</time>
      </trkpt>
      <trkpt lat="51.91373" lon="4.25346">
        <ele>51.895483</ele>
        <time>2024-07-04T07:46:40.311Z</time>
      </trkpt>
      <trkpt lat="51.91378" lon="4.25329">
        <ele>51.884149</ele>
        <time>2024-07-04T07:46:43.326Z</time>
      </trkpt>
      <trkpt lat="51.91383" lon="4.25311">
        <ele>51.873214</ele>
        <time>2024-07-04T07:46:46.314Z</time>
      </trkpt>
      <trkpt lat="51.91388" lon="4.25295">
        <ele>51.862265</ele>
        <time>2024-07-04T07:46:49.302Z</time>
      </trkpt>
      <trkpt lat="51.91393" lon="4.25278">
        <ele>51.851458</ele>
        <time>2024-07-04T07:46:52.317Z</time>
      </trkpt>
      <trkpt lat="51.91397" lon="4.25261">
        <ele>51.831621</ele>
        <time>2024-07-04T07:46:55.324Z</time>
      </trkpt>
      <trkpt lat="51.91402" lon="4.25244">
        <ele>51.671575</ele>
        <time>2024-07-04T07:46:58.332Z</time>
      </trkpt>
      <trkpt lat="51.91408" lon="4.25229">
        <ele>51.515086</ele>
        <time>2024-07-04T07:47:01.319Z</time>
      </trkpt>
      <trkpt lat="51.91413" lon="4.25214">
        <ele>51.371615</ele>
        <time>2024-07-04T07:47:04.312Z</time>
      </trkpt>
      <trkpt lat="51.91417" lon="4.25199">
        <ele>51.223392</ele>
        <time>2024-07-04T07:47:07.333Z</time>
      </trkpt>
      <trkpt lat="51.91422" lon="4.25184">
        <ele>51.07423</ele>
        <time>2024-07-04T07:47:10.325Z</time>
      </trkpt>
      <trkpt lat="51.91426" lon="4.25168">
        <ele>50.929408</ele>
        <time>2024-07-04T07:47:13.332Z</time>
      </trkpt>
      <trkpt lat="51.91431" lon="4.25154">
        <ele>50.786703</ele>
        <time>2024-07-04T07:47:16.315Z</time>
      </trkpt>
      <trkpt lat="51.91436" lon="4.25139">
        <ele>50.64104</ele>
        <time>2024-07-04T07:47:19.320Z</time>
      </trkpt>
      <trkpt lat="51.91441" lon="4.25124">
        <ele>50.492041</ele>
        <time>2024-07-04T07:47:22.319Z</time>
      </trkpt>
      <trkpt lat="51.91445" lon="4.25108">
        <ele>50.340087</ele>
        <time>2024-07-04T07:47:25.310Z</time>
      </trkpt>
      <trkpt lat="51.9145" lon="4.25091">
        <ele>50.179372</ele>
        <time>2024-07-04T07:47:28.313Z</time>
      </trkpt>
      <trkpt lat="51.91454" lon="4.25076">
        <ele>50.035933</ele>
        <time>2024-07-04T07:47:31.293Z</time>
      </trkpt>
      <trkpt lat="51.9146" lon="4.25062">
        <ele>49.893869</ele>
        <time>2024-07-04T07:47:34.308Z</time>
      </trkpt>
      <trkpt lat="51.91466" lon="4.25049">
        <ele>49.748263</ele>
        <time>2024-07-04T07:47:37.316Z</time>
      </trkpt>
      <trkpt lat="51.91471" lon="4.25035">
        <ele>49.605785</ele>
        <time>2024-07-04T07:47:40.322Z</time>
      </trkpt>
      <trkpt lat="51.91477" lon="4.25022">
        <ele>49.466056</ele>
        <time>2024-07-04T07:47:43.322Z</time>
      </trkpt>
      <trkpt lat="51.91482" lon="4.25009">
        <ele>49.334591</ele>
        <time>2024-07-04T07:47:46.333Z</time>
      </trkpt>
      <trkpt lat="51.91489" lon="4.24994">
        <ele>49.443803</ele>
        <time>2024-07-04T07:47:50.315Z</time>
      </trkpt>
      <trkpt lat="51.91496" lon="4.24983">
        <ele>49.574574</ele>
        <time>2024-07-04T07:47:54.296Z</time>
      </trkpt>
      <trkpt lat="51.91505" lon="4.24991">
        <ele>49.721699</ele>
        <time>2024-07-04T07:47:58.304Z</time>
      </trkpt>
      <trkpt lat="51.91515" lon="4.25003">
        <ele>49.879799</ele>
        <time>2024-07-04T07:48:02.317Z</time>
      </trkpt>
      <trkpt lat="51.91522" lon="4.25013">
        <ele>50.005361</ele>
        <time>2024-07-04T07:48:05.320Z</time>
      </trkpt>
      <trkpt lat="51.9153" lon="4.25022">
        <ele>50.141918</ele>
        <time>2024-07-04T07:48:08.307Z</time>
      </trkpt>
      <trkpt lat="51.91539" lon="4.25031">
        <ele>50.279721</ele>
        <time>2024-07-04T07:48:11.322Z</time>
      </trkpt>
      <trkpt lat="51.91547" lon="4.25041">
        <ele>50.418265</ele>
        <time>2024-07-04T07:48:14.320Z</time>
      </trkpt>
      <trkpt lat="51.91557" lon="4.25052">
        <ele>50.573056</ele>
        <time>2024-07-04T07:48:17.321Z</time>
      </trkpt>
      <trkpt lat="51.91567" lon="4.25063">
        <ele>50.739273</ele>
        <time>2024-07-04T07:48:20.313Z</time>
      </trkpt>
      <trkpt lat="51.91578" lon="4.25074">
        <ele>50.906499</ele>
        <time>2024-07-04T07:48:23.332Z</time>
      </trkpt>
      <trkpt lat="51.91589" lon="4.25084">
        <ele>51.071206</ele>
        <time>2024-07-04T07:48:26.329Z</time>
      </trkpt>
      <trkpt lat="51.91598" lon="4.25094">
        <ele>51.230395</ele>
        <time>2024-07-04T07:48:29.311Z</time>
      </trkpt>
      <trkpt lat="51.91607" lon="4.25104">
        <ele>51.374855</ele>
        <time>2024-07-04T07:48:32.327Z</time>
      </trkpt>
      <trkpt lat="51.91618" lon="4.25112">
        <ele>51.527381</ele>
        <time>2024-07-04T07:48:35.334Z</time>
      </trkpt>
      <trkpt lat="51.91628" lon="4.25118">
        <ele>51.675366</ele>
        <time>2024-07-04T07:48:38.326Z</time>
      </trkpt>
      <trkpt lat="51.91639" lon="4.25122">
        <ele>51.716713</ele>
        <time>2024-07-04T07:48:41.287Z</time>
      </trkpt>
      <trkpt lat="51.91649" lon="4.25123">
        <ele>51.722671</ele>
        <time>2024-07-04T07:48:44.318Z</time>
      </trkpt>
      <trkpt lat="51.91659" lon="4.25121">
        <ele>51.728414</ele>
        <time>2024-07-04T07:48:47.301Z</time>
      </trkpt>
      <trkpt lat="51.91671" lon="4.25117">
        <ele>51.735108</ele>
        <time>2024-07-04T07:48:50.325Z</time>
      </trkpt>
      <trkpt lat="51.91682" lon="4.25113">
        <ele>51.741698</ele>
        <time>2024-07-04T07:48:53.311Z</time>
      </trkpt>
      <trkpt lat="51.91692" lon="4.25106">
        <ele>51.748095</ele>
        <time>2024-07-04T07:48:56.317Z</time>
      </trkpt>
      <trkpt lat="51.91702" lon="4.25095">
        <ele>51.754921</ele>
        <time>2024-07-04T07:48:59.319Z</time>
      </trkpt>
      <trkpt lat="51.91711" lon="4.25081">
        <ele>51.762041</ele>
        <time>2024-07-04T07:49:02.325Z</time>
      </trkpt>
      <trkpt lat="51.91721" lon="4.25065">
        <ele>51.769801</ele>
        <time>2024-07-04T07:49:05.325Z</time>
      </trkpt>
      <trkpt lat="51.91727" lon="4.25054">
        <ele>51.775127</ele>
        <time>2024-07-04T07:49:07.321Z</time>
      </trkpt>
      <trkpt lat="51.91733" lon="4.25036">
        <ele>51.782343</ele>
        <time>2024-07-04T07:49:10.309Z</time>
      </trkpt>
      <trkpt lat="51.91739" lon="4.25021">
        <ele>51.788543</ele>
        <time>2024-07-04T07:49:13.322Z</time>
      </trkpt>
      <trkpt lat="51.91745" lon="4.25007">
        <ele>51.794595</ele>
        <time>2024-07-04T07:49:16.321Z</time>
      </trkpt>
      <trkpt lat="51.91751" lon="4.24993">
        <ele>51.800464</ele>
        <time>2024-07-04T07:49:19.305Z</time>
      </trkpt>
      <trkpt lat="51.91756" lon="4.2498">
        <ele>51.806066</ele>
        <time>2024-07-04T07:49:22.316Z</time>
      </trkpt>
      <trkpt lat="51.91764" lon="4.24965">
        <ele>51.813042</ele>
        <time>2024-07-04T07:49:26.332Z</time>
      </trkpt>
      <trkpt lat="51.91772" lon="4.24953">
        <ele>51.883029</ele>
        <time>2024-07-04T07:49:30.319Z</time>
      </trkpt>
      <trkpt lat="51.9177" lon="4.24939">
        <ele>51.964907</ele>
        <time>2024-07-04T07:49:33.300Z</time>
      </trkpt>
      <trkpt lat="51.91767" lon="4.24923">
        <ele>52.057496</ele>
        <time>2024-07-04T07:49:36.309Z</time>
      </trkpt>
      <trkpt lat="51.91762" lon="4.2491">
        <ele>52.139885</ele>
        <time>2024-07-04T07:49:39.333Z</time>
      </trkpt>
      <trkpt lat="51.91759" lon="4.24896">
        <ele>52.223119</ele>
        <time>2024-07-04T07:49:42.313Z</time>
      </trkpt>
      <trkpt lat="51.91754" lon="4.24878">
        <ele>52.327761</ele>
        <time>2024-07-04T07:49:46.329Z</time>
      </trkpt>
      <trkpt lat="51.91752" lon="4.24861">
        <ele>52.424113</ele>
        <time>2024-07-04T07:49:49.316Z</time>
      </trkpt>
      <trkpt lat="51.91759" lon="4.24846">
        <ele>52.530257</ele>
        <time>2024-07-04T07:49:52.310Z</time>
      </trkpt>
      <trkpt lat="51.91765" lon="4.24833">
        <ele>52.619428</ele>
        <time>2024-07-04T07:49:55.333Z</time>
      </trkpt>
      <trkpt lat="51.91773" lon="4.24817">
        <ele>52.731223</ele>
        <time>2024-07-04T07:49:59.325Z</time>
      </trkpt>
      <trkpt lat="51.91785" lon="4.24809">
        <ele>52.84654</ele>
        <time>2024-07-04T07:50:02.305Z</time>
      </trkpt>
      <trkpt lat="51.91796" lon="4.24806">
        <ele>52.946445</ele>
        <time>2024-07-04T07:50:05.305Z</time>
      </trkpt>
      <trkpt lat="51.91803" lon="4.24793">
        <ele>53.044688</ele>
        <time>2024-07-04T07:50:08.303Z</time>
      </trkpt>
      <trkpt lat="51.91809" lon="4.24777">
        <ele>53.144753</ele>
        <time>2024-07-04T07:50:11.341Z</time>
      </trkpt>
      <trkpt lat="51.91815" lon="4.24764">
        <ele>53.236589</ele>
        <time>2024-07-04T07:50:14.318Z</time>
      </trkpt>
      <trkpt lat="51.91821" lon="4.2475">
        <ele>53.330815</ele>
        <time>2024-07-04T07:50:17.320Z</time>
      </trkpt>
      <trkpt lat="51.91827" lon="4.24735">
        <ele>53.423829</ele>
        <time>2024-07-04T07:50:20.295Z</time>
      </trkpt>
      <trkpt lat="51.91833" lon="4.24721">
        <ele>53.409213</ele>
        <time>2024-07-04T07:50:23.320Z</time>
      </trkpt>
      <trkpt lat="51.91839" lon="4.24707">
        <ele>53.394907</ele>
        <time>2024-07-04T07:50:26.314Z</time>
      </trkpt>
      <trkpt lat="51.91845" lon="4.24693">
        <ele>53.381063</ele>
        <time>2024-07-04T07:50:29.309Z</time>
      </trkpt>
      <trkpt lat="51.9185" lon="4.2468">
        <ele>53.368498</ele>
        <time>2024-07-04T07:50:32.313Z</time>
      </trkpt>
      <trkpt lat="51.91855" lon="4.24668">
        <ele>53.356334</ele>
        <time>2024-07-04T07:50:35.321Z</time>
      </trkpt>
      <trkpt lat="51.91856" lon="4.24651">
        <ele>53.342274</ele>
        <time>2024-07-04T07:50:39.318Z</time>
      </trkpt>
      <trkpt lat="51.91849" lon="4.24639">
        <ele>53.328529</ele>
        <time>2024-07-04T07:50:42.317Z</time>
      </trkpt>
      <trkpt lat="51.9184" lon="4.24628">
        <ele>53.312755</ele>
        <time>2024-07-04T07:50:45.324Z</time>
      </trkpt>
      <trkpt lat="51.91832" lon="4.24611">
        <ele>53.295459</ele>
        <time>2024-07-04T07:50:48.335Z</time>
      </trkpt>
      <trkpt lat="51.91825" lon="4.24593">
        <ele>53.27774</ele>
        <time>2024-07-04T07:50:51.324Z</time>
      </trkpt>
      <trkpt lat="51.91819" lon="4.2458">
        <ele>53.264734</ele>
        <time>2024-07-04T07:50:53.324Z</time>
      </trkpt>
      <trkpt lat="51.91815" lon="4.24567">
        <ele>53.252006</ele>
        <time>2024-07-04T07:50:55.333Z</time>
      </trkpt>
      <trkpt lat="51.9181" lon="4.24555">
        <ele>53.239775</ele>
        <time>2024-07-04T07:50:57.335Z</time>
      </trkpt>
      <trkpt lat="51.91801" lon="4.24539">
        <ele>53.22215</ele>
        <time>2024-07-04T07:51:00.309Z</time>
      </trkpt>
      <trkpt lat="51.91794" lon="4.24528">
        <ele>53.209156</ele>
        <time>2024-07-04T07:51:02.319Z</time>
      </trkpt>
      <trkpt lat="51.91787" lon="4.24517">
        <ele>53.19631</ele>
        <time>2024-07-04T07:51:04.335Z</time>
      </trkpt>
      <trkpt lat="51.91782" lon="4.24505">
        <ele>53.18363</ele>
        <time>2024-07-04T07:51:06.322Z</time>
      </trkpt>
      <trkpt lat="51.91775" lon="4.24493">
        <ele>53.032565</ele>
        <time>2024-07-04T07:51:08.319Z</time>
      </trkpt>
      <trkpt lat="51.91769" lon="4.24482">
        <ele>52.871105</ele>
        <time>2024-07-04T07:51:10.315Z</time>
      </trkpt>
      <trkpt lat="51.91764" lon="4.2447">
        <ele>52.710482</ele>
        <time>2024-07-04T07:51:12.315Z</time>
      </trkpt>
      <trkpt lat="51.91755" lon="4.24455">
        <ele>52.489359</ele>
        <time>2024-07-04T07:51:15.321Z</time>
      </trkpt>
      <trkpt lat="51.91746" lon="4.24441">
        <ele>52.265801</ele>
        <time>2024-07-04T07:51:18.308Z</time>
      </trkpt>
      <trkpt lat="51.91738" lon="4.24426">
        <ele>52.051807</ele>
        <time>2024-07-04T07:51:21.328Z</time>
      </trkpt>
      <trkpt lat="51.9173" lon="4.24413">
        <ele>51.858261</ele>
        <time>2024-07-04T07:51:24.311Z</time>
      </trkpt>
      <trkpt lat="51.91721" lon="4.24406">
        <ele>51.681199</ele>
        <time>2024-07-04T07:51:27.307Z</time>
      </trkpt>
      <trkpt lat="51.91713" lon="4.24398">
        <ele>51.522622</ele>
        <time>2024-07-04T07:51:30.323Z</time>
      </trkpt>
      <trkpt lat="51.91704" lon="4.24386">
        <ele>51.327376</ele>
        <time>2024-07-04T07:51:34.307Z</time>
      </trkpt>
      <trkpt lat="51.91698" lon="4.24374">
        <ele>51.159277</ele>
        <time>2024-07-04T07:51:37.325Z</time>
      </trkpt>
      <trkpt lat="51.91691" lon="4.24362">
        <ele>50.983172</ele>
        <time>2024-07-04T07:51:40.307Z</time>
      </trkpt>
      <trkpt lat="51.91693" lon="4.24347">
        <ele>50.80894</ele>
        <time>2024-07-04T07:51:45.309Z</time>
      </trkpt>
      <trkpt lat="51.91695" lon="4.24345">
        <ele>50.776936</ele>
        <time>2024-07-04T07:51:48.887Z</time>
      </trkpt>
      <trkpt lat="51.91698" lon="4.24325">
        <ele>50.560546</ele>
        <time>2024-07-04T07:52:23.010Z</time>
      </trkpt>
      <trkpt lat="51.91696" lon="4.24347">
        <ele>50.325334</ele>
        <time>2024-07-04T07:52:24.304Z</time>
      </trkpt>
      <trkpt lat="51.91697" lon="4.24332">
        <ele>50.163749</ele>
        <time>2024-07-04T07:52:30.312Z</time>
      </trkpt>
      <trkpt lat="51.91704" lon="4.24316">
        <ele>50.056742</ele>
        <time>2024-07-04T07:52:34.296Z</time>
      </trkpt>
      <trkpt lat="51.9171" lon="4.24304">
        <ele>50.076731</ele>
        <time>2024-07-04T07:52:37.338Z</time>
      </trkpt>
      <trkpt lat="51.91716" lon="4.2429">
        <ele>50.098642</ele>
        <time>2024-07-04T07:52:40.307Z</time>
      </trkpt>
      <trkpt lat="51.91722" lon="4.24277">
        <ele>50.120798</ele>
        <time>2024-07-04T07:52:43.333Z</time>
      </trkpt>
      <trkpt lat="51.91728" lon="4.24263">
        <ele>50.143042</ele>
        <time>2024-07-04T07:52:46.317Z</time>
      </trkpt>
      <trkpt lat="51.91735" lon="4.24249">
        <ele>50.166065</ele>
        <time>2024-07-04T07:52:49.305Z</time>
      </trkpt>
      <trkpt lat="51.91741" lon="4.24235">
        <ele>50.188537</ele>
        <time>2024-07-04T07:52:52.299Z</time>
      </trkpt>
      <trkpt lat="51.91748" lon="4.2422">
        <ele>50.211798</ele>
        <time>2024-07-04T07:52:55.315Z</time>
      </trkpt>
      <trkpt lat="51.91755" lon="4.24206">
        <ele>50.235693</ele>
        <time>2024-07-04T07:52:58.319Z</time>
      </trkpt>
      <trkpt lat="51.91762" lon="4.24191">
        <ele>50.260025</ele>
        <time>2024-07-04T07:53:01.315Z</time>
      </trkpt>
      <trkpt lat="51.91769" lon="4.24177">
        <ele>50.28388</ele>
        <time>2024-07-04T07:53:04.317Z</time>
      </trkpt>
      <trkpt lat="51.91777" lon="4.24163">
        <ele>50.308653</ele>
        <time>2024-07-04T07:53:07.320Z</time>
      </trkpt>
      <trkpt lat="51.91784" lon="4.24148">
        <ele>50.333176</ele>
        <time>2024-07-04T07:53:10.339Z</time>
      </trkpt>
      <trkpt lat="51.91792" lon="4.24134">
        <ele>50.357847</ele>
        <time>2024-07-04T07:53:13.338Z</time>
      </trkpt>
      <trkpt lat="51.918" lon="4.2412">
        <ele>50.383094</ele>
        <time>2024-07-04T07:53:16.330Z</time>
      </trkpt>
      <trkpt lat="51.91808" lon="4.24107">
        <ele>50.40586</ele>
        <time>2024-07-04T07:53:19.321Z</time>
      </trkpt>
      <trkpt lat="51.91815" lon="4.24095">
        <ele>50.425101</ele>
        <time>2024-07-04T07:53:22.316Z</time>
      </trkpt>
      <trkpt lat="51.91821" lon="4.24083">
        <ele>50.433081</ele>
        <time>2024-07-04T07:53:25.310Z</time>
      </trkpt>
      <trkpt lat="51.91828" lon="4.2407">
        <ele>50.441629</ele>
        <time>2024-07-04T07:53:28.301Z</time>
      </trkpt>
      <trkpt lat="51.91835" lon="4.24057">
        <ele>50.450539</ele>
        <time>2024-07-04T07:53:31.315Z</time>
      </trkpt>
      <trkpt lat="51.91843" lon="4.24044">
        <ele>50.459984</ele>
        <time>2024-07-04T07:53:34.331Z</time>
      </trkpt>
      <trkpt lat="51.91851" lon="4.2403">
        <ele>50.4695</ele>
        <time>2024-07-04T07:53:37.324Z</time>
      </trkpt>
      <trkpt lat="51.91859" lon="4.24017">
        <ele>50.478639</ele>
        <time>2024-07-04T07:53:40.317Z</time>
      </trkpt>
      <trkpt lat="51.91868" lon="4.24004">
        <ele>50.487978</ele>
        <time>2024-07-04T07:53:43.306Z</time>
      </trkpt>
      <trkpt lat="51.91876" lon="4.23991">
        <ele>50.497617</ele>
        <time>2024-07-04T07:53:46.313Z</time>
      </trkpt>
      <trkpt lat="51.91884" lon="4.23978">
        <ele>50.506857</ele>
        <time>2024-07-04T07:53:49.331Z</time>
      </trkpt>
      <trkpt lat="51.91892" lon="4.23966">
        <ele>50.515591</ele>
        <time>2024-07-04T07:53:52.312Z</time>
      </trkpt>
      <trkpt lat="51.91899" lon="4.23954">
        <ele>50.524159</ele>
        <time>2024-07-04T07:53:55.322Z</time>
      </trkpt>
      <trkpt lat="51.91907" lon="4.23942">
        <ele>50.532483</ele>
        <time>2024-07-04T07:53:58.315Z</time>
      </trkpt>
      <trkpt lat="51.91915" lon="4.23929">
        <ele>50.541874</ele>
        <time>2024-07-04T07:54:01.330Z</time>
      </trkpt>
      <trkpt lat="51.91923" lon="4.23917">
        <ele>50.550686</ele>
        <time>2024-07-04T07:54:04.295Z</time>
      </trkpt>
      <trkpt lat="51.91931" lon="4.23904">
        <ele>50.559838</ele>
        <time>2024-07-04T07:54:07.292Z</time>
      </trkpt>
      <trkpt lat="51.9194" lon="4.23891">
        <ele>50.569536</ele>
        <time>2024-07-04T07:54:10.308Z</time>
      </trkpt>
      <trkpt lat="51.91948" lon="4.23878">
        <ele>50.552868</ele>
        <time>2024-07-04T07:54:13.325Z</time>
      </trkpt>
      <trkpt lat="51.91958" lon="4.23866">
        <ele>50.533724</ele>
        <time>2024-07-04T07:54:16.325Z</time>
      </trkpt>
      <trkpt lat="51.91966" lon="4.23852">
        <ele>50.514264</ele>
        <time>2024-07-04T07:54:19.319Z</time>
      </trkpt>
      <trkpt lat="51.91975" lon="4.2384">
        <ele>50.495683</ele>
        <time>2024-07-04T07:54:22.343Z</time>
      </trkpt>
      <trkpt lat="51.91984" lon="4.23829">
        <ele>50.477412</ele>
        <time>2024-07-04T07:54:25.314Z</time>
      </trkpt>
      <trkpt lat="51.91992" lon="4.23818">
        <ele>50.459706</ele>
        <time>2024-07-04T07:54:28.312Z</time>
      </trkpt>
      <trkpt lat="51.92001" lon="4.23807">
        <ele>50.442382</ele>
        <time>2024-07-04T07:54:31.314Z</time>
      </trkpt>
      <trkpt lat="51.92009" lon="4.23797">
        <ele>50.425422</ele>
        <time>2024-07-04T07:54:34.331Z</time>
      </trkpt>
      <trkpt lat="51.92017" lon="4.23787">
        <ele>50.408842</ele>
        <time>2024-07-04T07:54:37.296Z</time>
      </trkpt>
      <trkpt lat="51.92026" lon="4.23776">
        <ele>50.391195</ele>
        <time>2024-07-04T07:54:40.329Z</time>
      </trkpt>
      <trkpt lat="51.92035" lon="4.23765">
        <ele>50.372825</ele>
        <time>2024-07-04T07:54:43.324Z</time>
      </trkpt>
      <trkpt lat="51.92044" lon="4.23755">
        <ele>50.355247</ele>
        <time>2024-07-04T07:54:46.317Z</time>
      </trkpt>
      <trkpt lat="51.92052" lon="4.23745">
        <ele>50.338862</ele>
        <time>2024-07-04T07:54:49.327Z</time>
      </trkpt>
      <trkpt lat="51.9206" lon="4.23734">
        <ele>50.321722</ele>
        <time>2024-07-04T07:54:52.319Z</time>
      </trkpt>
      <trkpt lat="51.92069" lon="4.23724">
        <ele>50.303804</ele>
        <time>2024-07-04T07:54:55.328Z</time>
      </trkpt>
      <trkpt lat="51.92079" lon="4.23712">
        <ele>50.285032</ele>
        <time>2024-07-04T07:54:58.311Z</time>
      </trkpt>
      <trkpt lat="51.92087" lon="4.23701">
        <ele>50.243858</ele>
        <time>2024-07-04T07:55:01.322Z</time>
      </trkpt>
      <trkpt lat="51.92096" lon="4.23692">
        <ele>50.195692</ele>
        <time>2024-07-04T07:55:04.326Z</time>
      </trkpt>
      <trkpt lat="51.92101" lon="4.23688">
        <ele>50.171114</ele>
        <time>2024-07-04T07:55:09.996Z</time>
      </trkpt>
      <trkpt lat="51.92221" lon="4.23551">
        <ele>49.484268</ele>
        <time>2024-07-04T07:56:27.334Z</time>
      </trkpt>
      <trkpt lat="51.9223" lon="4.23541">
        <ele>49.441138</ele>
        <time>2024-07-04T07:56:30.303Z</time>
      </trkpt>
      <trkpt lat="51.92241" lon="4.23531">
        <ele>49.465469</ele>
        <time>2024-07-04T07:56:33.321Z</time>
      </trkpt>
      <trkpt lat="51.9225" lon="4.2352">
        <ele>49.488723</ele>
        <time>2024-07-04T07:56:36.295Z</time>
      </trkpt>
      <trkpt lat="51.9226" lon="4.2351">
        <ele>49.512326</ele>
        <time>2024-07-04T07:56:39.317Z</time>
      </trkpt>
      <trkpt lat="51.9227" lon="4.23499">
        <ele>49.535795</ele>
        <time>2024-07-04T07:56:42.313Z</time>
      </trkpt>
      <trkpt lat="51.9228" lon="4.23491">
        <ele>49.558631</ele>
        <time>2024-07-04T07:56:45.321Z</time>
      </trkpt>
      <trkpt lat="51.92289" lon="4.2348">
        <ele>49.580926</ele>
        <time>2024-07-04T07:56:48.285Z</time>
      </trkpt>
      <trkpt lat="51.92299" lon="4.23469">
        <ele>49.605676</ele>
        <time>2024-07-04T07:56:51.324Z</time>
      </trkpt>
      <trkpt lat="51.92309" lon="4.23458">
        <ele>49.630228</ele>
        <time>2024-07-04T07:56:54.300Z</time>
      </trkpt>
      <trkpt lat="51.92319" lon="4.23448">
        <ele>49.653424</ele>
        <time>2024-07-04T07:56:57.315Z</time>
      </trkpt>
      <trkpt lat="51.92328" lon="4.23438">
        <ele>49.675449</ele>
        <time>2024-07-04T07:57:00.324Z</time>
      </trkpt>
      <trkpt lat="51.92338" lon="4.23427">
        <ele>49.699222</ele>
        <time>2024-07-04T07:57:03.321Z</time>
      </trkpt>
      <trkpt lat="51.92347" lon="4.23417">
        <ele>49.721483</ele>
        <time>2024-07-04T07:57:06.324Z</time>
      </trkpt>
      <trkpt lat="51.92357" lon="4.23407">
        <ele>49.746306</ele>
        <time>2024-07-04T07:57:09.326Z</time>
      </trkpt>
      <trkpt lat="51.92367" lon="4.23397">
        <ele>49.769927</ele>
        <time>2024-07-04T07:57:12.323Z</time>
      </trkpt>
      <trkpt lat="51.92376" lon="4.23387">
        <ele>49.791952</ele>
        <time>2024-07-04T07:57:15.315Z</time>
      </trkpt>
      <trkpt lat="51.92386" lon="4.23377">
        <ele>49.782249</ele>
        <time>2024-07-04T07:57:18.318Z</time>
      </trkpt>
      <trkpt lat="51.92395" lon="4.23367">
        <ele>49.756123</ele>
        <time>2024-07-04T07:57:21.316Z</time>
      </trkpt>
      <trkpt lat="51.92404" lon="4.23358">
        <ele>49.730741</ele>
        <time>2024-07-04T07:57:24.323Z</time>
      </trkpt>
      <trkpt lat="51.92414" lon="4.23348">
        <ele>49.702704</ele>
        <time>2024-07-04T07:57:27.320Z</time>
      </trkpt>
      <trkpt lat="51.92423" lon="4.23338">
        <ele>49.676264</ele>
        <time>2024-07-04T07:57:30.316Z</time>
      </trkpt>
      <trkpt lat="51.92432" lon="4.23327">
        <ele>49.65013</ele>
        <time>2024-07-04T07:57:33.316Z</time>
      </trkpt>
      <trkpt lat="51.92441" lon="4.23318">
        <ele>49.625584</ele>
        <time>2024-07-04T07:57:36.309Z</time>
      </trkpt>
      <trkpt lat="51.9245" lon="4.23309">
        <ele>49.599385</ele>
        <time>2024-07-04T07:57:39.314Z</time>
      </trkpt>
      <trkpt lat="51.92459" lon="4.23299">
        <ele>49.574034</ele>
        <time>2024-07-04T07:57:42.308Z</time>
      </trkpt>
      <trkpt lat="51.92468" lon="4.2329">
        <ele>49.548096</ele>
        <time>2024-07-04T07:57:45.306Z</time>
      </trkpt>
      <trkpt lat="51.92478" lon="4.23279">
        <ele>49.519711</ele>
        <time>2024-07-04T07:57:48.321Z</time>
      </trkpt>
      <trkpt lat="51.92488" lon="4.23269">
        <ele>49.491882</ele>
        <time>2024-07-04T07:57:51.319Z</time>
      </trkpt>
      <trkpt lat="51.92497" lon="4.23259">
        <ele>49.466</ele>
        <time>2024-07-04T07:57:54.315Z</time>
      </trkpt>
      <trkpt lat="51.92506" lon="4.23249">
        <ele>49.441181</ele>
        <time>2024-07-04T07:57:57.318Z</time>
      </trkpt>
      <trkpt lat="51.92516" lon="4.23239">
        <ele>49.413422</ele>
        <time>2024-07-04T07:58:00.317Z</time>
      </trkpt>
      <trkpt lat="51.92525" lon="4.2323">
        <ele>49.386623</ele>
        <time>2024-07-04T07:58:03.323Z</time>
      </trkpt>
      <trkpt lat="51.92535" lon="4.23219">
        <ele>49.382449</ele>
        <time>2024-07-04T07:58:06.308Z</time>
      </trkpt>
      <trkpt lat="51.92545" lon="4.23209">
        <ele>49.402009</ele>
        <time>2024-07-04T07:58:09.318Z</time>
      </trkpt>
      <trkpt lat="51.92555" lon="4.23198">
        <ele>49.420815</ele>
        <time>2024-07-04T07:58:12.320Z</time>
      </trkpt>
      <trkpt lat="51.92564" lon="4.23188">
        <ele>49.438525</ele>
        <time>2024-07-04T07:58:15.321Z</time>
      </trkpt>
      <trkpt lat="51.92573" lon="4.23178">
        <ele>49.456196</ele>
        <time>2024-07-04T07:58:18.308Z</time>
      </trkpt>
      <trkpt lat="51.92583" lon="4.23168">
        <ele>49.475599</ele>
        <time>2024-07-04T07:58:21.323Z</time>
      </trkpt>
      <trkpt lat="51.92594" lon="4.23157">
        <ele>49.495562</ele>
        <time>2024-07-04T07:58:24.324Z</time>
      </trkpt>
      <trkpt lat="51.92604" lon="4.23148">
        <ele>49.514375</ele>
        <time>2024-07-04T07:58:27.318Z</time>
      </trkpt>
      <trkpt lat="51.92613" lon="4.23137">
        <ele>49.533012</ele>
        <time>2024-07-04T07:58:30.311Z</time>
      </trkpt>
      <trkpt lat="51.92623" lon="4.23127">
        <ele>49.550789</ele>
        <time>2024-07-04T07:58:33.324Z</time>
      </trkpt>
      <trkpt lat="51.92632" lon="4.23117">
        <ele>49.568876</ele>
        <time>2024-07-04T07:58:36.325Z</time>
      </trkpt>
      <trkpt lat="51.92642" lon="4.23106">
        <ele>49.58787</ele>
        <time>2024-07-04T07:58:39.313Z</time>
      </trkpt>
      <trkpt lat="51.92651" lon="4.23096">
        <ele>49.606214</ele>
        <time>2024-07-04T07:58:42.317Z</time>
      </trkpt>
      <trkpt lat="51.9266" lon="4.23086">
        <ele>49.624085</ele>
        <time>2024-07-04T07:58:45.321Z</time>
      </trkpt>
      <trkpt lat="51.9267" lon="4.23076">
        <ele>49.64311</ele>
        <time>2024-07-04T07:58:48.319Z</time>
      </trkpt>
      <trkpt lat="51.9268" lon="4.23066">
        <ele>49.661319</ele>
        <time>2024-07-04T07:58:51.318Z</time>
      </trkpt>
      <trkpt lat="51.92689" lon="4.23056">
        <ele>49.645209</ele>
        <time>2024-07-04T07:58:54.316Z</time>
      </trkpt>
      <trkpt lat="51.92698" lon="4.23046">
        <ele>49.626774</ele>
        <time>2024-07-04T07:58:57.319Z</time>
      </trkpt>
      <trkpt lat="51.92707" lon="4.23038">
        <ele>49.609282</ele>
        <time>2024-07-04T07:59:00.314Z</time>
      </trkpt>
      <trkpt lat="51.92715" lon="4.23029">
        <ele>49.591507</ele>
        <time>2024-07-04T07:59:03.314Z</time>
      </trkpt>
      <trkpt lat="51.92724" lon="4.23023">
        <ele>49.575805</ele>
        <time>2024-07-04T07:59:06.299Z</time>
      </trkpt>
      <trkpt lat="51.92733" lon="4.23015">
        <ele>49.55763</ele>
        <time>2024-07-04T07:59:10.300Z</time>
      </trkpt>
      <trkpt lat="51.92742" lon="4.23005">
        <ele>49.539921</ele>
        <time>2024-07-04T07:59:14.321Z</time>
      </trkpt>
      <trkpt lat="51.9275" lon="4.22998">
        <ele>49.524383</ele>
        <time>2024-07-04T07:59:19.319Z</time>
      </trkpt>
      <trkpt lat="51.92756" lon="4.22993">
        <ele>49.511961</ele>
        <time>2024-07-04T07:59:31.665Z</time>
      </trkpt>
      <trkpt lat="51.92763" lon="4.22981">
        <ele>49.494983</ele>
        <time>2024-07-04T08:13:37.309Z</time>
      </trkpt>
      <trkpt lat="51.92772" lon="4.2297">
        <ele>49.476372</ele>
        <time>2024-07-04T08:13:45.323Z</time>
      </trkpt>
      <trkpt lat="51.92779" lon="4.22962">
        <ele>49.460513</ele>
        <time>2024-07-04T08:13:49.303Z</time>
      </trkpt>
      <trkpt lat="51.92787" lon="4.22952">
        <ele>49.443467</ele>
        <time>2024-07-04T08:13:53.313Z</time>
      </trkpt>
      <trkpt lat="51.92796" lon="4.22943">
        <ele>49.425059</ele>
        <time>2024-07-04T08:13:57.306Z</time>
      </trkpt>
      <trkpt lat="51.92805" lon="4.22933">
        <ele>49.406388</ele>
        <time>2024-07-04T08:14:01.323Z</time>
      </trkpt>
      <trkpt lat="51.92814" lon="4.22922">
        <ele>49.38729</ele>
        <time>2024-07-04T08:14:05.313Z</time>
      </trkpt>
      <trkpt lat="51.92823" lon="4.22911">
        <ele>49.368746</ele>
        <time>2024-07-04T08:14:09.317Z</time>
      </trkpt>
      <trkpt lat="51.92832" lon="4.22901">
        <ele>49.362044</ele>
        <time>2024-07-04T08:14:13.321Z</time>
      </trkpt>
      <trkpt lat="51.92841" lon="4.22892">
        <ele>49.391443</ele>
        <time>2024-07-04T08:14:17.316Z</time>
      </trkpt>
      <trkpt lat="51.9285" lon="4.22882">
        <ele>49.419138</ele>
        <time>2024-07-04T08:14:21.321Z</time>
      </trkpt>
      <trkpt lat="51.92858" lon="4.22874">
        <ele>49.444674</ele>
        <time>2024-07-04T08:14:26.317Z</time>
      </trkpt>
      <trkpt lat="51.92866" lon="4.22867">
        <ele>49.468888</ele>
        <time>2024-07-04T08:14:32.320Z</time>
      </trkpt>
      <trkpt lat="51.92874" lon="4.22856">
        <ele>49.495329</ele>
        <time>2024-07-04T08:18:59.309Z</time>
      </trkpt>
      <trkpt lat="51.92882" lon="4.22847">
        <ele>49.521378</ele>
        <time>2024-07-04T08:19:06.302Z</time>
      </trkpt>
      <trkpt lat="51.92889" lon="4.22837">
        <ele>49.547491</ele>
        <time>2024-07-04T08:19:12.323Z</time>
      </trkpt>
      <trkpt lat="51.92897" lon="4.22825">
        <ele>49.57572</ele>
        <time>2024-07-04T08:19:18.314Z</time>
      </trkpt>
      <trkpt lat="51.92905" lon="4.22815">
        <ele>49.601518</ele>
        <time>2024-07-04T08:19:22.319Z</time>
      </trkpt>
      <trkpt lat="51.92914" lon="4.22802">
        <ele>49.633742</ele>
        <time>2024-07-04T08:19:26.329Z</time>
      </trkpt>
      <trkpt lat="51.92921" lon="4.22791">
        <ele>49.660003</ele>
        <time>2024-07-04T08:19:29.323Z</time>
      </trkpt>
      <trkpt lat="51.92928" lon="4.22781">
        <ele>49.685494</ele>
        <time>2024-07-04T08:19:32.313Z</time>
      </trkpt>
      <trkpt lat="51.92935" lon="4.22771">
        <ele>49.710508</ele>
        <time>2024-07-04T08:19:35.317Z</time>
      </trkpt>
      <trkpt lat="51.92943" lon="4.22759">
        <ele>49.737296</ele>
        <time>2024-07-04T08:19:38.317Z</time>
      </trkpt>
      <trkpt lat="51.92952" lon="4.22749">
        <ele>49.766192</ele>
        <time>2024-07-04T08:19:41.312Z</time>
      </trkpt>
      <trkpt lat="51.9296" lon="4.22736">
        <ele>49.795479</ele>
        <time>2024-07-04T08:19:44.315Z</time>
      </trkpt>
      <trkpt lat="51.92968" lon="4.22725">
        <ele>49.824668</ele>
        <time>2024-07-04T08:19:47.318Z</time>
      </trkpt>
      <trkpt lat="51.92976" lon="4.22713">
        <ele>49.929695</ele>
        <time>2024-07-04T08:19:50.325Z</time>
      </trkpt>
      <trkpt lat="51.92984" lon="4.22701">
        <ele>50.045065</ele>
        <time>2024-07-04T08:19:53.326Z</time>
      </trkpt>
      <trkpt lat="51.92991" lon="4.22691">
        <ele>50.149988</ele>
        <time>2024-07-04T08:19:56.311Z</time>
      </trkpt>
      <trkpt lat="51.92998" lon="4.2268">
        <ele>50.25635</ele>
        <time>2024-07-04T08:19:59.330Z</time>
      </trkpt>
      <trkpt lat="51.93006" lon="4.22669">
        <ele>50.370109</ele>
        <time>2024-07-04T08:20:02.311Z</time>
      </trkpt>
      <trkpt lat="51.93014" lon="4.22657">
        <ele>50.489659</ele>
        <time>2024-07-04T08:20:05.322Z</time>
      </trkpt>
      <trkpt lat="51.93022" lon="4.22646">
        <ele>50.610379</ele>
        <time>2024-07-04T08:20:08.307Z</time>
      </trkpt>
      <trkpt lat="51.9303" lon="4.22633">
        <ele>50.734907</ele>
        <time>2024-07-04T08:20:11.322Z</time>
      </trkpt>
      <trkpt lat="51.93039" lon="4.22621">
        <ele>50.86001</ele>
        <time>2024-07-04T08:20:14.321Z</time>
      </trkpt>
      <trkpt lat="51.93047" lon="4.22608">
        <ele>50.985777</ele>
        <time>2024-07-04T08:20:17.313Z</time>
      </trkpt>
      <trkpt lat="51.93056" lon="4.22595">
        <ele>51.114082</ele>
        <time>2024-07-04T08:20:20.300Z</time>
      </trkpt>
      <trkpt lat="51.93064" lon="4.22582">
        <ele>51.240943</ele>
        <time>2024-07-04T08:20:23.318Z</time>
      </trkpt>
      <trkpt lat="51.93072" lon="4.22568">
        <ele>51.367428</ele>
        <time>2024-07-04T08:20:26.329Z</time>
      </trkpt>
      <trkpt lat="51.93079" lon="4.22556">
        <ele>51.488765</ele>
        <time>2024-07-04T08:20:29.314Z</time>
      </trkpt>
      <trkpt lat="51.93087" lon="4.22544">
        <ele>51.607728</ele>
        <time>2024-07-04T08:20:32.312Z</time>
      </trkpt>
      <trkpt lat="51.93095" lon="4.22532">
        <ele>51.728643</ele>
        <time>2024-07-04T08:20:35.326Z</time>
      </trkpt>
      <trkpt lat="51.93103" lon="4.22519">
        <ele>51.819224</ele>
        <time>2024-07-04T08:20:38.323Z</time>
      </trkpt>
      <trkpt lat="51.93111" lon="4.22506">
        <ele>51.838219</ele>
        <time>2024-07-04T08:20:41.315Z</time>
      </trkpt>
      <trkpt lat="51.93119" lon="4.22492">
        <ele>51.857801</ele>
        <time>2024-07-04T08:20:44.315Z</time>
      </trkpt>
      <trkpt lat="51.93127" lon="4.2248">
        <ele>51.877372</ele>
        <time>2024-07-04T08:20:47.329Z</time>
      </trkpt>
      <trkpt lat="51.93135" lon="4.22466">
        <ele>51.897683</ele>
        <time>2024-07-04T08:20:50.318Z</time>
      </trkpt>
      <trkpt lat="51.93143" lon="4.22453">
        <ele>51.917377</ele>
        <time>2024-07-04T08:20:53.313Z</time>
      </trkpt>
      <trkpt lat="51.93152" lon="4.22437">
        <ele>51.939099</ele>
        <time>2024-07-04T08:20:56.317Z</time>
      </trkpt>
      <trkpt lat="51.9316" lon="4.22423">
        <ele>51.960084</ele>
        <time>2024-07-04T08:20:59.331Z</time>
      </trkpt>
      <trkpt lat="51.93169" lon="4.22408">
        <ele>51.981919</ele>
        <time>2024-07-04T08:21:02.323Z</time>
      </trkpt>
      <trkpt lat="51.93177" lon="4.22393">
        <ele>52.003248</ele>
        <time>2024-07-04T08:21:05.316Z</time>
      </trkpt>
      <trkpt lat="51.93185" lon="4.22379">
        <ele>52.023316</ele>
        <time>2024-07-04T08:21:08.301Z</time>
      </trkpt>
      <trkpt lat="51.93193" lon="4.22364">
        <ele>52.044731</ele>
        <time>2024-07-04T08:21:11.322Z</time>
      </trkpt>
      <trkpt lat="51.93202" lon="4.2235">
        <ele>52.066227</ele>
        <time>2024-07-04T08:21:14.297Z</time>
      </trkpt>
      <trkpt lat="51.93211" lon="4.22335">
        <ele>52.087868</ele>
        <time>2024-07-04T08:21:17.304Z</time>
      </trkpt>
      <trkpt lat="51.93219" lon="4.2232">
        <ele>52.108657</ele>
        <time>2024-07-04T08:21:20.307Z</time>
      </trkpt>
      <trkpt lat="51.93227" lon="4.22306">
        <ele>52.111432</ele>
        <time>2024-07-04T08:21:23.310Z</time>
      </trkpt>
      <trkpt lat="51.93235" lon="4.22291">
        <ele>52.079788</ele>
        <time>2024-07-04T08:21:26.321Z</time>
      </trkpt>
      <trkpt lat="51.93243" lon="4.22277">
        <ele>52.049629</ele>
        <time>2024-07-04T08:21:29.323Z</time>
      </trkpt>
      <trkpt lat="51.93251" lon="4.22262">
        <ele>52.019544</ele>
        <time>2024-07-04T08:21:32.304Z</time>
      </trkpt>
      <trkpt lat="51.93257" lon="4.22248">
        <ele>51.991301</ele>
        <time>2024-07-04T08:21:35.292Z</time>
      </trkpt>
      <trkpt lat="51.93264" lon="4.22236">
        <ele>51.964766</ele>
        <time>2024-07-04T08:21:38.316Z</time>
      </trkpt>
      <trkpt lat="51.93271" lon="4.22223">
        <ele>51.939047</ele>
        <time>2024-07-04T08:21:41.304Z</time>
      </trkpt>
      <trkpt lat="51.93277" lon="4.2221">
        <ele>51.913159</ele>
        <time>2024-07-04T08:21:44.317Z</time>
      </trkpt>
      <trkpt lat="51.93284" lon="4.22199">
        <ele>51.886376</ele>
        <time>2024-07-04T08:21:47.321Z</time>
      </trkpt>
      <trkpt lat="51.93292" lon="4.22184">
        <ele>51.857079</ele>
        <time>2024-07-04T08:21:50.324Z</time>
      </trkpt>
      <trkpt lat="51.93299" lon="4.2217">
        <ele>51.827414</ele>
        <time>2024-07-04T08:21:53.317Z</time>
      </trkpt>
      <trkpt lat="51.93306" lon="4.22156">
        <ele>51.798764</ele>
        <time>2024-07-04T08:21:56.313Z</time>
      </trkpt>
      <trkpt lat="51.93313" lon="4.22142">
        <ele>51.769205</ele>
        <time>2024-07-04T08:21:59.311Z</time>
      </trkpt>
      <trkpt lat="51.93321" lon="4.22128">
        <ele>51.741107</ele>
        <time>2024-07-04T08:22:02.323Z</time>
      </trkpt>
      <trkpt lat="51.93328" lon="4.22115">
        <ele>51.712428</ele>
        <time>2024-07-04T08:22:05.319Z</time>
      </trkpt>
      <trkpt lat="51.93336" lon="4.221">
        <ele>51.682028</ele>
        <time>2024-07-04T08:22:08.315Z</time>
      </trkpt>
      <trkpt lat="51.93343" lon="4.22087">
        <ele>51.65656</ele>
        <time>2024-07-04T08:22:11.321Z</time>
      </trkpt>
      <trkpt lat="51.93349" lon="4.22073">
        <ele>51.638654</ele>
        <time>2024-07-04T08:22:14.325Z</time>
      </trkpt>
      <trkpt lat="51.93355" lon="4.22059">
        <ele>51.620816</ele>
        <time>2024-07-04T08:22:17.333Z</time>
      </trkpt>
      <trkpt lat="51.93361" lon="4.22045">
        <ele>51.602768</ele>
        <time>2024-07-04T08:22:20.302Z</time>
      </trkpt>
      <trkpt lat="51.93368" lon="4.22032">
        <ele>51.585543</ele>
        <time>2024-07-04T08:22:23.314Z</time>
      </trkpt>
      <trkpt lat="51.93374" lon="4.22018">
        <ele>51.567567</ele>
        <time>2024-07-04T08:22:26.319Z</time>
      </trkpt>
      <trkpt lat="51.93381" lon="4.22005">
        <ele>51.549938</ele>
        <time>2024-07-04T08:22:29.310Z</time>
      </trkpt>
      <trkpt lat="51.93388" lon="4.21991">
        <ele>51.530743</ele>
        <time>2024-07-04T08:22:32.317Z</time>
      </trkpt>
      <trkpt lat="51.93395" lon="4.21977">
        <ele>51.512001</ele>
        <time>2024-07-04T08:22:35.315Z</time>
      </trkpt>
      <trkpt lat="51.93402" lon="4.21963">
        <ele>51.493684</ele>
        <time>2024-07-04T08:22:38.315Z</time>
      </trkpt>
      <trkpt lat="51.93409" lon="4.21949">
        <ele>51.475287</ele>
        <time>2024-07-04T08:22:41.308Z</time>
      </trkpt>
      <trkpt lat="51.93416" lon="4.21935">
        <ele>51.457466</ele>
        <time>2024-07-04T08:22:44.309Z</time>
      </trkpt>
      <trkpt lat="51.93422" lon="4.21921">
        <ele>51.438876</ele>
        <time>2024-07-04T08:22:47.327Z</time>
      </trkpt>
      <trkpt lat="51.93429" lon="4.21907">
        <ele>51.420796</ele>
        <time>2024-07-04T08:22:50.307Z</time>
      </trkpt>
      <trkpt lat="51.93436" lon="4.21892">
        <ele>51.401744</ele>
        <time>2024-07-04T08:22:53.315Z</time>
      </trkpt>
      <trkpt lat="51.93442" lon="4.21878">
        <ele>51.383026</ele>
        <time>2024-07-04T08:22:56.303Z</time>
      </trkpt>
      <trkpt lat="51.93449" lon="4.21863">
        <ele>51.364141</ele>
        <time>2024-07-04T08:22:59.323Z</time>
      </trkpt>
      <trkpt lat="51.93455" lon="4.21849">
        <ele>51.358589</ele>
        <time>2024-07-04T08:23:02.320Z</time>
      </trkpt>
      <trkpt lat="51.93461" lon="4.21835">
        <ele>51.358777</ele>
        <time>2024-07-04T08:23:05.315Z</time>
      </trkpt>
      <trkpt lat="51.93467" lon="4.21821">
        <ele>51.358968</ele>
        <time>2024-07-04T08:23:08.310Z</time>
      </trkpt>
      <trkpt lat="51.93473" lon="4.21808">
        <ele>51.359152</ele>
        <time>2024-07-04T08:23:11.319Z</time>
      </trkpt>
      <trkpt lat="51.93479" lon="4.21795">
        <ele>51.359325</ele>
        <time>2024-07-04T08:23:14.305Z</time>
      </trkpt>
      <trkpt lat="51.93484" lon="4.21782">
        <ele>51.359493</ele>
        <time>2024-07-04T08:23:17.319Z</time>
      </trkpt>
      <trkpt lat="51.9349" lon="4.2177">
        <ele>51.359668</ele>
        <time>2024-07-04T08:23:20.304Z</time>
      </trkpt>
      <trkpt lat="51.93496" lon="4.21757">
        <ele>51.359845</ele>
        <time>2024-07-04T08:23:23.321Z</time>
      </trkpt>
      <trkpt lat="51.93502" lon="4.21744">
        <ele>51.36003</ele>
        <time>2024-07-04T08:23:26.318Z</time>
      </trkpt>
      <trkpt lat="51.93508" lon="4.21729">
        <ele>51.360225</ele>
        <time>2024-07-04T08:23:29.312Z</time>
      </trkpt>
      <trkpt lat="51.93514" lon="4.21714">
        <ele>51.360425</ele>
        <time>2024-07-04T08:23:32.312Z</time>
      </trkpt>
      <trkpt lat="51.9352" lon="4.217">
        <ele>51.360619</ele>
        <time>2024-07-04T08:23:35.320Z</time>
      </trkpt>
      <trkpt lat="51.93527" lon="4.21686">
        <ele>51.360815</ele>
        <time>2024-07-04T08:23:38.312Z</time>
      </trkpt>
      <trkpt lat="51.93534" lon="4.21672">
        <ele>51.361013</ele>
        <time>2024-07-04T08:23:41.323Z</time>
      </trkpt>
      <trkpt lat="51.93539" lon="4.21657">
        <ele>51.361204</ele>
        <time>2024-07-04T08:23:44.307Z</time>
      </trkpt>
      <trkpt lat="51.93545" lon="4.21645">
        <ele>51.361375</ele>
        <time>2024-07-04T08:23:47.311Z</time>
      </trkpt>
      <trkpt lat="51.9355" lon="4.21632">
        <ele>51.361546</ele>
        <time>2024-07-04T08:23:50.322Z</time>
      </trkpt>
      <trkpt lat="51.93555" lon="4.21619">
        <ele>51.364209</ele>
        <time>2024-07-04T08:23:53.318Z</time>
      </trkpt>
      <trkpt lat="51.93559" lon="4.21605">
        <ele>51.391338</ele>
        <time>2024-07-04T08:23:56.308Z</time>
      </trkpt>
      <trkpt lat="51.93565" lon="4.21592">
        <ele>51.418917</ele>
        <time>2024-07-04T08:23:59.328Z</time>
      </trkpt>
      <trkpt lat="51.93571" lon="4.21578">
        <ele>51.447395</ele>
        <time>2024-07-04T08:24:02.314Z</time>
      </trkpt>
      <trkpt lat="51.93576" lon="4.21564">
        <ele>51.476287</ele>
        <time>2024-07-04T08:24:05.307Z</time>
      </trkpt>
      <trkpt lat="51.93581" lon="4.2155">
        <ele>51.50489</ele>
        <time>2024-07-04T08:24:08.311Z</time>
      </trkpt>
      <trkpt lat="51.93587" lon="4.21536">
        <ele>51.533784</ele>
        <time>2024-07-04T08:24:11.314Z</time>
      </trkpt>
      <trkpt lat="51.93593" lon="4.21521">
        <ele>51.564743</ele>
        <time>2024-07-04T08:24:14.319Z</time>
      </trkpt>
      <trkpt lat="51.93599" lon="4.21506">
        <ele>51.594966</ele>
        <time>2024-07-04T08:24:17.316Z</time>
      </trkpt>
      <trkpt lat="51.93605" lon="4.2149">
        <ele>51.627839</ele>
        <time>2024-07-04T08:24:20.310Z</time>
      </trkpt>
      <trkpt lat="51.93611" lon="4.21474">
        <ele>51.661601</ele>
        <time>2024-07-04T08:24:23.317Z</time>
      </trkpt>
      <trkpt lat="51.93617" lon="4.21458">
        <ele>51.693189</ele>
        <time>2024-07-04T08:24:26.328Z</time>
      </trkpt>
      <trkpt lat="51.93622" lon="4.21443">
        <ele>51.723419</ele>
        <time>2024-07-04T08:24:29.314Z</time>
      </trkpt>
      <trkpt lat="51.93628" lon="4.21428">
        <ele>51.753785</ele>
        <time>2024-07-04T08:24:32.315Z</time>
      </trkpt>
      <trkpt lat="51.93634" lon="4.21413">
        <ele>51.783717</ele>
        <time>2024-07-04T08:24:35.309Z</time>
      </trkpt>
      <trkpt lat="51.93639" lon="4.21398">
        <ele>51.813705</ele>
        <time>2024-07-04T08:24:38.309Z</time>
      </trkpt>
      <trkpt lat="51.93644" lon="4.21383">
        <ele>51.843795</ele>
        <time>2024-07-04T08:24:41.305Z</time>
      </trkpt>
      <trkpt lat="51.9365" lon="4.21367">
        <ele>51.861033</ele>
        <time>2024-07-04T08:24:44.315Z</time>
      </trkpt>
      <trkpt lat="51.93657" lon="4.2135">
        <ele>51.839682</ele>
        <time>2024-07-04T08:24:47.318Z</time>
      </trkpt>
      <trkpt lat="51.93662" lon="4.21334">
        <ele>51.818876</ele>
        <time>2024-07-04T08:24:50.315Z</time>
      </trkpt>
      <trkpt lat="51.93669" lon="4.21319">
        <ele>51.799134</ele>
        <time>2024-07-04T08:24:53.321Z</time>
      </trkpt>
      <trkpt lat="51.93674" lon="4.21303">
        <ele>51.779281</ele>
        <time>2024-07-04T08:24:56.317Z</time>
      </trkpt>
      <trkpt lat="51.93679" lon="4.21287">
        <ele>51.759485</ele>
        <time>2024-07-04T08:24:59.312Z</time>
      </trkpt>
      <trkpt lat="51.93685" lon="4.21269">
        <ele>51.737759</ele>
        <time>2024-07-04T08:25:02.308Z</time>
      </trkpt>
      <trkpt lat="51.93691" lon="4.21253">
        <ele>51.716945</ele>
        <time>2024-07-04T08:25:05.320Z</time>
      </trkpt>
      <trkpt lat="51.93696" lon="4.21237">
        <ele>51.696959</ele>
        <time>2024-07-04T08:25:08.322Z</time>
      </trkpt>
      <trkpt lat="51.93702" lon="4.21222">
        <ele>51.67793</ele>
        <time>2024-07-04T08:25:11.308Z</time>
      </trkpt>
      <trkpt lat="51.93709" lon="4.21208">
        <ele>51.658837</ele>
        <time>2024-07-04T08:25:14.340Z</time>
      </trkpt>
      <trkpt lat="51.93715" lon="4.21194">
        <ele>51.639875</ele>
        <time>2024-07-04T08:25:17.312Z</time>
      </trkpt>
      <trkpt lat="51.93719" lon="4.21178">
        <ele>51.620942</ele>
        <time>2024-07-04T08:25:20.304Z</time>
      </trkpt>
      <trkpt lat="51.93725" lon="4.21163">
        <ele>51.601074</ele>
        <time>2024-07-04T08:25:23.319Z</time>
      </trkpt>
      <trkpt lat="51.93731" lon="4.21146">
        <ele>51.580536</ele>
        <time>2024-07-04T08:25:26.322Z</time>
      </trkpt>
      <trkpt lat="51.93736" lon="4.21131">
        <ele>51.561227</ele>
        <time>2024-07-04T08:25:29.317Z</time>
      </trkpt>
      <trkpt lat="51.93742" lon="4.21116">
        <ele>51.513436</ele>
        <time>2024-07-04T08:25:32.310Z</time>
      </trkpt>
      <trkpt lat="51.93746" lon="4.21101">
        <ele>51.412922</ele>
        <time>2024-07-04T08:25:35.318Z</time>
      </trkpt>
      <trkpt lat="51.93751" lon="4.21087">
        <ele>51.31609</ele>
        <time>2024-07-04T08:25:38.345Z</time>
      </trkpt>
      <trkpt lat="51.93757" lon="4.21074">
        <ele>51.218259</ele>
        <time>2024-07-04T08:25:41.311Z</time>
      </trkpt>
      <trkpt lat="51.93764" lon="4.21062">
        <ele>51.121738</ele>
        <time>2024-07-04T08:25:44.317Z</time>
      </trkpt>
      <trkpt lat="51.93771" lon="4.2105">
        <ele>51.022993</ele>
        <time>2024-07-04T08:25:47.310Z</time>
      </trkpt>
      <trkpt lat="51.93777" lon="4.21036">
        <ele>50.919029</ele>
        <time>2024-07-04T08:25:50.320Z</time>
      </trkpt>
      <trkpt lat="51.93782" lon="4.21021">
        <ele>50.814941</ele>
        <time>2024-07-04T08:25:53.318Z</time>
      </trkpt>
      <trkpt lat="51.93787" lon="4.21006">
        <ele>50.710429</ele>
        <time>2024-07-04T08:25:56.309Z</time>
      </trkpt>
      <trkpt lat="51.93792" lon="4.20991">
        <ele>50.609532</ele>
        <time>2024-07-04T08:25:59.308Z</time>
      </trkpt>
      <trkpt lat="51.93797" lon="4.20977">
        <ele>50.511653</ele>
        <time>2024-07-04T08:26:02.315Z</time>
      </trkpt>
      <trkpt lat="51.93802" lon="4.20962">
        <ele>50.409192</ele>
        <time>2024-07-04T08:26:05.332Z</time>
      </trkpt>
      <trkpt lat="51.93808" lon="4.20948">
        <ele>50.305586</ele>
        <time>2024-07-04T08:26:08.310Z</time>
      </trkpt>
      <trkpt lat="51.93814" lon="4.20933">
        <ele>50.20165</ele>
        <time>2024-07-04T08:26:11.309Z</time>
      </trkpt>
      <trkpt lat="51.93819" lon="4.20919">
        <ele>50.100194</ele>
        <time>2024-07-04T08:26:14.317Z</time>
      </trkpt>
      <trkpt lat="51.93824" lon="4.20904">
        <ele>50.002723</ele>
        <time>2024-07-04T08:26:17.315Z</time>
      </trkpt>
      <trkpt lat="51.93829" lon="4.20889">
        <ele>49.898568</ele>
        <time>2024-07-04T08:26:20.312Z</time>
      </trkpt>
      <trkpt lat="51.93834" lon="4.20874">
        <ele>49.795128</ele>
        <time>2024-07-04T08:26:23.315Z</time>
      </trkpt>
      <trkpt lat="51.9384" lon="4.20858">
        <ele>49.848291</ele>
        <time>2024-07-04T08:26:26.316Z</time>
      </trkpt>
      <trkpt lat="51.93845" lon="4.20842">
        <ele>49.900987</ele>
        <time>2024-07-04T08:26:29.318Z</time>
      </trkpt>
      <trkpt lat="51.93851" lon="4.20827">
        <ele>49.954835</ele>
        <time>2024-07-04T08:26:32.313Z</time>
      </trkpt>
      <trkpt lat="51.93857" lon="4.20811">
        <ele>50.010447</ele>
        <time>2024-07-04T08:26:35.311Z</time>
      </trkpt>
      <trkpt lat="51.93863" lon="4.20794">
        <ele>50.066609</ele>
        <time>2024-07-04T08:26:38.315Z</time>
      </trkpt>
      <trkpt lat="51.93869" lon="4.20777">
        <ele>50.124321</ele>
        <time>2024-07-04T08:26:41.317Z</time>
      </trkpt>
      <trkpt lat="51.93874" lon="4.20761">
        <ele>50.178476</ele>
        <time>2024-07-04T08:26:44.308Z</time>
      </trkpt>
      <trkpt lat="51.9388" lon="4.20746">
        <ele>50.227814</ele>
        <time>2024-07-04T08:26:47.314Z</time>
      </trkpt>
      <trkpt lat="51.93885" lon="4.20731">
        <ele>50.279023</ele>
        <time>2024-07-04T08:26:50.314Z</time>
      </trkpt>
      <trkpt lat="51.93889" lon="4.20715">
        <ele>50.330846</ele>
        <time>2024-07-04T08:26:53.316Z</time>
      </trkpt>
      <trkpt lat="51.93896" lon="4.207">
        <ele>50.383715</ele>
        <time>2024-07-04T08:26:56.311Z</time>
      </trkpt>
      <trkpt lat="51.93901" lon="4.20682">
        <ele>50.442467</ele>
        <time>2024-07-04T08:26:59.316Z</time>
      </trkpt>
      <trkpt lat="51.93907" lon="4.20665">
        <ele>50.500664</ele>
        <time>2024-07-04T08:27:02.310Z</time>
      </trkpt>
      <trkpt lat="51.93912" lon="4.20648">
        <ele>50.557828</ele>
        <time>2024-07-04T08:27:05.311Z</time>
      </trkpt>
      <trkpt lat="51.93917" lon="4.20632">
        <ele>50.609865</ele>
        <time>2024-07-04T08:27:08.317Z</time>
      </trkpt>
      <trkpt lat="51.93922" lon="4.20616">
        <ele>50.647059</ele>
        <time>2024-07-04T08:27:11.319Z</time>
      </trkpt>
      <trkpt lat="51.93927" lon="4.20601">
        <ele>50.617616</ele>
        <time>2024-07-04T08:27:14.316Z</time>
      </trkpt>
      <trkpt lat="51.93932" lon="4.20586">
        <ele>50.58869</ele>
        <time>2024-07-04T08:27:17.315Z</time>
      </trkpt>
      <trkpt lat="51.93937" lon="4.20572">
        <ele>50.562118</ele>
        <time>2024-07-04T08:27:20.308Z</time>
      </trkpt>
      <trkpt lat="51.93942" lon="4.20558">
        <ele>50.534969</ele>
        <time>2024-07-04T08:27:23.303Z</time>
      </trkpt>
      <trkpt lat="51.93946" lon="4.20543">
        <ele>50.507243</ele>
        <time>2024-07-04T08:27:26.308Z</time>
      </trkpt>
      <trkpt lat="51.93951" lon="4.20528">
        <ele>50.478467</ele>
        <time>2024-07-04T08:27:29.328Z</time>
      </trkpt>
      <trkpt lat="51.93956" lon="4.20514">
        <ele>50.451094</ele>
        <time>2024-07-04T08:27:32.317Z</time>
      </trkpt>
      <trkpt lat="51.9396" lon="4.205">
        <ele>50.423974</ele>
        <time>2024-07-04T08:27:35.312Z</time>
      </trkpt>
      <trkpt lat="51.93966" lon="4.20487">
        <ele>50.397876</ele>
        <time>2024-07-04T08:27:38.312Z</time>
      </trkpt>
      <trkpt lat="51.9397" lon="4.20474">
        <ele>50.372476</ele>
        <time>2024-07-04T08:27:41.308Z</time>
      </trkpt>
      <trkpt lat="51.93975" lon="4.20459">
        <ele>50.343639</ele>
        <time>2024-07-04T08:27:44.307Z</time>
      </trkpt>
      <trkpt lat="51.93981" lon="4.20445">
        <ele>50.314933</ele>
        <time>2024-07-04T08:27:47.314Z</time>
      </trkpt>
      <trkpt lat="51.93986" lon="4.2043">
        <ele>50.286675</ele>
        <time>2024-07-04T08:27:50.311Z</time>
      </trkpt>
      <trkpt lat="51.93991" lon="4.20416">
        <ele>50.258993</ele>
        <time>2024-07-04T08:27:53.315Z</time>
      </trkpt>
      <trkpt lat="51.93996" lon="4.20401">
        <ele>50.229514</ele>
        <time>2024-07-04T08:27:56.313Z</time>
      </trkpt>
      <trkpt lat="51.94001" lon="4.20387">
        <ele>50.201239</ele>
        <time>2024-07-04T08:27:59.316Z</time>
      </trkpt>
      <trkpt lat="51.94007" lon="4.20371">
        <ele>50.171944</ele>
        <time>2024-07-04T08:28:02.309Z</time>
      </trkpt>
      <trkpt lat="51.94012" lon="4.20357">
        <ele>50.191415</ele>
        <time>2024-07-04T08:28:05.304Z</time>
      </trkpt>
      <trkpt lat="51.94016" lon="4.20344">
        <ele>50.249869</ele>
        <time>2024-07-04T08:28:08.319Z</time>
      </trkpt>
      <trkpt lat="51.94021" lon="4.20331">
        <ele>50.311013</ele>
        <time>2024-07-04T08:28:11.316Z</time>
      </trkpt>
      <trkpt lat="51.94026" lon="4.20317">
        <ele>50.376513</ele>
        <time>2024-07-04T08:28:14.314Z</time>
      </trkpt>
      <trkpt lat="51.94032" lon="4.20301">
        <ele>50.445787</ele>
        <time>2024-07-04T08:28:17.305Z</time>
      </trkpt>
      <trkpt lat="51.94037" lon="4.20286">
        <ele>50.517323</ele>
        <time>2024-07-04T08:28:20.291Z</time>
      </trkpt>
      <trkpt lat="51.94042" lon="4.2027">
        <ele>50.585944</ele>
        <time>2024-07-04T08:28:23.321Z</time>
      </trkpt>
      <trkpt lat="51.94048" lon="4.20255">
        <ele>50.655805</ele>
        <time>2024-07-04T08:28:26.309Z</time>
      </trkpt>
      <trkpt lat="51.94053" lon="4.2024">
        <ele>50.726389</ele>
        <time>2024-07-04T08:28:29.321Z</time>
      </trkpt>
      <trkpt lat="51.94059" lon="4.20224">
        <ele>50.796605</ele>
        <time>2024-07-04T08:28:32.313Z</time>
      </trkpt>
      <trkpt lat="51.94065" lon="4.20209">
        <ele>50.870181</ele>
        <time>2024-07-04T08:28:35.310Z</time>
      </trkpt>
      <trkpt lat="51.94072" lon="4.20191">
        <ele>50.950133</ele>
        <time>2024-07-04T08:28:38.289Z</time>
      </trkpt>
      <trkpt lat="51.94078" lon="4.20175">
        <ele>51.023681</ele>
        <time>2024-07-04T08:28:41.308Z</time>
      </trkpt>
      <trkpt lat="51.94083" lon="4.20161">
        <ele>51.092537</ele>
        <time>2024-07-04T08:28:44.308Z</time>
      </trkpt>
      <trkpt lat="51.94088" lon="4.20145">
        <ele>51.158876</ele>
        <time>2024-07-04T08:28:47.313Z</time>
      </trkpt>
      <trkpt lat="51.94094" lon="4.20132">
        <ele>51.224808</ele>
        <time>2024-07-04T08:28:50.296Z</time>
      </trkpt>
      <trkpt lat="51.94099" lon="4.20117">
        <ele>51.290011</ele>
        <time>2024-07-04T08:28:53.320Z</time>
      </trkpt>
      <trkpt lat="51.94105" lon="4.20103">
        <ele>51.288996</ele>
        <time>2024-07-04T08:28:56.302Z</time>
      </trkpt>
      <trkpt lat="51.94109" lon="4.20087">
        <ele>51.259826</ele>
        <time>2024-07-04T08:28:59.306Z</time>
      </trkpt>
      <trkpt lat="51.94115" lon="4.20073">
        <ele>51.231531</ele>
        <time>2024-07-04T08:29:02.297Z</time>
      </trkpt>
      <trkpt lat="51.94121" lon="4.20058">
        <ele>51.200363</ele>
        <time>2024-07-04T08:29:05.310Z</time>
      </trkpt>
      <trkpt lat="51.94127" lon="4.20043">
        <ele>51.170363</ele>
        <time>2024-07-04T08:29:08.308Z</time>
      </trkpt>
      <trkpt lat="51.94132" lon="4.20027">
        <ele>51.140423</ele>
        <time>2024-07-04T08:29:11.312Z</time>
      </trkpt>
      <trkpt lat="51.94138" lon="4.2001">
        <ele>51.108581</ele>
        <time>2024-07-04T08:29:14.315Z</time>
      </trkpt>
      <trkpt lat="51.94144" lon="4.19995">
        <ele>51.078024</ele>
        <time>2024-07-04T08:29:17.315Z</time>
      </trkpt>
      <trkpt lat="51.94149" lon="4.19979">
        <ele>51.047609</ele>
        <time>2024-07-04T08:29:20.308Z</time>
      </trkpt>
      <trkpt lat="51.94155" lon="4.19964">
        <ele>51.016479</ele>
        <time>2024-07-04T08:29:23.315Z</time>
      </trkpt>
      <trkpt lat="51.9416" lon="4.19947">
        <ele>50.986894</ele>
        <time>2024-07-04T08:29:26.293Z</time>
      </trkpt>
      <trkpt lat="51.94164" lon="4.19932">
        <ele>50.957347</ele>
        <time>2024-07-04T08:29:29.308Z</time>
      </trkpt>
      <trkpt lat="51.94169" lon="4.19916">
        <ele>50.928823</ele>
        <time>2024-07-04T08:29:32.299Z</time>
      </trkpt>
      <trkpt lat="51.94175" lon="4.19902">
        <ele>50.900694</ele>
        <time>2024-07-04T08:29:35.324Z</time>
      </trkpt>
      <trkpt lat="51.9418" lon="4.19888">
        <ele>50.87227</ele>
        <time>2024-07-04T08:29:38.318Z</time>
      </trkpt>
      <trkpt lat="51.94186" lon="4.19874">
        <ele>50.843219</ele>
        <time>2024-07-04T08:29:41.311Z</time>
      </trkpt>
      <trkpt lat="51.94192" lon="4.19859">
        <ele>50.821206</ele>
        <time>2024-07-04T08:29:44.299Z</time>
      </trkpt>
      <trkpt lat="51.94197" lon="4.19844">
        <ele>50.827899</ele>
        <time>2024-07-04T08:29:47.311Z</time>
      </trkpt>
      <trkpt lat="51.94202" lon="4.19829">
        <ele>50.835086</ele>
        <time>2024-07-04T08:29:50.320Z</time>
      </trkpt>
      <trkpt lat="51.94207" lon="4.19815">
        <ele>50.841845</ele>
        <time>2024-07-04T08:29:53.315Z</time>
      </trkpt>
      <trkpt lat="51.94212" lon="4.198">
        <ele>50.848572</ele>
        <time>2024-07-04T08:29:56.301Z</time>
      </trkpt>
      <trkpt lat="51.94215" lon="4.19783">
        <ele>50.855751</ele>
        <time>2024-07-04T08:29:59.303Z</time>
      </trkpt>
      <trkpt lat="51.9422" lon="4.19768">
        <ele>50.86265</ele>
        <time>2024-07-04T08:30:02.309Z</time>
      </trkpt>
      <trkpt lat="51.94226" lon="4.19752">
        <ele>50.870305</ele>
        <time>2024-07-04T08:30:05.305Z</time>
      </trkpt>
      <trkpt lat="51.94232" lon="4.19737">
        <ele>50.877579</ele>
        <time>2024-07-04T08:30:08.300Z</time>
      </trkpt>
      <trkpt lat="51.94237" lon="4.1972">
        <ele>50.885041</ele>
        <time>2024-07-04T08:30:11.302Z</time>
      </trkpt>
      <trkpt lat="51.94242" lon="4.19705">
        <ele>50.891943</ele>
        <time>2024-07-04T08:30:14.296Z</time>
      </trkpt>
      <trkpt lat="51.94247" lon="4.19692">
        <ele>50.898322</ele>
        <time>2024-07-04T08:30:17.312Z</time>
      </trkpt>
      <trkpt lat="51.94252" lon="4.19678">
        <ele>50.904537</ele>
        <time>2024-07-04T08:30:20.294Z</time>
      </trkpt>
      <trkpt lat="51.94257" lon="4.19664">
        <ele>50.911158</ele>
        <time>2024-07-04T08:30:23.305Z</time>
      </trkpt>
      <trkpt lat="51.94262" lon="4.1965">
        <ele>50.917859</ele>
        <time>2024-07-04T08:30:26.319Z</time>
      </trkpt>
      <trkpt lat="51.94266" lon="4.19635">
        <ele>50.924355</ele>
        <time>2024-07-04T08:30:29.324Z</time>
      </trkpt>
      <trkpt lat="51.94271" lon="4.1962">
        <ele>50.931257</ele>
        <time>2024-07-04T08:30:32.307Z</time>
      </trkpt>
      <trkpt lat="51.94276" lon="4.19606">
        <ele>50.937982</ele>
        <time>2024-07-04T08:30:35.310Z</time>
      </trkpt>
      <trkpt lat="51.94282" lon="4.19591">
        <ele>50.876064</ele>
        <time>2024-07-04T08:30:38.293Z</time>
      </trkpt>
      <trkpt lat="51.94288" lon="4.19577">
        <ele>50.815181</ele>
        <time>2024-07-04T08:30:41.317Z</time>
      </trkpt>
      <trkpt lat="51.94293" lon="4.19562">
        <ele>50.75422</ele>
        <time>2024-07-04T08:30:44.303Z</time>
      </trkpt>
      <trkpt lat="51.94298" lon="4.19548">
        <ele>50.69326</ele>
        <time>2024-07-04T08:30:47.290Z</time>
      </trkpt>
      <trkpt lat="51.94304" lon="4.19533">
        <ele>50.62895</ele>
        <time>2024-07-04T08:30:50.317Z</time>
      </trkpt>
      <trkpt lat="51.9431" lon="4.19518">
        <ele>50.566221</ele>
        <time>2024-07-04T08:30:53.309Z</time>
      </trkpt>
      <trkpt lat="51.94315" lon="4.19503">
        <ele>50.503429</ele>
        <time>2024-07-04T08:30:56.301Z</time>
      </trkpt>
      <trkpt lat="51.9432" lon="4.19488">
        <ele>50.442814</ele>
        <time>2024-07-04T08:30:59.294Z</time>
      </trkpt>
      <trkpt lat="51.94326" lon="4.19474">
        <ele>50.380378</ele>
        <time>2024-07-04T08:31:02.311Z</time>
      </trkpt>
      <trkpt lat="51.94331" lon="4.19459">
        <ele>50.317009</ele>
        <time>2024-07-04T08:31:05.313Z</time>
      </trkpt>
      <trkpt lat="51.94337" lon="4.19444">
        <ele>50.254891</ele>
        <time>2024-07-04T08:31:08.301Z</time>
      </trkpt>
      <trkpt lat="51.94343" lon="4.19429">
        <ele>50.189396</ele>
        <time>2024-07-04T08:31:11.316Z</time>
      </trkpt>
      <trkpt lat="51.94348" lon="4.19414">
        <ele>50.128195</ele>
        <time>2024-07-04T08:31:14.305Z</time>
      </trkpt>
      <trkpt lat="51.94353" lon="4.194">
        <ele>50.068215</ele>
        <time>2024-07-04T08:31:17.317Z</time>
      </trkpt>
      <trkpt lat="51.94359" lon="4.19385">
        <ele>50.006054</ele>
        <time>2024-07-04T08:31:20.306Z</time>
      </trkpt>
      <trkpt lat="51.94364" lon="4.1937">
        <ele>49.943917</ele>
        <time>2024-07-04T08:31:23.308Z</time>
      </trkpt>
      <trkpt lat="51.94369" lon="4.19356">
        <ele>49.884555</ele>
        <time>2024-07-04T08:31:26.302Z</time>
      </trkpt>
      <trkpt lat="51.94375" lon="4.19342">
        <ele>49.863027</ele>
        <time>2024-07-04T08:31:29.309Z</time>
      </trkpt>
      <trkpt lat="51.94381" lon="4.19327">
        <ele>49.841164</ele>
        <time>2024-07-04T08:31:32.285Z</time>
      </trkpt>
      <trkpt lat="51.94387" lon="4.19312">
        <ele>49.819305</ele>
        <time>2024-07-04T08:31:35.313Z</time>
      </trkpt>
      <trkpt lat="51.94392" lon="4.19298">
        <ele>49.797764</ele>
        <time>2024-07-04T08:31:38.311Z</time>
      </trkpt>
      <trkpt lat="51.94398" lon="4.19284">
        <ele>49.776729</ele>
        <time>2024-07-04T08:31:41.315Z</time>
      </trkpt>
      <trkpt lat="51.94404" lon="4.1927">
        <ele>49.755817</ele>
        <time>2024-07-04T08:31:44.308Z</time>
      </trkpt>
      <trkpt lat="51.9441" lon="4.19255">
        <ele>49.733853</ele>
        <time>2024-07-04T08:31:47.312Z</time>
      </trkpt>
      <trkpt lat="51.94415" lon="4.1924">
        <ele>49.711678</ele>
        <time>2024-07-04T08:31:50.309Z</time>
      </trkpt>
      <trkpt lat="51.94421" lon="4.19225">
        <ele>49.690134</ele>
        <time>2024-07-04T08:31:53.316Z</time>
      </trkpt>
      <trkpt lat="51.94427" lon="4.1921">
        <ele>49.668023</ele>
        <time>2024-07-04T08:31:56.301Z</time>
      </trkpt>
      <trkpt lat="51.94433" lon="4.19196">
        <ele>49.646059</ele>
        <time>2024-07-04T08:31:59.317Z</time>
      </trkpt>
      <trkpt lat="51.94439" lon="4.19181">
        <ele>49.624939</ele>
        <time>2024-07-04T08:32:02.306Z</time>
      </trkpt>
      <trkpt lat="51.94444" lon="4.19168">
        <ele>49.604429</ele>
        <time>2024-07-04T08:32:05.312Z</time>
      </trkpt>
      <trkpt lat="51.9445" lon="4.19155">
        <ele>49.584579</ele>
        <time>2024-07-04T08:32:08.327Z</time>
      </trkpt>
      <trkpt lat="51.94455" lon="4.19141">
        <ele>49.56452</ele>
        <time>2024-07-04T08:32:11.311Z</time>
      </trkpt>
      <trkpt lat="51.9446" lon="4.19127">
        <ele>49.544462</ele>
        <time>2024-07-04T08:32:14.312Z</time>
      </trkpt>
      <trkpt lat="51.94467" lon="4.19114">
        <ele>49.523235</ele>
        <time>2024-07-04T08:32:17.321Z</time>
      </trkpt>
      <trkpt lat="51.94472" lon="4.191">
        <ele>49.563656</ele>
        <time>2024-07-04T08:32:20.294Z</time>
      </trkpt>
      <trkpt lat="51.94478" lon="4.19086">
        <ele>49.612781</ele>
        <time>2024-07-04T08:32:23.308Z</time>
      </trkpt>
      <trkpt lat="51.94483" lon="4.19073">
        <ele>49.660556</ele>
        <time>2024-07-04T08:32:26.317Z</time>
      </trkpt>
      <trkpt lat="51.94488" lon="4.19059">
        <ele>49.711752</ele>
        <time>2024-07-04T08:32:29.318Z</time>
      </trkpt>
      <trkpt lat="51.94494" lon="4.19046">
        <ele>49.760375</ele>
        <time>2024-07-04T08:32:32.314Z</time>
      </trkpt>
      <trkpt lat="51.94499" lon="4.19034">
        <ele>49.806432</ele>
        <time>2024-07-04T08:32:35.311Z</time>
      </trkpt>
      <trkpt lat="51.94505" lon="4.1902">
        <ele>49.856372</ele>
        <time>2024-07-04T08:32:38.313Z</time>
      </trkpt>
      <trkpt lat="51.94511" lon="4.19006">
        <ele>49.909446</ele>
        <time>2024-07-04T08:32:41.316Z</time>
      </trkpt>
      <trkpt lat="51.94517" lon="4.18992">
        <ele>49.960594</ele>
        <time>2024-07-04T08:32:44.311Z</time>
      </trkpt>
      <trkpt lat="51.94523" lon="4.18979">
        <ele>50.01121</ele>
        <time>2024-07-04T08:32:47.320Z</time>
      </trkpt>
      <trkpt lat="51.94529" lon="4.18964">
        <ele>50.066547</ele>
        <time>2024-07-04T08:32:50.316Z</time>
      </trkpt>
      <trkpt lat="51.94536" lon="4.18949">
        <ele>50.123387</ele>
        <time>2024-07-04T08:32:53.330Z</time>
      </trkpt>
      <trkpt lat="51.94542" lon="4.18933">
        <ele>50.180014</ele>
        <time>2024-07-04T08:32:56.312Z</time>
      </trkpt>
      <trkpt lat="51.94549" lon="4.18918">
        <ele>50.235192</ele>
        <time>2024-07-04T08:32:59.309Z</time>
      </trkpt>
      <trkpt lat="51.94556" lon="4.18903">
        <ele>50.291898</ele>
        <time>2024-07-04T08:33:02.314Z</time>
      </trkpt>
      <trkpt lat="51.94562" lon="4.18888">
        <ele>50.349307</ele>
        <time>2024-07-04T08:33:05.321Z</time>
      </trkpt>
      <trkpt lat="51.94568" lon="4.18872">
        <ele>50.40435</ele>
        <time>2024-07-04T08:33:08.318Z</time>
      </trkpt>
      <trkpt lat="51.94574" lon="4.18858">
        <ele>50.453757</ele>
        <time>2024-07-04T08:33:11.311Z</time>
      </trkpt>
      <trkpt lat="51.9458" lon="4.18844">
        <ele>50.504018</ele>
        <time>2024-07-04T08:33:14.319Z</time>
      </trkpt>
      <trkpt lat="51.94586" lon="4.18829">
        <ele>50.55455</ele>
        <time>2024-07-04T08:33:17.319Z</time>
      </trkpt>
      <trkpt lat="51.94592" lon="4.18815">
        <ele>50.604717</ele>
        <time>2024-07-04T08:33:20.296Z</time>
      </trkpt>
      <trkpt lat="51.94598" lon="4.18802">
        <ele>50.651964</ele>
        <time>2024-07-04T08:33:23.309Z</time>
      </trkpt>
      <trkpt lat="51.94605" lon="4.18787">
        <ele>50.703777</ele>
        <time>2024-07-04T08:33:26.315Z</time>
      </trkpt>
      <trkpt lat="51.94611" lon="4.18774">
        <ele>50.752274</ele>
        <time>2024-07-04T08:33:29.316Z</time>
      </trkpt>
      <trkpt lat="51.94617" lon="4.1876">
        <ele>50.800922</ele>
        <time>2024-07-04T08:33:32.305Z</time>
      </trkpt>
      <trkpt lat="51.94623" lon="4.18747">
        <ele>50.848849</ele>
        <time>2024-07-04T08:33:35.316Z</time>
      </trkpt>
      <trkpt lat="51.94629" lon="4.18733">
        <ele>50.897906</ele>
        <time>2024-07-04T08:33:38.315Z</time>
      </trkpt>
      <trkpt lat="51.94635" lon="4.18719">
        <ele>50.94511</ele>
        <time>2024-07-04T08:33:41.306Z</time>
      </trkpt>
      <trkpt lat="51.94641" lon="4.18706">
        <ele>50.991663</ele>
        <time>2024-07-04T08:33:44.299Z</time>
      </trkpt>
      <trkpt lat="51.94647" lon="4.18694">
        <ele>51.0385</ele>
        <time>2024-07-04T08:33:47.314Z</time>
      </trkpt>
      <trkpt lat="51.94653" lon="4.18679">
        <ele>51.088833</ele>
        <time>2024-07-04T08:33:50.314Z</time>
      </trkpt>
      <trkpt lat="51.94659" lon="4.18665">
        <ele>51.137246</ele>
        <time>2024-07-04T08:33:53.306Z</time>
      </trkpt>
      <trkpt lat="51.94666" lon="4.18651">
        <ele>51.190375</ele>
        <time>2024-07-04T08:33:56.309Z</time>
      </trkpt>
      <trkpt lat="51.94673" lon="4.18636">
        <ele>51.244013</ele>
        <time>2024-07-04T08:33:59.315Z</time>
      </trkpt>
      <trkpt lat="51.94679" lon="4.18621">
        <ele>51.247568</ele>
        <time>2024-07-04T08:34:02.319Z</time>
      </trkpt>
      <trkpt lat="51.94686" lon="4.18607">
        <ele>51.243698</ele>
        <time>2024-07-04T08:34:05.320Z</time>
      </trkpt>
      <trkpt lat="51.94693" lon="4.18592">
        <ele>51.239702</ele>
        <time>2024-07-04T08:34:08.312Z</time>
      </trkpt>
      <trkpt lat="51.947" lon="4.18578">
        <ele>51.235922</ele>
        <time>2024-07-04T08:34:11.318Z</time>
      </trkpt>
      <trkpt lat="51.94706" lon="4.18563">
        <ele>51.232083</ele>
        <time>2024-07-04T08:34:14.304Z</time>
      </trkpt>
      <trkpt lat="51.94713" lon="4.18548">
        <ele>51.228309</ele>
        <time>2024-07-04T08:34:17.299Z</time>
      </trkpt>
      <trkpt lat="51.94719" lon="4.18535">
        <ele>51.22473</ele>
        <time>2024-07-04T08:34:20.309Z</time>
      </trkpt>
      <trkpt lat="51.94725" lon="4.18522">
        <ele>51.221257</ele>
        <time>2024-07-04T08:34:23.301Z</time>
      </trkpt>
      <trkpt lat="51.94731" lon="4.18507">
        <ele>51.217619</ele>
        <time>2024-07-04T08:34:26.306Z</time>
      </trkpt>
      <trkpt lat="51.94737" lon="4.18494">
        <ele>51.213956</ele>
        <time>2024-07-04T08:34:29.311Z</time>
      </trkpt>
      <trkpt lat="51.94744" lon="4.1848">
        <ele>51.210319</ele>
        <time>2024-07-04T08:34:32.315Z</time>
      </trkpt>
      <trkpt lat="51.9475" lon="4.18468">
        <ele>51.206836</ele>
        <time>2024-07-04T08:34:35.312Z</time>
      </trkpt>
      <trkpt lat="51.94756" lon="4.18454">
        <ele>51.203356</ele>
        <time>2024-07-04T08:34:38.304Z</time>
      </trkpt>
      <trkpt lat="51.94763" lon="4.1844">
        <ele>51.199534</ele>
        <time>2024-07-04T08:34:41.322Z</time>
      </trkpt>
      <trkpt lat="51.94769" lon="4.18427">
        <ele>51.195985</ele>
        <time>2024-07-04T08:34:44.312Z</time>
      </trkpt>
      <trkpt lat="51.94776" lon="4.18413">
        <ele>51.192196</ele>
        <time>2024-07-04T08:34:47.316Z</time>
      </trkpt>
      <trkpt lat="51.94783" lon="4.18399">
        <ele>51.18942</ele>
        <time>2024-07-04T08:34:50.320Z</time>
      </trkpt>
      <trkpt lat="51.9479" lon="4.18385">
        <ele>51.192302</ele>
        <time>2024-07-04T08:34:53.307Z</time>
      </trkpt>
      <trkpt lat="51.94797" lon="4.18371">
        <ele>51.195156</ele>
        <time>2024-07-04T08:34:56.302Z</time>
      </trkpt>
      <trkpt lat="51.94804" lon="4.18357">
        <ele>51.198115</ele>
        <time>2024-07-04T08:34:59.316Z</time>
      </trkpt>
      <trkpt lat="51.94811" lon="4.18345">
        <ele>51.20096</ele>
        <time>2024-07-04T08:35:02.309Z</time>
      </trkpt>
      <trkpt lat="51.94818" lon="4.18329">
        <ele>51.204076</ele>
        <time>2024-07-04T08:35:05.311Z</time>
      </trkpt>
      <trkpt lat="51.94825" lon="4.18315">
        <ele>51.20706</ele>
        <time>2024-07-04T08:35:08.300Z</time>
      </trkpt>
      <trkpt lat="51.94832" lon="4.183">
        <ele>51.209942</ele>
        <time>2024-07-04T08:35:11.304Z</time>
      </trkpt>
      <trkpt lat="51.94839" lon="4.18287">
        <ele>51.212713</ele>
        <time>2024-07-04T08:35:14.308Z</time>
      </trkpt>
      <trkpt lat="51.94845" lon="4.18273">
        <ele>51.215568</ele>
        <time>2024-07-04T08:35:17.285Z</time>
      </trkpt>
      <trkpt lat="51.94851" lon="4.18259">
        <ele>51.218386</ele>
        <time>2024-07-04T08:35:20.306Z</time>
      </trkpt>
      <trkpt lat="51.94858" lon="4.18246">
        <ele>51.221124</ele>
        <time>2024-07-04T08:35:23.309Z</time>
      </trkpt>
      <trkpt lat="51.94864" lon="4.18233">
        <ele>51.223757</ele>
        <time>2024-07-04T08:35:26.312Z</time>
      </trkpt>
      <trkpt lat="51.94871" lon="4.1822">
        <ele>51.226549</ele>
        <time>2024-07-04T08:35:29.322Z</time>
      </trkpt>
      <trkpt lat="51.94878" lon="4.18206">
        <ele>51.229345</ele>
        <time>2024-07-04T08:35:32.312Z</time>
      </trkpt>
      <trkpt lat="51.94884" lon="4.18192">
        <ele>51.232125</ele>
        <time>2024-07-04T08:35:35.320Z</time>
      </trkpt>
      <trkpt lat="51.94891" lon="4.18179">
        <ele>51.235064</ele>
        <time>2024-07-04T08:35:38.309Z</time>
      </trkpt>
      <trkpt lat="51.94898" lon="4.18166">
        <ele>51.25622</ele>
        <time>2024-07-04T08:35:41.307Z</time>
      </trkpt>
      <trkpt lat="51.94904" lon="4.18153">
        <ele>51.291794</ele>
        <time>2024-07-04T08:35:44.302Z</time>
      </trkpt>
      <trkpt lat="51.94911" lon="4.18139">
        <ele>51.329078</ele>
        <time>2024-07-04T08:35:47.308Z</time>
      </trkpt>
      <trkpt lat="51.94917" lon="4.18125">
        <ele>51.366027</ele>
        <time>2024-07-04T08:35:50.309Z</time>
      </trkpt>
      <trkpt lat="51.94924" lon="4.18111">
        <ele>51.403021</ele>
        <time>2024-07-04T08:35:53.305Z</time>
      </trkpt>
      <trkpt lat="51.94931" lon="4.18099">
        <ele>51.438674</ele>
        <time>2024-07-04T08:35:56.316Z</time>
      </trkpt>
      <trkpt lat="51.94938" lon="4.18085">
        <ele>51.475065</ele>
        <time>2024-07-04T08:35:59.320Z</time>
      </trkpt>
      <trkpt lat="51.94944" lon="4.18072">
        <ele>51.511092</ele>
        <time>2024-07-04T08:36:02.309Z</time>
      </trkpt>
      <trkpt lat="51.94951" lon="4.1806">
        <ele>51.545657</ele>
        <time>2024-07-04T08:36:05.315Z</time>
      </trkpt>
      <trkpt lat="51.94957" lon="4.18046">
        <ele>51.582358</ele>
        <time>2024-07-04T08:36:08.305Z</time>
      </trkpt>
      <trkpt lat="51.94964" lon="4.18033">
        <ele>51.618264</ele>
        <time>2024-07-04T08:36:11.312Z</time>
      </trkpt>
      <trkpt lat="51.94971" lon="4.18019">
        <ele>51.656347</ele>
        <time>2024-07-04T08:36:14.313Z</time>
      </trkpt>
      <trkpt lat="51.94977" lon="4.18004">
        <ele>51.694617</ele>
        <time>2024-07-04T08:36:17.307Z</time>
      </trkpt>
      <trkpt lat="51.94984" lon="4.17989">
        <ele>51.733955</ele>
        <time>2024-07-04T08:36:20.305Z</time>
      </trkpt>
      <trkpt lat="51.94991" lon="4.17975">
        <ele>51.771952</ele>
        <time>2024-07-04T08:36:23.307Z</time>
      </trkpt>
      <trkpt lat="51.94998" lon="4.1796">
        <ele>51.81151</ele>
        <time>2024-07-04T08:36:26.311Z</time>
      </trkpt>
      <trkpt lat="51.95005" lon="4.17946">
        <ele>51.849755</ele>
        <time>2024-07-04T08:36:29.317Z</time>
      </trkpt>
      <trkpt lat="51.95013" lon="4.17933">
        <ele>51.853823</ele>
        <time>2024-07-04T08:36:32.304Z</time>
      </trkpt>
      <trkpt lat="51.9502" lon="4.17918">
        <ele>51.854184</ele>
        <time>2024-07-04T08:36:35.316Z</time>
      </trkpt>
      <trkpt lat="51.95028" lon="4.17902">
        <ele>51.854554</ele>
        <time>2024-07-04T08:36:38.303Z</time>
      </trkpt>
      <trkpt lat="51.95035" lon="4.17887">
        <ele>51.854918</ele>
        <time>2024-07-04T08:36:41.289Z</time>
      </trkpt>
      <trkpt lat="51.95042" lon="4.17873">
        <ele>51.855253</ele>
        <time>2024-07-04T08:36:44.311Z</time>
      </trkpt>
      <trkpt lat="51.95048" lon="4.1786">
        <ele>51.855569</ele>
        <time>2024-07-04T08:36:47.309Z</time>
      </trkpt>
      <trkpt lat="51.95054" lon="4.17846">
        <ele>51.855886</ele>
        <time>2024-07-04T08:36:50.302Z</time>
      </trkpt>
      <trkpt lat="51.95061" lon="4.17833">
        <ele>51.856211</ele>
        <time>2024-07-04T08:36:53.314Z</time>
      </trkpt>
      <trkpt lat="51.95067" lon="4.17819">
        <ele>51.856534</ele>
        <time>2024-07-04T08:36:56.309Z</time>
      </trkpt>
      <trkpt lat="51.95074" lon="4.17806">
        <ele>51.856866</ele>
        <time>2024-07-04T08:36:59.317Z</time>
      </trkpt>
      <trkpt lat="51.95081" lon="4.17793">
        <ele>51.857172</ele>
        <time>2024-07-04T08:37:02.313Z</time>
      </trkpt>
      <trkpt lat="51.95087" lon="4.17781">
        <ele>51.857481</ele>
        <time>2024-07-04T08:37:05.313Z</time>
      </trkpt>
      <trkpt lat="51.95094" lon="4.17767">
        <ele>51.857813</ele>
        <time>2024-07-04T08:37:08.306Z</time>
      </trkpt>
      <trkpt lat="51.95101" lon="4.17753">
        <ele>51.858147</ele>
        <time>2024-07-04T08:37:11.311Z</time>
      </trkpt>
      <trkpt lat="51.95108" lon="4.17739">
        <ele>51.858479</ele>
        <time>2024-07-04T08:37:14.318Z</time>
      </trkpt>
      <trkpt lat="51.95115" lon="4.17724">
        <ele>51.858826</ele>
        <time>2024-07-04T08:37:17.327Z</time>
      </trkpt>
      <trkpt lat="51.95121" lon="4.1771">
        <ele>51.799386</ele>
        <time>2024-07-04T08:37:20.296Z</time>
      </trkpt>
      <trkpt lat="51.95128" lon="4.17696">
        <ele>51.673531</ele>
        <time>2024-07-04T08:37:23.313Z</time>
      </trkpt>
      <trkpt lat="51.95135" lon="4.17682">
        <ele>51.546782</ele>
        <time>2024-07-04T08:37:26.311Z</time>
      </trkpt>
      <trkpt lat="51.95142" lon="4.17669">
        <ele>51.425779</ele>
        <time>2024-07-04T08:37:29.293Z</time>
      </trkpt>
      <trkpt lat="51.95148" lon="4.17655">
        <ele>51.30463</ele>
        <time>2024-07-04T08:37:32.318Z</time>
      </trkpt>
      <trkpt lat="51.95155" lon="4.17642">
        <ele>51.186675</ele>
        <time>2024-07-04T08:37:35.318Z</time>
      </trkpt>
      <trkpt lat="51.95161" lon="4.17629">
        <ele>51.075636</ele>
        <time>2024-07-04T08:37:38.312Z</time>
      </trkpt>
      <trkpt lat="51.95167" lon="4.17617">
        <ele>50.96433</ele>
        <time>2024-07-04T08:37:41.299Z</time>
      </trkpt>
      <trkpt lat="51.95173" lon="4.17604">
        <ele>50.852464</ele>
        <time>2024-07-04T08:37:44.319Z</time>
      </trkpt>
      <trkpt lat="51.95179" lon="4.17591">
        <ele>50.740168</ele>
        <time>2024-07-04T08:37:47.296Z</time>
      </trkpt>
      <trkpt lat="51.95185" lon="4.17579">
        <ele>50.624971</ele>
        <time>2024-07-04T08:37:50.313Z</time>
      </trkpt>
      <trkpt lat="51.95192" lon="4.17567">
        <ele>50.515022</ele>
        <time>2024-07-04T08:37:53.316Z</time>
      </trkpt>
      <trkpt lat="51.95198" lon="4.17554">
        <ele>50.403435</ele>
        <time>2024-07-04T08:37:56.314Z</time>
      </trkpt>
      <trkpt lat="51.95203" lon="4.17542">
        <ele>50.299758</ele>
        <time>2024-07-04T08:37:59.313Z</time>
      </trkpt>
      <trkpt lat="51.95211" lon="4.17528">
        <ele>50.166544</ele>
        <time>2024-07-04T08:38:03.308Z</time>
      </trkpt>
      <trkpt lat="51.95217" lon="4.17516">
        <ele>50.062157</ele>
        <time>2024-07-04T08:38:06.317Z</time>
      </trkpt>
      <trkpt lat="51.95222" lon="4.17504">
        <ele>49.957694</ele>
        <time>2024-07-04T08:38:09.301Z</time>
      </trkpt>
      <trkpt lat="51.95228" lon="4.17492">
        <ele>49.842497</ele>
        <time>2024-07-04T08:38:12.317Z</time>
      </trkpt>
      <trkpt lat="51.95235" lon="4.17479">
        <ele>49.878676</ele>
        <time>2024-07-04T08:38:15.320Z</time>
      </trkpt>
      <trkpt lat="51.9524" lon="4.17467">
        <ele>49.95525</ele>
        <time>2024-07-04T08:38:18.320Z</time>
      </trkpt>
      <trkpt lat="51.95247" lon="4.17455">
        <ele>50.030568</ele>
        <time>2024-07-04T08:38:21.321Z</time>
      </trkpt>
      <trkpt lat="51.95253" lon="4.17442">
        <ele>50.112903</ele>
        <time>2024-07-04T08:38:24.313Z</time>
      </trkpt>
      <trkpt lat="51.9526" lon="4.1743">
        <ele>50.197697</ele>
        <time>2024-07-04T08:38:27.328Z</time>
      </trkpt>
      <trkpt lat="51.95266" lon="4.17417">
        <ele>50.279642</ele>
        <time>2024-07-04T08:38:30.306Z</time>
      </trkpt>
      <trkpt lat="51.95273" lon="4.17403">
        <ele>50.366419</ele>
        <time>2024-07-04T08:38:33.317Z</time>
      </trkpt>
      <trkpt lat="51.9528" lon="4.17389">
        <ele>50.45464</ele>
        <time>2024-07-04T08:38:36.315Z</time>
      </trkpt>
      <trkpt lat="51.95286" lon="4.17375">
        <ele>50.536242</ele>
        <time>2024-07-04T08:38:39.312Z</time>
      </trkpt>
      <trkpt lat="51.95293" lon="4.17363">
        <ele>50.621407</ele>
        <time>2024-07-04T08:38:42.311Z</time>
      </trkpt>
      <trkpt lat="51.95299" lon="4.1735">
        <ele>50.704482</ele>
        <time>2024-07-04T08:38:45.307Z</time>
      </trkpt>
      <trkpt lat="51.95306" lon="4.17337">
        <ele>50.784766</ele>
        <time>2024-07-04T08:38:48.315Z</time>
      </trkpt>
      <trkpt lat="51.95312" lon="4.17326">
        <ele>50.860566</ele>
        <time>2024-07-04T08:38:51.320Z</time>
      </trkpt>
      <trkpt lat="51.95319" lon="4.17316">
        <ele>50.933689</ele>
        <time>2024-07-04T08:38:54.313Z</time>
      </trkpt>
      <trkpt lat="51.95328" lon="4.17318">
        <ele>51.010587</ele>
        <time>2024-07-04T08:38:57.300Z</time>
      </trkpt>
      <trkpt lat="51.95336" lon="4.17329">
        <ele>51.093432</ele>
        <time>2024-07-04T08:39:00.301Z</time>
      </trkpt>
      <trkpt lat="51.95343" lon="4.17339">
        <ele>51.172418</ele>
        <time>2024-07-04T08:39:03.303Z</time>
      </trkpt>
      <trkpt lat="51.95351" lon="4.17349">
        <ele>51.250189</ele>
        <time>2024-07-04T08:39:06.323Z</time>
      </trkpt>
      <trkpt lat="51.95359" lon="4.1736">
        <ele>51.377137</ele>
        <time>2024-07-04T08:39:09.310Z</time>
      </trkpt>
      <trkpt lat="51.9536" lon="4.17376">
        <ele>51.507125</ele>
        <time>2024-07-04T08:39:12.300Z</time>
      </trkpt>
      <trkpt lat="51.95353" lon="4.1739">
        <ele>51.649426</ele>
        <time>2024-07-04T08:39:15.301Z</time>
      </trkpt>
      <trkpt lat="51.95345" lon="4.17403">
        <ele>51.785762</ele>
        <time>2024-07-04T08:39:18.324Z</time>
      </trkpt>
      <trkpt lat="51.95339" lon="4.17416">
        <ele>51.916202</ele>
        <time>2024-07-04T08:39:21.308Z</time>
      </trkpt>
      <trkpt lat="51.95336" lon="4.17432">
        <ele>52.046894</ele>
        <time>2024-07-04T08:39:25.322Z</time>
      </trkpt>
      <trkpt lat="51.95345" lon="4.17439">
        <ele>52.176979</ele>
        <time>2024-07-04T08:39:30.320Z</time>
      </trkpt>
      <trkpt lat="51.95355" lon="4.17438">
        <ele>52.299657</ele>
        <time>2024-07-04T08:39:34.308Z</time>
      </trkpt>
      <trkpt lat="51.95366" lon="4.17438">
        <ele>52.438716</ele>
        <time>2024-07-04T08:39:38.317Z</time>
      </trkpt>
      <trkpt lat="51.95377" lon="4.17435">
        <ele>52.587255</ele>
        <time>2024-07-04T08:39:42.308Z</time>
      </trkpt>
      <trkpt lat="51.95386" lon="4.1743">
        <ele>52.707888</ele>
        <time>2024-07-04T08:39:46.317Z</time>
      </trkpt>
      <trkpt lat="51.95395" lon="4.17419">
        <ele>52.849514</ele>
        <time>2024-07-04T08:39:50.320Z</time>
      </trkpt>
      <trkpt lat="51.95402" lon="4.17407">
        <ele>52.982443</ele>
        <time>2024-07-04T08:39:53.311Z</time>
      </trkpt>
      <trkpt lat="51.95409" lon="4.17393">
        <ele>53.122539</ele>
        <time>2024-07-04T08:39:56.307Z</time>
      </trkpt>
      <trkpt lat="51.95416" lon="4.1738">
        <ele>53.255127</ele>
        <time>2024-07-04T08:39:59.328Z</time>
      </trkpt>
      <trkpt lat="51.95422" lon="4.17367">
        <ele>53.387325</ele>
        <time>2024-07-04T08:40:02.318Z</time>
      </trkpt>
      <trkpt lat="51.95429" lon="4.17354">
        <ele>53.515865</ele>
        <time>2024-07-04T08:40:05.307Z</time>
      </trkpt>
      <trkpt lat="51.95435" lon="4.17343">
        <ele>53.573855</ele>
        <time>2024-07-04T08:40:08.312Z</time>
      </trkpt>
      <trkpt lat="51.95441" lon="4.1733">
        <ele>53.602199</ele>
        <time>2024-07-04T08:40:11.318Z</time>
      </trkpt>
      <trkpt lat="51.95448" lon="4.17317">
        <ele>53.632038</ele>
        <time>2024-07-04T08:40:14.307Z</time>
      </trkpt>
      <trkpt lat="51.95455" lon="4.17304">
        <ele>53.661852</ele>
        <time>2024-07-04T08:40:17.317Z</time>
      </trkpt>
      <trkpt lat="51.95462" lon="4.17291">
        <ele>53.691363</ele>
        <time>2024-07-04T08:40:20.312Z</time>
      </trkpt>
      <trkpt lat="51.95468" lon="4.17277">
        <ele>53.720787</ele>
        <time>2024-07-04T08:40:23.320Z</time>
      </trkpt>
      <trkpt lat="51.95471" lon="4.17261">
        <ele>53.748527</ele>
        <time>2024-07-04T08:40:26.306Z</time>
      </trkpt>
      <trkpt lat="51.95472" lon="4.17243">
        <ele>53.780558</ele>
        <time>2024-07-04T08:40:29.319Z</time>
      </trkpt>
      <trkpt lat="51.95479" lon="4.17226">
        <ele>53.815468</ele>
        <time>2024-07-04T08:40:32.293Z</time>
      </trkpt>
      <trkpt lat="51.95487" lon="4.1721">
        <ele>53.850507</ele>
        <time>2024-07-04T08:40:35.300Z</time>
      </trkpt>
      <trkpt lat="51.95495" lon="4.17196">
        <ele>53.884857</ele>
        <time>2024-07-04T08:40:38.314Z</time>
      </trkpt>
      <trkpt lat="51.95504" lon="4.17184">
        <ele>53.918068</ele>
        <time>2024-07-04T08:40:41.311Z</time>
      </trkpt>
      <trkpt lat="51.95512" lon="4.17169">
        <ele>53.951377</ele>
        <time>2024-07-04T08:40:44.308Z</time>
      </trkpt>
      <trkpt lat="51.95521" lon="4.17156">
        <ele>53.984323</ele>
        <time>2024-07-04T08:40:47.305Z</time>
      </trkpt>
      <trkpt lat="51.95528" lon="4.17143">
        <ele>54.015178</ele>
        <time>2024-07-04T08:40:50.302Z</time>
      </trkpt>
      <trkpt lat="51.95536" lon="4.17131">
        <ele>54.045192</ele>
        <time>2024-07-04T08:40:53.312Z</time>
      </trkpt>
      <trkpt lat="51.95544" lon="4.1712">
        <ele>54.031631</ele>
        <time>2024-07-04T08:40:56.312Z</time>
      </trkpt>
      <trkpt lat="51.95552" lon="4.17108">
        <ele>53.969291</ele>
        <time>2024-07-04T08:40:59.323Z</time>
      </trkpt>
      <trkpt lat="51.95559" lon="4.17093">
        <ele>53.903667</ele>
        <time>2024-07-04T08:41:02.315Z</time>
      </trkpt>
      <trkpt lat="51.95566" lon="4.1708">
        <ele>53.839263</ele>
        <time>2024-07-04T08:41:05.320Z</time>
      </trkpt>
      <trkpt lat="51.95574" lon="4.17068">
        <ele>53.777794</ele>
        <time>2024-07-04T08:41:08.305Z</time>
      </trkpt>
      <trkpt lat="51.95581" lon="4.17055">
        <ele>53.716105</ele>
        <time>2024-07-04T08:41:11.300Z</time>
      </trkpt>
      <trkpt lat="51.95587" lon="4.17043">
        <ele>53.658229</ele>
        <time>2024-07-04T08:41:14.314Z</time>
      </trkpt>
      <trkpt lat="51.95594" lon="4.1703">
        <ele>53.599439</ele>
        <time>2024-07-04T08:41:17.296Z</time>
      </trkpt>
      <trkpt lat="51.95601" lon="4.17019">
        <ele>53.544092</ele>
        <time>2024-07-04T08:41:20.304Z</time>
      </trkpt>
      <trkpt lat="51.95608" lon="4.17009">
        <ele>53.490013</ele>
        <time>2024-07-04T08:41:23.311Z</time>
      </trkpt>
      <trkpt lat="51.95614" lon="4.16998">
        <ele>53.437591</ele>
        <time>2024-07-04T08:41:26.324Z</time>
      </trkpt>
      <trkpt lat="51.95621" lon="4.16986">
        <ele>53.379565</ele>
        <time>2024-07-04T08:41:29.322Z</time>
      </trkpt>
      <trkpt lat="51.95627" lon="4.16973">
        <ele>53.321647</ele>
        <time>2024-07-04T08:41:32.314Z</time>
      </trkpt>
      <trkpt lat="51.95634" lon="4.16962">
        <ele>53.263731</ele>
        <time>2024-07-04T08:41:35.313Z</time>
      </trkpt>
      <trkpt lat="51.95641" lon="4.1695">
        <ele>53.205325</ele>
        <time>2024-07-04T08:41:38.325Z</time>
      </trkpt>
      <trkpt lat="51.95648" lon="4.16938">
        <ele>53.145586</ele>
        <time>2024-07-04T08:41:41.320Z</time>
      </trkpt>
      <trkpt lat="51.95655" lon="4.16925">
        <ele>53.085105</ele>
        <time>2024-07-04T08:41:44.319Z</time>
      </trkpt>
      <trkpt lat="51.95662" lon="4.16912">
        <ele>53.02481</ele>
        <time>2024-07-04T08:41:47.317Z</time>
      </trkpt>
      <trkpt lat="51.95669" lon="4.16901">
        <ele>53.043446</ele>
        <time>2024-07-04T08:41:50.319Z</time>
      </trkpt>
      <trkpt lat="51.95675" lon="4.1689">
        <ele>53.065524</ele>
        <time>2024-07-04T08:41:53.317Z</time>
      </trkpt>
      <trkpt lat="51.95682" lon="4.16879">
        <ele>53.087823</ele>
        <time>2024-07-04T08:41:56.312Z</time>
      </trkpt>
      <trkpt lat="51.95689" lon="4.16867">
        <ele>53.111903</ele>
        <time>2024-07-04T08:41:59.297Z</time>
      </trkpt>
      <trkpt lat="51.95696" lon="4.16855">
        <ele>53.135872</ele>
        <time>2024-07-04T08:42:02.309Z</time>
      </trkpt>
      <trkpt lat="51.95704" lon="4.16842">
        <ele>53.160741</ele>
        <time>2024-07-04T08:42:05.312Z</time>
      </trkpt>
      <trkpt lat="51.95711" lon="4.16828">
        <ele>53.186041</ele>
        <time>2024-07-04T08:42:08.316Z</time>
      </trkpt>
      <trkpt lat="51.95717" lon="4.16817">
        <ele>53.208855</ele>
        <time>2024-07-04T08:42:11.322Z</time>
      </trkpt>
      <trkpt lat="51.95724" lon="4.16805">
        <ele>53.232406</ele>
        <time>2024-07-04T08:42:14.315Z</time>
      </trkpt>
      <trkpt lat="51.95731" lon="4.16792">
        <ele>53.256861</ele>
        <time>2024-07-04T08:42:17.295Z</time>
      </trkpt>
      <trkpt lat="51.95739" lon="4.16779">
        <ele>53.282302</ele>
        <time>2024-07-04T08:42:20.313Z</time>
      </trkpt>
      <trkpt lat="51.95745" lon="4.16766">
        <ele>53.306784</ele>
        <time>2024-07-04T08:42:23.319Z</time>
      </trkpt>
      <trkpt lat="51.95752" lon="4.16753">
        <ele>53.329873</ele>
        <time>2024-07-04T08:42:26.319Z</time>
      </trkpt>
      <trkpt lat="51.95758" lon="4.16741">
        <ele>53.353055</ele>
        <time>2024-07-04T08:42:29.298Z</time>
      </trkpt>
      <trkpt lat="51.95766" lon="4.16728">
        <ele>53.378553</ele>
        <time>2024-07-04T08:42:33.308Z</time>
      </trkpt>
      <trkpt lat="51.95773" lon="4.16719">
        <ele>53.400268</ele>
        <time>2024-07-04T08:42:37.304Z</time>
      </trkpt>
      <trkpt lat="51.95782" lon="4.16705">
        <ele>53.428874</ele>
        <time>2024-07-04T08:42:41.320Z</time>
      </trkpt>
      <trkpt lat="51.95788" lon="4.16692">
        <ele>53.469484</ele>
        <time>2024-07-04T08:42:44.293Z</time>
      </trkpt>
      <trkpt lat="51.95793" lon="4.16679">
        <ele>53.529172</ele>
        <time>2024-07-04T08:42:47.315Z</time>
      </trkpt>
      <trkpt lat="51.95799" lon="4.16665">
        <ele>53.591695</ele>
        <time>2024-07-04T08:42:50.312Z</time>
      </trkpt>
      <trkpt lat="51.95804" lon="4.16651">
        <ele>53.651116</ele>
        <time>2024-07-04T08:42:53.313Z</time>
      </trkpt>
      <trkpt lat="51.9581" lon="4.16635">
        <ele>53.722144</ele>
        <time>2024-07-04T08:42:57.323Z</time>
      </trkpt>
      <trkpt lat="51.95813" lon="4.16619">
        <ele>53.783028</ele>
        <time>2024-07-04T08:43:01.297Z</time>
      </trkpt>
      <trkpt lat="51.95818" lon="4.16604">
        <ele>53.849376</ele>
        <time>2024-07-04T08:43:06.315Z</time>
      </trkpt>
      <trkpt lat="51.95823" lon="4.16591">
        <ele>53.905887</ele>
        <time>2024-07-04T08:43:10.301Z</time>
      </trkpt>
      <trkpt lat="51.95828" lon="4.16578">
        <ele>53.96397</ele>
        <time>2024-07-04T08:43:14.305Z</time>
      </trkpt>
      <trkpt lat="51.95832" lon="4.16563">
        <ele>54.024493</ele>
        <time>2024-07-04T08:43:18.300Z</time>
      </trkpt>
      <trkpt lat="51.95836" lon="4.16548">
        <ele>54.084444</ele>
        <time>2024-07-04T08:43:22.309Z</time>
      </trkpt>
      <trkpt lat="51.9584" lon="4.16532">
        <ele>54.148183</ele>
        <time>2024-07-04T08:43:27.305Z</time>
      </trkpt>
      <trkpt lat="51.95843" lon="4.16517">
        <ele>54.205196</ele>
        <time>2024-07-04T08:43:31.309Z</time>
      </trkpt>
      <trkpt lat="51.95845" lon="4.16502">
        <ele>54.264308</ele>
        <time>2024-07-04T08:43:36.313Z</time>
      </trkpt>
      <trkpt lat="51.95845" lon="4.16487">
        <ele>54.321079</ele>
        <time>2024-07-04T08:43:40.299Z</time>
      </trkpt>
      <trkpt lat="51.95846" lon="4.1647">
        <ele>54.382164</ele>
        <time>2024-07-04T08:43:43.309Z</time>
      </trkpt>
      <trkpt lat="51.95845" lon="4.16453">
        <ele>54.447071</ele>
        <time>2024-07-04T08:43:46.316Z</time>
      </trkpt>
      <trkpt lat="51.95845" lon="4.16435">
        <ele>54.51523</ele>
        <time>2024-07-04T08:43:49.317Z</time>
      </trkpt>
      <trkpt lat="51.95846" lon="4.16415">
        <ele>54.382313</ele>
        <time>2024-07-04T08:43:52.314Z</time>
      </trkpt>
      <trkpt lat="51.95846" lon="4.16394">
        <ele>54.197966</ele>
        <time>2024-07-04T08:43:55.317Z</time>
      </trkpt>
      <trkpt lat="51.95846" lon="4.16379">
        <ele>54.060404</ele>
        <time>2024-07-04T08:43:57.328Z</time>
      </trkpt>
      <trkpt lat="51.95846" lon="4.16364">
        <ele>53.927267</ele>
        <time>2024-07-04T08:43:59.320Z</time>
      </trkpt>
      <trkpt lat="51.95847" lon="4.16344">
        <ele>53.748545</ele>
        <time>2024-07-04T08:44:02.306Z</time>
      </trkpt>
      <trkpt lat="51.95847" lon="4.16323">
        <ele>53.563996</ele>
        <time>2024-07-04T08:44:05.319Z</time>
      </trkpt>
      <trkpt lat="51.95852" lon="4.16307">
        <ele>53.408666</ele>
        <time>2024-07-04T08:44:07.303Z</time>
      </trkpt>
      <trkpt lat="51.9586" lon="4.16293">
        <ele>53.245866</ele>
        <time>2024-07-04T08:44:09.315Z</time>
      </trkpt>
      <trkpt lat="51.95867" lon="4.1628">
        <ele>53.092267</ele>
        <time>2024-07-04T08:44:11.299Z</time>
      </trkpt>
      <trkpt lat="51.95873" lon="4.16268">
        <ele>52.947772</ele>
        <time>2024-07-04T08:44:13.327Z</time>
      </trkpt>
      <trkpt lat="51.9588" lon="4.16256">
        <ele>52.806172</ele>
        <time>2024-07-04T08:44:15.320Z</time>
      </trkpt>
      <trkpt lat="51.95886" lon="4.16244">
        <ele>52.671948</ele>
        <time>2024-07-04T08:44:17.293Z</time>
      </trkpt>
      <trkpt lat="51.95893" lon="4.16229">
        <ele>52.498923</ele>
        <time>2024-07-04T08:44:20.324Z</time>
      </trkpt>
      <trkpt lat="51.95901" lon="4.16215">
        <ele>52.327749</ele>
        <time>2024-07-04T08:44:23.318Z</time>
      </trkpt>
      <trkpt lat="51.95909" lon="4.162">
        <ele>52.159715</ele>
        <time>2024-07-04T08:44:26.319Z</time>
      </trkpt>
      <trkpt lat="51.95916" lon="4.16186">
        <ele>51.992173</ele>
        <time>2024-07-04T08:44:29.320Z</time>
      </trkpt>
      <trkpt lat="51.95923" lon="4.16173">
        <ele>51.905772</ele>
        <time>2024-07-04T08:44:32.306Z</time>
      </trkpt>
      <trkpt lat="51.95929" lon="4.1616">
        <ele>51.855828</ele>
        <time>2024-07-04T08:44:35.320Z</time>
      </trkpt>
      <trkpt lat="51.95934" lon="4.16147">
        <ele>51.806753</ele>
        <time>2024-07-04T08:44:38.310Z</time>
      </trkpt>
      <trkpt lat="51.9594" lon="4.16132">
        <ele>51.752154</ele>
        <time>2024-07-04T08:44:42.298Z</time>
      </trkpt>
      <trkpt lat="51.95946" lon="4.16121">
        <ele>51.70642</ele>
        <time>2024-07-04T08:44:46.321Z</time>
      </trkpt>
      <trkpt lat="51.95956" lon="4.16111">
        <ele>51.649408</ele>
        <time>2024-07-04T08:44:51.317Z</time>
      </trkpt>
      <trkpt lat="51.95961" lon="4.16098">
        <ele>51.603745</ele>
        <time>2024-07-04T08:44:54.304Z</time>
      </trkpt>
      <trkpt lat="51.95967" lon="4.16087">
        <ele>51.556038</ele>
        <time>2024-07-04T08:44:57.312Z</time>
      </trkpt>
      <trkpt lat="51.95975" lon="4.16071">
        <ele>51.494851</ele>
        <time>2024-07-04T08:45:01.321Z</time>
      </trkpt>
      <trkpt lat="51.95982" lon="4.16059">
        <ele>51.443218</ele>
        <time>2024-07-04T08:45:04.309Z</time>
      </trkpt>
      <trkpt lat="51.95988" lon="4.16047">
        <ele>51.393177</ele>
        <time>2024-07-04T08:45:07.296Z</time>
      </trkpt>
      <trkpt lat="51.95995" lon="4.16035">
        <ele>51.343313</ele>
        <time>2024-07-04T08:45:10.297Z</time>
      </trkpt>
      <trkpt lat="51.96002" lon="4.16022">
        <ele>51.291058</ele>
        <time>2024-07-04T08:45:13.307Z</time>
      </trkpt>
      <trkpt lat="51.96009" lon="4.16009">
        <ele>51.237377</ele>
        <time>2024-07-04T08:45:16.311Z</time>
      </trkpt>
      <trkpt lat="51.96016" lon="4.15997">
        <ele>51.184259</ele>
        <time>2024-07-04T08:45:19.322Z</time>
      </trkpt>
      <trkpt lat="51.96023" lon="4.15983">
        <ele>51.128958</ele>
        <time>2024-07-04T08:45:22.320Z</time>
      </trkpt>
      <trkpt lat="51.9603" lon="4.15969">
        <ele>51.072945</ele>
        <time>2024-07-04T08:45:25.317Z</time>
      </trkpt>
      <trkpt lat="51.96037" lon="4.15956">
        <ele>51.037321</ele>
        <time>2024-07-04T08:45:28.306Z</time>
      </trkpt>
      <trkpt lat="51.96045" lon="4.15941">
        <ele>51.040835</ele>
        <time>2024-07-04T08:45:31.307Z</time>
      </trkpt>
      <trkpt lat="51.96053" lon="4.15927">
        <ele>51.044333</ele>
        <time>2024-07-04T08:45:34.306Z</time>
      </trkpt>
      <trkpt lat="51.9606" lon="4.15914">
        <ele>51.047665</ele>
        <time>2024-07-04T08:45:37.327Z</time>
      </trkpt>
      <trkpt lat="51.96067" lon="4.159">
        <ele>51.05083</ele>
        <time>2024-07-04T08:45:40.305Z</time>
      </trkpt>
      <trkpt lat="51.96074" lon="4.15887">
        <ele>51.05405</ele>
        <time>2024-07-04T08:45:43.318Z</time>
      </trkpt>
      <trkpt lat="51.96081" lon="4.15874">
        <ele>51.057297</ele>
        <time>2024-07-04T08:45:46.318Z</time>
      </trkpt>
      <trkpt lat="51.96088" lon="4.15861">
        <ele>51.06055</ele>
        <time>2024-07-04T08:45:49.313Z</time>
      </trkpt>
      <trkpt lat="51.96095" lon="4.15847">
        <ele>51.063945</ele>
        <time>2024-07-04T08:45:52.318Z</time>
      </trkpt>
      <trkpt lat="51.96102" lon="4.15834">
        <ele>51.067159</ele>
        <time>2024-07-04T08:45:55.312Z</time>
      </trkpt>
      <trkpt lat="51.96109" lon="4.15821">
        <ele>51.070412</ele>
        <time>2024-07-04T08:45:58.306Z</time>
      </trkpt>
      <trkpt lat="51.96116" lon="4.15807">
        <ele>51.073629</ele>
        <time>2024-07-04T08:46:01.306Z</time>
      </trkpt>
      <trkpt lat="51.96122" lon="4.15793">
        <ele>51.076788</ele>
        <time>2024-07-04T08:46:04.306Z</time>
      </trkpt>
      <trkpt lat="51.96128" lon="4.15782">
        <ele>51.079654</ele>
        <time>2024-07-04T08:46:07.291Z</time>
      </trkpt>
      <trkpt lat="51.96135" lon="4.1577">
        <ele>51.082635</ele>
        <time>2024-07-04T08:46:10.316Z</time>
      </trkpt>
      <trkpt lat="51.96142" lon="4.15757">
        <ele>51.085795</ele>
        <time>2024-07-04T08:46:13.315Z</time>
      </trkpt>
      <trkpt lat="51.96148" lon="4.15745">
        <ele>51.088755</ele>
        <time>2024-07-04T08:46:16.317Z</time>
      </trkpt>
      <trkpt lat="51.96155" lon="4.15732">
        <ele>51.053781</ele>
        <time>2024-07-04T08:46:19.313Z</time>
      </trkpt>
      <trkpt lat="51.96161" lon="4.1572">
        <ele>50.984743</ele>
        <time>2024-07-04T08:46:22.320Z</time>
      </trkpt>
      <trkpt lat="51.96167" lon="4.15707">
        <ele>50.917595</ele>
        <time>2024-07-04T08:46:25.297Z</time>
      </trkpt>
      <trkpt lat="51.96173" lon="4.15695">
        <ele>50.8517</ele>
        <time>2024-07-04T08:46:28.311Z</time>
      </trkpt>
      <trkpt lat="51.96179" lon="4.15684">
        <ele>50.78606</ele>
        <time>2024-07-04T08:46:31.295Z</time>
      </trkpt>
      <trkpt lat="51.96186" lon="4.15672">
        <ele>50.717021</ele>
        <time>2024-07-04T08:46:34.305Z</time>
      </trkpt>
      <trkpt lat="51.96193" lon="4.15659">
        <ele>50.646755</ele>
        <time>2024-07-04T08:46:37.309Z</time>
      </trkpt>
      <trkpt lat="51.962" lon="4.15644">
        <ele>50.56457</ele>
        <time>2024-07-04T08:46:41.320Z</time>
      </trkpt>
      <trkpt lat="51.96208" lon="4.15631">
        <ele>50.483421</ele>
        <time>2024-07-04T08:46:45.301Z</time>
      </trkpt>
      <trkpt lat="51.96215" lon="4.15616">
        <ele>50.403558</ele>
        <time>2024-07-04T08:46:49.309Z</time>
      </trkpt>
      <trkpt lat="51.96223" lon="4.15602">
        <ele>50.324135</ele>
        <time>2024-07-04T08:46:53.331Z</time>
      </trkpt>
      <trkpt lat="51.9623" lon="4.15587">
        <ele>50.244813</ele>
        <time>2024-07-04T08:46:57.318Z</time>
      </trkpt>
      <trkpt lat="51.96237" lon="4.15573">
        <ele>50.164121</ele>
        <time>2024-07-04T08:47:01.307Z</time>
      </trkpt>
      <trkpt lat="51.96245" lon="4.1556">
        <ele>50.088322</ele>
        <time>2024-07-04T08:47:05.317Z</time>
      </trkpt>
      <trkpt lat="51.96253" lon="4.15547">
        <ele>50.011402</ele>
        <time>2024-07-04T08:47:09.309Z</time>
      </trkpt>
      <trkpt lat="51.96259" lon="4.15533">
        <ele>49.934716</ele>
        <time>2024-07-04T08:47:13.316Z</time>
      </trkpt>
      <trkpt lat="51.96266" lon="4.15519">
        <ele>49.858327</ele>
        <time>2024-07-04T08:47:17.323Z</time>
      </trkpt>
      <trkpt lat="51.96272" lon="4.15507">
        <ele>49.952654</ele>
        <time>2024-07-04T08:47:20.308Z</time>
      </trkpt>
      <trkpt lat="51.96278" lon="4.15496">
        <ele>50.111115</ele>
        <time>2024-07-04T08:47:23.307Z</time>
      </trkpt>
      <trkpt lat="51.96285" lon="4.15481">
        <ele>50.31225</ele>
        <time>2024-07-04T08:47:27.316Z</time>
      </trkpt>
      <trkpt lat="51.96293" lon="4.15467">
        <ele>50.507248</ele>
        <time>2024-07-04T08:47:31.305Z</time>
      </trkpt>
      <trkpt lat="51.963" lon="4.15454">
        <ele>50.688779</ele>
        <time>2024-07-04T08:47:34.316Z</time>
      </trkpt>
      <trkpt lat="51.96306" lon="4.15442">
        <ele>50.853094</ele>
        <time>2024-07-04T08:47:37.306Z</time>
      </trkpt>
      <trkpt lat="51.96313" lon="4.15429">
        <ele>51.029806</ele>
        <time>2024-07-04T08:47:40.315Z</time>
      </trkpt>
      <trkpt lat="51.96319" lon="4.15417">
        <ele>51.200977</ele>
        <time>2024-07-04T08:47:43.311Z</time>
      </trkpt>
      <trkpt lat="51.96326" lon="4.15403">
        <ele>51.38578</ele>
        <time>2024-07-04T08:47:46.306Z</time>
      </trkpt>
      <trkpt lat="51.96333" lon="4.15391">
        <ele>51.561559</ele>
        <time>2024-07-04T08:47:49.313Z</time>
      </trkpt>
      <trkpt lat="51.9634" lon="4.15377">
        <ele>51.739361</ele>
        <time>2024-07-04T08:47:52.305Z</time>
      </trkpt>
      <trkpt lat="51.96346" lon="4.15365">
        <ele>51.910678</ele>
        <time>2024-07-04T08:47:55.297Z</time>
      </trkpt>
      <trkpt lat="51.96353" lon="4.15351">
        <ele>52.096283</ele>
        <time>2024-07-04T08:47:58.310Z</time>
      </trkpt>
      <trkpt lat="51.9636" lon="4.15338">
        <ele>52.275691</ele>
        <time>2024-07-04T08:48:01.316Z</time>
      </trkpt>
      <trkpt lat="51.96368" lon="4.15326">
        <ele>52.459832</ele>
        <time>2024-07-04T08:48:04.307Z</time>
      </trkpt>
      <trkpt lat="51.96376" lon="4.15313">
        <ele>52.650328</ele>
        <time>2024-07-04T08:48:07.313Z</time>
      </trkpt>
      <trkpt lat="51.96383" lon="4.15298">
        <ele>52.85178</ele>
        <time>2024-07-04T08:48:10.312Z</time>
      </trkpt>
      <trkpt lat="51.96391" lon="4.15284">
        <ele>52.977618</ele>
        <time>2024-07-04T08:48:13.312Z</time>
      </trkpt>
      <trkpt lat="51.96398" lon="4.1527">
        <ele>53.080189</ele>
        <time>2024-07-04T08:48:16.311Z</time>
      </trkpt>
      <trkpt lat="51.96406" lon="4.15256">
        <ele>53.184682</ele>
        <time>2024-07-04T08:48:19.308Z</time>
      </trkpt>
      <trkpt lat="51.96414" lon="4.15241">
        <ele>53.293439</ele>
        <time>2024-07-04T08:48:22.308Z</time>
      </trkpt>
      <trkpt lat="51.96422" lon="4.15227">
        <ele>53.397408</ele>
        <time>2024-07-04T08:48:25.311Z</time>
      </trkpt>
      <trkpt lat="51.96429" lon="4.15213">
        <ele>53.499217</ele>
        <time>2024-07-04T08:48:28.305Z</time>
      </trkpt>
      <trkpt lat="51.96436" lon="4.15198">
        <ele>53.603073</ele>
        <time>2024-07-04T08:48:31.316Z</time>
      </trkpt>
      <trkpt lat="51.96443" lon="4.15183">
        <ele>53.706289</ele>
        <time>2024-07-04T08:48:34.313Z</time>
      </trkpt>
      <trkpt lat="51.96451" lon="4.15169">
        <ele>53.810279</ele>
        <time>2024-07-04T08:48:37.308Z</time>
      </trkpt>
      <trkpt lat="51.96459" lon="4.15155">
        <ele>53.915876</ele>
        <time>2024-07-04T08:48:40.314Z</time>
      </trkpt>
      <trkpt lat="51.96467" lon="4.15141">
        <ele>54.02028</ele>
        <time>2024-07-04T08:48:43.311Z</time>
      </trkpt>
      <trkpt lat="51.96473" lon="4.15127">
        <ele>54.1167</ele>
        <time>2024-07-04T08:48:46.311Z</time>
      </trkpt>
      <trkpt lat="51.9648" lon="4.15113">
        <ele>54.216212</ele>
        <time>2024-07-04T08:48:49.316Z</time>
      </trkpt>
      <trkpt lat="51.96488" lon="4.15099">
        <ele>54.318439</ele>
        <time>2024-07-04T08:48:52.321Z</time>
      </trkpt>
      <trkpt lat="51.96495" lon="4.15085">
        <ele>54.416749</ele>
        <time>2024-07-04T08:48:55.312Z</time>
      </trkpt>
      <trkpt lat="51.96503" lon="4.15073">
        <ele>54.501871</ele>
        <time>2024-07-04T08:48:58.312Z</time>
      </trkpt>
      <trkpt lat="51.9651" lon="4.15059">
        <ele>54.40469</ele>
        <time>2024-07-04T08:49:01.313Z</time>
      </trkpt>
      <trkpt lat="51.96517" lon="4.15045">
        <ele>54.307932</ele>
        <time>2024-07-04T08:49:04.295Z</time>
      </trkpt>
      <trkpt lat="51.96524" lon="4.15031">
        <ele>54.218279</ele>
        <time>2024-07-04T08:49:07.322Z</time>
      </trkpt>
      <trkpt lat="51.9653" lon="4.15017">
        <ele>54.125596</ele>
        <time>2024-07-04T08:49:10.320Z</time>
      </trkpt>
      <trkpt lat="51.96537" lon="4.15003">
        <ele>54.032962</ele>
        <time>2024-07-04T08:49:13.314Z</time>
      </trkpt>
      <trkpt lat="51.96544" lon="4.1499">
        <ele>53.940985</ele>
        <time>2024-07-04T08:49:16.307Z</time>
      </trkpt>
      <trkpt lat="51.96551" lon="4.14977">
        <ele>53.84651</ele>
        <time>2024-07-04T08:49:19.316Z</time>
      </trkpt>
      <trkpt lat="51.96559" lon="4.14964">
        <ele>53.747209</ele>
        <time>2024-07-04T08:49:22.316Z</time>
      </trkpt>
      <trkpt lat="51.96568" lon="4.14955">
        <ele>53.657476</ele>
        <time>2024-07-04T08:49:25.304Z</time>
      </trkpt>
      <trkpt lat="51.96578" lon="4.14954">
        <ele>53.572341</ele>
        <time>2024-07-04T08:49:28.299Z</time>
      </trkpt>
      <trkpt lat="51.96587" lon="4.14963">
        <ele>53.478877</ele>
        <time>2024-07-04T08:49:31.326Z</time>
      </trkpt>
      <trkpt lat="51.96596" lon="4.14976">
        <ele>53.382895</ele>
        <time>2024-07-04T08:49:34.323Z</time>
      </trkpt>
      <trkpt lat="51.96605" lon="4.14989">
        <ele>53.27884</ele>
        <time>2024-07-04T08:49:37.326Z</time>
      </trkpt>
      <trkpt lat="51.96614" lon="4.15001">
        <ele>53.176302</ele>
        <time>2024-07-04T08:49:40.325Z</time>
      </trkpt>
      <trkpt lat="51.96623" lon="4.15012">
        <ele>53.077728</ele>
        <time>2024-07-04T08:49:43.319Z</time>
      </trkpt>
      <trkpt lat="51.96633" lon="4.15018">
        <ele>52.987865</ele>
        <time>2024-07-04T08:49:46.314Z</time>
      </trkpt>
      <trkpt lat="51.96643" lon="4.15025">
        <ele>52.872391</ele>
        <time>2024-07-04T08:49:49.312Z</time>
      </trkpt>
      <trkpt lat="51.96652" lon="4.15034">
        <ele>52.746397</ele>
        <time>2024-07-04T08:49:52.312Z</time>
      </trkpt>
      <trkpt lat="51.96661" lon="4.1503">
        <ele>52.629208</ele>
        <time>2024-07-04T08:49:56.292Z</time>
      </trkpt>
      <trkpt lat="51.96667" lon="4.15014">
        <ele>52.495754</ele>
        <time>2024-07-04T08:50:00.316Z</time>
      </trkpt>
      <trkpt lat="51.96672" lon="4.15001">
        <ele>52.379823</ele>
        <time>2024-07-04T08:50:03.311Z</time>
      </trkpt>
      <trkpt lat="51.96678" lon="4.14986">
        <ele>52.250774</ele>
        <time>2024-07-04T08:50:07.308Z</time>
      </trkpt>
      <trkpt lat="51.96683" lon="4.14973">
        <ele>52.140406</ele>
        <time>2024-07-04T08:50:11.323Z</time>
      </trkpt>
      <trkpt lat="51.96688" lon="4.1496">
        <ele>52.02811</ele>
        <time>2024-07-04T08:50:16.299Z</time>
      </trkpt>
      <trkpt lat="51.96694" lon="4.14946">
        <ele>51.905318</ele>
        <time>2024-07-04T08:50:27.304Z</time>
      </trkpt>
      <trkpt lat="51.967" lon="4.1493">
        <ele>51.769414</ele>
        <time>2024-07-04T08:50:32.298Z</time>
      </trkpt>
      <trkpt lat="51.96705" lon="4.14916">
        <ele>51.647784</ele>
        <time>2024-07-04T08:50:37.308Z</time>
      </trkpt>
      <trkpt lat="51.96711" lon="4.14904">
        <ele>51.534215</ele>
        <time>2024-07-04T08:50:42.311Z</time>
      </trkpt>
      <trkpt lat="51.96716" lon="4.14892">
        <ele>51.426719</ele>
        <time>2024-07-04T08:50:45.309Z</time>
      </trkpt>
      <trkpt lat="51.96721" lon="4.14879">
        <ele>51.319489</ele>
        <time>2024-07-04T08:50:48.316Z</time>
      </trkpt>
      <trkpt lat="51.96726" lon="4.14866">
        <ele>51.204152</ele>
        <time>2024-07-04T08:50:51.331Z</time>
      </trkpt>
      <trkpt lat="51.96731" lon="4.14853">
        <ele>51.088703</ele>
        <time>2024-07-04T08:50:54.318Z</time>
      </trkpt>
      <trkpt lat="51.96737" lon="4.14838">
        <ele>50.964666</ele>
        <time>2024-07-04T08:50:57.321Z</time>
      </trkpt>
      <trkpt lat="51.96742" lon="4.14826">
        <ele>50.851406</ele>
        <time>2024-07-04T08:51:00.316Z</time>
      </trkpt>
      <trkpt lat="51.96747" lon="4.14812">
        <ele>50.915762</ele>
        <time>2024-07-04T08:51:03.308Z</time>
      </trkpt>
      <trkpt lat="51.96755" lon="4.148">
        <ele>51.036008</ele>
        <time>2024-07-04T08:51:07.312Z</time>
      </trkpt>
      <trkpt lat="51.96764" lon="4.14807">
        <ele>51.151341</ele>
        <time>2024-07-04T08:51:11.318Z</time>
      </trkpt>
      <trkpt lat="51.9677" lon="4.14818">
        <ele>51.250487</ele>
        <time>2024-07-04T08:51:14.309Z</time>
      </trkpt>
      <trkpt lat="51.96775" lon="4.14835">
        <ele>51.372407</ele>
        <time>2024-07-04T08:51:18.308Z</time>
      </trkpt>
      <trkpt lat="51.96785" lon="4.14829">
        <ele>51.480826</ele>
        <time>2024-07-04T08:51:22.313Z</time>
      </trkpt>
      <trkpt lat="51.96792" lon="4.14815">
        <ele>51.602862</ele>
        <time>2024-07-04T08:51:26.296Z</time>
      </trkpt>
      <trkpt lat="51.96799" lon="4.14802">
        <ele>51.7233</ele>
        <time>2024-07-04T08:51:30.321Z</time>
      </trkpt>
      <trkpt lat="51.9681" lon="4.14797">
        <ele>51.848243</ele>
        <time>2024-07-04T08:51:34.304Z</time>
      </trkpt>
      <trkpt lat="51.96821" lon="4.148">
        <ele>51.965772</ele>
        <time>2024-07-04T08:51:38.317Z</time>
      </trkpt>
      <trkpt lat="51.96831" lon="4.14811">
        <ele>52.09568</ele>
        <time>2024-07-04T08:51:42.298Z</time>
      </trkpt>
      <trkpt lat="51.96842" lon="4.14817">
        <ele>52.229514</ele>
        <time>2024-07-04T08:51:46.319Z</time>
      </trkpt>
      <trkpt lat="51.96851" lon="4.14815">
        <ele>52.330609</ele>
        <time>2024-07-04T08:51:49.300Z</time>
      </trkpt>
      <trkpt lat="51.96859" lon="4.14808">
        <ele>52.429884</ele>
        <time>2024-07-04T08:51:52.312Z</time>
      </trkpt>
      <trkpt lat="51.96868" lon="4.14806">
        <ele>52.530661</ele>
        <time>2024-07-04T08:51:55.325Z</time>
      </trkpt>
      <trkpt lat="51.9688" lon="4.148">
        <ele>52.660477</ele>
        <time>2024-07-04T08:51:59.305Z</time>
      </trkpt>
      <trkpt lat="51.96881" lon="4.14785">
        <ele>52.760166</ele>
        <time>2024-07-04T08:52:02.315Z</time>
      </trkpt>
      <trkpt lat="51.9688" lon="4.14771">
        <ele>52.935155</ele>
        <time>2024-07-04T08:52:05.317Z</time>
      </trkpt>
      <trkpt lat="51.96878" lon="4.14756">
        <ele>53.172459</ele>
        <time>2024-07-04T08:52:08.313Z</time>
      </trkpt>
      <trkpt lat="51.96876" lon="4.14737">
        <ele>53.464167</ele>
        <time>2024-07-04T08:52:12.311Z</time>
      </trkpt>
      <trkpt lat="51.96875" lon="4.14722">
        <ele>53.702841</ele>
        <time>2024-07-04T08:52:15.315Z</time>
      </trkpt>
      <trkpt lat="51.96873" lon="4.14707">
        <ele>53.934435</ele>
        <time>2024-07-04T08:52:18.311Z</time>
      </trkpt>
      <trkpt lat="51.96871" lon="4.14692">
        <ele>54.171166</ele>
        <time>2024-07-04T08:52:21.311Z</time>
      </trkpt>
      <trkpt lat="51.96869" lon="4.14676">
        <ele>54.422369</ele>
        <time>2024-07-04T08:52:24.308Z</time>
      </trkpt>
      <trkpt lat="51.96868" lon="4.14658">
        <ele>54.688283</ele>
        <time>2024-07-04T08:52:27.319Z</time>
      </trkpt>
      <trkpt lat="51.96868" lon="4.14641">
        <ele>54.963128</ele>
        <time>2024-07-04T08:52:30.301Z</time>
      </trkpt>
      <trkpt lat="51.96871" lon="4.14623">
        <ele>55.247101</ele>
        <time>2024-07-04T08:52:33.308Z</time>
      </trkpt>
      <trkpt lat="51.96876" lon="4.14605">
        <ele>55.540178</ele>
        <time>2024-07-04T08:52:36.307Z</time>
      </trkpt>
      <trkpt lat="51.96882" lon="4.1459">
        <ele>55.819886</ele>
        <time>2024-07-04T08:52:39.322Z</time>
      </trkpt>
      <trkpt lat="51.96888" lon="4.14575">
        <ele>56.095732</ele>
        <time>2024-07-04T08:52:42.294Z</time>
      </trkpt>
      <trkpt lat="51.96894" lon="4.1456">
        <ele>56.369096</ele>
        <time>2024-07-04T08:52:45.307Z</time>
      </trkpt>
      <trkpt lat="51.969" lon="4.14546">
        <ele>56.63182</ele>
        <time>2024-07-04T08:52:48.310Z</time>
      </trkpt>
      <trkpt lat="51.96906" lon="4.14531">
        <ele>56.899769</ele>
        <time>2024-07-04T08:52:51.316Z</time>
      </trkpt>
      <trkpt lat="51.96911" lon="4.14517">
        <ele>57.162493</ele>
        <time>2024-07-04T08:52:54.319Z</time>
      </trkpt>
      <trkpt lat="51.96917" lon="4.14502">
        <ele>57.264858</ele>
        <time>2024-07-04T08:52:57.313Z</time>
      </trkpt>
      <trkpt lat="51.96923" lon="4.14487">
        <ele>57.233279</ele>
        <time>2024-07-04T08:53:00.310Z</time>
      </trkpt>
      <trkpt lat="51.9693" lon="4.14471">
        <ele>57.200223</ele>
        <time>2024-07-04T08:53:03.318Z</time>
      </trkpt>
      <trkpt lat="51.96936" lon="4.14456">
        <ele>57.168936</ele>
        <time>2024-07-04T08:53:06.311Z</time>
      </trkpt>
      <trkpt lat="51.96942" lon="4.14441">
        <ele>57.137517</ele>
        <time>2024-07-04T08:53:09.323Z</time>
      </trkpt>
      <trkpt lat="51.96947" lon="4.14426">
        <ele>57.106246</ele>
        <time>2024-07-04T08:53:12.312Z</time>
      </trkpt>
      <trkpt lat="51.96953" lon="4.1441">
        <ele>57.073787</ele>
        <time>2024-07-04T08:53:15.318Z</time>
      </trkpt>
      <trkpt lat="51.9696" lon="4.14395">
        <ele>57.041714</ele>
        <time>2024-07-04T08:53:18.318Z</time>
      </trkpt>
      <trkpt lat="51.96966" lon="4.14379">
        <ele>57.009552</ele>
        <time>2024-07-04T08:53:21.306Z</time>
      </trkpt>
      <trkpt lat="51.96972" lon="4.14365">
        <ele>56.978252</ele>
        <time>2024-07-04T08:53:24.311Z</time>
      </trkpt>
      <trkpt lat="51.96978" lon="4.1435">
        <ele>56.947129</ele>
        <time>2024-07-04T08:53:27.296Z</time>
      </trkpt>
      <trkpt lat="51.96983" lon="4.14336">
        <ele>56.918686</ele>
        <time>2024-07-04T08:53:30.304Z</time>
      </trkpt>
      <trkpt lat="51.9699" lon="4.14321">
        <ele>56.887386</ele>
        <time>2024-07-04T08:53:33.321Z</time>
      </trkpt>
      <trkpt lat="51.96995" lon="4.14306">
        <ele>56.857252</ele>
        <time>2024-07-04T08:53:36.304Z</time>
      </trkpt>
      <trkpt lat="51.97001" lon="4.14292">
        <ele>56.826671</ele>
        <time>2024-07-04T08:53:39.282Z</time>
      </trkpt>
      <trkpt lat="51.97007" lon="4.14277">
        <ele>56.796147</ele>
        <time>2024-07-04T08:53:42.290Z</time>
      </trkpt>
      <trkpt lat="51.97013" lon="4.14261">
        <ele>56.763462</ele>
        <time>2024-07-04T08:53:45.323Z</time>
      </trkpt>
      <trkpt lat="51.97018" lon="4.14247">
        <ele>56.73156</ele>
        <time>2024-07-04T08:53:48.310Z</time>
      </trkpt>
      <trkpt lat="51.97023" lon="4.14233">
        <ele>56.701401</ele>
        <time>2024-07-04T08:53:51.307Z</time>
      </trkpt>
      <trkpt lat="51.97029" lon="4.14218">
        <ele>56.66823</ele>
        <time>2024-07-04T08:53:54.307Z</time>
      </trkpt>
      <trkpt lat="51.97035" lon="4.14205">
        <ele>56.63862</ele>
        <time>2024-07-04T08:53:57.324Z</time>
      </trkpt>
      <trkpt lat="51.97041" lon="4.14192">
        <ele>56.607311</ele>
        <time>2024-07-04T08:54:00.309Z</time>
      </trkpt>
      <trkpt lat="51.97048" lon="4.14178">
        <ele>56.574312</ele>
        <time>2024-07-04T08:54:03.320Z</time>
      </trkpt>
      <trkpt lat="51.97056" lon="4.14167">
        <ele>56.542175</ele>
        <time>2024-07-04T08:54:06.325Z</time>
      </trkpt>
      <trkpt lat="51.97063" lon="4.14156">
        <ele>56.511217</ele>
        <time>2024-07-04T08:54:09.316Z</time>
      </trkpt>
      <trkpt lat="51.97071" lon="4.14144">
        <ele>56.47985</ele>
        <time>2024-07-04T08:54:12.312Z</time>
      </trkpt>
      <trkpt lat="51.97079" lon="4.14133">
        <ele>56.447271</ele>
        <time>2024-07-04T08:54:15.316Z</time>
      </trkpt>
      <trkpt lat="51.97087" lon="4.14123">
        <ele>56.415284</ele>
        <time>2024-07-04T08:54:18.317Z</time>
      </trkpt>
      <trkpt lat="51.97096" lon="4.14112">
        <ele>56.383059</ele>
        <time>2024-07-04T08:54:21.316Z</time>
      </trkpt>
      <trkpt lat="51.97103" lon="4.14099">
        <ele>56.350113</ele>
        <time>2024-07-04T08:54:24.292Z</time>
      </trkpt>
      <trkpt lat="51.9711" lon="4.14086">
        <ele>56.317633</ele>
        <time>2024-07-04T08:54:27.321Z</time>
      </trkpt>
      <trkpt lat="51.97117" lon="4.14073">
        <ele>56.285512</ele>
        <time>2024-07-04T08:54:30.314Z</time>
      </trkpt>
      <trkpt lat="51.97123" lon="4.1406">
        <ele>56.253903</ele>
        <time>2024-07-04T08:54:33.322Z</time>
      </trkpt>
      <trkpt lat="51.9713" lon="4.14046">
        <ele>56.228065</ele>
        <time>2024-07-04T08:54:36.322Z</time>
      </trkpt>
      <trkpt lat="51.97136" lon="4.14032">
        <ele>56.26541</ele>
        <time>2024-07-04T08:54:39.316Z</time>
      </trkpt>
      <trkpt lat="51.97142" lon="4.14019">
        <ele>56.301948</ele>
        <time>2024-07-04T08:54:42.303Z</time>
      </trkpt>
      <trkpt lat="51.97148" lon="4.14004">
        <ele>56.340059</ele>
        <time>2024-07-04T08:54:45.314Z</time>
      </trkpt>
      <trkpt lat="51.97155" lon="4.1399">
        <ele>56.37884</ele>
        <time>2024-07-04T08:54:48.316Z</time>
      </trkpt>
      <trkpt lat="51.97162" lon="4.13976">
        <ele>56.41706</ele>
        <time>2024-07-04T08:54:51.311Z</time>
      </trkpt>
      <trkpt lat="51.97168" lon="4.13961">
        <ele>56.45756</ele>
        <time>2024-07-04T08:54:54.318Z</time>
      </trkpt>
      <trkpt lat="51.97175" lon="4.13946">
        <ele>56.498215</ele>
        <time>2024-07-04T08:54:57.308Z</time>
      </trkpt>
      <trkpt lat="51.97181" lon="4.13931">
        <ele>56.538512</ele>
        <time>2024-07-04T08:55:00.316Z</time>
      </trkpt>
      <trkpt lat="51.97188" lon="4.13915">
        <ele>56.58072</ele>
        <time>2024-07-04T08:55:03.331Z</time>
      </trkpt>
      <trkpt lat="51.97195" lon="4.139">
        <ele>56.622015</ele>
        <time>2024-07-04T08:55:06.318Z</time>
      </trkpt>
      <trkpt lat="51.97202" lon="4.13882">
        <ele>56.667091</ele>
        <time>2024-07-04T08:55:09.319Z</time>
      </trkpt>
      <trkpt lat="51.9721" lon="4.13866">
        <ele>56.711573</ele>
        <time>2024-07-04T08:55:12.316Z</time>
      </trkpt>
      <trkpt lat="51.97217" lon="4.13849">
        <ele>56.756664</ele>
        <time>2024-07-04T08:55:15.315Z</time>
      </trkpt>
      <trkpt lat="51.97224" lon="4.13832">
        <ele>56.800551</ele>
        <time>2024-07-04T08:55:18.311Z</time>
      </trkpt>
      <trkpt lat="51.97231" lon="4.13815">
        <ele>56.846039</ele>
        <time>2024-07-04T08:55:21.320Z</time>
      </trkpt>
      <trkpt lat="51.97238" lon="4.13799">
        <ele>56.902717</ele>
        <time>2024-07-04T08:55:24.314Z</time>
      </trkpt>
      <trkpt lat="51.97245" lon="4.13785">
        <ele>56.961227</ele>
        <time>2024-07-04T08:55:27.320Z</time>
      </trkpt>
      <trkpt lat="51.97255" lon="4.13772">
        <ele>57.027372</ele>
        <time>2024-07-04T08:55:30.303Z</time>
      </trkpt>
      <trkpt lat="51.97263" lon="4.13758">
        <ele>57.090375</ele>
        <time>2024-07-04T08:55:33.304Z</time>
      </trkpt>
      <trkpt lat="51.97271" lon="4.13744">
        <ele>57.152084</ele>
        <time>2024-07-04T08:55:36.307Z</time>
      </trkpt>
      <trkpt lat="51.97278" lon="4.1373">
        <ele>57.210594</ele>
        <time>2024-07-04T08:55:39.322Z</time>
      </trkpt>
      <trkpt lat="51.97286" lon="4.13716">
        <ele>57.271711</ele>
        <time>2024-07-04T08:55:42.293Z</time>
      </trkpt>
      <trkpt lat="51.97292" lon="4.137">
        <ele>57.332437</ele>
        <time>2024-07-04T08:55:45.314Z</time>
      </trkpt>
      <trkpt lat="51.973" lon="4.13686">
        <ele>57.394038</ele>
        <time>2024-07-04T08:55:48.305Z</time>
      </trkpt>
      <trkpt lat="51.97306" lon="4.13671">
        <ele>57.452755</ele>
        <time>2024-07-04T08:55:51.297Z</time>
      </trkpt>
      <trkpt lat="51.97312" lon="4.13657">
        <ele>57.509262</ele>
        <time>2024-07-04T08:55:54.318Z</time>
      </trkpt>
      <trkpt lat="51.97319" lon="4.13643">
        <ele>57.567893</ele>
        <time>2024-07-04T08:55:57.306Z</time>
      </trkpt>
      <trkpt lat="51.97325" lon="4.13628">
        <ele>57.625013</ele>
        <time>2024-07-04T08:56:00.312Z</time>
      </trkpt>
      <trkpt lat="51.97332" lon="4.13613">
        <ele>57.686934</ele>
        <time>2024-07-04T08:56:03.322Z</time>
      </trkpt>
      <trkpt lat="51.97339" lon="4.136">
        <ele>57.740029</ele>
        <time>2024-07-04T08:56:06.318Z</time>
      </trkpt>
      <trkpt lat="51.97345" lon="4.13585">
        <ele>57.798779</ele>
        <time>2024-07-04T08:56:09.317Z</time>
      </trkpt>
      <trkpt lat="51.97351" lon="4.1357">
        <ele>57.721894</ele>
        <time>2024-07-04T08:56:12.308Z</time>
      </trkpt>
      <trkpt lat="51.97357" lon="4.13556">
        <ele>57.614662</ele>
        <time>2024-07-04T08:56:15.313Z</time>
      </trkpt>
      <trkpt lat="51.97362" lon="4.13539">
        <ele>57.502422</ele>
        <time>2024-07-04T08:56:18.306Z</time>
      </trkpt>
      <trkpt lat="51.97366" lon="4.13522">
        <ele>57.393066</ele>
        <time>2024-07-04T08:56:21.313Z</time>
      </trkpt>
      <trkpt lat="51.9737" lon="4.13504">
        <ele>57.27649</ele>
        <time>2024-07-04T08:56:24.321Z</time>
      </trkpt>
      <trkpt lat="51.97375" lon="4.13486">
        <ele>57.157305</ele>
        <time>2024-07-04T08:56:27.315Z</time>
      </trkpt>
      <trkpt lat="51.9738" lon="4.13469">
        <ele>57.046709</ele>
        <time>2024-07-04T08:56:30.307Z</time>
      </trkpt>
      <trkpt lat="51.97383" lon="4.13452">
        <ele>56.940741</ele>
        <time>2024-07-04T08:56:33.312Z</time>
      </trkpt>
      <trkpt lat="51.97388" lon="4.13436">
        <ele>56.834387</ele>
        <time>2024-07-04T08:56:36.312Z</time>
      </trkpt>
      <trkpt lat="51.97391" lon="4.13422">
        <ele>56.741165</ele>
        <time>2024-07-04T08:56:39.310Z</time>
      </trkpt>
      <trkpt lat="51.97395" lon="4.13406">
        <ele>56.640486</ele>
        <time>2024-07-04T08:56:42.309Z</time>
      </trkpt>
      <trkpt lat="51.97398" lon="4.1339">
        <ele>56.540274</ele>
        <time>2024-07-04T08:56:45.325Z</time>
      </trkpt>
      <trkpt lat="51.974" lon="4.13374">
        <ele>56.441577</ele>
        <time>2024-07-04T08:56:48.298Z</time>
      </trkpt>
      <trkpt lat="51.97401" lon="4.13359">
        <ele>56.347461</ele>
        <time>2024-07-04T08:56:51.317Z</time>
      </trkpt>
      <trkpt lat="51.97403" lon="4.13342">
        <ele>56.245638</ele>
        <time>2024-07-04T08:56:54.318Z</time>
      </trkpt>
      <trkpt lat="51.97406" lon="4.13326">
        <ele>56.142724</ele>
        <time>2024-07-04T08:56:57.300Z</time>
      </trkpt>
      <trkpt lat="51.97409" lon="4.13308">
        <ele>56.034699</ele>
        <time>2024-07-04T08:57:00.310Z</time>
      </trkpt>
      <trkpt lat="51.97413" lon="4.13293">
        <ele>55.940207</ele>
        <time>2024-07-04T08:57:03.313Z</time>
      </trkpt>
      <trkpt lat="51.97417" lon="4.13278">
        <ele>55.85081</ele>
        <time>2024-07-04T08:57:06.313Z</time>
      </trkpt>
      <trkpt lat="51.97423" lon="4.13265">
        <ele>55.757722</ele>
        <time>2024-07-04T08:57:09.294Z</time>
      </trkpt>
      <trkpt lat="51.97429" lon="4.13251">
        <ele>55.658345</ele>
        <time>2024-07-04T08:57:12.305Z</time>
      </trkpt>
      <trkpt lat="51.97435" lon="4.13235">
        <ele>55.549808</ele>
        <time>2024-07-04T08:57:15.318Z</time>
      </trkpt>
      <trkpt lat="51.97443" lon="4.13219">
        <ele>55.430754</ele>
        <time>2024-07-04T08:57:18.298Z</time>
      </trkpt>
      <trkpt lat="51.97452" lon="4.13207">
        <ele>55.32484</ele>
        <time>2024-07-04T08:57:21.327Z</time>
      </trkpt>
      <trkpt lat="51.9746" lon="4.13196">
        <ele>55.228629</ele>
        <time>2024-07-04T08:57:24.325Z</time>
      </trkpt>
      <trkpt lat="51.97468" lon="4.13189">
        <ele>55.139391</ele>
        <time>2024-07-04T08:57:27.320Z</time>
      </trkpt>
      <trkpt lat="51.97475" lon="4.13177">
        <ele>55.048282</ele>
        <time>2024-07-04T08:57:30.290Z</time>
      </trkpt>
      <trkpt lat="51.97483" lon="4.13163">
        <ele>54.941847</ele>
        <time>2024-07-04T08:57:33.300Z</time>
      </trkpt>
      <trkpt lat="51.97489" lon="4.13147">
        <ele>54.832288</ele>
        <time>2024-07-04T08:57:36.320Z</time>
      </trkpt>
      <trkpt lat="51.97495" lon="4.13132">
        <ele>54.729098</ele>
        <time>2024-07-04T08:57:39.311Z</time>
      </trkpt>
      <trkpt lat="51.97501" lon="4.13117">
        <ele>54.627668</ele>
        <time>2024-07-04T08:57:42.296Z</time>
      </trkpt>
      <trkpt lat="51.97508" lon="4.13103">
        <ele>54.528099</ele>
        <time>2024-07-04T08:57:45.308Z</time>
      </trkpt>
      <trkpt lat="51.97514" lon="4.13089">
        <ele>54.428139</ele>
        <time>2024-07-04T08:57:48.313Z</time>
      </trkpt>
      <trkpt lat="51.9752" lon="4.13073">
        <ele>54.341313</ele>
        <time>2024-07-04T08:57:51.326Z</time>
      </trkpt>
      <trkpt lat="51.97527" lon="4.13059">
        <ele>54.277048</ele>
        <time>2024-07-04T08:57:54.314Z</time>
      </trkpt>
      <trkpt lat="51.97533" lon="4.13045">
        <ele>54.213201</ele>
        <time>2024-07-04T08:57:57.312Z</time>
      </trkpt>
      <trkpt lat="51.97539" lon="4.1303">
        <ele>54.148065</ele>
        <time>2024-07-04T08:58:00.304Z</time>
      </trkpt>
      <trkpt lat="51.97545" lon="4.13016">
        <ele>54.083392</ele>
        <time>2024-07-04T08:58:03.294Z</time>
      </trkpt>
      <trkpt lat="51.97551" lon="4.13002">
        <ele>54.019128</ele>
        <time>2024-07-04T08:58:06.312Z</time>
      </trkpt>
      <trkpt lat="51.97558" lon="4.12988">
        <ele>53.954157</ele>
        <time>2024-07-04T08:58:09.318Z</time>
      </trkpt>
      <trkpt lat="51.97563" lon="4.12974">
        <ele>53.890973</ele>
        <time>2024-07-04T08:58:12.315Z</time>
      </trkpt>
      <trkpt lat="51.97569" lon="4.12962">
        <ele>53.835838</ele>
        <time>2024-07-04T08:58:15.309Z</time>
      </trkpt>
      <trkpt lat="51.97575" lon="4.12948">
        <ele>53.771922</ele>
        <time>2024-07-04T08:58:18.304Z</time>
      </trkpt>
      <trkpt lat="51.97581" lon="4.12934">
        <ele>53.709158</ele>
        <time>2024-07-04T08:58:21.315Z</time>
      </trkpt>
      <trkpt lat="51.97587" lon="4.12922">
        <ele>53.650742</ele>
        <time>2024-07-04T08:58:24.312Z</time>
      </trkpt>
      <trkpt lat="51.97593" lon="4.12906">
        <ele>53.581856</ele>
        <time>2024-07-04T08:58:28.319Z</time>
      </trkpt>
      <trkpt lat="51.97599" lon="4.12894">
        <ele>53.524427</ele>
        <time>2024-07-04T08:58:31.309Z</time>
      </trkpt>
      <trkpt lat="51.97605" lon="4.12881">
        <ele>53.465837</ele>
        <time>2024-07-04T08:58:34.321Z</time>
      </trkpt>
      <trkpt lat="51.97611" lon="4.12867">
        <ele>53.403178</ele>
        <time>2024-07-04T08:58:38.309Z</time>
      </trkpt>
      <trkpt lat="51.97617" lon="4.12854">
        <ele>53.342482</ele>
        <time>2024-07-04T08:58:42.316Z</time>
      </trkpt>
      <trkpt lat="51.9762" lon="4.1284">
        <ele>53.309846</ele>
        <time>2024-07-04T08:58:49.306Z</time>
      </trkpt>
      <trkpt lat="51.97612" lon="4.12827">
        <ele>53.35278</ele>
        <time>2024-07-04T08:59:09.314Z</time>
      </trkpt>
      <trkpt lat="51.97604" lon="4.12814">
        <ele>53.39594</ele>
        <time>2024-07-04T08:59:13.326Z</time>
      </trkpt>
      <trkpt lat="51.97597" lon="4.12799">
        <ele>53.438462</ele>
        <time>2024-07-04T08:59:17.323Z</time>
      </trkpt>
      <trkpt lat="51.97595" lon="4.12783">
        <ele>53.475683</ele>
        <time>2024-07-04T08:59:21.315Z</time>
      </trkpt>
      <trkpt lat="51.97601" lon="4.12771">
        <ele>53.512432</ele>
        <time>2024-07-04T08:59:24.314Z</time>
      </trkpt>
      <trkpt lat="51.9761" lon="4.12761">
        <ele>53.55287</ele>
        <time>2024-07-04T08:59:27.314Z</time>
      </trkpt>
      <trkpt lat="51.97619" lon="4.1275">
        <ele>53.59638</ele>
        <time>2024-07-04T08:59:30.317Z</time>
      </trkpt>
      <trkpt lat="51.97629" lon="4.1274">
        <ele>53.639733</ele>
        <time>2024-07-04T08:59:33.326Z</time>
      </trkpt>
      <trkpt lat="51.97638" lon="4.12731">
        <ele>53.680036</ele>
        <time>2024-07-04T08:59:36.316Z</time>
      </trkpt>
      <trkpt lat="51.97647" lon="4.12722">
        <ele>53.721982</ele>
        <time>2024-07-04T08:59:39.321Z</time>
      </trkpt>
      <trkpt lat="51.97657" lon="4.12715">
        <ele>53.763265</ele>
        <time>2024-07-04T08:59:42.313Z</time>
      </trkpt>
      <trkpt lat="51.97668" lon="4.12709">
        <ele>53.805383</ele>
        <time>2024-07-04T08:59:45.311Z</time>
      </trkpt>
      <trkpt lat="51.97678" lon="4.12703">
        <ele>53.84545</ele>
        <time>2024-07-04T08:59:48.309Z</time>
      </trkpt>
      <trkpt lat="51.97688" lon="4.12697">
        <ele>53.888081</ele>
        <time>2024-07-04T08:59:51.312Z</time>
      </trkpt>
      <trkpt lat="51.97699" lon="4.1269">
        <ele>53.929374</ele>
        <time>2024-07-04T08:59:54.297Z</time>
      </trkpt>
      <trkpt lat="51.97708" lon="4.12684">
        <ele>53.968734</ele>
        <time>2024-07-04T08:59:57.314Z</time>
      </trkpt>
      <trkpt lat="51.97716" lon="4.12673">
        <ele>54.083778</ele>
        <time>2024-07-04T09:00:01.315Z</time>
      </trkpt>
      <trkpt lat="51.97722" lon="4.1266">
        <ele>54.234931</ele>
        <time>2024-07-04T09:00:04.301Z</time>
      </trkpt>
      <trkpt lat="51.97728" lon="4.12646">
        <ele>54.383034</ele>
        <time>2024-07-04T09:00:07.310Z</time>
      </trkpt>
      <trkpt lat="51.97733" lon="4.12632">
        <ele>54.535027</ele>
        <time>2024-07-04T09:00:10.313Z</time>
      </trkpt>
      <trkpt lat="51.97738" lon="4.12618">
        <ele>54.687806</ele>
        <time>2024-07-04T09:00:13.318Z</time>
      </trkpt>
      <trkpt lat="51.97742" lon="4.12603">
        <ele>54.832705</ele>
        <time>2024-07-04T09:00:16.294Z</time>
      </trkpt>
      <trkpt lat="51.97748" lon="4.12589">
        <ele>54.990898</ele>
        <time>2024-07-04T09:00:19.297Z</time>
      </trkpt>
      <trkpt lat="51.97753" lon="4.12573">
        <ele>55.152324</ele>
        <time>2024-07-04T09:00:22.319Z</time>
      </trkpt>
      <trkpt lat="51.97758" lon="4.12557">
        <ele>55.318947</ele>
        <time>2024-07-04T09:00:25.312Z</time>
      </trkpt>
      <trkpt lat="51.97764" lon="4.12542">
        <ele>55.478683</ele>
        <time>2024-07-04T09:00:28.307Z</time>
      </trkpt>
      <trkpt lat="51.9777" lon="4.12525">
        <ele>55.656232</ele>
        <time>2024-07-04T09:00:31.308Z</time>
      </trkpt>
      <trkpt lat="51.97776" lon="4.12508">
        <ele>55.831773</ele>
        <time>2024-07-04T09:00:34.321Z</time>
      </trkpt>
      <trkpt lat="51.9778" lon="4.12491">
        <ele>56.005374</ele>
        <time>2024-07-04T09:00:37.313Z</time>
      </trkpt>
      <trkpt lat="51.97786" lon="4.12474">
        <ele>56.180019</ele>
        <time>2024-07-04T09:00:40.302Z</time>
      </trkpt>
      <trkpt lat="51.97792" lon="4.12456">
        <ele>56.363982</ele>
        <time>2024-07-04T09:00:43.317Z</time>
      </trkpt>
      <trkpt lat="51.97798" lon="4.12439">
        <ele>56.536417</ele>
        <time>2024-07-04T09:00:46.326Z</time>
      </trkpt>
      <trkpt lat="51.97802" lon="4.12423">
        <ele>56.594142</ele>
        <time>2024-07-04T09:00:49.317Z</time>
      </trkpt>
      <trkpt lat="51.97808" lon="4.12408">
        <ele>56.458185</ele>
        <time>2024-07-04T09:00:52.317Z</time>
      </trkpt>
      <trkpt lat="51.97814" lon="4.12392">
        <ele>56.322932</ele>
        <time>2024-07-04T09:00:55.318Z</time>
      </trkpt>
      <trkpt lat="51.97819" lon="4.12376">
        <ele>56.183091</ele>
        <time>2024-07-04T09:00:58.311Z</time>
      </trkpt>
      <trkpt lat="51.97825" lon="4.12359">
        <ele>56.042427</ele>
        <time>2024-07-04T09:01:01.320Z</time>
      </trkpt>
      <trkpt lat="51.9783" lon="4.12341">
        <ele>55.895568</ele>
        <time>2024-07-04T09:01:04.303Z</time>
      </trkpt>
      <trkpt lat="51.97837" lon="4.12324">
        <ele>55.748935</ele>
        <time>2024-07-04T09:01:07.315Z</time>
      </trkpt>
      <trkpt lat="51.97843" lon="4.12308">
        <ele>55.609889</ele>
        <time>2024-07-04T09:01:10.313Z</time>
      </trkpt>
      <trkpt lat="51.97848" lon="4.12293">
        <ele>55.474576</ele>
        <time>2024-07-04T09:01:13.320Z</time>
      </trkpt>
      <trkpt lat="51.97854" lon="4.12277">
        <ele>55.336768</ele>
        <time>2024-07-04T09:01:16.321Z</time>
      </trkpt>
      <trkpt lat="51.97859" lon="4.12262">
        <ele>55.211296</ele>
        <time>2024-07-04T09:01:19.315Z</time>
      </trkpt>
      <trkpt lat="51.97864" lon="4.12247">
        <ele>55.091636</ele>
        <time>2024-07-04T09:01:22.309Z</time>
      </trkpt>
      <trkpt lat="51.97868" lon="4.12234">
        <ele>54.976466</ele>
        <time>2024-07-04T09:01:25.317Z</time>
      </trkpt>
      <trkpt lat="51.97871" lon="4.1222">
        <ele>54.867881</ele>
        <time>2024-07-04T09:01:28.301Z</time>
      </trkpt>
      <trkpt lat="51.97864" lon="4.12207">
        <ele>54.740499</ele>
        <time>2024-07-04T09:01:31.314Z</time>
      </trkpt>
      <trkpt lat="51.97854" lon="4.12197">
        <ele>54.599831</ele>
        <time>2024-07-04T09:01:34.315Z</time>
      </trkpt>
      <trkpt lat="51.97845" lon="4.12186">
        <ele>54.4693</ele>
        <time>2024-07-04T09:01:37.312Z</time>
      </trkpt>
      <trkpt lat="51.97835" lon="4.12173">
        <ele>54.430927</ele>
        <time>2024-07-04T09:01:40.307Z</time>
      </trkpt>
      <trkpt lat="51.97825" lon="4.12162">
        <ele>54.39374</ele>
        <time>2024-07-04T09:01:43.306Z</time>
      </trkpt>
      <trkpt lat="51.9782" lon="4.12146">
        <ele>54.360977</ele>
        <time>2024-07-04T09:01:46.289Z</time>
      </trkpt>
      <trkpt lat="51.97823" lon="4.12131">
        <ele>54.329792</ele>
        <time>2024-07-04T09:01:49.308Z</time>
      </trkpt>
      <trkpt lat="51.97828" lon="4.12115">
        <ele>54.296208</ele>
        <time>2024-07-04T09:01:52.317Z</time>
      </trkpt>
      <trkpt lat="51.97833" lon="4.121">
        <ele>54.263413</ele>
        <time>2024-07-04T09:01:55.311Z</time>
      </trkpt>
      <trkpt lat="51.97838" lon="4.12084">
        <ele>54.230104</ele>
        <time>2024-07-04T09:01:58.316Z</time>
      </trkpt>
      <trkpt lat="51.97843" lon="4.12069">
        <ele>54.197223</ele>
        <time>2024-07-04T09:02:01.315Z</time>
      </trkpt>
      <trkpt lat="51.97848" lon="4.12053">
        <ele>54.163667</ele>
        <time>2024-07-04T09:02:04.305Z</time>
      </trkpt>
      <trkpt lat="51.97853" lon="4.12037">
        <ele>54.128886</ele>
        <time>2024-07-04T09:02:07.314Z</time>
      </trkpt>
      <trkpt lat="51.97857" lon="4.12021">
        <ele>54.096225</ele>
        <time>2024-07-04T09:02:10.312Z</time>
      </trkpt>
      <trkpt lat="51.97862" lon="4.12005">
        <ele>54.062211</ele>
        <time>2024-07-04T09:02:13.286Z</time>
      </trkpt>
      <trkpt lat="51.97867" lon="4.1199">
        <ele>54.029162</ele>
        <time>2024-07-04T09:02:16.318Z</time>
      </trkpt>
      <trkpt lat="51.97872" lon="4.11975">
        <ele>53.99563</ele>
        <time>2024-07-04T09:02:19.312Z</time>
      </trkpt>
      <trkpt lat="51.97877" lon="4.11959">
        <ele>53.962493</ele>
        <time>2024-07-04T09:02:22.314Z</time>
      </trkpt>
      <trkpt lat="51.97881" lon="4.11943">
        <ele>53.929451</ele>
        <time>2024-07-04T09:02:25.319Z</time>
      </trkpt>
      <trkpt lat="51.97886" lon="4.11928">
        <ele>53.934332</ele>
        <time>2024-07-04T09:02:28.304Z</time>
      </trkpt>
      <trkpt lat="51.97891" lon="4.11913">
        <ele>53.966874</ele>
        <time>2024-07-04T09:02:31.294Z</time>
      </trkpt>
      <trkpt lat="51.97896" lon="4.11897">
        <ele>54.002578</ele>
        <time>2024-07-04T09:02:34.310Z</time>
      </trkpt>
      <trkpt lat="51.97901" lon="4.11882">
        <ele>54.037109</ele>
        <time>2024-07-04T09:02:37.321Z</time>
      </trkpt>
      <trkpt lat="51.97905" lon="4.11866">
        <ele>54.070788</ele>
        <time>2024-07-04T09:02:40.313Z</time>
      </trkpt>
      <trkpt lat="51.9791" lon="4.11852">
        <ele>54.103909</ele>
        <time>2024-07-04T09:02:43.319Z</time>
      </trkpt>
      <trkpt lat="51.97915" lon="4.11837">
        <ele>54.137317</ele>
        <time>2024-07-04T09:02:46.311Z</time>
      </trkpt>
      <trkpt lat="51.97919" lon="4.11822">
        <ele>54.170439</ele>
        <time>2024-07-04T09:02:49.316Z</time>
      </trkpt>
      <trkpt lat="51.97924" lon="4.11806">
        <ele>54.205183</ele>
        <time>2024-07-04T09:02:52.314Z</time>
      </trkpt>
      <trkpt lat="51.97929" lon="4.1179">
        <ele>54.239968</ele>
        <time>2024-07-04T09:02:55.302Z</time>
      </trkpt>
      <trkpt lat="51.97933" lon="4.11775">
        <ele>54.273185</ele>
        <time>2024-07-04T09:02:58.308Z</time>
      </trkpt>
      <trkpt lat="51.97938" lon="4.1176">
        <ele>54.306939</ele>
        <time>2024-07-04T09:03:01.323Z</time>
      </trkpt>
      <trkpt lat="51.97943" lon="4.11745">
        <ele>54.340971</ele>
        <time>2024-07-04T09:03:04.312Z</time>
      </trkpt>
      <trkpt lat="51.97948" lon="4.11729">
        <ele>54.376354</ele>
        <time>2024-07-04T09:03:07.295Z</time>
      </trkpt>
      <trkpt lat="51.97953" lon="4.11713">
        <ele>54.410531</ele>
        <time>2024-07-04T09:03:10.320Z</time>
      </trkpt>
      <trkpt lat="51.97958" lon="4.11698">
        <ele>54.444854</ele>
        <time>2024-07-04T09:03:13.307Z</time>
      </trkpt>
      <trkpt lat="51.97963" lon="4.11682">
        <ele>54.479529</ele>
        <time>2024-07-04T09:03:16.313Z</time>
      </trkpt>
      <trkpt lat="51.97968" lon="4.11666">
        <ele>54.57676</ele>
        <time>2024-07-04T09:03:19.322Z</time>
      </trkpt>
      <trkpt lat="51.97973" lon="4.1165">
        <ele>54.708593</ele>
        <time>2024-07-04T09:03:22.300Z</time>
      </trkpt>
      <trkpt lat="51.97976" lon="4.11634">
        <ele>54.835715</ele>
        <time>2024-07-04T09:03:25.310Z</time>
      </trkpt>
      <trkpt lat="51.97981" lon="4.11616">
        <ele>54.97891</ele>
        <time>2024-07-04T09:03:28.316Z</time>
      </trkpt>
      <trkpt lat="51.97987" lon="4.11599">
        <ele>55.120336</ele>
        <time>2024-07-04T09:03:31.312Z</time>
      </trkpt>
      <trkpt lat="51.97993" lon="4.11582">
        <ele>55.269317</ele>
        <time>2024-07-04T09:03:34.311Z</time>
      </trkpt>
      <trkpt lat="51.97998" lon="4.11565">
        <ele>55.404898</ele>
        <time>2024-07-04T09:03:37.307Z</time>
      </trkpt>
      <trkpt lat="51.98003" lon="4.11548">
        <ele>55.543593</ele>
        <time>2024-07-04T09:03:40.316Z</time>
      </trkpt>
      <trkpt lat="51.98008" lon="4.11531">
        <ele>55.683721</ele>
        <time>2024-07-04T09:03:43.314Z</time>
      </trkpt>
      <trkpt lat="51.98014" lon="4.11514">
        <ele>55.822313</ele>
        <time>2024-07-04T09:03:46.314Z</time>
      </trkpt>
      <trkpt lat="51.98019" lon="4.11498">
        <ele>55.959049</ele>
        <time>2024-07-04T09:03:49.320Z</time>
      </trkpt>
      <trkpt lat="51.98025" lon="4.11481">
        <ele>56.095044</ele>
        <time>2024-07-04T09:03:52.304Z</time>
      </trkpt>
      <trkpt lat="51.98031" lon="4.11467">
        <ele>56.225897</ele>
        <time>2024-07-04T09:03:55.314Z</time>
      </trkpt>
      <trkpt lat="51.98037" lon="4.11452">
        <ele>56.359788</ele>
        <time>2024-07-04T09:03:58.313Z</time>
      </trkpt>
      <trkpt lat="51.98043" lon="4.11435">
        <ele>56.502433</ele>
        <time>2024-07-04T09:04:01.312Z</time>
      </trkpt>
      <trkpt lat="51.98049" lon="4.11421">
        <ele>56.630245</ele>
        <time>2024-07-04T09:04:04.314Z</time>
      </trkpt>
      <trkpt lat="51.98055" lon="4.11406">
        <ele>56.434665</ele>
        <time>2024-07-04T09:04:07.295Z</time>
      </trkpt>
      <trkpt lat="51.98062" lon="4.11393">
        <ele>56.210889</ele>
        <time>2024-07-04T09:04:10.304Z</time>
      </trkpt>
      <trkpt lat="51.98069" lon="4.1138">
        <ele>55.989416</ele>
        <time>2024-07-04T09:04:13.316Z</time>
      </trkpt>
      <trkpt lat="51.98076" lon="4.11365">
        <ele>55.75741</ele>
        <time>2024-07-04T09:04:16.323Z</time>
      </trkpt>
      <trkpt lat="51.98082" lon="4.11352">
        <ele>55.541579</ele>
        <time>2024-07-04T09:04:19.315Z</time>
      </trkpt>
      <trkpt lat="51.98088" lon="4.11338">
        <ele>55.324509</ele>
        <time>2024-07-04T09:04:22.319Z</time>
      </trkpt>
      <trkpt lat="51.98095" lon="4.11325">
        <ele>55.107634</ele>
        <time>2024-07-04T09:04:25.316Z</time>
      </trkpt>
      <trkpt lat="51.98101" lon="4.11311">
        <ele>54.886796</ele>
        <time>2024-07-04T09:04:28.300Z</time>
      </trkpt>
      <trkpt lat="51.98107" lon="4.11297">
        <ele>54.672365</ele>
        <time>2024-07-04T09:04:31.317Z</time>
      </trkpt>
      <trkpt lat="51.98114" lon="4.11282">
        <ele>54.441694</ele>
        <time>2024-07-04T09:04:34.318Z</time>
      </trkpt>
      <trkpt lat="51.9812" lon="4.11268">
        <ele>54.20897</ele>
        <time>2024-07-04T09:04:37.315Z</time>
      </trkpt>
      <trkpt lat="51.9813" lon="4.11258">
        <ele>53.984909</ele>
        <time>2024-07-04T09:04:40.299Z</time>
      </trkpt>
      <trkpt lat="51.98133" lon="4.11244">
        <ele>53.788911</ele>
        <time>2024-07-04T09:04:43.323Z</time>
      </trkpt>
      <trkpt lat="51.98132" lon="4.1123">
        <ele>53.598495</ele>
        <time>2024-07-04T09:04:46.304Z</time>
      </trkpt>
      <trkpt lat="51.98128" lon="4.11215">
        <ele>53.394333</ele>
        <time>2024-07-04T09:04:50.315Z</time>
      </trkpt>
      <trkpt lat="51.98119" lon="4.11208">
        <ele>53.186028</ele>
        <time>2024-07-04T09:06:00.305Z</time>
      </trkpt>
      <trkpt lat="51.98126" lon="4.11197">
        <ele>52.989021</ele>
        <time>2024-07-04T09:09:13.297Z</time>
      </trkpt>
      <trkpt lat="51.98126" lon="4.11182">
        <ele>52.813483</ele>
        <time>2024-07-04T09:09:20.301Z</time>
      </trkpt>
      <trkpt lat="51.98123" lon="4.11166">
        <ele>52.63919</ele>
        <time>2024-07-04T09:09:27.301Z</time>
      </trkpt>
      <trkpt lat="51.98121" lon="4.11152">
        <ele>52.484956</ele>
        <time>2024-07-04T09:09:34.309Z</time>
      </trkpt>
      <trkpt lat="51.98119" lon="4.11137">
        <ele>52.330346</ele>
        <time>2024-07-04T09:09:41.293Z</time>
      </trkpt>
      <trkpt lat="51.98119" lon="4.11121">
        <ele>52.16321</ele>
        <time>2024-07-04T09:09:46.319Z</time>
      </trkpt>
      <trkpt lat="51.98117" lon="4.11104">
        <ele>51.983313</ele>
        <time>2024-07-04T09:09:52.299Z</time>
      </trkpt>
      <trkpt lat="51.98119" lon="4.11086">
        <ele>51.79503</ele>
        <time>2024-07-04T09:09:56.298Z</time>
      </trkpt>
      <trkpt lat="51.98122" lon="4.11067">
        <ele>51.592372</ele>
        <time>2024-07-04T09:10:00.309Z</time>
      </trkpt>
      <trkpt lat="51.98126" lon="4.1105">
        <ele>51.397396</ele>
        <time>2024-07-04T09:10:04.308Z</time>
      </trkpt>
      <trkpt lat="51.9813" lon="4.11031">
        <ele>51.192162</ele>
        <time>2024-07-04T09:10:08.317Z</time>
      </trkpt>
      <trkpt lat="51.98132" lon="4.11016">
        <ele>51.026059</ele>
        <time>2024-07-04T09:10:11.312Z</time>
      </trkpt>
      <trkpt lat="51.98134" lon="4.11">
        <ele>50.856475</ele>
        <time>2024-07-04T09:10:14.312Z</time>
      </trkpt>
      <trkpt lat="51.98138" lon="4.10984">
        <ele>50.68461</ele>
        <time>2024-07-04T09:10:17.319Z</time>
      </trkpt>
      <trkpt lat="51.9814" lon="4.10969">
        <ele>50.513785</ele>
        <time>2024-07-04T09:10:20.313Z</time>
      </trkpt>
      <trkpt lat="51.98143" lon="4.10953">
        <ele>50.345008</ele>
        <time>2024-07-04T09:10:23.314Z</time>
      </trkpt>
      <trkpt lat="51.98147" lon="4.10937">
        <ele>50.16464</ele>
        <time>2024-07-04T09:10:26.326Z</time>
      </trkpt>
      <trkpt lat="51.9815" lon="4.10921">
        <ele>49.989339</ele>
        <time>2024-07-04T09:10:29.322Z</time>
      </trkpt>
      <trkpt lat="51.98153" lon="4.10904">
        <ele>49.880957</ele>
        <time>2024-07-04T09:10:32.317Z</time>
      </trkpt>
      <trkpt lat="51.98154" lon="4.10888">
        <ele>49.934777</ele>
        <time>2024-07-04T09:10:35.310Z</time>
      </trkpt>
      <trkpt lat="51.98157" lon="4.1087">
        <ele>49.992412</ele>
        <time>2024-07-04T09:10:38.321Z</time>
      </trkpt>
      <trkpt lat="51.9816" lon="4.10853">
        <ele>50.047726</ele>
        <time>2024-07-04T09:10:41.309Z</time>
      </trkpt>
      <trkpt lat="51.98163" lon="4.10837">
        <ele>50.101208</ele>
        <time>2024-07-04T09:10:44.312Z</time>
      </trkpt>
      <trkpt lat="51.98166" lon="4.10821">
        <ele>50.156451</ele>
        <time>2024-07-04T09:10:47.310Z</time>
      </trkpt>
      <trkpt lat="51.9817" lon="4.10805">
        <ele>50.210265</ele>
        <time>2024-07-04T09:10:50.314Z</time>
      </trkpt>
      <trkpt lat="51.98173" lon="4.10789">
        <ele>50.266184</ele>
        <time>2024-07-04T09:10:53.306Z</time>
      </trkpt>
      <trkpt lat="51.98176" lon="4.10772">
        <ele>50.321208</ele>
        <time>2024-07-04T09:10:56.296Z</time>
      </trkpt>
      <trkpt lat="51.98181" lon="4.10756">
        <ele>50.378786</ele>
        <time>2024-07-04T09:10:59.307Z</time>
      </trkpt>
      <trkpt lat="51.98184" lon="4.10739">
        <ele>50.434247</ele>
        <time>2024-07-04T09:11:02.313Z</time>
      </trkpt>
      <trkpt lat="51.98187" lon="4.10722">
        <ele>50.490787</ele>
        <time>2024-07-04T09:11:05.305Z</time>
      </trkpt>
      <trkpt lat="51.98191" lon="4.10705">
        <ele>50.548435</ele>
        <time>2024-07-04T09:11:08.290Z</time>
      </trkpt>
      <trkpt lat="51.98195" lon="4.1069">
        <ele>50.601287</ele>
        <time>2024-07-04T09:11:11.328Z</time>
      </trkpt>
      <trkpt lat="51.98198" lon="4.10673">
        <ele>50.658587</ele>
        <time>2024-07-04T09:11:14.313Z</time>
      </trkpt>
      <trkpt lat="51.98202" lon="4.10656">
        <ele>50.714909</ele>
        <time>2024-07-04T09:11:17.314Z</time>
      </trkpt>
      <trkpt lat="51.98205" lon="4.1064">
        <ele>50.771353</ele>
        <time>2024-07-04T09:11:20.309Z</time>
      </trkpt>
      <trkpt lat="51.98209" lon="4.10622">
        <ele>50.814183</ele>
        <time>2024-07-04T09:11:23.316Z</time>
      </trkpt>
      <trkpt lat="51.98212" lon="4.10605">
        <ele>50.843873</ele>
        <time>2024-07-04T09:11:26.317Z</time>
      </trkpt>
      <trkpt lat="51.98216" lon="4.10589">
        <ele>50.872139</ele>
        <time>2024-07-04T09:11:29.319Z</time>
      </trkpt>
      <trkpt lat="51.98219" lon="4.10572">
        <ele>50.901015</ele>
        <time>2024-07-04T09:11:32.284Z</time>
      </trkpt>
      <trkpt lat="51.98223" lon="4.10556">
        <ele>50.929913</ele>
        <time>2024-07-04T09:11:35.309Z</time>
      </trkpt>
      <trkpt lat="51.98226" lon="4.10539">
        <ele>50.95886</ele>
        <time>2024-07-04T09:11:38.312Z</time>
      </trkpt>
      <trkpt lat="51.9823" lon="4.10522">
        <ele>50.988468</ele>
        <time>2024-07-04T09:11:41.306Z</time>
      </trkpt>
      <trkpt lat="51.98234" lon="4.10505">
        <ele>51.017884</ele>
        <time>2024-07-04T09:11:44.316Z</time>
      </trkpt>
      <trkpt lat="51.98237" lon="4.10489">
        <ele>51.046473</ele>
        <time>2024-07-04T09:11:47.316Z</time>
      </trkpt>
      <trkpt lat="51.98241" lon="4.10473">
        <ele>51.075037</ele>
        <time>2024-07-04T09:11:50.307Z</time>
      </trkpt>
      <trkpt lat="51.98245" lon="4.10456">
        <ele>51.104724</ele>
        <time>2024-07-04T09:11:53.314Z</time>
      </trkpt>
      <trkpt lat="51.98247" lon="4.10438">
        <ele>51.134248</ele>
        <time>2024-07-04T09:11:56.312Z</time>
      </trkpt>
      <trkpt lat="51.98251" lon="4.10422">
        <ele>51.163386</ele>
        <time>2024-07-04T09:11:59.304Z</time>
      </trkpt>
      <trkpt lat="51.98255" lon="4.10405">
        <ele>51.192779</ele>
        <time>2024-07-04T09:12:02.310Z</time>
      </trkpt>
      <trkpt lat="51.98259" lon="4.10388">
        <ele>51.222364</ele>
        <time>2024-07-04T09:12:05.316Z</time>
      </trkpt>
      <trkpt lat="51.98262" lon="4.10371">
        <ele>51.251461</ele>
        <time>2024-07-04T09:12:08.301Z</time>
      </trkpt>
      <trkpt lat="51.98266" lon="4.10355">
        <ele>51.279416</ele>
        <time>2024-07-04T09:12:11.310Z</time>
      </trkpt>
      <trkpt lat="51.98269" lon="4.10338">
        <ele>51.296741</ele>
        <time>2024-07-04T09:12:14.304Z</time>
      </trkpt>
      <trkpt lat="51.98272" lon="4.1032">
        <ele>51.314177</ele>
        <time>2024-07-04T09:12:17.323Z</time>
      </trkpt>
      <trkpt lat="51.98276" lon="4.10303">
        <ele>51.331419</ele>
        <time>2024-07-04T09:12:20.309Z</time>
      </trkpt>
      <trkpt lat="51.9828" lon="4.10287">
        <ele>51.347994</ele>
        <time>2024-07-04T09:12:23.317Z</time>
      </trkpt>
      <trkpt lat="51.98283" lon="4.1027">
        <ele>51.365138</ele>
        <time>2024-07-04T09:12:26.313Z</time>
      </trkpt>
      <trkpt lat="51.98286" lon="4.10253">
        <ele>51.382011</ele>
        <time>2024-07-04T09:12:29.323Z</time>
      </trkpt>
      <trkpt lat="51.9829" lon="4.10237">
        <ele>51.398194</ele>
        <time>2024-07-04T09:12:32.318Z</time>
      </trkpt>
      <trkpt lat="51.98295" lon="4.10221">
        <ele>51.414868</ele>
        <time>2024-07-04T09:12:35.311Z</time>
      </trkpt>
      <trkpt lat="51.98297" lon="4.10205">
        <ele>51.431211</ele>
        <time>2024-07-04T09:12:38.293Z</time>
      </trkpt>
      <trkpt lat="51.98301" lon="4.10188">
        <ele>51.448073</ele>
        <time>2024-07-04T09:12:41.308Z</time>
      </trkpt>
      <trkpt lat="51.98305" lon="4.10171">
        <ele>51.465314</ele>
        <time>2024-07-04T09:12:44.312Z</time>
      </trkpt>
      <trkpt lat="51.98309" lon="4.10155">
        <ele>51.481323</ele>
        <time>2024-07-04T09:12:47.315Z</time>
      </trkpt>
      <trkpt lat="51.98312" lon="4.10139">
        <ele>51.497555</ele>
        <time>2024-07-04T09:12:50.316Z</time>
      </trkpt>
      <trkpt lat="51.98315" lon="4.10123">
        <ele>51.513604</ele>
        <time>2024-07-04T09:12:53.315Z</time>
      </trkpt>
      <trkpt lat="51.98319" lon="4.10106">
        <ele>51.53117</ele>
        <time>2024-07-04T09:12:56.309Z</time>
      </trkpt>
      <trkpt lat="51.98322" lon="4.10089">
        <ele>51.548318</ele>
        <time>2024-07-04T09:12:59.312Z</time>
      </trkpt>
      <trkpt lat="51.98326" lon="4.10073">
        <ele>51.537462</ele>
        <time>2024-07-04T09:13:02.320Z</time>
      </trkpt>
      <trkpt lat="51.98329" lon="4.10057">
        <ele>51.499538</ele>
        <time>2024-07-04T09:13:05.319Z</time>
      </trkpt>
      <trkpt lat="51.98333" lon="4.10041">
        <ele>51.459849</ele>
        <time>2024-07-04T09:13:08.319Z</time>
      </trkpt>
      <trkpt lat="51.98336" lon="4.10025">
        <ele>51.418822</ele>
        <time>2024-07-04T09:13:11.321Z</time>
      </trkpt>
      <trkpt lat="51.9834" lon="4.10008">
        <ele>51.378042</ele>
        <time>2024-07-04T09:13:14.314Z</time>
      </trkpt>
      <trkpt lat="51.98343" lon="4.09991">
        <ele>51.337885</ele>
        <time>2024-07-04T09:13:17.312Z</time>
      </trkpt>
      <trkpt lat="51.98347" lon="4.09975">
        <ele>51.299065</ele>
        <time>2024-07-04T09:13:20.320Z</time>
      </trkpt>
      <trkpt lat="51.9835" lon="4.0996">
        <ele>51.261371</ele>
        <time>2024-07-04T09:13:23.318Z</time>
      </trkpt>
      <trkpt lat="51.98353" lon="4.09944">
        <ele>51.222672</ele>
        <time>2024-07-04T09:13:26.324Z</time>
      </trkpt>
      <trkpt lat="51.98356" lon="4.09929">
        <ele>51.187052</ele>
        <time>2024-07-04T09:13:29.326Z</time>
      </trkpt>
      <trkpt lat="51.98359" lon="4.09914">
        <ele>51.148885</ele>
        <time>2024-07-04T09:13:32.316Z</time>
      </trkpt>
      <trkpt lat="51.98364" lon="4.09899">
        <ele>51.111665</ele>
        <time>2024-07-04T09:13:35.317Z</time>
      </trkpt>
      <trkpt lat="51.98365" lon="4.09881">
        <ele>51.070322</ele>
        <time>2024-07-04T09:13:40.300Z</time>
      </trkpt>
      <trkpt lat="51.98369" lon="4.09865">
        <ele>51.030687</ele>
        <time>2024-07-04T09:13:45.309Z</time>
      </trkpt>
      <trkpt lat="51.98372" lon="4.09849">
        <ele>50.99014</ele>
        <time>2024-07-04T09:13:50.314Z</time>
      </trkpt>
      <trkpt lat="51.98375" lon="4.09834">
        <ele>50.955078</ele>
        <time>2024-07-04T09:13:54.316Z</time>
      </trkpt>
      <trkpt lat="51.98378" lon="4.09816">
        <ele>50.913129</ele>
        <time>2024-07-04T09:13:59.320Z</time>
      </trkpt>
      <trkpt lat="51.98381" lon="4.098">
        <ele>50.902839</ele>
        <time>2024-07-04T09:14:04.318Z</time>
      </trkpt>
      <trkpt lat="51.98389" lon="4.09792">
        <ele>50.97021</ele>
        <time>2024-07-04T09:14:10.304Z</time>
      </trkpt>
      <trkpt lat="51.98389" lon="4.09791">
        <ele>50.974415</ele>
        <time>2024-07-04T09:14:34.641Z</time>
      </trkpt>
      <trkpt lat="51.98443" lon="4.09793">
        <ele>51.354888</ele>
        <time>2024-07-04T09:18:56.311Z</time>
      </trkpt>
      <trkpt lat="51.98451" lon="4.09795">
        <ele>51.419014</ele>
        <time>2024-07-04T09:19:00.311Z</time>
      </trkpt>
      <trkpt lat="51.9846" lon="4.09798">
        <ele>51.484677</ele>
        <time>2024-07-04T09:19:04.306Z</time>
      </trkpt>
      <trkpt lat="51.9847" lon="4.09802">
        <ele>51.557245</ele>
        <time>2024-07-04T09:19:08.310Z</time>
      </trkpt>
      <trkpt lat="51.9848" lon="4.09805">
        <ele>51.624752</ele>
        <time>2024-07-04T09:19:12.295Z</time>
      </trkpt>
      <trkpt lat="51.98489" lon="4.09807">
        <ele>51.689645</ele>
        <time>2024-07-04T09:19:16.304Z</time>
      </trkpt>
      <trkpt lat="51.98498" lon="4.09811">
        <ele>51.756099</ele>
        <time>2024-07-04T09:19:20.313Z</time>
      </trkpt>
      <trkpt lat="51.98506" lon="4.09821">
        <ele>51.830634</ele>
        <time>2024-07-04T09:19:24.305Z</time>
      </trkpt>
      <trkpt lat="51.98512" lon="4.09835">
        <ele>51.904475</ele>
        <time>2024-07-04T09:19:28.306Z</time>
      </trkpt>
      <trkpt lat="51.98521" lon="4.09845">
        <ele>51.981927</ele>
        <time>2024-07-04T09:19:33.317Z</time>
      </trkpt>
      <trkpt lat="51.98528" lon="4.09856">
        <ele>52.053306</ele>
        <time>2024-07-04T09:19:38.303Z</time>
      </trkpt>
      <trkpt lat="51.98535" lon="4.09867">
        <ele>52.122526</ele>
        <time>2024-07-04T09:19:42.313Z</time>
      </trkpt>
      <trkpt lat="51.98543" lon="4.09877">
        <ele>52.203188</ele>
        <time>2024-07-04T09:19:46.302Z</time>
      </trkpt>
      <trkpt lat="51.98551" lon="4.09892">
        <ele>52.315367</ele>
        <time>2024-07-04T09:19:50.293Z</time>
      </trkpt>
      <trkpt lat="51.98559" lon="4.09904">
        <ele>52.421243</ele>
        <time>2024-07-04T09:19:54.299Z</time>
      </trkpt>
      <trkpt lat="51.98556" lon="4.0992">
        <ele>52.515966</ele>
        <time>2024-07-04T09:19:58.305Z</time>
      </trkpt>
      <trkpt lat="51.98551" lon="4.09932">
        <ele>52.6011</ele>
        <time>2024-07-04T09:20:01.311Z</time>
      </trkpt>
      <trkpt lat="51.98546" lon="4.09948">
        <ele>52.704671</ele>
        <time>2024-07-04T09:20:04.308Z</time>
      </trkpt>
      <trkpt lat="51.98543" lon="4.09966">
        <ele>52.811923</ele>
        <time>2024-07-04T09:20:07.311Z</time>
      </trkpt>
      <trkpt lat="51.9854" lon="4.09981">
        <ele>52.901386</ele>
        <time>2024-07-04T09:20:10.310Z</time>
      </trkpt>
      <trkpt lat="51.98538" lon="4.09996">
        <ele>52.994631</ele>
        <time>2024-07-04T09:20:14.297Z</time>
      </trkpt>
      <trkpt lat="51.98535" lon="4.10011">
        <ele>53.085474</ele>
        <time>2024-07-04T09:20:18.301Z</time>
      </trkpt>
      <trkpt lat="51.98533" lon="4.10028">
        <ele>53.182681</ele>
        <time>2024-07-04T09:20:22.289Z</time>
      </trkpt>
      <trkpt lat="51.98533" lon="4.10043">
        <ele>53.269921</ele>
        <time>2024-07-04T09:20:26.309Z</time>
      </trkpt>
      <trkpt lat="51.98529" lon="4.10058">
        <ele>53.365567</ele>
        <time>2024-07-04T09:20:30.296Z</time>
      </trkpt>
      <trkpt lat="51.98526" lon="4.10075">
        <ele>53.465617</ele>
        <time>2024-07-04T09:20:34.311Z</time>
      </trkpt>
      <trkpt lat="51.98524" lon="4.1009">
        <ele>53.558757</ele>
        <time>2024-07-04T09:20:38.311Z</time>
      </trkpt>
      <trkpt lat="51.9852" lon="4.10108">
        <ele>53.665847</ele>
        <time>2024-07-04T09:20:42.337Z</time>
      </trkpt>
      <trkpt lat="51.98515" lon="4.10121">
        <ele>53.756437</ele>
        <time>2024-07-04T09:20:45.289Z</time>
      </trkpt>
      <trkpt lat="51.98512" lon="4.10139">
        <ele>53.865464</ele>
        <time>2024-07-04T09:20:49.295Z</time>
      </trkpt>
      <trkpt lat="51.98507" lon="4.10158">
        <ele>53.904301</ele>
        <time>2024-07-04T09:20:53.311Z</time>
      </trkpt>
      <trkpt lat="51.98504" lon="4.10171">
        <ele>53.933232</ele>
        <time>2024-07-04T09:20:56.302Z</time>
      </trkpt>
      <trkpt lat="51.98502" lon="4.10188">
        <ele>53.965959</ele>
        <time>2024-07-04T09:21:01.316Z</time>
      </trkpt>
      <trkpt lat="51.98506" lon="4.1017">
        <ele>54.002424</ele>
        <time>2024-07-04T09:21:13.320Z</time>
      </trkpt>
      <trkpt lat="51.9851" lon="4.10154">
        <ele>54.037607</ele>
        <time>2024-07-04T09:21:17.334Z</time>
      </trkpt>
      <trkpt lat="51.98515" lon="4.10141">
        <ele>54.067249</ele>
        <time>2024-07-04T09:21:21.325Z</time>
      </trkpt>
      <trkpt lat="51.98508" lon="4.10152">
        <ele>54.09774</ele>
        <time>2024-07-04T09:21:27.323Z</time>
      </trkpt>
      <trkpt lat="51.98507" lon="4.10167">
        <ele>54.128905</ele>
        <time>2024-07-04T09:21:31.301Z</time>
      </trkpt>
      <trkpt lat="51.98503" lon="4.10184">
        <ele>54.164144</ele>
        <time>2024-07-04T09:21:36.306Z</time>
      </trkpt>
      <trkpt lat="51.98499" lon="4.10199">
        <ele>54.196276</ele>
        <time>2024-07-04T09:21:40.305Z</time>
      </trkpt>
      <trkpt lat="51.98496" lon="4.10215">
        <ele>54.229528</ele>
        <time>2024-07-04T09:21:44.313Z</time>
      </trkpt>
      <trkpt lat="51.98494" lon="4.10231">
        <ele>54.261174</ele>
        <time>2024-07-04T09:21:48.318Z</time>
      </trkpt>
      <trkpt lat="51.98489" lon="4.10244">
        <ele>54.291001</ele>
        <time>2024-07-04T09:21:52.319Z</time>
      </trkpt>
      <trkpt lat="51.98486" lon="4.10259">
        <ele>54.321991</ele>
        <time>2024-07-04T09:21:57.304Z</time>
      </trkpt>
      <trkpt lat="51.98495" lon="4.10261">
        <ele>54.352036</ele>
        <time>2024-07-04T09:22:03.305Z</time>
      </trkpt>
      <trkpt lat="51.98506" lon="4.10265">
        <ele>54.387592</ele>
        <time>2024-07-04T09:22:08.305Z</time>
      </trkpt>
      <trkpt lat="51.98516" lon="4.1027">
        <ele>54.419732</ele>
        <time>2024-07-04T09:22:12.307Z</time>
      </trkpt>
      <trkpt lat="51.98527" lon="4.10273">
        <ele>54.407324</ele>
        <time>2024-07-04T09:22:17.310Z</time>
      </trkpt>
      <trkpt lat="51.98537" lon="4.10277">
        <ele>54.324103</ele>
        <time>2024-07-04T09:22:21.292Z</time>
      </trkpt>
      <trkpt lat="51.98547" lon="4.10284">
        <ele>54.239729</ele>
        <time>2024-07-04T09:22:25.303Z</time>
      </trkpt>
      <trkpt lat="51.98557" lon="4.10294">
        <ele>54.147017</ele>
        <time>2024-07-04T09:22:29.313Z</time>
      </trkpt>
      <trkpt lat="51.98565" lon="4.10304">
        <ele>54.069797</ele>
        <time>2024-07-04T09:22:32.306Z</time>
      </trkpt>
      <trkpt lat="51.98574" lon="4.10314">
        <ele>53.988905</ele>
        <time>2024-07-04T09:22:35.299Z</time>
      </trkpt>
      <trkpt lat="51.98584" lon="4.10311">
        <ele>53.907034</ele>
        <time>2024-07-04T09:22:38.306Z</time>
      </trkpt>
      <trkpt lat="51.98595" lon="4.10308">
        <ele>53.824066</ele>
        <time>2024-07-04T09:22:41.315Z</time>
      </trkpt>
      <trkpt lat="51.98605" lon="4.10303">
        <ele>53.73933</ele>
        <time>2024-07-04T09:22:44.299Z</time>
      </trkpt>
      <trkpt lat="51.98615" lon="4.103">
        <ele>53.662553</ele>
        <time>2024-07-04T09:22:47.315Z</time>
      </trkpt>
      <trkpt lat="51.98624" lon="4.10303">
        <ele>53.591002</ele>
        <time>2024-07-04T09:22:50.298Z</time>
      </trkpt>
      <trkpt lat="51.98633" lon="4.10315">
        <ele>53.501365</ele>
        <time>2024-07-04T09:22:54.313Z</time>
      </trkpt>
      <trkpt lat="51.98643" lon="4.10314">
        <ele>53.422149</ele>
        <time>2024-07-04T09:22:58.292Z</time>
      </trkpt>
      <trkpt lat="51.98653" lon="4.10311">
        <ele>53.346988</ele>
        <time>2024-07-04T09:23:02.299Z</time>
      </trkpt>
      <trkpt lat="51.98662" lon="4.10308">
        <ele>53.270577</ele>
        <time>2024-07-04T09:23:05.331Z</time>
      </trkpt>
      <trkpt lat="51.98672" lon="4.10302">
        <ele>53.190626</ele>
        <time>2024-07-04T09:23:08.310Z</time>
      </trkpt>
      <trkpt lat="51.98682" lon="4.10306">
        <ele>53.115037</ele>
        <time>2024-07-04T09:23:12.301Z</time>
      </trkpt>
      <trkpt lat="51.98688" lon="4.10322">
        <ele>53.069151</ele>
        <time>2024-07-04T09:23:16.302Z</time>
      </trkpt>
      <trkpt lat="51.98692" lon="4.10337">
        <ele>53.15903</ele>
        <time>2024-07-04T09:23:19.314Z</time>
      </trkpt>
      <trkpt lat="51.98698" lon="4.1035">
        <ele>53.249896</ele>
        <time>2024-07-04T09:23:22.313Z</time>
      </trkpt>
      <trkpt lat="51.98702" lon="4.10365">
        <ele>53.341176</ele>
        <time>2024-07-04T09:23:25.305Z</time>
      </trkpt>
      <trkpt lat="51.98709" lon="4.10379">
        <ele>53.442775</ele>
        <time>2024-07-04T09:23:29.325Z</time>
      </trkpt>
      <trkpt lat="51.98714" lon="4.10396">
        <ele>53.549033</ele>
        <time>2024-07-04T09:23:33.292Z</time>
      </trkpt>
      <trkpt lat="51.98721" lon="4.10412">
        <ele>53.654126</ele>
        <time>2024-07-04T09:23:37.312Z</time>
      </trkpt>
      <trkpt lat="51.98726" lon="4.10424">
        <ele>53.739882</ele>
        <time>2024-07-04T09:23:42.303Z</time>
      </trkpt>
      <trkpt lat="51.9873" lon="4.10439">
        <ele>53.830465</ele>
        <time>2024-07-04T09:23:47.305Z</time>
      </trkpt>
      <trkpt lat="51.98738" lon="4.1045">
        <ele>53.919273</ele>
        <time>2024-07-04T09:23:53.304Z</time>
      </trkpt>
      <trkpt lat="51.98746" lon="4.10458">
        <ele>54.004475</ele>
        <time>2024-07-04T09:23:58.315Z</time>
      </trkpt>
      <trkpt lat="51.98753" lon="4.10467">
        <ele>54.087216</ele>
        <time>2024-07-04T09:24:11.298Z</time>
      </trkpt>
      <trkpt lat="51.98753" lon="4.10467">
        <ele>54.087216</ele>
        <time>2024-07-04T09:24:14.504Z</time>
      </trkpt>
      <trkpt lat="51.98744" lon="4.10473">
        <ele>54.171273</ele>
        <time>2024-07-04T09:39:22.333Z</time>
      </trkpt>
      <trkpt lat="51.98747" lon="4.1049">
        <ele>54.264327</ele>
        <time>2024-07-04T09:39:28.305Z</time>
      </trkpt>
      <trkpt lat="51.98752" lon="4.10502">
        <ele>54.345754</ele>
        <time>2024-07-04T09:39:32.305Z</time>
      </trkpt>
      <trkpt lat="51.98755" lon="4.10518">
        <ele>54.443743</ele>
        <time>2024-07-04T09:39:36.305Z</time>
      </trkpt>
      <trkpt lat="51.9875" lon="4.1053">
        <ele>54.527123</ele>
        <time>2024-07-04T09:39:39.322Z</time>
      </trkpt>
      <trkpt lat="51.98742" lon="4.10539">
        <ele>54.617176</ele>
        <time>2024-07-04T09:39:42.307Z</time>
      </trkpt>
      <trkpt lat="51.98733" lon="4.10548">
        <ele>54.671942</ele>
        <time>2024-07-04T09:39:45.292Z</time>
      </trkpt>
      <trkpt lat="51.98725" lon="4.10557">
        <ele>54.661384</ele>
        <time>2024-07-04T09:39:48.315Z</time>
      </trkpt>
      <trkpt lat="51.98719" lon="4.10571">
        <ele>54.650732</ele>
        <time>2024-07-04T09:39:51.318Z</time>
      </trkpt>
      <trkpt lat="51.98713" lon="4.10583">
        <ele>54.640941</ele>
        <time>2024-07-04T09:39:54.320Z</time>
      </trkpt>
      <trkpt lat="51.98708" lon="4.10595">
        <ele>54.631348</ele>
        <time>2024-07-04T09:39:57.305Z</time>
      </trkpt>
      <trkpt lat="51.98702" lon="4.10611">
        <ele>54.619583</ele>
        <time>2024-07-04T09:40:01.312Z</time>
      </trkpt>
      <trkpt lat="51.98696" lon="4.10625">
        <ele>54.608023</ele>
        <time>2024-07-04T09:40:05.312Z</time>
      </trkpt>
      <trkpt lat="51.9869" lon="4.10638">
        <ele>54.598281</ele>
        <time>2024-07-04T09:40:08.322Z</time>
      </trkpt>
      <trkpt lat="51.98684" lon="4.10652">
        <ele>54.58717</ele>
        <time>2024-07-04T09:40:11.313Z</time>
      </trkpt>
      <trkpt lat="51.98677" lon="4.10669">
        <ele>54.574077</ele>
        <time>2024-07-04T09:40:14.310Z</time>
      </trkpt>
      <trkpt lat="51.98672" lon="4.1068">
        <ele>54.564448</ele>
        <time>2024-07-04T09:40:16.315Z</time>
      </trkpt>
      <trkpt lat="51.98666" lon="4.10694">
        <ele>54.553702</ele>
        <time>2024-07-04T09:40:18.311Z</time>
      </trkpt>
      <trkpt lat="51.9866" lon="4.10709">
        <ele>54.542325</ele>
        <time>2024-07-04T09:40:20.314Z</time>
      </trkpt>
      <trkpt lat="51.98654" lon="4.10724">
        <ele>54.530391</ele>
        <time>2024-07-04T09:40:22.317Z</time>
      </trkpt>
      <trkpt lat="51.98654" lon="4.10744">
        <ele>54.517474</ele>
        <time>2024-07-04T09:40:24.297Z</time>
      </trkpt>
      <trkpt lat="51.9866" lon="4.10762">
        <ele>54.504495</ele>
        <time>2024-07-04T09:40:26.302Z</time>
      </trkpt>
      <trkpt lat="51.98666" lon="4.10781">
        <ele>54.490922</ele>
        <time>2024-07-04T09:40:28.298Z</time>
      </trkpt>
      <trkpt lat="51.98672" lon="4.10799">
        <ele>54.485948</ele>
        <time>2024-07-04T09:40:30.315Z</time>
      </trkpt>
      <trkpt lat="51.98678" lon="4.10818">
        <ele>54.483883</ele>
        <time>2024-07-04T09:40:32.298Z</time>
      </trkpt>
      <trkpt lat="51.98684" lon="4.10837">
        <ele>54.481705</ele>
        <time>2024-07-04T09:40:34.326Z</time>
      </trkpt>
      <trkpt lat="51.98689" lon="4.10857">
        <ele>54.47955</ele>
        <time>2024-07-04T09:40:36.326Z</time>
      </trkpt>
      <trkpt lat="51.98695" lon="4.10876">
        <ele>54.477479</ele>
        <time>2024-07-04T09:40:38.308Z</time>
      </trkpt>
      <trkpt lat="51.987" lon="4.10894">
        <ele>54.475443</ele>
        <time>2024-07-04T09:40:40.311Z</time>
      </trkpt>
      <trkpt lat="51.98705" lon="4.10913">
        <ele>54.473426</ele>
        <time>2024-07-04T09:40:42.307Z</time>
      </trkpt>
      <trkpt lat="51.98711" lon="4.10931">
        <ele>54.471374</ele>
        <time>2024-07-04T09:40:44.309Z</time>
      </trkpt>
      <trkpt lat="51.98718" lon="4.10948">
        <ele>54.469332</ele>
        <time>2024-07-04T09:40:46.302Z</time>
      </trkpt>
      <trkpt lat="51.98725" lon="4.10966">
        <ele>54.467197</ele>
        <time>2024-07-04T09:40:48.308Z</time>
      </trkpt>
      <trkpt lat="51.98732" lon="4.10984">
        <ele>54.465077</ele>
        <time>2024-07-04T09:40:50.311Z</time>
      </trkpt>
      <trkpt lat="51.9874" lon="4.11002">
        <ele>54.462886</ele>
        <time>2024-07-04T09:40:52.318Z</time>
      </trkpt>
      <trkpt lat="51.98748" lon="4.1102">
        <ele>54.460723</ele>
        <time>2024-07-04T09:40:54.309Z</time>
      </trkpt>
      <trkpt lat="51.98755" lon="4.11038">
        <ele>54.458524</ele>
        <time>2024-07-04T09:40:56.313Z</time>
      </trkpt>
      <trkpt lat="51.98764" lon="4.11056">
        <ele>54.483934</ele>
        <time>2024-07-04T09:40:58.314Z</time>
      </trkpt>
      <trkpt lat="51.98773" lon="4.11071">
        <ele>54.511049</ele>
        <time>2024-07-04T09:41:00.297Z</time>
      </trkpt>
      <trkpt lat="51.98784" lon="4.11084">
        <ele>54.537656</ele>
        <time>2024-07-04T09:41:02.325Z</time>
      </trkpt>
      <trkpt lat="51.98794" lon="4.11096">
        <ele>54.562111</ele>
        <time>2024-07-04T09:41:04.326Z</time>
      </trkpt>
      <trkpt lat="51.98803" lon="4.11107">
        <ele>54.58412</ele>
        <time>2024-07-04T09:41:06.300Z</time>
      </trkpt>
      <trkpt lat="51.98811" lon="4.11117">
        <ele>54.605545</ele>
        <time>2024-07-04T09:41:08.315Z</time>
      </trkpt>
      <trkpt lat="51.98819" lon="4.11128">
        <ele>54.626181</ele>
        <time>2024-07-04T09:41:10.308Z</time>
      </trkpt>
      <trkpt lat="51.98825" lon="4.11142">
        <ele>54.647207</ele>
        <time>2024-07-04T09:41:12.305Z</time>
      </trkpt>
      <trkpt lat="51.98832" lon="4.11155">
        <ele>54.667819</ele>
        <time>2024-07-04T09:41:14.317Z</time>
      </trkpt>
      <trkpt lat="51.98838" lon="4.11168">
        <ele>54.688761</ele>
        <time>2024-07-04T09:41:16.334Z</time>
      </trkpt>
      <trkpt lat="51.98845" lon="4.11182">
        <ele>54.709971</ele>
        <time>2024-07-04T09:41:18.327Z</time>
      </trkpt>
      <trkpt lat="51.98851" lon="4.11196">
        <ele>54.730798</ele>
        <time>2024-07-04T09:41:20.324Z</time>
      </trkpt>
      <trkpt lat="51.98857" lon="4.1121">
        <ele>54.751941</ele>
        <time>2024-07-04T09:41:22.324Z</time>
      </trkpt>
      <trkpt lat="51.98863" lon="4.11224">
        <ele>54.773399</ele>
        <time>2024-07-04T09:41:24.341Z</time>
      </trkpt>
      <trkpt lat="51.98869" lon="4.11238">
        <ele>54.794441</ele>
        <time>2024-07-04T09:41:26.325Z</time>
      </trkpt>
      <trkpt lat="51.98876" lon="4.11251">
        <ele>54.814616</ele>
        <time>2024-07-04T09:41:28.303Z</time>
      </trkpt>
      <trkpt lat="51.98882" lon="4.11264">
        <ele>54.826455</ele>
        <time>2024-07-04T09:41:30.307Z</time>
      </trkpt>
      <trkpt lat="51.98888" lon="4.11279">
        <ele>54.837257</ele>
        <time>2024-07-04T09:41:32.294Z</time>
      </trkpt>
      <trkpt lat="51.98894" lon="4.11293">
        <ele>54.848481</ele>
        <time>2024-07-04T09:41:34.327Z</time>
      </trkpt>
      <trkpt lat="51.989" lon="4.11309">
        <ele>54.859752</ele>
        <time>2024-07-04T09:41:36.323Z</time>
      </trkpt>
      <trkpt lat="51.98907" lon="4.11323">
        <ele>54.871096</ele>
        <time>2024-07-04T09:41:38.305Z</time>
      </trkpt>
      <trkpt lat="51.98914" lon="4.11338">
        <ele>54.882457</ele>
        <time>2024-07-04T09:41:40.309Z</time>
      </trkpt>
      <trkpt lat="51.9892" lon="4.11352">
        <ele>54.893728</ele>
        <time>2024-07-04T09:41:42.314Z</time>
      </trkpt>
      <trkpt lat="51.98925" lon="4.11367">
        <ele>54.90476</ele>
        <time>2024-07-04T09:41:44.311Z</time>
      </trkpt>
      <trkpt lat="51.9893" lon="4.11384">
        <ele>54.915866</ele>
        <time>2024-07-04T09:41:46.300Z</time>
      </trkpt>
      <trkpt lat="51.98935" lon="4.11399">
        <ele>54.927042</ele>
        <time>2024-07-04T09:41:48.303Z</time>
      </trkpt>
      <trkpt lat="51.98942" lon="4.11413">
        <ele>54.938065</ele>
        <time>2024-07-04T09:41:50.297Z</time>
      </trkpt>
      <trkpt lat="51.98949" lon="4.11427">
        <ele>54.949286</ele>
        <time>2024-07-04T09:41:52.311Z</time>
      </trkpt>
      <trkpt lat="51.98956" lon="4.11441">
        <ele>54.960324</ele>
        <time>2024-07-04T09:41:54.312Z</time>
      </trkpt>
      <trkpt lat="51.98963" lon="4.11454">
        <ele>54.971754</ele>
        <time>2024-07-04T09:41:56.311Z</time>
      </trkpt>
      <trkpt lat="51.98971" lon="4.11467">
        <ele>54.983184</ele>
        <time>2024-07-04T09:41:58.320Z</time>
      </trkpt>
      <trkpt lat="51.98979" lon="4.11481">
        <ele>54.994691</ele>
        <time>2024-07-04T09:42:00.319Z</time>
      </trkpt>
      <trkpt lat="51.98985" lon="4.11495">
        <ele>54.990724</ele>
        <time>2024-07-04T09:42:02.316Z</time>
      </trkpt>
      <trkpt lat="51.98991" lon="4.1151">
        <ele>54.973479</ele>
        <time>2024-07-04T09:42:04.312Z</time>
      </trkpt>
      <trkpt lat="51.98997" lon="4.11526">
        <ele>54.95648</ele>
        <time>2024-07-04T09:42:06.322Z</time>
      </trkpt>
      <trkpt lat="51.99003" lon="4.11541">
        <ele>54.938991</ele>
        <time>2024-07-04T09:42:08.325Z</time>
      </trkpt>
      <trkpt lat="51.99009" lon="4.11556">
        <ele>54.921747</ele>
        <time>2024-07-04T09:42:10.304Z</time>
      </trkpt>
      <trkpt lat="51.99014" lon="4.11572">
        <ele>54.904666</ele>
        <time>2024-07-04T09:42:12.305Z</time>
      </trkpt>
      <trkpt lat="51.9902" lon="4.11586">
        <ele>54.887573</ele>
        <time>2024-07-04T09:42:14.318Z</time>
      </trkpt>
      <trkpt lat="51.99025" lon="4.11602">
        <ele>54.870438</ele>
        <time>2024-07-04T09:42:16.323Z</time>
      </trkpt>
      <trkpt lat="51.9903" lon="4.11618">
        <ele>54.853556</ele>
        <time>2024-07-04T09:42:18.309Z</time>
      </trkpt>
      <trkpt lat="51.99035" lon="4.11635">
        <ele>54.836147</ele>
        <time>2024-07-04T09:42:20.319Z</time>
      </trkpt>
      <trkpt lat="51.9904" lon="4.11651">
        <ele>54.818541</ele>
        <time>2024-07-04T09:42:22.316Z</time>
      </trkpt>
      <trkpt lat="51.99045" lon="4.11665">
        <ele>54.802984</ele>
        <time>2024-07-04T09:42:24.309Z</time>
      </trkpt>
      <trkpt lat="51.99052" lon="4.11682">
        <ele>54.783753</ele>
        <time>2024-07-04T09:42:27.331Z</time>
      </trkpt>
      <trkpt lat="51.99057" lon="4.11698">
        <ele>54.766447</ele>
        <time>2024-07-04T09:42:30.308Z</time>
      </trkpt>
      <trkpt lat="51.99063" lon="4.11711">
        <ele>54.75076</ele>
        <time>2024-07-04T09:42:33.309Z</time>
      </trkpt>
      <trkpt lat="51.99068" lon="4.11728">
        <ele>54.732352</ele>
        <time>2024-07-04T09:42:37.285Z</time>
      </trkpt>
      <trkpt lat="51.99075" lon="4.11739">
        <ele>54.725439</ele>
        <time>2024-07-04T09:42:40.308Z</time>
      </trkpt>
      <trkpt lat="51.99083" lon="4.1175">
        <ele>54.757966</ele>
        <time>2024-07-04T09:42:43.298Z</time>
      </trkpt>
      <trkpt lat="51.99093" lon="4.11759">
        <ele>54.791361</ele>
        <time>2024-07-04T09:42:46.307Z</time>
      </trkpt>
      <trkpt lat="51.99102" lon="4.11769">
        <ele>54.82492</ele>
        <time>2024-07-04T09:42:49.327Z</time>
      </trkpt>
      <trkpt lat="51.99112" lon="4.11776">
        <ele>54.857301</ele>
        <time>2024-07-04T09:42:52.312Z</time>
      </trkpt>
      <trkpt lat="51.99118" lon="4.11787">
        <ele>54.885448</ele>
        <time>2024-07-04T09:42:55.307Z</time>
      </trkpt>
      <trkpt lat="51.99124" lon="4.11799">
        <ele>54.913686</ele>
        <time>2024-07-04T09:42:59.296Z</time>
      </trkpt>
      <trkpt lat="51.99134" lon="4.11806">
        <ele>54.946908</ele>
        <time>2024-07-04T09:43:04.315Z</time>
      </trkpt>
      <trkpt lat="51.99142" lon="4.11814">
        <ele>54.976713</ele>
        <time>2024-07-04T09:43:07.326Z</time>
      </trkpt>
      <trkpt lat="51.99149" lon="4.11832">
        <ele>55.017285</ele>
        <time>2024-07-04T09:43:10.307Z</time>
      </trkpt>
      <trkpt lat="51.99155" lon="4.11846">
        <ele>55.049211</ele>
        <time>2024-07-04T09:43:12.312Z</time>
      </trkpt>
      <trkpt lat="51.99162" lon="4.11862">
        <ele>55.086288</ele>
        <time>2024-07-04T09:43:14.317Z</time>
      </trkpt>
      <trkpt lat="51.9917" lon="4.11878">
        <ele>55.125235</ele>
        <time>2024-07-04T09:43:16.322Z</time>
      </trkpt>
      <trkpt lat="51.99177" lon="4.11895">
        <ele>55.163547</ele>
        <time>2024-07-04T09:43:18.313Z</time>
      </trkpt>
      <trkpt lat="51.99185" lon="4.1191">
        <ele>55.201</ele>
        <time>2024-07-04T09:43:20.329Z</time>
      </trkpt>
      <trkpt lat="51.99192" lon="4.11926">
        <ele>55.237891</ele>
        <time>2024-07-04T09:43:22.323Z</time>
      </trkpt>
      <trkpt lat="51.992" lon="4.11941">
        <ele>55.266574</ele>
        <time>2024-07-04T09:43:24.317Z</time>
      </trkpt>
      <trkpt lat="51.99208" lon="4.11956">
        <ele>55.244345</ele>
        <time>2024-07-04T09:43:26.315Z</time>
      </trkpt>
      <trkpt lat="51.99214" lon="4.11973">
        <ele>55.222428</ele>
        <time>2024-07-04T09:43:28.323Z</time>
      </trkpt>
      <trkpt lat="51.9922" lon="4.11989">
        <ele>55.201177</ele>
        <time>2024-07-04T09:43:30.311Z</time>
      </trkpt>
      <trkpt lat="51.99226" lon="4.12005">
        <ele>55.18035</ele>
        <time>2024-07-04T09:43:32.313Z</time>
      </trkpt>
      <trkpt lat="51.99231" lon="4.12022">
        <ele>55.159208</ele>
        <time>2024-07-04T09:43:34.312Z</time>
      </trkpt>
      <trkpt lat="51.99236" lon="4.12039">
        <ele>55.138182</ele>
        <time>2024-07-04T09:43:36.320Z</time>
      </trkpt>
      <trkpt lat="51.99242" lon="4.12056">
        <ele>55.11652</ele>
        <time>2024-07-04T09:43:38.300Z</time>
      </trkpt>
      <trkpt lat="51.99249" lon="4.12072">
        <ele>55.094595</ele>
        <time>2024-07-04T09:43:40.316Z</time>
      </trkpt>
      <trkpt lat="51.99257" lon="4.12083">
        <ele>55.074268</ele>
        <time>2024-07-04T09:43:42.295Z</time>
      </trkpt>
      <trkpt lat="51.99267" lon="4.12094">
        <ele>55.053113</ele>
        <time>2024-07-04T09:43:44.288Z</time>
      </trkpt>
      <trkpt lat="51.99277" lon="4.12105">
        <ele>55.03122</ele>
        <time>2024-07-04T09:43:46.317Z</time>
      </trkpt>
      <trkpt lat="51.99286" lon="4.12118">
        <ele>55.01017</ele>
        <time>2024-07-04T09:43:48.305Z</time>
      </trkpt>
      <trkpt lat="51.99293" lon="4.1213">
        <ele>54.990411</ele>
        <time>2024-07-04T09:43:50.315Z</time>
      </trkpt>
      <trkpt lat="51.99301" lon="4.12142">
        <ele>54.970389</ele>
        <time>2024-07-04T09:43:52.329Z</time>
      </trkpt>
      <trkpt lat="51.99309" lon="4.12155">
        <ele>54.950903</ele>
        <time>2024-07-04T09:43:54.312Z</time>
      </trkpt>
      <trkpt lat="51.99317" lon="4.12168">
        <ele>54.969535</ele>
        <time>2024-07-04T09:43:56.315Z</time>
      </trkpt>
      <trkpt lat="51.99324" lon="4.12181">
        <ele>55.015152</ele>
        <time>2024-07-04T09:43:58.318Z</time>
      </trkpt>
      <trkpt lat="51.99332" lon="4.12193">
        <ele>55.060323</ele>
        <time>2024-07-04T09:44:00.313Z</time>
      </trkpt>
      <trkpt lat="51.9934" lon="4.12206">
        <ele>55.104778</ele>
        <time>2024-07-04T09:44:02.324Z</time>
      </trkpt>
      <trkpt lat="51.99347" lon="4.12219">
        <ele>55.148737</ele>
        <time>2024-07-04T09:44:04.293Z</time>
      </trkpt>
      <trkpt lat="51.99353" lon="4.12233">
        <ele>55.192649</ele>
        <time>2024-07-04T09:44:06.319Z</time>
      </trkpt>
      <trkpt lat="51.9936" lon="4.12247">
        <ele>55.238159</ele>
        <time>2024-07-04T09:44:08.318Z</time>
      </trkpt>
      <trkpt lat="51.99367" lon="4.1226">
        <ele>55.282696</ele>
        <time>2024-07-04T09:44:10.309Z</time>
      </trkpt>
      <trkpt lat="51.99374" lon="4.12274">
        <ele>55.328537</ele>
        <time>2024-07-04T09:44:12.323Z</time>
      </trkpt>
      <trkpt lat="51.99381" lon="4.12287">
        <ele>55.372881</ele>
        <time>2024-07-04T09:44:14.304Z</time>
      </trkpt>
      <trkpt lat="51.99388" lon="4.123">
        <ele>55.416633</ele>
        <time>2024-07-04T09:44:16.323Z</time>
      </trkpt>
      <trkpt lat="51.99396" lon="4.12314">
        <ele>55.46327</ele>
        <time>2024-07-04T09:44:18.314Z</time>
      </trkpt>
      <trkpt lat="51.99404" lon="4.12327">
        <ele>55.511122</ele>
        <time>2024-07-04T09:44:20.307Z</time>
      </trkpt>
      <trkpt lat="51.99412" lon="4.12341">
        <ele>55.55925</ele>
        <time>2024-07-04T09:44:22.327Z</time>
      </trkpt>
      <trkpt lat="51.9942" lon="4.12355">
        <ele>55.608588</ele>
        <time>2024-07-04T09:44:24.331Z</time>
      </trkpt>
      <trkpt lat="51.99429" lon="4.12369">
        <ele>55.658172</ele>
        <time>2024-07-04T09:44:26.325Z</time>
      </trkpt>
      <trkpt lat="51.99437" lon="4.12381">
        <ele>55.660827</ele>
        <time>2024-07-04T09:44:28.326Z</time>
      </trkpt>
      <trkpt lat="51.99444" lon="4.12392">
        <ele>55.620877</ele>
        <time>2024-07-04T09:44:30.322Z</time>
      </trkpt>
      <trkpt lat="51.99452" lon="4.12405">
        <ele>55.572622</ele>
        <time>2024-07-04T09:44:33.320Z</time>
      </trkpt>
      <trkpt lat="51.9946" lon="4.12422">
        <ele>55.518628</ele>
        <time>2024-07-04T09:44:36.311Z</time>
      </trkpt>
      <trkpt lat="51.99465" lon="4.12438">
        <ele>55.471734</ele>
        <time>2024-07-04T09:44:38.295Z</time>
      </trkpt>
      <trkpt lat="51.9947" lon="4.12455">
        <ele>55.422429</ele>
        <time>2024-07-04T09:44:40.323Z</time>
      </trkpt>
      <trkpt lat="51.99474" lon="4.12473">
        <ele>55.375415</ele>
        <time>2024-07-04T09:44:42.322Z</time>
      </trkpt>
      <trkpt lat="51.9948" lon="4.12488">
        <ele>55.327479</ele>
        <time>2024-07-04T09:44:44.316Z</time>
      </trkpt>
      <trkpt lat="51.99488" lon="4.12503">
        <ele>55.279273</ele>
        <time>2024-07-04T09:44:46.324Z</time>
      </trkpt>
      <trkpt lat="51.99495" lon="4.12517">
        <ele>55.231304</ele>
        <time>2024-07-04T09:44:48.308Z</time>
      </trkpt>
      <trkpt lat="51.99503" lon="4.12531">
        <ele>55.182768</ele>
        <time>2024-07-04T09:44:50.310Z</time>
      </trkpt>
      <trkpt lat="51.9951" lon="4.12546">
        <ele>55.134685</ele>
        <time>2024-07-04T09:44:52.331Z</time>
      </trkpt>
      <trkpt lat="51.99518" lon="4.12558">
        <ele>55.087332</ele>
        <time>2024-07-04T09:44:54.314Z</time>
      </trkpt>
      <trkpt lat="51.99527" lon="4.1257">
        <ele>55.041142</ele>
        <time>2024-07-04T09:44:56.313Z</time>
      </trkpt>
      <trkpt lat="51.99534" lon="4.1258">
        <ele>55.000934</ele>
        <time>2024-07-04T09:44:58.308Z</time>
      </trkpt>
      <trkpt lat="51.99541" lon="4.12589">
        <ele>54.962207</ele>
        <time>2024-07-04T09:45:00.308Z</time>
      </trkpt>
      <trkpt lat="51.99548" lon="4.12601">
        <ele>54.93472</ele>
        <time>2024-07-04T09:45:02.312Z</time>
      </trkpt>
      <trkpt lat="51.99555" lon="4.12614">
        <ele>54.945655</ele>
        <time>2024-07-04T09:45:04.308Z</time>
      </trkpt>
      <trkpt lat="51.99563" lon="4.12627">
        <ele>54.956889</ele>
        <time>2024-07-04T09:45:06.332Z</time>
      </trkpt>
      <trkpt lat="51.9957" lon="4.1264">
        <ele>54.968423</ele>
        <time>2024-07-04T09:45:08.325Z</time>
      </trkpt>
      <trkpt lat="51.99578" lon="4.12656">
        <ele>54.981114</ele>
        <time>2024-07-04T09:45:10.307Z</time>
      </trkpt>
      <trkpt lat="51.99585" lon="4.12671">
        <ele>54.993265</ele>
        <time>2024-07-04T09:45:12.317Z</time>
      </trkpt>
      <trkpt lat="51.99593" lon="4.12685">
        <ele>55.004387</ele>
        <time>2024-07-04T09:45:14.309Z</time>
      </trkpt>
      <trkpt lat="51.996" lon="4.12696">
        <ele>55.014482</ele>
        <time>2024-07-04T09:45:16.314Z</time>
      </trkpt>
      <trkpt lat="51.99607" lon="4.12708">
        <ele>55.024818</ele>
        <time>2024-07-04T09:45:18.329Z</time>
      </trkpt>
      <trkpt lat="51.99614" lon="4.12719">
        <ele>55.035338</ele>
        <time>2024-07-04T09:45:20.312Z</time>
      </trkpt>
      <trkpt lat="51.99622" lon="4.12731">
        <ele>55.04589</ele>
        <time>2024-07-04T09:45:22.308Z</time>
      </trkpt>
      <trkpt lat="51.99629" lon="4.12743">
        <ele>55.056594</ele>
        <time>2024-07-04T09:45:24.314Z</time>
      </trkpt>
      <trkpt lat="51.99637" lon="4.12755">
        <ele>55.067532</ele>
        <time>2024-07-04T09:45:26.312Z</time>
      </trkpt>
      <trkpt lat="51.99645" lon="4.12766">
        <ele>55.07842</ele>
        <time>2024-07-04T09:45:28.334Z</time>
      </trkpt>
      <trkpt lat="51.99653" lon="4.12777">
        <ele>55.088812</ele>
        <time>2024-07-04T09:45:30.312Z</time>
      </trkpt>
      <trkpt lat="51.9966" lon="4.12788">
        <ele>55.098842</ele>
        <time>2024-07-04T09:45:32.309Z</time>
      </trkpt>
      <trkpt lat="51.99668" lon="4.12798">
        <ele>55.108938</ele>
        <time>2024-07-04T09:45:34.311Z</time>
      </trkpt>
      <trkpt lat="51.99675" lon="4.12808">
        <ele>55.12787</ele>
        <time>2024-07-04T09:45:36.310Z</time>
      </trkpt>
      <trkpt lat="51.99682" lon="4.12819">
        <ele>55.170316</ele>
        <time>2024-07-04T09:45:38.288Z</time>
      </trkpt>
      <trkpt lat="51.9969" lon="4.1283">
        <ele>55.21397</ele>
        <time>2024-07-04T09:45:40.304Z</time>
      </trkpt>
      <trkpt lat="51.99697" lon="4.1284">
        <ele>55.256454</ele>
        <time>2024-07-04T09:45:42.316Z</time>
      </trkpt>
      <trkpt lat="51.99705" lon="4.12849">
        <ele>55.297326</ele>
        <time>2024-07-04T09:45:44.318Z</time>
      </trkpt>
      <trkpt lat="51.99713" lon="4.12859">
        <ele>55.339978</ele>
        <time>2024-07-04T09:45:46.306Z</time>
      </trkpt>
      <trkpt lat="51.99721" lon="4.12868">
        <ele>55.381856</ele>
        <time>2024-07-04T09:45:48.310Z</time>
      </trkpt>
      <trkpt lat="51.99729" lon="4.12875">
        <ele>55.420588</ele>
        <time>2024-07-04T09:45:50.299Z</time>
      </trkpt>
      <trkpt lat="51.99741" lon="4.12883">
        <ele>55.477042</ele>
        <time>2024-07-04T09:45:53.295Z</time>
      </trkpt>
      <trkpt lat="51.99753" lon="4.12896">
        <ele>55.535414</ele>
        <time>2024-07-04T09:45:56.292Z</time>
      </trkpt>
      <trkpt lat="51.99761" lon="4.12904">
        <ele>55.576579</ele>
        <time>2024-07-04T09:45:58.328Z</time>
      </trkpt>
      <trkpt lat="51.99769" lon="4.12914">
        <ele>55.621998</ele>
        <time>2024-07-04T09:46:00.327Z</time>
      </trkpt>
      <trkpt lat="51.99779" lon="4.12921">
        <ele>55.666162</ele>
        <time>2024-07-04T09:46:02.304Z</time>
      </trkpt>
      <trkpt lat="51.99788" lon="4.1293">
        <ele>55.709912</ele>
        <time>2024-07-04T09:46:04.320Z</time>
      </trkpt>
      <trkpt lat="51.99797" lon="4.12938">
        <ele>55.754559</ele>
        <time>2024-07-04T09:46:06.308Z</time>
      </trkpt>
      <trkpt lat="51.99805" lon="4.12949">
        <ele>55.800246</ele>
        <time>2024-07-04T09:46:08.317Z</time>
      </trkpt>
      <trkpt lat="51.99814" lon="4.1296">
        <ele>55.847386</ele>
        <time>2024-07-04T09:46:10.295Z</time>
      </trkpt>
      <trkpt lat="51.99823" lon="4.1297">
        <ele>55.900796</ele>
        <time>2024-07-04T09:46:12.312Z</time>
      </trkpt>
      <trkpt lat="51.99832" lon="4.1298">
        <ele>55.973515</ele>
        <time>2024-07-04T09:46:14.318Z</time>
      </trkpt>
      <trkpt lat="51.99841" lon="4.12992">
        <ele>56.048651</ele>
        <time>2024-07-04T09:46:16.324Z</time>
      </trkpt>
      <trkpt lat="51.99851" lon="4.13004">
        <ele>56.124815</ele>
        <time>2024-07-04T09:46:18.325Z</time>
      </trkpt>
      <trkpt lat="51.9986" lon="4.13015">
        <ele>56.197975</ele>
        <time>2024-07-04T09:46:20.308Z</time>
      </trkpt>
      <trkpt lat="51.99868" lon="4.13025">
        <ele>56.26317</ele>
        <time>2024-07-04T09:46:22.317Z</time>
      </trkpt>
      <trkpt lat="51.99879" lon="4.13036">
        <ele>56.34604</ele>
        <time>2024-07-04T09:46:25.295Z</time>
      </trkpt>
      <trkpt lat="51.99889" lon="4.13047">
        <ele>56.421229</ele>
        <time>2024-07-04T09:46:28.312Z</time>
      </trkpt>
      <trkpt lat="51.99899" lon="4.13058">
        <ele>56.502882</ele>
        <time>2024-07-04T09:46:31.320Z</time>
      </trkpt>
      <trkpt lat="51.9991" lon="4.1307">
        <ele>56.58945</ele>
        <time>2024-07-04T09:46:34.314Z</time>
      </trkpt>
      <trkpt lat="51.99918" lon="4.13078">
        <ele>56.648235</ele>
        <time>2024-07-04T09:46:36.316Z</time>
      </trkpt>
      <trkpt lat="51.99925" lon="4.13088">
        <ele>56.706908</ele>
        <time>2024-07-04T09:46:38.319Z</time>
      </trkpt>
      <trkpt lat="51.99932" lon="4.13098">
        <ele>56.766911</ele>
        <time>2024-07-04T09:46:40.314Z</time>
      </trkpt>
      <trkpt lat="51.99939" lon="4.13109">
        <ele>56.831027</ele>
        <time>2024-07-04T09:46:42.306Z</time>
      </trkpt>
      <trkpt lat="51.99947" lon="4.13119">
        <ele>56.896178</ele>
        <time>2024-07-04T09:46:44.327Z</time>
      </trkpt>
      <trkpt lat="51.99955" lon="4.13129">
        <ele>56.959118</ele>
        <time>2024-07-04T09:46:46.311Z</time>
      </trkpt>
      <trkpt lat="51.99963" lon="4.13137">
        <ele>57.019956</ele>
        <time>2024-07-04T09:46:48.307Z</time>
      </trkpt>
      <trkpt lat="51.99971" lon="4.13146">
        <ele>57.042625</ele>
        <time>2024-07-04T09:46:50.324Z</time>
      </trkpt>
      <trkpt lat="51.99979" lon="4.13156">
        <ele>57.044294</ele>
        <time>2024-07-04T09:46:52.314Z</time>
      </trkpt>
      <trkpt lat="51.99987" lon="4.13164">
        <ele>57.045868</ele>
        <time>2024-07-04T09:46:54.329Z</time>
      </trkpt>
      <trkpt lat="51.99996" lon="4.13172">
        <ele>57.04749</ele>
        <time>2024-07-04T09:46:56.328Z</time>
      </trkpt>
      <trkpt lat="52.00003" lon="4.13181">
        <ele>57.049025</ele>
        <time>2024-07-04T09:46:58.327Z</time>
      </trkpt>
      <trkpt lat="52.00011" lon="4.1319">
        <ele>57.050578</ele>
        <time>2024-07-04T09:47:00.327Z</time>
      </trkpt>
      <trkpt lat="52.00019" lon="4.13198">
        <ele>57.052103</ele>
        <time>2024-07-04T09:47:02.319Z</time>
      </trkpt>
      <trkpt lat="52.00026" lon="4.13206">
        <ele>57.053655</ele>
        <time>2024-07-04T09:47:04.334Z</time>
      </trkpt>
      <trkpt lat="52.00035" lon="4.13215">
        <ele>57.055243</ele>
        <time>2024-07-04T09:47:06.306Z</time>
      </trkpt>
      <trkpt lat="52.00043" lon="4.13222">
        <ele>57.056786</ele>
        <time>2024-07-04T09:47:08.312Z</time>
      </trkpt>
      <trkpt lat="52.00051" lon="4.13231">
        <ele>57.058407</ele>
        <time>2024-07-04T09:47:10.312Z</time>
      </trkpt>
      <trkpt lat="52.00058" lon="4.1324">
        <ele>57.059939</ele>
        <time>2024-07-04T09:47:12.323Z</time>
      </trkpt>
      <trkpt lat="52.00068" lon="4.13252">
        <ele>57.061963</ele>
        <time>2024-07-04T09:47:15.317Z</time>
      </trkpt>
      <trkpt lat="52.00064" lon="4.13271">
        <ele>57.063925</ele>
        <time>2024-07-04T09:47:18.301Z</time>
      </trkpt>
      <trkpt lat="52.0006" lon="4.13284">
        <ele>57.06545</ele>
        <time>2024-07-04T09:47:20.320Z</time>
      </trkpt>
      <trkpt lat="52.00056" lon="4.13299">
        <ele>57.067111</ele>
        <time>2024-07-04T09:47:22.324Z</time>
      </trkpt>
      <trkpt lat="52.0005" lon="4.13314">
        <ele>57.068907</ele>
        <time>2024-07-04T09:47:24.328Z</time>
      </trkpt>
      <trkpt lat="52.00044" lon="4.13328">
        <ele>57.070634</ele>
        <time>2024-07-04T09:47:26.331Z</time>
      </trkpt>
      <trkpt lat="52.0004" lon="4.13342">
        <ele>56.955354</ele>
        <time>2024-07-04T09:47:28.315Z</time>
      </trkpt>
      <trkpt lat="52.00032" lon="4.13357">
        <ele>56.682379</ele>
        <time>2024-07-04T09:47:31.293Z</time>
      </trkpt>
      <trkpt lat="52.0002" lon="4.13359">
        <ele>56.408335</ele>
        <time>2024-07-04T09:47:34.312Z</time>
      </trkpt>
      <trkpt lat="52.00009" lon="4.13354">
        <ele>56.153982</ele>
        <time>2024-07-04T09:47:37.313Z</time>
      </trkpt>
      <trkpt lat="51.99997" lon="4.13348">
        <ele>55.86728</ele>
        <time>2024-07-04T09:47:40.333Z</time>
      </trkpt>
      <trkpt lat="51.99989" lon="4.13344">
        <ele>55.663725</ele>
        <time>2024-07-04T09:47:42.321Z</time>
      </trkpt>
      <trkpt lat="51.99979" lon="4.13341">
        <ele>55.447928</ele>
        <time>2024-07-04T09:47:44.326Z</time>
      </trkpt>
      <trkpt lat="51.99966" lon="4.1334">
        <ele>55.149955</ele>
        <time>2024-07-04T09:47:47.300Z</time>
      </trkpt>
      <trkpt lat="51.99955" lon="4.13345">
        <ele>54.901351</ele>
        <time>2024-07-04T09:47:50.311Z</time>
      </trkpt>
      <trkpt lat="51.99959" lon="4.1336">
        <ele>54.666199</ele>
        <time>2024-07-04T09:47:53.313Z</time>
      </trkpt>
      <trkpt lat="51.99971" lon="4.13366">
        <ele>54.397192</ele>
        <time>2024-07-04T09:47:56.303Z</time>
      </trkpt>
      <trkpt lat="51.99983" lon="4.13375">
        <ele>54.092547</ele>
        <time>2024-07-04T09:47:59.298Z</time>
      </trkpt>
      <trkpt lat="51.99992" lon="4.13381">
        <ele>53.878273</ele>
        <time>2024-07-04T09:48:01.317Z</time>
      </trkpt>
      <trkpt lat="52.00001" lon="4.13388">
        <ele>53.661931</ele>
        <time>2024-07-04T09:48:03.318Z</time>
      </trkpt>
      <trkpt lat="52.00011" lon="4.13395">
        <ele>53.416339</ele>
        <time>2024-07-04T09:48:05.309Z</time>
      </trkpt>
      <trkpt lat="52.00021" lon="4.13401">
        <ele>53.169218</ele>
        <time>2024-07-04T09:48:07.310Z</time>
      </trkpt>
      <trkpt lat="52.00031" lon="4.13409">
        <ele>52.975865</ele>
        <time>2024-07-04T09:48:09.300Z</time>
      </trkpt>
      <trkpt lat="52.00042" lon="4.13417">
        <ele>52.882053</ele>
        <time>2024-07-04T09:48:11.302Z</time>
      </trkpt>
      <trkpt lat="52.00051" lon="4.13427">
        <ele>52.789228</ele>
        <time>2024-07-04T09:48:13.310Z</time>
      </trkpt>
      <trkpt lat="52.00062" lon="4.13435">
        <ele>52.694012</ele>
        <time>2024-07-04T09:48:15.324Z</time>
      </trkpt>
      <trkpt lat="52.00072" lon="4.13444">
        <ele>52.59716</ele>
        <time>2024-07-04T09:48:17.296Z</time>
      </trkpt>
      <trkpt lat="52.00082" lon="4.13453">
        <ele>52.502227</ele>
        <time>2024-07-04T09:48:19.332Z</time>
      </trkpt>
      <trkpt lat="52.00092" lon="4.13462">
        <ele>52.409906</ele>
        <time>2024-07-04T09:48:21.329Z</time>
      </trkpt>
      <trkpt lat="52.00102" lon="4.13471">
        <ele>52.317609</ele>
        <time>2024-07-04T09:48:23.294Z</time>
      </trkpt>
      <trkpt lat="52.00112" lon="4.1348">
        <ele>52.223368</ele>
        <time>2024-07-04T09:48:25.323Z</time>
      </trkpt>
      <trkpt lat="52.00122" lon="4.13491">
        <ele>52.12955</ele>
        <time>2024-07-04T09:48:27.313Z</time>
      </trkpt>
      <trkpt lat="52.00131" lon="4.13502">
        <ele>52.034866</ele>
        <time>2024-07-04T09:48:29.323Z</time>
      </trkpt>
      <trkpt lat="52.0014" lon="4.13514">
        <ele>51.937416</ele>
        <time>2024-07-04T09:48:31.312Z</time>
      </trkpt>
      <trkpt lat="52.0015" lon="4.13526">
        <ele>51.836089</ele>
        <time>2024-07-04T09:48:33.297Z</time>
      </trkpt>
      <trkpt lat="52.0016" lon="4.13538">
        <ele>51.738621</ele>
        <time>2024-07-04T09:48:35.313Z</time>
      </trkpt>
      <trkpt lat="52.0017" lon="4.1355">
        <ele>51.636576</ele>
        <time>2024-07-04T09:48:37.328Z</time>
      </trkpt>
      <trkpt lat="52.00179" lon="4.13563">
        <ele>51.538999</ele>
        <time>2024-07-04T09:48:39.316Z</time>
      </trkpt>
      <trkpt lat="52.0019" lon="4.13576">
        <ele>51.495183</ele>
        <time>2024-07-04T09:48:41.324Z</time>
      </trkpt>
      <trkpt lat="52.002" lon="4.13589">
        <ele>51.451257</ele>
        <time>2024-07-04T09:48:43.308Z</time>
      </trkpt>
      <trkpt lat="52.0021" lon="4.13603">
        <ele>51.40715</ele>
        <time>2024-07-04T09:48:45.316Z</time>
      </trkpt>
      <trkpt lat="52.0022" lon="4.13616">
        <ele>51.361386</ele>
        <time>2024-07-04T09:48:47.327Z</time>
      </trkpt>
      <trkpt lat="52.0023" lon="4.1363">
        <ele>51.317208</ele>
        <time>2024-07-04T09:48:49.318Z</time>
      </trkpt>
      <trkpt lat="52.0024" lon="4.13642">
        <ele>51.273808</ele>
        <time>2024-07-04T09:48:51.313Z</time>
      </trkpt>
      <trkpt lat="52.0025" lon="4.13656">
        <ele>51.22857</ele>
        <time>2024-07-04T09:48:53.318Z</time>
      </trkpt>
      <trkpt lat="52.00261" lon="4.13669">
        <ele>51.184502</ele>
        <time>2024-07-04T09:48:55.306Z</time>
      </trkpt>
      <trkpt lat="52.0027" lon="4.13681">
        <ele>51.141912</ele>
        <time>2024-07-04T09:48:57.312Z</time>
      </trkpt>
      <trkpt lat="52.00281" lon="4.13694">
        <ele>51.097844</ele>
        <time>2024-07-04T09:48:59.312Z</time>
      </trkpt>
      <trkpt lat="52.00291" lon="4.13707">
        <ele>51.053377</ele>
        <time>2024-07-04T09:49:01.297Z</time>
      </trkpt>
      <trkpt lat="52.00301" lon="4.1372">
        <ele>51.010119</ele>
        <time>2024-07-04T09:49:03.340Z</time>
      </trkpt>
      <trkpt lat="52.00311" lon="4.13733">
        <ele>50.966329</ele>
        <time>2024-07-04T09:49:05.315Z</time>
      </trkpt>
      <trkpt lat="52.00321" lon="4.13746">
        <ele>50.969168</ele>
        <time>2024-07-04T09:49:07.293Z</time>
      </trkpt>
      <trkpt lat="52.00331" lon="4.13757">
        <ele>51.188194</ele>
        <time>2024-07-04T09:49:09.331Z</time>
      </trkpt>
      <trkpt lat="52.00341" lon="4.13769">
        <ele>51.411376</ele>
        <time>2024-07-04T09:49:11.306Z</time>
      </trkpt>
      <trkpt lat="52.00351" lon="4.13782">
        <ele>51.635223</ele>
        <time>2024-07-04T09:49:13.319Z</time>
      </trkpt>
      <trkpt lat="52.00361" lon="4.13794">
        <ele>51.856567</ele>
        <time>2024-07-04T09:49:15.311Z</time>
      </trkpt>
      <trkpt lat="52.00372" lon="4.13806">
        <ele>52.082067</ele>
        <time>2024-07-04T09:49:17.285Z</time>
      </trkpt>
      <trkpt lat="52.00382" lon="4.13816">
        <ele>52.298722</ele>
        <time>2024-07-04T09:49:19.323Z</time>
      </trkpt>
      <trkpt lat="52.00393" lon="4.13828">
        <ele>52.531694</ele>
        <time>2024-07-04T09:49:21.320Z</time>
      </trkpt>
      <trkpt lat="52.00403" lon="4.13839">
        <ele>52.754661</ele>
        <time>2024-07-04T09:49:23.303Z</time>
      </trkpt>
      <trkpt lat="52.00413" lon="4.1385">
        <ele>52.963072</ele>
        <time>2024-07-04T09:49:25.296Z</time>
      </trkpt>
      <trkpt lat="52.00421" lon="4.1386">
        <ele>53.149899</ele>
        <time>2024-07-04T09:49:27.327Z</time>
      </trkpt>
      <trkpt lat="52.00429" lon="4.1387">
        <ele>53.318601</ele>
        <time>2024-07-04T09:49:29.316Z</time>
      </trkpt>
      <trkpt lat="52.00436" lon="4.1388">
        <ele>53.478425</ele>
        <time>2024-07-04T09:49:31.317Z</time>
      </trkpt>
      <trkpt lat="52.00445" lon="4.13895">
        <ele>53.708893</ele>
        <time>2024-07-04T09:49:34.312Z</time>
      </trkpt>
      <trkpt lat="52.00454" lon="4.13909">
        <ele>53.93849</ele>
        <time>2024-07-04T09:49:37.316Z</time>
      </trkpt>
      <trkpt lat="52.00464" lon="4.13923">
        <ele>54.126124</ele>
        <time>2024-07-04T09:49:40.310Z</time>
      </trkpt>
      <trkpt lat="52.00473" lon="4.13939">
        <ele>54.150165</ele>
        <time>2024-07-04T09:49:43.300Z</time>
      </trkpt>
      <trkpt lat="52.0048" lon="4.13949">
        <ele>54.167099</ele>
        <time>2024-07-04T09:49:45.326Z</time>
      </trkpt>
      <trkpt lat="52.00487" lon="4.1396">
        <ele>54.183983</ele>
        <time>2024-07-04T09:49:47.307Z</time>
      </trkpt>
      <trkpt lat="52.00494" lon="4.13971">
        <ele>54.201327</ele>
        <time>2024-07-04T09:49:49.308Z</time>
      </trkpt>
      <trkpt lat="52.00501" lon="4.13983">
        <ele>54.21938</ele>
        <time>2024-07-04T09:49:51.325Z</time>
      </trkpt>
      <trkpt lat="52.00509" lon="4.13994">
        <ele>54.237618</ele>
        <time>2024-07-04T09:49:53.321Z</time>
      </trkpt>
      <trkpt lat="52.00516" lon="4.14005">
        <ele>54.255371</ele>
        <time>2024-07-04T09:49:55.301Z</time>
      </trkpt>
      <trkpt lat="52.00524" lon="4.14015">
        <ele>54.27303</ele>
        <time>2024-07-04T09:49:57.320Z</time>
      </trkpt>
      <trkpt lat="52.00532" lon="4.14025">
        <ele>54.290489</ele>
        <time>2024-07-04T09:49:59.321Z</time>
      </trkpt>
      <trkpt lat="52.0054" lon="4.14033">
        <ele>54.307687</ele>
        <time>2024-07-04T09:50:01.306Z</time>
      </trkpt>
      <trkpt lat="52.00548" lon="4.14042">
        <ele>54.325006</ele>
        <time>2024-07-04T09:50:03.305Z</time>
      </trkpt>
      <trkpt lat="52.00556" lon="4.1405">
        <ele>54.342202</ele>
        <time>2024-07-04T09:50:05.307Z</time>
      </trkpt>
      <trkpt lat="52.00565" lon="4.14059">
        <ele>54.360325</ele>
        <time>2024-07-04T09:50:07.328Z</time>
      </trkpt>
      <trkpt lat="52.00574" lon="4.14066">
        <ele>54.377779</ele>
        <time>2024-07-04T09:50:09.319Z</time>
      </trkpt>
      <trkpt lat="52.00582" lon="4.14075">
        <ele>54.394951</ele>
        <time>2024-07-04T09:50:11.315Z</time>
      </trkpt>
      <trkpt lat="52.00591" lon="4.14082">
        <ele>54.412924</ele>
        <time>2024-07-04T09:50:13.317Z</time>
      </trkpt>
      <trkpt lat="52.006" lon="4.1409">
        <ele>54.431526</ele>
        <time>2024-07-04T09:50:15.326Z</time>
      </trkpt>
      <trkpt lat="52.00609" lon="4.14099">
        <ele>54.437818</ele>
        <time>2024-07-04T09:50:17.317Z</time>
      </trkpt>
      <trkpt lat="52.00618" lon="4.14107">
        <ele>54.430871</ele>
        <time>2024-07-04T09:50:19.328Z</time>
      </trkpt>
      <trkpt lat="52.00626" lon="4.14115">
        <ele>54.42388</ele>
        <time>2024-07-04T09:50:21.322Z</time>
      </trkpt>
      <trkpt lat="52.00635" lon="4.14123">
        <ele>54.416832</ele>
        <time>2024-07-04T09:50:23.314Z</time>
      </trkpt>
      <trkpt lat="52.00644" lon="4.14131">
        <ele>54.409721</ele>
        <time>2024-07-04T09:50:25.307Z</time>
      </trkpt>
      <trkpt lat="52.00653" lon="4.14139">
        <ele>54.402894</ele>
        <time>2024-07-04T09:50:27.312Z</time>
      </trkpt>
      <trkpt lat="52.00662" lon="4.14147">
        <ele>54.395764</ele>
        <time>2024-07-04T09:50:29.311Z</time>
      </trkpt>
      <trkpt lat="52.00671" lon="4.14154">
        <ele>54.388633</ele>
        <time>2024-07-04T09:50:31.319Z</time>
      </trkpt>
      <trkpt lat="52.0068" lon="4.14162">
        <ele>54.381584</ele>
        <time>2024-07-04T09:50:33.313Z</time>
      </trkpt>
      <trkpt lat="52.00688" lon="4.1417">
        <ele>54.374855</ele>
        <time>2024-07-04T09:50:35.306Z</time>
      </trkpt>
      <trkpt lat="52.00696" lon="4.14178">
        <ele>54.3682</ele>
        <time>2024-07-04T09:50:37.314Z</time>
      </trkpt>
      <trkpt lat="52.00705" lon="4.14187">
        <ele>54.361263</ele>
        <time>2024-07-04T09:50:39.312Z</time>
      </trkpt>
      <trkpt lat="52.00714" lon="4.14195">
        <ele>54.354173</ele>
        <time>2024-07-04T09:50:41.316Z</time>
      </trkpt>
      <trkpt lat="52.00723" lon="4.14204">
        <ele>54.346857</ele>
        <time>2024-07-04T09:50:43.309Z</time>
      </trkpt>
      <trkpt lat="52.00731" lon="4.14212">
        <ele>54.339875</ele>
        <time>2024-07-04T09:50:45.327Z</time>
      </trkpt>
      <trkpt lat="52.0074" lon="4.14223">
        <ele>54.332538</ele>
        <time>2024-07-04T09:50:47.324Z</time>
      </trkpt>
      <trkpt lat="52.00747" lon="4.14233">
        <ele>54.325733</ele>
        <time>2024-07-04T09:50:49.325Z</time>
      </trkpt>
      <trkpt lat="52.00754" lon="4.14245">
        <ele>54.318709</ele>
        <time>2024-07-04T09:50:51.313Z</time>
      </trkpt>
      <trkpt lat="52.00761" lon="4.14258">
        <ele>54.342173</ele>
        <time>2024-07-04T09:50:53.320Z</time>
      </trkpt>
      <trkpt lat="52.00767" lon="4.14271">
        <ele>54.381969</ele>
        <time>2024-07-04T09:50:55.317Z</time>
      </trkpt>
      <trkpt lat="52.00774" lon="4.14285">
        <ele>54.422991</ele>
        <time>2024-07-04T09:50:57.310Z</time>
      </trkpt>
      <trkpt lat="52.00781" lon="4.14297">
        <ele>54.462003</ele>
        <time>2024-07-04T09:50:59.330Z</time>
      </trkpt>
      <trkpt lat="52.00788" lon="4.1431">
        <ele>54.500791</ele>
        <time>2024-07-04T09:51:01.310Z</time>
      </trkpt>
      <trkpt lat="52.00794" lon="4.14323">
        <ele>54.53854</ele>
        <time>2024-07-04T09:51:03.308Z</time>
      </trkpt>
      <trkpt lat="52.008" lon="4.14335">
        <ele>54.576198</ele>
        <time>2024-07-04T09:51:05.313Z</time>
      </trkpt>
      <trkpt lat="52.00806" lon="4.14348">
        <ele>54.614786</ele>
        <time>2024-07-04T09:51:07.324Z</time>
      </trkpt>
      <trkpt lat="52.00813" lon="4.14361">
        <ele>54.653558</ele>
        <time>2024-07-04T09:51:09.323Z</time>
      </trkpt>
      <trkpt lat="52.00819" lon="4.14373">
        <ele>54.692169</ele>
        <time>2024-07-04T09:51:11.306Z</time>
      </trkpt>
      <trkpt lat="52.00826" lon="4.14386">
        <ele>54.731134</ele>
        <time>2024-07-04T09:51:13.326Z</time>
      </trkpt>
      <trkpt lat="52.00833" lon="4.14398">
        <ele>54.769002</ele>
        <time>2024-07-04T09:51:15.328Z</time>
      </trkpt>
      <trkpt lat="52.00839" lon="4.14411">
        <ele>54.808467</ele>
        <time>2024-07-04T09:51:17.320Z</time>
      </trkpt>
      <trkpt lat="52.00846" lon="4.14424">
        <ele>54.847883</ele>
        <time>2024-07-04T09:51:19.332Z</time>
      </trkpt>
      <trkpt lat="52.00853" lon="4.14437">
        <ele>54.887685</ele>
        <time>2024-07-04T09:51:21.309Z</time>
      </trkpt>
      <trkpt lat="52.0086" lon="4.1445">
        <ele>54.928519</ele>
        <time>2024-07-04T09:51:23.304Z</time>
      </trkpt>
      <trkpt lat="52.00866" lon="4.14464">
        <ele>54.970273</ele>
        <time>2024-07-04T09:51:25.310Z</time>
      </trkpt>
      <trkpt lat="52.00874" lon="4.14478">
        <ele>55.008932</ele>
        <time>2024-07-04T09:51:27.314Z</time>
      </trkpt>
      <trkpt lat="52.00881" lon="4.1449">
        <ele>55.039331</ele>
        <time>2024-07-04T09:51:29.316Z</time>
      </trkpt>
      <trkpt lat="52.00887" lon="4.14504">
        <ele>55.071034</ele>
        <time>2024-07-04T09:51:31.321Z</time>
      </trkpt>
      <trkpt lat="52.00895" lon="4.14518">
        <ele>55.102211</ele>
        <time>2024-07-04T09:51:33.317Z</time>
      </trkpt>
      <trkpt lat="52.00901" lon="4.14531">
        <ele>55.133046</ele>
        <time>2024-07-04T09:51:35.319Z</time>
      </trkpt>
      <trkpt lat="52.00908" lon="4.14545">
        <ele>55.1637</ele>
        <time>2024-07-04T09:51:37.309Z</time>
      </trkpt>
      <trkpt lat="52.00915" lon="4.14558">
        <ele>55.193858</ele>
        <time>2024-07-04T09:51:39.312Z</time>
      </trkpt>
      <trkpt lat="52.00921" lon="4.14572">
        <ele>55.223945</ele>
        <time>2024-07-04T09:51:41.295Z</time>
      </trkpt>
      <trkpt lat="52.00927" lon="4.14586">
        <ele>55.254771</ele>
        <time>2024-07-04T09:51:43.315Z</time>
      </trkpt>
      <trkpt lat="52.00934" lon="4.14599">
        <ele>55.284752</ele>
        <time>2024-07-04T09:51:45.310Z</time>
      </trkpt>
      <trkpt lat="52.00939" lon="4.14613">
        <ele>55.314718</ele>
        <time>2024-07-04T09:51:47.322Z</time>
      </trkpt>
      <trkpt lat="52.00945" lon="4.14628">
        <ele>55.344977</ele>
        <time>2024-07-04T09:51:49.315Z</time>
      </trkpt>
      <trkpt lat="52.0095" lon="4.14643">
        <ele>55.374572</ele>
        <time>2024-07-04T09:51:51.296Z</time>
      </trkpt>
      <trkpt lat="52.00955" lon="4.14657">
        <ele>55.404528</ele>
        <time>2024-07-04T09:51:53.320Z</time>
      </trkpt>
      <trkpt lat="52.0096" lon="4.14672">
        <ele>55.434682</ele>
        <time>2024-07-04T09:51:55.314Z</time>
      </trkpt>
      <trkpt lat="52.00965" lon="4.14687">
        <ele>55.465037</ele>
        <time>2024-07-04T09:51:57.326Z</time>
      </trkpt>
      <trkpt lat="52.0097" lon="4.14702">
        <ele>55.49519</ele>
        <time>2024-07-04T09:51:59.328Z</time>
      </trkpt>
      <trkpt lat="52.00975" lon="4.14717">
        <ele>55.452602</ele>
        <time>2024-07-04T09:52:01.311Z</time>
      </trkpt>
      <trkpt lat="52.00981" lon="4.14731">
        <ele>55.243379</ele>
        <time>2024-07-04T09:52:03.328Z</time>
      </trkpt>
      <trkpt lat="52.00987" lon="4.14745">
        <ele>55.026327</ele>
        <time>2024-07-04T09:52:05.325Z</time>
      </trkpt>
      <trkpt lat="52.00994" lon="4.14757">
        <ele>54.819394</ele>
        <time>2024-07-04T09:52:07.323Z</time>
      </trkpt>
      <trkpt lat="52.01002" lon="4.14766">
        <ele>54.623957</ele>
        <time>2024-07-04T09:52:09.292Z</time>
      </trkpt>
      <trkpt lat="52.01011" lon="4.14773">
        <ele>54.423256</ele>
        <time>2024-07-04T09:52:11.312Z</time>
      </trkpt>
      <trkpt lat="52.01021" lon="4.14779">
        <ele>54.204072</ele>
        <time>2024-07-04T09:52:13.303Z</time>
      </trkpt>
      <trkpt lat="52.01032" lon="4.14784">
        <ele>53.969781</ele>
        <time>2024-07-04T09:52:15.295Z</time>
      </trkpt>
      <trkpt lat="52.01043" lon="4.14791">
        <ele>53.72106</ele>
        <time>2024-07-04T09:52:17.312Z</time>
      </trkpt>
      <trkpt lat="52.01056" lon="4.14797">
        <ele>53.451321</ele>
        <time>2024-07-04T09:52:19.326Z</time>
      </trkpt>
      <trkpt lat="52.01069" lon="4.14804">
        <ele>53.164083</ele>
        <time>2024-07-04T09:52:21.291Z</time>
      </trkpt>
      <trkpt lat="52.01083" lon="4.14812">
        <ele>52.855437</ele>
        <time>2024-07-04T09:52:23.311Z</time>
      </trkpt>
      <trkpt lat="52.01098" lon="4.1482">
        <ele>52.532411</ele>
        <time>2024-07-04T09:52:25.328Z</time>
      </trkpt>
      <trkpt lat="52.01114" lon="4.14827">
        <ele>52.201141</ele>
        <time>2024-07-04T09:52:27.331Z</time>
      </trkpt>
      <trkpt lat="52.01129" lon="4.14835">
        <ele>51.88626</ele>
        <time>2024-07-04T09:52:29.316Z</time>
      </trkpt>
      <trkpt lat="52.01143" lon="4.14841">
        <ele>51.836495</ele>
        <time>2024-07-04T09:52:31.313Z</time>
      </trkpt>
      <trkpt lat="52.01157" lon="4.14847">
        <ele>51.836644</ele>
        <time>2024-07-04T09:52:33.313Z</time>
      </trkpt>
      <trkpt lat="52.0117" lon="4.14852">
        <ele>51.836789</ele>
        <time>2024-07-04T09:52:35.314Z</time>
      </trkpt>
      <trkpt lat="52.01183" lon="4.14857">
        <ele>51.83693</ele>
        <time>2024-07-04T09:52:37.308Z</time>
      </trkpt>
      <trkpt lat="52.01195" lon="4.14862">
        <ele>51.837062</ele>
        <time>2024-07-04T09:52:39.313Z</time>
      </trkpt>
      <trkpt lat="52.01208" lon="4.14867">
        <ele>51.837194</ele>
        <time>2024-07-04T09:52:41.322Z</time>
      </trkpt>
      <trkpt lat="52.01219" lon="4.14872">
        <ele>51.837323</ele>
        <time>2024-07-04T09:52:43.308Z</time>
      </trkpt>
      <trkpt lat="52.0123" lon="4.14877">
        <ele>51.837441</ele>
        <time>2024-07-04T09:52:45.289Z</time>
      </trkpt>
      <trkpt lat="52.01241" lon="4.14882">
        <ele>51.837559</ele>
        <time>2024-07-04T09:52:47.325Z</time>
      </trkpt>
      <trkpt lat="52.01251" lon="4.14886">
        <ele>51.837672</ele>
        <time>2024-07-04T09:52:49.305Z</time>
      </trkpt>
      <trkpt lat="52.01261" lon="4.14889">
        <ele>51.83778</ele>
        <time>2024-07-04T09:52:51.325Z</time>
      </trkpt>
      <trkpt lat="52.01271" lon="4.14893">
        <ele>51.837886</ele>
        <time>2024-07-04T09:52:53.304Z</time>
      </trkpt>
      <trkpt lat="52.01281" lon="4.14896">
        <ele>51.837996</ele>
        <time>2024-07-04T09:52:55.311Z</time>
      </trkpt>
      <trkpt lat="52.01292" lon="4.149">
        <ele>51.838107</ele>
        <time>2024-07-04T09:52:57.305Z</time>
      </trkpt>
      <trkpt lat="52.01302" lon="4.14904">
        <ele>51.838217</ele>
        <time>2024-07-04T09:52:59.323Z</time>
      </trkpt>
      <trkpt lat="52.01313" lon="4.14907">
        <ele>51.850522</ele>
        <time>2024-07-04T09:53:01.326Z</time>
      </trkpt>
      <trkpt lat="52.01323" lon="4.14911">
        <ele>51.867021</ele>
        <time>2024-07-04T09:53:03.318Z</time>
      </trkpt>
      <trkpt lat="52.01334" lon="4.14916">
        <ele>51.884206</ele>
        <time>2024-07-04T09:53:05.309Z</time>
      </trkpt>
      <trkpt lat="52.01344" lon="4.1492">
        <ele>51.901631</ele>
        <time>2024-07-04T09:53:07.324Z</time>
      </trkpt>
      <trkpt lat="52.01355" lon="4.14925">
        <ele>51.91935</ele>
        <time>2024-07-04T09:53:09.323Z</time>
      </trkpt>
      <trkpt lat="52.01366" lon="4.1493">
        <ele>51.936715</ele>
        <time>2024-07-04T09:53:11.317Z</time>
      </trkpt>
      <trkpt lat="52.01376" lon="4.14935">
        <ele>51.954359</ele>
        <time>2024-07-04T09:53:13.305Z</time>
      </trkpt>
      <trkpt lat="52.01387" lon="4.1494">
        <ele>51.971544</ele>
        <time>2024-07-04T09:53:15.322Z</time>
      </trkpt>
      <trkpt lat="52.01397" lon="4.14944">
        <ele>51.988676</ele>
        <time>2024-07-04T09:53:17.326Z</time>
      </trkpt>
      <trkpt lat="52.01408" lon="4.14949">
        <ele>52.005861</ele>
        <time>2024-07-04T09:53:19.311Z</time>
      </trkpt>
      <trkpt lat="52.01418" lon="4.14954">
        <ele>52.022942</ele>
        <time>2024-07-04T09:53:21.308Z</time>
      </trkpt>
      <trkpt lat="52.01429" lon="4.14957">
        <ele>52.040304</ele>
        <time>2024-07-04T09:53:23.329Z</time>
      </trkpt>
      <trkpt lat="52.01439" lon="4.14963">
        <ele>52.05745</ele>
        <time>2024-07-04T09:53:25.311Z</time>
      </trkpt>
      <trkpt lat="52.0145" lon="4.14968">
        <ele>52.075052</ele>
        <time>2024-07-04T09:53:27.315Z</time>
      </trkpt>
      <trkpt lat="52.01461" lon="4.14972">
        <ele>52.092963</ele>
        <time>2024-07-04T09:53:29.339Z</time>
      </trkpt>
      <trkpt lat="52.01471" lon="4.14977">
        <ele>52.110412</ele>
        <time>2024-07-04T09:53:31.310Z</time>
      </trkpt>
      <trkpt lat="52.01482" lon="4.14983">
        <ele>52.145501</ele>
        <time>2024-07-04T09:53:33.316Z</time>
      </trkpt>
      <trkpt lat="52.01492" lon="4.14987">
        <ele>52.232364</ele>
        <time>2024-07-04T09:53:35.310Z</time>
      </trkpt>
      <trkpt lat="52.01503" lon="4.14992">
        <ele>52.322984</ele>
        <time>2024-07-04T09:53:37.315Z</time>
      </trkpt>
      <trkpt lat="52.01515" lon="4.14996">
        <ele>52.413605</ele>
        <time>2024-07-04T09:53:39.320Z</time>
      </trkpt>
      <trkpt lat="52.01526" lon="4.15001">
        <ele>52.506768</ele>
        <time>2024-07-04T09:53:41.337Z</time>
      </trkpt>
      <trkpt lat="52.01537" lon="4.15005">
        <ele>52.594733</ele>
        <time>2024-07-04T09:53:43.289Z</time>
      </trkpt>
      <trkpt lat="52.01548" lon="4.1501">
        <ele>52.685479</ele>
        <time>2024-07-04T09:53:45.311Z</time>
      </trkpt>
      <trkpt lat="52.01558" lon="4.15015">
        <ele>52.772387</ele>
        <time>2024-07-04T09:53:47.306Z</time>
      </trkpt>
      <trkpt lat="52.01569" lon="4.15018">
        <ele>52.86004</ele>
        <time>2024-07-04T09:53:49.315Z</time>
      </trkpt>
      <trkpt lat="52.0158" lon="4.15022">
        <ele>52.945044</ele>
        <time>2024-07-04T09:53:51.310Z</time>
      </trkpt>
      <trkpt lat="52.01592" lon="4.15026">
        <ele>53.047516</ele>
        <time>2024-07-04T09:53:54.307Z</time>
      </trkpt>
      <trkpt lat="52.01604" lon="4.15029">
        <ele>53.144004</ele>
        <time>2024-07-04T09:53:57.330Z</time>
      </trkpt>
      <trkpt lat="52.01617" lon="4.15033">
        <ele>53.246123</ele>
        <time>2024-07-04T09:54:00.321Z</time>
      </trkpt>
      <trkpt lat="52.01629" lon="4.15037">
        <ele>53.34544</ele>
        <time>2024-07-04T09:54:03.323Z</time>
      </trkpt>
      <trkpt lat="52.01639" lon="4.15046">
        <ele>53.432303</ele>
        <time>2024-07-04T09:54:06.293Z</time>
      </trkpt>
      <trkpt lat="52.01649" lon="4.15056">
        <ele>53.528027</ele>
        <time>2024-07-04T09:54:09.325Z</time>
      </trkpt>
      <trkpt lat="52.01659" lon="4.15068">
        <ele>53.610563</ele>
        <time>2024-07-04T09:54:12.319Z</time>
      </trkpt>
      <trkpt lat="52.01668" lon="4.1508">
        <ele>53.694185</ele>
        <time>2024-07-04T09:54:15.326Z</time>
      </trkpt>
      <trkpt lat="52.01679" lon="4.15092">
        <ele>53.78254</ele>
        <time>2024-07-04T09:54:18.302Z</time>
      </trkpt>
      <trkpt lat="52.01689" lon="4.15104">
        <ele>53.866813</ele>
        <time>2024-07-04T09:54:21.309Z</time>
      </trkpt>
      <trkpt lat="52.01697" lon="4.15114">
        <ele>53.934992</ele>
        <time>2024-07-04T09:54:23.287Z</time>
      </trkpt>
      <trkpt lat="52.01705" lon="4.15123">
        <ele>53.999553</ele>
        <time>2024-07-04T09:54:25.325Z</time>
      </trkpt>
      <trkpt lat="52.01713" lon="4.15133">
        <ele>54.066691</ele>
        <time>2024-07-04T09:54:27.332Z</time>
      </trkpt>
      <trkpt lat="52.01721" lon="4.15143">
        <ele>54.13487</ele>
        <time>2024-07-04T09:54:29.297Z</time>
      </trkpt>
      <trkpt lat="52.01729" lon="4.15153">
        <ele>54.203877</ele>
        <time>2024-07-04T09:54:31.329Z</time>
      </trkpt>
      <trkpt lat="52.01738" lon="4.15162">
        <ele>54.272865</ele>
        <time>2024-07-04T09:54:33.313Z</time>
      </trkpt>
      <trkpt lat="52.01746" lon="4.15171">
        <ele>54.340176</ele>
        <time>2024-07-04T09:54:35.312Z</time>
      </trkpt>
      <trkpt lat="52.01754" lon="4.15181">
        <ele>54.409398</ele>
        <time>2024-07-04T09:54:37.321Z</time>
      </trkpt>
      <trkpt lat="52.01762" lon="4.15191">
        <ele>54.476243</ele>
        <time>2024-07-04T09:54:39.310Z</time>
      </trkpt>
      <trkpt lat="52.0177" lon="4.15201">
        <ele>54.542879</ele>
        <time>2024-07-04T09:54:41.327Z</time>
      </trkpt>
      <trkpt lat="52.01778" lon="4.15211">
        <ele>54.611847</ele>
        <time>2024-07-04T09:54:43.311Z</time>
      </trkpt>
      <trkpt lat="52.01786" lon="4.15221">
        <ele>54.679774</ele>
        <time>2024-07-04T09:54:45.311Z</time>
      </trkpt>
      <trkpt lat="52.01794" lon="4.1523">
        <ele>54.745501</ele>
        <time>2024-07-04T09:54:47.295Z</time>
      </trkpt>
      <trkpt lat="52.01802" lon="4.1524">
        <ele>54.744046</ele>
        <time>2024-07-04T09:54:49.310Z</time>
      </trkpt>
      <trkpt lat="52.0181" lon="4.1525">
        <ele>54.718644</ele>
        <time>2024-07-04T09:54:51.327Z</time>
      </trkpt>
      <trkpt lat="52.01818" lon="4.1526">
        <ele>54.694128</ele>
        <time>2024-07-04T09:54:53.323Z</time>
      </trkpt>
      <trkpt lat="52.01826" lon="4.1527">
        <ele>54.669415</ele>
        <time>2024-07-04T09:54:55.316Z</time>
      </trkpt>
      <trkpt lat="52.01834" lon="4.1528">
        <ele>54.643922</ele>
        <time>2024-07-04T09:54:57.313Z</time>
      </trkpt>
      <trkpt lat="52.01842" lon="4.15289">
        <ele>54.620377</ele>
        <time>2024-07-04T09:54:59.324Z</time>
      </trkpt>
      <trkpt lat="52.01849" lon="4.15298">
        <ele>54.597172</ele>
        <time>2024-07-04T09:55:01.325Z</time>
      </trkpt>
      <trkpt lat="52.01857" lon="4.15308">
        <ele>54.572854</ele>
        <time>2024-07-04T09:55:03.316Z</time>
      </trkpt>
      <trkpt lat="52.01865" lon="4.15317">
        <ele>54.548368</ele>
        <time>2024-07-04T09:55:05.311Z</time>
      </trkpt>
      <trkpt lat="52.01872" lon="4.15327">
        <ele>54.524433</ele>
        <time>2024-07-04T09:55:07.310Z</time>
      </trkpt>
      <trkpt lat="52.0188" lon="4.15337">
        <ele>54.499923</ele>
        <time>2024-07-04T09:55:09.314Z</time>
      </trkpt>
      <trkpt lat="52.01888" lon="4.15346">
        <ele>54.475437</ele>
        <time>2024-07-04T09:55:11.312Z</time>
      </trkpt>
      <trkpt lat="52.01896" lon="4.15357">
        <ele>54.449095</ele>
        <time>2024-07-04T09:55:13.299Z</time>
      </trkpt>
      <trkpt lat="52.01905" lon="4.15367">
        <ele>54.423324</ele>
        <time>2024-07-04T09:55:15.312Z</time>
      </trkpt>
      <trkpt lat="52.01913" lon="4.15377">
        <ele>54.397141</ele>
        <time>2024-07-04T09:55:17.331Z</time>
      </trkpt>
      <trkpt lat="52.01921" lon="4.15388">
        <ele>54.371463</ele>
        <time>2024-07-04T09:55:19.309Z</time>
      </trkpt>
      <trkpt lat="52.0193" lon="4.15397">
        <ele>54.345636</ele>
        <time>2024-07-04T09:55:21.314Z</time>
      </trkpt>
      <trkpt lat="52.01938" lon="4.15407">
        <ele>54.320417</ele>
        <time>2024-07-04T09:55:23.323Z</time>
      </trkpt>
      <trkpt lat="52.01946" lon="4.15418">
        <ele>54.325295</ele>
        <time>2024-07-04T09:55:25.322Z</time>
      </trkpt>
      <trkpt lat="52.01955" lon="4.15428">
        <ele>54.335948</ele>
        <time>2024-07-04T09:55:27.309Z</time>
      </trkpt>
      <trkpt lat="52.01963" lon="4.15438">
        <ele>54.346891</ele>
        <time>2024-07-04T09:55:29.323Z</time>
      </trkpt>
      <trkpt lat="52.01971" lon="4.15448">
        <ele>54.357267</ele>
        <time>2024-07-04T09:55:31.322Z</time>
      </trkpt>
      <trkpt lat="52.01979" lon="4.15458">
        <ele>54.367768</ele>
        <time>2024-07-04T09:55:33.333Z</time>
      </trkpt>
      <trkpt lat="52.01987" lon="4.15468">
        <ele>54.378225</ele>
        <time>2024-07-04T09:55:35.315Z</time>
      </trkpt>
      <trkpt lat="52.01995" lon="4.15478">
        <ele>54.388524</ele>
        <time>2024-07-04T09:55:37.331Z</time>
      </trkpt>
      <trkpt lat="52.02004" lon="4.15488">
        <ele>54.399069</ele>
        <time>2024-07-04T09:55:39.304Z</time>
      </trkpt>
      <trkpt lat="52.02012" lon="4.15498">
        <ele>54.40945</ele>
        <time>2024-07-04T09:55:41.320Z</time>
      </trkpt>
      <trkpt lat="52.0202" lon="4.15508">
        <ele>54.419946</ele>
        <time>2024-07-04T09:55:43.329Z</time>
      </trkpt>
      <trkpt lat="52.02028" lon="4.15519">
        <ele>54.430758</ele>
        <time>2024-07-04T09:55:45.324Z</time>
      </trkpt>
      <trkpt lat="52.02037" lon="4.15529">
        <ele>54.44146</ele>
        <time>2024-07-04T09:55:47.321Z</time>
      </trkpt>
      <trkpt lat="52.02045" lon="4.15539">
        <ele>54.451999</ele>
        <time>2024-07-04T09:55:49.314Z</time>
      </trkpt>
      <trkpt lat="52.02053" lon="4.15549">
        <ele>54.462424</ele>
        <time>2024-07-04T09:55:51.311Z</time>
      </trkpt>
      <trkpt lat="52.02061" lon="4.15559">
        <ele>54.473037</ele>
        <time>2024-07-04T09:55:53.308Z</time>
      </trkpt>
      <trkpt lat="52.0207" lon="4.1557">
        <ele>54.483853</ele>
        <time>2024-07-04T09:55:55.310Z</time>
      </trkpt>
      <trkpt lat="52.02078" lon="4.1558">
        <ele>54.494815</ele>
        <time>2024-07-04T09:55:57.325Z</time>
      </trkpt>
      <trkpt lat="52.02087" lon="4.15591">
        <ele>54.479698</ele>
        <time>2024-07-04T09:55:59.315Z</time>
      </trkpt>
      <trkpt lat="52.02096" lon="4.15602">
        <ele>54.439212</ele>
        <time>2024-07-04T09:56:01.316Z</time>
      </trkpt>
      <trkpt lat="52.02104" lon="4.15612">
        <ele>54.40056</ele>
        <time>2024-07-04T09:56:03.306Z</time>
      </trkpt>
      <trkpt lat="52.02113" lon="4.15621">
        <ele>54.361306</ele>
        <time>2024-07-04T09:56:05.332Z</time>
      </trkpt>
      <trkpt lat="52.02121" lon="4.15632">
        <ele>54.323725</ele>
        <time>2024-07-04T09:56:07.308Z</time>
      </trkpt>
      <trkpt lat="52.02129" lon="4.15642">
        <ele>54.285104</ele>
        <time>2024-07-04T09:56:09.311Z</time>
      </trkpt>
      <trkpt lat="52.02137" lon="4.15652">
        <ele>54.246938</ele>
        <time>2024-07-04T09:56:11.308Z</time>
      </trkpt>
      <trkpt lat="52.02146" lon="4.15662">
        <ele>54.207813</ele>
        <time>2024-07-04T09:56:13.308Z</time>
      </trkpt>
      <trkpt lat="52.02155" lon="4.15672">
        <ele>54.169425</ele>
        <time>2024-07-04T09:56:15.313Z</time>
      </trkpt>
      <trkpt lat="52.02163" lon="4.15682">
        <ele>54.13084</ele>
        <time>2024-07-04T09:56:17.292Z</time>
      </trkpt>
      <trkpt lat="52.02172" lon="4.15693">
        <ele>54.090588</ele>
        <time>2024-07-04T09:56:19.305Z</time>
      </trkpt>
      <trkpt lat="52.0218" lon="4.15702">
        <ele>54.051936</ele>
        <time>2024-07-04T09:56:21.309Z</time>
      </trkpt>
      <trkpt lat="52.02188" lon="4.15712">
        <ele>54.014909</ele>
        <time>2024-07-04T09:56:23.325Z</time>
      </trkpt>
      <trkpt lat="52.02196" lon="4.15721">
        <ele>53.978384</ele>
        <time>2024-07-04T09:56:25.320Z</time>
      </trkpt>
      <trkpt lat="52.02204" lon="4.15732">
        <ele>53.941379</ele>
        <time>2024-07-04T09:56:27.314Z</time>
      </trkpt>
      <trkpt lat="52.02212" lon="4.15742">
        <ele>53.905236</ele>
        <time>2024-07-04T09:56:29.313Z</time>
      </trkpt>
      <trkpt lat="52.02219" lon="4.15752">
        <ele>53.869519</ele>
        <time>2024-07-04T09:56:31.308Z</time>
      </trkpt>
      <trkpt lat="52.02227" lon="4.15761">
        <ele>53.84013</ele>
        <time>2024-07-04T09:56:33.314Z</time>
      </trkpt>
      <trkpt lat="52.02235" lon="4.15772">
        <ele>53.89397</ele>
        <time>2024-07-04T09:56:35.310Z</time>
      </trkpt>
      <trkpt lat="52.02243" lon="4.15781">
        <ele>53.946091</ele>
        <time>2024-07-04T09:56:37.317Z</time>
      </trkpt>
      <trkpt lat="52.02252" lon="4.15791">
        <ele>54.000008</ele>
        <time>2024-07-04T09:56:39.309Z</time>
      </trkpt>
      <trkpt lat="52.02259" lon="4.15801">
        <ele>54.051608</ele>
        <time>2024-07-04T09:56:41.318Z</time>
      </trkpt>
      <trkpt lat="52.02267" lon="4.1581">
        <ele>54.102184</ele>
        <time>2024-07-04T09:56:43.310Z</time>
      </trkpt>
      <trkpt lat="52.02275" lon="4.1582">
        <ele>54.155009</ele>
        <time>2024-07-04T09:56:45.325Z</time>
      </trkpt>
      <trkpt lat="52.02283" lon="4.1583">
        <ele>54.208694</ele>
        <time>2024-07-04T09:56:47.332Z</time>
      </trkpt>
      <trkpt lat="52.02291" lon="4.1584">
        <ele>54.264032</ele>
        <time>2024-07-04T09:56:49.323Z</time>
      </trkpt>
      <trkpt lat="52.023" lon="4.15851">
        <ele>54.319706</ele>
        <time>2024-07-04T09:56:51.326Z</time>
      </trkpt>
      <trkpt lat="52.02309" lon="4.15861">
        <ele>54.377003</ele>
        <time>2024-07-04T09:56:53.316Z</time>
      </trkpt>
      <trkpt lat="52.02317" lon="4.15872">
        <ele>54.432532</ele>
        <time>2024-07-04T09:56:55.311Z</time>
      </trkpt>
      <trkpt lat="52.02325" lon="4.15882">
        <ele>54.486998</ele>
        <time>2024-07-04T09:56:57.311Z</time>
      </trkpt>
      <trkpt lat="52.02334" lon="4.15892">
        <ele>54.543992</ele>
        <time>2024-07-04T09:56:59.309Z</time>
      </trkpt>
      <trkpt lat="52.02343" lon="4.15903">
        <ele>54.60298</ele>
        <time>2024-07-04T09:57:01.298Z</time>
      </trkpt>
      <trkpt lat="52.02352" lon="4.15913">
        <ele>54.659548</ele>
        <time>2024-07-04T09:57:03.313Z</time>
      </trkpt>
      <trkpt lat="52.0236" lon="4.15924">
        <ele>54.715241</ele>
        <time>2024-07-04T09:57:05.313Z</time>
      </trkpt>
      <trkpt lat="52.02369" lon="4.15934">
        <ele>54.771194</ele>
        <time>2024-07-04T09:57:07.308Z</time>
      </trkpt>
      <trkpt lat="52.02377" lon="4.15943">
        <ele>54.712878</ele>
        <time>2024-07-04T09:57:09.309Z</time>
      </trkpt>
      <trkpt lat="52.02385" lon="4.15953">
        <ele>54.62667</ele>
        <time>2024-07-04T09:57:11.309Z</time>
      </trkpt>
      <trkpt lat="52.02393" lon="4.15964">
        <ele>54.539798</ele>
        <time>2024-07-04T09:57:13.316Z</time>
      </trkpt>
      <trkpt lat="52.02401" lon="4.15974">
        <ele>54.452282</ele>
        <time>2024-07-04T09:57:15.295Z</time>
      </trkpt>
      <trkpt lat="52.02409" lon="4.15985">
        <ele>54.36339</ele>
        <time>2024-07-04T09:57:17.287Z</time>
      </trkpt>
      <trkpt lat="52.02418" lon="4.15996">
        <ele>54.272597</ele>
        <time>2024-07-04T09:57:19.296Z</time>
      </trkpt>
      <trkpt lat="52.02425" lon="4.16007">
        <ele>54.185367</ele>
        <time>2024-07-04T09:57:21.317Z</time>
      </trkpt>
      <trkpt lat="52.02433" lon="4.16019">
        <ele>54.098628</ele>
        <time>2024-07-04T09:57:23.313Z</time>
      </trkpt>
      <trkpt lat="52.0244" lon="4.1603">
        <ele>54.013222</ele>
        <time>2024-07-04T09:57:25.286Z</time>
      </trkpt>
      <trkpt lat="52.02448" lon="4.16042">
        <ele>53.923471</ele>
        <time>2024-07-04T09:57:27.332Z</time>
      </trkpt>
      <trkpt lat="52.02455" lon="4.16055">
        <ele>53.832731</ele>
        <time>2024-07-04T09:57:29.322Z</time>
      </trkpt>
      <trkpt lat="52.02463" lon="4.1607">
        <ele>53.731293</ele>
        <time>2024-07-04T09:57:31.305Z</time>
      </trkpt>
      <trkpt lat="52.02472" lon="4.16085">
        <ele>53.622063</ele>
        <time>2024-07-04T09:57:33.295Z</time>
      </trkpt>
      <trkpt lat="52.02481" lon="4.16101">
        <ele>53.510916</ele>
        <time>2024-07-04T09:57:35.307Z</time>
      </trkpt>
      <trkpt lat="52.0249" lon="4.16118">
        <ele>53.393414</ele>
        <time>2024-07-04T09:57:37.309Z</time>
      </trkpt>
      <trkpt lat="52.02499" lon="4.16135">
        <ele>53.275672</ele>
        <time>2024-07-04T09:57:39.306Z</time>
      </trkpt>
      <trkpt lat="52.02508" lon="4.16151">
        <ele>53.244794</ele>
        <time>2024-07-04T09:57:41.319Z</time>
      </trkpt>
      <trkpt lat="52.02516" lon="4.16168">
        <ele>53.225624</ele>
        <time>2024-07-04T09:57:43.309Z</time>
      </trkpt>
      <trkpt lat="52.02525" lon="4.16182">
        <ele>53.207481</ele>
        <time>2024-07-04T09:57:45.312Z</time>
      </trkpt>
      <trkpt lat="52.02533" lon="4.16198">
        <ele>53.189072</ele>
        <time>2024-07-04T09:57:47.319Z</time>
      </trkpt>
      <trkpt lat="52.02541" lon="4.16214">
        <ele>53.170134</ele>
        <time>2024-07-04T09:57:49.335Z</time>
      </trkpt>
      <trkpt lat="52.0255" lon="4.1623">
        <ele>53.15151</ele>
        <time>2024-07-04T09:57:51.310Z</time>
      </trkpt>
      <trkpt lat="52.02558" lon="4.16245">
        <ele>53.133483</ele>
        <time>2024-07-04T09:57:53.312Z</time>
      </trkpt>
      <trkpt lat="52.02566" lon="4.1626">
        <ele>53.115877</ele>
        <time>2024-07-04T09:57:55.323Z</time>
      </trkpt>
      <trkpt lat="52.02574" lon="4.16275">
        <ele>53.097656</ele>
        <time>2024-07-04T09:57:57.325Z</time>
      </trkpt>
      <trkpt lat="52.02583" lon="4.16291">
        <ele>53.078841</ele>
        <time>2024-07-04T09:57:59.320Z</time>
      </trkpt>
      <trkpt lat="52.02591" lon="4.16306">
        <ele>53.060381</ele>
        <time>2024-07-04T09:58:01.317Z</time>
      </trkpt>
      <trkpt lat="52.02599" lon="4.16321">
        <ele>53.042354</ele>
        <time>2024-07-04T09:58:03.313Z</time>
      </trkpt>
      <trkpt lat="52.02608" lon="4.16337">
        <ele>53.023595</ele>
        <time>2024-07-04T09:58:05.311Z</time>
      </trkpt>
      <trkpt lat="52.02616" lon="4.16352">
        <ele>53.005638</ele>
        <time>2024-07-04T09:58:07.322Z</time>
      </trkpt>
      <trkpt lat="52.02624" lon="4.16368">
        <ele>53.058713</ele>
        <time>2024-07-04T09:58:09.332Z</time>
      </trkpt>
      <trkpt lat="52.02632" lon="4.16383">
        <ele>53.140825</ele>
        <time>2024-07-04T09:58:11.312Z</time>
      </trkpt>
      <trkpt lat="52.0264" lon="4.16398">
        <ele>53.220833</ele>
        <time>2024-07-04T09:58:13.321Z</time>
      </trkpt>
      <trkpt lat="52.02647" lon="4.16412">
        <ele>53.299366</ele>
        <time>2024-07-04T09:58:15.323Z</time>
      </trkpt>
      <trkpt lat="52.02655" lon="4.16426">
        <ele>53.374658</ele>
        <time>2024-07-04T09:58:17.308Z</time>
      </trkpt>
      <trkpt lat="52.02662" lon="4.1644">
        <ele>53.449258</ele>
        <time>2024-07-04T09:58:19.310Z</time>
      </trkpt>
      <trkpt lat="52.02669" lon="4.16454">
        <ele>53.524486</ele>
        <time>2024-07-04T09:58:21.314Z</time>
      </trkpt>
      <trkpt lat="52.02677" lon="4.16467">
        <ele>53.599646</ele>
        <time>2024-07-04T09:58:23.327Z</time>
      </trkpt>
      <trkpt lat="52.02684" lon="4.16481">
        <ele>53.674636</ele>
        <time>2024-07-04T09:58:25.316Z</time>
      </trkpt>
      <trkpt lat="52.02692" lon="4.16495">
        <ele>53.750382</ele>
        <time>2024-07-04T09:58:27.314Z</time>
      </trkpt>
      <trkpt lat="52.02699" lon="4.16509">
        <ele>53.825926</ele>
        <time>2024-07-04T09:58:29.318Z</time>
      </trkpt>
      <trkpt lat="52.02706" lon="4.16522">
        <ele>53.898834</ele>
        <time>2024-07-04T09:58:31.315Z</time>
      </trkpt>
      <trkpt lat="52.02713" lon="4.16535">
        <ele>53.972623</ele>
        <time>2024-07-04T09:58:33.319Z</time>
      </trkpt>
      <trkpt lat="52.02721" lon="4.16548">
        <ele>54.045336</ele>
        <time>2024-07-04T09:58:35.292Z</time>
      </trkpt>
      <trkpt lat="52.02728" lon="4.16562">
        <ele>54.120454</ele>
        <time>2024-07-04T09:58:37.317Z</time>
      </trkpt>
      <trkpt lat="52.02735" lon="4.16576">
        <ele>54.192739</ele>
        <time>2024-07-04T09:58:39.322Z</time>
      </trkpt>
      <trkpt lat="52.02742" lon="4.16589">
        <ele>54.272261</ele>
        <time>2024-07-04T09:58:41.315Z</time>
      </trkpt>
      <trkpt lat="52.02749" lon="4.16602">
        <ele>54.352851</ele>
        <time>2024-07-04T09:58:43.328Z</time>
      </trkpt>
      <trkpt lat="52.02756" lon="4.16616">
        <ele>54.436114</ele>
        <time>2024-07-04T09:58:45.331Z</time>
      </trkpt>
      <trkpt lat="52.02764" lon="4.16629">
        <ele>54.515437</ele>
        <time>2024-07-04T09:58:47.312Z</time>
      </trkpt>
      <trkpt lat="52.02771" lon="4.16641">
        <ele>54.59168</ele>
        <time>2024-07-04T09:58:49.309Z</time>
      </trkpt>
      <trkpt lat="52.02778" lon="4.16653">
        <ele>54.668426</ele>
        <time>2024-07-04T09:58:51.327Z</time>
      </trkpt>
      <trkpt lat="52.02785" lon="4.16666">
        <ele>54.742692</ele>
        <time>2024-07-04T09:58:53.321Z</time>
      </trkpt>
      <trkpt lat="52.02792" lon="4.16677">
        <ele>54.817147</ele>
        <time>2024-07-04T09:58:55.309Z</time>
      </trkpt>
      <trkpt lat="52.02798" lon="4.16688">
        <ele>54.88637</ele>
        <time>2024-07-04T09:58:57.329Z</time>
      </trkpt>
      <trkpt lat="52.02805" lon="4.167">
        <ele>54.959612</ele>
        <time>2024-07-04T09:58:59.328Z</time>
      </trkpt>
      <trkpt lat="52.02812" lon="4.16711">
        <ele>55.030045</ele>
        <time>2024-07-04T09:59:01.333Z</time>
      </trkpt>
      <trkpt lat="52.02819" lon="4.16722">
        <ele>55.09988</ele>
        <time>2024-07-04T09:59:03.329Z</time>
      </trkpt>
      <trkpt lat="52.02825" lon="4.16733">
        <ele>55.170779</ele>
        <time>2024-07-04T09:59:05.324Z</time>
      </trkpt>
      <trkpt lat="52.02832" lon="4.16744">
        <ele>55.239202</ele>
        <time>2024-07-04T09:59:07.329Z</time>
      </trkpt>
      <trkpt lat="52.0284" lon="4.16761">
        <ele>55.337956</ele>
        <time>2024-07-04T09:59:10.313Z</time>
      </trkpt>
      <trkpt lat="52.02848" lon="4.16775">
        <ele>55.424397</ele>
        <time>2024-07-04T09:59:13.305Z</time>
      </trkpt>
      <trkpt lat="52.02855" lon="4.16786">
        <ele>55.497797</ele>
        <time>2024-07-04T09:59:16.318Z</time>
      </trkpt>
      <trkpt lat="52.02862" lon="4.16801">
        <ele>55.492885</ele>
        <time>2024-07-04T09:59:20.317Z</time>
      </trkpt>
      <trkpt lat="52.02868" lon="4.16814">
        <ele>55.428075</ele>
        <time>2024-07-04T09:59:24.303Z</time>
      </trkpt>
      <trkpt lat="52.02877" lon="4.16821">
        <ele>55.358788</ele>
        <time>2024-07-04T09:59:29.314Z</time>
      </trkpt>
      <trkpt lat="52.02887" lon="4.16826">
        <ele>55.292158</ele>
        <time>2024-07-04T09:59:33.310Z</time>
      </trkpt>
      <trkpt lat="52.02899" lon="4.16823">
        <ele>55.216863</ele>
        <time>2024-07-04T09:59:37.332Z</time>
      </trkpt>
      <trkpt lat="52.02909" lon="4.16822">
        <ele>55.147286</ele>
        <time>2024-07-04T09:59:40.316Z</time>
      </trkpt>
      <trkpt lat="52.02922" lon="4.16831">
        <ele>55.060447</ele>
        <time>2024-07-04T09:59:43.306Z</time>
      </trkpt>
      <trkpt lat="52.02928" lon="4.16844">
        <ele>54.995704</ele>
        <time>2024-07-04T09:59:45.308Z</time>
      </trkpt>
      <trkpt lat="52.02931" lon="4.1686">
        <ele>54.928267</ele>
        <time>2024-07-04T09:59:47.331Z</time>
      </trkpt>
      <trkpt lat="52.02935" lon="4.16877">
        <ele>54.85699</ele>
        <time>2024-07-04T09:59:49.306Z</time>
      </trkpt>
      <trkpt lat="52.0294" lon="4.16892">
        <ele>54.7865</ele>
        <time>2024-07-04T09:59:51.297Z</time>
      </trkpt>
      <trkpt lat="52.02947" lon="4.16908">
        <ele>54.710707</ele>
        <time>2024-07-04T09:59:53.291Z</time>
      </trkpt>
      <trkpt lat="52.02954" lon="4.16923">
        <ele>54.635514</ele>
        <time>2024-07-04T09:59:55.300Z</time>
      </trkpt>
      <trkpt lat="52.02961" lon="4.16938">
        <ele>54.560255</ele>
        <time>2024-07-04T09:59:57.325Z</time>
      </trkpt>
      <trkpt lat="52.02968" lon="4.16953">
        <ele>54.483121</ele>
        <time>2024-07-04T09:59:59.319Z</time>
      </trkpt>
      <trkpt lat="52.02975" lon="4.16968">
        <ele>54.408435</ele>
        <time>2024-07-04T10:00:01.316Z</time>
      </trkpt>
      <trkpt lat="52.02983" lon="4.16983">
        <ele>54.385702</ele>
        <time>2024-07-04T10:00:03.316Z</time>
      </trkpt>
      <trkpt lat="52.0299" lon="4.16997">
        <ele>54.415658</ele>
        <time>2024-07-04T10:00:05.301Z</time>
      </trkpt>
      <trkpt lat="52.02998" lon="4.17012">
        <ele>54.445494</ele>
        <time>2024-07-04T10:00:07.311Z</time>
      </trkpt>
      <trkpt lat="52.03006" lon="4.17026">
        <ele>54.475253</ele>
        <time>2024-07-04T10:00:09.319Z</time>
      </trkpt>
      <trkpt lat="52.03013" lon="4.1704">
        <ele>54.505329</ele>
        <time>2024-07-04T10:00:11.320Z</time>
      </trkpt>
      <trkpt lat="52.03021" lon="4.17055">
        <ele>54.535738</ele>
        <time>2024-07-04T10:00:13.302Z</time>
      </trkpt>
      <trkpt lat="52.03029" lon="4.1707">
        <ele>54.566013</ele>
        <time>2024-07-04T10:00:15.319Z</time>
      </trkpt>
      <trkpt lat="52.03037" lon="4.17084">
        <ele>54.596421</ele>
        <time>2024-07-04T10:00:17.308Z</time>
      </trkpt>
      <trkpt lat="52.03044" lon="4.17099">
        <ele>54.627307</ele>
        <time>2024-07-04T10:00:19.316Z</time>
      </trkpt>
      <trkpt lat="52.03052" lon="4.17114">
        <ele>54.658645</ele>
        <time>2024-07-04T10:00:21.309Z</time>
      </trkpt>
      <trkpt lat="52.0306" lon="4.17129">
        <ele>54.688648</ele>
        <time>2024-07-04T10:00:23.309Z</time>
      </trkpt>
      <trkpt lat="52.03068" lon="4.17143">
        <ele>54.718467</ele>
        <time>2024-07-04T10:00:25.319Z</time>
      </trkpt>
      <trkpt lat="52.03075" lon="4.17157">
        <ele>54.747899</ele>
        <time>2024-07-04T10:00:27.315Z</time>
      </trkpt>
      <trkpt lat="52.03083" lon="4.17172">
        <ele>54.778336</ele>
        <time>2024-07-04T10:00:29.315Z</time>
      </trkpt>
      <trkpt lat="52.0309" lon="4.17187">
        <ele>54.808818</ele>
        <time>2024-07-04T10:00:31.313Z</time>
      </trkpt>
      <trkpt lat="52.03097" lon="4.17203">
        <ele>54.861235</ele>
        <time>2024-07-04T10:00:33.297Z</time>
      </trkpt>
      <trkpt lat="52.03104" lon="4.17219">
        <ele>54.963065</ele>
        <time>2024-07-04T10:00:35.324Z</time>
      </trkpt>
      <trkpt lat="52.03109" lon="4.17234">
        <ele>55.055695</ele>
        <time>2024-07-04T10:00:37.292Z</time>
      </trkpt>
      <trkpt lat="52.03113" lon="4.17247">
        <ele>55.140545</ele>
        <time>2024-07-04T10:00:39.305Z</time>
      </trkpt>
      <trkpt lat="52.03117" lon="4.1726">
        <ele>55.220391</ele>
        <time>2024-07-04T10:00:41.310Z</time>
      </trkpt>
      <trkpt lat="52.03123" lon="4.17278">
        <ele>55.331556</ele>
        <time>2024-07-04T10:00:44.312Z</time>
      </trkpt>
      <trkpt lat="52.03129" lon="4.17293">
        <ele>55.421785</ele>
        <time>2024-07-04T10:00:47.308Z</time>
      </trkpt>
      <trkpt lat="52.03136" lon="4.17307">
        <ele>55.524443</ele>
        <time>2024-07-04T10:00:51.296Z</time>
      </trkpt>
      <trkpt lat="52.03145" lon="4.17294">
        <ele>55.631422</ele>
        <time>2024-07-04T10:00:55.302Z</time>
      </trkpt>
      <trkpt lat="52.03154" lon="4.17279">
        <ele>55.742824</ele>
        <time>2024-07-04T10:00:58.316Z</time>
      </trkpt>
      <trkpt lat="52.03161" lon="4.17263">
        <ele>55.846609</ele>
        <time>2024-07-04T10:01:01.291Z</time>
      </trkpt>
      <trkpt lat="52.03169" lon="4.17249">
        <ele>55.950774</ele>
        <time>2024-07-04T10:01:04.328Z</time>
      </trkpt>
      <trkpt lat="52.03176" lon="4.17233">
        <ele>56.057787</ele>
        <time>2024-07-04T10:01:07.319Z</time>
      </trkpt>
      <trkpt lat="52.03184" lon="4.17217">
        <ele>56.167552</ele>
        <time>2024-07-04T10:01:10.304Z</time>
      </trkpt>
      <trkpt lat="52.03189" lon="4.17206">
        <ele>56.247445</ele>
        <time>2024-07-04T10:01:12.287Z</time>
      </trkpt>
      <trkpt lat="52.03195" lon="4.17194">
        <ele>56.328534</ele>
        <time>2024-07-04T10:01:14.309Z</time>
      </trkpt>
      <trkpt lat="52.03203" lon="4.17182">
        <ele>56.431382</ele>
        <time>2024-07-04T10:01:17.313Z</time>
      </trkpt>
      <trkpt lat="52.03212" lon="4.17175">
        <ele>56.78661</ele>
        <time>2024-07-04T10:01:22.293Z</time>
      </trkpt>
      <trkpt lat="52.03221" lon="4.17169">
        <ele>57.11225</ele>
        <time>2024-07-04T10:01:26.288Z</time>
      </trkpt>
      <trkpt lat="52.03233" lon="4.17164">
        <ele>57.511602</ele>
        <time>2024-07-04T10:01:30.299Z</time>
      </trkpt>
      <trkpt lat="52.03242" lon="4.1716">
        <ele>57.831395</ele>
        <time>2024-07-04T10:01:33.319Z</time>
      </trkpt>
      <trkpt lat="52.03251" lon="4.17156">
        <ele>58.149573</ele>
        <time>2024-07-04T10:01:36.325Z</time>
      </trkpt>
      <trkpt lat="52.03257" lon="4.17145">
        <ele>58.462078</ele>
        <time>2024-07-04T10:01:39.296Z</time>
      </trkpt>
      <trkpt lat="52.03261" lon="4.17132">
        <ele>58.764646</ele>
        <time>2024-07-04T10:01:42.298Z</time>
      </trkpt>
      <trkpt lat="52.03264" lon="4.17118">
        <ele>59.076099</ele>
        <time>2024-07-04T10:01:45.318Z</time>
      </trkpt>
      <trkpt lat="52.03267" lon="4.17103">
        <ele>59.385702</ele>
        <time>2024-07-04T10:01:48.324Z</time>
      </trkpt>
      <trkpt lat="52.0327" lon="4.17088">
        <ele>59.711057</ele>
        <time>2024-07-04T10:01:51.320Z</time>
      </trkpt>
      <trkpt lat="52.03274" lon="4.17074">
        <ele>60.040378</ele>
        <time>2024-07-04T10:01:54.293Z</time>
      </trkpt>
      <trkpt lat="52.03277" lon="4.17059">
        <ele>60.368726</ele>
        <time>2024-07-04T10:01:57.312Z</time>
      </trkpt>
      <trkpt lat="52.0328" lon="4.1704">
        <ele>60.766289</ele>
        <time>2024-07-04T10:02:01.319Z</time>
      </trkpt>
      <trkpt lat="52.03284" lon="4.17024">
        <ele>61.113401</ele>
        <time>2024-07-04T10:02:04.307Z</time>
      </trkpt>
      <trkpt lat="52.03287" lon="4.17009">
        <ele>61.462513</ele>
        <time>2024-07-04T10:02:07.317Z</time>
      </trkpt>
      <trkpt lat="52.03291" lon="4.16993">
        <ele>61.819887</ele>
        <time>2024-07-04T10:02:10.298Z</time>
      </trkpt>
      <trkpt lat="52.03301" lon="4.16982">
        <ele>62.215243</ele>
        <time>2024-07-04T10:02:14.298Z</time>
      </trkpt>
      <trkpt lat="52.03312" lon="4.16978">
        <ele>62.480419</ele>
        <time>2024-07-04T10:02:19.297Z</time>
      </trkpt>
      <trkpt lat="52.03321" lon="4.1698">
        <ele>62.514301</ele>
        <time>2024-07-04T10:02:24.323Z</time>
      </trkpt>
      <trkpt lat="52.0333" lon="4.16989">
        <ele>62.552648</ele>
        <time>2024-07-04T10:02:30.303Z</time>
      </trkpt>
      <trkpt lat="52.03336" lon="4.17">
        <ele>62.5855</ele>
        <time>2024-07-04T10:02:35.312Z</time>
      </trkpt>
      <trkpt lat="52.03344" lon="4.17009">
        <ele>62.620413</ele>
        <time>2024-07-04T10:02:41.304Z</time>
      </trkpt>
      <trkpt lat="52.03352" lon="4.17017">
        <ele>62.654293</ele>
        <time>2024-07-04T10:02:46.320Z</time>
      </trkpt>
      <trkpt lat="52.03359" lon="4.17028">
        <ele>62.69115</ele>
        <time>2024-07-04T10:02:52.294Z</time>
      </trkpt>
      <trkpt lat="52.03369" lon="4.17034">
        <ele>62.727705</ele>
        <time>2024-07-04T10:02:58.309Z</time>
      </trkpt>
      <trkpt lat="52.03378" lon="4.17039">
        <ele>62.764548</ele>
        <time>2024-07-04T10:03:04.300Z</time>
      </trkpt>
      <trkpt lat="52.03388" lon="4.17044">
        <ele>62.80367</ele>
        <time>2024-07-04T10:03:09.317Z</time>
      </trkpt>
      <trkpt lat="52.03397" lon="4.17052">
        <ele>62.838898</ele>
        <time>2024-07-04T10:03:13.308Z</time>
      </trkpt>
      <trkpt lat="52.03405" lon="4.17064">
        <ele>62.880504</ele>
        <time>2024-07-04T10:03:17.290Z</time>
      </trkpt>
      <trkpt lat="52.03413" lon="4.17076">
        <ele>62.919248</ele>
        <time>2024-07-04T10:03:20.315Z</time>
      </trkpt>
      <trkpt lat="52.03421" lon="4.17087">
        <ele>62.955883</ele>
        <time>2024-07-04T10:03:23.312Z</time>
      </trkpt>
      <trkpt lat="52.03429" lon="4.17099">
        <ele>62.997423</ele>
        <time>2024-07-04T10:03:26.319Z</time>
      </trkpt>
      <trkpt lat="52.03439" lon="4.17111">
        <ele>63.041369</ele>
        <time>2024-07-04T10:03:29.307Z</time>
      </trkpt>
      <trkpt lat="52.03449" lon="4.17125">
        <ele>63.089015</ele>
        <time>2024-07-04T10:03:32.309Z</time>
      </trkpt>
      <trkpt lat="52.03458" lon="4.17138">
        <ele>63.091368</ele>
        <time>2024-07-04T10:03:35.309Z</time>
      </trkpt>
      <trkpt lat="52.03469" lon="4.17151">
        <ele>62.932914</ele>
        <time>2024-07-04T10:03:38.306Z</time>
      </trkpt>
      <trkpt lat="52.03478" lon="4.17165">
        <ele>62.774823</ele>
        <time>2024-07-04T10:03:41.316Z</time>
      </trkpt>
      <trkpt lat="52.03488" lon="4.17178">
        <ele>62.618783</ele>
        <time>2024-07-04T10:03:44.324Z</time>
      </trkpt>
      <trkpt lat="52.03497" lon="4.17191">
        <ele>62.466534</ele>
        <time>2024-07-04T10:03:47.316Z</time>
      </trkpt>
      <trkpt lat="52.03507" lon="4.17203">
        <ele>62.314772</ele>
        <time>2024-07-04T10:03:50.307Z</time>
      </trkpt>
      <trkpt lat="52.03517" lon="4.17216">
        <ele>62.163519</ele>
        <time>2024-07-04T10:03:53.300Z</time>
      </trkpt>
      <trkpt lat="52.03525" lon="4.17233">
        <ele>61.99507</ele>
        <time>2024-07-04T10:03:56.313Z</time>
      </trkpt>
      <trkpt lat="52.03532" lon="4.17246">
        <ele>61.866949</ele>
        <time>2024-07-04T10:03:58.317Z</time>
      </trkpt>
      <trkpt lat="52.0354" lon="4.17259">
        <ele>61.730948</ele>
        <time>2024-07-04T10:04:00.309Z</time>
      </trkpt>
      <trkpt lat="52.03549" lon="4.17269">
        <ele>61.589511</ele>
        <time>2024-07-04T10:04:02.304Z</time>
      </trkpt>
      <trkpt lat="52.03558" lon="4.1728">
        <ele>61.445056</ele>
        <time>2024-07-04T10:04:04.319Z</time>
      </trkpt>
      <trkpt lat="52.03568" lon="4.17291">
        <ele>61.30334</ele>
        <time>2024-07-04T10:04:06.309Z</time>
      </trkpt>
      <trkpt lat="52.03577" lon="4.17303">
        <ele>61.163525</ele>
        <time>2024-07-04T10:04:08.316Z</time>
      </trkpt>
      <trkpt lat="52.03586" lon="4.17314">
        <ele>61.023177</ele>
        <time>2024-07-04T10:04:10.310Z</time>
      </trkpt>
      <trkpt lat="52.03595" lon="4.17325">
        <ele>60.891304</ele>
        <time>2024-07-04T10:04:12.300Z</time>
      </trkpt>
      <trkpt lat="52.03605" lon="4.17338">
        <ele>60.808157</ele>
        <time>2024-07-04T10:04:14.305Z</time>
      </trkpt>
      <trkpt lat="52.03614" lon="4.1735">
        <ele>60.729183</ele>
        <time>2024-07-04T10:04:16.318Z</time>
      </trkpt>
      <trkpt lat="52.03623" lon="4.17362">
        <ele>60.649185</ele>
        <time>2024-07-04T10:04:18.306Z</time>
      </trkpt>
      <trkpt lat="52.03632" lon="4.17374">
        <ele>60.567363</ele>
        <time>2024-07-04T10:04:20.322Z</time>
      </trkpt>
      <trkpt lat="52.03642" lon="4.17387">
        <ele>60.48397</ele>
        <time>2024-07-04T10:04:22.323Z</time>
      </trkpt>
      <trkpt lat="52.03652" lon="4.17399">
        <ele>60.399771</ele>
        <time>2024-07-04T10:04:24.305Z</time>
      </trkpt>
      <trkpt lat="52.03662" lon="4.17412">
        <ele>60.314785</ele>
        <time>2024-07-04T10:04:26.316Z</time>
      </trkpt>
      <trkpt lat="52.03672" lon="4.17424">
        <ele>60.2274</ele>
        <time>2024-07-04T10:04:28.316Z</time>
      </trkpt>
      <trkpt lat="52.03684" lon="4.17435">
        <ele>60.140669</ele>
        <time>2024-07-04T10:04:30.306Z</time>
      </trkpt>
      <trkpt lat="52.03695" lon="4.17445">
        <ele>60.054771</ele>
        <time>2024-07-04T10:04:32.314Z</time>
      </trkpt>
      <trkpt lat="52.03706" lon="4.17453">
        <ele>59.97193</ele>
        <time>2024-07-04T10:04:34.318Z</time>
      </trkpt>
      <trkpt lat="52.03716" lon="4.17462">
        <ele>59.894295</ele>
        <time>2024-07-04T10:04:36.297Z</time>
      </trkpt>
      <trkpt lat="52.03726" lon="4.17471">
        <ele>59.819796</ele>
        <time>2024-07-04T10:04:38.300Z</time>
      </trkpt>
      <trkpt lat="52.03734" lon="4.17482">
        <ele>59.747615</ele>
        <time>2024-07-04T10:04:40.297Z</time>
      </trkpt>
      <trkpt lat="52.03743" lon="4.17493">
        <ele>59.675185</ele>
        <time>2024-07-04T10:04:42.312Z</time>
      </trkpt>
      <trkpt lat="52.03751" lon="4.17506">
        <ele>59.608529</ele>
        <time>2024-07-04T10:04:44.305Z</time>
      </trkpt>
      <trkpt lat="52.03759" lon="4.17517">
        <ele>59.540515</ele>
        <time>2024-07-04T10:04:46.311Z</time>
      </trkpt>
      <trkpt lat="52.03768" lon="4.17531">
        <ele>59.468769</ele>
        <time>2024-07-04T10:04:48.302Z</time>
      </trkpt>
      <trkpt lat="52.03776" lon="4.17546">
        <ele>59.394411</ele>
        <time>2024-07-04T10:04:50.289Z</time>
      </trkpt>
      <trkpt lat="52.03785" lon="4.1756">
        <ele>59.319369</ele>
        <time>2024-07-04T10:04:52.316Z</time>
      </trkpt>
      <trkpt lat="52.03793" lon="4.17575">
        <ele>59.244745</ele>
        <time>2024-07-04T10:04:54.303Z</time>
      </trkpt>
      <trkpt lat="52.03802" lon="4.17591">
        <ele>59.166422</ele>
        <time>2024-07-04T10:04:56.284Z</time>
      </trkpt>
      <trkpt lat="52.03811" lon="4.17606">
        <ele>59.08837</ele>
        <time>2024-07-04T10:04:58.324Z</time>
      </trkpt>
      <trkpt lat="52.0382" lon="4.17622">
        <ele>59.008319</ele>
        <time>2024-07-04T10:05:00.310Z</time>
      </trkpt>
      <trkpt lat="52.03829" lon="4.17638">
        <ele>58.92757</ele>
        <time>2024-07-04T10:05:02.324Z</time>
      </trkpt>
      <trkpt lat="52.03838" lon="4.17652">
        <ele>58.850033</ele>
        <time>2024-07-04T10:05:04.322Z</time>
      </trkpt>
      <trkpt lat="52.03848" lon="4.17667">
        <ele>58.771131</ele>
        <time>2024-07-04T10:05:06.313Z</time>
      </trkpt>
      <trkpt lat="52.03857" lon="4.17681">
        <ele>58.6946</ele>
        <time>2024-07-04T10:05:08.301Z</time>
      </trkpt>
      <trkpt lat="52.03866" lon="4.17695">
        <ele>58.619064</ele>
        <time>2024-07-04T10:05:10.308Z</time>
      </trkpt>
      <trkpt lat="52.03875" lon="4.17709">
        <ele>58.677119</ele>
        <time>2024-07-04T10:05:12.308Z</time>
      </trkpt>
      <trkpt lat="52.03884" lon="4.17722">
        <ele>58.752485</ele>
        <time>2024-07-04T10:05:14.308Z</time>
      </trkpt>
      <trkpt lat="52.03893" lon="4.17735">
        <ele>58.827067</ele>
        <time>2024-07-04T10:05:16.319Z</time>
      </trkpt>
      <trkpt lat="52.03902" lon="4.17747">
        <ele>58.899531</ele>
        <time>2024-07-04T10:05:18.323Z</time>
      </trkpt>
      <trkpt lat="52.03911" lon="4.17759">
        <ele>58.971268</ele>
        <time>2024-07-04T10:05:20.311Z</time>
      </trkpt>
      <trkpt lat="52.03921" lon="4.17771">
        <ele>59.044456</ele>
        <time>2024-07-04T10:05:22.308Z</time>
      </trkpt>
      <trkpt lat="52.0393" lon="4.17782">
        <ele>59.115015</ele>
        <time>2024-07-04T10:05:24.329Z</time>
      </trkpt>
      <trkpt lat="52.03938" lon="4.17794">
        <ele>59.183969</ele>
        <time>2024-07-04T10:05:26.311Z</time>
      </trkpt>
      <trkpt lat="52.03948" lon="4.17805">
        <ele>59.252782</ele>
        <time>2024-07-04T10:05:28.317Z</time>
      </trkpt>
      <trkpt lat="52.03956" lon="4.17815">
        <ele>59.319162</ele>
        <time>2024-07-04T10:05:30.304Z</time>
      </trkpt>
      <trkpt lat="52.03965" lon="4.17826">
        <ele>59.382582</ele>
        <time>2024-07-04T10:05:32.307Z</time>
      </trkpt>
      <trkpt lat="52.03973" lon="4.17836">
        <ele>59.446591</ele>
        <time>2024-07-04T10:05:34.315Z</time>
      </trkpt>
      <trkpt lat="52.03982" lon="4.17845">
        <ele>59.510383</ele>
        <time>2024-07-04T10:05:36.285Z</time>
      </trkpt>
      <trkpt lat="52.0399" lon="4.17854">
        <ele>59.571968</ele>
        <time>2024-07-04T10:05:38.304Z</time>
      </trkpt>
      <trkpt lat="52.03998" lon="4.17863">
        <ele>59.631817</ele>
        <time>2024-07-04T10:05:40.311Z</time>
      </trkpt>
      <trkpt lat="52.04006" lon="4.17872">
        <ele>59.690116</ele>
        <time>2024-07-04T10:05:42.317Z</time>
      </trkpt>
      <trkpt lat="52.04014" lon="4.1788">
        <ele>59.747409</ele>
        <time>2024-07-04T10:05:44.314Z</time>
      </trkpt>
      <trkpt lat="52.04022" lon="4.17889">
        <ele>59.804431</ele>
        <time>2024-07-04T10:05:46.309Z</time>
      </trkpt>
      <trkpt lat="52.04029" lon="4.17898">
        <ele>59.859951</ele>
        <time>2024-07-04T10:05:48.323Z</time>
      </trkpt>
      <trkpt lat="52.04036" lon="4.17908">
        <ele>59.915541</ele>
        <time>2024-07-04T10:05:50.300Z</time>
      </trkpt>
      <trkpt lat="52.04043" lon="4.17917">
        <ele>59.969952</ele>
        <time>2024-07-04T10:05:52.307Z</time>
      </trkpt>
      <trkpt lat="52.04053" lon="4.17931">
        <ele>60.051001</ele>
        <time>2024-07-04T10:05:55.324Z</time>
      </trkpt>
      <trkpt lat="52.0406" lon="4.17941">
        <ele>60.107675</ele>
        <time>2024-07-04T10:05:57.311Z</time>
      </trkpt>
      <trkpt lat="52.04068" lon="4.17951">
        <ele>60.165314</ele>
        <time>2024-07-04T10:05:59.305Z</time>
      </trkpt>
      <trkpt lat="52.04075" lon="4.17962">
        <ele>60.225582</ele>
        <time>2024-07-04T10:06:01.324Z</time>
      </trkpt>
      <trkpt lat="52.04083" lon="4.17973">
        <ele>60.287203</ele>
        <time>2024-07-04T10:06:03.319Z</time>
      </trkpt>
      <trkpt lat="52.0409" lon="4.17984">
        <ele>60.348812</ele>
        <time>2024-07-04T10:06:05.304Z</time>
      </trkpt>
      <trkpt lat="52.04098" lon="4.17994">
        <ele>60.408057</ele>
        <time>2024-07-04T10:06:07.322Z</time>
      </trkpt>
      <trkpt lat="52.04105" lon="4.18005">
        <ele>60.468012</ele>
        <time>2024-07-04T10:06:09.307Z</time>
      </trkpt>
      <trkpt lat="52.04113" lon="4.18015">
        <ele>60.527262</ele>
        <time>2024-07-04T10:06:11.305Z</time>
      </trkpt>
      <trkpt lat="52.0412" lon="4.18025">
        <ele>60.586335</ele>
        <time>2024-07-04T10:06:13.324Z</time>
      </trkpt>
      <trkpt lat="52.04128" lon="4.18036">
        <ele>60.646661</ele>
        <time>2024-07-04T10:06:15.319Z</time>
      </trkpt>
      <trkpt lat="52.04135" lon="4.18046">
        <ele>60.7038</ele>
        <time>2024-07-04T10:06:17.304Z</time>
      </trkpt>
      <trkpt lat="52.04142" lon="4.18057">
        <ele>60.761231</ele>
        <time>2024-07-04T10:06:19.306Z</time>
      </trkpt>
      <trkpt lat="52.04149" lon="4.18067">
        <ele>60.800406</ele>
        <time>2024-07-04T10:06:21.306Z</time>
      </trkpt>
      <trkpt lat="52.04156" lon="4.18077">
        <ele>60.805938</ele>
        <time>2024-07-04T10:06:23.319Z</time>
      </trkpt>
      <trkpt lat="52.04164" lon="4.18086">
        <ele>60.811424</ele>
        <time>2024-07-04T10:06:25.300Z</time>
      </trkpt>
      <trkpt lat="52.04171" lon="4.18096">
        <ele>60.817002</ele>
        <time>2024-07-04T10:06:27.310Z</time>
      </trkpt>
      <trkpt lat="52.04178" lon="4.18106">
        <ele>60.822629</ele>
        <time>2024-07-04T10:06:29.302Z</time>
      </trkpt>
      <trkpt lat="52.04185" lon="4.18117">
        <ele>60.828082</ele>
        <time>2024-07-04T10:06:31.311Z</time>
      </trkpt>
      <trkpt lat="52.04192" lon="4.18126">
        <ele>60.833592</ele>
        <time>2024-07-04T10:06:33.305Z</time>
      </trkpt>
      <trkpt lat="52.04199" lon="4.18136">
        <ele>60.839036</ele>
        <time>2024-07-04T10:06:35.302Z</time>
      </trkpt>
      <trkpt lat="52.04206" lon="4.18146">
        <ele>60.844324</ele>
        <time>2024-07-04T10:06:37.307Z</time>
      </trkpt>
      <trkpt lat="52.04213" lon="4.18155">
        <ele>60.849628</ele>
        <time>2024-07-04T10:06:39.321Z</time>
      </trkpt>
      <trkpt lat="52.04223" lon="4.18169">
        <ele>60.857399</ele>
        <time>2024-07-04T10:06:42.305Z</time>
      </trkpt>
      <trkpt lat="52.04233" lon="4.18184">
        <ele>60.865237</ele>
        <time>2024-07-04T10:06:45.322Z</time>
      </trkpt>
      <trkpt lat="52.04243" lon="4.18198">
        <ele>60.872868</ele>
        <time>2024-07-04T10:06:48.308Z</time>
      </trkpt>
      <trkpt lat="52.04253" lon="4.18211">
        <ele>60.880517</ele>
        <time>2024-07-04T10:06:51.305Z</time>
      </trkpt>
      <trkpt lat="52.04262" lon="4.18224">
        <ele>60.887643</ele>
        <time>2024-07-04T10:06:54.314Z</time>
      </trkpt>
      <trkpt lat="52.04271" lon="4.18236">
        <ele>60.894344</ele>
        <time>2024-07-04T10:06:57.325Z</time>
      </trkpt>
      <trkpt lat="52.04279" lon="4.18248">
        <ele>60.900946</ele>
        <time>2024-07-04T10:07:00.306Z</time>
      </trkpt>
      <trkpt lat="52.04287" lon="4.1826">
        <ele>60.926342</ele>
        <time>2024-07-04T10:07:03.321Z</time>
      </trkpt>
      <trkpt lat="52.04296" lon="4.1827">
        <ele>60.968987</ele>
        <time>2024-07-04T10:07:06.317Z</time>
      </trkpt>
      <trkpt lat="52.04304" lon="4.18281">
        <ele>61.013344</ele>
        <time>2024-07-04T10:07:09.301Z</time>
      </trkpt>
      <trkpt lat="52.04312" lon="4.18293">
        <ele>61.058926</ele>
        <time>2024-07-04T10:07:12.304Z</time>
      </trkpt>
      <trkpt lat="52.0432" lon="4.18306">
        <ele>61.103405</ele>
        <time>2024-07-04T10:07:15.298Z</time>
      </trkpt>
      <trkpt lat="52.04329" lon="4.18316">
        <ele>61.145839</ele>
        <time>2024-07-04T10:07:18.311Z</time>
      </trkpt>
      <trkpt lat="52.04336" lon="4.18328">
        <ele>61.188926</ele>
        <time>2024-07-04T10:07:21.318Z</time>
      </trkpt>
      <trkpt lat="52.04345" lon="4.18341">
        <ele>61.235687</ele>
        <time>2024-07-04T10:07:24.296Z</time>
      </trkpt>
      <trkpt lat="52.04354" lon="4.18354">
        <ele>61.284617</ele>
        <time>2024-07-04T10:07:27.299Z</time>
      </trkpt>
      <trkpt lat="52.04363" lon="4.18367">
        <ele>61.335236</ele>
        <time>2024-07-04T10:07:30.325Z</time>
      </trkpt>
      <trkpt lat="52.04372" lon="4.18379">
        <ele>61.382224</ele>
        <time>2024-07-04T10:07:33.284Z</time>
      </trkpt>
      <trkpt lat="52.04381" lon="4.18391">
        <ele>61.426857</ele>
        <time>2024-07-04T10:07:36.320Z</time>
      </trkpt>
      <trkpt lat="52.04389" lon="4.18401">
        <ele>61.468983</ele>
        <time>2024-07-04T10:07:39.316Z</time>
      </trkpt>
      <trkpt lat="52.04396" lon="4.1841">
        <ele>61.505442</ele>
        <time>2024-07-04T10:07:42.321Z</time>
      </trkpt>
      <trkpt lat="52.04405" lon="4.18422">
        <ele>61.551503</ele>
        <time>2024-07-04T10:07:46.331Z</time>
      </trkpt>
      <trkpt lat="52.04413" lon="4.18432">
        <ele>61.593475</ele>
        <time>2024-07-04T10:07:50.316Z</time>
      </trkpt>
      <trkpt lat="52.04422" lon="4.18445">
        <ele>61.632623</ele>
        <time>2024-07-04T10:07:54.327Z</time>
      </trkpt>
      <trkpt lat="52.04429" lon="4.18454">
        <ele>61.633063</ele>
        <time>2024-07-04T10:07:57.313Z</time>
      </trkpt>
      <trkpt lat="52.04437" lon="4.18463">
        <ele>61.633512</ele>
        <time>2024-07-04T10:08:00.295Z</time>
      </trkpt>
      <trkpt lat="52.04444" lon="4.18473">
        <ele>61.63395</ele>
        <time>2024-07-04T10:08:03.302Z</time>
      </trkpt>
      <trkpt lat="52.04452" lon="4.18482">
        <ele>61.634396</ele>
        <time>2024-07-04T10:08:06.311Z</time>
      </trkpt>
      <trkpt lat="52.04459" lon="4.18492">
        <ele>61.634877</ele>
        <time>2024-07-04T10:08:09.309Z</time>
      </trkpt>
      <trkpt lat="52.04468" lon="4.18502">
        <ele>61.635363</ele>
        <time>2024-07-04T10:08:12.304Z</time>
      </trkpt>
      <trkpt lat="52.04476" lon="4.18514">
        <ele>61.635877</ele>
        <time>2024-07-04T10:08:15.316Z</time>
      </trkpt>
      <trkpt lat="52.04485" lon="4.18525">
        <ele>61.636412</ele>
        <time>2024-07-04T10:08:18.317Z</time>
      </trkpt>
      <trkpt lat="52.04493" lon="4.18536">
        <ele>61.636913</ele>
        <time>2024-07-04T10:08:21.307Z</time>
      </trkpt>
      <trkpt lat="52.045" lon="4.18549">
        <ele>61.637404</ele>
        <time>2024-07-04T10:08:24.308Z</time>
      </trkpt>
      <trkpt lat="52.04508" lon="4.18561">
        <ele>61.637934</ele>
        <time>2024-07-04T10:08:27.306Z</time>
      </trkpt>
      <trkpt lat="52.04517" lon="4.18573">
        <ele>61.638469</ele>
        <time>2024-07-04T10:08:30.312Z</time>
      </trkpt>
      <trkpt lat="52.04525" lon="4.18584">
        <ele>61.63899</ele>
        <time>2024-07-04T10:08:33.318Z</time>
      </trkpt>
      <trkpt lat="52.04533" lon="4.18595">
        <ele>61.639487</ele>
        <time>2024-07-04T10:08:37.315Z</time>
      </trkpt>
      <trkpt lat="52.04543" lon="4.18604">
        <ele>61.64001</ele>
        <time>2024-07-04T10:09:21.335Z</time>
      </trkpt>
      <trkpt lat="52.04552" lon="4.18615">
        <ele>61.640555</ele>
        <time>2024-07-04T10:09:26.293Z</time>
      </trkpt>
      <trkpt lat="52.04559" lon="4.18625">
        <ele>61.641007</ele>
        <time>2024-07-04T10:09:29.305Z</time>
      </trkpt>
      <trkpt lat="52.04567" lon="4.18637">
        <ele>61.609683</ele>
        <time>2024-07-04T10:09:32.314Z</time>
      </trkpt>
      <trkpt lat="52.04577" lon="4.18648">
        <ele>61.573148</ele>
        <time>2024-07-04T10:09:35.313Z</time>
      </trkpt>
      <trkpt lat="52.04586" lon="4.18661">
        <ele>61.535046</ele>
        <time>2024-07-04T10:09:38.319Z</time>
      </trkpt>
      <trkpt lat="52.04597" lon="4.18672">
        <ele>61.496373</ele>
        <time>2024-07-04T10:09:41.324Z</time>
      </trkpt>
      <trkpt lat="52.04607" lon="4.18685">
        <ele>61.457066</ele>
        <time>2024-07-04T10:09:44.304Z</time>
      </trkpt>
      <trkpt lat="52.04617" lon="4.18698">
        <ele>61.415349</ele>
        <time>2024-07-04T10:09:47.320Z</time>
      </trkpt>
      <trkpt lat="52.04624" lon="4.18707">
        <ele>61.38726</ele>
        <time>2024-07-04T10:09:49.319Z</time>
      </trkpt>
      <trkpt lat="52.04631" lon="4.18716">
        <ele>61.359053</ele>
        <time>2024-07-04T10:09:51.311Z</time>
      </trkpt>
      <trkpt lat="52.04639" lon="4.18725">
        <ele>61.330455</ele>
        <time>2024-07-04T10:09:53.318Z</time>
      </trkpt>
      <trkpt lat="52.04646" lon="4.18736">
        <ele>61.30145</ele>
        <time>2024-07-04T10:09:55.306Z</time>
      </trkpt>
      <trkpt lat="52.04653" lon="4.18745">
        <ele>61.272641</ele>
        <time>2024-07-04T10:09:57.313Z</time>
      </trkpt>
      <trkpt lat="52.0466" lon="4.18754">
        <ele>61.243316</ele>
        <time>2024-07-04T10:09:59.299Z</time>
      </trkpt>
      <trkpt lat="52.04668" lon="4.18765">
        <ele>61.211854</ele>
        <time>2024-07-04T10:10:01.315Z</time>
      </trkpt>
      <trkpt lat="52.04676" lon="4.18775">
        <ele>61.180631</ele>
        <time>2024-07-04T10:10:03.311Z</time>
      </trkpt>
      <trkpt lat="52.04684" lon="4.18786">
        <ele>61.149411</ele>
        <time>2024-07-04T10:10:05.325Z</time>
      </trkpt>
      <trkpt lat="52.04691" lon="4.18796">
        <ele>61.118176</ele>
        <time>2024-07-04T10:10:07.322Z</time>
      </trkpt>
      <trkpt lat="52.04699" lon="4.18807">
        <ele>61.087318</ele>
        <time>2024-07-04T10:10:09.328Z</time>
      </trkpt>
      <trkpt lat="52.04707" lon="4.18817">
        <ele>61.078517</ele>
        <time>2024-07-04T10:10:11.317Z</time>
      </trkpt>
      <trkpt lat="52.04714" lon="4.18829">
        <ele>61.073871</ele>
        <time>2024-07-04T10:10:13.277Z</time>
      </trkpt>
      <trkpt lat="52.04721" lon="4.18842">
        <ele>61.069465</ele>
        <time>2024-07-04T10:10:15.308Z</time>
      </trkpt>
      <trkpt lat="52.04728" lon="4.18855">
        <ele>61.064936</ele>
        <time>2024-07-04T10:10:17.313Z</time>
      </trkpt>
      <trkpt lat="52.04735" lon="4.18866">
        <ele>61.060459</ele>
        <time>2024-07-04T10:10:19.305Z</time>
      </trkpt>
      <trkpt lat="52.04743" lon="4.18877">
        <ele>61.055926</ele>
        <time>2024-07-04T10:10:21.308Z</time>
      </trkpt>
      <trkpt lat="52.04751" lon="4.18888">
        <ele>61.051615</ele>
        <time>2024-07-04T10:10:23.306Z</time>
      </trkpt>
      <trkpt lat="52.04759" lon="4.189">
        <ele>61.046929</ele>
        <time>2024-07-04T10:10:25.304Z</time>
      </trkpt>
      <trkpt lat="52.04766" lon="4.1891">
        <ele>61.042501</ele>
        <time>2024-07-04T10:10:27.311Z</time>
      </trkpt>
      <trkpt lat="52.04774" lon="4.18921">
        <ele>61.037968</ele>
        <time>2024-07-04T10:10:29.311Z</time>
      </trkpt>
      <trkpt lat="52.04782" lon="4.18932">
        <ele>61.033637</ele>
        <time>2024-07-04T10:10:31.310Z</time>
      </trkpt>
      <trkpt lat="52.04789" lon="4.18943">
        <ele>61.029376</ele>
        <time>2024-07-04T10:10:33.329Z</time>
      </trkpt>
      <trkpt lat="52.04797" lon="4.18952">
        <ele>61.025281</ele>
        <time>2024-07-04T10:10:35.316Z</time>
      </trkpt>
      <trkpt lat="52.04804" lon="4.18961">
        <ele>61.021156</ele>
        <time>2024-07-04T10:10:37.308Z</time>
      </trkpt>
      <trkpt lat="52.04812" lon="4.18972">
        <ele>61.01654</ele>
        <time>2024-07-04T10:10:39.326Z</time>
      </trkpt>
      <trkpt lat="52.0482" lon="4.18984">
        <ele>61.011818</ele>
        <time>2024-07-04T10:10:41.315Z</time>
      </trkpt>
      <trkpt lat="52.04829" lon="4.18996">
        <ele>61.006967</ele>
        <time>2024-07-04T10:10:43.310Z</time>
      </trkpt>
      <trkpt lat="52.04837" lon="4.19006">
        <ele>61.0073</ele>
        <time>2024-07-04T10:10:45.305Z</time>
      </trkpt>
      <trkpt lat="52.04845" lon="4.19017">
        <ele>61.01777</ele>
        <time>2024-07-04T10:10:47.310Z</time>
      </trkpt>
      <trkpt lat="52.04853" lon="4.19028">
        <ele>61.028163</ele>
        <time>2024-07-04T10:10:49.322Z</time>
      </trkpt>
      <trkpt lat="52.04861" lon="4.19038">
        <ele>61.038322</ele>
        <time>2024-07-04T10:10:51.311Z</time>
      </trkpt>
      <trkpt lat="52.04869" lon="4.19049">
        <ele>61.049105</ele>
        <time>2024-07-04T10:10:53.308Z</time>
      </trkpt>
      <trkpt lat="52.04877" lon="4.19059">
        <ele>61.059379</ele>
        <time>2024-07-04T10:10:55.287Z</time>
      </trkpt>
      <trkpt lat="52.04885" lon="4.19069">
        <ele>61.069708</ele>
        <time>2024-07-04T10:10:57.303Z</time>
      </trkpt>
      <trkpt lat="52.04894" lon="4.19079">
        <ele>61.080345</ele>
        <time>2024-07-04T10:10:59.318Z</time>
      </trkpt>
      <trkpt lat="52.04903" lon="4.19088">
        <ele>61.090558</ele>
        <time>2024-07-04T10:11:01.302Z</time>
      </trkpt>
      <trkpt lat="52.04912" lon="4.19096">
        <ele>61.101241</ele>
        <time>2024-07-04T10:11:03.319Z</time>
      </trkpt>
      <trkpt lat="52.04921" lon="4.19103">
        <ele>61.111341</ele>
        <time>2024-07-04T10:11:05.310Z</time>
      </trkpt>
      <trkpt lat="52.0493" lon="4.19111">
        <ele>61.121379</ele>
        <time>2024-07-04T10:11:07.309Z</time>
      </trkpt>
      <trkpt lat="52.04938" lon="4.19118">
        <ele>61.130976</ele>
        <time>2024-07-04T10:11:09.310Z</time>
      </trkpt>
      <trkpt lat="52.04946" lon="4.19127">
        <ele>61.140418</ele>
        <time>2024-07-04T10:11:11.304Z</time>
      </trkpt>
      <trkpt lat="52.04953" lon="4.19136">
        <ele>61.14956</ele>
        <time>2024-07-04T10:11:13.313Z</time>
      </trkpt>
      <trkpt lat="52.0496" lon="4.19147">
        <ele>61.159251</ele>
        <time>2024-07-04T10:11:15.317Z</time>
      </trkpt>
      <trkpt lat="52.04968" lon="4.19156">
        <ele>61.169182</ele>
        <time>2024-07-04T10:11:17.304Z</time>
      </trkpt>
      <trkpt lat="52.04976" lon="4.19166">
        <ele>61.178988</ele>
        <time>2024-07-04T10:11:19.304Z</time>
      </trkpt>
      <trkpt lat="52.04983" lon="4.19176">
        <ele>61.189824</ele>
        <time>2024-07-04T10:11:21.313Z</time>
      </trkpt>
      <trkpt lat="52.0499" lon="4.19186">
        <ele>61.202749</ele>
        <time>2024-07-04T10:11:23.324Z</time>
      </trkpt>
      <trkpt lat="52.04998" lon="4.19196">
        <ele>61.216248</ele>
        <time>2024-07-04T10:11:25.301Z</time>
      </trkpt>
      <trkpt lat="52.05005" lon="4.19206">
        <ele>61.22938</ele>
        <time>2024-07-04T10:11:27.321Z</time>
      </trkpt>
      <trkpt lat="52.05013" lon="4.19216">
        <ele>61.242307</ele>
        <time>2024-07-04T10:11:29.315Z</time>
      </trkpt>
      <trkpt lat="52.05021" lon="4.19226">
        <ele>61.255336</ele>
        <time>2024-07-04T10:11:31.302Z</time>
      </trkpt>
      <trkpt lat="52.05028" lon="4.19235">
        <ele>61.268311</ele>
        <time>2024-07-04T10:11:33.300Z</time>
      </trkpt>
      <trkpt lat="52.05036" lon="4.19246">
        <ele>61.281393</ele>
        <time>2024-07-04T10:11:35.311Z</time>
      </trkpt>
      <trkpt lat="52.05043" lon="4.19255">
        <ele>61.29432</ele>
        <time>2024-07-04T10:11:37.320Z</time>
      </trkpt>
      <trkpt lat="52.05051" lon="4.19265">
        <ele>61.307985</ele>
        <time>2024-07-04T10:11:39.306Z</time>
      </trkpt>
      <trkpt lat="52.05059" lon="4.19275">
        <ele>61.321435</ele>
        <time>2024-07-04T10:11:41.311Z</time>
      </trkpt>
      <trkpt lat="52.05067" lon="4.19285">
        <ele>61.334728</ele>
        <time>2024-07-04T10:11:43.303Z</time>
      </trkpt>
      <trkpt lat="52.05074" lon="4.19295">
        <ele>61.34766</ele>
        <time>2024-07-04T10:11:45.308Z</time>
      </trkpt>
      <trkpt lat="52.0508" lon="4.19307">
        <ele>61.360272</ele>
        <time>2024-07-04T10:11:47.301Z</time>
      </trkpt>
      <trkpt lat="52.05087" lon="4.19317">
        <ele>61.372781</ele>
        <time>2024-07-04T10:11:49.320Z</time>
      </trkpt>
      <trkpt lat="52.05093" lon="4.19329">
        <ele>61.385402</ele>
        <time>2024-07-04T10:11:51.311Z</time>
      </trkpt>
      <trkpt lat="52.051" lon="4.1934">
        <ele>61.398514</ele>
        <time>2024-07-04T10:11:53.317Z</time>
      </trkpt>
      <trkpt lat="52.05107" lon="4.19351">
        <ele>61.411469</ele>
        <time>2024-07-04T10:11:55.305Z</time>
      </trkpt>
      <trkpt lat="52.05114" lon="4.19362">
        <ele>61.424983</ele>
        <time>2024-07-04T10:11:57.321Z</time>
      </trkpt>
      <trkpt lat="52.05121" lon="4.19375">
        <ele>61.405694</ele>
        <time>2024-07-04T10:11:59.321Z</time>
      </trkpt>
      <trkpt lat="52.05128" lon="4.19386">
        <ele>61.37978</ele>
        <time>2024-07-04T10:12:01.310Z</time>
      </trkpt>
      <trkpt lat="52.05136" lon="4.19398">
        <ele>61.353814</ele>
        <time>2024-07-04T10:12:03.311Z</time>
      </trkpt>
      <trkpt lat="52.05144" lon="4.19409">
        <ele>61.327329</ele>
        <time>2024-07-04T10:12:05.322Z</time>
      </trkpt>
      <trkpt lat="52.05152" lon="4.19419">
        <ele>61.302029</ele>
        <time>2024-07-04T10:12:07.305Z</time>
      </trkpt>
      <trkpt lat="52.05161" lon="4.19425">
        <ele>61.276162</ele>
        <time>2024-07-04T10:12:09.288Z</time>
      </trkpt>
      <trkpt lat="52.05169" lon="4.19431">
        <ele>61.253245</ele>
        <time>2024-07-04T10:12:11.292Z</time>
      </trkpt>
      <trkpt lat="52.05178" lon="4.19437">
        <ele>61.230095</ele>
        <time>2024-07-04T10:12:13.328Z</time>
      </trkpt>
      <trkpt lat="52.05189" lon="4.19445">
        <ele>61.199793</ele>
        <time>2024-07-04T10:12:16.321Z</time>
      </trkpt>
      <trkpt lat="52.05198" lon="4.19455">
        <ele>61.171844</ele>
        <time>2024-07-04T10:12:19.301Z</time>
      </trkpt>
      <trkpt lat="52.05206" lon="4.19465">
        <ele>61.14486</ele>
        <time>2024-07-04T10:12:22.321Z</time>
      </trkpt>
      <trkpt lat="52.05214" lon="4.19476">
        <ele>61.118873</ele>
        <time>2024-07-04T10:12:25.319Z</time>
      </trkpt>
      <trkpt lat="52.05221" lon="4.19486">
        <ele>61.09553</ele>
        <time>2024-07-04T10:12:28.324Z</time>
      </trkpt>
      <trkpt lat="52.05228" lon="4.19496">
        <ele>61.071616</ele>
        <time>2024-07-04T10:12:31.314Z</time>
      </trkpt>
      <trkpt lat="52.05237" lon="4.19506">
        <ele>61.044929</ele>
        <time>2024-07-04T10:12:34.325Z</time>
      </trkpt>
      <trkpt lat="52.05244" lon="4.19515">
        <ele>61.021899</ele>
        <time>2024-07-04T10:12:37.314Z</time>
      </trkpt>
      <trkpt lat="52.05254" lon="4.19523">
        <ele>60.99422</ele>
        <time>2024-07-04T10:12:41.294Z</time>
      </trkpt>
      <trkpt lat="52.05261" lon="4.19532">
        <ele>60.973112</ele>
        <time>2024-07-04T10:12:49.287Z</time>
      </trkpt>
      <trkpt lat="52.05262" lon="4.19534">
        <ele>60.982782</ele>
        <time>2024-07-04T10:13:09.924Z</time>
      </trkpt>
      <trkpt lat="52.05268" lon="4.19548">
        <ele>61.046043</ele>
        <time>2024-07-04T10:15:11.294Z</time>
      </trkpt>
      <trkpt lat="52.05276" lon="4.19558">
        <ele>61.109359</ele>
        <time>2024-07-04T10:15:15.314Z</time>
      </trkpt>
      <trkpt lat="52.05285" lon="4.1957">
        <ele>61.180463</ele>
        <time>2024-07-04T10:15:19.307Z</time>
      </trkpt>
      <trkpt lat="52.05293" lon="4.19581">
        <ele>61.243771</ele>
        <time>2024-07-04T10:15:22.316Z</time>
      </trkpt>
      <trkpt lat="52.05302" lon="4.19593">
        <ele>61.314852</ele>
        <time>2024-07-04T10:15:25.315Z</time>
      </trkpt>
      <trkpt lat="52.05312" lon="4.19604">
        <ele>61.385704</ele>
        <time>2024-07-04T10:15:28.319Z</time>
      </trkpt>
      <trkpt lat="52.0532" lon="4.19618">
        <ele>61.457887</ele>
        <time>2024-07-04T10:15:31.321Z</time>
      </trkpt>
      <trkpt lat="52.0533" lon="4.1963">
        <ele>61.532738</ele>
        <time>2024-07-04T10:15:34.302Z</time>
      </trkpt>
      <trkpt lat="52.05339" lon="4.19643">
        <ele>61.605619</ele>
        <time>2024-07-04T10:15:37.314Z</time>
      </trkpt>
      <trkpt lat="52.05348" lon="4.19658">
        <ele>61.683109</ele>
        <time>2024-07-04T10:15:40.332Z</time>
      </trkpt>
      <trkpt lat="52.05353" lon="4.19671">
        <ele>61.740752</ele>
        <time>2024-07-04T10:15:42.322Z</time>
      </trkpt>
      <trkpt lat="52.05359" lon="4.19683">
        <ele>61.79713</ele>
        <time>2024-07-04T10:15:44.294Z</time>
      </trkpt>
      <trkpt lat="52.05366" lon="4.19694">
        <ele>61.857398</ele>
        <time>2024-07-04T10:15:46.315Z</time>
      </trkpt>
      <trkpt lat="52.05373" lon="4.19705">
        <ele>61.917883</ele>
        <time>2024-07-04T10:15:48.296Z</time>
      </trkpt>
      <trkpt lat="52.05381" lon="4.19715">
        <ele>61.977431</ele>
        <time>2024-07-04T10:15:50.324Z</time>
      </trkpt>
      <trkpt lat="52.05389" lon="4.19724">
        <ele>62.036944</ele>
        <time>2024-07-04T10:15:52.315Z</time>
      </trkpt>
      <trkpt lat="52.05398" lon="4.19732">
        <ele>62.070561</ele>
        <time>2024-07-04T10:15:54.322Z</time>
      </trkpt>
      <trkpt lat="52.05407" lon="4.19737">
        <ele>62.085024</ele>
        <time>2024-07-04T10:15:56.333Z</time>
      </trkpt>
      <trkpt lat="52.05415" lon="4.19745">
        <ele>62.098788</ele>
        <time>2024-07-04T10:15:58.333Z</time>
      </trkpt>
      <trkpt lat="52.05423" lon="4.19753">
        <ele>62.11333</ele>
        <time>2024-07-04T10:16:00.309Z</time>
      </trkpt>
      <trkpt lat="52.05431" lon="4.19763">
        <ele>62.127182</ele>
        <time>2024-07-04T10:16:02.333Z</time>
      </trkpt>
      <trkpt lat="52.05438" lon="4.19772">
        <ele>62.141024</ele>
        <time>2024-07-04T10:16:04.315Z</time>
      </trkpt>
      <trkpt lat="52.05446" lon="4.19781">
        <ele>62.154861</ele>
        <time>2024-07-04T10:16:06.331Z</time>
      </trkpt>
      <trkpt lat="52.05453" lon="4.19791">
        <ele>62.169097</ele>
        <time>2024-07-04T10:16:08.332Z</time>
      </trkpt>
      <trkpt lat="52.0546" lon="4.19802">
        <ele>62.182966</ele>
        <time>2024-07-04T10:16:10.328Z</time>
      </trkpt>
      <trkpt lat="52.05471" lon="4.19815">
        <ele>62.202439</ele>
        <time>2024-07-04T10:16:13.329Z</time>
      </trkpt>
      <trkpt lat="52.0548" lon="4.19828">
        <ele>62.220548</ele>
        <time>2024-07-04T10:16:16.334Z</time>
      </trkpt>
      <trkpt lat="52.0549" lon="4.19841">
        <ele>62.238825</ele>
        <time>2024-07-04T10:16:19.318Z</time>
      </trkpt>
      <trkpt lat="52.05499" lon="4.19854">
        <ele>62.256935</ele>
        <time>2024-07-04T10:16:22.314Z</time>
      </trkpt>
      <trkpt lat="52.05507" lon="4.19862">
        <ele>62.270337</ele>
        <time>2024-07-04T10:16:24.313Z</time>
      </trkpt>
      <trkpt lat="52.05514" lon="4.19872">
        <ele>62.284457</ele>
        <time>2024-07-04T10:16:26.307Z</time>
      </trkpt>
      <trkpt lat="52.05522" lon="4.19882">
        <ele>62.29841</ele>
        <time>2024-07-04T10:16:28.307Z</time>
      </trkpt>
      <trkpt lat="52.05529" lon="4.1989">
        <ele>62.312155</ele>
        <time>2024-07-04T10:16:30.314Z</time>
      </trkpt>
      <trkpt lat="52.05537" lon="4.19901">
        <ele>62.324699</ele>
        <time>2024-07-04T10:16:32.307Z</time>
      </trkpt>
      <trkpt lat="52.05544" lon="4.19911">
        <ele>62.276757</ele>
        <time>2024-07-04T10:16:34.327Z</time>
      </trkpt>
      <trkpt lat="52.05552" lon="4.19921">
        <ele>62.22884</ele>
        <time>2024-07-04T10:16:36.308Z</time>
      </trkpt>
      <trkpt lat="52.05559" lon="4.19931">
        <ele>62.179931</ele>
        <time>2024-07-04T10:16:38.330Z</time>
      </trkpt>
      <trkpt lat="52.05566" lon="4.19941">
        <ele>62.132224</ele>
        <time>2024-07-04T10:16:40.320Z</time>
      </trkpt>
      <trkpt lat="52.05573" lon="4.19951">
        <ele>62.084895</ele>
        <time>2024-07-04T10:16:42.313Z</time>
      </trkpt>
      <trkpt lat="52.0558" lon="4.1996">
        <ele>62.038941</ele>
        <time>2024-07-04T10:16:44.312Z</time>
      </trkpt>
      <trkpt lat="52.05587" lon="4.19971">
        <ele>61.991853</ele>
        <time>2024-07-04T10:16:46.326Z</time>
      </trkpt>
      <trkpt lat="52.05597" lon="4.19984">
        <ele>61.925471</ele>
        <time>2024-07-04T10:16:49.315Z</time>
      </trkpt>
      <trkpt lat="52.05607" lon="4.19998">
        <ele>61.857292</ele>
        <time>2024-07-04T10:16:52.320Z</time>
      </trkpt>
      <trkpt lat="52.05616" lon="4.20014">
        <ele>61.791053</ele>
        <time>2024-07-04T10:16:55.293Z</time>
      </trkpt>
      <trkpt lat="52.05622" lon="4.20026">
        <ele>61.74478</ele>
        <time>2024-07-04T10:16:57.326Z</time>
      </trkpt>
      <trkpt lat="52.05627" lon="4.20039">
        <ele>61.696271</ele>
        <time>2024-07-04T10:16:59.326Z</time>
      </trkpt>
      <trkpt lat="52.05632" lon="4.20051">
        <ele>61.649331</ele>
        <time>2024-07-04T10:17:01.320Z</time>
      </trkpt>
      <trkpt lat="52.05637" lon="4.20065">
        <ele>61.601084</ele>
        <time>2024-07-04T10:17:03.317Z</time>
      </trkpt>
      <trkpt lat="52.05642" lon="4.20078">
        <ele>61.550446</ele>
        <time>2024-07-04T10:17:05.336Z</time>
      </trkpt>
      <trkpt lat="52.05648" lon="4.20093">
        <ele>61.497162</ele>
        <time>2024-07-04T10:17:07.334Z</time>
      </trkpt>
      <trkpt lat="52.05654" lon="4.20108">
        <ele>61.441999</ele>
        <time>2024-07-04T10:17:09.313Z</time>
      </trkpt>
      <trkpt lat="52.05662" lon="4.20121">
        <ele>61.329826</ele>
        <time>2024-07-04T10:17:11.314Z</time>
      </trkpt>
      <trkpt lat="52.0567" lon="4.20134">
        <ele>61.172269</ele>
        <time>2024-07-04T10:17:13.313Z</time>
      </trkpt>
      <trkpt lat="52.05679" lon="4.20144">
        <ele>61.018027</ele>
        <time>2024-07-04T10:17:15.325Z</time>
      </trkpt>
      <trkpt lat="52.05688" lon="4.20152">
        <ele>60.871227</ele>
        <time>2024-07-04T10:17:17.336Z</time>
      </trkpt>
      <trkpt lat="52.05697" lon="4.20161">
        <ele>60.729503</ele>
        <time>2024-07-04T10:17:19.296Z</time>
      </trkpt>
      <trkpt lat="52.05705" lon="4.2017">
        <ele>60.589794</ele>
        <time>2024-07-04T10:17:21.323Z</time>
      </trkpt>
      <trkpt lat="52.05714" lon="4.2018">
        <ele>60.445209</ele>
        <time>2024-07-04T10:17:23.319Z</time>
      </trkpt>
      <trkpt lat="52.05721" lon="4.2019">
        <ele>60.31375</ele>
        <time>2024-07-04T10:17:25.292Z</time>
      </trkpt>
      <trkpt lat="52.05725" lon="4.20204">
        <ele>60.178958</ele>
        <time>2024-07-04T10:17:27.314Z</time>
      </trkpt>
      <trkpt lat="52.0573" lon="4.20217">
        <ele>60.051033</ele>
        <time>2024-07-04T10:17:29.311Z</time>
      </trkpt>
      <trkpt lat="52.0574" lon="4.20232">
        <ele>59.869277</ele>
        <time>2024-07-04T10:17:32.322Z</time>
      </trkpt>
      <trkpt lat="52.05751" lon="4.20244">
        <ele>59.682408</ele>
        <time>2024-07-04T10:17:35.306Z</time>
      </trkpt>
      <trkpt lat="52.05759" lon="4.20252">
        <ele>59.553268</ele>
        <time>2024-07-04T10:17:37.310Z</time>
      </trkpt>
      <trkpt lat="52.05769" lon="4.20264">
        <ele>59.371092</ele>
        <time>2024-07-04T10:17:40.324Z</time>
      </trkpt>
      <trkpt lat="52.05777" lon="4.20275">
        <ele>59.235172</ele>
        <time>2024-07-04T10:17:42.325Z</time>
      </trkpt>
      <trkpt lat="52.05784" lon="4.20286">
        <ele>59.099894</ele>
        <time>2024-07-04T10:17:44.316Z</time>
      </trkpt>
      <trkpt lat="52.0579" lon="4.20297">
        <ele>58.965218</ele>
        <time>2024-07-04T10:17:46.318Z</time>
      </trkpt>
      <trkpt lat="52.05797" lon="4.20309">
        <ele>58.885238</ele>
        <time>2024-07-04T10:17:48.313Z</time>
      </trkpt>
      <trkpt lat="52.05804" lon="4.20321">
        <ele>58.834465</ele>
        <time>2024-07-04T10:17:50.312Z</time>
      </trkpt>
      <trkpt lat="52.05812" lon="4.20332">
        <ele>58.783005</ele>
        <time>2024-07-04T10:17:52.295Z</time>
      </trkpt>
      <trkpt lat="52.05819" lon="4.20344">
        <ele>58.729453</ele>
        <time>2024-07-04T10:17:54.323Z</time>
      </trkpt>
      <trkpt lat="52.05826" lon="4.20355">
        <ele>58.677964</ele>
        <time>2024-07-04T10:17:56.325Z</time>
      </trkpt>
      <trkpt lat="52.05833" lon="4.20367">
        <ele>58.627437</ele>
        <time>2024-07-04T10:17:58.316Z</time>
      </trkpt>
      <trkpt lat="52.0584" lon="4.20379">
        <ele>58.57617</ele>
        <time>2024-07-04T10:18:00.326Z</time>
      </trkpt>
      <trkpt lat="52.05847" lon="4.2039">
        <ele>58.524979</ele>
        <time>2024-07-04T10:18:02.296Z</time>
      </trkpt>
      <trkpt lat="52.05854" lon="4.20402">
        <ele>58.473064</ele>
        <time>2024-07-04T10:18:04.322Z</time>
      </trkpt>
      <trkpt lat="52.05861" lon="4.20413">
        <ele>58.42172</ele>
        <time>2024-07-04T10:18:06.322Z</time>
      </trkpt>
      <trkpt lat="52.05868" lon="4.20425">
        <ele>58.370947</ele>
        <time>2024-07-04T10:18:08.291Z</time>
      </trkpt>
      <trkpt lat="52.05875" lon="4.20436">
        <ele>58.32123</ele>
        <time>2024-07-04T10:18:10.326Z</time>
      </trkpt>
      <trkpt lat="52.05881" lon="4.20448">
        <ele>58.272552</ele>
        <time>2024-07-04T10:18:12.321Z</time>
      </trkpt>
      <trkpt lat="52.05889" lon="4.20459">
        <ele>58.222227</ele>
        <time>2024-07-04T10:18:14.309Z</time>
      </trkpt>
      <trkpt lat="52.05896" lon="4.20471">
        <ele>58.1689</ele>
        <time>2024-07-04T10:18:16.290Z</time>
      </trkpt>
      <trkpt lat="52.05903" lon="4.20483">
        <ele>58.116285</ele>
        <time>2024-07-04T10:18:18.327Z</time>
      </trkpt>
      <trkpt lat="52.05911" lon="4.20495">
        <ele>58.060845</ele>
        <time>2024-07-04T10:18:20.309Z</time>
      </trkpt>
      <trkpt lat="52.05918" lon="4.20507">
        <ele>58.007949</ele>
        <time>2024-07-04T10:18:22.307Z</time>
      </trkpt>
      <trkpt lat="52.05926" lon="4.20518">
        <ele>57.981953</ele>
        <time>2024-07-04T10:18:24.324Z</time>
      </trkpt>
      <trkpt lat="52.05933" lon="4.2053">
        <ele>57.961155</ele>
        <time>2024-07-04T10:18:26.316Z</time>
      </trkpt>
      <trkpt lat="52.0594" lon="4.20542">
        <ele>57.940636</ele>
        <time>2024-07-04T10:18:28.293Z</time>
      </trkpt>
      <trkpt lat="52.05947" lon="4.20554">
        <ele>57.920052</ele>
        <time>2024-07-04T10:18:30.324Z</time>
      </trkpt>
      <trkpt lat="52.05955" lon="4.20565">
        <ele>57.898613</ele>
        <time>2024-07-04T10:18:32.312Z</time>
      </trkpt>
      <trkpt lat="52.05963" lon="4.20575">
        <ele>57.87685</ele>
        <time>2024-07-04T10:18:34.309Z</time>
      </trkpt>
      <trkpt lat="52.05972" lon="4.20585">
        <ele>57.855152</ele>
        <time>2024-07-04T10:18:36.323Z</time>
      </trkpt>
      <trkpt lat="52.0598" lon="4.20596">
        <ele>57.833158</ele>
        <time>2024-07-04T10:18:38.318Z</time>
      </trkpt>
      <trkpt lat="52.05988" lon="4.20607">
        <ele>57.811616</ele>
        <time>2024-07-04T10:18:40.317Z</time>
      </trkpt>
      <trkpt lat="52.05996" lon="4.20617">
        <ele>57.790656</ele>
        <time>2024-07-04T10:18:42.304Z</time>
      </trkpt>
      <trkpt lat="52.06004" lon="4.20628">
        <ele>57.768502</ele>
        <time>2024-07-04T10:18:44.343Z</time>
      </trkpt>
      <trkpt lat="52.06012" lon="4.2064">
        <ele>57.746446</ele>
        <time>2024-07-04T10:18:46.319Z</time>
      </trkpt>
      <trkpt lat="52.0602" lon="4.20652">
        <ele>57.724276</ele>
        <time>2024-07-04T10:18:48.311Z</time>
      </trkpt>
      <trkpt lat="52.06028" lon="4.20663">
        <ele>57.702426</ele>
        <time>2024-07-04T10:18:50.326Z</time>
      </trkpt>
      <trkpt lat="52.06036" lon="4.20675">
        <ele>57.680693</ele>
        <time>2024-07-04T10:18:52.310Z</time>
      </trkpt>
      <trkpt lat="52.06044" lon="4.20687">
        <ele>57.65883</ele>
        <time>2024-07-04T10:18:54.324Z</time>
      </trkpt>
      <trkpt lat="52.06051" lon="4.20698">
        <ele>57.638599</ele>
        <time>2024-07-04T10:18:56.312Z</time>
      </trkpt>
      <trkpt lat="52.06059" lon="4.20708">
        <ele>57.616304</ele>
        <time>2024-07-04T10:18:58.309Z</time>
      </trkpt>
      <trkpt lat="52.06066" lon="4.2072">
        <ele>57.592925</ele>
        <time>2024-07-04T10:19:00.327Z</time>
      </trkpt>
      <trkpt lat="52.06073" lon="4.2073">
        <ele>57.570971</ele>
        <time>2024-07-04T10:19:02.309Z</time>
      </trkpt>
      <trkpt lat="52.06081" lon="4.2074">
        <ele>57.548391</ele>
        <time>2024-07-04T10:19:04.322Z</time>
      </trkpt>
      <trkpt lat="52.06087" lon="4.20751">
        <ele>57.527406</ele>
        <time>2024-07-04T10:19:06.325Z</time>
      </trkpt>
      <trkpt lat="52.06097" lon="4.20765">
        <ele>57.497015</ele>
        <time>2024-07-04T10:19:09.315Z</time>
      </trkpt>
      <trkpt lat="52.06107" lon="4.2078">
        <ele>57.46691</ele>
        <time>2024-07-04T10:19:12.332Z</time>
      </trkpt>
      <trkpt lat="52.06114" lon="4.20792">
        <ele>57.443204</ele>
        <time>2024-07-04T10:19:15.329Z</time>
      </trkpt>
      <trkpt lat="52.06117" lon="4.20814">
        <ele>57.411274</ele>
        <time>2024-07-04T10:19:52.300Z</time>
      </trkpt>
      <trkpt lat="52.0611" lon="4.20826">
        <ele>57.388539</ele>
        <time>2024-07-04T10:19:56.313Z</time>
      </trkpt>
      <trkpt lat="52.06102" lon="4.2084">
        <ele>57.362502</ele>
        <time>2024-07-04T10:20:00.309Z</time>
      </trkpt>
      <trkpt lat="52.06092" lon="4.20858">
        <ele>57.32765</ele>
        <time>2024-07-04T10:20:41.334Z</time>
      </trkpt>
      <trkpt lat="52.06085" lon="4.20873">
        <ele>57.301365</ele>
        <time>2024-07-04T10:20:44.297Z</time>
      </trkpt>
      <trkpt lat="52.06078" lon="4.20889">
        <ele>57.274316</ele>
        <time>2024-07-04T10:20:46.312Z</time>
      </trkpt>
      <trkpt lat="52.06074" lon="4.20907">
        <ele>57.246314</ele>
        <time>2024-07-04T10:20:48.313Z</time>
      </trkpt>
      <trkpt lat="52.06071" lon="4.20926">
        <ele>57.211234</ele>
        <time>2024-07-04T10:20:50.315Z</time>
      </trkpt>
      <trkpt lat="52.06069" lon="4.20945">
        <ele>57.030091</ele>
        <time>2024-07-04T10:20:52.314Z</time>
      </trkpt>
      <trkpt lat="52.06068" lon="4.20963">
        <ele>56.852951</ele>
        <time>2024-07-04T10:20:54.328Z</time>
      </trkpt>
      <trkpt lat="52.06068" lon="4.20979">
        <ele>56.693955</ele>
        <time>2024-07-04T10:20:56.303Z</time>
      </trkpt>
      <trkpt lat="52.06068" lon="4.20994">
        <ele>56.549294</ele>
        <time>2024-07-04T10:20:58.303Z</time>
      </trkpt>
      <trkpt lat="52.06067" lon="4.2101">
        <ele>56.393795</ele>
        <time>2024-07-04T10:21:01.306Z</time>
      </trkpt>
      <trkpt lat="52.06058" lon="4.21022">
        <ele>56.224264</ele>
        <time>2024-07-04T10:21:06.333Z</time>
      </trkpt>
      <trkpt lat="52.06055" lon="4.21036">
        <ele>56.069634</ele>
        <time>2024-07-04T10:21:09.310Z</time>
      </trkpt>
      <trkpt lat="52.06051" lon="4.21051">
        <ele>55.911381</ele>
        <time>2024-07-04T10:21:12.331Z</time>
      </trkpt>
      <trkpt lat="52.06045" lon="4.21065">
        <ele>55.749574</ele>
        <time>2024-07-04T10:21:15.296Z</time>
      </trkpt>
      <trkpt lat="52.06037" lon="4.21082">
        <ele>55.540306</ele>
        <time>2024-07-04T10:21:18.281Z</time>
      </trkpt>
      <trkpt lat="52.06029" lon="4.21093">
        <ele>55.375305</ele>
        <time>2024-07-04T10:21:21.299Z</time>
      </trkpt>
      <trkpt lat="52.0602" lon="4.21095">
        <ele>55.230642</ele>
        <time>2024-07-04T10:21:24.320Z</time>
      </trkpt>
      <trkpt lat="52.06013" lon="4.21083">
        <ele>55.066298</ele>
        <time>2024-07-04T10:21:27.315Z</time>
      </trkpt>
      <trkpt lat="52.06003" lon="4.21087">
        <ele>54.917408</ele>
        <time>2024-07-04T10:21:31.308Z</time>
      </trkpt>
      <trkpt lat="52.06006" lon="4.21101">
        <ele>54.775508</ele>
        <time>2024-07-04T10:21:33.314Z</time>
      </trkpt>
      <trkpt lat="52.06011" lon="4.21115">
        <ele>54.617562</ele>
        <time>2024-07-04T10:21:35.311Z</time>
      </trkpt>
      <trkpt lat="52.06017" lon="4.21131">
        <ele>54.443926</ele>
        <time>2024-07-04T10:21:37.323Z</time>
      </trkpt>
      <trkpt lat="52.06021" lon="4.21148">
        <ele>54.347906</ele>
        <time>2024-07-04T10:21:39.300Z</time>
      </trkpt>
      <trkpt lat="52.06018" lon="4.21167">
        <ele>54.286384</ele>
        <time>2024-07-04T10:21:41.297Z</time>
      </trkpt>
      <trkpt lat="52.06012" lon="4.21183">
        <ele>54.226571</ele>
        <time>2024-07-04T10:21:43.305Z</time>
      </trkpt>
      <trkpt lat="52.06013" lon="4.21203">
        <ele>54.164295</ele>
        <time>2024-07-04T10:21:45.311Z</time>
      </trkpt>
      <trkpt lat="52.06017" lon="4.2122">
        <ele>54.107273</ele>
        <time>2024-07-04T10:21:47.313Z</time>
      </trkpt>
      <trkpt lat="52.06014" lon="4.21238">
        <ele>54.050216</ele>
        <time>2024-07-04T10:21:49.331Z</time>
      </trkpt>
      <trkpt lat="52.06008" lon="4.21255">
        <ele>53.987032</ele>
        <time>2024-07-04T10:21:51.333Z</time>
      </trkpt>
      <trkpt lat="52.06001" lon="4.21271">
        <ele>53.926037</ele>
        <time>2024-07-04T10:21:53.316Z</time>
      </trkpt>
      <trkpt lat="52.05995" lon="4.21288">
        <ele>53.863837</ele>
        <time>2024-07-04T10:21:55.307Z</time>
      </trkpt>
      <trkpt lat="52.0599" lon="4.21305">
        <ele>53.803603</ele>
        <time>2024-07-04T10:21:57.314Z</time>
      </trkpt>
      <trkpt lat="52.05985" lon="4.21323">
        <ele>53.742144</ele>
        <time>2024-07-04T10:21:59.314Z</time>
      </trkpt>
      <trkpt lat="52.0598" lon="4.21341">
        <ele>53.681851</ele>
        <time>2024-07-04T10:22:01.303Z</time>
      </trkpt>
      <trkpt lat="52.05978" lon="4.21358">
        <ele>53.626614</ele>
        <time>2024-07-04T10:22:03.309Z</time>
      </trkpt>
      <trkpt lat="52.0598" lon="4.21377">
        <ele>53.564309</ele>
        <time>2024-07-04T10:22:05.301Z</time>
      </trkpt>
      <trkpt lat="52.05985" lon="4.21398">
        <ele>53.494602</ele>
        <time>2024-07-04T10:22:07.312Z</time>
      </trkpt>
      <trkpt lat="52.0599" lon="4.21417">
        <ele>53.449875</ele>
        <time>2024-07-04T10:22:09.320Z</time>
      </trkpt>
      <trkpt lat="52.05996" lon="4.21435">
        <ele>53.422348</ele>
        <time>2024-07-04T10:22:11.334Z</time>
      </trkpt>
      <trkpt lat="52.06001" lon="4.21452">
        <ele>53.395512</ele>
        <time>2024-07-04T10:22:13.324Z</time>
      </trkpt>
      <trkpt lat="52.06007" lon="4.21468">
        <ele>53.37071</ele>
        <time>2024-07-04T10:22:15.309Z</time>
      </trkpt>
      <trkpt lat="52.06012" lon="4.21484">
        <ele>53.345781</ele>
        <time>2024-07-04T10:22:17.327Z</time>
      </trkpt>
      <trkpt lat="52.06016" lon="4.21499">
        <ele>53.322551</ele>
        <time>2024-07-04T10:22:19.332Z</time>
      </trkpt>
      <trkpt lat="52.06021" lon="4.21516">
        <ele>53.297795</ele>
        <time>2024-07-04T10:22:21.317Z</time>
      </trkpt>
      <trkpt lat="52.06025" lon="4.21531">
        <ele>53.275614</ele>
        <time>2024-07-04T10:22:23.313Z</time>
      </trkpt>
      <trkpt lat="52.06028" lon="4.21545">
        <ele>53.254918</ele>
        <time>2024-07-04T10:22:25.312Z</time>
      </trkpt>
      <trkpt lat="52.06033" lon="4.2156">
        <ele>53.231326</ele>
        <time>2024-07-04T10:22:27.312Z</time>
      </trkpt>
      <trkpt lat="52.06037" lon="4.21574">
        <ele>53.210539</ele>
        <time>2024-07-04T10:22:29.320Z</time>
      </trkpt>
      <trkpt lat="52.0604" lon="4.21589">
        <ele>53.188201</ele>
        <time>2024-07-04T10:22:31.305Z</time>
      </trkpt>
      <trkpt lat="52.06045" lon="4.21606">
        <ele>53.163786</ele>
        <time>2024-07-04T10:22:33.307Z</time>
      </trkpt>
      <trkpt lat="52.0605" lon="4.21623">
        <ele>53.137976</ele>
        <time>2024-07-04T10:22:35.310Z</time>
      </trkpt>
      <trkpt lat="52.06054" lon="4.21638">
        <ele>53.114458</ele>
        <time>2024-07-04T10:22:37.316Z</time>
      </trkpt>
      <trkpt lat="52.06058" lon="4.21655">
        <ele>53.08993</ele>
        <time>2024-07-04T10:22:39.305Z</time>
      </trkpt>
      <trkpt lat="52.06063" lon="4.2167">
        <ele>53.066508</ele>
        <time>2024-07-04T10:22:41.317Z</time>
      </trkpt>
      <trkpt lat="52.06067" lon="4.21686">
        <ele>52.956793</ele>
        <time>2024-07-04T10:22:43.305Z</time>
      </trkpt>
      <trkpt lat="52.06072" lon="4.21702">
        <ele>52.83528</ele>
        <time>2024-07-04T10:22:45.327Z</time>
      </trkpt>
      <trkpt lat="52.06077" lon="4.21717">
        <ele>52.716491</ele>
        <time>2024-07-04T10:22:47.311Z</time>
      </trkpt>
      <trkpt lat="52.06081" lon="4.21733">
        <ele>52.600868</ele>
        <time>2024-07-04T10:22:49.317Z</time>
      </trkpt>
      <trkpt lat="52.06085" lon="4.21749">
        <ele>52.487951</ele>
        <time>2024-07-04T10:22:51.312Z</time>
      </trkpt>
      <trkpt lat="52.06089" lon="4.21765">
        <ele>52.368744</ele>
        <time>2024-07-04T10:22:53.293Z</time>
      </trkpt>
      <trkpt lat="52.06092" lon="4.2178">
        <ele>52.258381</ele>
        <time>2024-07-04T10:22:55.306Z</time>
      </trkpt>
      <trkpt lat="52.06096" lon="4.21796">
        <ele>52.143674</ele>
        <time>2024-07-04T10:22:57.303Z</time>
      </trkpt>
      <trkpt lat="52.06101" lon="4.21811">
        <ele>52.026652</ele>
        <time>2024-07-04T10:22:59.298Z</time>
      </trkpt>
      <trkpt lat="52.06105" lon="4.21826">
        <ele>51.915488</ele>
        <time>2024-07-04T10:23:01.313Z</time>
      </trkpt>
      <trkpt lat="52.0611" lon="4.21842">
        <ele>51.794923</ele>
        <time>2024-07-04T10:23:03.322Z</time>
      </trkpt>
      <trkpt lat="52.06114" lon="4.21858">
        <ele>51.678884</ele>
        <time>2024-07-04T10:23:05.306Z</time>
      </trkpt>
      <trkpt lat="52.06118" lon="4.21874">
        <ele>51.563671</ele>
        <time>2024-07-04T10:23:07.311Z</time>
      </trkpt>
      <trkpt lat="52.06123" lon="4.21889">
        <ele>51.4472</ele>
        <time>2024-07-04T10:23:09.294Z</time>
      </trkpt>
      <trkpt lat="52.06127" lon="4.21904">
        <ele>51.331548</ele>
        <time>2024-07-04T10:23:11.322Z</time>
      </trkpt>
      <trkpt lat="52.06132" lon="4.2192">
        <ele>51.207597</ele>
        <time>2024-07-04T10:23:13.304Z</time>
      </trkpt>
      <trkpt lat="52.06137" lon="4.21935">
        <ele>51.09303</ele>
        <time>2024-07-04T10:23:15.320Z</time>
      </trkpt>
      <trkpt lat="52.06142" lon="4.21951">
        <ele>51.031997</ele>
        <time>2024-07-04T10:23:17.308Z</time>
      </trkpt>
      <trkpt lat="52.06146" lon="4.21967">
        <ele>50.977535</ele>
        <time>2024-07-04T10:23:19.318Z</time>
      </trkpt>
      <trkpt lat="52.0615" lon="4.21983">
        <ele>50.926111</ele>
        <time>2024-07-04T10:23:21.311Z</time>
      </trkpt>
      <trkpt lat="52.06154" lon="4.21998">
        <ele>50.873411</ele>
        <time>2024-07-04T10:23:23.320Z</time>
      </trkpt>
      <trkpt lat="52.06158" lon="4.22013">
        <ele>50.823597</ele>
        <time>2024-07-04T10:23:25.325Z</time>
      </trkpt>
      <trkpt lat="52.06161" lon="4.22028">
        <ele>50.777223</ele>
        <time>2024-07-04T10:23:27.325Z</time>
      </trkpt>
      <trkpt lat="52.06163" lon="4.22042">
        <ele>50.731365</ele>
        <time>2024-07-04T10:23:29.331Z</time>
      </trkpt>
      <trkpt lat="52.06165" lon="4.22057">
        <ele>50.683229</ele>
        <time>2024-07-04T10:23:31.308Z</time>
      </trkpt>
      <trkpt lat="52.06168" lon="4.22073">
        <ele>50.633729</ele>
        <time>2024-07-04T10:23:33.307Z</time>
      </trkpt>
      <trkpt lat="52.06169" lon="4.22089">
        <ele>50.583194</ele>
        <time>2024-07-04T10:23:35.304Z</time>
      </trkpt>
      <trkpt lat="52.06169" lon="4.22106">
        <ele>50.531917</ele>
        <time>2024-07-04T10:23:37.309Z</time>
      </trkpt>
      <trkpt lat="52.06167" lon="4.22122">
        <ele>50.482385</ele>
        <time>2024-07-04T10:23:39.304Z</time>
      </trkpt>
      <trkpt lat="52.06164" lon="4.2214">
        <ele>50.423638</ele>
        <time>2024-07-04T10:23:42.294Z</time>
      </trkpt>
      <trkpt lat="52.06164" lon="4.22156">
        <ele>50.374487</ele>
        <time>2024-07-04T10:23:45.337Z</time>
      </trkpt>
      <trkpt lat="52.06163" lon="4.22171">
        <ele>50.329686</ele>
        <time>2024-07-04T10:23:47.310Z</time>
      </trkpt>
      <trkpt lat="52.06157" lon="4.22189">
        <ele>50.266887</ele>
        <time>2024-07-04T10:23:50.294Z</time>
      </trkpt>
      <trkpt lat="52.06144" lon="4.22192">
        <ele>50.205664</ele>
        <time>2024-07-04T10:23:53.301Z</time>
      </trkpt>
      <trkpt lat="52.06133" lon="4.22191">
        <ele>50.15051</ele>
        <time>2024-07-04T10:23:56.306Z</time>
      </trkpt>
      <trkpt lat="52.06122" lon="4.2219">
        <ele>50.102964</ele>
        <time>2024-07-04T10:23:59.308Z</time>
      </trkpt>
      <trkpt lat="52.06111" lon="4.22193">
        <ele>50.056932</ele>
        <time>2024-07-04T10:24:02.304Z</time>
      </trkpt>
      <trkpt lat="52.06102" lon="4.22204">
        <ele>50.007536</ele>
        <time>2024-07-04T10:24:05.305Z</time>
      </trkpt>
      <trkpt lat="52.06098" lon="4.22222">
        <ele>49.954939</ele>
        <time>2024-07-04T10:24:08.296Z</time>
      </trkpt>
      <trkpt lat="52.06094" lon="4.22241">
        <ele>49.900814</ele>
        <time>2024-07-04T10:24:11.294Z</time>
      </trkpt>
      <trkpt lat="52.0609" lon="4.22254">
        <ele>49.861557</ele>
        <time>2024-07-04T10:24:13.314Z</time>
      </trkpt>
      <trkpt lat="52.06084" lon="4.22271">
        <ele>49.809109</ele>
        <time>2024-07-04T10:24:16.310Z</time>
      </trkpt>
      <trkpt lat="52.06078" lon="4.22289">
        <ele>49.756539</ele>
        <time>2024-07-04T10:24:19.314Z</time>
      </trkpt>
      <trkpt lat="52.06071" lon="4.22303">
        <ele>49.705477</ele>
        <time>2024-07-04T10:24:22.316Z</time>
      </trkpt>
      <trkpt lat="52.06062" lon="4.22318">
        <ele>49.650873</ele>
        <time>2024-07-04T10:24:25.297Z</time>
      </trkpt>
      <trkpt lat="52.06054" lon="4.22334">
        <ele>49.596843</ele>
        <time>2024-07-04T10:24:28.318Z</time>
      </trkpt>
      <trkpt lat="52.06045" lon="4.22348">
        <ele>49.541211</ele>
        <time>2024-07-04T10:24:31.298Z</time>
      </trkpt>
      <trkpt lat="52.06036" lon="4.22361">
        <ele>49.48845</ele>
        <time>2024-07-04T10:24:34.306Z</time>
      </trkpt>
      <trkpt lat="52.06027" lon="4.22373">
        <ele>49.439135</ele>
        <time>2024-07-04T10:24:37.309Z</time>
      </trkpt>
      <trkpt lat="52.0602" lon="4.22384">
        <ele>49.402599</ele>
        <time>2024-07-04T10:24:40.305Z</time>
      </trkpt>
      <trkpt lat="52.06013" lon="4.22397">
        <ele>49.50549</ele>
        <time>2024-07-04T10:24:43.308Z</time>
      </trkpt>
      <trkpt lat="52.06002" lon="4.22394">
        <ele>49.616842</ele>
        <time>2024-07-04T10:24:46.306Z</time>
      </trkpt>
      <trkpt lat="52.05997" lon="4.22381">
        <ele>49.709652</ele>
        <time>2024-07-04T10:24:50.308Z</time>
      </trkpt>
      <trkpt lat="52.0599" lon="4.22395">
        <ele>49.819095</ele>
        <time>2024-07-04T10:25:00.297Z</time>
      </trkpt>
      <trkpt lat="52.05982" lon="4.22403">
        <ele>49.915057</ele>
        <time>2024-07-04T10:25:03.306Z</time>
      </trkpt>
      <trkpt lat="52.05973" lon="4.22414">
        <ele>50.031961</ele>
        <time>2024-07-04T10:25:06.318Z</time>
      </trkpt>
      <trkpt lat="52.05964" lon="4.22426">
        <ele>50.148221</ele>
        <time>2024-07-04T10:25:09.318Z</time>
      </trkpt>
      <trkpt lat="52.05953" lon="4.22438">
        <ele>50.277847</ele>
        <time>2024-07-04T10:25:12.291Z</time>
      </trkpt>
      <trkpt lat="52.05944" lon="4.22452">
        <ele>50.398545</ele>
        <time>2024-07-04T10:25:15.319Z</time>
      </trkpt>
      <trkpt lat="52.05945" lon="4.2247">
        <ele>50.505774</ele>
        <time>2024-07-04T10:25:18.306Z</time>
      </trkpt>
      <trkpt lat="52.05953" lon="4.22485">
        <ele>50.624441</ele>
        <time>2024-07-04T10:25:21.321Z</time>
      </trkpt>
      <trkpt lat="52.0596" lon="4.22501">
        <ele>50.745135</ele>
        <time>2024-07-04T10:25:24.308Z</time>
      </trkpt>
      <trkpt lat="52.05967" lon="4.22515">
        <ele>50.862224</ele>
        <time>2024-07-04T10:25:27.321Z</time>
      </trkpt>
      <trkpt lat="52.05973" lon="4.22532">
        <ele>50.975493</ele>
        <time>2024-07-04T10:25:30.307Z</time>
      </trkpt>
      <trkpt lat="52.05976" lon="4.22548">
        <ele>51.08168</ele>
        <time>2024-07-04T10:25:33.325Z</time>
      </trkpt>
      <trkpt lat="52.05979" lon="4.22562">
        <ele>51.172758</ele>
        <time>2024-07-04T10:25:36.307Z</time>
      </trkpt>
      <trkpt lat="52.05971" lon="4.2257">
        <ele>51.193636</ele>
        <time>2024-07-04T10:25:41.311Z</time>
      </trkpt>
      <trkpt lat="52.05961" lon="4.22573">
        <ele>51.201542</ele>
        <time>2024-07-04T10:25:44.316Z</time>
      </trkpt>
      <trkpt lat="52.0595" lon="4.22576">
        <ele>51.209563</ele>
        <time>2024-07-04T10:25:47.319Z</time>
      </trkpt>
      <trkpt lat="52.05938" lon="4.22578">
        <ele>51.218955</ele>
        <time>2024-07-04T10:25:50.311Z</time>
      </trkpt>
      <trkpt lat="52.05929" lon="4.22581">
        <ele>51.225989</ele>
        <time>2024-07-04T10:25:52.313Z</time>
      </trkpt>
      <trkpt lat="52.0592" lon="4.22584">
        <ele>51.233089</ele>
        <time>2024-07-04T10:25:54.335Z</time>
      </trkpt>
      <trkpt lat="52.05907" lon="4.22587">
        <ele>51.242974</ele>
        <time>2024-07-04T10:25:57.317Z</time>
      </trkpt>
      <trkpt lat="52.05895" lon="4.22591">
        <ele>51.252122</ele>
        <time>2024-07-04T10:26:00.313Z</time>
      </trkpt>
      <trkpt lat="52.05884" lon="4.22593">
        <ele>51.260896</ele>
        <time>2024-07-04T10:26:03.318Z</time>
      </trkpt>
      <trkpt lat="52.05872" lon="4.22596">
        <ele>51.269521</ele>
        <time>2024-07-04T10:26:06.325Z</time>
      </trkpt>
      <trkpt lat="52.05861" lon="4.226">
        <ele>51.278318</ele>
        <time>2024-07-04T10:26:09.329Z</time>
      </trkpt>
      <trkpt lat="52.0585" lon="4.22603">
        <ele>51.287025</ele>
        <time>2024-07-04T10:26:12.321Z</time>
      </trkpt>
      <trkpt lat="52.05838" lon="4.22606">
        <ele>51.296032</ele>
        <time>2024-07-04T10:26:15.310Z</time>
      </trkpt>
      <trkpt lat="52.05827" lon="4.22609">
        <ele>51.304723</ele>
        <time>2024-07-04T10:26:18.310Z</time>
      </trkpt>
      <trkpt lat="52.05816" lon="4.22613">
        <ele>51.313304</ele>
        <time>2024-07-04T10:26:21.320Z</time>
      </trkpt>
      <trkpt lat="52.05805" lon="4.22616">
        <ele>51.321511</ele>
        <time>2024-07-04T10:26:24.297Z</time>
      </trkpt>
      <trkpt lat="52.05795" lon="4.22618">
        <ele>51.315954</ele>
        <time>2024-07-04T10:26:30.298Z</time>
      </trkpt>
      <trkpt lat="52.05786" lon="4.22623">
        <ele>51.303231</ele>
        <time>2024-07-04T10:26:36.315Z</time>
      </trkpt>
      <trkpt lat="52.05773" lon="4.22626">
        <ele>51.286489</ele>
        <time>2024-07-04T10:26:40.308Z</time>
      </trkpt>
      <trkpt lat="52.05762" lon="4.22628">
        <ele>51.271609</ele>
        <time>2024-07-04T10:26:43.309Z</time>
      </trkpt>
      <trkpt lat="52.05753" lon="4.22632">
        <ele>51.258314</ele>
        <time>2024-07-04T10:26:46.326Z</time>
      </trkpt>
      <trkpt lat="52.05743" lon="4.22635">
        <ele>51.245198</ele>
        <time>2024-07-04T10:26:49.331Z</time>
      </trkpt>
      <trkpt lat="52.05731" lon="4.22637">
        <ele>51.229529</ele>
        <time>2024-07-04T10:26:52.323Z</time>
      </trkpt>
      <trkpt lat="52.05721" lon="4.22641">
        <ele>51.215324</ele>
        <time>2024-07-04T10:26:55.292Z</time>
      </trkpt>
      <trkpt lat="52.05721" lon="4.22657">
        <ele>51.202353</ele>
        <time>2024-07-04T10:27:07.302Z</time>
      </trkpt>
      <trkpt lat="52.05726" lon="4.22673">
        <ele>51.18765</ele>
        <time>2024-07-04T10:27:11.308Z</time>
      </trkpt>
      <trkpt lat="52.05731" lon="4.22688">
        <ele>51.173564</ele>
        <time>2024-07-04T10:27:14.319Z</time>
      </trkpt>
      <trkpt lat="52.05736" lon="4.22705">
        <ele>51.158305</ele>
        <time>2024-07-04T10:27:17.320Z</time>
      </trkpt>
      <trkpt lat="52.05743" lon="4.22719">
        <ele>51.143305</ele>
        <time>2024-07-04T10:27:20.302Z</time>
      </trkpt>
      <trkpt lat="52.05749" lon="4.22737">
        <ele>51.126592</ele>
        <time>2024-07-04T10:27:23.304Z</time>
      </trkpt>
      <trkpt lat="52.05752" lon="4.22755">
        <ele>51.111384</ele>
        <time>2024-07-04T10:27:26.319Z</time>
      </trkpt>
      <trkpt lat="52.05755" lon="4.22773">
        <ele>51.09565</ele>
        <time>2024-07-04T10:27:29.313Z</time>
      </trkpt>
      <trkpt lat="52.05761" lon="4.22792">
        <ele>51.108006</ele>
        <time>2024-07-04T10:27:32.322Z</time>
      </trkpt>
      <trkpt lat="52.05769" lon="4.22809">
        <ele>51.161169</ele>
        <time>2024-07-04T10:27:35.307Z</time>
      </trkpt>
      <trkpt lat="52.05774" lon="4.22822">
        <ele>51.198806</ele>
        <time>2024-07-04T10:27:37.326Z</time>
      </trkpt>
      <trkpt lat="52.05777" lon="4.22836">
        <ele>51.235326</ele>
        <time>2024-07-04T10:27:39.302Z</time>
      </trkpt>
      <trkpt lat="52.05782" lon="4.22856">
        <ele>51.290646</ele>
        <time>2024-07-04T10:27:42.314Z</time>
      </trkpt>
      <trkpt lat="52.05785" lon="4.22871">
        <ele>51.327858</ele>
        <time>2024-07-04T10:27:44.314Z</time>
      </trkpt>
      <trkpt lat="52.05789" lon="4.22886">
        <ele>51.368377</ele>
        <time>2024-07-04T10:27:46.300Z</time>
      </trkpt>
      <trkpt lat="52.05792" lon="4.229">
        <ele>51.407064</ele>
        <time>2024-07-04T10:27:48.310Z</time>
      </trkpt>
      <trkpt lat="52.05796" lon="4.22914">
        <ele>51.445887</ele>
        <time>2024-07-04T10:27:50.311Z</time>
      </trkpt>
      <trkpt lat="52.058" lon="4.2293">
        <ele>51.487248</ele>
        <time>2024-07-04T10:27:52.304Z</time>
      </trkpt>
      <trkpt lat="52.05804" lon="4.22945">
        <ele>51.529438</ele>
        <time>2024-07-04T10:27:54.311Z</time>
      </trkpt>
      <trkpt lat="52.05808" lon="4.2296">
        <ele>51.568418</ele>
        <time>2024-07-04T10:27:56.308Z</time>
      </trkpt>
      <trkpt lat="52.05812" lon="4.22975">
        <ele>51.609493</ele>
        <time>2024-07-04T10:27:58.323Z</time>
      </trkpt>
      <trkpt lat="52.05815" lon="4.22989">
        <ele>51.64688</ele>
        <time>2024-07-04T10:28:00.309Z</time>
      </trkpt>
      <trkpt lat="52.05818" lon="4.23003">
        <ele>51.684341</ele>
        <time>2024-07-04T10:28:02.320Z</time>
      </trkpt>
      <trkpt lat="52.05819" lon="4.23019">
        <ele>51.723033</ele>
        <time>2024-07-04T10:28:04.313Z</time>
      </trkpt>
      <trkpt lat="52.05819" lon="4.23034">
        <ele>51.761667</ele>
        <time>2024-07-04T10:28:06.320Z</time>
      </trkpt>
      <trkpt lat="52.0582" lon="4.23052">
        <ele>51.804891</ele>
        <time>2024-07-04T10:28:08.321Z</time>
      </trkpt>
      <trkpt lat="52.05821" lon="4.23069">
        <ele>51.804537</ele>
        <time>2024-07-04T10:28:10.319Z</time>
      </trkpt>
      <trkpt lat="52.05823" lon="4.23085">
        <ele>51.793553</ele>
        <time>2024-07-04T10:28:12.326Z</time>
      </trkpt>
      <trkpt lat="52.05824" lon="4.23102">
        <ele>51.782427</ele>
        <time>2024-07-04T10:28:14.309Z</time>
      </trkpt>
      <trkpt lat="52.05824" lon="4.23119">
        <ele>51.771504</ele>
        <time>2024-07-04T10:28:16.311Z</time>
      </trkpt>
      <trkpt lat="52.05825" lon="4.23136">
        <ele>51.760827</ele>
        <time>2024-07-04T10:28:18.310Z</time>
      </trkpt>
      <trkpt lat="52.05826" lon="4.23152">
        <ele>51.750475</ele>
        <time>2024-07-04T10:28:20.306Z</time>
      </trkpt>
      <trkpt lat="52.05826" lon="4.23168">
        <ele>51.73994</ele>
        <time>2024-07-04T10:28:22.329Z</time>
      </trkpt>
      <trkpt lat="52.05826" lon="4.23184">
        <ele>51.729595</ele>
        <time>2024-07-04T10:28:24.290Z</time>
      </trkpt>
      <trkpt lat="52.05827" lon="4.23199">
        <ele>51.719816</ele>
        <time>2024-07-04T10:28:26.308Z</time>
      </trkpt>
      <trkpt lat="52.05828" lon="4.2322">
        <ele>51.706074</ele>
        <time>2024-07-04T10:28:29.319Z</time>
      </trkpt>
      <trkpt lat="52.05829" lon="4.23239">
        <ele>51.693439</ele>
        <time>2024-07-04T10:28:32.307Z</time>
      </trkpt>
      <trkpt lat="52.0583" lon="4.23256">
        <ele>51.682506</ele>
        <time>2024-07-04T10:28:35.318Z</time>
      </trkpt>
      <trkpt lat="52.05832" lon="4.23271">
        <ele>51.672326</ele>
        <time>2024-07-04T10:28:38.320Z</time>
      </trkpt>
      <trkpt lat="52.05823" lon="4.2328">
        <ele>51.660918</ele>
        <time>2024-07-04T10:28:42.302Z</time>
      </trkpt>
      <trkpt lat="52.05817" lon="4.23293">
        <ele>51.651094</ele>
        <time>2024-07-04T10:28:45.315Z</time>
      </trkpt>
      <trkpt lat="52.05818" lon="4.23309">
        <ele>51.64028</ele>
        <time>2024-07-04T10:28:48.307Z</time>
      </trkpt>
      <trkpt lat="52.0582" lon="4.23327">
        <ele>51.628244</ele>
        <time>2024-07-04T10:28:51.309Z</time>
      </trkpt>
      <trkpt lat="52.05821" lon="4.23345">
        <ele>51.648278</ele>
        <time>2024-07-04T10:28:54.313Z</time>
      </trkpt>
      <trkpt lat="52.05822" lon="4.23362">
        <ele>51.686443</ele>
        <time>2024-07-04T10:28:57.331Z</time>
      </trkpt>
      <trkpt lat="52.05824" lon="4.23377">
        <ele>51.723515</ele>
        <time>2024-07-04T10:29:00.308Z</time>
      </trkpt>
      <trkpt lat="52.05826" lon="4.23396">
        <ele>51.76774</ele>
        <time>2024-07-04T10:29:04.318Z</time>
      </trkpt>
      <trkpt lat="52.05829" lon="4.23412">
        <ele>51.806564</ele>
        <time>2024-07-04T10:29:07.319Z</time>
      </trkpt>
      <trkpt lat="52.05829" lon="4.23429">
        <ele>51.846178</ele>
        <time>2024-07-04T10:29:10.301Z</time>
      </trkpt>
      <trkpt lat="52.05831" lon="4.23448">
        <ele>51.893074</ele>
        <time>2024-07-04T10:29:13.320Z</time>
      </trkpt>
      <trkpt lat="52.05833" lon="4.23467">
        <ele>51.93825</ele>
        <time>2024-07-04T10:29:16.321Z</time>
      </trkpt>
      <trkpt lat="52.05835" lon="4.23489">
        <ele>51.988421</ele>
        <time>2024-07-04T10:29:19.323Z</time>
      </trkpt>
      <trkpt lat="52.0584" lon="4.23508">
        <ele>52.037672</ele>
        <time>2024-07-04T10:29:22.306Z</time>
      </trkpt>
      <trkpt lat="52.05847" lon="4.23525">
        <ele>52.084926</ele>
        <time>2024-07-04T10:29:25.293Z</time>
      </trkpt>
      <trkpt lat="52.05852" lon="4.23541">
        <ele>52.127997</ele>
        <time>2024-07-04T10:29:28.315Z</time>
      </trkpt>
      <trkpt lat="52.05861" lon="4.2355">
        <ele>52.168326</ele>
        <time>2024-07-04T10:29:31.311Z</time>
      </trkpt>
      <trkpt lat="52.05867" lon="4.23562">
        <ele>52.2041</ele>
        <time>2024-07-04T10:29:34.320Z</time>
      </trkpt>
      <trkpt lat="52.05867" lon="4.23579">
        <ele>52.243898</ele>
        <time>2024-07-04T10:29:37.309Z</time>
      </trkpt>
      <trkpt lat="52.05867" lon="4.23596">
        <ele>52.283943</ele>
        <time>2024-07-04T10:29:40.315Z</time>
      </trkpt>
      <trkpt lat="52.0587" lon="4.23615">
        <ele>52.22623</ele>
        <time>2024-07-04T10:29:43.313Z</time>
      </trkpt>
      <trkpt lat="52.05874" lon="4.23631">
        <ele>52.05344</ele>
        <time>2024-07-04T10:29:46.312Z</time>
      </trkpt>
      <trkpt lat="52.0588" lon="4.23647">
        <ele>51.870637</ele>
        <time>2024-07-04T10:29:49.318Z</time>
      </trkpt>
      <trkpt lat="52.05885" lon="4.2366">
        <ele>51.725563</ele>
        <time>2024-07-04T10:29:51.323Z</time>
      </trkpt>
      <trkpt lat="52.0589" lon="4.23679">
        <ele>51.526344</ele>
        <time>2024-07-04T10:29:54.309Z</time>
      </trkpt>
      <trkpt lat="52.05896" lon="4.23697">
        <ele>51.335805</ele>
        <time>2024-07-04T10:29:57.288Z</time>
      </trkpt>
      <trkpt lat="52.05903" lon="4.23715">
        <ele>51.129255</ele>
        <time>2024-07-04T10:30:00.307Z</time>
      </trkpt>
      <trkpt lat="52.05909" lon="4.23733">
        <ele>50.927381</ele>
        <time>2024-07-04T10:30:03.299Z</time>
      </trkpt>
      <trkpt lat="52.05917" lon="4.23749">
        <ele>50.733675</ele>
        <time>2024-07-04T10:30:06.306Z</time>
      </trkpt>
      <trkpt lat="52.05923" lon="4.23766">
        <ele>50.544935</ele>
        <time>2024-07-04T10:30:09.339Z</time>
      </trkpt>
      <trkpt lat="52.05928" lon="4.23786">
        <ele>50.337505</ele>
        <time>2024-07-04T10:30:12.303Z</time>
      </trkpt>
      <trkpt lat="52.05931" lon="4.23807">
        <ele>50.129896</ele>
        <time>2024-07-04T10:30:15.303Z</time>
      </trkpt>
      <trkpt lat="52.05936" lon="4.23825">
        <ele>49.935817</ele>
        <time>2024-07-04T10:30:18.293Z</time>
      </trkpt>
      <trkpt lat="52.05934" lon="4.23845">
        <ele>49.742515</ele>
        <time>2024-07-04T10:30:21.307Z</time>
      </trkpt>
      <trkpt lat="52.05925" lon="4.23859">
        <ele>49.550424</ele>
        <time>2024-07-04T10:30:24.321Z</time>
      </trkpt>
      <trkpt lat="52.05917" lon="4.23871">
        <ele>49.362277</ele>
        <time>2024-07-04T10:30:27.320Z</time>
      </trkpt>
      <trkpt lat="52.05908" lon="4.23881">
        <ele>49.187543</ele>
        <time>2024-07-04T10:30:30.301Z</time>
      </trkpt>
      <trkpt lat="52.05904" lon="4.23896">
        <ele>49.014922</ele>
        <time>2024-07-04T10:30:33.311Z</time>
      </trkpt>
      <trkpt lat="52.05907" lon="4.23915">
        <ele>48.810629</ele>
        <time>2024-07-04T10:30:36.289Z</time>
      </trkpt>
      <trkpt lat="52.05913" lon="4.23933">
        <ele>48.59343</ele>
        <time>2024-07-04T10:30:39.303Z</time>
      </trkpt>
      <trkpt lat="52.05918" lon="4.23947">
        <ele>48.431721</ele>
        <time>2024-07-04T10:30:41.318Z</time>
      </trkpt>
      <trkpt lat="52.05923" lon="4.23963">
        <ele>48.234983</ele>
        <time>2024-07-04T10:30:44.316Z</time>
      </trkpt>
      <trkpt lat="52.05928" lon="4.23979">
        <ele>48.045222</ele>
        <time>2024-07-04T10:30:47.316Z</time>
      </trkpt>
      <trkpt lat="52.05933" lon="4.23997">
        <ele>47.842326</ele>
        <time>2024-07-04T10:30:50.312Z</time>
      </trkpt>
      <trkpt lat="52.05937" lon="4.24011">
        <ele>47.67875</ele>
        <time>2024-07-04T10:30:52.334Z</time>
      </trkpt>
      <trkpt lat="52.05942" lon="4.24024">
        <ele>47.521513</ele>
        <time>2024-07-04T10:30:54.322Z</time>
      </trkpt>
      <trkpt lat="52.05948" lon="4.24043">
        <ele>47.293274</ele>
        <time>2024-07-04T10:30:57.326Z</time>
      </trkpt>
      <trkpt lat="52.05953" lon="4.24057">
        <ele>47.12599</ele>
        <time>2024-07-04T10:30:59.305Z</time>
      </trkpt>
      <trkpt lat="52.05958" lon="4.2407">
        <ele>46.968688</ele>
        <time>2024-07-04T10:31:01.322Z</time>
      </trkpt>
      <trkpt lat="52.05961" lon="4.24084">
        <ele>46.809541</ele>
        <time>2024-07-04T10:31:03.315Z</time>
      </trkpt>
      <trkpt lat="52.05963" lon="4.24102">
        <ele>46.613987</ele>
        <time>2024-07-04T10:31:06.346Z</time>
      </trkpt>
      <trkpt lat="52.05957" lon="4.24118">
        <ele>46.4346</ele>
        <time>2024-07-04T10:31:09.319Z</time>
      </trkpt>
      <trkpt lat="52.05959" lon="4.24136">
        <ele>46.570978</ele>
        <time>2024-07-04T10:31:12.314Z</time>
      </trkpt>
      <trkpt lat="52.05965" lon="4.24154">
        <ele>46.724139</ele>
        <time>2024-07-04T10:31:15.341Z</time>
      </trkpt>
      <trkpt lat="52.0597" lon="4.24172">
        <ele>46.875781</ele>
        <time>2024-07-04T10:31:18.355Z</time>
      </trkpt>
      <trkpt lat="52.05977" lon="4.24187">
        <ele>47.014051</ele>
        <time>2024-07-04T10:31:21.337Z</time>
      </trkpt>
      <trkpt lat="52.05982" lon="4.242">
        <ele>47.128809</ele>
        <time>2024-07-04T10:31:24.336Z</time>
      </trkpt>
      <trkpt lat="52.05986" lon="4.24215">
        <ele>47.255088</ele>
        <time>2024-07-04T10:31:27.328Z</time>
      </trkpt>
      <trkpt lat="52.05992" lon="4.2423">
        <ele>47.38324</ele>
        <time>2024-07-04T10:31:30.333Z</time>
      </trkpt>
      <trkpt lat="52.05998" lon="4.24246">
        <ele>47.522224</ele>
        <time>2024-07-04T10:31:33.344Z</time>
      </trkpt>
      <trkpt lat="52.06002" lon="4.24259">
        <ele>47.638285</ele>
        <time>2024-07-04T10:31:35.335Z</time>
      </trkpt>
      <trkpt lat="52.06007" lon="4.24272">
        <ele>47.75177</ele>
        <time>2024-07-04T10:31:37.284Z</time>
      </trkpt>
      <trkpt lat="52.06014" lon="4.2429">
        <ele>47.904181</ele>
        <time>2024-07-04T10:31:40.298Z</time>
      </trkpt>
      <trkpt lat="52.06019" lon="4.24308">
        <ele>48.056923</ele>
        <time>2024-07-04T10:31:43.314Z</time>
      </trkpt>
      <trkpt lat="52.06022" lon="4.24325">
        <ele>48.19038</ele>
        <time>2024-07-04T10:31:46.319Z</time>
      </trkpt>
      <trkpt lat="52.06027" lon="4.24342">
        <ele>48.323808</ele>
        <time>2024-07-04T10:31:49.321Z</time>
      </trkpt>
      <trkpt lat="52.06035" lon="4.24355">
        <ele>48.460599</ele>
        <time>2024-07-04T10:31:52.301Z</time>
      </trkpt>
      <trkpt lat="52.06042" lon="4.24372">
        <ele>48.613229</ele>
        <time>2024-07-04T10:31:55.319Z</time>
      </trkpt>
      <trkpt lat="52.06048" lon="4.24391">
        <ele>48.529575</ele>
        <time>2024-07-04T10:31:58.304Z</time>
      </trkpt>
      <trkpt lat="52.06052" lon="4.24409">
        <ele>48.453576</ele>
        <time>2024-07-04T10:32:01.322Z</time>
      </trkpt>
      <trkpt lat="52.06054" lon="4.24426">
        <ele>48.386674</ele>
        <time>2024-07-04T10:32:04.308Z</time>
      </trkpt>
      <trkpt lat="52.0605" lon="4.24445">
        <ele>48.311657</ele>
        <time>2024-07-04T10:32:07.313Z</time>
      </trkpt>
      <trkpt lat="52.06046" lon="4.24462">
        <ele>48.239682</ele>
        <time>2024-07-04T10:32:10.305Z</time>
      </trkpt>
      <trkpt lat="52.06046" lon="4.24479">
        <ele>48.172311</ele>
        <time>2024-07-04T10:32:13.311Z</time>
      </trkpt>
      <trkpt lat="52.06048" lon="4.24501">
        <ele>48.084152</ele>
        <time>2024-07-04T10:32:16.294Z</time>
      </trkpt>
      <trkpt lat="52.06052" lon="4.24518">
        <ele>48.014127</ele>
        <time>2024-07-04T10:32:19.323Z</time>
      </trkpt>
      <trkpt lat="52.06058" lon="4.2453">
        <ele>47.955842</ele>
        <time>2024-07-04T10:32:21.328Z</time>
      </trkpt>
      <trkpt lat="52.06067" lon="4.24544">
        <ele>47.877778</ele>
        <time>2024-07-04T10:32:24.304Z</time>
      </trkpt>
      <trkpt lat="52.06077" lon="4.24557">
        <ele>47.796104</ele>
        <time>2024-07-04T10:32:27.316Z</time>
      </trkpt>
      <trkpt lat="52.06087" lon="4.24566">
        <ele>47.722792</ele>
        <time>2024-07-04T10:32:30.301Z</time>
      </trkpt>
      <trkpt lat="52.06097" lon="4.2458">
        <ele>47.636991</ele>
        <time>2024-07-04T10:32:33.294Z</time>
      </trkpt>
      <trkpt lat="52.06105" lon="4.24595">
        <ele>47.561082</ele>
        <time>2024-07-04T10:32:36.296Z</time>
      </trkpt>
      <trkpt lat="52.0611" lon="4.24608">
        <ele>47.502612</ele>
        <time>2024-07-04T10:32:39.318Z</time>
      </trkpt>
      <trkpt lat="52.06113" lon="4.24632">
        <ele>47.541919</ele>
        <time>2024-07-04T10:33:46.311Z</time>
      </trkpt>
      <trkpt lat="52.06121" lon="4.24644">
        <ele>47.609863</ele>
        <time>2024-07-04T10:33:50.326Z</time>
      </trkpt>
      <trkpt lat="52.06125" lon="4.24659">
        <ele>47.673243</ele>
        <time>2024-07-04T10:33:53.324Z</time>
      </trkpt>
      <trkpt lat="52.06128" lon="4.24677">
        <ele>47.745752</ele>
        <time>2024-07-04T10:33:56.303Z</time>
      </trkpt>
      <trkpt lat="52.06133" lon="4.24696">
        <ele>47.826554</ele>
        <time>2024-07-04T10:33:59.311Z</time>
      </trkpt>
      <trkpt lat="52.06139" lon="4.24715">
        <ele>47.906374</ele>
        <time>2024-07-04T10:34:02.329Z</time>
      </trkpt>
      <trkpt lat="52.06144" lon="4.24727">
        <ele>47.964286</ele>
        <time>2024-07-04T10:34:04.301Z</time>
      </trkpt>
      <trkpt lat="52.06151" lon="4.24745">
        <ele>48.046841</ele>
        <time>2024-07-04T10:34:07.316Z</time>
      </trkpt>
      <trkpt lat="52.06158" lon="4.24763">
        <ele>48.130374</ele>
        <time>2024-07-04T10:34:10.311Z</time>
      </trkpt>
      <trkpt lat="52.06166" lon="4.24781">
        <ele>48.215022</ele>
        <time>2024-07-04T10:34:13.317Z</time>
      </trkpt>
      <trkpt lat="52.06173" lon="4.24799">
        <ele>48.295594</ele>
        <time>2024-07-04T10:34:16.327Z</time>
      </trkpt>
      <trkpt lat="52.06179" lon="4.24816">
        <ele>48.372895</ele>
        <time>2024-07-04T10:34:19.322Z</time>
      </trkpt>
      <trkpt lat="52.06186" lon="4.24833">
        <ele>48.452228</ele>
        <time>2024-07-04T10:34:22.304Z</time>
      </trkpt>
      <trkpt lat="52.06194" lon="4.24851">
        <ele>48.536838</ele>
        <time>2024-07-04T10:34:25.327Z</time>
      </trkpt>
      <trkpt lat="52.06199" lon="4.24864">
        <ele>48.597681</ele>
        <time>2024-07-04T10:34:27.308Z</time>
      </trkpt>
      <trkpt lat="52.06205" lon="4.24877">
        <ele>48.541497</ele>
        <time>2024-07-04T10:34:29.321Z</time>
      </trkpt>
      <trkpt lat="52.06212" lon="4.2489">
        <ele>48.46234</ele>
        <time>2024-07-04T10:34:31.308Z</time>
      </trkpt>
      <trkpt lat="52.06218" lon="4.24902">
        <ele>48.387776</ele>
        <time>2024-07-04T10:34:33.313Z</time>
      </trkpt>
      <trkpt lat="52.06224" lon="4.24915">
        <ele>48.314778</ele>
        <time>2024-07-04T10:34:35.296Z</time>
      </trkpt>
      <trkpt lat="52.06229" lon="4.24928">
        <ele>48.243209</ele>
        <time>2024-07-04T10:34:37.312Z</time>
      </trkpt>
      <trkpt lat="52.06234" lon="4.2494">
        <ele>48.174022</ele>
        <time>2024-07-04T10:34:39.319Z</time>
      </trkpt>
      <trkpt lat="52.06242" lon="4.24958">
        <ele>48.070045</ele>
        <time>2024-07-04T10:34:42.307Z</time>
      </trkpt>
      <trkpt lat="52.06248" lon="4.24972">
        <ele>47.992038</ele>
        <time>2024-07-04T10:34:44.317Z</time>
      </trkpt>
      <trkpt lat="52.06255" lon="4.24984">
        <ele>47.918751</ele>
        <time>2024-07-04T10:34:46.303Z</time>
      </trkpt>
      <trkpt lat="52.0626" lon="4.24996">
        <ele>47.850159</ele>
        <time>2024-07-04T10:34:48.323Z</time>
      </trkpt>
      <trkpt lat="52.06267" lon="4.25008">
        <ele>47.773948</ele>
        <time>2024-07-04T10:34:50.325Z</time>
      </trkpt>
      <trkpt lat="52.06275" lon="4.25021">
        <ele>47.689947</ele>
        <time>2024-07-04T10:34:52.317Z</time>
      </trkpt>
      <trkpt lat="52.06282" lon="4.25034">
        <ele>47.609656</ele>
        <time>2024-07-04T10:34:54.310Z</time>
      </trkpt>
      <trkpt lat="52.06288" lon="4.25046">
        <ele>47.535534</ele>
        <time>2024-07-04T10:34:56.311Z</time>
      </trkpt>
      <trkpt lat="52.06295" lon="4.25058">
        <ele>47.46151</ele>
        <time>2024-07-04T10:34:58.356Z</time>
      </trkpt>
      <trkpt lat="52.06302" lon="4.25071">
        <ele>47.379319</ele>
        <time>2024-07-04T10:35:00.294Z</time>
      </trkpt>
      <trkpt lat="52.06309" lon="4.25082">
        <ele>47.306874</ele>
        <time>2024-07-04T10:35:02.317Z</time>
      </trkpt>
      <trkpt lat="52.06314" lon="4.25095">
        <ele>47.269799</ele>
        <time>2024-07-04T10:35:04.327Z</time>
      </trkpt>
      <trkpt lat="52.06321" lon="4.25108">
        <ele>47.381031</ele>
        <time>2024-07-04T10:35:06.315Z</time>
      </trkpt>
      <trkpt lat="52.06327" lon="4.25119">
        <ele>47.488973</ele>
        <time>2024-07-04T10:35:08.318Z</time>
      </trkpt>
      <trkpt lat="52.06334" lon="4.2513">
        <ele>47.58973</ele>
        <time>2024-07-04T10:35:10.308Z</time>
      </trkpt>
      <trkpt lat="52.06341" lon="4.25141">
        <ele>47.695834</ele>
        <time>2024-07-04T10:35:12.322Z</time>
      </trkpt>
      <trkpt lat="52.06348" lon="4.25151">
        <ele>47.800273</ele>
        <time>2024-07-04T10:35:14.297Z</time>
      </trkpt>
      <trkpt lat="52.06355" lon="4.2516">
        <ele>47.900598</ele>
        <time>2024-07-04T10:35:16.300Z</time>
      </trkpt>
      <trkpt lat="52.06363" lon="4.25168">
        <ele>48.002341</ele>
        <time>2024-07-04T10:35:18.296Z</time>
      </trkpt>
      <trkpt lat="52.06371" lon="4.25178">
        <ele>48.116107</ele>
        <time>2024-07-04T10:35:20.290Z</time>
      </trkpt>
      <trkpt lat="52.06379" lon="4.25187">
        <ele>48.223514</ele>
        <time>2024-07-04T10:35:22.315Z</time>
      </trkpt>
      <trkpt lat="52.06387" lon="4.25198">
        <ele>48.338743</ele>
        <time>2024-07-04T10:35:24.316Z</time>
      </trkpt>
      <trkpt lat="52.06395" lon="4.25207">
        <ele>48.445528</ele>
        <time>2024-07-04T10:35:26.320Z</time>
      </trkpt>
      <trkpt lat="52.06403" lon="4.25215">
        <ele>48.546753</ele>
        <time>2024-07-04T10:35:28.302Z</time>
      </trkpt>
      <trkpt lat="52.06412" lon="4.25226">
        <ele>48.67566</ele>
        <time>2024-07-04T10:35:31.313Z</time>
      </trkpt>
      <trkpt lat="52.06421" lon="4.25233">
        <ele>48.779467</ele>
        <time>2024-07-04T10:35:33.315Z</time>
      </trkpt>
      <trkpt lat="52.06432" lon="4.25243">
        <ele>48.917229</ele>
        <time>2024-07-04T10:35:36.318Z</time>
      </trkpt>
      <trkpt lat="52.06442" lon="4.25251">
        <ele>49.043138</ele>
        <time>2024-07-04T10:35:39.314Z</time>
      </trkpt>
      <trkpt lat="52.06447" lon="4.25266">
        <ele>49.158332</ele>
        <time>2024-07-04T10:35:43.292Z</time>
      </trkpt>
      <trkpt lat="52.06444" lon="4.25281">
        <ele>49.276889</ele>
        <time>2024-07-04T10:35:46.307Z</time>
      </trkpt>
      <trkpt lat="52.06441" lon="4.25298">
        <ele>49.450466</ele>
        <time>2024-07-04T10:35:49.323Z</time>
      </trkpt>
      <trkpt lat="52.06439" lon="4.25316">
        <ele>49.631369</ele>
        <time>2024-07-04T10:35:52.312Z</time>
      </trkpt>
      <trkpt lat="52.06435" lon="4.25334">
        <ele>49.820353</ele>
        <time>2024-07-04T10:35:55.311Z</time>
      </trkpt>
      <trkpt lat="52.06431" lon="4.25352">
        <ele>50.001451</ele>
        <time>2024-07-04T10:35:58.288Z</time>
      </trkpt>
      <trkpt lat="52.06427" lon="4.25371">
        <ele>50.196478</ele>
        <time>2024-07-04T10:36:01.309Z</time>
      </trkpt>
      <trkpt lat="52.06425" lon="4.25386">
        <ele>50.350059</ele>
        <time>2024-07-04T10:36:03.285Z</time>
      </trkpt>
      <trkpt lat="52.06422" lon="4.254">
        <ele>50.494409</ele>
        <time>2024-07-04T10:36:05.310Z</time>
      </trkpt>
      <trkpt lat="52.06419" lon="4.25414">
        <ele>50.637668</ele>
        <time>2024-07-04T10:36:07.292Z</time>
      </trkpt>
      <trkpt lat="52.06415" lon="4.25435">
        <ele>50.85502</ele>
        <time>2024-07-04T10:36:10.309Z</time>
      </trkpt>
      <trkpt lat="52.06411" lon="4.25449">
        <ele>51.002012</ele>
        <time>2024-07-04T10:36:12.301Z</time>
      </trkpt>
      <trkpt lat="52.06408" lon="4.25464">
        <ele>51.151386</ele>
        <time>2024-07-04T10:36:14.314Z</time>
      </trkpt>
      <trkpt lat="52.06405" lon="4.25478">
        <ele>51.299935</ele>
        <time>2024-07-04T10:36:16.306Z</time>
      </trkpt>
      <trkpt lat="52.06402" lon="4.25492">
        <ele>51.446828</ele>
        <time>2024-07-04T10:36:18.320Z</time>
      </trkpt>
      <trkpt lat="52.06398" lon="4.25508">
        <ele>51.61157</ele>
        <time>2024-07-04T10:36:20.321Z</time>
      </trkpt>
      <trkpt lat="52.06395" lon="4.25523">
        <ele>51.764424</ele>
        <time>2024-07-04T10:36:22.307Z</time>
      </trkpt>
      <trkpt lat="52.06392" lon="4.25537">
        <ele>51.911535</ele>
        <time>2024-07-04T10:36:24.326Z</time>
      </trkpt>
      <trkpt lat="52.06389" lon="4.25552">
        <ele>52.060034</ele>
        <time>2024-07-04T10:36:26.330Z</time>
      </trkpt>
      <trkpt lat="52.06386" lon="4.25567">
        <ele>52.138484</ele>
        <time>2024-07-04T10:36:28.300Z</time>
      </trkpt>
      <trkpt lat="52.06383" lon="4.25582">
        <ele>52.204385</ele>
        <time>2024-07-04T10:36:30.292Z</time>
      </trkpt>
      <trkpt lat="52.0638" lon="4.25597">
        <ele>52.269511</ele>
        <time>2024-07-04T10:36:32.308Z</time>
      </trkpt>
      <trkpt lat="52.06377" lon="4.25612">
        <ele>52.336402</ele>
        <time>2024-07-04T10:36:34.314Z</time>
      </trkpt>
      <trkpt lat="52.06374" lon="4.25628">
        <ele>52.403887</ele>
        <time>2024-07-04T10:36:36.310Z</time>
      </trkpt>
      <trkpt lat="52.06371" lon="4.25642">
        <ele>52.465399</ele>
        <time>2024-07-04T10:36:38.306Z</time>
      </trkpt>
      <trkpt lat="52.06367" lon="4.25662">
        <ele>52.554891</ele>
        <time>2024-07-04T10:36:41.315Z</time>
      </trkpt>
      <trkpt lat="52.06363" lon="4.25677">
        <ele>52.622888</ele>
        <time>2024-07-04T10:36:43.309Z</time>
      </trkpt>
      <trkpt lat="52.0636" lon="4.25692">
        <ele>52.687252</ele>
        <time>2024-07-04T10:36:45.316Z</time>
      </trkpt>
      <trkpt lat="52.06357" lon="4.25706">
        <ele>52.749765</ele>
        <time>2024-07-04T10:36:47.307Z</time>
      </trkpt>
      <trkpt lat="52.06355" lon="4.2572">
        <ele>52.810681</ele>
        <time>2024-07-04T10:36:49.328Z</time>
      </trkpt>
      <trkpt lat="52.0635" lon="4.25741">
        <ele>52.902134</ele>
        <time>2024-07-04T10:36:52.311Z</time>
      </trkpt>
      <trkpt lat="52.06347" lon="4.25756">
        <ele>52.968252</ele>
        <time>2024-07-04T10:36:54.306Z</time>
      </trkpt>
      <trkpt lat="52.06344" lon="4.25772">
        <ele>53.037657</ele>
        <time>2024-07-04T10:36:56.306Z</time>
      </trkpt>
      <trkpt lat="52.0634" lon="4.25786">
        <ele>53.101251</ele>
        <time>2024-07-04T10:36:58.334Z</time>
      </trkpt>
      <trkpt lat="52.06337" lon="4.258">
        <ele>53.166001</ele>
        <time>2024-07-04T10:37:00.310Z</time>
      </trkpt>
      <trkpt lat="52.06333" lon="4.25814">
        <ele>53.228605</ele>
        <time>2024-07-04T10:37:02.310Z</time>
      </trkpt>
      <trkpt lat="52.06329" lon="4.25834">
        <ele>53.294431</ele>
        <time>2024-07-04T10:37:05.304Z</time>
      </trkpt>
      <trkpt lat="52.06324" lon="4.25848">
        <ele>53.278627</ele>
        <time>2024-07-04T10:37:07.294Z</time>
      </trkpt>
      <trkpt lat="52.06319" lon="4.25861">
        <ele>53.263187</ele>
        <time>2024-07-04T10:37:09.317Z</time>
      </trkpt>
      <trkpt lat="52.06314" lon="4.25873">
        <ele>53.247363</ele>
        <time>2024-07-04T10:37:11.344Z</time>
      </trkpt>
      <trkpt lat="52.06305" lon="4.25888">
        <ele>53.226544</ele>
        <time>2024-07-04T10:37:14.314Z</time>
      </trkpt>
      <trkpt lat="52.06295" lon="4.25901">
        <ele>53.205087</ele>
        <time>2024-07-04T10:37:17.295Z</time>
      </trkpt>
      <trkpt lat="52.06287" lon="4.25911">
        <ele>53.188547</ele>
        <time>2024-07-04T10:37:20.298Z</time>
      </trkpt>
      <trkpt lat="52.06279" lon="4.25919">
        <ele>53.172733</ele>
        <time>2024-07-04T10:37:28.307Z</time>
      </trkpt>
      <trkpt lat="52.06271" lon="4.25929">
        <ele>53.155482</ele>
        <time>2024-07-04T10:37:35.317Z</time>
      </trkpt>
      <trkpt lat="52.06262" lon="4.2594">
        <ele>53.137244</ele>
        <time>2024-07-04T10:37:39.318Z</time>
      </trkpt>
      <trkpt lat="52.06253" lon="4.25952">
        <ele>53.117474</ele>
        <time>2024-07-04T10:37:43.324Z</time>
      </trkpt>
      <trkpt lat="52.06253" lon="4.25976">
        <ele>53.093001</ele>
        <time>2024-07-04T10:38:04.325Z</time>
      </trkpt>
      <trkpt lat="52.06259" lon="4.25989">
        <ele>53.075419</ele>
        <time>2024-07-04T10:38:07.319Z</time>
      </trkpt>
      <trkpt lat="52.06265" lon="4.26004">
        <ele>53.057188</ele>
        <time>2024-07-04T10:38:10.317Z</time>
      </trkpt>
      <trkpt lat="52.06275" lon="4.26016">
        <ele>53.036438</ele>
        <time>2024-07-04T10:38:13.298Z</time>
      </trkpt>
      <trkpt lat="52.06282" lon="4.26033">
        <ele>53.015572</ele>
        <time>2024-07-04T10:38:16.295Z</time>
      </trkpt>
      <trkpt lat="52.06288" lon="4.2605">
        <ele>53.033894</ele>
        <time>2024-07-04T10:38:19.279Z</time>
      </trkpt>
      <trkpt lat="52.06294" lon="4.26067">
        <ele>53.194592</ele>
        <time>2024-07-04T10:38:22.309Z</time>
      </trkpt>
      <trkpt lat="52.06302" lon="4.26086">
        <ele>53.379568</ele>
        <time>2024-07-04T10:38:25.313Z</time>
      </trkpt>
      <trkpt lat="52.06308" lon="4.261">
        <ele>53.518022</ele>
        <time>2024-07-04T10:38:27.307Z</time>
      </trkpt>
      <trkpt lat="52.06314" lon="4.26115">
        <ele>53.662212</ele>
        <time>2024-07-04T10:38:29.320Z</time>
      </trkpt>
      <trkpt lat="52.0632" lon="4.26129">
        <ele>53.800889</ele>
        <time>2024-07-04T10:38:31.316Z</time>
      </trkpt>
      <trkpt lat="52.06326" lon="4.26143">
        <ele>53.942918</ele>
        <time>2024-07-04T10:38:33.306Z</time>
      </trkpt>
      <trkpt lat="52.06332" lon="4.26157">
        <ele>54.0839</ele>
        <time>2024-07-04T10:38:35.299Z</time>
      </trkpt>
      <trkpt lat="52.06338" lon="4.26171">
        <ele>54.216179</ele>
        <time>2024-07-04T10:38:37.308Z</time>
      </trkpt>
      <trkpt lat="52.06343" lon="4.26184">
        <ele>54.347842</ele>
        <time>2024-07-04T10:38:39.306Z</time>
      </trkpt>
      <trkpt lat="52.06349" lon="4.26198">
        <ele>54.480082</ele>
        <time>2024-07-04T10:38:41.320Z</time>
      </trkpt>
      <trkpt lat="52.06353" lon="4.26211">
        <ele>54.601967</ele>
        <time>2024-07-04T10:38:43.301Z</time>
      </trkpt>
      <trkpt lat="52.06358" lon="4.26224">
        <ele>54.723829</ele>
        <time>2024-07-04T10:38:45.326Z</time>
      </trkpt>
      <trkpt lat="52.06363" lon="4.26237">
        <ele>54.849857</ele>
        <time>2024-07-04T10:38:47.315Z</time>
      </trkpt>
      <trkpt lat="52.06368" lon="4.26249">
        <ele>54.968954</ele>
        <time>2024-07-04T10:38:49.312Z</time>
      </trkpt>
      <trkpt lat="52.06376" lon="4.26268">
        <ele>55.151011</ele>
        <time>2024-07-04T10:38:52.284Z</time>
      </trkpt>
      <trkpt lat="52.06381" lon="4.26283">
        <ele>55.290843</ele>
        <time>2024-07-04T10:38:54.307Z</time>
      </trkpt>
      <trkpt lat="52.06387" lon="4.26295">
        <ele>55.404903</ele>
        <time>2024-07-04T10:38:57.309Z</time>
      </trkpt>
      <trkpt lat="52.06393" lon="4.26308">
        <ele>55.507792</ele>
        <time>2024-07-04T10:39:00.308Z</time>
      </trkpt>
      <trkpt lat="52.06399" lon="4.26324">
        <ele>55.629629</ele>
        <time>2024-07-04T10:39:03.297Z</time>
      </trkpt>
      <trkpt lat="52.06406" lon="4.26339">
        <ele>55.746742</ele>
        <time>2024-07-04T10:39:06.327Z</time>
      </trkpt>
      <trkpt lat="52.06411" lon="4.26352">
        <ele>55.838784</ele>
        <time>2024-07-04T10:39:08.299Z</time>
      </trkpt>
      <trkpt lat="52.06416" lon="4.26365">
        <ele>55.936763</ele>
        <time>2024-07-04T10:39:10.313Z</time>
      </trkpt>
      <trkpt lat="52.06421" lon="4.26379">
        <ele>56.034671</ele>
        <time>2024-07-04T10:39:12.318Z</time>
      </trkpt>
      <trkpt lat="52.06427" lon="4.26392">
        <ele>56.134901</ele>
        <time>2024-07-04T10:39:14.301Z</time>
      </trkpt>
      <trkpt lat="52.06433" lon="4.26405">
        <ele>56.238429</ele>
        <time>2024-07-04T10:39:16.303Z</time>
      </trkpt>
      <trkpt lat="52.06438" lon="4.2642">
        <ele>56.343894</ele>
        <time>2024-07-04T10:39:18.310Z</time>
      </trkpt>
      <trkpt lat="52.06442" lon="4.26433">
        <ele>56.439125</ele>
        <time>2024-07-04T10:39:20.304Z</time>
      </trkpt>
      <trkpt lat="52.06448" lon="4.26445">
        <ele>56.531107</ele>
        <time>2024-07-04T10:39:22.320Z</time>
      </trkpt>
      <trkpt lat="52.06454" lon="4.26458">
        <ele>56.632296</ele>
        <time>2024-07-04T10:39:24.314Z</time>
      </trkpt>
      <trkpt lat="52.06458" lon="4.26473">
        <ele>56.732835</ele>
        <time>2024-07-04T10:39:26.312Z</time>
      </trkpt>
      <trkpt lat="52.06465" lon="4.26491">
        <ele>56.869627</ele>
        <time>2024-07-04T10:39:29.289Z</time>
      </trkpt>
      <trkpt lat="52.06471" lon="4.26503">
        <ele>56.967929</ele>
        <time>2024-07-04T10:39:31.289Z</time>
      </trkpt>
      <trkpt lat="52.06476" lon="4.26517">
        <ele>57.068513</ele>
        <time>2024-07-04T10:39:33.328Z</time>
      </trkpt>
      <trkpt lat="52.06482" lon="4.26529">
        <ele>57.164004</ele>
        <time>2024-07-04T10:39:35.308Z</time>
      </trkpt>
      <trkpt lat="52.06488" lon="4.26541">
        <ele>57.106676</ele>
        <time>2024-07-04T10:39:37.298Z</time>
      </trkpt>
      <trkpt lat="52.06494" lon="4.26553">
        <ele>56.919484</ele>
        <time>2024-07-04T10:39:39.322Z</time>
      </trkpt>
      <trkpt lat="52.06499" lon="4.26566">
        <ele>56.730284</ele>
        <time>2024-07-04T10:39:41.318Z</time>
      </trkpt>
      <trkpt lat="52.06504" lon="4.26579">
        <ele>56.549622</ele>
        <time>2024-07-04T10:39:43.317Z</time>
      </trkpt>
      <trkpt lat="52.06509" lon="4.26592">
        <ele>56.36856</ele>
        <time>2024-07-04T10:39:45.308Z</time>
      </trkpt>
      <trkpt lat="52.06514" lon="4.26606">
        <ele>56.180458</ele>
        <time>2024-07-04T10:39:47.305Z</time>
      </trkpt>
      <trkpt lat="52.0652" lon="4.26618">
        <ele>55.983385</ele>
        <time>2024-07-04T10:39:49.306Z</time>
      </trkpt>
      <trkpt lat="52.06526" lon="4.26633">
        <ele>55.775907</ele>
        <time>2024-07-04T10:39:51.317Z</time>
      </trkpt>
      <trkpt lat="52.06532" lon="4.26647">
        <ele>55.583763</ele>
        <time>2024-07-04T10:39:53.318Z</time>
      </trkpt>
      <trkpt lat="52.06539" lon="4.26666">
        <ele>55.316688</ele>
        <time>2024-07-04T10:39:56.304Z</time>
      </trkpt>
      <trkpt lat="52.06541" lon="4.26682">
        <ele>55.121387</ele>
        <time>2024-07-04T10:39:58.300Z</time>
      </trkpt>
      <trkpt lat="52.06548" lon="4.26696">
        <ele>54.918302</ele>
        <time>2024-07-04T10:40:00.307Z</time>
      </trkpt>
      <trkpt lat="52.06555" lon="4.2671">
        <ele>54.699456</ele>
        <time>2024-07-04T10:40:02.324Z</time>
      </trkpt>
      <trkpt lat="52.06561" lon="4.26725">
        <ele>54.487197</ele>
        <time>2024-07-04T10:40:04.331Z</time>
      </trkpt>
      <trkpt lat="52.06566" lon="4.26741">
        <ele>54.275098</ele>
        <time>2024-07-04T10:40:06.305Z</time>
      </trkpt>
      <trkpt lat="52.06571" lon="4.26757">
        <ele>54.055003</ele>
        <time>2024-07-04T10:40:08.285Z</time>
      </trkpt>
      <trkpt lat="52.06576" lon="4.26773">
        <ele>53.850221</ele>
        <time>2024-07-04T10:40:10.316Z</time>
      </trkpt>
      <trkpt lat="52.0658" lon="4.26788">
        <ele>53.692191</ele>
        <time>2024-07-04T10:40:12.308Z</time>
      </trkpt>
      <trkpt lat="52.06584" lon="4.26803">
        <ele>53.595051</ele>
        <time>2024-07-04T10:40:14.295Z</time>
      </trkpt>
      <trkpt lat="52.06589" lon="4.26818">
        <ele>53.499608</ele>
        <time>2024-07-04T10:40:16.317Z</time>
      </trkpt>
      <trkpt lat="52.06593" lon="4.26833">
        <ele>53.402382</ele>
        <time>2024-07-04T10:40:18.297Z</time>
      </trkpt>
      <trkpt lat="52.06598" lon="4.26848">
        <ele>53.299804</ele>
        <time>2024-07-04T10:40:20.315Z</time>
      </trkpt>
      <trkpt lat="52.06603" lon="4.26864">
        <ele>53.196966</ele>
        <time>2024-07-04T10:40:22.303Z</time>
      </trkpt>
      <trkpt lat="52.06608" lon="4.26881">
        <ele>53.090336</ele>
        <time>2024-07-04T10:40:24.308Z</time>
      </trkpt>
      <trkpt lat="52.06613" lon="4.26897">
        <ele>52.988539</ele>
        <time>2024-07-04T10:40:26.300Z</time>
      </trkpt>
      <trkpt lat="52.06618" lon="4.26912">
        <ele>52.888383</ele>
        <time>2024-07-04T10:40:28.288Z</time>
      </trkpt>
      <trkpt lat="52.06622" lon="4.26926">
        <ele>52.797943</ele>
        <time>2024-07-04T10:40:30.301Z</time>
      </trkpt>
      <trkpt lat="52.06627" lon="4.26945">
        <ele>52.677341</ele>
        <time>2024-07-04T10:40:33.304Z</time>
      </trkpt>
      <trkpt lat="52.06631" lon="4.2696">
        <ele>52.580729</ele>
        <time>2024-07-04T10:40:36.327Z</time>
      </trkpt>
      <trkpt lat="52.06637" lon="4.26975">
        <ele>52.483744</ele>
        <time>2024-07-04T10:40:40.318Z</time>
      </trkpt>
      <trkpt lat="52.06643" lon="4.27005">
        <ele>52.296988</ele>
        <time>2024-07-04T10:41:44.305Z</time>
      </trkpt>
      <trkpt lat="52.06647" lon="4.27021">
        <ele>52.198323</ele>
        <time>2024-07-04T10:41:47.299Z</time>
      </trkpt>
      <trkpt lat="52.06651" lon="4.27035">
        <ele>52.10697</ele>
        <time>2024-07-04T10:41:50.308Z</time>
      </trkpt>
      <trkpt lat="52.06655" lon="4.2705">
        <ele>52.044958</ele>
        <time>2024-07-04T10:41:53.308Z</time>
      </trkpt>
      <trkpt lat="52.0666" lon="4.27066">
        <ele>52.101978</ele>
        <time>2024-07-04T10:41:56.314Z</time>
      </trkpt>
      <trkpt lat="52.06668" lon="4.27081">
        <ele>52.169639</ele>
        <time>2024-07-04T10:41:59.297Z</time>
      </trkpt>
      <trkpt lat="52.06673" lon="4.27096">
        <ele>52.227528</ele>
        <time>2024-07-04T10:42:01.301Z</time>
      </trkpt>
      <trkpt lat="52.06678" lon="4.27111">
        <ele>52.281756</ele>
        <time>2024-07-04T10:42:03.296Z</time>
      </trkpt>
      <trkpt lat="52.06683" lon="4.27126">
        <ele>52.337979</ele>
        <time>2024-07-04T10:42:05.311Z</time>
      </trkpt>
      <trkpt lat="52.06689" lon="4.27142">
        <ele>52.399133</ele>
        <time>2024-07-04T10:42:07.312Z</time>
      </trkpt>
      <trkpt lat="52.06695" lon="4.27159">
        <ele>52.463966</ele>
        <time>2024-07-04T10:42:09.309Z</time>
      </trkpt>
      <trkpt lat="52.067" lon="4.27176">
        <ele>52.527024</ele>
        <time>2024-07-04T10:42:11.301Z</time>
      </trkpt>
      <trkpt lat="52.06706" lon="4.27192">
        <ele>52.587077</ele>
        <time>2024-07-04T10:42:13.295Z</time>
      </trkpt>
      <trkpt lat="52.06711" lon="4.27207">
        <ele>52.644023</ele>
        <time>2024-07-04T10:42:15.313Z</time>
      </trkpt>
      <trkpt lat="52.06716" lon="4.2722">
        <ele>52.694847</ele>
        <time>2024-07-04T10:42:17.306Z</time>
      </trkpt>
      <trkpt lat="52.0672" lon="4.27233">
        <ele>52.743544</ele>
        <time>2024-07-04T10:42:19.313Z</time>
      </trkpt>
      <trkpt lat="52.06723" lon="4.27247">
        <ele>52.792852</ele>
        <time>2024-07-04T10:42:21.311Z</time>
      </trkpt>
      <trkpt lat="52.06731" lon="4.27267">
        <ele>52.868613</ele>
        <time>2024-07-04T10:42:24.295Z</time>
      </trkpt>
      <trkpt lat="52.06735" lon="4.27281">
        <ele>52.922927</ele>
        <time>2024-07-04T10:42:26.319Z</time>
      </trkpt>
      <trkpt lat="52.0674" lon="4.27294">
        <ele>52.971284</ele>
        <time>2024-07-04T10:42:28.296Z</time>
      </trkpt>
      <trkpt lat="52.06744" lon="4.27307">
        <ele>52.985976</ele>
        <time>2024-07-04T10:42:30.305Z</time>
      </trkpt>
      <trkpt lat="52.06748" lon="4.27321">
        <ele>52.96518</ele>
        <time>2024-07-04T10:42:32.312Z</time>
      </trkpt>
      <trkpt lat="52.06755" lon="4.2734">
        <ele>52.935577</ele>
        <time>2024-07-04T10:42:35.309Z</time>
      </trkpt>
      <trkpt lat="52.06759" lon="4.27353">
        <ele>52.914721</ele>
        <time>2024-07-04T10:42:37.302Z</time>
      </trkpt>
      <trkpt lat="52.06763" lon="4.27372">
        <ele>52.887385</ele>
        <time>2024-07-04T10:42:40.305Z</time>
      </trkpt>
      <trkpt lat="52.06767" lon="4.27385">
        <ele>52.866776</ele>
        <time>2024-07-04T10:42:42.308Z</time>
      </trkpt>
      <trkpt lat="52.06773" lon="4.27406">
        <ele>52.835954</ele>
        <time>2024-07-04T10:42:45.327Z</time>
      </trkpt>
      <trkpt lat="52.06777" lon="4.27419">
        <ele>52.815142</ele>
        <time>2024-07-04T10:42:47.309Z</time>
      </trkpt>
      <trkpt lat="52.06783" lon="4.27438">
        <ele>52.785732</ele>
        <time>2024-07-04T10:42:50.308Z</time>
      </trkpt>
      <trkpt lat="52.06788" lon="4.27452">
        <ele>52.763679</ele>
        <time>2024-07-04T10:42:52.305Z</time>
      </trkpt>
      <trkpt lat="52.06793" lon="4.27466">
        <ele>52.741488</ele>
        <time>2024-07-04T10:42:54.316Z</time>
      </trkpt>
      <trkpt lat="52.06798" lon="4.2748">
        <ele>52.719645</ele>
        <time>2024-07-04T10:42:56.302Z</time>
      </trkpt>
      <trkpt lat="52.06802" lon="4.27494">
        <ele>52.697561</ele>
        <time>2024-07-04T10:42:58.313Z</time>
      </trkpt>
      <trkpt lat="52.06807" lon="4.27508">
        <ele>52.675489</ele>
        <time>2024-07-04T10:43:00.303Z</time>
      </trkpt>
      <trkpt lat="52.06812" lon="4.27522">
        <ele>52.653875</ele>
        <time>2024-07-04T10:43:02.306Z</time>
      </trkpt>
      <trkpt lat="52.06817" lon="4.27535">
        <ele>52.632052</ele>
        <time>2024-07-04T10:43:04.308Z</time>
      </trkpt>
      <trkpt lat="52.06823" lon="4.27553">
        <ele>52.604252</ele>
        <time>2024-07-04T10:43:07.311Z</time>
      </trkpt>
      <trkpt lat="52.06828" lon="4.2757">
        <ele>52.601184</ele>
        <time>2024-07-04T10:43:10.307Z</time>
      </trkpt>
      <trkpt lat="52.06833" lon="4.27583">
        <ele>52.612057</ele>
        <time>2024-07-04T10:43:13.309Z</time>
      </trkpt>
      <trkpt lat="52.06837" lon="4.27598">
        <ele>52.623891</ele>
        <time>2024-07-04T10:43:17.322Z</time>
      </trkpt>
      <trkpt lat="52.06842" lon="4.27611">
        <ele>52.634555</ele>
        <time>2024-07-04T10:43:21.328Z</time>
      </trkpt>
      <trkpt lat="52.06846" lon="4.2763">
        <ele>52.649092</ele>
        <time>2024-07-04T10:43:25.306Z</time>
      </trkpt>
      <trkpt lat="52.06849" lon="4.27648">
        <ele>52.662632</ele>
        <time>2024-07-04T10:43:28.301Z</time>
      </trkpt>
      <trkpt lat="52.06855" lon="4.27665">
        <ele>52.676835</ele>
        <time>2024-07-04T10:43:31.307Z</time>
      </trkpt>
      <trkpt lat="52.06863" lon="4.27682">
        <ele>52.692276</ele>
        <time>2024-07-04T10:43:34.304Z</time>
      </trkpt>
      <trkpt lat="52.06867" lon="4.27698">
        <ele>52.704502</ele>
        <time>2024-07-04T10:43:36.325Z</time>
      </trkpt>
      <trkpt lat="52.06872" lon="4.27713">
        <ele>52.716771</ele>
        <time>2024-07-04T10:43:38.316Z</time>
      </trkpt>
      <trkpt lat="52.06878" lon="4.27728">
        <ele>52.729328</ele>
        <time>2024-07-04T10:43:40.306Z</time>
      </trkpt>
      <trkpt lat="52.06883" lon="4.27743">
        <ele>52.742127</ele>
        <time>2024-07-04T10:43:42.303Z</time>
      </trkpt>
      <trkpt lat="52.06888" lon="4.27759">
        <ele>52.754494</ele>
        <time>2024-07-04T10:43:44.311Z</time>
      </trkpt>
      <trkpt lat="52.06892" lon="4.27774">
        <ele>52.766243</ele>
        <time>2024-07-04T10:43:46.304Z</time>
      </trkpt>
      <trkpt lat="52.06897" lon="4.27788">
        <ele>52.777951</ele>
        <time>2024-07-04T10:43:48.300Z</time>
      </trkpt>
      <trkpt lat="52.06901" lon="4.27804">
        <ele>52.790504</ele>
        <time>2024-07-04T10:43:50.309Z</time>
      </trkpt>
      <trkpt lat="52.06902" lon="4.27821">
        <ele>52.802372</ele>
        <time>2024-07-04T10:43:52.315Z</time>
      </trkpt>
      <trkpt lat="52.06906" lon="4.27836">
        <ele>52.826359</ele>
        <time>2024-07-04T10:43:54.305Z</time>
      </trkpt>
      <trkpt lat="52.06909" lon="4.27853">
        <ele>52.85143</ele>
        <time>2024-07-04T10:43:56.306Z</time>
      </trkpt>
      <trkpt lat="52.06913" lon="4.27868">
        <ele>52.875327</ele>
        <time>2024-07-04T10:43:58.305Z</time>
      </trkpt>
      <trkpt lat="52.06916" lon="4.27885">
        <ele>52.90028</ele>
        <time>2024-07-04T10:44:00.305Z</time>
      </trkpt>
      <trkpt lat="52.06919" lon="4.27901">
        <ele>52.925144</ele>
        <time>2024-07-04T10:44:02.328Z</time>
      </trkpt>
      <trkpt lat="52.06923" lon="4.27917">
        <ele>52.949615</ele>
        <time>2024-07-04T10:44:04.308Z</time>
      </trkpt>
      <trkpt lat="52.06927" lon="4.27933">
        <ele>52.974864</ele>
        <time>2024-07-04T10:44:06.307Z</time>
      </trkpt>
      <trkpt lat="52.06931" lon="4.27949">
        <ele>53.000306</ele>
        <time>2024-07-04T10:44:08.326Z</time>
      </trkpt>
      <trkpt lat="52.06935" lon="4.27966">
        <ele>53.026501</ele>
        <time>2024-07-04T10:44:10.301Z</time>
      </trkpt>
      <trkpt lat="52.0694" lon="4.27981">
        <ele>53.05112</ele>
        <time>2024-07-04T10:44:12.320Z</time>
      </trkpt>
      <trkpt lat="52.06946" lon="4.27995">
        <ele>53.076941</ele>
        <time>2024-07-04T10:44:14.314Z</time>
      </trkpt>
      <trkpt lat="52.06951" lon="4.2801">
        <ele>53.101586</ele>
        <time>2024-07-04T10:44:16.306Z</time>
      </trkpt>
      <trkpt lat="52.06956" lon="4.28025">
        <ele>53.126335</ele>
        <time>2024-07-04T10:44:18.303Z</time>
      </trkpt>
      <trkpt lat="52.0696" lon="4.2804">
        <ele>53.149549</ele>
        <time>2024-07-04T10:44:20.303Z</time>
      </trkpt>
      <trkpt lat="52.06965" lon="4.28055">
        <ele>53.174327</ele>
        <time>2024-07-04T10:44:22.309Z</time>
      </trkpt>
      <trkpt lat="52.06969" lon="4.2807">
        <ele>53.198478</ele>
        <time>2024-07-04T10:44:24.319Z</time>
      </trkpt>
      <trkpt lat="52.06975" lon="4.28085">
        <ele>53.224137</ele>
        <time>2024-07-04T10:44:26.302Z</time>
      </trkpt>
      <trkpt lat="52.06981" lon="4.281">
        <ele>53.222195</ele>
        <time>2024-07-04T10:44:28.306Z</time>
      </trkpt>
      <trkpt lat="52.06987" lon="4.28115">
        <ele>53.214347</ele>
        <time>2024-07-04T10:44:30.334Z</time>
      </trkpt>
      <trkpt lat="52.06992" lon="4.2813">
        <ele>53.206507</ele>
        <time>2024-07-04T10:44:32.316Z</time>
      </trkpt>
      <trkpt lat="52.06998" lon="4.28145">
        <ele>53.198626</ele>
        <time>2024-07-04T10:44:34.318Z</time>
      </trkpt>
      <trkpt lat="52.07003" lon="4.28159">
        <ele>53.191274</ele>
        <time>2024-07-04T10:44:36.299Z</time>
      </trkpt>
      <trkpt lat="52.07008" lon="4.28174">
        <ele>53.183891</ele>
        <time>2024-07-04T10:44:38.301Z</time>
      </trkpt>
      <trkpt lat="52.07012" lon="4.28188">
        <ele>53.176755</ele>
        <time>2024-07-04T10:44:40.286Z</time>
      </trkpt>
      <trkpt lat="52.07016" lon="4.28202">
        <ele>53.169625</ele>
        <time>2024-07-04T10:44:42.309Z</time>
      </trkpt>
      <trkpt lat="52.07021" lon="4.28217">
        <ele>53.16225</ele>
        <time>2024-07-04T10:44:44.284Z</time>
      </trkpt>
      <trkpt lat="52.07025" lon="4.28232">
        <ele>53.15509</ele>
        <time>2024-07-04T10:44:46.309Z</time>
      </trkpt>
      <trkpt lat="52.07028" lon="4.28246">
        <ele>53.148341</ele>
        <time>2024-07-04T10:44:48.300Z</time>
      </trkpt>
      <trkpt lat="52.07033" lon="4.28264">
        <ele>53.139617</ele>
        <time>2024-07-04T10:44:51.296Z</time>
      </trkpt>
      <trkpt lat="52.07037" lon="4.28282">
        <ele>53.1312</ele>
        <time>2024-07-04T10:44:55.314Z</time>
      </trkpt>
      <trkpt lat="52.07037" lon="4.28298">
        <ele>53.123902</ele>
        <time>2024-07-04T10:44:59.308Z</time>
      </trkpt>
      <trkpt lat="52.07036" lon="4.28315">
        <ele>53.116363</ele>
        <time>2024-07-04T10:45:02.328Z</time>
      </trkpt>
      <trkpt lat="52.07036" lon="4.28333">
        <ele>53.108009</ele>
        <time>2024-07-04T10:45:05.307Z</time>
      </trkpt>
      <trkpt lat="52.07038" lon="4.28352">
        <ele>53.099403</ele>
        <time>2024-07-04T10:45:08.316Z</time>
      </trkpt>
      <trkpt lat="52.0704" lon="4.28372">
        <ele>53.098307</ele>
        <time>2024-07-04T10:45:11.306Z</time>
      </trkpt>
      <trkpt lat="52.07042" lon="4.28392">
        <ele>53.098665</ele>
        <time>2024-07-04T10:45:14.302Z</time>
      </trkpt>
      <trkpt lat="52.07044" lon="4.28408">
        <ele>53.098965</ele>
        <time>2024-07-04T10:45:18.321Z</time>
      </trkpt>
      <trkpt lat="52.07048" lon="4.28438">
        <ele>53.099494</ele>
        <time>2024-07-04T10:46:03.286Z</time>
      </trkpt>
      <trkpt lat="52.07053" lon="4.28455">
        <ele>53.099831</ele>
        <time>2024-07-04T10:46:07.308Z</time>
      </trkpt>
      <trkpt lat="52.0706" lon="4.28466">
        <ele>53.100129</ele>
        <time>2024-07-04T10:46:10.302Z</time>
      </trkpt>
      <trkpt lat="52.07065" lon="4.28485">
        <ele>53.100486</ele>
        <time>2024-07-04T10:46:13.294Z</time>
      </trkpt>
      <trkpt lat="52.07068" lon="4.28503">
        <ele>53.100817</ele>
        <time>2024-07-04T10:46:16.300Z</time>
      </trkpt>
      <trkpt lat="52.07075" lon="4.28521">
        <ele>53.101183</ele>
        <time>2024-07-04T10:46:19.310Z</time>
      </trkpt>
      <trkpt lat="52.07081" lon="4.28538">
        <ele>53.101547</ele>
        <time>2024-07-04T10:46:22.323Z</time>
      </trkpt>
      <trkpt lat="52.07085" lon="4.28553">
        <ele>53.101825</ele>
        <time>2024-07-04T10:46:24.299Z</time>
      </trkpt>
      <trkpt lat="52.07089" lon="4.28567">
        <ele>53.102114</ele>
        <time>2024-07-04T10:46:26.300Z</time>
      </trkpt>
      <trkpt lat="52.07094" lon="4.28584">
        <ele>53.102434</ele>
        <time>2024-07-04T10:46:28.325Z</time>
      </trkpt>
      <trkpt lat="52.07099" lon="4.286">
        <ele>53.102748</ele>
        <time>2024-07-04T10:46:30.297Z</time>
      </trkpt>
      <trkpt lat="52.07103" lon="4.28616">
        <ele>53.103057</ele>
        <time>2024-07-04T10:46:32.324Z</time>
      </trkpt>
      <trkpt lat="52.07108" lon="4.28631">
        <ele>53.152334</ele>
        <time>2024-07-04T10:46:34.298Z</time>
      </trkpt>
      <trkpt lat="52.07112" lon="4.28646">
        <ele>53.24257</ele>
        <time>2024-07-04T10:46:36.303Z</time>
      </trkpt>
      <trkpt lat="52.07117" lon="4.28661">
        <ele>53.338559</ele>
        <time>2024-07-04T10:46:38.296Z</time>
      </trkpt>
      <trkpt lat="52.07121" lon="4.28677">
        <ele>53.433172</ele>
        <time>2024-07-04T10:46:40.302Z</time>
      </trkpt>
      <trkpt lat="52.07126" lon="4.28692">
        <ele>53.527455</ele>
        <time>2024-07-04T10:46:42.300Z</time>
      </trkpt>
      <trkpt lat="52.0713" lon="4.28707">
        <ele>53.618689</ele>
        <time>2024-07-04T10:46:44.305Z</time>
      </trkpt>
      <trkpt lat="52.07134" lon="4.28723">
        <ele>53.7105</ele>
        <time>2024-07-04T10:46:46.314Z</time>
      </trkpt>
      <trkpt lat="52.07138" lon="4.28738">
        <ele>53.801974</ele>
        <time>2024-07-04T10:46:48.305Z</time>
      </trkpt>
      <trkpt lat="52.07142" lon="4.28753">
        <ele>53.89175</ele>
        <time>2024-07-04T10:46:50.304Z</time>
      </trkpt>
      <trkpt lat="52.07146" lon="4.28768">
        <ele>53.983261</ele>
        <time>2024-07-04T10:46:52.300Z</time>
      </trkpt>
      <trkpt lat="52.07151" lon="4.28782">
        <ele>54.074426</ele>
        <time>2024-07-04T10:46:54.293Z</time>
      </trkpt>
      <trkpt lat="52.07157" lon="4.28796">
        <ele>54.163745</ele>
        <time>2024-07-04T10:46:56.298Z</time>
      </trkpt>
      <trkpt lat="52.07162" lon="4.2881">
        <ele>54.256744</ele>
        <time>2024-07-04T10:46:58.282Z</time>
      </trkpt>
      <trkpt lat="52.07168" lon="4.28824">
        <ele>54.351643</ele>
        <time>2024-07-04T10:47:00.295Z</time>
      </trkpt>
      <trkpt lat="52.07174" lon="4.28836">
        <ele>54.436632</ele>
        <time>2024-07-04T10:47:02.317Z</time>
      </trkpt>
      <trkpt lat="52.07179" lon="4.28848">
        <ele>54.518084</ele>
        <time>2024-07-04T10:47:04.303Z</time>
      </trkpt>
      <trkpt lat="52.07185" lon="4.28862">
        <ele>54.605436</ele>
        <time>2024-07-04T10:47:06.312Z</time>
      </trkpt>
      <trkpt lat="52.07189" lon="4.28876">
        <ele>54.692914</ele>
        <time>2024-07-04T10:47:08.299Z</time>
      </trkpt>
      <trkpt lat="52.07193" lon="4.2889">
        <ele>54.685948</ele>
        <time>2024-07-04T10:47:10.319Z</time>
      </trkpt>
      <trkpt lat="52.07199" lon="4.28904">
        <ele>54.644388</ele>
        <time>2024-07-04T10:47:12.303Z</time>
      </trkpt>
      <trkpt lat="52.07202" lon="4.28918">
        <ele>54.604553</ele>
        <time>2024-07-04T10:47:14.291Z</time>
      </trkpt>
      <trkpt lat="52.07208" lon="4.28938">
        <ele>54.545193</ele>
        <time>2024-07-04T10:47:17.311Z</time>
      </trkpt>
      <trkpt lat="52.07214" lon="4.28952">
        <ele>54.503383</ele>
        <time>2024-07-04T10:47:19.313Z</time>
      </trkpt>
      <trkpt lat="52.07219" lon="4.28965">
        <ele>54.463366</ele>
        <time>2024-07-04T10:47:21.311Z</time>
      </trkpt>
      <trkpt lat="52.07223" lon="4.28978">
        <ele>54.423541</ele>
        <time>2024-07-04T10:47:23.309Z</time>
      </trkpt>
      <trkpt lat="52.07226" lon="4.28994">
        <ele>54.381375</ele>
        <time>2024-07-04T10:47:25.290Z</time>
      </trkpt>
      <trkpt lat="52.07229" lon="4.29009">
        <ele>54.338837</ele>
        <time>2024-07-04T10:47:27.317Z</time>
      </trkpt>
      <trkpt lat="52.07231" lon="4.29024">
        <ele>54.298665</ele>
        <time>2024-07-04T10:47:29.319Z</time>
      </trkpt>
      <trkpt lat="52.07234" lon="4.29039">
        <ele>54.258475</ele>
        <time>2024-07-04T10:47:31.302Z</time>
      </trkpt>
      <trkpt lat="52.07238" lon="4.29052">
        <ele>54.2201</ele>
        <time>2024-07-04T10:47:33.305Z</time>
      </trkpt>
      <trkpt lat="52.07244" lon="4.29071">
        <ele>54.16474</ele>
        <time>2024-07-04T10:47:36.299Z</time>
      </trkpt>
      <trkpt lat="52.07248" lon="4.29085">
        <ele>54.12574</ele>
        <time>2024-07-04T10:47:38.317Z</time>
      </trkpt>
      <trkpt lat="52.07252" lon="4.29099">
        <ele>54.087643</ele>
        <time>2024-07-04T10:47:40.310Z</time>
      </trkpt>
      <trkpt lat="52.07255" lon="4.29119">
        <ele>54.033325</ele>
        <time>2024-07-04T10:47:43.308Z</time>
      </trkpt>
      <trkpt lat="52.07259" lon="4.29137">
        <ele>53.983029</ele>
        <time>2024-07-04T10:47:46.319Z</time>
      </trkpt>
      <trkpt lat="52.07264" lon="4.29157">
        <ele>54.073562</ele>
        <time>2024-07-04T10:47:49.307Z</time>
      </trkpt>
      <trkpt lat="52.07267" lon="4.29176">
        <ele>54.290853</ele>
        <time>2024-07-04T10:47:52.304Z</time>
      </trkpt>
      <trkpt lat="52.07271" lon="4.29191">
        <ele>54.465146</ele>
        <time>2024-07-04T10:47:54.302Z</time>
      </trkpt>
      <trkpt lat="52.07276" lon="4.29209">
        <ele>54.680742</ele>
        <time>2024-07-04T10:47:57.305Z</time>
      </trkpt>
      <trkpt lat="52.07279" lon="4.29228">
        <ele>54.892173</ele>
        <time>2024-07-04T10:48:00.302Z</time>
      </trkpt>
      <trkpt lat="52.0728" lon="4.29249">
        <ele>55.114507</ele>
        <time>2024-07-04T10:48:03.306Z</time>
      </trkpt>
      <trkpt lat="52.07285" lon="4.29262">
        <ele>55.279154</ele>
        <time>2024-07-04T10:48:05.302Z</time>
      </trkpt>
      <trkpt lat="52.07294" lon="4.29274">
        <ele>55.473248</ele>
        <time>2024-07-04T10:48:07.303Z</time>
      </trkpt>
      <trkpt lat="52.07297" lon="4.29289">
        <ele>55.646134</ele>
        <time>2024-07-04T10:48:09.299Z</time>
      </trkpt>
      <trkpt lat="52.07302" lon="4.29304">
        <ele>55.825782</ele>
        <time>2024-07-04T10:48:11.325Z</time>
      </trkpt>
      <trkpt lat="52.07306" lon="4.29319">
        <ele>55.99691</ele>
        <time>2024-07-04T10:48:13.323Z</time>
      </trkpt>
      <trkpt lat="52.07309" lon="4.29335">
        <ele>56.181715</ele>
        <time>2024-07-04T10:48:15.303Z</time>
      </trkpt>
      <trkpt lat="52.07313" lon="4.29351">
        <ele>56.363041</ele>
        <time>2024-07-04T10:48:17.313Z</time>
      </trkpt>
      <trkpt lat="52.07317" lon="4.29366">
        <ele>56.543568</ele>
        <time>2024-07-04T10:48:19.296Z</time>
      </trkpt>
      <trkpt lat="52.0732" lon="4.29382">
        <ele>56.718842</ele>
        <time>2024-07-04T10:48:21.317Z</time>
      </trkpt>
      <trkpt lat="52.07325" lon="4.29396">
        <ele>56.894197</ele>
        <time>2024-07-04T10:48:23.299Z</time>
      </trkpt>
      <trkpt lat="52.07328" lon="4.29412">
        <ele>57.067712</ele>
        <time>2024-07-04T10:48:25.313Z</time>
      </trkpt>
      <trkpt lat="52.07331" lon="4.29427">
        <ele>57.130912</ele>
        <time>2024-07-04T10:48:27.303Z</time>
      </trkpt>
      <trkpt lat="52.07335" lon="4.29442">
        <ele>57.171885</ele>
        <time>2024-07-04T10:48:29.312Z</time>
      </trkpt>
      <trkpt lat="52.07339" lon="4.29457">
        <ele>57.211355</ele>
        <time>2024-07-04T10:48:31.302Z</time>
      </trkpt>
      <trkpt lat="52.07342" lon="4.29473">
        <ele>57.251087</ele>
        <time>2024-07-04T10:48:33.321Z</time>
      </trkpt>
      <trkpt lat="52.07346" lon="4.29488">
        <ele>57.290948</ele>
        <time>2024-07-04T10:48:35.303Z</time>
      </trkpt>
      <trkpt lat="52.0735" lon="4.29503">
        <ele>57.331549</ele>
        <time>2024-07-04T10:48:37.300Z</time>
      </trkpt>
      <trkpt lat="52.07353" lon="4.29519">
        <ele>57.371251</ele>
        <time>2024-07-04T10:48:39.315Z</time>
      </trkpt>
      <trkpt lat="52.07357" lon="4.29534">
        <ele>57.411319</ele>
        <time>2024-07-04T10:48:41.317Z</time>
      </trkpt>
      <trkpt lat="52.07362" lon="4.29549">
        <ele>57.451675</ele>
        <time>2024-07-04T10:48:43.310Z</time>
      </trkpt>
      <trkpt lat="52.07365" lon="4.29564">
        <ele>57.489503</ele>
        <time>2024-07-04T10:48:45.307Z</time>
      </trkpt>
      <trkpt lat="52.07369" lon="4.29578">
        <ele>57.528007</ele>
        <time>2024-07-04T10:48:47.297Z</time>
      </trkpt>
      <trkpt lat="52.07372" lon="4.29594">
        <ele>57.567585</ele>
        <time>2024-07-04T10:48:49.311Z</time>
      </trkpt>
      <trkpt lat="52.07375" lon="4.29609">
        <ele>57.606727</ele>
        <time>2024-07-04T10:48:51.299Z</time>
      </trkpt>
      <trkpt lat="52.07379" lon="4.29625">
        <ele>57.648149</ele>
        <time>2024-07-04T10:48:53.302Z</time>
      </trkpt>
      <trkpt lat="52.07381" lon="4.2964">
        <ele>57.68645</ele>
        <time>2024-07-04T10:48:55.308Z</time>
      </trkpt>
      <trkpt lat="52.07382" lon="4.29655">
        <ele>57.72335</ele>
        <time>2024-07-04T10:48:57.303Z</time>
      </trkpt>
      <trkpt lat="52.07384" lon="4.29677">
        <ele>57.77573</ele>
        <time>2024-07-04T10:49:00.305Z</time>
      </trkpt>
      <trkpt lat="52.07389" lon="4.29697">
        <ele>57.661791</ele>
        <time>2024-07-04T10:49:03.310Z</time>
      </trkpt>
      <trkpt lat="52.07391" lon="4.29716">
        <ele>57.30047</ele>
        <time>2024-07-04T10:49:06.307Z</time>
      </trkpt>
      <trkpt lat="52.07392" lon="4.29733">
        <ele>56.983952</ele>
        <time>2024-07-04T10:49:09.306Z</time>
      </trkpt>
      <trkpt lat="52.07393" lon="4.29754">
        <ele>56.611417</ele>
        <time>2024-07-04T10:49:12.302Z</time>
      </trkpt>
      <trkpt lat="52.07393" lon="4.29769">
        <ele>56.331097</ele>
        <time>2024-07-04T10:49:14.307Z</time>
      </trkpt>
      <trkpt lat="52.0739" lon="4.29784">
        <ele>56.031111</ele>
        <time>2024-07-04T10:49:16.305Z</time>
      </trkpt>
      <trkpt lat="52.07386" lon="4.29799">
        <ele>55.738764</ele>
        <time>2024-07-04T10:49:18.300Z</time>
      </trkpt>
      <trkpt lat="52.07381" lon="4.29813">
        <ele>55.447045</ele>
        <time>2024-07-04T10:49:20.314Z</time>
      </trkpt>
      <trkpt lat="52.07376" lon="4.29826">
        <ele>55.147516</ele>
        <time>2024-07-04T10:49:22.309Z</time>
      </trkpt>
      <trkpt lat="52.07368" lon="4.29841">
        <ele>54.800139</ele>
        <time>2024-07-04T10:49:24.317Z</time>
      </trkpt>
      <trkpt lat="52.07361" lon="4.29854">
        <ele>54.482819</ele>
        <time>2024-07-04T10:49:26.279Z</time>
      </trkpt>
      <trkpt lat="52.07354" lon="4.29865">
        <ele>54.174775</ele>
        <time>2024-07-04T10:49:28.307Z</time>
      </trkpt>
      <trkpt lat="52.07347" lon="4.29876">
        <ele>53.898372</ele>
        <time>2024-07-04T10:49:30.304Z</time>
      </trkpt>
      <trkpt lat="52.07338" lon="4.29884">
        <ele>53.590993</ele>
        <time>2024-07-04T10:49:32.308Z</time>
      </trkpt>
      <trkpt lat="52.07327" lon="4.2989">
        <ele>53.244184</ele>
        <time>2024-07-04T10:49:34.303Z</time>
      </trkpt>
      <trkpt lat="52.07315" lon="4.29897">
        <ele>52.862473</ele>
        <time>2024-07-04T10:49:37.284Z</time>
      </trkpt>
      <trkpt lat="52.07303" lon="4.29906">
        <ele>52.47183</ele>
        <time>2024-07-04T10:49:40.282Z</time>
      </trkpt>
      <trkpt lat="52.07292" lon="4.29916">
        <ele>52.33333</ele>
        <time>2024-07-04T10:49:43.315Z</time>
      </trkpt>
      <trkpt lat="52.07283" lon="4.29924">
        <ele>52.253774</ele>
        <time>2024-07-04T10:49:45.321Z</time>
      </trkpt>
      <trkpt lat="52.07272" lon="4.29934">
        <ele>52.149117</ele>
        <time>2024-07-04T10:49:48.311Z</time>
      </trkpt>
      <trkpt lat="52.07261" lon="4.29944">
        <ele>52.045398</ele>
        <time>2024-07-04T10:49:51.309Z</time>
      </trkpt>
      <trkpt lat="52.07251" lon="4.29953">
        <ele>51.954866</ele>
        <time>2024-07-04T10:49:54.307Z</time>
      </trkpt>
      <trkpt lat="52.07242" lon="4.29961">
        <ele>51.870327</ele>
        <time>2024-07-04T10:49:57.307Z</time>
      </trkpt>
      <trkpt lat="52.07234" lon="4.29969">
        <ele>51.79402</ele>
        <time>2024-07-04T10:50:00.307Z</time>
      </trkpt>
      <trkpt lat="52.07227" lon="4.29978">
        <ele>51.719713</ele>
        <time>2024-07-04T10:50:08.288Z</time>
      </trkpt>
      <trkpt lat="52.07225" lon="4.29995">
        <ele>51.636188</ele>
        <time>2024-07-04T10:50:12.284Z</time>
      </trkpt>
      <trkpt lat="52.07225" lon="4.30011">
        <ele>51.554241</ele>
        <time>2024-07-04T10:50:15.300Z</time>
      </trkpt>
      <trkpt lat="52.07224" lon="4.30029">
        <ele>51.46779</ele>
        <time>2024-07-04T10:50:18.311Z</time>
      </trkpt>
      <trkpt lat="52.0723" lon="4.30047">
        <ele>51.366871</ele>
        <time>2024-07-04T10:50:21.282Z</time>
      </trkpt>
      <trkpt lat="52.07236" lon="4.30064">
        <ele>51.267431</ele>
        <time>2024-07-04T10:50:24.314Z</time>
      </trkpt>
      <trkpt lat="52.07243" lon="4.30082">
        <ele>51.162496</ele>
        <time>2024-07-04T10:50:27.305Z</time>
      </trkpt>
      <trkpt lat="52.0725" lon="4.30101">
        <ele>51.052064</ele>
        <time>2024-07-04T10:50:30.306Z</time>
      </trkpt>
      <trkpt lat="52.07255" lon="4.30113">
        <ele>50.978789</ele>
        <time>2024-07-04T10:50:32.300Z</time>
      </trkpt>
      <trkpt lat="52.07263" lon="4.30131">
        <ele>51.220308</ele>
        <time>2024-07-04T10:50:35.310Z</time>
      </trkpt>
      <trkpt lat="52.07268" lon="4.30144">
        <ele>51.409147</ele>
        <time>2024-07-04T10:50:37.313Z</time>
      </trkpt>
      <trkpt lat="52.07273" lon="4.30159">
        <ele>51.604312</ele>
        <time>2024-07-04T10:50:39.312Z</time>
      </trkpt>
      <trkpt lat="52.07277" lon="4.30171">
        <ele>51.786864</ele>
        <time>2024-07-04T10:50:41.314Z</time>
      </trkpt>
      <trkpt lat="52.07282" lon="4.30185">
        <ele>51.98089</ele>
        <time>2024-07-04T10:50:43.312Z</time>
      </trkpt>
      <trkpt lat="52.07288" lon="4.30198">
        <ele>52.174267</ele>
        <time>2024-07-04T10:50:45.289Z</time>
      </trkpt>
      <trkpt lat="52.07293" lon="4.30212">
        <ele>52.371625</ele>
        <time>2024-07-04T10:50:47.301Z</time>
      </trkpt>
      <trkpt lat="52.07297" lon="4.30225">
        <ele>52.557646</ele>
        <time>2024-07-04T10:50:49.304Z</time>
      </trkpt>
      <trkpt lat="52.07302" lon="4.30239">
        <ele>52.750636</ele>
        <time>2024-07-04T10:50:51.299Z</time>
      </trkpt>
      <trkpt lat="52.07307" lon="4.30254">
        <ele>52.958861</ele>
        <time>2024-07-04T10:50:53.280Z</time>
      </trkpt>
      <trkpt lat="52.07312" lon="4.30268">
        <ele>53.164373</ele>
        <time>2024-07-04T10:50:55.297Z</time>
      </trkpt>
      <trkpt lat="52.07317" lon="4.30283">
        <ele>53.365454</ele>
        <time>2024-07-04T10:50:57.323Z</time>
      </trkpt>
      <trkpt lat="52.07322" lon="4.30298">
        <ele>53.571008</ele>
        <time>2024-07-04T10:50:59.306Z</time>
      </trkpt>
      <trkpt lat="52.07327" lon="4.30313">
        <ele>53.784427</ele>
        <time>2024-07-04T10:51:01.319Z</time>
      </trkpt>
      <trkpt lat="52.07332" lon="4.30326">
        <ele>53.977432</ele>
        <time>2024-07-04T10:51:03.322Z</time>
      </trkpt>
      <trkpt lat="52.07338" lon="4.3034">
        <ele>54.18203</ele>
        <time>2024-07-04T10:51:05.303Z</time>
      </trkpt>
      <trkpt lat="52.07342" lon="4.30354">
        <ele>54.375117</ele>
        <time>2024-07-04T10:51:07.306Z</time>
      </trkpt>
      <trkpt lat="52.07347" lon="4.30367">
        <ele>54.552771</ele>
        <time>2024-07-04T10:51:09.302Z</time>
      </trkpt>
      <trkpt lat="52.07351" lon="4.3038">
        <ele>54.536092</ele>
        <time>2024-07-04T10:51:11.321Z</time>
      </trkpt>
      <trkpt lat="52.07356" lon="4.30393">
        <ele>54.519273</ele>
        <time>2024-07-04T10:51:13.304Z</time>
      </trkpt>
      <trkpt lat="52.07363" lon="4.30411">
        <ele>54.494483</ele>
        <time>2024-07-04T10:51:16.322Z</time>
      </trkpt>
      <trkpt lat="52.0737" lon="4.3043">
        <ele>54.470457</ele>
        <time>2024-07-04T10:51:19.301Z</time>
      </trkpt>
      <trkpt lat="52.07375" lon="4.30446">
        <ele>54.449277</ele>
        <time>2024-07-04T10:51:22.300Z</time>
      </trkpt>
      <trkpt lat="52.07381" lon="4.30462">
        <ele>54.428716</ele>
        <time>2024-07-04T10:51:25.310Z</time>
      </trkpt>
      <trkpt lat="52.07388" lon="4.30478">
        <ele>54.406686</ele>
        <time>2024-07-04T10:51:28.302Z</time>
      </trkpt>
      <trkpt lat="52.07393" lon="4.30496">
        <ele>54.384409</ele>
        <time>2024-07-04T10:51:31.304Z</time>
      </trkpt>
      <trkpt lat="52.07397" lon="4.30514">
        <ele>54.362354</ele>
        <time>2024-07-04T10:51:34.325Z</time>
      </trkpt>
      <trkpt lat="52.07401" lon="4.30531">
        <ele>54.341573</ele>
        <time>2024-07-04T10:51:37.313Z</time>
      </trkpt>
      <trkpt lat="52.07409" lon="4.30547">
        <ele>54.31892</ele>
        <time>2024-07-04T10:51:40.290Z</time>
      </trkpt>
      <trkpt lat="52.07416" lon="4.30566">
        <ele>54.294131</ele>
        <time>2024-07-04T10:51:43.311Z</time>
      </trkpt>
      <trkpt lat="52.07422" lon="4.30585">
        <ele>54.26933</ele>
        <time>2024-07-04T10:51:46.301Z</time>
      </trkpt>
      <trkpt lat="52.07427" lon="4.30599">
        <ele>54.251439</ele>
        <time>2024-07-04T10:51:48.299Z</time>
      </trkpt>
      <trkpt lat="52.07432" lon="4.30614">
        <ele>54.233064</ele>
        <time>2024-07-04T10:51:50.303Z</time>
      </trkpt>
      <trkpt lat="52.07438" lon="4.30627">
        <ele>54.216325</ele>
        <time>2024-07-04T10:51:52.301Z</time>
      </trkpt>
      <trkpt lat="52.07443" lon="4.30641">
        <ele>54.201233</ele>
        <time>2024-07-04T10:51:54.309Z</time>
      </trkpt>
      <trkpt lat="52.07448" lon="4.30655">
        <ele>54.185414</ele>
        <time>2024-07-04T10:51:56.312Z</time>
      </trkpt>
      <trkpt lat="52.07453" lon="4.30669">
        <ele>54.170163</ele>
        <time>2024-07-04T10:51:58.309Z</time>
      </trkpt>
      <trkpt lat="52.07458" lon="4.30684">
        <ele>54.154594</ele>
        <time>2024-07-04T10:52:00.300Z</time>
      </trkpt>
      <trkpt lat="52.07464" lon="4.30698">
        <ele>54.138625</ele>
        <time>2024-07-04T10:52:02.304Z</time>
      </trkpt>
      <trkpt lat="52.0747" lon="4.30713">
        <ele>54.122183</ele>
        <time>2024-07-04T10:52:04.322Z</time>
      </trkpt>
      <trkpt lat="52.07474" lon="4.30729">
        <ele>54.106252</ele>
        <time>2024-07-04T10:52:06.317Z</time>
      </trkpt>
      <trkpt lat="52.07477" lon="4.30743">
        <ele>54.092165</ele>
        <time>2024-07-04T10:52:08.308Z</time>
      </trkpt>
      <trkpt lat="52.07481" lon="4.30756">
        <ele>54.078092</ele>
        <time>2024-07-04T10:52:10.320Z</time>
      </trkpt>
      <trkpt lat="52.07487" lon="4.3077">
        <ele>54.062997</ele>
        <time>2024-07-04T10:52:12.303Z</time>
      </trkpt>
      <trkpt lat="52.07491" lon="4.30783">
        <ele>54.048606</ele>
        <time>2024-07-04T10:52:14.285Z</time>
      </trkpt>
      <trkpt lat="52.07496" lon="4.30797">
        <ele>54.033742</ele>
        <time>2024-07-04T10:52:16.299Z</time>
      </trkpt>
      <trkpt lat="52.07501" lon="4.30812">
        <ele>54.01816</ele>
        <time>2024-07-04T10:52:18.316Z</time>
      </trkpt>
      <trkpt lat="52.07507" lon="4.30829">
        <ele>53.999732</ele>
        <time>2024-07-04T10:52:21.319Z</time>
      </trkpt>
      <trkpt lat="52.07514" lon="4.30843">
        <ele>53.98281</ele>
        <time>2024-07-04T10:52:24.293Z</time>
      </trkpt>
      <trkpt lat="52.0752" lon="4.30859">
        <ele>53.965882</ele>
        <time>2024-07-04T10:52:27.327Z</time>
      </trkpt>
      <trkpt lat="52.07525" lon="4.30873">
        <ele>53.950834</ele>
        <time>2024-07-04T10:52:30.305Z</time>
      </trkpt>
      <trkpt lat="52.0753" lon="4.30888">
        <ele>54.046438</ele>
        <time>2024-07-04T10:52:34.304Z</time>
      </trkpt>
      <trkpt lat="52.07536" lon="4.30902">
        <ele>54.133799</ele>
        <time>2024-07-04T10:52:38.322Z</time>
      </trkpt>
      <trkpt lat="52.0754" lon="4.30915">
        <ele>54.214275</ele>
        <time>2024-07-04T10:52:42.321Z</time>
      </trkpt>
      <trkpt lat="52.07545" lon="4.3093">
        <ele>54.308289</ele>
        <time>2024-07-04T10:52:46.305Z</time>
      </trkpt>
      <trkpt lat="52.07549" lon="4.30945">
        <ele>54.392321</ele>
        <time>2024-07-04T10:52:51.319Z</time>
      </trkpt>
      <trkpt lat="52.07547" lon="4.30959">
        <ele>54.471412</ele>
        <time>2024-07-04T10:52:57.303Z</time>
      </trkpt>
      <trkpt lat="52.07537" lon="4.30969">
        <ele>54.577154</ele>
        <time>2024-07-04T10:53:01.298Z</time>
      </trkpt>
      <trkpt lat="52.07525" lon="4.30977">
        <ele>54.689945</ele>
        <time>2024-07-04T10:53:04.306Z</time>
      </trkpt>
      <trkpt lat="52.07513" lon="4.30984">
        <ele>54.802757</ele>
        <time>2024-07-04T10:53:07.305Z</time>
      </trkpt>
      <trkpt lat="52.07501" lon="4.30991">
        <ele>54.914753</ele>
        <time>2024-07-04T10:53:10.313Z</time>
      </trkpt>
      <trkpt lat="52.0749" lon="4.30998">
        <ele>55.019852</ele>
        <time>2024-07-04T10:53:13.308Z</time>
      </trkpt>
      <trkpt lat="52.0748" lon="4.31009">
        <ele>55.123858</ele>
        <time>2024-07-04T10:53:16.322Z</time>
      </trkpt>
      <trkpt lat="52.07472" lon="4.31024">
        <ele>55.229839</ele>
        <time>2024-07-04T10:53:19.296Z</time>
      </trkpt>
      <trkpt lat="52.07466" lon="4.31035">
        <ele>55.309158</ele>
        <time>2024-07-04T10:53:21.303Z</time>
      </trkpt>
      <trkpt lat="52.07459" lon="4.31051">
        <ele>55.418029</ele>
        <time>2024-07-04T10:53:24.303Z</time>
      </trkpt>
      <trkpt lat="52.0746" lon="4.31066">
        <ele>55.501654</ele>
        <time>2024-07-04T10:53:27.292Z</time>
      </trkpt>
      <trkpt lat="52.07464" lon="4.31081">
        <ele>55.413193</ele>
        <time>2024-07-04T10:53:31.310Z</time>
      </trkpt>
      <trkpt lat="52.0747" lon="4.31096">
        <ele>55.221227</ele>
        <time>2024-07-04T10:53:35.315Z</time>
      </trkpt>
      <trkpt lat="52.07479" lon="4.31108">
        <ele>55.011001</ele>
        <time>2024-07-04T10:53:39.314Z</time>
      </trkpt>
      <trkpt lat="52.07487" lon="4.31119">
        <ele>54.838325</ele>
        <time>2024-07-04T10:53:42.310Z</time>
      </trkpt>
      <trkpt lat="52.07495" lon="4.31132">
        <ele>54.634707</ele>
        <time>2024-07-04T10:53:46.323Z</time>
      </trkpt>
      <trkpt lat="52.07501" lon="4.31143">
        <ele>54.476534</ele>
        <time>2024-07-04T10:53:49.325Z</time>
      </trkpt>
      <trkpt lat="52.0751" lon="4.31156">
        <ele>54.266966</ele>
        <time>2024-07-04T10:53:53.334Z</time>
      </trkpt>
      <trkpt lat="52.07518" lon="4.3117">
        <ele>54.069831</ele>
        <time>2024-07-04T10:53:56.298Z</time>
      </trkpt>
      <trkpt lat="52.07525" lon="4.31183">
        <ele>53.882224</ele>
        <time>2024-07-04T10:53:59.304Z</time>
      </trkpt>
      <trkpt lat="52.07533" lon="4.31197">
        <ele>53.684403</ele>
        <time>2024-07-04T10:54:02.320Z</time>
      </trkpt>
      <trkpt lat="52.0754" lon="4.31208">
        <ele>53.504657</ele>
        <time>2024-07-04T10:54:05.304Z</time>
      </trkpt>
      <trkpt lat="52.07546" lon="4.31221">
        <ele>53.336474</ele>
        <time>2024-07-04T10:54:08.311Z</time>
      </trkpt>
      <trkpt lat="52.07554" lon="4.31233">
        <ele>53.149269</ele>
        <time>2024-07-04T10:54:11.321Z</time>
      </trkpt>
      <trkpt lat="52.07559" lon="4.31245">
        <ele>52.99049</ele>
        <time>2024-07-04T10:54:14.307Z</time>
      </trkpt>
      <trkpt lat="52.07567" lon="4.31258">
        <ele>52.799717</ele>
        <time>2024-07-04T10:54:54.301Z</time>
      </trkpt>
      <trkpt lat="52.07567" lon="4.31257">
        <ele>52.7895</ele>
        <time>2024-07-04T10:54:59.873Z</time>
      </trkpt>
      <trkpt lat="52.0757" lon="4.31272">
        <ele>52.617584</ele>
        <time>2024-07-04T11:54:51.304Z</time>
      </trkpt>
      <trkpt lat="52.07575" lon="4.31285">
        <ele>52.45473</ele>
        <time>2024-07-04T11:54:56.305Z</time>
      </trkpt>
      <trkpt lat="52.07581" lon="4.31299">
        <ele>52.299366</ele>
        <time>2024-07-04T11:55:01.298Z</time>
      </trkpt>
      <trkpt lat="52.07588" lon="4.31313">
        <ele>52.126875</ele>
        <time>2024-07-04T11:55:05.307Z</time>
      </trkpt>
      <trkpt lat="52.07595" lon="4.31328">
        <ele>51.953451</ele>
        <time>2024-07-04T11:55:09.304Z</time>
      </trkpt>
      <trkpt lat="52.076" lon="4.3134">
        <ele>51.815053</ele>
        <time>2024-07-04T11:55:13.298Z</time>
      </trkpt>
      <trkpt lat="52.07607" lon="4.31355">
        <ele>51.64274</ele>
        <time>2024-07-04T11:55:18.314Z</time>
      </trkpt>
      <trkpt lat="52.07613" lon="4.31367">
        <ele>51.497859</ele>
        <time>2024-07-04T11:55:23.299Z</time>
      </trkpt>
      <trkpt lat="52.07618" lon="4.31379">
        <ele>51.355715</ele>
        <time>2024-07-04T11:55:28.305Z</time>
      </trkpt>
      <trkpt lat="52.07624" lon="4.31393">
        <ele>51.200682</ele>
        <time>2024-07-04T11:55:33.310Z</time>
      </trkpt>
      <trkpt lat="52.07629" lon="4.31406">
        <ele>51.051393</ele>
        <time>2024-07-04T11:55:38.298Z</time>
      </trkpt>
      <trkpt lat="52.07634" lon="4.31419">
        <ele>50.910139</ele>
        <time>2024-07-04T11:55:42.300Z</time>
      </trkpt>
      <trkpt lat="52.07641" lon="4.3143">
        <ele>50.760536</ele>
        <time>2024-07-04T11:55:47.323Z</time>
      </trkpt>
      <trkpt lat="52.07632" lon="4.31447">
        <ele>50.547064</ele>
        <time>2024-07-04T11:56:11.308Z</time>
      </trkpt>
      <trkpt lat="52.07624" lon="4.31457">
        <ele>50.400448</ele>
        <time>2024-07-04T11:56:16.304Z</time>
      </trkpt>
      <trkpt lat="52.07616" lon="4.31465">
        <ele>50.257149</ele>
        <time>2024-07-04T11:56:21.310Z</time>
      </trkpt>
      <trkpt lat="52.07609" lon="4.31476">
        <ele>50.107285</ele>
        <time>2024-07-04T11:56:27.287Z</time>
      </trkpt>
      <trkpt lat="52.07603" lon="4.31487">
        <ele>49.969542</ele>
        <time>2024-07-04T11:56:33.287Z</time>
      </trkpt>
      <trkpt lat="52.07591" lon="4.31506">
        <ele>49.714821</ele>
        <time>2024-07-04T11:57:38.300Z</time>
      </trkpt>
      <trkpt lat="52.07586" lon="4.31522">
        <ele>49.667114</ele>
        <time>2024-07-04T11:57:42.305Z</time>
      </trkpt>
      <trkpt lat="52.07588" lon="4.31539">
        <ele>49.671678</ele>
        <time>2024-07-04T11:57:46.300Z</time>
      </trkpt>
      <trkpt lat="52.07593" lon="4.31552">
        <ele>49.675719</ele>
        <time>2024-07-04T11:57:49.294Z</time>
      </trkpt>
      <trkpt lat="52.07599" lon="4.31565">
        <ele>49.679861</ele>
        <time>2024-07-04T11:57:52.319Z</time>
      </trkpt>
      <trkpt lat="52.07604" lon="4.31578">
        <ele>49.684199</ele>
        <time>2024-07-04T11:57:55.350Z</time>
      </trkpt>
      <trkpt lat="52.07611" lon="4.31593">
        <ele>49.688962</ele>
        <time>2024-07-04T11:57:58.328Z</time>
      </trkpt>
      <trkpt lat="52.07618" lon="4.3161">
        <ele>49.694456</ele>
        <time>2024-07-04T11:58:01.330Z</time>
      </trkpt>
      <trkpt lat="52.07625" lon="4.31625">
        <ele>49.699412</ele>
        <time>2024-07-04T11:58:04.298Z</time>
      </trkpt>
      <trkpt lat="52.07631" lon="4.31642">
        <ele>49.704372</ele>
        <time>2024-07-04T11:58:07.316Z</time>
      </trkpt>
      <trkpt lat="52.07637" lon="4.31655">
        <ele>49.70876</ele>
        <time>2024-07-04T11:58:10.315Z</time>
      </trkpt>
      <trkpt lat="52.07643" lon="4.31669">
        <ele>49.713298</ele>
        <time>2024-07-04T11:58:14.320Z</time>
      </trkpt>
      <trkpt lat="52.07654" lon="4.31673">
        <ele>49.717975</ele>
        <time>2024-07-04T11:58:20.308Z</time>
      </trkpt>
      <trkpt lat="52.07662" lon="4.31661">
        <ele>49.722582</ele>
        <time>2024-07-04T11:58:24.309Z</time>
      </trkpt>
      <trkpt lat="52.07669" lon="4.3165">
        <ele>49.726679</ele>
        <time>2024-07-04T11:58:28.310Z</time>
      </trkpt>
      <trkpt lat="52.07663" lon="4.31637">
        <ele>49.730872</ele>
        <time>2024-07-04T11:58:33.310Z</time>
      </trkpt>
      <trkpt lat="52.07657" lon="4.31623">
        <ele>49.735337</ele>
        <time>2024-07-04T11:58:38.315Z</time>
      </trkpt>
      <trkpt lat="52.07652" lon="4.3161">
        <ele>49.739331</ele>
        <time>2024-07-04T11:58:43.320Z</time>
      </trkpt>
      <trkpt lat="52.07654" lon="4.31594">
        <ele>49.758819</ele>
        <time>2024-07-04T11:58:48.305Z</time>
      </trkpt>
      <trkpt lat="52.07656" lon="4.31579">
        <ele>49.784335</ele>
        <time>2024-07-04T11:58:52.293Z</time>
      </trkpt>
      <trkpt lat="52.07654" lon="4.31563">
        <ele>49.812803</ele>
        <time>2024-07-04T11:58:56.309Z</time>
      </trkpt>
      <trkpt lat="52.07648" lon="4.31547">
        <ele>49.843768</ele>
        <time>2024-07-04T11:59:00.314Z</time>
      </trkpt>
      <trkpt lat="52.07642" lon="4.31533">
        <ele>49.872882</ele>
        <time>2024-07-04T11:59:05.313Z</time>
      </trkpt>
      <trkpt lat="52.07635" lon="4.31522">
        <ele>49.900888</ele>
        <time>2024-07-04T11:59:13.295Z</time>
      </trkpt>
      <trkpt lat="52.07637" lon="4.31528">
        <ele>49.913164</ele>
        <time>2024-07-04T12:01:52.414Z</time>
      </trkpt>
      <trkpt lat="52.07627" lon="4.31527">
        <ele>49.941222</ele>
        <time>2024-07-04T12:05:43.296Z</time>
      </trkpt>
      <trkpt lat="52.07636" lon="4.31533">
        <ele>49.967207</ele>
        <time>2024-07-04T12:05:59.308Z</time>
      </trkpt>
      <trkpt lat="52.07646" lon="4.31542">
        <ele>49.999044</ele>
        <time>2024-07-04T12:06:58.313Z</time>
      </trkpt>
      <trkpt lat="52.07651" lon="4.31555">
        <ele>50.024335</ele>
        <time>2024-07-04T12:07:02.289Z</time>
      </trkpt>
      <trkpt lat="52.07655" lon="4.31568">
        <ele>50.049411</ele>
        <time>2024-07-04T12:07:06.303Z</time>
      </trkpt>
      <trkpt lat="52.07655" lon="4.31586">
        <ele>50.080332</ele>
        <time>2024-07-04T12:07:10.296Z</time>
      </trkpt>
      <trkpt lat="52.07655" lon="4.31601">
        <ele>50.105754</ele>
        <time>2024-07-04T12:07:14.314Z</time>
      </trkpt>
      <trkpt lat="52.07657" lon="4.31618">
        <ele>50.135732</ele>
        <time>2024-07-04T12:07:19.314Z</time>
      </trkpt>
      <trkpt lat="52.07663" lon="4.31633">
        <ele>50.166272</ele>
        <time>2024-07-04T12:07:23.317Z</time>
      </trkpt>
      <trkpt lat="52.0767" lon="4.31644">
        <ele>50.19274</ele>
        <time>2024-07-04T12:07:28.302Z</time>
      </trkpt>
      <trkpt lat="52.07681" lon="4.3163">
        <ele>50.232355</ele>
        <time>2024-07-04T12:08:17.323Z</time>
      </trkpt>
      <trkpt lat="52.07688" lon="4.31619">
        <ele>50.458695</ele>
        <time>2024-07-04T12:08:23.307Z</time>
      </trkpt>
      <trkpt lat="52.07696" lon="4.31608">
        <ele>50.778142</ele>
        <time>2024-07-04T12:08:27.332Z</time>
      </trkpt>
      <trkpt lat="52.07702" lon="4.31597">
        <ele>51.096275</ele>
        <time>2024-07-04T12:08:32.298Z</time>
      </trkpt>
      <trkpt lat="52.0771" lon="4.31588">
        <ele>51.387312</ele>
        <time>2024-07-04T12:08:37.296Z</time>
      </trkpt>
      <trkpt lat="52.07716" lon="4.31577">
        <ele>51.680245</ele>
        <time>2024-07-04T12:08:41.294Z</time>
      </trkpt>
      <trkpt lat="52.07721" lon="4.31565">
        <ele>51.96992</ele>
        <time>2024-07-04T12:08:48.293Z</time>
      </trkpt>
      <trkpt lat="52.07728" lon="4.31551">
        <ele>52.320779</ele>
        <time>2024-07-04T12:08:54.298Z</time>
      </trkpt>
      <trkpt lat="52.07736" lon="4.31539">
        <ele>52.664996</ele>
        <time>2024-07-04T12:08:59.303Z</time>
      </trkpt>
      <trkpt lat="52.07743" lon="4.31525">
        <ele>53.020035</ele>
        <time>2024-07-04T12:09:03.306Z</time>
      </trkpt>
      <trkpt lat="52.0775" lon="4.31511">
        <ele>53.369882</ele>
        <time>2024-07-04T12:09:07.317Z</time>
      </trkpt>
      <trkpt lat="52.07754" lon="4.31496">
        <ele>53.695598</ele>
        <time>2024-07-04T12:09:15.286Z</time>
      </trkpt>
      <trkpt lat="52.07752" lon="4.31482">
        <ele>53.984535</ele>
        <time>2024-07-04T12:09:22.289Z</time>
      </trkpt>
      <trkpt lat="52.07746" lon="4.31472">
        <ele>54.272428</ele>
        <time>2024-07-04T12:09:30.286Z</time>
      </trkpt>
      <trkpt lat="52.07741" lon="4.31457">
        <ele>54.595105</ele>
        <time>2024-07-04T12:09:40.298Z</time>
      </trkpt>
      <trkpt lat="52.07736" lon="4.31445">
        <ele>54.883023</ele>
        <time>2024-07-04T12:09:46.280Z</time>
      </trkpt>
      <trkpt lat="52.07732" lon="4.31431">
        <ele>55.171443</ele>
        <time>2024-07-04T12:09:53.288Z</time>
      </trkpt>
      <trkpt lat="52.07727" lon="4.31419">
        <ele>55.463237</ele>
        <time>2024-07-04T12:10:00.307Z</time>
      </trkpt>
      <trkpt lat="52.07722" lon="4.31406">
        <ele>55.759146</ele>
        <time>2024-07-04T12:10:06.332Z</time>
      </trkpt>
      <trkpt lat="52.07716" lon="4.31392">
        <ele>55.859695</ele>
        <time>2024-07-04T12:10:11.320Z</time>
      </trkpt>
      <trkpt lat="52.07711" lon="4.31378">
        <ele>55.527147</ele>
        <time>2024-07-04T12:10:16.328Z</time>
      </trkpt>
      <trkpt lat="52.07705" lon="4.31364">
        <ele>55.178209</ele>
        <time>2024-07-04T12:10:22.298Z</time>
      </trkpt>
      <trkpt lat="52.077" lon="4.3135">
        <ele>54.859772</ele>
        <time>2024-07-04T12:10:27.326Z</time>
      </trkpt>
      <trkpt lat="52.07698" lon="4.31335">
        <ele>54.538762</ele>
        <time>2024-07-04T12:10:34.308Z</time>
      </trkpt>
      <trkpt lat="52.077" lon="4.31346">
        <ele>54.294443</ele>
        <time>2024-07-04T12:11:26.048Z</time>
      </trkpt>
      <trkpt lat="52.07705" lon="4.31359">
        <ele>53.99481</ele>
        <time>2024-07-04T12:38:42.332Z</time>
      </trkpt>
      <trkpt lat="52.07711" lon="4.3137">
        <ele>53.690601</ele>
        <time>2024-07-04T12:38:58.317Z</time>
      </trkpt>
      <trkpt lat="52.07718" lon="4.31382">
        <ele>53.379356</ele>
        <time>2024-07-04T12:39:04.310Z</time>
      </trkpt>
      <trkpt lat="52.07725" lon="4.31394">
        <ele>53.040536</ele>
        <time>2024-07-04T12:39:09.320Z</time>
      </trkpt>
      <trkpt lat="52.07731" lon="4.31405">
        <ele>52.742509</ele>
        <time>2024-07-04T12:39:13.317Z</time>
      </trkpt>
      <trkpt lat="52.07736" lon="4.31418">
        <ele>52.418227</ele>
        <time>2024-07-04T12:39:17.313Z</time>
      </trkpt>
      <trkpt lat="52.07742" lon="4.31434">
        <ele>52.045889</ele>
        <time>2024-07-04T12:39:21.322Z</time>
      </trkpt>
      <trkpt lat="52.07748" lon="4.3145">
        <ele>51.665483</ele>
        <time>2024-07-04T12:39:25.318Z</time>
      </trkpt>
      <trkpt lat="52.07753" lon="4.31465">
        <ele>51.332739</ele>
        <time>2024-07-04T12:39:28.304Z</time>
      </trkpt>
      <trkpt lat="52.07757" lon="4.31481">
        <ele>50.973027</ele>
        <time>2024-07-04T12:39:32.309Z</time>
      </trkpt>
      <trkpt lat="52.07755" lon="4.31496">
        <ele>50.649089</ele>
        <time>2024-07-04T12:39:37.319Z</time>
      </trkpt>
      <trkpt lat="52.07758" lon="4.31513">
        <ele>50.313591</ele>
        <time>2024-07-04T12:39:46.300Z</time>
      </trkpt>
      <trkpt lat="52.0776" lon="4.31528">
        <ele>50.074265</ele>
        <time>2024-07-04T12:39:50.308Z</time>
      </trkpt>
      <trkpt lat="52.07765" lon="4.31543">
        <ele>50.100469</ele>
        <time>2024-07-04T12:39:54.305Z</time>
      </trkpt>
      <trkpt lat="52.07771" lon="4.31556">
        <ele>50.12596</ele>
        <time>2024-07-04T12:39:57.307Z</time>
      </trkpt>
      <trkpt lat="52.07776" lon="4.31571">
        <ele>50.151154</ele>
        <time>2024-07-04T12:40:00.317Z</time>
      </trkpt>
      <trkpt lat="52.07781" lon="4.31585">
        <ele>50.176583</ele>
        <time>2024-07-04T12:40:03.314Z</time>
      </trkpt>
      <trkpt lat="52.07789" lon="4.31617">
        <ele>50.229298</ele>
        <time>2024-07-04T12:40:24.295Z</time>
      </trkpt>
      <trkpt lat="52.07794" lon="4.31634">
        <ele>50.258665</ele>
        <time>2024-07-04T12:40:28.292Z</time>
      </trkpt>
      <trkpt lat="52.07799" lon="4.31647">
        <ele>50.281456</ele>
        <time>2024-07-04T12:40:31.322Z</time>
      </trkpt>
      <trkpt lat="52.07803" lon="4.31661">
        <ele>50.304674</ele>
        <time>2024-07-04T12:40:34.301Z</time>
      </trkpt>
      <trkpt lat="52.07808" lon="4.31676">
        <ele>50.332055</ele>
        <time>2024-07-04T12:40:37.316Z</time>
      </trkpt>
      <trkpt lat="52.07813" lon="4.31694">
        <ele>50.361312</ele>
        <time>2024-07-04T12:40:40.320Z</time>
      </trkpt>
      <trkpt lat="52.07819" lon="4.31712">
        <ele>50.392496</ele>
        <time>2024-07-04T12:40:43.314Z</time>
      </trkpt>
      <trkpt lat="52.07824" lon="4.3173">
        <ele>50.42284</ele>
        <time>2024-07-04T12:40:46.319Z</time>
      </trkpt>
      <trkpt lat="52.0783" lon="4.31749">
        <ele>50.454838</ele>
        <time>2024-07-04T12:40:49.305Z</time>
      </trkpt>
      <trkpt lat="52.07836" lon="4.31767">
        <ele>50.486157</ele>
        <time>2024-07-04T12:40:52.316Z</time>
      </trkpt>
      <trkpt lat="52.07843" lon="4.31785">
        <ele>50.551963</ele>
        <time>2024-07-04T12:40:55.314Z</time>
      </trkpt>
      <trkpt lat="52.07846" lon="4.31799">
        <ele>50.964691</ele>
        <time>2024-07-04T12:40:57.309Z</time>
      </trkpt>
      <trkpt lat="52.07847" lon="4.31814">
        <ele>51.3745</ele>
        <time>2024-07-04T12:40:59.309Z</time>
      </trkpt>
      <trkpt lat="52.07853" lon="4.31831">
        <ele>51.910641</ele>
        <time>2024-07-04T12:41:02.299Z</time>
      </trkpt>
      <trkpt lat="52.0786" lon="4.3185">
        <ele>52.488475</ele>
        <time>2024-07-04T12:41:05.299Z</time>
      </trkpt>
      <trkpt lat="52.07868" lon="4.31862">
        <ele>52.993617</ele>
        <time>2024-07-04T12:41:08.281Z</time>
      </trkpt>
      <trkpt lat="52.07877" lon="4.31868">
        <ele>53.403163</ele>
        <time>2024-07-04T12:41:11.309Z</time>
      </trkpt>
      <trkpt lat="52.07887" lon="4.31866">
        <ele>53.874386</ele>
        <time>2024-07-04T12:41:15.301Z</time>
      </trkpt>
      <trkpt lat="52.07898" lon="4.31862">
        <ele>54.363181</ele>
        <time>2024-07-04T12:41:19.309Z</time>
      </trkpt>
      <trkpt lat="52.07908" lon="4.31863">
        <ele>54.788483</ele>
        <time>2024-07-04T12:41:26.290Z</time>
      </trkpt>
      <trkpt lat="52.07917" lon="4.31859">
        <ele>55.237747</ele>
        <time>2024-07-04T12:41:34.305Z</time>
      </trkpt>
      <trkpt lat="52.07928" lon="4.31856">
        <ele>55.716232</ele>
        <time>2024-07-04T12:41:39.286Z</time>
      </trkpt>
      <trkpt lat="52.07937" lon="4.31854">
        <ele>56.122218</ele>
        <time>2024-07-04T12:41:42.317Z</time>
      </trkpt>
      <trkpt lat="52.07947" lon="4.31853">
        <ele>56.556545</ele>
        <time>2024-07-04T12:41:45.287Z</time>
      </trkpt>
      <trkpt lat="52.07957" lon="4.31852">
        <ele>56.987377</ele>
        <time>2024-07-04T12:41:48.306Z</time>
      </trkpt>
      <trkpt lat="52.07967" lon="4.3185">
        <ele>57.448997</ele>
        <time>2024-07-04T12:41:51.315Z</time>
      </trkpt>
      <trkpt lat="52.07978" lon="4.31846">
        <ele>57.954606</ele>
        <time>2024-07-04T12:41:54.289Z</time>
      </trkpt>
      <trkpt lat="52.07987" lon="4.31844">
        <ele>58.356896</ele>
        <time>2024-07-04T12:41:57.300Z</time>
      </trkpt>
      <trkpt lat="52.07997" lon="4.31841">
        <ele>58.137262</ele>
        <time>2024-07-04T12:42:00.290Z</time>
      </trkpt>
      <trkpt lat="52.08006" lon="4.3184">
        <ele>57.665592</ele>
        <time>2024-07-04T12:42:03.303Z</time>
      </trkpt>
      <trkpt lat="52.08016" lon="4.31839">
        <ele>57.206458</ele>
        <time>2024-07-04T12:42:07.327Z</time>
      </trkpt>
      <trkpt lat="52.08025" lon="4.31838">
        <ele>56.729882</ele>
        <time>2024-07-04T12:42:13.304Z</time>
      </trkpt>
      <trkpt lat="52.08036" lon="4.31838">
        <ele>56.206716</ele>
        <time>2024-07-04T12:42:21.295Z</time>
      </trkpt>
      <trkpt lat="52.08046" lon="4.31847">
        <ele>55.631166</ele>
        <time>2024-07-04T12:42:25.318Z</time>
      </trkpt>
      <trkpt lat="52.08053" lon="4.31859">
        <ele>55.14602</ele>
        <time>2024-07-04T12:42:28.296Z</time>
      </trkpt>
      <trkpt lat="52.08059" lon="4.31873">
        <ele>54.620183</ele>
        <time>2024-07-04T12:42:31.306Z</time>
      </trkpt>
      <trkpt lat="52.08064" lon="4.31887">
        <ele>54.131697</ele>
        <time>2024-07-04T12:42:34.307Z</time>
      </trkpt>
      <trkpt lat="52.0807" lon="4.31902">
        <ele>53.563007</ele>
        <time>2024-07-04T12:42:37.310Z</time>
      </trkpt>
      <trkpt lat="52.08076" lon="4.31918">
        <ele>52.994448</ele>
        <time>2024-07-04T12:42:40.305Z</time>
      </trkpt>
      <trkpt lat="52.08083" lon="4.31935">
        <ele>52.381794</ele>
        <time>2024-07-04T12:42:43.305Z</time>
      </trkpt>
      <trkpt lat="52.08091" lon="4.31951">
        <ele>51.774946</ele>
        <time>2024-07-04T12:42:46.327Z</time>
      </trkpt>
      <trkpt lat="52.08098" lon="4.31966">
        <ele>51.199814</ele>
        <time>2024-07-04T12:42:49.305Z</time>
      </trkpt>
      <trkpt lat="52.08105" lon="4.31982">
        <ele>50.584664</ele>
        <time>2024-07-04T12:42:52.304Z</time>
      </trkpt>
      <trkpt lat="52.08112" lon="4.31998">
        <ele>49.997152</ele>
        <time>2024-07-04T12:42:55.295Z</time>
      </trkpt>
      <trkpt lat="52.08117" lon="4.32014">
        <ele>49.51368</ele>
        <time>2024-07-04T12:42:58.307Z</time>
      </trkpt>
      <trkpt lat="52.08121" lon="4.32028">
        <ele>49.23819</ele>
        <time>2024-07-04T12:43:04.308Z</time>
      </trkpt>
      <trkpt lat="52.08126" lon="4.32041">
        <ele>48.964813</ele>
        <time>2024-07-04T12:43:10.293Z</time>
      </trkpt>
      <trkpt lat="52.08133" lon="4.32057">
        <ele>48.636994</ele>
        <time>2024-07-04T12:43:14.293Z</time>
      </trkpt>
      <trkpt lat="52.08138" lon="4.32069">
        <ele>48.372559</ele>
        <time>2024-07-04T12:43:16.303Z</time>
      </trkpt>
      <trkpt lat="52.08145" lon="4.32088">
        <ele>47.972624</ele>
        <time>2024-07-04T12:43:19.327Z</time>
      </trkpt>
      <trkpt lat="52.0815" lon="4.321">
        <ele>47.71255</ele>
        <time>2024-07-04T12:43:21.328Z</time>
      </trkpt>
      <trkpt lat="52.08157" lon="4.32118">
        <ele>47.347319</ele>
        <time>2024-07-04T12:43:24.310Z</time>
      </trkpt>
      <trkpt lat="52.08166" lon="4.32135">
        <ele>46.952269</ele>
        <time>2024-07-04T12:43:27.307Z</time>
      </trkpt>
      <trkpt lat="52.08171" lon="4.32147">
        <ele>46.688098</ele>
        <time>2024-07-04T12:43:29.301Z</time>
      </trkpt>
      <trkpt lat="52.08176" lon="4.32164">
        <ele>46.345996</ele>
        <time>2024-07-04T12:43:32.291Z</time>
      </trkpt>
      <trkpt lat="52.08182" lon="4.32179">
        <ele>46.033597</ele>
        <time>2024-07-04T12:43:35.309Z</time>
      </trkpt>
      <trkpt lat="52.08188" lon="4.32193">
        <ele>45.738934</ele>
        <time>2024-07-04T12:43:39.298Z</time>
      </trkpt>
      <trkpt lat="52.08196" lon="4.32204">
        <ele>45.431354</ele>
        <time>2024-07-04T12:43:43.308Z</time>
      </trkpt>
      <trkpt lat="52.08202" lon="4.32216">
        <ele>45.160222</ele>
        <time>2024-07-04T12:43:46.302Z</time>
      </trkpt>
      <trkpt lat="52.08211" lon="4.32211">
        <ele>44.895795</ele>
        <time>2024-07-04T12:43:56.301Z</time>
      </trkpt>
      <trkpt lat="52.08219" lon="4.32198">
        <ele>44.568685</ele>
        <time>2024-07-04T12:44:00.295Z</time>
      </trkpt>
      <trkpt lat="52.08229" lon="4.32205">
        <ele>44.444164</ele>
        <time>2024-07-04T12:44:04.296Z</time>
      </trkpt>
      <trkpt lat="52.08236" lon="4.3222">
        <ele>44.484475</ele>
        <time>2024-07-04T12:44:07.290Z</time>
      </trkpt>
      <trkpt lat="52.0824" lon="4.32235">
        <ele>44.521834</ele>
        <time>2024-07-04T12:44:10.312Z</time>
      </trkpt>
      <trkpt lat="52.08246" lon="4.32252">
        <ele>44.566562</ele>
        <time>2024-07-04T12:44:13.301Z</time>
      </trkpt>
      <trkpt lat="52.0825" lon="4.3227">
        <ele>44.607306</ele>
        <time>2024-07-04T12:44:16.304Z</time>
      </trkpt>
      <trkpt lat="52.08254" lon="4.32287">
        <ele>44.64748</ele>
        <time>2024-07-04T12:44:19.298Z</time>
      </trkpt>
      <trkpt lat="52.08258" lon="4.32302">
        <ele>44.684843</ele>
        <time>2024-07-04T12:44:22.295Z</time>
      </trkpt>
      <trkpt lat="52.08264" lon="4.32317">
        <ele>44.723734</ele>
        <time>2024-07-04T12:44:25.314Z</time>
      </trkpt>
      <trkpt lat="52.0827" lon="4.32334">
        <ele>44.767125</ele>
        <time>2024-07-04T12:44:28.308Z</time>
      </trkpt>
      <trkpt lat="52.08277" lon="4.3235">
        <ele>44.810329</ele>
        <time>2024-07-04T12:44:31.303Z</time>
      </trkpt>
      <trkpt lat="52.08283" lon="4.32366">
        <ele>44.851643</ele>
        <time>2024-07-04T12:44:34.303Z</time>
      </trkpt>
      <trkpt lat="52.08289" lon="4.32383">
        <ele>44.895797</ele>
        <time>2024-07-04T12:44:37.298Z</time>
      </trkpt>
      <trkpt lat="52.08297" lon="4.32402">
        <ele>44.945271</ele>
        <time>2024-07-04T12:44:40.301Z</time>
      </trkpt>
      <trkpt lat="52.083" lon="4.32419">
        <ele>44.986368</ele>
        <time>2024-07-04T12:44:43.301Z</time>
      </trkpt>
      <trkpt lat="52.08305" lon="4.32434">
        <ele>45.022894</ele>
        <time>2024-07-04T12:44:46.318Z</time>
      </trkpt>
      <trkpt lat="52.0831" lon="4.32451">
        <ele>45.065301</ele>
        <time>2024-07-04T12:44:49.304Z</time>
      </trkpt>
      <trkpt lat="52.08312" lon="4.32467">
        <ele>44.899729</ele>
        <time>2024-07-04T12:44:51.317Z</time>
      </trkpt>
      <trkpt lat="52.08317" lon="4.32485">
        <ele>44.656068</ele>
        <time>2024-07-04T12:44:54.307Z</time>
      </trkpt>
      <trkpt lat="52.08321" lon="4.32499">
        <ele>44.482015</ele>
        <time>2024-07-04T12:44:56.299Z</time>
      </trkpt>
      <trkpt lat="52.0833" lon="4.32505">
        <ele>44.301367</ele>
        <time>2024-07-04T12:44:58.299Z</time>
      </trkpt>
      <trkpt lat="52.08342" lon="4.32501">
        <ele>44.056782</ele>
        <time>2024-07-04T12:45:01.296Z</time>
      </trkpt>
      <trkpt lat="52.08353" lon="4.32492">
        <ele>43.824188</ele>
        <time>2024-07-04T12:45:03.297Z</time>
      </trkpt>
      <trkpt lat="52.08362" lon="4.32488">
        <ele>43.643386</ele>
        <time>2024-07-04T12:45:05.302Z</time>
      </trkpt>
      <trkpt lat="52.08371" lon="4.32483">
        <ele>43.457738</ele>
        <time>2024-07-04T12:45:08.298Z</time>
      </trkpt>
      <trkpt lat="52.0838" lon="4.32479">
        <ele>43.281468</ele>
        <time>2024-07-04T12:45:11.309Z</time>
      </trkpt>
      <trkpt lat="52.08392" lon="4.32478">
        <ele>43.043365</ele>
        <time>2024-07-04T12:45:14.289Z</time>
      </trkpt>
      <trkpt lat="52.08403" lon="4.32482">
        <ele>42.825178</ele>
        <time>2024-07-04T12:45:17.296Z</time>
      </trkpt>
      <trkpt lat="52.08411" lon="4.32489">
        <ele>42.642275</ele>
        <time>2024-07-04T12:45:19.285Z</time>
      </trkpt>
      <trkpt lat="52.08419" lon="4.32499">
        <ele>42.450447</ele>
        <time>2024-07-04T12:45:21.292Z</time>
      </trkpt>
      <trkpt lat="52.08425" lon="4.3251">
        <ele>42.270543</ele>
        <time>2024-07-04T12:45:23.287Z</time>
      </trkpt>
      <trkpt lat="52.08433" lon="4.32523">
        <ele>42.058832</ele>
        <time>2024-07-04T12:45:26.299Z</time>
      </trkpt>
      <trkpt lat="52.08439" lon="4.32539">
        <ele>41.833361</ele>
        <time>2024-07-04T12:45:29.317Z</time>
      </trkpt>
      <trkpt lat="52.08443" lon="4.32555">
        <ele>41.628387</ele>
        <time>2024-07-04T12:45:32.291Z</time>
      </trkpt>
      <trkpt lat="52.08446" lon="4.32569">
        <ele>41.607226</ele>
        <time>2024-07-04T12:45:35.311Z</time>
      </trkpt>
      <trkpt lat="52.08448" lon="4.32585">
        <ele>41.621212</ele>
        <time>2024-07-04T12:45:38.302Z</time>
      </trkpt>
      <trkpt lat="52.08451" lon="4.32603">
        <ele>41.638406</ele>
        <time>2024-07-04T12:45:42.280Z</time>
      </trkpt>
      <trkpt lat="52.08454" lon="4.32619">
        <ele>41.652502</ele>
        <time>2024-07-04T12:45:46.297Z</time>
      </trkpt>
      <trkpt lat="52.08457" lon="4.32635">
        <ele>41.667956</ele>
        <time>2024-07-04T12:45:52.296Z</time>
      </trkpt>
      <trkpt lat="52.08463" lon="4.32646">
        <ele>41.681347</ele>
        <time>2024-07-04T12:45:55.299Z</time>
      </trkpt>
      <trkpt lat="52.08471" lon="4.32657">
        <ele>41.695868</ele>
        <time>2024-07-04T12:45:58.323Z</time>
      </trkpt>
      <trkpt lat="52.08481" lon="4.32668">
        <ele>41.712891</ele>
        <time>2024-07-04T12:46:01.301Z</time>
      </trkpt>
      <trkpt lat="52.0849" lon="4.32676">
        <ele>41.727928</ele>
        <time>2024-07-04T12:46:04.309Z</time>
      </trkpt>
      <trkpt lat="52.08501" lon="4.32683">
        <ele>41.744938</ele>
        <time>2024-07-04T12:46:07.289Z</time>
      </trkpt>
      <trkpt lat="52.08512" lon="4.32688">
        <ele>41.761987</ele>
        <time>2024-07-04T12:46:10.312Z</time>
      </trkpt>
      <trkpt lat="52.08522" lon="4.32691">
        <ele>41.775785</ele>
        <time>2024-07-04T12:46:13.289Z</time>
      </trkpt>
      <trkpt lat="52.08531" lon="4.32694">
        <ele>41.789615</ele>
        <time>2024-07-04T12:46:16.313Z</time>
      </trkpt>
      <trkpt lat="52.0854" lon="4.32699">
        <ele>41.803043</ele>
        <time>2024-07-04T12:46:19.312Z</time>
      </trkpt>
      <trkpt lat="52.08548" lon="4.32704">
        <ele>41.816441</ele>
        <time>2024-07-04T12:46:22.320Z</time>
      </trkpt>
      <trkpt lat="52.08557" lon="4.32708">
        <ele>41.829788</ele>
        <time>2024-07-04T12:46:25.304Z</time>
      </trkpt>
      <trkpt lat="52.08567" lon="4.32716">
        <ele>41.845209</ele>
        <time>2024-07-04T12:46:29.301Z</time>
      </trkpt>
      <trkpt lat="52.08577" lon="4.32723">
        <ele>41.891791</ele>
        <time>2024-07-04T12:46:34.299Z</time>
      </trkpt>
      <trkpt lat="52.08585" lon="4.3273">
        <ele>41.984384</ele>
        <time>2024-07-04T12:46:39.310Z</time>
      </trkpt>
      <trkpt lat="52.08584" lon="4.32747">
        <ele>42.088803</ele>
        <time>2024-07-04T12:46:46.287Z</time>
      </trkpt>
      <trkpt lat="52.08583" lon="4.32762">
        <ele>42.181031</ele>
        <time>2024-07-04T12:46:52.299Z</time>
      </trkpt>
      <trkpt lat="52.08584" lon="4.32776">
        <ele>42.268702</ele>
        <time>2024-07-04T12:47:03.233Z</time>
      </trkpt>
      <trkpt lat="52.08577" lon="4.3275">
        <ele>42.44297</ele>
        <time>2024-07-04T12:55:51.247Z</time>
      </trkpt>
      <trkpt lat="52.08579" lon="4.32765">
        <ele>42.537776</ele>
        <time>2024-07-04T12:55:54.286Z</time>
      </trkpt>
      <trkpt lat="52.08586" lon="4.32752">
        <ele>42.6399</ele>
        <time>2024-07-04T12:56:02.287Z</time>
      </trkpt>
      <trkpt lat="52.0859" lon="4.32738">
        <ele>42.738691</ele>
        <time>2024-07-04T12:56:11.289Z</time>
      </trkpt>
      <trkpt lat="52.08598" lon="4.32727">
        <ele>42.840153</ele>
        <time>2024-07-04T12:56:16.293Z</time>
      </trkpt>
      <trkpt lat="52.08607" lon="4.32724">
        <ele>42.935827</ele>
        <time>2024-07-04T12:56:20.295Z</time>
      </trkpt>
      <trkpt lat="52.08618" lon="4.32716">
        <ele>43.050757</ele>
        <time>2024-07-04T12:56:24.309Z</time>
      </trkpt>
      <trkpt lat="52.08628" lon="4.32708">
        <ele>43.161004</ele>
        <time>2024-07-04T12:56:28.304Z</time>
      </trkpt>
      <trkpt lat="52.08637" lon="4.32699">
        <ele>43.269772</ele>
        <time>2024-07-04T12:56:33.322Z</time>
      </trkpt>
      <trkpt lat="52.08645" lon="4.32689">
        <ele>43.373726</ele>
        <time>2024-07-04T12:56:37.306Z</time>
      </trkpt>
      <trkpt lat="52.08654" lon="4.32677">
        <ele>43.492776</ele>
        <time>2024-07-04T12:56:41.305Z</time>
      </trkpt>
      <trkpt lat="52.08663" lon="4.32672">
        <ele>43.583904</ele>
        <time>2024-07-04T12:56:45.290Z</time>
      </trkpt>
      <trkpt lat="52.08672" lon="4.32663">
        <ele>43.602659</ele>
        <time>2024-07-04T12:56:51.298Z</time>
      </trkpt>
      <trkpt lat="52.08681" lon="4.32655">
        <ele>43.400178</ele>
        <time>2024-07-04T12:56:56.296Z</time>
      </trkpt>
      <trkpt lat="52.0869" lon="4.32667">
        <ele>43.189157</ele>
        <time>2024-07-04T12:57:01.287Z</time>
      </trkpt>
      <trkpt lat="52.08695" lon="4.32681">
        <ele>42.995294</ele>
        <time>2024-07-04T12:57:04.296Z</time>
      </trkpt>
      <trkpt lat="52.087" lon="4.32695">
        <ele>42.812871</ele>
        <time>2024-07-04T12:57:07.303Z</time>
      </trkpt>
      <trkpt lat="52.08704" lon="4.3271">
        <ele>42.614434</ele>
        <time>2024-07-04T12:57:10.289Z</time>
      </trkpt>
      <trkpt lat="52.08709" lon="4.32724">
        <ele>42.430579</ele>
        <time>2024-07-04T12:57:13.325Z</time>
      </trkpt>
      <trkpt lat="52.08714" lon="4.32739">
        <ele>42.240407</ele>
        <time>2024-07-04T12:57:16.323Z</time>
      </trkpt>
      <trkpt lat="52.0872" lon="4.32754">
        <ele>42.028889</ele>
        <time>2024-07-04T12:57:19.316Z</time>
      </trkpt>
      <trkpt lat="52.08726" lon="4.32771">
        <ele>41.802492</ele>
        <time>2024-07-04T12:57:22.315Z</time>
      </trkpt>
      <trkpt lat="52.08731" lon="4.32788">
        <ele>41.578422</ele>
        <time>2024-07-04T12:57:25.303Z</time>
      </trkpt>
      <trkpt lat="52.08738" lon="4.32803">
        <ele>41.363914</ele>
        <time>2024-07-04T12:57:28.301Z</time>
      </trkpt>
      <trkpt lat="52.08744" lon="4.32817">
        <ele>41.163868</ele>
        <time>2024-07-04T12:57:31.304Z</time>
      </trkpt>
      <trkpt lat="52.0875" lon="4.32834">
        <ele>40.94146</ele>
        <time>2024-07-04T12:57:34.297Z</time>
      </trkpt>
      <trkpt lat="52.08756" lon="4.3285">
        <ele>40.72785</ele>
        <time>2024-07-04T12:57:37.311Z</time>
      </trkpt>
      <trkpt lat="52.08761" lon="4.32864">
        <ele>40.533087</ele>
        <time>2024-07-04T12:57:40.279Z</time>
      </trkpt>
      <trkpt lat="52.08768" lon="4.32877">
        <ele>40.333262</ele>
        <time>2024-07-04T12:57:43.301Z</time>
      </trkpt>
      <trkpt lat="52.08774" lon="4.3289">
        <ele>40.371412</ele>
        <time>2024-07-04T12:57:46.302Z</time>
      </trkpt>
      <trkpt lat="52.08779" lon="4.32903">
        <ele>40.525782</ele>
        <time>2024-07-04T12:57:49.321Z</time>
      </trkpt>
      <trkpt lat="52.08787" lon="4.3292">
        <ele>40.728708</ele>
        <time>2024-07-04T12:57:52.308Z</time>
      </trkpt>
      <trkpt lat="52.08793" lon="4.32936">
        <ele>40.920085</ele>
        <time>2024-07-04T12:57:55.319Z</time>
      </trkpt>
      <trkpt lat="52.08801" lon="4.32951">
        <ele>41.104317</ele>
        <time>2024-07-04T12:57:58.303Z</time>
      </trkpt>
      <trkpt lat="52.08807" lon="4.32965">
        <ele>41.282254</ele>
        <time>2024-07-04T12:58:01.306Z</time>
      </trkpt>
      <trkpt lat="52.08813" lon="4.32978">
        <ele>41.443317</ele>
        <time>2024-07-04T12:58:04.307Z</time>
      </trkpt>
      <trkpt lat="52.0882" lon="4.32991">
        <ele>41.610266</ele>
        <time>2024-07-04T12:58:07.312Z</time>
      </trkpt>
      <trkpt lat="52.08826" lon="4.33006">
        <ele>41.785176</ele>
        <time>2024-07-04T12:58:10.296Z</time>
      </trkpt>
      <trkpt lat="52.08833" lon="4.33021">
        <ele>41.976846</ele>
        <time>2024-07-04T12:58:13.304Z</time>
      </trkpt>
      <trkpt lat="52.0884" lon="4.33035">
        <ele>42.154781</ele>
        <time>2024-07-04T12:58:16.306Z</time>
      </trkpt>
      <trkpt lat="52.08846" lon="4.3305">
        <ele>42.32432</ele>
        <time>2024-07-04T12:58:19.300Z</time>
      </trkpt>
      <trkpt lat="52.08852" lon="4.33063">
        <ele>42.492676</ele>
        <time>2024-07-04T12:58:22.297Z</time>
      </trkpt>
      <trkpt lat="52.08858" lon="4.33078">
        <ele>42.666407</ele>
        <time>2024-07-04T12:58:25.286Z</time>
      </trkpt>
      <trkpt lat="52.08865" lon="4.33093">
        <ele>42.851018</ele>
        <time>2024-07-04T12:58:28.312Z</time>
      </trkpt>
      <trkpt lat="52.08871" lon="4.33108">
        <ele>43.032524</ele>
        <time>2024-07-04T12:58:31.301Z</time>
      </trkpt>
      <trkpt lat="52.08878" lon="4.33119">
        <ele>43.153817</ele>
        <time>2024-07-04T12:58:34.289Z</time>
      </trkpt>
      <trkpt lat="52.08886" lon="4.3313">
        <ele>43.126193</ele>
        <time>2024-07-04T12:58:37.308Z</time>
      </trkpt>
      <trkpt lat="52.08894" lon="4.33139">
        <ele>43.098007</ele>
        <time>2024-07-04T12:58:40.301Z</time>
      </trkpt>
      <trkpt lat="52.08903" lon="4.33145">
        <ele>43.072205</ele>
        <time>2024-07-04T12:58:43.302Z</time>
      </trkpt>
      <trkpt lat="52.08912" lon="4.33152">
        <ele>43.044887</ele>
        <time>2024-07-04T12:58:46.292Z</time>
      </trkpt>
      <trkpt lat="52.08919" lon="4.33161">
        <ele>43.018474</ele>
        <time>2024-07-04T12:58:49.304Z</time>
      </trkpt>
      <trkpt lat="52.08928" lon="4.33169">
        <ele>42.991174</ele>
        <time>2024-07-04T12:58:52.302Z</time>
      </trkpt>
      <trkpt lat="52.08936" lon="4.33177">
        <ele>42.963421</ele>
        <time>2024-07-04T12:58:55.300Z</time>
      </trkpt>
      <trkpt lat="52.08945" lon="4.33185">
        <ele>42.934527</ele>
        <time>2024-07-04T12:58:58.302Z</time>
      </trkpt>
      <trkpt lat="52.08955" lon="4.33194">
        <ele>42.903667</ele>
        <time>2024-07-04T12:59:02.307Z</time>
      </trkpt>
      <trkpt lat="52.08964" lon="4.33203">
        <ele>42.87458</ele>
        <time>2024-07-04T12:59:06.300Z</time>
      </trkpt>
      <trkpt lat="52.08974" lon="4.33211">
        <ele>42.842412</ele>
        <time>2024-07-04T12:59:11.304Z</time>
      </trkpt>
      <trkpt lat="52.08982" lon="4.33219">
        <ele>42.815912</ele>
        <time>2024-07-04T12:59:17.307Z</time>
      </trkpt>
      <trkpt lat="52.08988" lon="4.33231">
        <ele>42.78967</ele>
        <time>2024-07-04T13:01:17.299Z</time>
      </trkpt>
      <trkpt lat="52.08997" lon="4.33239">
        <ele>42.761515</ele>
        <time>2024-07-04T13:01:23.296Z</time>
      </trkpt>
      <trkpt lat="52.09005" lon="4.33246">
        <ele>42.736385</ele>
        <time>2024-07-04T13:01:30.292Z</time>
      </trkpt>
      <trkpt lat="52.09014" lon="4.33253">
        <ele>42.709372</ele>
        <time>2024-07-04T13:01:40.285Z</time>
      </trkpt>
      <trkpt lat="52.09022" lon="4.3326">
        <ele>42.683494</ele>
        <time>2024-07-04T13:01:43.305Z</time>
      </trkpt>
      <trkpt lat="52.09031" lon="4.33269">
        <ele>42.672181</ele>
        <time>2024-07-04T13:01:47.287Z</time>
      </trkpt>
      <trkpt lat="52.0904" lon="4.3328">
        <ele>42.780235</ele>
        <time>2024-07-04T13:01:50.274Z</time>
      </trkpt>
      <trkpt lat="52.09049" lon="4.33288">
        <ele>42.871132</ele>
        <time>2024-07-04T13:01:53.304Z</time>
      </trkpt>
      <trkpt lat="52.09058" lon="4.33298">
        <ele>42.979541</ele>
        <time>2024-07-04T13:01:56.322Z</time>
      </trkpt>
      <trkpt lat="52.09069" lon="4.3331">
        <ele>43.099612</ele>
        <time>2024-07-04T13:01:59.301Z</time>
      </trkpt>
      <trkpt lat="52.09076" lon="4.3332">
        <ele>43.188201</ele>
        <time>2024-07-04T13:02:01.289Z</time>
      </trkpt>
      <trkpt lat="52.09087" lon="4.33336">
        <ele>43.32616</ele>
        <time>2024-07-04T13:02:04.303Z</time>
      </trkpt>
      <trkpt lat="52.09094" lon="4.33346">
        <ele>43.411478</ele>
        <time>2024-07-04T13:02:06.305Z</time>
      </trkpt>
      <trkpt lat="52.09101" lon="4.33358">
        <ele>43.51065</ele>
        <time>2024-07-04T13:02:09.292Z</time>
      </trkpt>
      <trkpt lat="52.09109" lon="4.33372">
        <ele>43.618533</ele>
        <time>2024-07-04T13:02:12.312Z</time>
      </trkpt>
      <trkpt lat="52.09117" lon="4.33389">
        <ele>43.743482</ele>
        <time>2024-07-04T13:02:15.287Z</time>
      </trkpt>
      <trkpt lat="52.09124" lon="4.33403">
        <ele>43.845181</ele>
        <time>2024-07-04T13:02:17.298Z</time>
      </trkpt>
      <trkpt lat="52.0913" lon="4.33416">
        <ele>43.937694</ele>
        <time>2024-07-04T13:02:19.304Z</time>
      </trkpt>
      <trkpt lat="52.09135" lon="4.33429">
        <ele>44.029238</ele>
        <time>2024-07-04T13:02:21.305Z</time>
      </trkpt>
      <trkpt lat="52.09141" lon="4.33447">
        <ele>44.148907</ele>
        <time>2024-07-04T13:02:24.316Z</time>
      </trkpt>
      <trkpt lat="52.09149" lon="4.33464">
        <ele>44.270406</ele>
        <time>2024-07-04T13:02:27.307Z</time>
      </trkpt>
      <trkpt lat="52.09156" lon="4.33479">
        <ele>44.379593</ele>
        <time>2024-07-04T13:02:30.307Z</time>
      </trkpt>
      <trkpt lat="52.09164" lon="4.33496">
        <ele>44.487154</ele>
        <time>2024-07-04T13:02:33.310Z</time>
      </trkpt>
      <trkpt lat="52.0917" lon="4.33512">
        <ele>44.590247</ele>
        <time>2024-07-04T13:02:36.303Z</time>
      </trkpt>
      <trkpt lat="52.09179" lon="4.33528">
        <ele>44.702351</ele>
        <time>2024-07-04T13:02:39.311Z</time>
      </trkpt>
      <trkpt lat="52.09185" lon="4.33539">
        <ele>44.779796</ele>
        <time>2024-07-04T13:02:41.319Z</time>
      </trkpt>
      <trkpt lat="52.09191" lon="4.3355">
        <ele>44.858244</ele>
        <time>2024-07-04T13:02:43.292Z</time>
      </trkpt>
      <trkpt lat="52.09197" lon="4.33562">
        <ele>44.936635</ele>
        <time>2024-07-04T13:02:45.308Z</time>
      </trkpt>
      <trkpt lat="52.09205" lon="4.33578">
        <ele>45.044643</ele>
        <time>2024-07-04T13:02:48.297Z</time>
      </trkpt>
      <trkpt lat="52.09214" lon="4.33593">
        <ele>45.154213</ele>
        <time>2024-07-04T13:02:51.300Z</time>
      </trkpt>
      <trkpt lat="52.09223" lon="4.33607">
        <ele>45.25995</ele>
        <time>2024-07-04T13:02:54.290Z</time>
      </trkpt>
      <trkpt lat="52.09232" lon="4.33621">
        <ele>45.367135</ele>
        <time>2024-07-04T13:02:57.296Z</time>
      </trkpt>
      <trkpt lat="52.0924" lon="4.33637">
        <ele>45.472731</ele>
        <time>2024-07-04T13:03:00.305Z</time>
      </trkpt>
      <trkpt lat="52.09249" lon="4.33651">
        <ele>45.579604</ele>
        <time>2024-07-04T13:03:03.301Z</time>
      </trkpt>
      <trkpt lat="52.09257" lon="4.33667">
        <ele>45.685692</ele>
        <time>2024-07-04T13:03:06.313Z</time>
      </trkpt>
      <trkpt lat="52.09263" lon="4.3368">
        <ele>45.772288</ele>
        <time>2024-07-04T13:03:09.324Z</time>
      </trkpt>
      <trkpt lat="52.09267" lon="4.33695">
        <ele>45.854807</ele>
        <time>2024-07-04T13:03:11.299Z</time>
      </trkpt>
      <trkpt lat="52.09272" lon="4.33707">
        <ele>45.801596</ele>
        <time>2024-07-04T13:03:13.306Z</time>
      </trkpt>
      <trkpt lat="52.09278" lon="4.33723">
        <ele>45.65034</ele>
        <time>2024-07-04T13:03:16.302Z</time>
      </trkpt>
      <trkpt lat="52.09285" lon="4.3374">
        <ele>45.488316</ele>
        <time>2024-07-04T13:03:19.295Z</time>
      </trkpt>
      <trkpt lat="52.0929" lon="4.33753">
        <ele>45.362266</ele>
        <time>2024-07-04T13:03:21.318Z</time>
      </trkpt>
      <trkpt lat="52.09297" lon="4.33769">
        <ele>45.199213</ele>
        <time>2024-07-04T13:03:24.299Z</time>
      </trkpt>
      <trkpt lat="52.09302" lon="4.33782">
        <ele>45.081398</ele>
        <time>2024-07-04T13:03:26.313Z</time>
      </trkpt>
      <trkpt lat="52.09309" lon="4.33801">
        <ele>44.907557</ele>
        <time>2024-07-04T13:03:29.315Z</time>
      </trkpt>
      <trkpt lat="52.09314" lon="4.33815">
        <ele>44.77259</ele>
        <time>2024-07-04T13:03:32.295Z</time>
      </trkpt>
      <trkpt lat="52.09321" lon="4.33828">
        <ele>44.640398</ele>
        <time>2024-07-04T13:03:35.322Z</time>
      </trkpt>
      <trkpt lat="52.09327" lon="4.33841">
        <ele>44.498928</ele>
        <time>2024-07-04T13:03:38.299Z</time>
      </trkpt>
      <trkpt lat="52.09334" lon="4.33856">
        <ele>44.350333</ele>
        <time>2024-07-04T13:03:41.300Z</time>
      </trkpt>
      <trkpt lat="52.0934" lon="4.33869">
        <ele>44.222322</ele>
        <time>2024-07-04T13:03:44.305Z</time>
      </trkpt>
      <trkpt lat="52.09345" lon="4.33882">
        <ele>44.093921</ele>
        <time>2024-07-04T13:03:47.305Z</time>
      </trkpt>
      <trkpt lat="52.09351" lon="4.33897">
        <ele>43.954877</ele>
        <time>2024-07-04T13:03:50.307Z</time>
      </trkpt>
      <trkpt lat="52.09358" lon="4.33913">
        <ele>43.792427</ele>
        <time>2024-07-04T13:03:53.315Z</time>
      </trkpt>
      <trkpt lat="52.09365" lon="4.33928">
        <ele>43.644881</ele>
        <time>2024-07-04T13:03:56.313Z</time>
      </trkpt>
      <trkpt lat="52.0937" lon="4.33945">
        <ele>43.508026</ele>
        <time>2024-07-04T13:03:59.301Z</time>
      </trkpt>
      <trkpt lat="52.09376" lon="4.33958">
        <ele>43.428998</ele>
        <time>2024-07-04T13:04:02.289Z</time>
      </trkpt>
      <trkpt lat="52.0938" lon="4.33971">
        <ele>43.353796</ele>
        <time>2024-07-04T13:04:05.306Z</time>
      </trkpt>
      <trkpt lat="52.09385" lon="4.33984">
        <ele>43.27804</ele>
        <time>2024-07-04T13:04:08.306Z</time>
      </trkpt>
      <trkpt lat="52.0939" lon="4.34">
        <ele>43.190104</ele>
        <time>2024-07-04T13:04:11.296Z</time>
      </trkpt>
      <trkpt lat="52.09396" lon="4.34016">
        <ele>43.095868</ele>
        <time>2024-07-04T13:04:14.303Z</time>
      </trkpt>
      <trkpt lat="52.09402" lon="4.34032">
        <ele>43.003362</ele>
        <time>2024-07-04T13:04:17.304Z</time>
      </trkpt>
      <trkpt lat="52.09407" lon="4.34047">
        <ele>42.92384</ele>
        <time>2024-07-04T13:04:20.293Z</time>
      </trkpt>
      <trkpt lat="52.09413" lon="4.34059">
        <ele>42.844706</ele>
        <time>2024-07-04T13:04:23.312Z</time>
      </trkpt>
      <trkpt lat="52.0942" lon="4.34071">
        <ele>42.762138</ele>
        <time>2024-07-04T13:04:26.305Z</time>
      </trkpt>
      <trkpt lat="52.09426" lon="4.34087">
        <ele>42.671741</ele>
        <time>2024-07-04T13:04:29.301Z</time>
      </trkpt>
      <trkpt lat="52.09433" lon="4.34102">
        <ele>42.575578</ele>
        <time>2024-07-04T13:04:32.309Z</time>
      </trkpt>
      <trkpt lat="52.0944" lon="4.3412">
        <ele>42.467926</ele>
        <time>2024-07-04T13:04:35.317Z</time>
      </trkpt>
      <trkpt lat="52.09447" lon="4.34135">
        <ele>42.37573</ele>
        <time>2024-07-04T13:04:37.307Z</time>
      </trkpt>
      <trkpt lat="52.09453" lon="4.34147">
        <ele>42.297833</ele>
        <time>2024-07-04T13:04:39.308Z</time>
      </trkpt>
      <trkpt lat="52.09461" lon="4.34163">
        <ele>42.201068</ele>
        <time>2024-07-04T13:04:42.290Z</time>
      </trkpt>
      <trkpt lat="52.09468" lon="4.34177">
        <ele>42.10553</ele>
        <time>2024-07-04T13:04:45.308Z</time>
      </trkpt>
      <trkpt lat="52.09475" lon="4.34193">
        <ele>42.154504</ele>
        <time>2024-07-04T13:04:48.306Z</time>
      </trkpt>
      <trkpt lat="52.09481" lon="4.34205">
        <ele>42.24143</ele>
        <time>2024-07-04T13:04:51.301Z</time>
      </trkpt>
      <trkpt lat="52.09486" lon="4.34221">
        <ele>42.347845</ele>
        <time>2024-07-04T13:04:55.300Z</time>
      </trkpt>
      <trkpt lat="52.0949" lon="4.34236">
        <ele>42.441889</ele>
        <time>2024-07-04T13:04:59.315Z</time>
      </trkpt>
      <trkpt lat="52.09494" lon="4.34252">
        <ele>42.534862</ele>
        <time>2024-07-04T13:05:02.316Z</time>
      </trkpt>
      <trkpt lat="52.095" lon="4.34267">
        <ele>42.6402</ele>
        <time>2024-07-04T13:05:05.290Z</time>
      </trkpt>
      <trkpt lat="52.0951" lon="4.34278">
        <ele>42.75644</ele>
        <time>2024-07-04T13:05:08.291Z</time>
      </trkpt>
      <trkpt lat="52.09519" lon="4.34283">
        <ele>42.840971</ele>
        <time>2024-07-04T13:05:11.302Z</time>
      </trkpt>
      <trkpt lat="52.09528" lon="4.34287">
        <ele>42.926205</ele>
        <time>2024-07-04T13:05:14.284Z</time>
      </trkpt>
      <trkpt lat="52.09538" lon="4.34289">
        <ele>43.023417</ele>
        <time>2024-07-04T13:05:17.312Z</time>
      </trkpt>
      <trkpt lat="52.09547" lon="4.34295">
        <ele>43.110295</ele>
        <time>2024-07-04T13:05:20.286Z</time>
      </trkpt>
      <trkpt lat="52.09556" lon="4.34307">
        <ele>43.220105</ele>
        <time>2024-07-04T13:05:24.292Z</time>
      </trkpt>
      <trkpt lat="52.09564" lon="4.3432">
        <ele>43.320624</ele>
        <time>2024-07-04T13:05:27.300Z</time>
      </trkpt>
      <trkpt lat="52.09572" lon="4.34331">
        <ele>43.418111</ele>
        <time>2024-07-04T13:05:30.297Z</time>
      </trkpt>
      <trkpt lat="52.0958" lon="4.34341">
        <ele>43.518139</ele>
        <time>2024-07-04T13:05:33.315Z</time>
      </trkpt>
      <trkpt lat="52.09589" lon="4.34353">
        <ele>43.620667</ele>
        <time>2024-07-04T13:05:36.311Z</time>
      </trkpt>
      <trkpt lat="52.09598" lon="4.34364">
        <ele>43.725437</ele>
        <time>2024-07-04T13:05:39.324Z</time>
      </trkpt>
      <trkpt lat="52.09606" lon="4.34373">
        <ele>43.791086</ele>
        <time>2024-07-04T13:05:42.302Z</time>
      </trkpt>
      <trkpt lat="52.09617" lon="4.34383">
        <ele>43.854463</ele>
        <time>2024-07-04T13:05:45.316Z</time>
      </trkpt>
      <trkpt lat="52.09628" lon="4.34391">
        <ele>43.921602</ele>
        <time>2024-07-04T13:05:48.317Z</time>
      </trkpt>
      <trkpt lat="52.0964" lon="4.34399">
        <ele>43.985944</ele>
        <time>2024-07-04T13:05:51.299Z</time>
      </trkpt>
      <trkpt lat="52.09651" lon="4.34408">
        <ele>44.05287</ele>
        <time>2024-07-04T13:05:54.313Z</time>
      </trkpt>
      <trkpt lat="52.09663" lon="4.3442">
        <ele>44.12299</ele>
        <time>2024-07-04T13:05:57.301Z</time>
      </trkpt>
      <trkpt lat="52.09671" lon="4.3443">
        <ele>44.176462</ele>
        <time>2024-07-04T13:05:59.290Z</time>
      </trkpt>
      <trkpt lat="52.09679" lon="4.34441">
        <ele>44.231169</ele>
        <time>2024-07-04T13:06:01.306Z</time>
      </trkpt>
      <trkpt lat="52.09686" lon="4.34451">
        <ele>44.279183</ele>
        <time>2024-07-04T13:06:03.309Z</time>
      </trkpt>
      <trkpt lat="52.09695" lon="4.34466">
        <ele>44.347878</ele>
        <time>2024-07-04T13:06:06.295Z</time>
      </trkpt>
      <trkpt lat="52.09703" lon="4.34481">
        <ele>44.411273</ele>
        <time>2024-07-04T13:06:09.312Z</time>
      </trkpt>
      <trkpt lat="52.09712" lon="4.34496">
        <ele>44.479202</ele>
        <time>2024-07-04T13:06:12.323Z</time>
      </trkpt>
      <trkpt lat="52.09719" lon="4.34507">
        <ele>44.529364</ele>
        <time>2024-07-04T13:06:14.303Z</time>
      </trkpt>
      <trkpt lat="52.09724" lon="4.34519">
        <ele>44.577105</ele>
        <time>2024-07-04T13:06:16.302Z</time>
      </trkpt>
      <trkpt lat="52.09733" lon="4.34535">
        <ele>44.645664</ele>
        <time>2024-07-04T13:06:19.308Z</time>
      </trkpt>
      <trkpt lat="52.09742" lon="4.3455">
        <ele>44.710354</ele>
        <time>2024-07-04T13:06:22.289Z</time>
      </trkpt>
      <trkpt lat="52.09748" lon="4.34562">
        <ele>44.750598</ele>
        <time>2024-07-04T13:06:24.303Z</time>
      </trkpt>
      <trkpt lat="52.09756" lon="4.34579">
        <ele>44.807219</ele>
        <time>2024-07-04T13:06:27.303Z</time>
      </trkpt>
      <trkpt lat="52.09765" lon="4.34593">
        <ele>44.861177</ele>
        <time>2024-07-04T13:06:30.304Z</time>
      </trkpt>
      <trkpt lat="52.09774" lon="4.34604">
        <ele>44.910649</ele>
        <time>2024-07-04T13:06:33.306Z</time>
      </trkpt>
      <trkpt lat="52.09785" lon="4.34613">
        <ele>44.960318</ele>
        <time>2024-07-04T13:06:36.304Z</time>
      </trkpt>
      <trkpt lat="52.09796" lon="4.34619">
        <ele>45.012123</ele>
        <time>2024-07-04T13:06:39.303Z</time>
      </trkpt>
      <trkpt lat="52.09808" lon="4.34625">
        <ele>45.06623</ele>
        <time>2024-07-04T13:06:42.305Z</time>
      </trkpt>
      <trkpt lat="52.09817" lon="4.3463">
        <ele>45.106801</ele>
        <time>2024-07-04T13:06:44.301Z</time>
      </trkpt>
      <trkpt lat="52.09825" lon="4.34636">
        <ele>45.147451</ele>
        <time>2024-07-04T13:06:46.300Z</time>
      </trkpt>
      <trkpt lat="52.09836" lon="4.34645">
        <ele>45.199792</ele>
        <time>2024-07-04T13:06:49.309Z</time>
      </trkpt>
      <trkpt lat="52.09847" lon="4.34652">
        <ele>45.250356</ele>
        <time>2024-07-04T13:06:52.300Z</time>
      </trkpt>
      <trkpt lat="52.09855" lon="4.34665">
        <ele>45.298178</ele>
        <time>2024-07-04T13:06:55.300Z</time>
      </trkpt>
      <trkpt lat="52.09865" lon="4.34669">
        <ele>45.34138</ele>
        <time>2024-07-04T13:06:58.297Z</time>
      </trkpt>
      <trkpt lat="52.09875" lon="4.34674">
        <ele>45.38743</ele>
        <time>2024-07-04T13:07:01.316Z</time>
      </trkpt>
      <trkpt lat="52.09884" lon="4.34681">
        <ele>45.432914</ele>
        <time>2024-07-04T13:07:04.306Z</time>
      </trkpt>
      <trkpt lat="52.09893" lon="4.34687">
        <ele>45.461366</ele>
        <time>2024-07-04T13:07:07.296Z</time>
      </trkpt>
      <trkpt lat="52.09903" lon="4.34697">
        <ele>45.346704</ele>
        <time>2024-07-04T13:07:10.297Z</time>
      </trkpt>
      <trkpt lat="52.09909" lon="4.34709">
        <ele>45.254044</ele>
        <time>2024-07-04T13:07:12.291Z</time>
      </trkpt>
      <trkpt lat="52.09916" lon="4.34727">
        <ele>45.123562</ele>
        <time>2024-07-04T13:07:15.300Z</time>
      </trkpt>
      <trkpt lat="52.09922" lon="4.34738">
        <ele>45.031827</ele>
        <time>2024-07-04T13:07:17.289Z</time>
      </trkpt>
      <trkpt lat="52.09928" lon="4.3475">
        <ele>44.936499</ele>
        <time>2024-07-04T13:07:19.315Z</time>
      </trkpt>
      <trkpt lat="52.09934" lon="4.34762">
        <ele>44.839373</ele>
        <time>2024-07-04T13:07:21.306Z</time>
      </trkpt>
      <trkpt lat="52.0994" lon="4.34775">
        <ele>44.738229</ele>
        <time>2024-07-04T13:07:23.307Z</time>
      </trkpt>
      <trkpt lat="52.09948" lon="4.34789">
        <ele>44.625838</ele>
        <time>2024-07-04T13:07:25.297Z</time>
      </trkpt>
      <trkpt lat="52.09956" lon="4.34801">
        <ele>44.514557</ele>
        <time>2024-07-04T13:07:27.304Z</time>
      </trkpt>
      <trkpt lat="52.09967" lon="4.34808">
        <ele>44.402809</ele>
        <time>2024-07-04T13:07:29.280Z</time>
      </trkpt>
      <trkpt lat="52.09978" lon="4.34812">
        <ele>44.289512</ele>
        <time>2024-07-04T13:07:31.288Z</time>
      </trkpt>
      <trkpt lat="52.0999" lon="4.34815">
        <ele>44.166014</ele>
        <time>2024-07-04T13:07:33.273Z</time>
      </trkpt>
      <trkpt lat="52.09999" lon="4.34826">
        <ele>44.054095</ele>
        <time>2024-07-04T13:07:35.280Z</time>
      </trkpt>
      <trkpt lat="52.10007" lon="4.34841">
        <ele>43.937017</ele>
        <time>2024-07-04T13:07:37.286Z</time>
      </trkpt>
      <trkpt lat="52.10012" lon="4.34856">
        <ele>43.82995</ele>
        <time>2024-07-04T13:07:39.297Z</time>
      </trkpt>
      <trkpt lat="52.10019" lon="4.34868">
        <ele>43.727837</ele>
        <time>2024-07-04T13:07:41.315Z</time>
      </trkpt>
      <trkpt lat="52.10024" lon="4.34881">
        <ele>43.736576</ele>
        <time>2024-07-04T13:07:43.301Z</time>
      </trkpt>
      <trkpt lat="52.10033" lon="4.34896">
        <ele>43.869436</ele>
        <time>2024-07-04T13:07:46.294Z</time>
      </trkpt>
      <trkpt lat="52.10039" lon="4.34911">
        <ele>43.988725</ele>
        <time>2024-07-04T13:07:49.306Z</time>
      </trkpt>
      <trkpt lat="52.10047" lon="4.34924">
        <ele>44.109967</ele>
        <time>2024-07-04T13:07:52.298Z</time>
      </trkpt>
      <trkpt lat="52.10053" lon="4.34936">
        <ele>44.214465</ele>
        <time>2024-07-04T13:07:55.301Z</time>
      </trkpt>
      <trkpt lat="52.10061" lon="4.3495">
        <ele>44.340525</ele>
        <time>2024-07-04T13:07:59.307Z</time>
      </trkpt>
      <trkpt lat="52.10069" lon="4.3496">
        <ele>44.441288</ele>
        <time>2024-07-04T13:08:03.313Z</time>
      </trkpt>
      <trkpt lat="52.10075" lon="4.34972">
        <ele>44.54593</ele>
        <time>2024-07-04T13:08:07.305Z</time>
      </trkpt>
      <trkpt lat="52.10083" lon="4.34981">
        <ele>44.645453</ele>
        <time>2024-07-04T13:08:10.285Z</time>
      </trkpt>
      <trkpt lat="52.10089" lon="4.34995">
        <ele>44.759799</ele>
        <time>2024-07-04T13:08:13.289Z</time>
      </trkpt>
      <trkpt lat="52.10097" lon="4.3501">
        <ele>44.886676</ele>
        <time>2024-07-04T13:08:16.300Z</time>
      </trkpt>
      <trkpt lat="52.10105" lon="4.35025">
        <ele>45.019636</ele>
        <time>2024-07-04T13:08:19.289Z</time>
      </trkpt>
      <trkpt lat="52.10113" lon="4.3504">
        <ele>45.153665</ele>
        <time>2024-07-04T13:08:22.303Z</time>
      </trkpt>
      <trkpt lat="52.10121" lon="4.35056">
        <ele>45.285768</ele>
        <time>2024-07-04T13:08:25.286Z</time>
      </trkpt>
      <trkpt lat="52.10128" lon="4.35072">
        <ele>45.416662</ele>
        <time>2024-07-04T13:08:28.308Z</time>
      </trkpt>
      <trkpt lat="52.10136" lon="4.35087">
        <ele>45.542848</ele>
        <time>2024-07-04T13:08:31.281Z</time>
      </trkpt>
      <trkpt lat="52.10144" lon="4.35103">
        <ele>45.625498</ele>
        <time>2024-07-04T13:08:34.296Z</time>
      </trkpt>
      <trkpt lat="52.10152" lon="4.35119">
        <ele>45.663599</ele>
        <time>2024-07-04T13:08:37.304Z</time>
      </trkpt>
      <trkpt lat="52.10158" lon="4.3513">
        <ele>45.69023</ele>
        <time>2024-07-04T13:08:39.296Z</time>
      </trkpt>
      <trkpt lat="52.10166" lon="4.35146">
        <ele>45.726797</ele>
        <time>2024-07-04T13:08:42.299Z</time>
      </trkpt>
      <trkpt lat="52.10172" lon="4.35157">
        <ele>45.753742</ele>
        <time>2024-07-04T13:08:44.298Z</time>
      </trkpt>
      <trkpt lat="52.10181" lon="4.35173">
        <ele>45.794431</ele>
        <time>2024-07-04T13:08:47.313Z</time>
      </trkpt>
      <trkpt lat="52.10189" lon="4.35186">
        <ele>45.826135</ele>
        <time>2024-07-04T13:08:49.313Z</time>
      </trkpt>
      <trkpt lat="52.10196" lon="4.35199">
        <ele>45.856844</ele>
        <time>2024-07-04T13:08:51.315Z</time>
      </trkpt>
      <trkpt lat="52.10201" lon="4.35211">
        <ele>45.883685</ele>
        <time>2024-07-04T13:08:53.313Z</time>
      </trkpt>
      <trkpt lat="52.10207" lon="4.35221">
        <ele>45.910378</ele>
        <time>2024-07-04T13:08:55.319Z</time>
      </trkpt>
      <trkpt lat="52.10214" lon="4.35232">
        <ele>45.937837</ele>
        <time>2024-07-04T13:08:57.304Z</time>
      </trkpt>
      <trkpt lat="52.10223" lon="4.35248">
        <ele>45.97732</ele>
        <time>2024-07-04T13:09:00.311Z</time>
      </trkpt>
      <trkpt lat="52.10228" lon="4.35261">
        <ele>46.005315</ele>
        <time>2024-07-04T13:09:02.292Z</time>
      </trkpt>
      <trkpt lat="52.10235" lon="4.35272">
        <ele>46.032702</ele>
        <time>2024-07-04T13:09:04.301Z</time>
      </trkpt>
      <trkpt lat="52.10241" lon="4.35283">
        <ele>46.059624</ele>
        <time>2024-07-04T13:09:06.301Z</time>
      </trkpt>
      <trkpt lat="52.10247" lon="4.35295">
        <ele>46.088295</ele>
        <time>2024-07-04T13:09:08.299Z</time>
      </trkpt>
      <trkpt lat="52.10253" lon="4.35307">
        <ele>46.115899</ele>
        <time>2024-07-04T13:09:10.301Z</time>
      </trkpt>
      <trkpt lat="52.10259" lon="4.3532">
        <ele>46.124232</ele>
        <time>2024-07-04T13:09:12.280Z</time>
      </trkpt>
      <trkpt lat="52.10265" lon="4.35331">
        <ele>46.086422</ele>
        <time>2024-07-04T13:09:14.305Z</time>
      </trkpt>
      <trkpt lat="52.10272" lon="4.35343">
        <ele>46.048582</ele>
        <time>2024-07-04T13:09:16.297Z</time>
      </trkpt>
      <trkpt lat="52.10278" lon="4.35356">
        <ele>46.010172</ele>
        <time>2024-07-04T13:09:18.290Z</time>
      </trkpt>
      <trkpt lat="52.10287" lon="4.35373">
        <ele>45.957139</ele>
        <time>2024-07-04T13:09:21.321Z</time>
      </trkpt>
      <trkpt lat="52.10293" lon="4.35384">
        <ele>45.920033</ele>
        <time>2024-07-04T13:09:23.313Z</time>
      </trkpt>
      <trkpt lat="52.10299" lon="4.35396">
        <ele>45.883967</ele>
        <time>2024-07-04T13:09:25.300Z</time>
      </trkpt>
      <trkpt lat="52.10305" lon="4.35408">
        <ele>45.84631</ele>
        <time>2024-07-04T13:09:27.312Z</time>
      </trkpt>
      <trkpt lat="52.10312" lon="4.35419">
        <ele>45.808591</ele>
        <time>2024-07-04T13:09:29.289Z</time>
      </trkpt>
      <trkpt lat="52.10319" lon="4.3543">
        <ele>45.772079</ele>
        <time>2024-07-04T13:09:31.300Z</time>
      </trkpt>
      <trkpt lat="52.10326" lon="4.35441">
        <ele>45.734461</ele>
        <time>2024-07-04T13:09:33.311Z</time>
      </trkpt>
      <trkpt lat="52.10333" lon="4.35451">
        <ele>45.697687</ele>
        <time>2024-07-04T13:09:35.299Z</time>
      </trkpt>
      <trkpt lat="52.1034" lon="4.35461">
        <ele>45.662447</ele>
        <time>2024-07-04T13:09:37.298Z</time>
      </trkpt>
      <trkpt lat="52.10347" lon="4.35471">
        <ele>45.626049</ele>
        <time>2024-07-04T13:09:39.304Z</time>
      </trkpt>
      <trkpt lat="52.10354" lon="4.35482">
        <ele>45.588238</ele>
        <time>2024-07-04T13:09:41.311Z</time>
      </trkpt>
      <trkpt lat="52.10364" lon="4.35497">
        <ele>45.535836</ele>
        <time>2024-07-04T13:09:44.314Z</time>
      </trkpt>
      <trkpt lat="52.10371" lon="4.35507">
        <ele>45.498455</ele>
        <time>2024-07-04T13:09:46.320Z</time>
      </trkpt>
      <trkpt lat="52.10377" lon="4.35519">
        <ele>45.460999</ele>
        <time>2024-07-04T13:09:48.318Z</time>
      </trkpt>
      <trkpt lat="52.10384" lon="4.3553">
        <ele>45.435747</ele>
        <time>2024-07-04T13:09:50.297Z</time>
      </trkpt>
      <trkpt lat="52.10391" lon="4.3554">
        <ele>45.431916</ele>
        <time>2024-07-04T13:09:52.298Z</time>
      </trkpt>
      <trkpt lat="52.10397" lon="4.35551">
        <ele>45.42803</ele>
        <time>2024-07-04T13:09:54.304Z</time>
      </trkpt>
      <trkpt lat="52.10403" lon="4.35562">
        <ele>45.424192</ele>
        <time>2024-07-04T13:09:56.307Z</time>
      </trkpt>
      <trkpt lat="52.1041" lon="4.35572">
        <ele>45.42036</ele>
        <time>2024-07-04T13:09:58.295Z</time>
      </trkpt>
      <trkpt lat="52.10416" lon="4.35584">
        <ele>45.416481</ele>
        <time>2024-07-04T13:10:00.315Z</time>
      </trkpt>
      <trkpt lat="52.10422" lon="4.35594">
        <ele>45.412589</ele>
        <time>2024-07-04T13:10:02.309Z</time>
      </trkpt>
      <trkpt lat="52.10432" lon="4.35608">
        <ele>45.407033</ele>
        <time>2024-07-04T13:10:05.308Z</time>
      </trkpt>
      <trkpt lat="52.10439" lon="4.35619">
        <ele>45.403038</ele>
        <time>2024-07-04T13:10:07.280Z</time>
      </trkpt>
      <trkpt lat="52.10449" lon="4.35633">
        <ele>45.397365</ele>
        <time>2024-07-04T13:10:10.304Z</time>
      </trkpt>
      <trkpt lat="52.10459" lon="4.35648">
        <ele>45.391544</ele>
        <time>2024-07-04T13:10:13.301Z</time>
      </trkpt>
      <trkpt lat="52.10469" lon="4.35662">
        <ele>45.385826</ele>
        <time>2024-07-04T13:10:16.307Z</time>
      </trkpt>
      <trkpt lat="52.10476" lon="4.35673">
        <ele>45.381813</ele>
        <time>2024-07-04T13:10:18.299Z</time>
      </trkpt>
      <trkpt lat="52.10486" lon="4.35688">
        <ele>45.376091</ele>
        <time>2024-07-04T13:10:21.298Z</time>
      </trkpt>
      <trkpt lat="52.10492" lon="4.35699">
        <ele>45.372126</ele>
        <time>2024-07-04T13:10:23.301Z</time>
      </trkpt>
      <trkpt lat="52.10499" lon="4.35709">
        <ele>45.368313</ele>
        <time>2024-07-04T13:10:25.292Z</time>
      </trkpt>
      <trkpt lat="52.10508" lon="4.35724">
        <ele>45.362817</ele>
        <time>2024-07-04T13:10:28.295Z</time>
      </trkpt>
      <trkpt lat="52.10518" lon="4.35736">
        <ele>45.372896</ele>
        <time>2024-07-04T13:10:31.296Z</time>
      </trkpt>
      <trkpt lat="52.10528" lon="4.35745">
        <ele>45.391145</ele>
        <time>2024-07-04T13:10:34.299Z</time>
      </trkpt>
      <trkpt lat="52.10536" lon="4.35753">
        <ele>45.405549</ele>
        <time>2024-07-04T13:10:37.313Z</time>
      </trkpt>
      <trkpt lat="52.10543" lon="4.35765">
        <ele>45.420836</ele>
        <time>2024-07-04T13:10:47.313Z</time>
      </trkpt>
      <trkpt lat="52.1055" lon="4.35774">
        <ele>45.435199</ele>
        <time>2024-07-04T13:10:51.317Z</time>
      </trkpt>
      <trkpt lat="52.10558" lon="4.35789">
        <ele>45.453874</ele>
        <time>2024-07-04T13:10:55.306Z</time>
      </trkpt>
      <trkpt lat="52.10568" lon="4.35803">
        <ele>45.473019</ele>
        <time>2024-07-04T13:10:58.283Z</time>
      </trkpt>
      <trkpt lat="52.10574" lon="4.35814">
        <ele>45.486818</ele>
        <time>2024-07-04T13:11:00.299Z</time>
      </trkpt>
      <trkpt lat="52.10583" lon="4.35828">
        <ele>45.505824</ele>
        <time>2024-07-04T13:11:03.279Z</time>
      </trkpt>
      <trkpt lat="52.10592" lon="4.35843">
        <ele>45.526101</ele>
        <time>2024-07-04T13:11:06.303Z</time>
      </trkpt>
      <trkpt lat="52.10604" lon="4.35852">
        <ele>45.545492</ele>
        <time>2024-07-04T13:11:09.300Z</time>
      </trkpt>
      <trkpt lat="52.1061" lon="4.35865">
        <ele>45.560461</ele>
        <time>2024-07-04T13:11:11.279Z</time>
      </trkpt>
      <trkpt lat="52.10612" lon="4.3588">
        <ele>45.575154</ele>
        <time>2024-07-04T13:11:13.287Z</time>
      </trkpt>
      <trkpt lat="52.10618" lon="4.35892">
        <ele>45.589214</ele>
        <time>2024-07-04T13:11:15.305Z</time>
      </trkpt>
      <trkpt lat="52.10624" lon="4.35903">
        <ele>45.603906</ele>
        <time>2024-07-04T13:11:17.307Z</time>
      </trkpt>
      <trkpt lat="52.10631" lon="4.35914">
        <ele>45.617854</ele>
        <time>2024-07-04T13:11:19.296Z</time>
      </trkpt>
      <trkpt lat="52.10637" lon="4.35925">
        <ele>45.632372</ele>
        <time>2024-07-04T13:11:21.303Z</time>
      </trkpt>
      <trkpt lat="52.10643" lon="4.35936">
        <ele>45.568289</ele>
        <time>2024-07-04T13:11:23.312Z</time>
      </trkpt>
      <trkpt lat="52.1065" lon="4.35948">
        <ele>45.473716</ele>
        <time>2024-07-04T13:11:25.305Z</time>
      </trkpt>
      <trkpt lat="52.10656" lon="4.35959">
        <ele>45.382465</ele>
        <time>2024-07-04T13:11:27.318Z</time>
      </trkpt>
      <trkpt lat="52.10661" lon="4.3597">
        <ele>45.291386</ele>
        <time>2024-07-04T13:11:29.313Z</time>
      </trkpt>
      <trkpt lat="52.10668" lon="4.35982">
        <ele>45.196962</ele>
        <time>2024-07-04T13:11:31.288Z</time>
      </trkpt>
      <trkpt lat="52.10673" lon="4.35994">
        <ele>45.103011</ele>
        <time>2024-07-04T13:11:33.314Z</time>
      </trkpt>
      <trkpt lat="52.10679" lon="4.36006">
        <ele>45.00881</ele>
        <time>2024-07-04T13:11:35.300Z</time>
      </trkpt>
      <trkpt lat="52.10684" lon="4.36018">
        <ele>44.917283</ele>
        <time>2024-07-04T13:11:37.302Z</time>
      </trkpt>
      <trkpt lat="52.1069" lon="4.3603">
        <ele>44.82208</ele>
        <time>2024-07-04T13:11:39.300Z</time>
      </trkpt>
      <trkpt lat="52.10696" lon="4.36043">
        <ele>44.727974</ele>
        <time>2024-07-04T13:11:41.301Z</time>
      </trkpt>
      <trkpt lat="52.10702" lon="4.36055">
        <ele>44.635126</ele>
        <time>2024-07-04T13:11:43.306Z</time>
      </trkpt>
      <trkpt lat="52.10708" lon="4.36066">
        <ele>44.541441</ele>
        <time>2024-07-04T13:11:45.299Z</time>
      </trkpt>
      <trkpt lat="52.10714" lon="4.36078">
        <ele>44.444317</ele>
        <time>2024-07-04T13:11:47.283Z</time>
      </trkpt>
      <trkpt lat="52.10719" lon="4.36091">
        <ele>44.347541</ele>
        <time>2024-07-04T13:11:49.294Z</time>
      </trkpt>
      <trkpt lat="52.10726" lon="4.36104">
        <ele>44.244243</ele>
        <time>2024-07-04T13:11:51.293Z</time>
      </trkpt>
      <trkpt lat="52.10733" lon="4.36116">
        <ele>44.143336</ele>
        <time>2024-07-04T13:11:53.319Z</time>
      </trkpt>
      <trkpt lat="52.1074" lon="4.36128">
        <ele>44.043783</ele>
        <time>2024-07-04T13:11:55.298Z</time>
      </trkpt>
      <trkpt lat="52.10746" lon="4.3614">
        <ele>43.945803</ele>
        <time>2024-07-04T13:11:57.300Z</time>
      </trkpt>
      <trkpt lat="52.10754" lon="4.36151">
        <ele>43.844593</ele>
        <time>2024-07-04T13:11:59.300Z</time>
      </trkpt>
      <trkpt lat="52.10761" lon="4.36162">
        <ele>43.769201</ele>
        <time>2024-07-04T13:12:01.297Z</time>
      </trkpt>
      <trkpt lat="52.10767" lon="4.36175">
        <ele>43.696344</ele>
        <time>2024-07-04T13:12:03.295Z</time>
      </trkpt>
      <trkpt lat="52.10774" lon="4.36187">
        <ele>43.621188</ele>
        <time>2024-07-04T13:12:05.310Z</time>
      </trkpt>
      <trkpt lat="52.10781" lon="4.36199">
        <ele>43.54948</ele>
        <time>2024-07-04T13:12:07.293Z</time>
      </trkpt>
      <trkpt lat="52.10788" lon="4.36212">
        <ele>43.473311</ele>
        <time>2024-07-04T13:12:09.297Z</time>
      </trkpt>
      <trkpt lat="52.10795" lon="4.36223">
        <ele>43.39943</ele>
        <time>2024-07-04T13:12:11.300Z</time>
      </trkpt>
      <trkpt lat="52.10803" lon="4.36234">
        <ele>43.326354</ele>
        <time>2024-07-04T13:12:13.316Z</time>
      </trkpt>
      <trkpt lat="52.1081" lon="4.36245">
        <ele>43.25662</ele>
        <time>2024-07-04T13:12:15.300Z</time>
      </trkpt>
      <trkpt lat="52.10817" lon="4.36256">
        <ele>43.183648</ele>
        <time>2024-07-04T13:12:17.299Z</time>
      </trkpt>
      <trkpt lat="52.10825" lon="4.36267">
        <ele>43.109735</ele>
        <time>2024-07-04T13:12:19.352Z</time>
      </trkpt>
      <trkpt lat="52.10832" lon="4.36279">
        <ele>43.033463</ele>
        <time>2024-07-04T13:12:21.311Z</time>
      </trkpt>
      <trkpt lat="52.1084" lon="4.36291">
        <ele>42.956358</ele>
        <time>2024-07-04T13:12:23.337Z</time>
      </trkpt>
      <trkpt lat="52.10848" lon="4.36302">
        <ele>42.877756</ele>
        <time>2024-07-04T13:12:25.298Z</time>
      </trkpt>
      <trkpt lat="52.10855" lon="4.36314">
        <ele>42.803243</ele>
        <time>2024-07-04T13:12:27.299Z</time>
      </trkpt>
      <trkpt lat="52.10863" lon="4.36326">
        <ele>42.729677</ele>
        <time>2024-07-04T13:12:29.301Z</time>
      </trkpt>
      <trkpt lat="52.1087" lon="4.36337">
        <ele>42.659021</ele>
        <time>2024-07-04T13:12:31.308Z</time>
      </trkpt>
      <trkpt lat="52.10876" lon="4.36348">
        <ele>42.590232</ele>
        <time>2024-07-04T13:12:33.303Z</time>
      </trkpt>
      <trkpt lat="52.10883" lon="4.36358">
        <ele>42.527038</ele>
        <time>2024-07-04T13:12:35.297Z</time>
      </trkpt>
      <trkpt lat="52.10891" lon="4.36367">
        <ele>42.51513</ele>
        <time>2024-07-04T13:12:37.290Z</time>
      </trkpt>
      <trkpt lat="52.10898" lon="4.36377">
        <ele>42.503121</ele>
        <time>2024-07-04T13:12:39.293Z</time>
      </trkpt>
      <trkpt lat="52.10904" lon="4.36389">
        <ele>42.491112</ele>
        <time>2024-07-04T13:12:41.300Z</time>
      </trkpt>
      <trkpt lat="52.10911" lon="4.364">
        <ele>42.479216</ele>
        <time>2024-07-04T13:12:43.302Z</time>
      </trkpt>
      <trkpt lat="52.10917" lon="4.36411">
        <ele>42.467319</ele>
        <time>2024-07-04T13:12:45.317Z</time>
      </trkpt>
      <trkpt lat="52.10924" lon="4.36422">
        <ele>42.455425</ele>
        <time>2024-07-04T13:12:47.299Z</time>
      </trkpt>
      <trkpt lat="52.1093" lon="4.36433">
        <ele>42.443703</ele>
        <time>2024-07-04T13:12:49.308Z</time>
      </trkpt>
      <trkpt lat="52.10936" lon="4.36443">
        <ele>42.432174</ele>
        <time>2024-07-04T13:12:51.304Z</time>
      </trkpt>
      <trkpt lat="52.10944" lon="4.36453">
        <ele>42.42046</ele>
        <time>2024-07-04T13:12:53.279Z</time>
      </trkpt>
      <trkpt lat="52.10951" lon="4.36463">
        <ele>42.408634</ele>
        <time>2024-07-04T13:12:55.299Z</time>
      </trkpt>
      <trkpt lat="52.10958" lon="4.36474">
        <ele>42.396343</ele>
        <time>2024-07-04T13:12:57.302Z</time>
      </trkpt>
      <trkpt lat="52.10964" lon="4.36485">
        <ele>42.384359</ele>
        <time>2024-07-04T13:12:59.303Z</time>
      </trkpt>
      <trkpt lat="52.10971" lon="4.36495">
        <ele>42.372865</ele>
        <time>2024-07-04T13:13:01.297Z</time>
      </trkpt>
      <trkpt lat="52.1098" lon="4.3651">
        <ele>42.356298</ele>
        <time>2024-07-04T13:13:04.297Z</time>
      </trkpt>
      <trkpt lat="52.10986" lon="4.3652">
        <ele>42.344697</ele>
        <time>2024-07-04T13:13:06.302Z</time>
      </trkpt>
      <trkpt lat="52.10997" lon="4.36534">
        <ele>42.327819</ele>
        <time>2024-07-04T13:13:09.313Z</time>
      </trkpt>
      <trkpt lat="52.11003" lon="4.36545">
        <ele>42.316145</ele>
        <time>2024-07-04T13:13:11.289Z</time>
      </trkpt>
      <trkpt lat="52.11013" lon="4.36561">
        <ele>42.302233</ele>
        <time>2024-07-04T13:13:14.297Z</time>
      </trkpt>
      <trkpt lat="52.1102" lon="4.3657">
        <ele>42.324924</ele>
        <time>2024-07-04T13:13:16.295Z</time>
      </trkpt>
      <trkpt lat="52.11026" lon="4.36581">
        <ele>42.34758</ele>
        <time>2024-07-04T13:13:18.292Z</time>
      </trkpt>
      <trkpt lat="52.11036" lon="4.36596">
        <ele>42.381644</ele>
        <time>2024-07-04T13:13:21.300Z</time>
      </trkpt>
      <trkpt lat="52.11043" lon="4.36606">
        <ele>42.4044</ele>
        <time>2024-07-04T13:13:23.307Z</time>
      </trkpt>
      <trkpt lat="52.1105" lon="4.36616">
        <ele>42.428546</ele>
        <time>2024-07-04T13:13:25.302Z</time>
      </trkpt>
      <trkpt lat="52.11057" lon="4.36626">
        <ele>42.451621</ele>
        <time>2024-07-04T13:13:27.303Z</time>
      </trkpt>
      <trkpt lat="52.11064" lon="4.36639">
        <ele>42.477547</ele>
        <time>2024-07-04T13:13:29.298Z</time>
      </trkpt>
      <trkpt lat="52.11071" lon="4.36649">
        <ele>42.501558</ele>
        <time>2024-07-04T13:13:31.289Z</time>
      </trkpt>
      <trkpt lat="52.11078" lon="4.3666">
        <ele>42.524813</ele>
        <time>2024-07-04T13:13:33.305Z</time>
      </trkpt>
      <trkpt lat="52.11084" lon="4.36671">
        <ele>42.549178</ele>
        <time>2024-07-04T13:13:35.315Z</time>
      </trkpt>
      <trkpt lat="52.11092" lon="4.36682">
        <ele>42.573536</ele>
        <time>2024-07-04T13:13:37.309Z</time>
      </trkpt>
      <trkpt lat="52.11099" lon="4.36692">
        <ele>42.597131</ele>
        <time>2024-07-04T13:13:39.295Z</time>
      </trkpt>
      <trkpt lat="52.11105" lon="4.36704">
        <ele>42.62153</ele>
        <time>2024-07-04T13:13:41.311Z</time>
      </trkpt>
      <trkpt lat="52.11112" lon="4.36714">
        <ele>42.645285</ele>
        <time>2024-07-04T13:13:43.306Z</time>
      </trkpt>
      <trkpt lat="52.11119" lon="4.36725">
        <ele>42.669014</ele>
        <time>2024-07-04T13:13:45.268Z</time>
      </trkpt>
      <trkpt lat="52.11126" lon="4.36736">
        <ele>42.692737</ele>
        <time>2024-07-04T13:13:47.294Z</time>
      </trkpt>
      <trkpt lat="52.11132" lon="4.36747">
        <ele>42.715614</ele>
        <time>2024-07-04T13:13:49.300Z</time>
      </trkpt>
      <trkpt lat="52.11139" lon="4.36758">
        <ele>42.739625</ele>
        <time>2024-07-04T13:13:51.316Z</time>
      </trkpt>
      <trkpt lat="52.11146" lon="4.36768">
        <ele>42.765003</ele>
        <time>2024-07-04T13:13:53.306Z</time>
      </trkpt>
      <trkpt lat="52.11153" lon="4.36778">
        <ele>42.792663</ele>
        <time>2024-07-04T13:13:55.292Z</time>
      </trkpt>
      <trkpt lat="52.1116" lon="4.36788">
        <ele>42.821649</ele>
        <time>2024-07-04T13:13:57.296Z</time>
      </trkpt>
      <trkpt lat="52.11166" lon="4.36799">
        <ele>42.849605</ele>
        <time>2024-07-04T13:13:59.305Z</time>
      </trkpt>
      <trkpt lat="52.11173" lon="4.36811">
        <ele>42.878025</ele>
        <time>2024-07-04T13:14:01.309Z</time>
      </trkpt>
      <trkpt lat="52.11182" lon="4.36826">
        <ele>42.917546</ele>
        <time>2024-07-04T13:14:04.295Z</time>
      </trkpt>
      <trkpt lat="52.11189" lon="4.36836">
        <ele>42.946753</ele>
        <time>2024-07-04T13:14:06.316Z</time>
      </trkpt>
      <trkpt lat="52.11199" lon="4.3685">
        <ele>42.984879</ele>
        <time>2024-07-04T13:14:09.294Z</time>
      </trkpt>
      <trkpt lat="52.11208" lon="4.36865">
        <ele>43.024831</ele>
        <time>2024-07-04T13:14:12.300Z</time>
      </trkpt>
      <trkpt lat="52.11218" lon="4.36881">
        <ele>43.065367</ele>
        <time>2024-07-04T13:14:15.291Z</time>
      </trkpt>
      <trkpt lat="52.11224" lon="4.36892">
        <ele>43.092542</ele>
        <time>2024-07-04T13:14:17.293Z</time>
      </trkpt>
      <trkpt lat="52.11231" lon="4.36902">
        <ele>43.120061</ele>
        <time>2024-07-04T13:14:19.290Z</time>
      </trkpt>
      <trkpt lat="52.1124" lon="4.36917">
        <ele>43.160309</ele>
        <time>2024-07-04T13:14:22.312Z</time>
      </trkpt>
      <trkpt lat="52.11247" lon="4.36928">
        <ele>43.187955</ele>
        <time>2024-07-04T13:14:24.308Z</time>
      </trkpt>
      <trkpt lat="52.11256" lon="4.36943">
        <ele>43.227132</ele>
        <time>2024-07-04T13:14:27.301Z</time>
      </trkpt>
      <trkpt lat="52.11265" lon="4.36957">
        <ele>43.26588</ele>
        <time>2024-07-04T13:14:30.287Z</time>
      </trkpt>
      <trkpt lat="52.11275" lon="4.3697">
        <ele>43.324016</ele>
        <time>2024-07-04T13:14:33.280Z</time>
      </trkpt>
      <trkpt lat="52.11286" lon="4.36984">
        <ele>43.412837</ele>
        <time>2024-07-04T13:14:36.313Z</time>
      </trkpt>
      <trkpt lat="52.11293" lon="4.36994">
        <ele>43.476838</ele>
        <time>2024-07-04T13:14:38.288Z</time>
      </trkpt>
      <trkpt lat="52.11302" lon="4.37009">
        <ele>43.568128</ele>
        <time>2024-07-04T13:14:41.300Z</time>
      </trkpt>
      <trkpt lat="52.11312" lon="4.37023">
        <ele>43.656734</ele>
        <time>2024-07-04T13:14:44.301Z</time>
      </trkpt>
      <trkpt lat="52.11321" lon="4.37039">
        <ele>43.748508</ele>
        <time>2024-07-04T13:14:47.289Z</time>
      </trkpt>
      <trkpt lat="52.11328" lon="4.3705">
        <ele>43.813196</ele>
        <time>2024-07-04T13:14:49.299Z</time>
      </trkpt>
      <trkpt lat="52.11334" lon="4.3706">
        <ele>43.875233</ele>
        <time>2024-07-04T13:14:51.294Z</time>
      </trkpt>
      <trkpt lat="52.11344" lon="4.37075">
        <ele>43.965508</ele>
        <time>2024-07-04T13:14:54.317Z</time>
      </trkpt>
      <trkpt lat="52.11354" lon="4.3709">
        <ele>44.055351</ele>
        <time>2024-07-04T13:14:57.313Z</time>
      </trkpt>
      <trkpt lat="52.11363" lon="4.37105">
        <ele>44.147816</ele>
        <time>2024-07-04T13:15:00.295Z</time>
      </trkpt>
      <trkpt lat="52.11373" lon="4.37121">
        <ele>44.239022</ele>
        <time>2024-07-04T13:15:03.301Z</time>
      </trkpt>
      <trkpt lat="52.11382" lon="4.37136">
        <ele>44.328943</ele>
        <time>2024-07-04T13:15:06.282Z</time>
      </trkpt>
      <trkpt lat="52.11388" lon="4.37147">
        <ele>44.39118</ele>
        <time>2024-07-04T13:15:08.302Z</time>
      </trkpt>
      <trkpt lat="52.11394" lon="4.37158">
        <ele>44.455848</ele>
        <time>2024-07-04T13:15:10.299Z</time>
      </trkpt>
      <trkpt lat="52.11404" lon="4.37173">
        <ele>44.54422</ele>
        <time>2024-07-04T13:15:13.294Z</time>
      </trkpt>
      <trkpt lat="52.11414" lon="4.37187">
        <ele>44.629428</ele>
        <time>2024-07-04T13:15:16.300Z</time>
      </trkpt>
      <trkpt lat="52.11421" lon="4.37197">
        <ele>44.687002</ele>
        <time>2024-07-04T13:15:18.303Z</time>
      </trkpt>
      <trkpt lat="52.11428" lon="4.37207">
        <ele>44.746101</ele>
        <time>2024-07-04T13:15:20.298Z</time>
      </trkpt>
      <trkpt lat="52.11435" lon="4.37218">
        <ele>44.806005</ele>
        <time>2024-07-04T13:15:22.304Z</time>
      </trkpt>
      <trkpt lat="52.11442" lon="4.37228">
        <ele>44.866777</ele>
        <time>2024-07-04T13:15:24.313Z</time>
      </trkpt>
      <trkpt lat="52.11449" lon="4.37238">
        <ele>44.926514</ele>
        <time>2024-07-04T13:15:26.315Z</time>
      </trkpt>
      <trkpt lat="52.11456" lon="4.37249">
        <ele>44.987245</ele>
        <time>2024-07-04T13:15:28.289Z</time>
      </trkpt>
      <trkpt lat="52.11462" lon="4.3726">
        <ele>45.047223</ele>
        <time>2024-07-04T13:15:30.315Z</time>
      </trkpt>
      <trkpt lat="52.11469" lon="4.37271">
        <ele>45.106941</ele>
        <time>2024-07-04T13:15:32.295Z</time>
      </trkpt>
      <trkpt lat="52.11478" lon="4.37286">
        <ele>45.191347</ele>
        <time>2024-07-04T13:15:35.301Z</time>
      </trkpt>
      <trkpt lat="52.11488" lon="4.37302">
        <ele>45.275197</ele>
        <time>2024-07-04T13:15:38.298Z</time>
      </trkpt>
      <trkpt lat="52.11495" lon="4.37314">
        <ele>45.345943</ele>
        <time>2024-07-04T13:15:41.309Z</time>
      </trkpt>
      <trkpt lat="52.11502" lon="4.37325">
        <ele>45.404985</ele>
        <time>2024-07-04T13:15:44.297Z</time>
      </trkpt>
      <trkpt lat="52.11511" lon="4.37335">
        <ele>45.472851</ele>
        <time>2024-07-04T13:15:48.302Z</time>
      </trkpt>
      <trkpt lat="52.11518" lon="4.37345">
        <ele>45.535526</ele>
        <time>2024-07-04T13:15:53.295Z</time>
      </trkpt>
      <trkpt lat="52.11526" lon="4.37355">
        <ele>45.594008</ele>
        <time>2024-07-04T13:15:57.300Z</time>
      </trkpt>
      <trkpt lat="52.11532" lon="4.37368">
        <ele>45.657558</ele>
        <time>2024-07-04T13:16:00.312Z</time>
      </trkpt>
      <trkpt lat="52.11538" lon="4.37381">
        <ele>45.742985</ele>
        <time>2024-07-04T13:16:03.269Z</time>
      </trkpt>
      <trkpt lat="52.11546" lon="4.37396">
        <ele>45.843186</ele>
        <time>2024-07-04T13:16:06.300Z</time>
      </trkpt>
      <trkpt lat="52.11555" lon="4.37411">
        <ele>45.946133</ele>
        <time>2024-07-04T13:16:09.305Z</time>
      </trkpt>
      <trkpt lat="52.11563" lon="4.37428">
        <ele>46.050423</ele>
        <time>2024-07-04T13:16:12.296Z</time>
      </trkpt>
      <trkpt lat="52.11572" lon="4.37443">
        <ele>46.158904</ele>
        <time>2024-07-04T13:16:15.305Z</time>
      </trkpt>
      <trkpt lat="52.11582" lon="4.37458">
        <ele>46.265631</ele>
        <time>2024-07-04T13:16:18.286Z</time>
      </trkpt>
      <trkpt lat="52.11588" lon="4.37469">
        <ele>46.341413</ele>
        <time>2024-07-04T13:16:20.316Z</time>
      </trkpt>
      <trkpt lat="52.11598" lon="4.37484">
        <ele>46.452478</ele>
        <time>2024-07-04T13:16:23.297Z</time>
      </trkpt>
      <trkpt lat="52.11605" lon="4.37494">
        <ele>46.526066</ele>
        <time>2024-07-04T13:16:25.300Z</time>
      </trkpt>
      <trkpt lat="52.11614" lon="4.37509">
        <ele>46.635001</ele>
        <time>2024-07-04T13:16:28.327Z</time>
      </trkpt>
      <trkpt lat="52.11621" lon="4.3752">
        <ele>46.710208</ele>
        <time>2024-07-04T13:16:30.294Z</time>
      </trkpt>
      <trkpt lat="52.11628" lon="4.3753">
        <ele>46.785176</ele>
        <time>2024-07-04T13:16:32.282Z</time>
      </trkpt>
      <trkpt lat="52.11635" lon="4.3754">
        <ele>46.865833</ele>
        <time>2024-07-04T13:16:34.280Z</time>
      </trkpt>
      <trkpt lat="52.11642" lon="4.37551">
        <ele>46.944773</ele>
        <time>2024-07-04T13:16:36.301Z</time>
      </trkpt>
      <trkpt lat="52.11649" lon="4.37562">
        <ele>47.022438</ele>
        <time>2024-07-04T13:16:38.299Z</time>
      </trkpt>
      <trkpt lat="52.11656" lon="4.37572">
        <ele>47.09951</ele>
        <time>2024-07-04T13:16:40.292Z</time>
      </trkpt>
      <trkpt lat="52.11663" lon="4.37582">
        <ele>47.062541</ele>
        <time>2024-07-04T13:16:42.306Z</time>
      </trkpt>
      <trkpt lat="52.11671" lon="4.37593">
        <ele>46.978093</ele>
        <time>2024-07-04T13:16:44.298Z</time>
      </trkpt>
      <trkpt lat="52.11678" lon="4.37603">
        <ele>46.892033</ele>
        <time>2024-07-04T13:16:46.308Z</time>
      </trkpt>
      <trkpt lat="52.11686" lon="4.37613">
        <ele>46.807899</ele>
        <time>2024-07-04T13:16:48.310Z</time>
      </trkpt>
      <trkpt lat="52.11693" lon="4.37623">
        <ele>46.726382</ele>
        <time>2024-07-04T13:16:50.296Z</time>
      </trkpt>
      <trkpt lat="52.11701" lon="4.37633">
        <ele>46.639521</ele>
        <time>2024-07-04T13:16:52.314Z</time>
      </trkpt>
      <trkpt lat="52.1171" lon="4.3764">
        <ele>46.554419</ele>
        <time>2024-07-04T13:16:54.294Z</time>
      </trkpt>
      <trkpt lat="52.11718" lon="4.37649">
        <ele>46.466945</ele>
        <time>2024-07-04T13:16:56.305Z</time>
      </trkpt>
      <trkpt lat="52.11727" lon="4.37657">
        <ele>46.378772</ele>
        <time>2024-07-04T13:16:58.308Z</time>
      </trkpt>
      <trkpt lat="52.11736" lon="4.37666">
        <ele>46.292095</ele>
        <time>2024-07-04T13:17:00.299Z</time>
      </trkpt>
      <trkpt lat="52.11744" lon="4.37675">
        <ele>46.204189</ele>
        <time>2024-07-04T13:17:02.307Z</time>
      </trkpt>
      <trkpt lat="52.11753" lon="4.37685">
        <ele>46.113657</ele>
        <time>2024-07-04T13:17:04.298Z</time>
      </trkpt>
      <trkpt lat="52.1176" lon="4.37696">
        <ele>46.027063</ele>
        <time>2024-07-04T13:17:06.312Z</time>
      </trkpt>
      <trkpt lat="52.11768" lon="4.37706">
        <ele>45.942681</ele>
        <time>2024-07-04T13:17:08.318Z</time>
      </trkpt>
      <trkpt lat="52.11774" lon="4.37717">
        <ele>45.862167</ele>
        <time>2024-07-04T13:17:10.285Z</time>
      </trkpt>
      <trkpt lat="52.11781" lon="4.37727">
        <ele>45.780056</ele>
        <time>2024-07-04T13:17:12.297Z</time>
      </trkpt>
      <trkpt lat="52.11787" lon="4.37739">
        <ele>45.698796</ele>
        <time>2024-07-04T13:17:14.294Z</time>
      </trkpt>
      <trkpt lat="52.11793" lon="4.3775">
        <ele>45.616919</ele>
        <time>2024-07-04T13:17:16.313Z</time>
      </trkpt>
      <trkpt lat="52.118" lon="4.37762">
        <ele>45.585671</ele>
        <time>2024-07-04T13:17:18.304Z</time>
      </trkpt>
      <trkpt lat="52.11807" lon="4.37774">
        <ele>45.654362</ele>
        <time>2024-07-04T13:17:20.299Z</time>
      </trkpt>
      <trkpt lat="52.11813" lon="4.37787">
        <ele>45.72572</ele>
        <time>2024-07-04T13:17:22.298Z</time>
      </trkpt>
      <trkpt lat="52.1182" lon="4.378">
        <ele>45.795312</ele>
        <time>2024-07-04T13:17:24.318Z</time>
      </trkpt>
      <trkpt lat="52.11826" lon="4.37813">
        <ele>45.863466</ele>
        <time>2024-07-04T13:17:26.294Z</time>
      </trkpt>
      <trkpt lat="52.11832" lon="4.37826">
        <ele>45.934056</ele>
        <time>2024-07-04T13:17:28.305Z</time>
      </trkpt>
      <trkpt lat="52.11839" lon="4.37839">
        <ele>46.006258</ele>
        <time>2024-07-04T13:17:30.314Z</time>
      </trkpt>
      <trkpt lat="52.11846" lon="4.37852">
        <ele>46.078496</ele>
        <time>2024-07-04T13:17:32.304Z</time>
      </trkpt>
      <trkpt lat="52.11853" lon="4.37865">
        <ele>46.149532</ele>
        <time>2024-07-04T13:17:34.281Z</time>
      </trkpt>
      <trkpt lat="52.1186" lon="4.37876">
        <ele>46.218705</ele>
        <time>2024-07-04T13:17:36.294Z</time>
      </trkpt>
      <trkpt lat="52.11867" lon="4.37889">
        <ele>46.291303</ele>
        <time>2024-07-04T13:17:38.311Z</time>
      </trkpt>
      <trkpt lat="52.11874" lon="4.37902">
        <ele>46.364917</ele>
        <time>2024-07-04T13:17:40.305Z</time>
      </trkpt>
      <trkpt lat="52.11881" lon="4.37915">
        <ele>46.438424</ele>
        <time>2024-07-04T13:17:42.309Z</time>
      </trkpt>
      <trkpt lat="52.11889" lon="4.37927">
        <ele>46.510988</ele>
        <time>2024-07-04T13:17:44.295Z</time>
      </trkpt>
      <trkpt lat="52.11896" lon="4.37939">
        <ele>46.580526</ele>
        <time>2024-07-04T13:17:46.306Z</time>
      </trkpt>
      <trkpt lat="52.11903" lon="4.3795">
        <ele>46.650574</ele>
        <time>2024-07-04T13:17:48.276Z</time>
      </trkpt>
      <trkpt lat="52.11911" lon="4.37963">
        <ele>46.723447</ele>
        <time>2024-07-04T13:17:50.308Z</time>
      </trkpt>
      <trkpt lat="52.11917" lon="4.37975">
        <ele>46.791519</ele>
        <time>2024-07-04T13:17:52.297Z</time>
      </trkpt>
      <trkpt lat="52.11924" lon="4.37988">
        <ele>46.768141</ele>
        <time>2024-07-04T13:17:54.297Z</time>
      </trkpt>
      <trkpt lat="52.11931" lon="4.37999">
        <ele>46.736776</ele>
        <time>2024-07-04T13:17:56.295Z</time>
      </trkpt>
      <trkpt lat="52.11939" lon="4.3801">
        <ele>46.706344</ele>
        <time>2024-07-04T13:17:58.294Z</time>
      </trkpt>
      <trkpt lat="52.11947" lon="4.3802">
        <ele>46.67645</ele>
        <time>2024-07-04T13:18:00.284Z</time>
      </trkpt>
      <trkpt lat="52.11956" lon="4.3803">
        <ele>46.644627</ele>
        <time>2024-07-04T13:18:02.296Z</time>
      </trkpt>
      <trkpt lat="52.11964" lon="4.3804">
        <ele>46.614326</ele>
        <time>2024-07-04T13:18:04.312Z</time>
      </trkpt>
      <trkpt lat="52.11971" lon="4.3805">
        <ele>46.585392</ele>
        <time>2024-07-04T13:18:06.295Z</time>
      </trkpt>
      <trkpt lat="52.11977" lon="4.38062">
        <ele>46.557182</ele>
        <time>2024-07-04T13:18:08.316Z</time>
      </trkpt>
      <trkpt lat="52.11984" lon="4.38073">
        <ele>46.529311</ele>
        <time>2024-07-04T13:18:10.321Z</time>
      </trkpt>
      <trkpt lat="52.11991" lon="4.38082">
        <ele>46.502034</ele>
        <time>2024-07-04T13:18:12.287Z</time>
      </trkpt>
      <trkpt lat="52.11999" lon="4.38091">
        <ele>46.473407</ele>
        <time>2024-07-04T13:18:14.287Z</time>
      </trkpt>
      <trkpt lat="52.12009" lon="4.38104">
        <ele>46.434686</ele>
        <time>2024-07-04T13:18:17.305Z</time>
      </trkpt>
      <trkpt lat="52.12016" lon="4.38114">
        <ele>46.406596</ele>
        <time>2024-07-04T13:18:19.310Z</time>
      </trkpt>
      <trkpt lat="52.12024" lon="4.38124">
        <ele>46.377698</ele>
        <time>2024-07-04T13:18:21.297Z</time>
      </trkpt>
      <trkpt lat="52.12031" lon="4.38133">
        <ele>46.350862</ele>
        <time>2024-07-04T13:18:23.279Z</time>
      </trkpt>
      <trkpt lat="52.12038" lon="4.38144">
        <ele>46.321682</ele>
        <time>2024-07-04T13:18:25.292Z</time>
      </trkpt>
      <trkpt lat="52.12046" lon="4.38154">
        <ele>46.292079</ele>
        <time>2024-07-04T13:18:27.299Z</time>
      </trkpt>
      <trkpt lat="52.12054" lon="4.38165">
        <ele>46.260521</ele>
        <time>2024-07-04T13:18:29.295Z</time>
      </trkpt>
      <trkpt lat="52.12061" lon="4.38176">
        <ele>46.355475</ele>
        <time>2024-07-04T13:18:31.301Z</time>
      </trkpt>
      <trkpt lat="52.12067" lon="4.38187">
        <ele>46.447419</ele>
        <time>2024-07-04T13:18:33.301Z</time>
      </trkpt>
      <trkpt lat="52.12074" lon="4.38199">
        <ele>46.548783</ele>
        <time>2024-07-04T13:18:35.300Z</time>
      </trkpt>
      <trkpt lat="52.12082" lon="4.38209">
        <ele>46.647122</ele>
        <time>2024-07-04T13:18:37.304Z</time>
      </trkpt>
      <trkpt lat="52.1209" lon="4.38217">
        <ele>46.741503</ele>
        <time>2024-07-04T13:18:39.310Z</time>
      </trkpt>
      <trkpt lat="52.12098" lon="4.38225">
        <ele>46.83148</ele>
        <time>2024-07-04T13:18:41.304Z</time>
      </trkpt>
      <trkpt lat="52.12106" lon="4.38233">
        <ele>46.928186</ele>
        <time>2024-07-04T13:18:43.301Z</time>
      </trkpt>
      <trkpt lat="52.12114" lon="4.38242">
        <ele>47.021567</ele>
        <time>2024-07-04T13:18:45.281Z</time>
      </trkpt>
      <trkpt lat="52.12122" lon="4.38252">
        <ele>47.116475</ele>
        <time>2024-07-04T13:18:47.300Z</time>
      </trkpt>
      <trkpt lat="52.12129" lon="4.38261">
        <ele>47.209818</ele>
        <time>2024-07-04T13:18:49.294Z</time>
      </trkpt>
      <trkpt lat="52.12136" lon="4.38271">
        <ele>47.30241</ele>
        <time>2024-07-04T13:18:51.297Z</time>
      </trkpt>
      <trkpt lat="52.12144" lon="4.38282">
        <ele>47.399968</ele>
        <time>2024-07-04T13:18:53.303Z</time>
      </trkpt>
      <trkpt lat="52.12152" lon="4.38291">
        <ele>47.498266</ele>
        <time>2024-07-04T13:18:55.305Z</time>
      </trkpt>
      <trkpt lat="52.12159" lon="4.383">
        <ele>47.5886</ele>
        <time>2024-07-04T13:18:57.313Z</time>
      </trkpt>
      <trkpt lat="52.12167" lon="4.38309">
        <ele>47.682723</ele>
        <time>2024-07-04T13:18:59.306Z</time>
      </trkpt>
      <trkpt lat="52.12174" lon="4.38318">
        <ele>47.775372</ele>
        <time>2024-07-04T13:19:01.302Z</time>
      </trkpt>
      <trkpt lat="52.12182" lon="4.38328">
        <ele>47.87293</ele>
        <time>2024-07-04T13:19:03.300Z</time>
      </trkpt>
      <trkpt lat="52.12189" lon="4.38339">
        <ele>47.96901</ele>
        <time>2024-07-04T13:19:05.304Z</time>
      </trkpt>
      <trkpt lat="52.12196" lon="4.3835">
        <ele>48.035729</ele>
        <time>2024-07-04T13:19:07.293Z</time>
      </trkpt>
      <trkpt lat="52.12204" lon="4.3836">
        <ele>48.012794</ele>
        <time>2024-07-04T13:19:09.304Z</time>
      </trkpt>
      <trkpt lat="52.12211" lon="4.3837">
        <ele>47.989582</ele>
        <time>2024-07-04T13:19:11.287Z</time>
      </trkpt>
      <trkpt lat="52.12219" lon="4.38381">
        <ele>47.966347</ele>
        <time>2024-07-04T13:19:13.304Z</time>
      </trkpt>
      <trkpt lat="52.12227" lon="4.3839">
        <ele>47.942887</ele>
        <time>2024-07-04T13:19:15.301Z</time>
      </trkpt>
      <trkpt lat="52.12235" lon="4.384">
        <ele>47.919295</ele>
        <time>2024-07-04T13:19:17.304Z</time>
      </trkpt>
      <trkpt lat="52.12242" lon="4.3841">
        <ele>47.8959</ele>
        <time>2024-07-04T13:19:19.298Z</time>
      </trkpt>
      <trkpt lat="52.1225" lon="4.38419">
        <ele>47.873783</ele>
        <time>2024-07-04T13:19:21.299Z</time>
      </trkpt>
      <trkpt lat="52.12258" lon="4.38429">
        <ele>47.849647</ele>
        <time>2024-07-04T13:19:23.302Z</time>
      </trkpt>
      <trkpt lat="52.12265" lon="4.38439">
        <ele>47.82625</ele>
        <time>2024-07-04T13:19:25.296Z</time>
      </trkpt>
      <trkpt lat="52.12272" lon="4.3845">
        <ele>47.803676</ele>
        <time>2024-07-04T13:19:27.297Z</time>
      </trkpt>
      <trkpt lat="52.1228" lon="4.38459">
        <ele>47.78129</ele>
        <time>2024-07-04T13:19:29.310Z</time>
      </trkpt>
      <trkpt lat="52.12287" lon="4.3847">
        <ele>47.757711</ele>
        <time>2024-07-04T13:19:31.309Z</time>
      </trkpt>
      <trkpt lat="52.12294" lon="4.38481">
        <ele>47.733987</ele>
        <time>2024-07-04T13:19:33.297Z</time>
      </trkpt>
      <trkpt lat="52.12301" lon="4.38492">
        <ele>47.711695</ele>
        <time>2024-07-04T13:19:35.300Z</time>
      </trkpt>
      <trkpt lat="52.12308" lon="4.38503">
        <ele>47.688926</ele>
        <time>2024-07-04T13:19:37.312Z</time>
      </trkpt>
      <trkpt lat="52.12315" lon="4.38513">
        <ele>47.665896</ele>
        <time>2024-07-04T13:19:39.307Z</time>
      </trkpt>
      <trkpt lat="52.12321" lon="4.38525">
        <ele>47.644075</ele>
        <time>2024-07-04T13:19:41.313Z</time>
      </trkpt>
      <trkpt lat="52.12328" lon="4.38535">
        <ele>47.621814</ele>
        <time>2024-07-04T13:19:43.300Z</time>
      </trkpt>
      <trkpt lat="52.12335" lon="4.38546">
        <ele>47.607513</ele>
        <time>2024-07-04T13:19:45.303Z</time>
      </trkpt>
      <trkpt lat="52.12342" lon="4.38557">
        <ele>47.595946</ele>
        <time>2024-07-04T13:19:47.301Z</time>
      </trkpt>
      <trkpt lat="52.12349" lon="4.38569">
        <ele>47.5851</ele>
        <time>2024-07-04T13:19:49.295Z</time>
      </trkpt>
      <trkpt lat="52.12353" lon="4.38582">
        <ele>47.574606</ele>
        <time>2024-07-04T13:19:51.304Z</time>
      </trkpt>
      <trkpt lat="52.12359" lon="4.38595">
        <ele>47.563411</ele>
        <time>2024-07-04T13:19:53.308Z</time>
      </trkpt>
      <trkpt lat="52.12365" lon="4.38606">
        <ele>47.552789</ele>
        <time>2024-07-04T13:19:55.288Z</time>
      </trkpt>
      <trkpt lat="52.12372" lon="4.38618">
        <ele>47.542096</ele>
        <time>2024-07-04T13:19:57.302Z</time>
      </trkpt>
      <trkpt lat="52.12379" lon="4.38627">
        <ele>47.531758</ele>
        <time>2024-07-04T13:19:59.299Z</time>
      </trkpt>
      <trkpt lat="52.12387" lon="4.38636">
        <ele>47.520787</ele>
        <time>2024-07-04T13:20:01.302Z</time>
      </trkpt>
      <trkpt lat="52.12395" lon="4.38647">
        <ele>47.508969</ele>
        <time>2024-07-04T13:20:03.303Z</time>
      </trkpt>
      <trkpt lat="52.12403" lon="4.38659">
        <ele>47.49732</ele>
        <time>2024-07-04T13:20:05.300Z</time>
      </trkpt>
      <trkpt lat="52.1241" lon="4.3867">
        <ele>47.485767</ele>
        <time>2024-07-04T13:20:07.301Z</time>
      </trkpt>
      <trkpt lat="52.12417" lon="4.38683">
        <ele>47.473853</ele>
        <time>2024-07-04T13:20:09.309Z</time>
      </trkpt>
      <trkpt lat="52.12424" lon="4.38695">
        <ele>47.462499</ele>
        <time>2024-07-04T13:20:11.318Z</time>
      </trkpt>
      <trkpt lat="52.12431" lon="4.38707">
        <ele>47.451321</ele>
        <time>2024-07-04T13:20:13.317Z</time>
      </trkpt>
      <trkpt lat="52.12438" lon="4.38718">
        <ele>47.440041</ele>
        <time>2024-07-04T13:20:15.301Z</time>
      </trkpt>
      <trkpt lat="52.12445" lon="4.3873">
        <ele>47.428965</ele>
        <time>2024-07-04T13:20:17.297Z</time>
      </trkpt>
      <trkpt lat="52.12451" lon="4.38741">
        <ele>47.418449</ele>
        <time>2024-07-04T13:20:19.303Z</time>
      </trkpt>
      <trkpt lat="52.12458" lon="4.38753">
        <ele>47.420236</ele>
        <time>2024-07-04T13:20:21.294Z</time>
      </trkpt>
      <trkpt lat="52.12465" lon="4.38764">
        <ele>47.435816</ele>
        <time>2024-07-04T13:20:23.309Z</time>
      </trkpt>
      <trkpt lat="52.12472" lon="4.38775">
        <ele>47.451477</ele>
        <time>2024-07-04T13:20:25.306Z</time>
      </trkpt>
      <trkpt lat="52.12481" lon="4.38791">
        <ele>47.473511</ele>
        <time>2024-07-04T13:20:28.292Z</time>
      </trkpt>
      <trkpt lat="52.12488" lon="4.38801">
        <ele>47.488147</ele>
        <time>2024-07-04T13:20:30.298Z</time>
      </trkpt>
      <trkpt lat="52.12498" lon="4.38811">
        <ele>47.508073</ele>
        <time>2024-07-04T13:20:33.298Z</time>
      </trkpt>
      <trkpt lat="52.1251" lon="4.38804">
        <ele>47.52836</ele>
        <time>2024-07-04T13:20:36.287Z</time>
      </trkpt>
      <trkpt lat="52.12516" lon="4.38793">
        <ele>47.54361</ele>
        <time>2024-07-04T13:20:38.315Z</time>
      </trkpt>
      <trkpt lat="52.12524" lon="4.38775">
        <ele>47.565472</ele>
        <time>2024-07-04T13:20:41.294Z</time>
      </trkpt>
      <trkpt lat="52.12533" lon="4.38764">
        <ele>47.583817</ele>
        <time>2024-07-04T13:20:44.308Z</time>
      </trkpt>
      <trkpt lat="52.12542" lon="4.3876">
        <ele>47.599009</ele>
        <time>2024-07-04T13:20:48.293Z</time>
      </trkpt>
      <trkpt lat="52.12551" lon="4.38757">
        <ele>47.614852</ele>
        <time>2024-07-04T13:20:53.297Z</time>
      </trkpt>
      <trkpt lat="52.12562" lon="4.38757">
        <ele>47.632143</ele>
        <time>2024-07-04T13:20:58.298Z</time>
      </trkpt>
      <trkpt lat="52.12572" lon="4.3876">
        <ele>47.649424</ele>
        <time>2024-07-04T13:21:01.308Z</time>
      </trkpt>
      <trkpt lat="52.12584" lon="4.38764">
        <ele>47.668108</ele>
        <time>2024-07-04T13:21:05.299Z</time>
      </trkpt>
      <trkpt lat="52.12593" lon="4.38768">
        <ele>47.683483</ele>
        <time>2024-07-04T13:21:08.311Z</time>
      </trkpt>
      <trkpt lat="52.12602" lon="4.38775">
        <ele>47.700291</ele>
        <time>2024-07-04T13:21:12.297Z</time>
      </trkpt>
      <trkpt lat="52.12611" lon="4.38787">
        <ele>47.610708</ele>
        <time>2024-07-04T13:21:16.298Z</time>
      </trkpt>
      <trkpt lat="52.12615" lon="4.38801">
        <ele>47.499783</ele>
        <time>2024-07-04T13:21:20.286Z</time>
      </trkpt>
      <trkpt lat="52.12616" lon="4.38819">
        <ele>47.363708</ele>
        <time>2024-07-04T13:21:23.327Z</time>
      </trkpt>
      <trkpt lat="52.12618" lon="4.38838">
        <ele>47.226576</ele>
        <time>2024-07-04T13:21:25.297Z</time>
      </trkpt>
      <trkpt lat="52.12624" lon="4.38854">
        <ele>47.083571</ele>
        <time>2024-07-04T13:21:27.299Z</time>
      </trkpt>
      <trkpt lat="52.12633" lon="4.38867">
        <ele>46.940912</ele>
        <time>2024-07-04T13:21:29.301Z</time>
      </trkpt>
      <trkpt lat="52.12642" lon="4.38877">
        <ele>46.815011</ele>
        <time>2024-07-04T13:21:31.298Z</time>
      </trkpt>
      <trkpt lat="52.1265" lon="4.38887">
        <ele>46.696686</ele>
        <time>2024-07-04T13:21:33.305Z</time>
      </trkpt>
      <trkpt lat="52.12658" lon="4.38894">
        <ele>46.579983</ele>
        <time>2024-07-04T13:21:35.301Z</time>
      </trkpt>
      <trkpt lat="52.12666" lon="4.38902">
        <ele>46.47203</ele>
        <time>2024-07-04T13:21:37.296Z</time>
      </trkpt>
      <trkpt lat="52.12674" lon="4.38909">
        <ele>46.364387</ele>
        <time>2024-07-04T13:21:39.313Z</time>
      </trkpt>
      <trkpt lat="52.12685" lon="4.38917">
        <ele>46.214975</ele>
        <time>2024-07-04T13:21:42.311Z</time>
      </trkpt>
      <trkpt lat="52.12695" lon="4.38929">
        <ele>46.07094</ele>
        <time>2024-07-04T13:21:45.304Z</time>
      </trkpt>
      <trkpt lat="52.12704" lon="4.38942">
        <ele>45.926785</ele>
        <time>2024-07-04T13:21:47.285Z</time>
      </trkpt>
      <trkpt lat="52.12709" lon="4.38957">
        <ele>45.807294</ele>
        <time>2024-07-04T13:21:49.297Z</time>
      </trkpt>
      <trkpt lat="52.1271" lon="4.38971">
        <ele>45.700365</ele>
        <time>2024-07-04T13:21:51.302Z</time>
      </trkpt>
      <trkpt lat="52.12713" lon="4.38989">
        <ele>45.564084</ele>
        <time>2024-07-04T13:21:53.312Z</time>
      </trkpt>
      <trkpt lat="52.12716" lon="4.39007">
        <ele>45.589789</ele>
        <time>2024-07-04T13:21:55.290Z</time>
      </trkpt>
      <trkpt lat="52.12722" lon="4.39022">
        <ele>45.6189</ele>
        <time>2024-07-04T13:21:57.300Z</time>
      </trkpt>
      <trkpt lat="52.12727" lon="4.39034">
        <ele>45.643789</ele>
        <time>2024-07-04T13:21:59.285Z</time>
      </trkpt>
      <trkpt lat="52.12737" lon="4.39048">
        <ele>45.678057</ele>
        <time>2024-07-04T13:22:02.300Z</time>
      </trkpt>
      <trkpt lat="52.12746" lon="4.39057">
        <ele>45.704172</ele>
        <time>2024-07-04T13:22:04.300Z</time>
      </trkpt>
      <trkpt lat="52.12755" lon="4.39066">
        <ele>45.733682</ele>
        <time>2024-07-04T13:22:06.312Z</time>
      </trkpt>
      <trkpt lat="52.12765" lon="4.39073">
        <ele>45.762612</ele>
        <time>2024-07-04T13:22:08.292Z</time>
      </trkpt>
      <trkpt lat="52.12774" lon="4.39079">
        <ele>45.787772</ele>
        <time>2024-07-04T13:22:10.312Z</time>
      </trkpt>
      <trkpt lat="52.12784" lon="4.39085">
        <ele>45.816351</ele>
        <time>2024-07-04T13:22:13.298Z</time>
      </trkpt>
      <trkpt lat="52.12794" lon="4.39092">
        <ele>45.845293</ele>
        <time>2024-07-04T13:22:16.300Z</time>
      </trkpt>
      <trkpt lat="52.12802" lon="4.391">
        <ele>45.869964</ele>
        <time>2024-07-04T13:22:19.310Z</time>
      </trkpt>
      <trkpt lat="52.12811" lon="4.39105">
        <ele>45.894387</ele>
        <time>2024-07-04T13:22:22.301Z</time>
      </trkpt>
      <trkpt lat="52.12823" lon="4.39107">
        <ele>45.926166</ele>
        <time>2024-07-04T13:22:26.314Z</time>
      </trkpt>
      <trkpt lat="52.12833" lon="4.39112">
        <ele>45.953799</ele>
        <time>2024-07-04T13:22:29.308Z</time>
      </trkpt>
      <trkpt lat="52.12843" lon="4.3912">
        <ele>45.98396</ele>
        <time>2024-07-04T13:22:33.284Z</time>
      </trkpt>
      <trkpt lat="52.12853" lon="4.39132">
        <ele>46.016523</ele>
        <time>2024-07-04T13:22:36.300Z</time>
      </trkpt>
      <trkpt lat="52.12864" lon="4.39141">
        <ele>46.014818</ele>
        <time>2024-07-04T13:22:39.291Z</time>
      </trkpt>
      <trkpt lat="52.12873" lon="4.39145">
        <ele>45.97189</ele>
        <time>2024-07-04T13:22:42.278Z</time>
      </trkpt>
      <trkpt lat="52.12883" lon="4.3915">
        <ele>45.926848</ele>
        <time>2024-07-04T13:22:44.306Z</time>
      </trkpt>
      <trkpt lat="52.12897" lon="4.39161">
        <ele>45.859063</ele>
        <time>2024-07-04T13:22:46.300Z</time>
      </trkpt>
      <trkpt lat="52.12908" lon="4.39172">
        <ele>45.803465</ele>
        <time>2024-07-04T13:22:48.294Z</time>
      </trkpt>
      <trkpt lat="52.12917" lon="4.39183">
        <ele>45.756373</ele>
        <time>2024-07-04T13:22:50.295Z</time>
      </trkpt>
      <trkpt lat="52.12926" lon="4.39194">
        <ele>45.705699</ele>
        <time>2024-07-04T13:22:52.277Z</time>
      </trkpt>
      <trkpt lat="52.12935" lon="4.39205">
        <ele>45.657421</ele>
        <time>2024-07-04T13:22:54.306Z</time>
      </trkpt>
      <trkpt lat="52.12945" lon="4.39219">
        <ele>45.601044</ele>
        <time>2024-07-04T13:22:56.312Z</time>
      </trkpt>
      <trkpt lat="52.12954" lon="4.39229">
        <ele>45.551062</ele>
        <time>2024-07-04T13:22:58.292Z</time>
      </trkpt>
      <trkpt lat="52.12962" lon="4.39239">
        <ele>45.506995</ele>
        <time>2024-07-04T13:23:00.298Z</time>
      </trkpt>
      <trkpt lat="52.1297" lon="4.39248">
        <ele>45.467217</ele>
        <time>2024-07-04T13:23:02.312Z</time>
      </trkpt>
      <trkpt lat="52.12977" lon="4.39256">
        <ele>45.426775</ele>
        <time>2024-07-04T13:23:04.313Z</time>
      </trkpt>
      <trkpt lat="52.12986" lon="4.39272">
        <ele>45.369452</ele>
        <time>2024-07-04T13:23:07.334Z</time>
      </trkpt>
      <trkpt lat="52.12994" lon="4.3929">
        <ele>45.311584</ele>
        <time>2024-07-04T13:23:10.311Z</time>
      </trkpt>
      <trkpt lat="52.12997" lon="4.39305">
        <ele>45.270295</ele>
        <time>2024-07-04T13:23:12.296Z</time>
      </trkpt>
      <trkpt lat="52.12999" lon="4.39326">
        <ele>45.340937</ele>
        <time>2024-07-04T13:23:15.276Z</time>
      </trkpt>
      <trkpt lat="52.13" lon="4.39345">
        <ele>45.454326</ele>
        <time>2024-07-04T13:23:18.300Z</time>
      </trkpt>
      <trkpt lat="52.13001" lon="4.39362">
        <ele>45.563288</ele>
        <time>2024-07-04T13:23:21.322Z</time>
      </trkpt>
      <trkpt lat="52.13002" lon="4.39381">
        <ele>45.673363</ele>
        <time>2024-07-04T13:24:26.292Z</time>
      </trkpt>
      <trkpt lat="52.13002" lon="4.39396">
        <ele>45.768463</ele>
        <time>2024-07-04T13:24:34.284Z</time>
      </trkpt>
      <trkpt lat="52.13003" lon="4.39414">
        <ele>45.876324</ele>
        <time>2024-07-04T13:24:40.295Z</time>
      </trkpt>
      <trkpt lat="52.13006" lon="4.39432">
        <ele>45.988696</ele>
        <time>2024-07-04T13:24:44.298Z</time>
      </trkpt>
      <trkpt lat="52.13008" lon="4.39451">
        <ele>46.103668</ele>
        <time>2024-07-04T13:24:48.285Z</time>
      </trkpt>
      <trkpt lat="52.13013" lon="4.39468">
        <ele>46.218418</ele>
        <time>2024-07-04T13:24:52.297Z</time>
      </trkpt>
      <trkpt lat="52.13023" lon="4.39475">
        <ele>46.328536</ele>
        <time>2024-07-04T13:24:56.309Z</time>
      </trkpt>
      <trkpt lat="52.13033" lon="4.3947">
        <ele>46.432517</ele>
        <time>2024-07-04T13:24:59.297Z</time>
      </trkpt>
      <trkpt lat="52.13044" lon="4.39463">
        <ele>46.547034</ele>
        <time>2024-07-04T13:25:02.290Z</time>
      </trkpt>
      <trkpt lat="52.13055" lon="4.39457">
        <ele>46.66676</ele>
        <time>2024-07-04T13:25:05.307Z</time>
      </trkpt>
      <trkpt lat="52.13066" lon="4.39449">
        <ele>46.784891</ele>
        <time>2024-07-04T13:25:08.296Z</time>
      </trkpt>
      <trkpt lat="52.13076" lon="4.3944">
        <ele>46.899092</ele>
        <time>2024-07-04T13:25:11.298Z</time>
      </trkpt>
      <trkpt lat="52.13087" lon="4.3943">
        <ele>47.023189</ele>
        <time>2024-07-04T13:25:14.308Z</time>
      </trkpt>
      <trkpt lat="52.13096" lon="4.39416">
        <ele>46.946396</ele>
        <time>2024-07-04T13:25:17.296Z</time>
      </trkpt>
      <trkpt lat="52.13106" lon="4.39404">
        <ele>46.866717</ele>
        <time>2024-07-04T13:25:20.301Z</time>
      </trkpt>
      <trkpt lat="52.13113" lon="4.39391">
        <ele>46.796063</ele>
        <time>2024-07-04T13:25:23.305Z</time>
      </trkpt>
      <trkpt lat="52.13118" lon="4.39375">
        <ele>46.722468</ele>
        <time>2024-07-04T13:25:26.296Z</time>
      </trkpt>
      <trkpt lat="52.13128" lon="4.39373">
        <ele>46.659116</ele>
        <time>2024-07-04T13:25:29.293Z</time>
      </trkpt>
      <trkpt lat="52.13138" lon="4.39383">
        <ele>46.577222</ele>
        <time>2024-07-04T13:25:32.295Z</time>
      </trkpt>
      <trkpt lat="52.13143" lon="4.39397">
        <ele>46.510894</ele>
        <time>2024-07-04T13:25:34.309Z</time>
      </trkpt>
      <trkpt lat="52.13148" lon="4.39412">
        <ele>46.446221</ele>
        <time>2024-07-04T13:25:36.288Z</time>
      </trkpt>
      <trkpt lat="52.13153" lon="4.39425">
        <ele>46.382733</ele>
        <time>2024-07-04T13:25:38.297Z</time>
      </trkpt>
      <trkpt lat="52.1316" lon="4.39442">
        <ele>46.298681</ele>
        <time>2024-07-04T13:25:41.305Z</time>
      </trkpt>
      <trkpt lat="52.13166" lon="4.39456">
        <ele>46.226989</ele>
        <time>2024-07-04T13:25:44.304Z</time>
      </trkpt>
      <trkpt lat="52.13173" lon="4.39468">
        <ele>46.162953</ele>
        <time>2024-07-04T13:25:47.309Z</time>
      </trkpt>
      <trkpt lat="52.13178" lon="4.39484">
        <ele>46.087646</ele>
        <time>2024-07-04T13:25:50.302Z</time>
      </trkpt>
      <trkpt lat="52.13183" lon="4.39502">
        <ele>46.006128</ele>
        <time>2024-07-04T13:25:53.302Z</time>
      </trkpt>
      <trkpt lat="52.13187" lon="4.39516">
        <ele>45.944233</ele>
        <time>2024-07-04T13:25:55.317Z</time>
      </trkpt>
      <trkpt lat="52.13195" lon="4.3953">
        <ele>45.868034</ele>
        <time>2024-07-04T13:25:58.278Z</time>
      </trkpt>
      <trkpt lat="52.13204" lon="4.39543">
        <ele>45.75981</ele>
        <time>2024-07-04T13:26:01.314Z</time>
      </trkpt>
      <trkpt lat="52.13212" lon="4.39559">
        <ele>45.621421</ele>
        <time>2024-07-04T13:26:04.319Z</time>
      </trkpt>
      <trkpt lat="52.1322" lon="4.39572">
        <ele>45.502899</ele>
        <time>2024-07-04T13:26:07.292Z</time>
      </trkpt>
      <trkpt lat="52.13226" lon="4.39583">
        <ele>45.398625</ele>
        <time>2024-07-04T13:26:09.284Z</time>
      </trkpt>
      <trkpt lat="52.13232" lon="4.39599">
        <ele>45.27885</ele>
        <time>2024-07-04T13:26:11.301Z</time>
      </trkpt>
      <trkpt lat="52.13236" lon="4.39618">
        <ele>45.147127</ele>
        <time>2024-07-04T13:26:14.289Z</time>
      </trkpt>
      <trkpt lat="52.13243" lon="4.39633">
        <ele>45.016415</ele>
        <time>2024-07-04T13:26:17.295Z</time>
      </trkpt>
      <trkpt lat="52.13252" lon="4.39643">
        <ele>44.905496</ele>
        <time>2024-07-04T13:26:19.301Z</time>
      </trkpt>
      <trkpt lat="52.13258" lon="4.39655">
        <ele>44.80341</ele>
        <time>2024-07-04T13:26:21.313Z</time>
      </trkpt>
      <trkpt lat="52.13265" lon="4.39665">
        <ele>44.697357</ele>
        <time>2024-07-04T13:26:23.312Z</time>
      </trkpt>
      <trkpt lat="52.13273" lon="4.39678">
        <ele>44.583341</ele>
        <time>2024-07-04T13:26:26.270Z</time>
      </trkpt>
      <trkpt lat="52.13282" lon="4.39689">
        <ele>44.460332</ele>
        <time>2024-07-04T13:26:29.303Z</time>
      </trkpt>
      <trkpt lat="52.1329" lon="4.39699">
        <ele>44.347203</ele>
        <time>2024-07-04T13:26:32.293Z</time>
      </trkpt>
      <trkpt lat="52.13298" lon="4.39707">
        <ele>44.242878</ele>
        <time>2024-07-04T13:26:35.308Z</time>
      </trkpt>
      <trkpt lat="52.13298" lon="4.39727">
        <ele>44.11138</ele>
        <time>2024-07-04T13:26:39.299Z</time>
      </trkpt>
      <trkpt lat="52.13291" lon="4.39742">
        <ele>43.989468</ele>
        <time>2024-07-04T13:26:42.284Z</time>
      </trkpt>
      <trkpt lat="52.13283" lon="4.39754">
        <ele>43.913185</ele>
        <time>2024-07-04T13:26:45.294Z</time>
      </trkpt>
      <trkpt lat="52.13274" lon="4.39766">
        <ele>44.024577</ele>
        <time>2024-07-04T13:26:48.314Z</time>
      </trkpt>
      <trkpt lat="52.13266" lon="4.39779">
        <ele>44.132171</ele>
        <time>2024-07-04T13:26:51.297Z</time>
      </trkpt>
      <trkpt lat="52.13259" lon="4.39792">
        <ele>44.234718</ele>
        <time>2024-07-04T13:26:54.299Z</time>
      </trkpt>
      <trkpt lat="52.13252" lon="4.39805">
        <ele>44.335942</ele>
        <time>2024-07-04T13:26:57.297Z</time>
      </trkpt>
      <trkpt lat="52.13246" lon="4.39817">
        <ele>44.42725</ele>
        <time>2024-07-04T13:27:00.296Z</time>
      </trkpt>
      <trkpt lat="52.1324" lon="4.3983">
        <ele>44.526943</ele>
        <time>2024-07-04T13:27:03.302Z</time>
      </trkpt>
      <trkpt lat="52.13243" lon="4.39845">
        <ele>44.618699</ele>
        <time>2024-07-04T13:27:06.288Z</time>
      </trkpt>
      <trkpt lat="52.13253" lon="4.39859">
        <ele>44.742305</ele>
        <time>2024-07-04T13:27:09.303Z</time>
      </trkpt>
      <trkpt lat="52.1326" lon="4.39868">
        <ele>44.831271</ele>
        <time>2024-07-04T13:27:11.278Z</time>
      </trkpt>
      <trkpt lat="52.1327" lon="4.3988">
        <ele>44.950252</ele>
        <time>2024-07-04T13:27:14.303Z</time>
      </trkpt>
      <trkpt lat="52.1328" lon="4.39894">
        <ele>45.076968</ele>
        <time>2024-07-04T13:27:17.312Z</time>
      </trkpt>
      <trkpt lat="52.1329" lon="4.39907">
        <ele>45.202599</ele>
        <time>2024-07-04T13:27:20.301Z</time>
      </trkpt>
      <trkpt lat="52.133" lon="4.3992">
        <ele>45.321108</ele>
        <time>2024-07-04T13:27:23.312Z</time>
      </trkpt>
      <trkpt lat="52.13309" lon="4.39932">
        <ele>45.437481</ele>
        <time>2024-07-04T13:27:26.295Z</time>
      </trkpt>
      <trkpt lat="52.13319" lon="4.39945">
        <ele>45.556473</ele>
        <time>2024-07-04T13:27:29.298Z</time>
      </trkpt>
      <trkpt lat="52.13328" lon="4.39958">
        <ele>45.596445</ele>
        <time>2024-07-04T13:27:32.312Z</time>
      </trkpt>
      <trkpt lat="52.13338" lon="4.39972">
        <ele>45.519201</ele>
        <time>2024-07-04T13:27:35.287Z</time>
      </trkpt>
      <trkpt lat="52.13348" lon="4.39985">
        <ele>45.442484</ele>
        <time>2024-07-04T13:27:38.294Z</time>
      </trkpt>
      <trkpt lat="52.13357" lon="4.39999">
        <ele>45.365272</ele>
        <time>2024-07-04T13:27:41.315Z</time>
      </trkpt>
      <trkpt lat="52.13367" lon="4.40012">
        <ele>45.287842</ele>
        <time>2024-07-04T13:27:44.295Z</time>
      </trkpt>
      <trkpt lat="52.13374" lon="4.40022">
        <ele>45.233463</ele>
        <time>2024-07-04T13:27:46.297Z</time>
      </trkpt>
      <trkpt lat="52.13384" lon="4.40034">
        <ele>45.157119</ele>
        <time>2024-07-04T13:27:49.311Z</time>
      </trkpt>
      <trkpt lat="52.13394" lon="4.40048">
        <ele>45.079876</ele>
        <time>2024-07-04T13:27:52.296Z</time>
      </trkpt>
      <trkpt lat="52.13404" lon="4.40062">
        <ele>44.999883</ele>
        <time>2024-07-04T13:27:55.312Z</time>
      </trkpt>
      <trkpt lat="52.13414" lon="4.40076">
        <ele>44.921053</ele>
        <time>2024-07-04T13:27:58.295Z</time>
      </trkpt>
      <trkpt lat="52.13424" lon="4.40089">
        <ele>44.844323</ele>
        <time>2024-07-04T13:28:01.275Z</time>
      </trkpt>
      <trkpt lat="52.13434" lon="4.40103">
        <ele>44.762928</ele>
        <time>2024-07-04T13:28:04.299Z</time>
      </trkpt>
      <trkpt lat="52.13441" lon="4.40113">
        <ele>44.70753</ele>
        <time>2024-07-04T13:28:06.304Z</time>
      </trkpt>
      <trkpt lat="52.13447" lon="4.40123">
        <ele>44.652302</ele>
        <time>2024-07-04T13:28:08.300Z</time>
      </trkpt>
      <trkpt lat="52.13455" lon="4.40134">
        <ele>44.593057</ele>
        <time>2024-07-04T13:28:10.309Z</time>
      </trkpt>
      <trkpt lat="52.13462" lon="4.40144">
        <ele>44.549728</ele>
        <time>2024-07-04T13:28:12.293Z</time>
      </trkpt>
      <trkpt lat="52.13469" lon="4.40154">
        <ele>44.602818</ele>
        <time>2024-07-04T13:28:14.292Z</time>
      </trkpt>
      <trkpt lat="52.13476" lon="4.40164">
        <ele>44.656635</ele>
        <time>2024-07-04T13:28:16.294Z</time>
      </trkpt>
      <trkpt lat="52.13484" lon="4.40174">
        <ele>44.711715</ele>
        <time>2024-07-04T13:28:18.299Z</time>
      </trkpt>
      <trkpt lat="52.13491" lon="4.40184">
        <ele>44.766586</ele>
        <time>2024-07-04T13:28:20.295Z</time>
      </trkpt>
      <trkpt lat="52.13498" lon="4.40194">
        <ele>44.822105</ele>
        <time>2024-07-04T13:28:22.297Z</time>
      </trkpt>
      <trkpt lat="52.13506" lon="4.40204">
        <ele>44.878728</ele>
        <time>2024-07-04T13:28:24.293Z</time>
      </trkpt>
      <trkpt lat="52.13514" lon="4.40214">
        <ele>44.934029</ele>
        <time>2024-07-04T13:28:26.311Z</time>
      </trkpt>
      <trkpt lat="52.13521" lon="4.40224">
        <ele>44.985829</ele>
        <time>2024-07-04T13:28:28.310Z</time>
      </trkpt>
      <trkpt lat="52.13527" lon="4.40235">
        <ele>45.039933</ele>
        <time>2024-07-04T13:28:30.296Z</time>
      </trkpt>
      <trkpt lat="52.13534" lon="4.40245">
        <ele>45.093052</ele>
        <time>2024-07-04T13:28:32.289Z</time>
      </trkpt>
      <trkpt lat="52.13544" lon="4.40259">
        <ele>45.167369</ele>
        <time>2024-07-04T13:28:35.302Z</time>
      </trkpt>
      <trkpt lat="52.13554" lon="4.40274">
        <ele>45.243194</ele>
        <time>2024-07-04T13:28:38.288Z</time>
      </trkpt>
      <trkpt lat="52.13564" lon="4.40287">
        <ele>45.319728</ele>
        <time>2024-07-04T13:28:41.319Z</time>
      </trkpt>
      <trkpt lat="52.13572" lon="4.40297">
        <ele>45.373036</ele>
        <time>2024-07-04T13:28:43.284Z</time>
      </trkpt>
      <trkpt lat="52.13578" lon="4.40307">
        <ele>45.425726</ele>
        <time>2024-07-04T13:28:45.289Z</time>
      </trkpt>
      <trkpt lat="52.13586" lon="4.40316">
        <ele>45.477505</ele>
        <time>2024-07-04T13:28:47.321Z</time>
      </trkpt>
      <trkpt lat="52.13595" lon="4.40331">
        <ele>45.55364</ele>
        <time>2024-07-04T13:28:50.300Z</time>
      </trkpt>
      <trkpt lat="52.13605" lon="4.40345">
        <ele>45.669952</ele>
        <time>2024-07-04T13:28:53.296Z</time>
      </trkpt>
      <trkpt lat="52.13615" lon="4.40359">
        <ele>45.799038</ele>
        <time>2024-07-04T13:28:56.292Z</time>
      </trkpt>
      <trkpt lat="52.13622" lon="4.40369">
        <ele>45.891061</ele>
        <time>2024-07-04T13:28:58.287Z</time>
      </trkpt>
      <trkpt lat="52.13629" lon="4.4038">
        <ele>45.981749</ele>
        <time>2024-07-04T13:29:00.309Z</time>
      </trkpt>
      <trkpt lat="52.13637" lon="4.40389">
        <ele>46.072624</ele>
        <time>2024-07-04T13:29:02.312Z</time>
      </trkpt>
      <trkpt lat="52.13644" lon="4.40399">
        <ele>46.162095</ele>
        <time>2024-07-04T13:29:04.296Z</time>
      </trkpt>
      <trkpt lat="52.13653" lon="4.40415">
        <ele>46.290629</ele>
        <time>2024-07-04T13:29:07.304Z</time>
      </trkpt>
      <trkpt lat="52.13659" lon="4.40425">
        <ele>46.379507</ele>
        <time>2024-07-04T13:29:09.301Z</time>
      </trkpt>
      <trkpt lat="52.1367" lon="4.40439">
        <ele>46.50934</ele>
        <time>2024-07-04T13:29:12.294Z</time>
      </trkpt>
      <trkpt lat="52.13676" lon="4.40449">
        <ele>46.599467</ele>
        <time>2024-07-04T13:29:14.295Z</time>
      </trkpt>
      <trkpt lat="52.13683" lon="4.40461">
        <ele>46.692136</ele>
        <time>2024-07-04T13:29:16.285Z</time>
      </trkpt>
      <trkpt lat="52.13691" lon="4.40477">
        <ele>46.817227</ele>
        <time>2024-07-04T13:29:19.297Z</time>
      </trkpt>
      <trkpt lat="52.13698" lon="4.40494">
        <ele>46.940492</ele>
        <time>2024-07-04T13:29:22.276Z</time>
      </trkpt>
      <trkpt lat="52.13703" lon="4.40507">
        <ele>47.033662</ele>
        <time>2024-07-04T13:29:24.293Z</time>
      </trkpt>
      <trkpt lat="52.13709" lon="4.4052">
        <ele>47.123026</ele>
        <time>2024-07-04T13:29:26.291Z</time>
      </trkpt>
      <trkpt lat="52.13715" lon="4.40531">
        <ele>47.210542</ele>
        <time>2024-07-04T13:29:28.296Z</time>
      </trkpt>
      <trkpt lat="52.13722" lon="4.40542">
        <ele>47.304404</ele>
        <time>2024-07-04T13:29:30.291Z</time>
      </trkpt>
      <trkpt lat="52.13727" lon="4.40553">
        <ele>47.310969</ele>
        <time>2024-07-04T13:29:32.295Z</time>
      </trkpt>
      <trkpt lat="52.13733" lon="4.40565">
        <ele>47.311954</ele>
        <time>2024-07-04T13:29:34.301Z</time>
      </trkpt>
      <trkpt lat="52.13742" lon="4.40581">
        <ele>47.313386</ele>
        <time>2024-07-04T13:29:37.308Z</time>
      </trkpt>
      <trkpt lat="52.13751" lon="4.40596">
        <ele>47.314711</ele>
        <time>2024-07-04T13:29:40.296Z</time>
      </trkpt>
      <trkpt lat="52.13758" lon="4.40611">
        <ele>47.315969</ele>
        <time>2024-07-04T13:29:43.316Z</time>
      </trkpt>
      <trkpt lat="52.13765" lon="4.40623">
        <ele>47.317022</ele>
        <time>2024-07-04T13:29:46.288Z</time>
      </trkpt>
      <trkpt lat="52.13772" lon="4.40634">
        <ele>47.318065</ele>
        <time>2024-07-04T13:29:51.310Z</time>
      </trkpt>
      <trkpt lat="52.13781" lon="4.40645">
        <ele>47.319257</ele>
        <time>2024-07-04T13:30:01.304Z</time>
      </trkpt>
      <trkpt lat="52.13788" lon="4.40656">
        <ele>47.320295</ele>
        <time>2024-07-04T13:30:04.292Z</time>
      </trkpt>
      <trkpt lat="52.13795" lon="4.40671">
        <ele>47.321541</ele>
        <time>2024-07-04T13:30:07.317Z</time>
      </trkpt>
      <trkpt lat="52.13803" lon="4.40687">
        <ele>47.32292</ele>
        <time>2024-07-04T13:30:10.300Z</time>
      </trkpt>
      <trkpt lat="52.13811" lon="4.40704">
        <ele>47.324292</ele>
        <time>2024-07-04T13:30:13.300Z</time>
      </trkpt>
      <trkpt lat="52.13819" lon="4.4072">
        <ele>47.325652</ele>
        <time>2024-07-04T13:30:16.298Z</time>
      </trkpt>
      <trkpt lat="52.13827" lon="4.40736">
        <ele>47.327035</ele>
        <time>2024-07-04T13:30:19.316Z</time>
      </trkpt>
      <trkpt lat="52.13833" lon="4.40748">
        <ele>47.328004</ele>
        <time>2024-07-04T13:30:21.302Z</time>
      </trkpt>
      <trkpt lat="52.13838" lon="4.40761">
        <ele>47.329016</ele>
        <time>2024-07-04T13:30:23.320Z</time>
      </trkpt>
      <trkpt lat="52.13844" lon="4.40773">
        <ele>47.268825</ele>
        <time>2024-07-04T13:30:25.307Z</time>
      </trkpt>
      <trkpt lat="52.1385" lon="4.40786">
        <ele>47.193144</ele>
        <time>2024-07-04T13:30:27.295Z</time>
      </trkpt>
      <trkpt lat="52.13855" lon="4.40798">
        <ele>47.119564</ele>
        <time>2024-07-04T13:30:29.303Z</time>
      </trkpt>
      <trkpt lat="52.13861" lon="4.4081">
        <ele>47.046092</ele>
        <time>2024-07-04T13:30:31.303Z</time>
      </trkpt>
      <trkpt lat="52.13873" lon="4.40811">
        <ele>46.95141</ele>
        <time>2024-07-04T13:30:34.306Z</time>
      </trkpt>
      <trkpt lat="52.1388" lon="4.40801">
        <ele>46.877689</ele>
        <time>2024-07-04T13:30:36.288Z</time>
      </trkpt>
      <trkpt lat="52.13887" lon="4.4079">
        <ele>46.804683</ele>
        <time>2024-07-04T13:30:38.297Z</time>
      </trkpt>
      <trkpt lat="52.13894" lon="4.4078">
        <ele>46.728821</ele>
        <time>2024-07-04T13:30:40.302Z</time>
      </trkpt>
      <trkpt lat="52.13901" lon="4.40769">
        <ele>46.648417</ele>
        <time>2024-07-04T13:30:42.304Z</time>
      </trkpt>
      <trkpt lat="52.13909" lon="4.40758">
        <ele>46.566834</ele>
        <time>2024-07-04T13:30:44.308Z</time>
      </trkpt>
      <trkpt lat="52.13919" lon="4.4075">
        <ele>46.483246</ele>
        <time>2024-07-04T13:30:46.308Z</time>
      </trkpt>
      <trkpt lat="52.1393" lon="4.40751">
        <ele>46.391614</ele>
        <time>2024-07-04T13:30:48.292Z</time>
      </trkpt>
      <trkpt lat="52.13941" lon="4.40753">
        <ele>46.307752</ele>
        <time>2024-07-04T13:30:50.304Z</time>
      </trkpt>
      <trkpt lat="52.13952" lon="4.40755">
        <ele>46.220661</ele>
        <time>2024-07-04T13:30:52.303Z</time>
      </trkpt>
      <trkpt lat="52.13961" lon="4.40761">
        <ele>46.143303</ele>
        <time>2024-07-04T13:30:54.284Z</time>
      </trkpt>
      <trkpt lat="52.13969" lon="4.40773">
        <ele>46.057557</ele>
        <time>2024-07-04T13:30:56.295Z</time>
      </trkpt>
      <trkpt lat="52.13975" lon="4.40788">
        <ele>45.969627</ele>
        <time>2024-07-04T13:30:58.298Z</time>
      </trkpt>
      <trkpt lat="52.13981" lon="4.40803">
        <ele>45.891642</ele>
        <time>2024-07-04T13:31:00.296Z</time>
      </trkpt>
      <trkpt lat="52.13988" lon="4.40815">
        <ele>45.826786</ele>
        <time>2024-07-04T13:31:02.306Z</time>
      </trkpt>
      <trkpt lat="52.13996" lon="4.40824">
        <ele>45.760877</ele>
        <time>2024-07-04T13:31:04.292Z</time>
      </trkpt>
      <trkpt lat="52.14006" lon="4.4083">
        <ele>45.695102</ele>
        <time>2024-07-04T13:31:06.288Z</time>
      </trkpt>
      <trkpt lat="52.14016" lon="4.40831">
        <ele>45.631095</ele>
        <time>2024-07-04T13:31:08.300Z</time>
      </trkpt>
      <trkpt lat="52.14026" lon="4.40829">
        <ele>45.565515</ele>
        <time>2024-07-04T13:31:10.295Z</time>
      </trkpt>
      <trkpt lat="52.14035" lon="4.40823">
        <ele>45.504315</ele>
        <time>2024-07-04T13:31:12.290Z</time>
      </trkpt>
      <trkpt lat="52.14045" lon="4.4081">
        <ele>45.42314</ele>
        <time>2024-07-04T13:31:15.310Z</time>
      </trkpt>
      <trkpt lat="52.14053" lon="4.40798">
        <ele>45.35339</ele>
        <time>2024-07-04T13:31:18.312Z</time>
      </trkpt>
      <trkpt lat="52.14063" lon="4.40797">
        <ele>45.288821</ele>
        <time>2024-07-04T13:31:22.293Z</time>
      </trkpt>
      <trkpt lat="52.14069" lon="4.40813">
        <ele>45.21201</ele>
        <time>2024-07-04T13:31:25.282Z</time>
      </trkpt>
      <trkpt lat="52.14075" lon="4.40831">
        <ele>45.135125</ele>
        <time>2024-07-04T13:31:28.290Z</time>
      </trkpt>
      <trkpt lat="52.14081" lon="4.40849">
        <ele>45.053795</ele>
        <time>2024-07-04T13:31:31.302Z</time>
      </trkpt>
      <trkpt lat="52.14088" lon="4.40868">
        <ele>44.968965</ele>
        <time>2024-07-04T13:31:34.298Z</time>
      </trkpt>
      <trkpt lat="52.14093" lon="4.40881">
        <ele>44.909194</ele>
        <time>2024-07-04T13:31:36.306Z</time>
      </trkpt>
      <trkpt lat="52.14098" lon="4.40894">
        <ele>44.848422</ele>
        <time>2024-07-04T13:31:38.299Z</time>
      </trkpt>
      <trkpt lat="52.14102" lon="4.40908">
        <ele>44.788272</ele>
        <time>2024-07-04T13:31:40.297Z</time>
      </trkpt>
      <trkpt lat="52.14107" lon="4.40921">
        <ele>44.780809</ele>
        <time>2024-07-04T13:31:42.296Z</time>
      </trkpt>
      <trkpt lat="52.14112" lon="4.40934">
        <ele>44.807616</ele>
        <time>2024-07-04T13:31:44.310Z</time>
      </trkpt>
      <trkpt lat="52.14117" lon="4.40948">
        <ele>44.835435</ele>
        <time>2024-07-04T13:31:46.298Z</time>
      </trkpt>
      <trkpt lat="52.14122" lon="4.40962">
        <ele>44.864295</ele>
        <time>2024-07-04T13:31:48.305Z</time>
      </trkpt>
      <trkpt lat="52.14127" lon="4.40976">
        <ele>44.891956</ele>
        <time>2024-07-04T13:31:50.310Z</time>
      </trkpt>
      <trkpt lat="52.14132" lon="4.40989">
        <ele>44.918285</ele>
        <time>2024-07-04T13:31:52.298Z</time>
      </trkpt>
      <trkpt lat="52.14137" lon="4.41003">
        <ele>44.947032</ele>
        <time>2024-07-04T13:31:54.313Z</time>
      </trkpt>
      <trkpt lat="52.14142" lon="4.41018">
        <ele>44.976631</ele>
        <time>2024-07-04T13:31:56.284Z</time>
      </trkpt>
      <trkpt lat="52.14147" lon="4.41031">
        <ele>45.00459</ele>
        <time>2024-07-04T13:31:58.296Z</time>
      </trkpt>
      <trkpt lat="52.14152" lon="4.41046">
        <ele>45.034375</ele>
        <time>2024-07-04T13:32:00.303Z</time>
      </trkpt>
      <trkpt lat="52.14157" lon="4.41061">
        <ele>45.064144</ele>
        <time>2024-07-04T13:32:02.307Z</time>
      </trkpt>
      <trkpt lat="52.14163" lon="4.41076">
        <ele>45.094346</ele>
        <time>2024-07-04T13:32:04.300Z</time>
      </trkpt>
      <trkpt lat="52.14169" lon="4.41091">
        <ele>45.124572</ele>
        <time>2024-07-04T13:32:06.310Z</time>
      </trkpt>
      <trkpt lat="52.14175" lon="4.41105">
        <ele>45.154942</ele>
        <time>2024-07-04T13:32:08.299Z</time>
      </trkpt>
      <trkpt lat="52.1418" lon="4.41121">
        <ele>45.185784</ele>
        <time>2024-07-04T13:32:10.278Z</time>
      </trkpt>
      <trkpt lat="52.14185" lon="4.41136">
        <ele>45.217203</ele>
        <time>2024-07-04T13:32:12.301Z</time>
      </trkpt>
      <trkpt lat="52.1419" lon="4.41152">
        <ele>45.247186</ele>
        <time>2024-07-04T13:32:14.296Z</time>
      </trkpt>
      <trkpt lat="52.14194" lon="4.41168">
        <ele>45.275116</ele>
        <time>2024-07-04T13:32:16.297Z</time>
      </trkpt>
      <trkpt lat="52.14199" lon="4.41184">
        <ele>45.268424</ele>
        <time>2024-07-04T13:32:18.297Z</time>
      </trkpt>
      <trkpt lat="52.14202" lon="4.41201">
        <ele>45.2616</ele>
        <time>2024-07-04T13:32:20.296Z</time>
      </trkpt>
      <trkpt lat="52.14204" lon="4.41218">
        <ele>45.254932</ele>
        <time>2024-07-04T13:32:22.309Z</time>
      </trkpt>
      <trkpt lat="52.14206" lon="4.41235">
        <ele>45.248076</ele>
        <time>2024-07-04T13:32:24.310Z</time>
      </trkpt>
      <trkpt lat="52.14209" lon="4.41253">
        <ele>45.241167</ele>
        <time>2024-07-04T13:32:26.298Z</time>
      </trkpt>
      <trkpt lat="52.14211" lon="4.41269">
        <ele>45.234685</ele>
        <time>2024-07-04T13:32:28.315Z</time>
      </trkpt>
      <trkpt lat="52.14214" lon="4.41287">
        <ele>45.22785</ele>
        <time>2024-07-04T13:32:30.316Z</time>
      </trkpt>
      <trkpt lat="52.14216" lon="4.41303">
        <ele>45.221443</ele>
        <time>2024-07-04T13:32:32.298Z</time>
      </trkpt>
      <trkpt lat="52.14219" lon="4.41318">
        <ele>45.215421</ele>
        <time>2024-07-04T13:32:34.295Z</time>
      </trkpt>
      <trkpt lat="52.14221" lon="4.41334">
        <ele>45.209362</ele>
        <time>2024-07-04T13:32:36.300Z</time>
      </trkpt>
      <trkpt lat="52.14224" lon="4.41348">
        <ele>45.203702</ele>
        <time>2024-07-04T13:32:38.301Z</time>
      </trkpt>
      <trkpt lat="52.14228" lon="4.41362">
        <ele>45.198026</ele>
        <time>2024-07-04T13:32:40.283Z</time>
      </trkpt>
      <trkpt lat="52.14235" lon="4.41379">
        <ele>45.189864</ele>
        <time>2024-07-04T13:32:43.286Z</time>
      </trkpt>
      <trkpt lat="52.14237" lon="4.41398">
        <ele>45.182458</ele>
        <time>2024-07-04T13:32:46.288Z</time>
      </trkpt>
      <trkpt lat="52.14239" lon="4.41414">
        <ele>45.176351</ele>
        <time>2024-07-04T13:32:49.303Z</time>
      </trkpt>
      <trkpt lat="52.14246" lon="4.41426">
        <ele>45.169556</ele>
        <time>2024-07-04T13:32:54.304Z</time>
      </trkpt>
      <trkpt lat="52.14256" lon="4.41436">
        <ele>45.144588</ele>
        <time>2024-07-04T13:32:58.282Z</time>
      </trkpt>
      <trkpt lat="52.14265" lon="4.4145">
        <ele>45.023333</ele>
        <time>2024-07-04T13:33:01.294Z</time>
      </trkpt>
      <trkpt lat="52.14273" lon="4.41466">
        <ele>44.895635</ele>
        <time>2024-07-04T13:33:04.298Z</time>
      </trkpt>
      <trkpt lat="52.14284" lon="4.41478">
        <ele>44.77002</ele>
        <time>2024-07-04T13:33:07.278Z</time>
      </trkpt>
      <trkpt lat="52.14293" lon="4.41493">
        <ele>44.643107</ele>
        <time>2024-07-04T13:33:10.305Z</time>
      </trkpt>
      <trkpt lat="52.14303" lon="4.41508">
        <ele>44.510128</ele>
        <time>2024-07-04T13:33:13.309Z</time>
      </trkpt>
      <trkpt lat="52.1431" lon="4.41518">
        <ele>44.41767</ele>
        <time>2024-07-04T13:33:15.307Z</time>
      </trkpt>
      <trkpt lat="52.14317" lon="4.41529">
        <ele>44.325517</ele>
        <time>2024-07-04T13:33:17.305Z</time>
      </trkpt>
      <trkpt lat="52.14322" lon="4.4154">
        <ele>44.23687</ele>
        <time>2024-07-04T13:33:19.294Z</time>
      </trkpt>
      <trkpt lat="52.14329" lon="4.4155">
        <ele>44.146262</ele>
        <time>2024-07-04T13:33:21.296Z</time>
      </trkpt>
      <trkpt lat="52.14336" lon="4.41559">
        <ele>44.055508</ele>
        <time>2024-07-04T13:33:23.305Z</time>
      </trkpt>
      <trkpt lat="52.14343" lon="4.41571">
        <ele>43.958462</ele>
        <time>2024-07-04T13:33:25.308Z</time>
      </trkpt>
      <trkpt lat="52.1435" lon="4.41582">
        <ele>43.861255</ele>
        <time>2024-07-04T13:33:27.309Z</time>
      </trkpt>
      <trkpt lat="52.14358" lon="4.41593">
        <ele>43.758676</ele>
        <time>2024-07-04T13:33:29.299Z</time>
      </trkpt>
      <trkpt lat="52.14365" lon="4.41604">
        <ele>43.663545</ele>
        <time>2024-07-04T13:33:31.313Z</time>
      </trkpt>
      <trkpt lat="52.14373" lon="4.41615">
        <ele>43.563952</ele>
        <time>2024-07-04T13:33:33.312Z</time>
      </trkpt>
      <trkpt lat="52.14381" lon="4.41626">
        <ele>43.461614</ele>
        <time>2024-07-04T13:33:35.313Z</time>
      </trkpt>
      <trkpt lat="52.14388" lon="4.41637">
        <ele>43.406896</ele>
        <time>2024-07-04T13:33:37.302Z</time>
      </trkpt>
      <trkpt lat="52.14395" lon="4.41648">
        <ele>43.447133</ele>
        <time>2024-07-04T13:33:39.314Z</time>
      </trkpt>
      <trkpt lat="52.14402" lon="4.4166">
        <ele>43.487143</ele>
        <time>2024-07-04T13:33:41.300Z</time>
      </trkpt>
      <trkpt lat="52.1441" lon="4.41672">
        <ele>43.529208</ele>
        <time>2024-07-04T13:33:43.300Z</time>
      </trkpt>
      <trkpt lat="52.14417" lon="4.41684">
        <ele>43.569464</ele>
        <time>2024-07-04T13:33:45.311Z</time>
      </trkpt>
      <trkpt lat="52.14424" lon="4.41694">
        <ele>43.608183</ele>
        <time>2024-07-04T13:33:47.295Z</time>
      </trkpt>
      <trkpt lat="52.14432" lon="4.41706">
        <ele>43.649419</ele>
        <time>2024-07-04T13:33:49.321Z</time>
      </trkpt>
      <trkpt lat="52.14439" lon="4.41717">
        <ele>43.689319</ele>
        <time>2024-07-04T13:33:51.311Z</time>
      </trkpt>
      <trkpt lat="52.14447" lon="4.41728">
        <ele>43.730051</ele>
        <time>2024-07-04T13:33:53.303Z</time>
      </trkpt>
      <trkpt lat="52.14455" lon="4.41738">
        <ele>43.77062</ele>
        <time>2024-07-04T13:33:55.307Z</time>
      </trkpt>
      <trkpt lat="52.14462" lon="4.41749">
        <ele>43.80999</ele>
        <time>2024-07-04T13:33:57.297Z</time>
      </trkpt>
      <trkpt lat="52.14469" lon="4.4176">
        <ele>43.848814</ele>
        <time>2024-07-04T13:33:59.308Z</time>
      </trkpt>
      <trkpt lat="52.14476" lon="4.41772">
        <ele>43.889624</ele>
        <time>2024-07-04T13:34:01.302Z</time>
      </trkpt>
      <trkpt lat="52.14484" lon="4.41785">
        <ele>43.933571</ele>
        <time>2024-07-04T13:34:03.307Z</time>
      </trkpt>
      <trkpt lat="52.14491" lon="4.41798">
        <ele>43.974101</ele>
        <time>2024-07-04T13:34:05.317Z</time>
      </trkpt>
      <trkpt lat="52.14497" lon="4.41811">
        <ele>44.01402</ele>
        <time>2024-07-04T13:34:07.307Z</time>
      </trkpt>
      <trkpt lat="52.14504" lon="4.41822">
        <ele>44.05355</ele>
        <time>2024-07-04T13:34:09.319Z</time>
      </trkpt>
      <trkpt lat="52.1451" lon="4.41835">
        <ele>44.093682</ele>
        <time>2024-07-04T13:34:11.294Z</time>
      </trkpt>
      <trkpt lat="52.14516" lon="4.41848">
        <ele>44.15456</ele>
        <time>2024-07-04T13:34:13.308Z</time>
      </trkpt>
      <trkpt lat="52.14522" lon="4.41861">
        <ele>44.225483</ele>
        <time>2024-07-04T13:34:15.315Z</time>
      </trkpt>
      <trkpt lat="52.14528" lon="4.41873">
        <ele>44.296963</ele>
        <time>2024-07-04T13:34:17.304Z</time>
      </trkpt>
      <trkpt lat="52.14533" lon="4.41885">
        <ele>44.364932</ele>
        <time>2024-07-04T13:34:19.302Z</time>
      </trkpt>
      <trkpt lat="52.14539" lon="4.41898">
        <ele>44.436851</ele>
        <time>2024-07-04T13:34:21.299Z</time>
      </trkpt>
      <trkpt lat="52.14545" lon="4.4191">
        <ele>44.509566</ele>
        <time>2024-07-04T13:34:23.302Z</time>
      </trkpt>
      <trkpt lat="52.14553" lon="4.41922">
        <ele>44.587196</ele>
        <time>2024-07-04T13:34:25.286Z</time>
      </trkpt>
      <trkpt lat="52.1456" lon="4.41934">
        <ele>44.662272</ele>
        <time>2024-07-04T13:34:27.301Z</time>
      </trkpt>
      <trkpt lat="52.14566" lon="4.41947">
        <ele>44.736766</ele>
        <time>2024-07-04T13:34:29.312Z</time>
      </trkpt>
      <trkpt lat="52.14572" lon="4.4196">
        <ele>44.812377</ele>
        <time>2024-07-04T13:34:31.285Z</time>
      </trkpt>
      <trkpt lat="52.14579" lon="4.41973">
        <ele>44.888676</ele>
        <time>2024-07-04T13:34:33.299Z</time>
      </trkpt>
      <trkpt lat="52.14584" lon="4.41985">
        <ele>44.957013</ele>
        <time>2024-07-04T13:34:35.297Z</time>
      </trkpt>
      <trkpt lat="52.1459" lon="4.41997">
        <ele>45.025235</ele>
        <time>2024-07-04T13:34:37.294Z</time>
      </trkpt>
      <trkpt lat="52.14593" lon="4.42011">
        <ele>45.095752</ele>
        <time>2024-07-04T13:34:39.294Z</time>
      </trkpt>
      <trkpt lat="52.14599" lon="4.42023">
        <ele>45.163848</ele>
        <time>2024-07-04T13:34:41.319Z</time>
      </trkpt>
      <trkpt lat="52.14606" lon="4.42033">
        <ele>45.232464</ele>
        <time>2024-07-04T13:34:43.289Z</time>
      </trkpt>
      <trkpt lat="52.14613" lon="4.42045">
        <ele>45.305378</ele>
        <time>2024-07-04T13:34:45.322Z</time>
      </trkpt>
      <trkpt lat="52.14619" lon="4.42058">
        <ele>45.381174</ele>
        <time>2024-07-04T13:34:47.317Z</time>
      </trkpt>
      <trkpt lat="52.14624" lon="4.42071">
        <ele>45.442869</ele>
        <time>2024-07-04T13:34:49.302Z</time>
      </trkpt>
      <trkpt lat="52.14629" lon="4.42083">
        <ele>45.454448</ele>
        <time>2024-07-04T13:34:51.292Z</time>
      </trkpt>
      <trkpt lat="52.14635" lon="4.42095">
        <ele>45.465674</ele>
        <time>2024-07-04T13:34:53.310Z</time>
      </trkpt>
      <trkpt lat="52.1464" lon="4.42109">
        <ele>45.478468</ele>
        <time>2024-07-04T13:34:55.305Z</time>
      </trkpt>
      <trkpt lat="52.14646" lon="4.42122">
        <ele>45.491234</ele>
        <time>2024-07-04T13:34:57.300Z</time>
      </trkpt>
      <trkpt lat="52.14653" lon="4.42135">
        <ele>45.504018</ele>
        <time>2024-07-04T13:34:59.307Z</time>
      </trkpt>
      <trkpt lat="52.14659" lon="4.42147">
        <ele>45.516149</ele>
        <time>2024-07-04T13:35:01.285Z</time>
      </trkpt>
      <trkpt lat="52.14665" lon="4.42159">
        <ele>45.528236</ele>
        <time>2024-07-04T13:35:03.306Z</time>
      </trkpt>
      <trkpt lat="52.14671" lon="4.42172">
        <ele>45.540755</ele>
        <time>2024-07-04T13:35:05.310Z</time>
      </trkpt>
      <trkpt lat="52.14678" lon="4.42185">
        <ele>45.553502</ele>
        <time>2024-07-04T13:35:07.318Z</time>
      </trkpt>
      <trkpt lat="52.14683" lon="4.42198">
        <ele>45.565354</ele>
        <time>2024-07-04T13:35:09.316Z</time>
      </trkpt>
      <trkpt lat="52.14689" lon="4.4221">
        <ele>45.576839</ele>
        <time>2024-07-04T13:35:11.305Z</time>
      </trkpt>
      <trkpt lat="52.14694" lon="4.42223">
        <ele>45.589309</ele>
        <time>2024-07-04T13:35:13.308Z</time>
      </trkpt>
      <trkpt lat="52.147" lon="4.42236">
        <ele>45.601395</ele>
        <time>2024-07-04T13:35:15.313Z</time>
      </trkpt>
      <trkpt lat="52.14705" lon="4.4225">
        <ele>45.61308</ele>
        <time>2024-07-04T13:35:17.269Z</time>
      </trkpt>
      <trkpt lat="52.14709" lon="4.42263">
        <ele>45.624787</ele>
        <time>2024-07-04T13:35:19.299Z</time>
      </trkpt>
      <trkpt lat="52.14714" lon="4.42276">
        <ele>45.636613</ele>
        <time>2024-07-04T13:35:21.316Z</time>
      </trkpt>
      <trkpt lat="52.14719" lon="4.42288">
        <ele>45.647976</ele>
        <time>2024-07-04T13:35:23.303Z</time>
      </trkpt>
      <trkpt lat="52.14726" lon="4.423">
        <ele>45.660432</ele>
        <time>2024-07-04T13:35:25.301Z</time>
      </trkpt>
      <trkpt lat="52.14731" lon="4.42313">
        <ele>45.688924</ele>
        <time>2024-07-04T13:35:27.307Z</time>
      </trkpt>
      <trkpt lat="52.14738" lon="4.42331">
        <ele>45.75632</ele>
        <time>2024-07-04T13:35:30.298Z</time>
      </trkpt>
      <trkpt lat="52.14744" lon="4.42342">
        <ele>45.802241</ele>
        <time>2024-07-04T13:35:32.304Z</time>
      </trkpt>
      <trkpt lat="52.1475" lon="4.42355">
        <ele>45.84991</ele>
        <time>2024-07-04T13:35:34.313Z</time>
      </trkpt>
      <trkpt lat="52.14758" lon="4.42372">
        <ele>45.916084</ele>
        <time>2024-07-04T13:35:37.291Z</time>
      </trkpt>
      <trkpt lat="52.14763" lon="4.42385">
        <ele>45.962237</ele>
        <time>2024-07-04T13:35:39.292Z</time>
      </trkpt>
      <trkpt lat="52.14768" lon="4.42397">
        <ele>46.009689</ele>
        <time>2024-07-04T13:35:41.299Z</time>
      </trkpt>
      <trkpt lat="52.14774" lon="4.42412">
        <ele>46.063131</ele>
        <time>2024-07-04T13:35:43.307Z</time>
      </trkpt>
      <trkpt lat="52.14778" lon="4.42426">
        <ele>46.110105</ele>
        <time>2024-07-04T13:35:45.311Z</time>
      </trkpt>
      <trkpt lat="52.14784" lon="4.42439">
        <ele>46.159603</ele>
        <time>2024-07-04T13:35:47.277Z</time>
      </trkpt>
      <trkpt lat="52.1479" lon="4.4245">
        <ele>46.206377</ele>
        <time>2024-07-04T13:35:49.283Z</time>
      </trkpt>
      <trkpt lat="52.14796" lon="4.42462">
        <ele>46.253945</ele>
        <time>2024-07-04T13:35:51.303Z</time>
      </trkpt>
      <trkpt lat="52.14802" lon="4.42475">
        <ele>46.303088</ele>
        <time>2024-07-04T13:35:53.300Z</time>
      </trkpt>
      <trkpt lat="52.14807" lon="4.42488">
        <ele>46.350763</ele>
        <time>2024-07-04T13:35:55.305Z</time>
      </trkpt>
      <trkpt lat="52.14812" lon="4.425">
        <ele>46.396197</ele>
        <time>2024-07-04T13:35:57.301Z</time>
      </trkpt>
      <trkpt lat="52.14821" lon="4.42516">
        <ele>46.460297</ele>
        <time>2024-07-04T13:36:00.296Z</time>
      </trkpt>
      <trkpt lat="52.14831" lon="4.42529">
        <ele>46.524941</ele>
        <time>2024-07-04T13:36:03.306Z</time>
      </trkpt>
      <trkpt lat="52.14836" lon="4.42541">
        <ele>46.56833</ele>
        <time>2024-07-04T13:36:05.293Z</time>
      </trkpt>
      <trkpt lat="52.14841" lon="4.42554">
        <ele>46.584614</ele>
        <time>2024-07-04T13:36:07.298Z</time>
      </trkpt>
      <trkpt lat="52.14847" lon="4.42566">
        <ele>46.601582</ele>
        <time>2024-07-04T13:36:09.301Z</time>
      </trkpt>
      <trkpt lat="52.14854" lon="4.42584">
        <ele>46.625483</ele>
        <time>2024-07-04T13:36:12.291Z</time>
      </trkpt>
      <trkpt lat="52.14859" lon="4.42597">
        <ele>46.642049</ele>
        <time>2024-07-04T13:36:14.297Z</time>
      </trkpt>
      <trkpt lat="52.14864" lon="4.4261">
        <ele>46.659566</ele>
        <time>2024-07-04T13:36:16.303Z</time>
      </trkpt>
      <trkpt lat="52.1487" lon="4.42624">
        <ele>46.678866</ele>
        <time>2024-07-04T13:36:18.296Z</time>
      </trkpt>
      <trkpt lat="52.14876" lon="4.42638">
        <ele>46.697607</ele>
        <time>2024-07-04T13:36:20.305Z</time>
      </trkpt>
      <trkpt lat="52.14881" lon="4.42652">
        <ele>46.715401</ele>
        <time>2024-07-04T13:36:22.278Z</time>
      </trkpt>
      <trkpt lat="52.14887" lon="4.42666">
        <ele>46.734295</ele>
        <time>2024-07-04T13:36:24.291Z</time>
      </trkpt>
      <trkpt lat="52.14894" lon="4.4268">
        <ele>46.754626</ele>
        <time>2024-07-04T13:36:26.309Z</time>
      </trkpt>
      <trkpt lat="52.149" lon="4.42694">
        <ele>46.773671</ele>
        <time>2024-07-04T13:36:28.293Z</time>
      </trkpt>
      <trkpt lat="52.14906" lon="4.42708">
        <ele>46.79193</ele>
        <time>2024-07-04T13:36:30.304Z</time>
      </trkpt>
      <trkpt lat="52.14911" lon="4.4272">
        <ele>46.808394</ele>
        <time>2024-07-04T13:36:32.304Z</time>
      </trkpt>
      <trkpt lat="52.14916" lon="4.42733">
        <ele>46.825248</ele>
        <time>2024-07-04T13:36:34.296Z</time>
      </trkpt>
      <trkpt lat="52.14921" lon="4.42746">
        <ele>46.843345</ele>
        <time>2024-07-04T13:36:36.313Z</time>
      </trkpt>
      <trkpt lat="52.14927" lon="4.42761">
        <ele>46.862572</ele>
        <time>2024-07-04T13:36:38.293Z</time>
      </trkpt>
      <trkpt lat="52.14933" lon="4.42774">
        <ele>46.880452</ele>
        <time>2024-07-04T13:36:40.312Z</time>
      </trkpt>
      <trkpt lat="52.14938" lon="4.42788">
        <ele>46.85094</ele>
        <time>2024-07-04T13:36:42.295Z</time>
      </trkpt>
      <trkpt lat="52.14944" lon="4.42801">
        <ele>46.736521</ele>
        <time>2024-07-04T13:36:44.322Z</time>
      </trkpt>
      <trkpt lat="52.1495" lon="4.42814">
        <ele>46.623405</ele>
        <time>2024-07-04T13:36:46.304Z</time>
      </trkpt>
      <trkpt lat="52.14956" lon="4.42826">
        <ele>46.511222</ele>
        <time>2024-07-04T13:36:48.299Z</time>
      </trkpt>
      <trkpt lat="52.14962" lon="4.42838">
        <ele>46.404842</ele>
        <time>2024-07-04T13:36:50.297Z</time>
      </trkpt>
      <trkpt lat="52.1497" lon="4.42855">
        <ele>46.25722</ele>
        <time>2024-07-04T13:36:53.295Z</time>
      </trkpt>
      <trkpt lat="52.14978" lon="4.42874">
        <ele>46.093969</ele>
        <time>2024-07-04T13:36:56.298Z</time>
      </trkpt>
      <trkpt lat="52.14985" lon="4.42886">
        <ele>45.981381</ele>
        <time>2024-07-04T13:36:58.285Z</time>
      </trkpt>
      <trkpt lat="52.14991" lon="4.42898">
        <ele>45.864855</ele>
        <time>2024-07-04T13:37:00.303Z</time>
      </trkpt>
      <trkpt lat="52.14998" lon="4.4291">
        <ele>45.751209</ele>
        <time>2024-07-04T13:37:02.321Z</time>
      </trkpt>
      <trkpt lat="52.15004" lon="4.42924">
        <ele>45.632327</ele>
        <time>2024-07-04T13:37:04.297Z</time>
      </trkpt>
      <trkpt lat="52.15009" lon="4.42938">
        <ele>45.515993</ele>
        <time>2024-07-04T13:37:06.279Z</time>
      </trkpt>
      <trkpt lat="52.15015" lon="4.42951">
        <ele>45.404271</ele>
        <time>2024-07-04T13:37:08.296Z</time>
      </trkpt>
      <trkpt lat="52.15021" lon="4.42965">
        <ele>45.282723</ele>
        <time>2024-07-04T13:37:10.299Z</time>
      </trkpt>
      <trkpt lat="52.15028" lon="4.42977">
        <ele>45.165502</ele>
        <time>2024-07-04T13:37:12.298Z</time>
      </trkpt>
      <trkpt lat="52.15035" lon="4.42989">
        <ele>45.051385</ele>
        <time>2024-07-04T13:37:14.297Z</time>
      </trkpt>
      <trkpt lat="52.15041" lon="4.43002">
        <ele>44.939203</ele>
        <time>2024-07-04T13:37:16.298Z</time>
      </trkpt>
      <trkpt lat="52.15047" lon="4.43015">
        <ele>44.829655</ele>
        <time>2024-07-04T13:37:18.296Z</time>
      </trkpt>
      <trkpt lat="52.15052" lon="4.43028">
        <ele>44.796749</ele>
        <time>2024-07-04T13:37:20.299Z</time>
      </trkpt>
      <trkpt lat="52.15057" lon="4.43041">
        <ele>44.763796</ele>
        <time>2024-07-04T13:37:22.298Z</time>
      </trkpt>
      <trkpt lat="52.15064" lon="4.43053">
        <ele>44.729537</ele>
        <time>2024-07-04T13:37:24.307Z</time>
      </trkpt>
      <trkpt lat="52.1507" lon="4.43066">
        <ele>44.694787</ele>
        <time>2024-07-04T13:37:26.311Z</time>
      </trkpt>
      <trkpt lat="52.15077" lon="4.43079">
        <ele>44.660596</ele>
        <time>2024-07-04T13:37:28.291Z</time>
      </trkpt>
      <trkpt lat="52.15083" lon="4.43091">
        <ele>44.62562</ele>
        <time>2024-07-04T13:37:30.290Z</time>
      </trkpt>
      <trkpt lat="52.1509" lon="4.43103">
        <ele>44.590968</ele>
        <time>2024-07-04T13:37:32.302Z</time>
      </trkpt>
      <trkpt lat="52.15097" lon="4.43115">
        <ele>44.556778</ele>
        <time>2024-07-04T13:37:34.297Z</time>
      </trkpt>
      <trkpt lat="52.15104" lon="4.43129">
        <ele>44.520517</ele>
        <time>2024-07-04T13:37:36.298Z</time>
      </trkpt>
      <trkpt lat="52.1511" lon="4.43141">
        <ele>44.485699</ele>
        <time>2024-07-04T13:37:38.306Z</time>
      </trkpt>
      <trkpt lat="52.15116" lon="4.43154">
        <ele>44.45116</ele>
        <time>2024-07-04T13:37:40.296Z</time>
      </trkpt>
      <trkpt lat="52.15122" lon="4.43167">
        <ele>44.419132</ele>
        <time>2024-07-04T13:37:42.276Z</time>
      </trkpt>
      <trkpt lat="52.15127" lon="4.4318">
        <ele>44.38564</ele>
        <time>2024-07-04T13:37:44.306Z</time>
      </trkpt>
      <trkpt lat="52.15132" lon="4.43194">
        <ele>44.351666</ele>
        <time>2024-07-04T13:37:46.318Z</time>
      </trkpt>
      <trkpt lat="52.15137" lon="4.43207">
        <ele>44.318943</ele>
        <time>2024-07-04T13:37:48.305Z</time>
      </trkpt>
      <trkpt lat="52.15142" lon="4.43221">
        <ele>44.286043</ele>
        <time>2024-07-04T13:37:50.297Z</time>
      </trkpt>
      <trkpt lat="52.15148" lon="4.43233">
        <ele>44.255226</ele>
        <time>2024-07-04T13:37:52.304Z</time>
      </trkpt>
      <trkpt lat="52.15153" lon="4.43245">
        <ele>44.224408</ele>
        <time>2024-07-04T13:37:54.300Z</time>
      </trkpt>
      <trkpt lat="52.15158" lon="4.4326">
        <ele>44.215137</ele>
        <time>2024-07-04T13:37:56.305Z</time>
      </trkpt>
      <trkpt lat="52.15162" lon="4.43274">
        <ele>44.214621</ele>
        <time>2024-07-04T13:37:58.304Z</time>
      </trkpt>
      <trkpt lat="52.15168" lon="4.43287">
        <ele>44.21414</ele>
        <time>2024-07-04T13:38:00.293Z</time>
      </trkpt>
      <trkpt lat="52.15173" lon="4.43301">
        <ele>44.213621</ele>
        <time>2024-07-04T13:38:02.300Z</time>
      </trkpt>
      <trkpt lat="52.15179" lon="4.43314">
        <ele>44.213106</ele>
        <time>2024-07-04T13:38:04.298Z</time>
      </trkpt>
      <trkpt lat="52.15184" lon="4.43327">
        <ele>44.212622</ele>
        <time>2024-07-04T13:38:06.306Z</time>
      </trkpt>
      <trkpt lat="52.15189" lon="4.43341">
        <ele>44.212123</ele>
        <time>2024-07-04T13:38:08.305Z</time>
      </trkpt>
      <trkpt lat="52.15194" lon="4.43354">
        <ele>44.211637</ele>
        <time>2024-07-04T13:38:10.286Z</time>
      </trkpt>
      <trkpt lat="52.15199" lon="4.43367">
        <ele>44.21115</ele>
        <time>2024-07-04T13:38:12.303Z</time>
      </trkpt>
      <trkpt lat="52.15204" lon="4.4338">
        <ele>44.210675</ele>
        <time>2024-07-04T13:38:14.314Z</time>
      </trkpt>
      <trkpt lat="52.15209" lon="4.43393">
        <ele>44.210189</ele>
        <time>2024-07-04T13:38:16.307Z</time>
      </trkpt>
      <trkpt lat="52.15214" lon="4.43407">
        <ele>44.209665</ele>
        <time>2024-07-04T13:38:18.314Z</time>
      </trkpt>
      <trkpt lat="52.15218" lon="4.43421">
        <ele>44.209166</ele>
        <time>2024-07-04T13:38:20.308Z</time>
      </trkpt>
      <trkpt lat="52.15223" lon="4.43437">
        <ele>44.208639</ele>
        <time>2024-07-04T13:38:22.306Z</time>
      </trkpt>
      <trkpt lat="52.15228" lon="4.4345">
        <ele>44.208135</ele>
        <time>2024-07-04T13:38:24.305Z</time>
      </trkpt>
      <trkpt lat="52.15238" lon="4.43467">
        <ele>44.207398</ele>
        <time>2024-07-04T13:38:27.302Z</time>
      </trkpt>
      <trkpt lat="52.15244" lon="4.4348">
        <ele>44.206879</ele>
        <time>2024-07-04T13:38:29.316Z</time>
      </trkpt>
      <trkpt lat="52.15249" lon="4.43493">
        <ele>44.206368</ele>
        <time>2024-07-04T13:38:31.299Z</time>
      </trkpt>
      <trkpt lat="52.15255" lon="4.43507">
        <ele>44.294754</ele>
        <time>2024-07-04T13:38:33.293Z</time>
      </trkpt>
      <trkpt lat="52.1526" lon="4.4352">
        <ele>44.389924</ele>
        <time>2024-07-04T13:38:35.299Z</time>
      </trkpt>
      <trkpt lat="52.15265" lon="4.43534">
        <ele>44.489725</ele>
        <time>2024-07-04T13:38:37.320Z</time>
      </trkpt>
      <trkpt lat="52.15271" lon="4.43547">
        <ele>44.585008</ele>
        <time>2024-07-04T13:38:39.292Z</time>
      </trkpt>
      <trkpt lat="52.15276" lon="4.43561">
        <ele>44.685365</ele>
        <time>2024-07-04T13:38:41.298Z</time>
      </trkpt>
      <trkpt lat="52.15281" lon="4.43575">
        <ele>44.783628</ele>
        <time>2024-07-04T13:38:43.303Z</time>
      </trkpt>
      <trkpt lat="52.15287" lon="4.43588">
        <ele>44.881381</ele>
        <time>2024-07-04T13:38:45.313Z</time>
      </trkpt>
      <trkpt lat="52.15292" lon="4.43601">
        <ele>44.978056</ele>
        <time>2024-07-04T13:38:47.308Z</time>
      </trkpt>
      <trkpt lat="52.15297" lon="4.43615">
        <ele>45.074792</ele>
        <time>2024-07-04T13:38:49.298Z</time>
      </trkpt>
      <trkpt lat="52.15303" lon="4.43627">
        <ele>45.169753</ele>
        <time>2024-07-04T13:38:51.322Z</time>
      </trkpt>
      <trkpt lat="52.15308" lon="4.4364">
        <ele>45.2654</ele>
        <time>2024-07-04T13:38:53.295Z</time>
      </trkpt>
      <trkpt lat="52.15313" lon="4.43654">
        <ele>45.362586</ele>
        <time>2024-07-04T13:38:55.315Z</time>
      </trkpt>
      <trkpt lat="52.15319" lon="4.43668">
        <ele>45.461872</ele>
        <time>2024-07-04T13:38:57.315Z</time>
      </trkpt>
      <trkpt lat="52.15324" lon="4.43681">
        <ele>45.558033</ele>
        <time>2024-07-04T13:38:59.302Z</time>
      </trkpt>
      <trkpt lat="52.15328" lon="4.43694">
        <ele>45.65171</ele>
        <time>2024-07-04T13:39:01.295Z</time>
      </trkpt>
      <trkpt lat="52.15332" lon="4.43708">
        <ele>45.742828</ele>
        <time>2024-07-04T13:39:03.308Z</time>
      </trkpt>
      <trkpt lat="52.15337" lon="4.43721">
        <ele>45.83437</ele>
        <time>2024-07-04T13:39:05.303Z</time>
      </trkpt>
      <trkpt lat="52.15344" lon="4.43731">
        <ele>45.926535</ele>
        <time>2024-07-04T13:39:07.305Z</time>
      </trkpt>
      <trkpt lat="52.15356" lon="4.43738">
        <ele>46.039964</ele>
        <time>2024-07-04T13:39:10.288Z</time>
      </trkpt>
      <trkpt lat="52.15369" lon="4.4374">
        <ele>46.134677</ele>
        <time>2024-07-04T13:39:13.300Z</time>
      </trkpt>
      <trkpt lat="52.15382" lon="4.43744">
        <ele>46.233679</ele>
        <time>2024-07-04T13:39:16.301Z</time>
      </trkpt>
      <trkpt lat="52.15394" lon="4.43752">
        <ele>46.334694</ele>
        <time>2024-07-04T13:39:19.301Z</time>
      </trkpt>
      <trkpt lat="52.15402" lon="4.43759">
        <ele>46.404089</ele>
        <time>2024-07-04T13:39:21.318Z</time>
      </trkpt>
      <trkpt lat="52.1541" lon="4.43767">
        <ele>46.472429</ele>
        <time>2024-07-04T13:39:23.297Z</time>
      </trkpt>
      <trkpt lat="52.15417" lon="4.43777">
        <ele>46.541051</ele>
        <time>2024-07-04T13:39:25.301Z</time>
      </trkpt>
      <trkpt lat="52.15424" lon="4.43788">
        <ele>46.613736</ele>
        <time>2024-07-04T13:39:27.319Z</time>
      </trkpt>
      <trkpt lat="52.1543" lon="4.43801">
        <ele>46.686696</ele>
        <time>2024-07-04T13:39:29.299Z</time>
      </trkpt>
      <trkpt lat="52.15435" lon="4.43813">
        <ele>46.757892</ele>
        <time>2024-07-04T13:39:31.302Z</time>
      </trkpt>
      <trkpt lat="52.1544" lon="4.43828">
        <ele>46.831293</ele>
        <time>2024-07-04T13:39:33.319Z</time>
      </trkpt>
      <trkpt lat="52.15444" lon="4.43843">
        <ele>46.90652</ele>
        <time>2024-07-04T13:39:35.301Z</time>
      </trkpt>
      <trkpt lat="52.15447" lon="4.43859">
        <ele>46.981886</ele>
        <time>2024-07-04T13:39:37.301Z</time>
      </trkpt>
      <trkpt lat="52.15449" lon="4.43875">
        <ele>47.058072</ele>
        <time>2024-07-04T13:39:39.286Z</time>
      </trkpt>
      <trkpt lat="52.15449" lon="4.43891">
        <ele>47.133271</ele>
        <time>2024-07-04T13:39:41.301Z</time>
      </trkpt>
      <trkpt lat="52.15449" lon="4.43908">
        <ele>47.208011</ele>
        <time>2024-07-04T13:39:43.286Z</time>
      </trkpt>
      <trkpt lat="52.15448" lon="4.43924">
        <ele>47.283815</ele>
        <time>2024-07-04T13:39:45.319Z</time>
      </trkpt>
      <trkpt lat="52.15449" lon="4.43941">
        <ele>47.336689</ele>
        <time>2024-07-04T13:39:47.319Z</time>
      </trkpt>
      <trkpt lat="52.1545" lon="4.43957">
        <ele>47.334258</ele>
        <time>2024-07-04T13:39:49.293Z</time>
      </trkpt>
      <trkpt lat="52.15451" lon="4.43974">
        <ele>47.331728</ele>
        <time>2024-07-04T13:39:51.307Z</time>
      </trkpt>
      <trkpt lat="52.15453" lon="4.4399">
        <ele>47.329258</ele>
        <time>2024-07-04T13:39:53.326Z</time>
      </trkpt>
      <trkpt lat="52.15456" lon="4.44006">
        <ele>47.326706</ele>
        <time>2024-07-04T13:39:55.303Z</time>
      </trkpt>
      <trkpt lat="52.15459" lon="4.44022">
        <ele>47.324203</ele>
        <time>2024-07-04T13:39:57.308Z</time>
      </trkpt>
      <trkpt lat="52.15464" lon="4.44038">
        <ele>47.321589</ele>
        <time>2024-07-04T13:39:59.306Z</time>
      </trkpt>
      <trkpt lat="52.15468" lon="4.44054">
        <ele>47.318978</ele>
        <time>2024-07-04T13:40:01.297Z</time>
      </trkpt>
      <trkpt lat="52.15474" lon="4.44069">
        <ele>47.316315</ele>
        <time>2024-07-04T13:40:03.316Z</time>
      </trkpt>
      <trkpt lat="52.1548" lon="4.44084">
        <ele>47.313655</ele>
        <time>2024-07-04T13:40:05.307Z</time>
      </trkpt>
      <trkpt lat="52.15487" lon="4.44098">
        <ele>47.311001</ele>
        <time>2024-07-04T13:40:07.295Z</time>
      </trkpt>
      <trkpt lat="52.15493" lon="4.44112">
        <ele>47.308377</ele>
        <time>2024-07-04T13:40:09.299Z</time>
      </trkpt>
      <trkpt lat="52.15501" lon="4.44124">
        <ele>47.305747</ele>
        <time>2024-07-04T13:40:11.286Z</time>
      </trkpt>
      <trkpt lat="52.15509" lon="4.44136">
        <ele>47.303118</ele>
        <time>2024-07-04T13:40:13.285Z</time>
      </trkpt>
      <trkpt lat="52.15517" lon="4.44147">
        <ele>47.30054</ele>
        <time>2024-07-04T13:40:15.305Z</time>
      </trkpt>
      <trkpt lat="52.15525" lon="4.44157">
        <ele>47.298075</ele>
        <time>2024-07-04T13:40:17.321Z</time>
      </trkpt>
      <trkpt lat="52.15534" lon="4.44166">
        <ele>47.295577</ele>
        <time>2024-07-04T13:40:19.307Z</time>
      </trkpt>
      <trkpt lat="52.15543" lon="4.44175">
        <ele>47.299955</ele>
        <time>2024-07-04T13:40:21.302Z</time>
      </trkpt>
      <trkpt lat="52.15551" lon="4.44183">
        <ele>47.328028</ele>
        <time>2024-07-04T13:40:23.301Z</time>
      </trkpt>
      <trkpt lat="52.15559" lon="4.44192">
        <ele>47.35611</ele>
        <time>2024-07-04T13:40:25.296Z</time>
      </trkpt>
      <trkpt lat="52.15567" lon="4.442">
        <ele>47.385504</ele>
        <time>2024-07-04T13:40:27.303Z</time>
      </trkpt>
      <trkpt lat="52.15576" lon="4.44209">
        <ele>47.414614</ele>
        <time>2024-07-04T13:40:29.295Z</time>
      </trkpt>
      <trkpt lat="52.15585" lon="4.44217">
        <ele>47.444203</ele>
        <time>2024-07-04T13:40:31.297Z</time>
      </trkpt>
      <trkpt lat="52.15594" lon="4.44225">
        <ele>47.473958</ele>
        <time>2024-07-04T13:40:33.301Z</time>
      </trkpt>
      <trkpt lat="52.15602" lon="4.44235">
        <ele>47.5036</ele>
        <time>2024-07-04T13:40:35.299Z</time>
      </trkpt>
      <trkpt lat="52.1561" lon="4.44243">
        <ele>47.531871</ele>
        <time>2024-07-04T13:40:37.287Z</time>
      </trkpt>
      <trkpt lat="52.15618" lon="4.44251">
        <ele>47.559457</ele>
        <time>2024-07-04T13:40:39.305Z</time>
      </trkpt>
      <trkpt lat="52.15625" lon="4.4426">
        <ele>47.586068</ele>
        <time>2024-07-04T13:40:41.300Z</time>
      </trkpt>
      <trkpt lat="52.15633" lon="4.44268">
        <ele>47.612687</ele>
        <time>2024-07-04T13:40:43.296Z</time>
      </trkpt>
      <trkpt lat="52.15641" lon="4.44275">
        <ele>47.639807</ele>
        <time>2024-07-04T13:40:45.303Z</time>
      </trkpt>
      <trkpt lat="52.15649" lon="4.44284">
        <ele>47.668222</ele>
        <time>2024-07-04T13:40:47.318Z</time>
      </trkpt>
      <trkpt lat="52.15658" lon="4.44292">
        <ele>47.696369</ele>
        <time>2024-07-04T13:40:49.299Z</time>
      </trkpt>
      <trkpt lat="52.15666" lon="4.443">
        <ele>47.724174</ele>
        <time>2024-07-04T13:40:51.303Z</time>
      </trkpt>
      <trkpt lat="52.15674" lon="4.44308">
        <ele>47.751665</ele>
        <time>2024-07-04T13:40:53.308Z</time>
      </trkpt>
      <trkpt lat="52.15681" lon="4.44317">
        <ele>47.778276</ele>
        <time>2024-07-04T13:40:55.298Z</time>
      </trkpt>
      <trkpt lat="52.15689" lon="4.44326">
        <ele>47.805422</ele>
        <time>2024-07-04T13:40:57.295Z</time>
      </trkpt>
      <trkpt lat="52.15701" lon="4.44336">
        <ele>47.826801</ele>
        <time>2024-07-04T13:41:00.306Z</time>
      </trkpt>
      <trkpt lat="52.15713" lon="4.44346">
        <ele>47.838955</ele>
        <time>2024-07-04T13:41:03.301Z</time>
      </trkpt>
      <trkpt lat="52.15724" lon="4.44357">
        <ele>47.850943</ele>
        <time>2024-07-04T13:41:06.298Z</time>
      </trkpt>
      <trkpt lat="52.15732" lon="4.44365">
        <ele>47.859163</ele>
        <time>2024-07-04T13:41:08.300Z</time>
      </trkpt>
      <trkpt lat="52.1574" lon="4.44372">
        <ele>47.867407</ele>
        <time>2024-07-04T13:41:10.311Z</time>
      </trkpt>
      <trkpt lat="52.15749" lon="4.44377">
        <ele>47.875682</ele>
        <time>2024-07-04T13:41:12.298Z</time>
      </trkpt>
      <trkpt lat="52.15757" lon="4.44383">
        <ele>47.883895</ele>
        <time>2024-07-04T13:41:14.304Z</time>
      </trkpt>
      <trkpt lat="52.15765" lon="4.4439">
        <ele>47.892169</ele>
        <time>2024-07-04T13:41:16.292Z</time>
      </trkpt>
      <trkpt lat="52.15776" lon="4.44401">
        <ele>47.904004</ele>
        <time>2024-07-04T13:41:19.304Z</time>
      </trkpt>
      <trkpt lat="52.15785" lon="4.44406">
        <ele>47.912194</ele>
        <time>2024-07-04T13:41:21.302Z</time>
      </trkpt>
      <trkpt lat="52.15794" lon="4.44412">
        <ele>47.920676</ele>
        <time>2024-07-04T13:41:23.302Z</time>
      </trkpt>
      <trkpt lat="52.15802" lon="4.44417">
        <ele>47.929035</ele>
        <time>2024-07-04T13:41:25.311Z</time>
      </trkpt>
      <trkpt lat="52.15811" lon="4.44422">
        <ele>47.937254</ele>
        <time>2024-07-04T13:41:27.315Z</time>
      </trkpt>
      <trkpt lat="52.1582" lon="4.44427">
        <ele>47.945905</ele>
        <time>2024-07-04T13:41:29.293Z</time>
      </trkpt>
      <trkpt lat="52.15829" lon="4.44431">
        <ele>47.954554</ele>
        <time>2024-07-04T13:41:31.312Z</time>
      </trkpt>
      <trkpt lat="52.15838" lon="4.44436">
        <ele>47.963132</ele>
        <time>2024-07-04T13:41:33.304Z</time>
      </trkpt>
      <trkpt lat="52.15847" lon="4.4444">
        <ele>47.971593</ele>
        <time>2024-07-04T13:41:35.295Z</time>
      </trkpt>
      <trkpt lat="52.15857" lon="4.44445">
        <ele>47.980615</ele>
        <time>2024-07-04T13:41:37.280Z</time>
      </trkpt>
      <trkpt lat="52.15867" lon="4.44449">
        <ele>47.949475</ele>
        <time>2024-07-04T13:41:39.301Z</time>
      </trkpt>
      <trkpt lat="52.15876" lon="4.44453">
        <ele>47.917848</ele>
        <time>2024-07-04T13:41:41.289Z</time>
      </trkpt>
      <trkpt lat="52.15886" lon="4.44458">
        <ele>47.884739</ele>
        <time>2024-07-04T13:41:43.296Z</time>
      </trkpt>
      <trkpt lat="52.15896" lon="4.44462">
        <ele>47.852197</ele>
        <time>2024-07-04T13:41:45.303Z</time>
      </trkpt>
      <trkpt lat="52.15906" lon="4.44467">
        <ele>47.819549</ele>
        <time>2024-07-04T13:41:47.288Z</time>
      </trkpt>
      <trkpt lat="52.15916" lon="4.44471">
        <ele>47.785668</ele>
        <time>2024-07-04T13:41:49.307Z</time>
      </trkpt>
      <trkpt lat="52.15926" lon="4.44476">
        <ele>47.751839</ele>
        <time>2024-07-04T13:41:51.301Z</time>
      </trkpt>
      <trkpt lat="52.15936" lon="4.4448">
        <ele>47.719759</ele>
        <time>2024-07-04T13:41:53.294Z</time>
      </trkpt>
      <trkpt lat="52.15946" lon="4.44484">
        <ele>47.687164</ele>
        <time>2024-07-04T13:41:55.308Z</time>
      </trkpt>
      <trkpt lat="52.15956" lon="4.44491">
        <ele>47.653141</ele>
        <time>2024-07-04T13:41:57.298Z</time>
      </trkpt>
      <trkpt lat="52.15965" lon="4.44499">
        <ele>47.619854</ele>
        <time>2024-07-04T13:41:59.294Z</time>
      </trkpt>
      <trkpt lat="52.15973" lon="4.4451">
        <ele>47.586207</ele>
        <time>2024-07-04T13:42:01.287Z</time>
      </trkpt>
      <trkpt lat="52.15979" lon="4.44523">
        <ele>47.553401</ele>
        <time>2024-07-04T13:42:03.284Z</time>
      </trkpt>
      <trkpt lat="52.15984" lon="4.44537">
        <ele>47.521425</ele>
        <time>2024-07-04T13:42:05.289Z</time>
      </trkpt>
      <trkpt lat="52.15987" lon="4.44552">
        <ele>47.489651</ele>
        <time>2024-07-04T13:42:07.289Z</time>
      </trkpt>
      <trkpt lat="52.1599" lon="4.44568">
        <ele>47.457377</ele>
        <time>2024-07-04T13:42:09.296Z</time>
      </trkpt>
      <trkpt lat="52.1599" lon="4.44585">
        <ele>47.42556</ele>
        <time>2024-07-04T13:42:11.299Z</time>
      </trkpt>
      <trkpt lat="52.15988" lon="4.44602">
        <ele>47.454229</ele>
        <time>2024-07-04T13:42:13.296Z</time>
      </trkpt>
      <trkpt lat="52.15985" lon="4.44619">
        <ele>47.576198</ele>
        <time>2024-07-04T13:42:15.298Z</time>
      </trkpt>
      <trkpt lat="52.15983" lon="4.44639">
        <ele>47.710041</ele>
        <time>2024-07-04T13:42:17.274Z</time>
      </trkpt>
      <trkpt lat="52.15981" lon="4.44658">
        <ele>47.844475</ele>
        <time>2024-07-04T13:42:19.289Z</time>
      </trkpt>
      <trkpt lat="52.15978" lon="4.44676">
        <ele>47.969889</ele>
        <time>2024-07-04T13:42:21.306Z</time>
      </trkpt>
      <trkpt lat="52.15975" lon="4.44695">
        <ele>48.105201</ele>
        <time>2024-07-04T13:42:23.311Z</time>
      </trkpt>
      <trkpt lat="52.15969" lon="4.44709">
        <ele>48.223704</ele>
        <time>2024-07-04T13:42:25.318Z</time>
      </trkpt>
      <trkpt lat="52.15963" lon="4.44724">
        <ele>48.339745</ele>
        <time>2024-07-04T13:42:27.292Z</time>
      </trkpt>
      <trkpt lat="52.15957" lon="4.44738">
        <ele>48.456123</ele>
        <time>2024-07-04T13:42:29.298Z</time>
      </trkpt>
      <trkpt lat="52.15952" lon="4.44752">
        <ele>48.56864</ele>
        <time>2024-07-04T13:42:31.301Z</time>
      </trkpt>
      <trkpt lat="52.15948" lon="4.44765">
        <ele>48.669127</ele>
        <time>2024-07-04T13:42:33.294Z</time>
      </trkpt>
      <trkpt lat="52.15941" lon="4.44782">
        <ele>48.805433</ele>
        <time>2024-07-04T13:42:36.305Z</time>
      </trkpt>
      <trkpt lat="52.15935" lon="4.44797">
        <ele>48.932055</ele>
        <time>2024-07-04T13:42:39.307Z</time>
      </trkpt>
      <trkpt lat="52.15928" lon="4.4481">
        <ele>49.042484</ele>
        <time>2024-07-04T13:42:43.303Z</time>
      </trkpt>
      <trkpt lat="52.15921" lon="4.44825">
        <ele>49.172069</ele>
        <time>2024-07-04T13:42:47.326Z</time>
      </trkpt>
      <trkpt lat="52.15914" lon="4.44839">
        <ele>49.293571</ele>
        <time>2024-07-04T13:42:50.295Z</time>
      </trkpt>
      <trkpt lat="52.15907" lon="4.44854">
        <ele>49.423966</ele>
        <time>2024-07-04T13:42:53.309Z</time>
      </trkpt>
      <trkpt lat="52.15899" lon="4.44871">
        <ele>49.549455</ele>
        <time>2024-07-04T13:42:56.275Z</time>
      </trkpt>
      <trkpt lat="52.15894" lon="4.44883">
        <ele>49.640799</ele>
        <time>2024-07-04T13:42:58.328Z</time>
      </trkpt>
      <trkpt lat="52.15888" lon="4.44895">
        <ele>49.733781</ele>
        <time>2024-07-04T13:43:00.297Z</time>
      </trkpt>
      <trkpt lat="52.15883" lon="4.44915">
        <ele>49.863445</ele>
        <time>2024-07-04T13:43:03.287Z</time>
      </trkpt>
      <trkpt lat="52.15881" lon="4.44935">
        <ele>49.984889</ele>
        <time>2024-07-04T13:43:06.284Z</time>
      </trkpt>
      <trkpt lat="52.15881" lon="4.44954">
        <ele>50.104111</ele>
        <time>2024-07-04T13:43:09.288Z</time>
      </trkpt>
      <trkpt lat="52.15876" lon="4.44972">
        <ele>50.224018</ele>
        <time>2024-07-04T13:43:12.288Z</time>
      </trkpt>
      <trkpt lat="52.15872" lon="4.44987">
        <ele>50.322405</ele>
        <time>2024-07-04T13:43:15.292Z</time>
      </trkpt>
      <trkpt lat="52.15884" lon="4.4499">
        <ele>50.442623</ele>
        <time>2024-07-04T13:43:18.289Z</time>
      </trkpt>
      <trkpt lat="52.15893" lon="4.45002">
        <ele>50.559662</ele>
        <time>2024-07-04T13:43:22.297Z</time>
      </trkpt>
      <trkpt lat="52.159" lon="4.45013">
        <ele>50.655771</ele>
        <time>2024-07-04T13:43:25.317Z</time>
      </trkpt>
      <trkpt lat="52.15907" lon="4.45025">
        <ele>50.756041</ele>
        <time>2024-07-04T13:43:28.293Z</time>
      </trkpt>
      <trkpt lat="52.15915" lon="4.45034">
        <ele>50.849797</ele>
        <time>2024-07-04T13:43:31.316Z</time>
      </trkpt>
      <trkpt lat="52.15923" lon="4.45048">
        <ele>50.968303</ele>
        <time>2024-07-04T13:43:35.300Z</time>
      </trkpt>
      <trkpt lat="52.1593" lon="4.45058">
        <ele>51.060745</ele>
        <time>2024-07-04T13:43:38.303Z</time>
      </trkpt>
      <trkpt lat="52.15937" lon="4.45069">
        <ele>51.155581</ele>
        <time>2024-07-04T13:43:41.298Z</time>
      </trkpt>
      <trkpt lat="52.15944" lon="4.45083">
        <ele>51.010719</ele>
        <time>2024-07-04T13:43:44.309Z</time>
      </trkpt>
      <trkpt lat="52.15952" lon="4.45098">
        <ele>50.748352</ele>
        <time>2024-07-04T13:43:47.316Z</time>
      </trkpt>
      <trkpt lat="52.1596" lon="4.45115">
        <ele>50.461638</ele>
        <time>2024-07-04T13:43:50.304Z</time>
      </trkpt>
      <trkpt lat="52.15965" lon="4.45128">
        <ele>50.261062</ele>
        <time>2024-07-04T13:43:52.314Z</time>
      </trkpt>
      <trkpt lat="52.15971" lon="4.45141">
        <ele>50.045906</ele>
        <time>2024-07-04T13:43:54.293Z</time>
      </trkpt>
      <trkpt lat="52.15979" lon="4.45157">
        <ele>49.77754</ele>
        <time>2024-07-04T13:43:57.310Z</time>
      </trkpt>
      <trkpt lat="52.15985" lon="4.4517">
        <ele>49.559158</ele>
        <time>2024-07-04T13:44:00.300Z</time>
      </trkpt>
      <trkpt lat="52.15994" lon="4.4516">
        <ele>49.330933</ele>
        <time>2024-07-04T13:44:07.280Z</time>
      </trkpt>
      <trkpt lat="52.16003" lon="4.45153">
        <ele>49.105634</ele>
        <time>2024-07-04T13:44:10.309Z</time>
      </trkpt>
      <trkpt lat="52.16015" lon="4.45144">
        <ele>48.829916</ele>
        <time>2024-07-04T13:44:13.307Z</time>
      </trkpt>
      <trkpt lat="52.16025" lon="4.45132">
        <ele>48.5584</ele>
        <time>2024-07-04T13:44:16.299Z</time>
      </trkpt>
      <trkpt lat="52.16034" lon="4.45118">
        <ele>48.285887</ele>
        <time>2024-07-04T13:44:19.297Z</time>
      </trkpt>
      <trkpt lat="52.16044" lon="4.45105">
        <ele>48.021451</ele>
        <time>2024-07-04T13:44:22.304Z</time>
      </trkpt>
      <trkpt lat="52.16054" lon="4.45094">
        <ele>47.768981</ele>
        <time>2024-07-04T13:44:25.293Z</time>
      </trkpt>
      <trkpt lat="52.16063" lon="4.45083">
        <ele>47.518421</ele>
        <time>2024-07-04T13:44:28.303Z</time>
      </trkpt>
      <trkpt lat="52.16073" lon="4.45073">
        <ele>47.335005</ele>
        <time>2024-07-04T13:44:31.289Z</time>
      </trkpt>
      <trkpt lat="52.16083" lon="4.45064">
        <ele>47.329407</ele>
        <time>2024-07-04T13:44:34.302Z</time>
      </trkpt>
      <trkpt lat="52.16095" lon="4.45054">
        <ele>47.323004</ele>
        <time>2024-07-04T13:44:37.295Z</time>
      </trkpt>
      <trkpt lat="52.16105" lon="4.45042">
        <ele>47.316596</ele>
        <time>2024-07-04T13:44:40.292Z</time>
      </trkpt>
      <trkpt lat="52.16113" lon="4.45034">
        <ele>47.312219</ele>
        <time>2024-07-04T13:44:42.297Z</time>
      </trkpt>
      <trkpt lat="52.16123" lon="4.45022">
        <ele>47.306015</ele>
        <time>2024-07-04T13:44:45.291Z</time>
      </trkpt>
      <trkpt lat="52.16134" lon="4.45008">
        <ele>47.299402</ele>
        <time>2024-07-04T13:44:48.307Z</time>
      </trkpt>
      <trkpt lat="52.16145" lon="4.44998">
        <ele>47.293157</ele>
        <time>2024-07-04T13:44:51.320Z</time>
      </trkpt>
      <trkpt lat="52.16156" lon="4.44987">
        <ele>47.286806</ele>
        <time>2024-07-04T13:44:54.284Z</time>
      </trkpt>
      <trkpt lat="52.16167" lon="4.44979">
        <ele>47.280833</ele>
        <time>2024-07-04T13:44:57.277Z</time>
      </trkpt>
      <trkpt lat="52.16178" lon="4.44971">
        <ele>47.275056</ele>
        <time>2024-07-04T13:45:00.300Z</time>
      </trkpt>
      <trkpt lat="52.16187" lon="4.44967">
        <ele>47.270498</ele>
        <time>2024-07-04T13:45:02.289Z</time>
      </trkpt>
      <trkpt lat="52.16195" lon="4.44961">
        <ele>47.266027</ele>
        <time>2024-07-04T13:45:04.294Z</time>
      </trkpt>
      <trkpt lat="52.16207" lon="4.44952">
        <ele>47.259337</ele>
        <time>2024-07-04T13:45:07.292Z</time>
      </trkpt>
      <trkpt lat="52.16216" lon="4.44945">
        <ele>47.254729</ele>
        <time>2024-07-04T13:45:09.302Z</time>
      </trkpt>
      <trkpt lat="52.16225" lon="4.44938">
        <ele>47.249957</ele>
        <time>2024-07-04T13:45:11.286Z</time>
      </trkpt>
      <trkpt lat="52.16234" lon="4.44931">
        <ele>47.263192</ele>
        <time>2024-07-04T13:45:13.314Z</time>
      </trkpt>
      <trkpt lat="52.16243" lon="4.44926">
        <ele>47.285814</ele>
        <time>2024-07-04T13:45:15.291Z</time>
      </trkpt>
      <trkpt lat="52.16254" lon="4.44917">
        <ele>47.315537</ele>
        <time>2024-07-04T13:45:18.307Z</time>
      </trkpt>
      <trkpt lat="52.16266" lon="4.44909">
        <ele>47.344265</ele>
        <time>2024-07-04T13:45:21.322Z</time>
      </trkpt>
      <trkpt lat="52.16279" lon="4.449">
        <ele>47.376934</ele>
        <time>2024-07-04T13:45:24.308Z</time>
      </trkpt>
      <trkpt lat="52.16288" lon="4.44896">
        <ele>47.398441</ele>
        <time>2024-07-04T13:45:26.291Z</time>
      </trkpt>
      <trkpt lat="52.163" lon="4.44888">
        <ele>47.428387</ele>
        <time>2024-07-04T13:45:29.300Z</time>
      </trkpt>
      <trkpt lat="52.16312" lon="4.44879">
        <ele>47.458574</ele>
        <time>2024-07-04T13:45:32.310Z</time>
      </trkpt>
      <trkpt lat="52.1632" lon="4.44872">
        <ele>47.479623</ele>
        <time>2024-07-04T13:45:34.296Z</time>
      </trkpt>
      <trkpt lat="52.16329" lon="4.44868">
        <ele>47.500447</ele>
        <time>2024-07-04T13:45:36.298Z</time>
      </trkpt>
      <trkpt lat="52.16337" lon="4.44862">
        <ele>47.521424</ele>
        <time>2024-07-04T13:45:38.287Z</time>
      </trkpt>
      <trkpt lat="52.1635" lon="4.44855">
        <ele>47.552517</ele>
        <time>2024-07-04T13:45:41.298Z</time>
      </trkpt>
      <trkpt lat="52.16358" lon="4.4485">
        <ele>47.573477</ele>
        <time>2024-07-04T13:45:43.274Z</time>
      </trkpt>
      <trkpt lat="52.16371" lon="4.44844">
        <ele>47.604483</ele>
        <time>2024-07-04T13:45:46.312Z</time>
      </trkpt>
      <trkpt lat="52.16384" lon="4.44838">
        <ele>47.635435</ele>
        <time>2024-07-04T13:45:49.295Z</time>
      </trkpt>
      <trkpt lat="52.16396" lon="4.44832">
        <ele>47.663294</ele>
        <time>2024-07-04T13:45:52.299Z</time>
      </trkpt>
      <trkpt lat="52.16407" lon="4.44826">
        <ele>47.682342</ele>
        <time>2024-07-04T13:45:55.296Z</time>
      </trkpt>
      <trkpt lat="52.1642" lon="4.4482">
        <ele>47.703691</ele>
        <time>2024-07-04T13:45:58.290Z</time>
      </trkpt>
      <trkpt lat="52.16429" lon="4.44815">
        <ele>47.719368</ele>
        <time>2024-07-04T13:46:00.299Z</time>
      </trkpt>
      <trkpt lat="52.16438" lon="4.44811">
        <ele>47.734053</ele>
        <time>2024-07-04T13:46:02.309Z</time>
      </trkpt>
      <trkpt lat="52.16446" lon="4.44806">
        <ele>47.748716</ele>
        <time>2024-07-04T13:46:04.296Z</time>
      </trkpt>
      <trkpt lat="52.16455" lon="4.44803">
        <ele>47.76405</ele>
        <time>2024-07-04T13:46:06.302Z</time>
      </trkpt>
      <trkpt lat="52.16465" lon="4.44799">
        <ele>47.779836</ele>
        <time>2024-07-04T13:46:08.299Z</time>
      </trkpt>
      <trkpt lat="52.16474" lon="4.44795">
        <ele>47.795351</ele>
        <time>2024-07-04T13:46:10.281Z</time>
      </trkpt>
      <trkpt lat="52.16484" lon="4.4479">
        <ele>47.811608</ele>
        <time>2024-07-04T13:46:12.293Z</time>
      </trkpt>
      <trkpt lat="52.16493" lon="4.44786">
        <ele>47.827384</ele>
        <time>2024-07-04T13:46:14.296Z</time>
      </trkpt>
      <trkpt lat="52.16502" lon="4.44782">
        <ele>47.842276</ele>
        <time>2024-07-04T13:46:16.296Z</time>
      </trkpt>
      <trkpt lat="52.16515" lon="4.44776">
        <ele>47.863073</ele>
        <time>2024-07-04T13:46:19.275Z</time>
      </trkpt>
      <trkpt lat="52.16527" lon="4.4477">
        <ele>47.884089</ele>
        <time>2024-07-04T13:46:22.286Z</time>
      </trkpt>
      <trkpt lat="52.1654" lon="4.44765">
        <ele>47.904694</ele>
        <time>2024-07-04T13:46:25.302Z</time>
      </trkpt>
      <trkpt lat="52.16549" lon="4.44762">
        <ele>47.919711</ele>
        <time>2024-07-04T13:46:27.307Z</time>
      </trkpt>
      <trkpt lat="52.16562" lon="4.44757">
        <ele>47.941351</ele>
        <time>2024-07-04T13:46:30.286Z</time>
      </trkpt>
      <trkpt lat="52.16571" lon="4.44754">
        <ele>47.946328</ele>
        <time>2024-07-04T13:46:32.307Z</time>
      </trkpt>
      <trkpt lat="52.16584" lon="4.44748">
        <ele>47.894331</ele>
        <time>2024-07-04T13:46:35.286Z</time>
      </trkpt>
      <trkpt lat="52.16593" lon="4.44746">
        <ele>47.859231</ele>
        <time>2024-07-04T13:46:37.297Z</time>
      </trkpt>
      <trkpt lat="52.16602" lon="4.44742">
        <ele>47.824244</ele>
        <time>2024-07-04T13:46:39.301Z</time>
      </trkpt>
      <trkpt lat="52.16611" lon="4.44739">
        <ele>47.789899</ele>
        <time>2024-07-04T13:46:41.291Z</time>
      </trkpt>
      <trkpt lat="52.1662" lon="4.44736">
        <ele>47.754863</ele>
        <time>2024-07-04T13:46:43.287Z</time>
      </trkpt>
      <trkpt lat="52.16632" lon="4.44731">
        <ele>47.705224</ele>
        <time>2024-07-04T13:46:46.308Z</time>
      </trkpt>
      <trkpt lat="52.16645" lon="4.44726">
        <ele>47.654475</ele>
        <time>2024-07-04T13:46:49.311Z</time>
      </trkpt>
      <trkpt lat="52.16654" lon="4.44723">
        <ele>47.620392</ele>
        <time>2024-07-04T13:46:51.307Z</time>
      </trkpt>
      <trkpt lat="52.16665" lon="4.44715">
        <ele>47.573547</ele>
        <time>2024-07-04T13:46:54.288Z</time>
      </trkpt>
      <trkpt lat="52.16677" lon="4.44711">
        <ele>47.529242</ele>
        <time>2024-07-04T13:46:57.284Z</time>
      </trkpt>
      <trkpt lat="52.16686" lon="4.447">
        <ele>47.485814</ele>
        <time>2024-07-04T13:47:01.288Z</time>
      </trkpt>
      <trkpt lat="52.16692" lon="4.44685">
        <ele>47.443252</ele>
        <time>2024-07-04T13:47:04.309Z</time>
      </trkpt>
      <trkpt lat="52.16698" lon="4.44668">
        <ele>47.39809</ele>
        <time>2024-07-04T13:47:07.314Z</time>
      </trkpt>
      <trkpt lat="52.16708" lon="4.44654">
        <ele>47.349349</ele>
        <time>2024-07-04T13:47:10.299Z</time>
      </trkpt>
      <trkpt lat="52.16718" lon="4.44641">
        <ele>47.300706</ele>
        <time>2024-07-04T13:47:13.292Z</time>
      </trkpt>
      <trkpt lat="52.16729" lon="4.4463">
        <ele>47.239848</ele>
        <time>2024-07-04T13:47:16.312Z</time>
      </trkpt>
      <trkpt lat="52.16741" lon="4.4462">
        <ele>47.159582</ele>
        <time>2024-07-04T13:47:19.305Z</time>
      </trkpt>
      <trkpt lat="52.16749" lon="4.44614">
        <ele>47.102738</ele>
        <time>2024-07-04T13:47:21.303Z</time>
      </trkpt>
      <trkpt lat="52.16762" lon="4.44607">
        <ele>47.024386</ele>
        <time>2024-07-04T13:47:24.288Z</time>
      </trkpt>
      <trkpt lat="52.16775" lon="4.44601">
        <ele>46.942828</ele>
        <time>2024-07-04T13:47:27.292Z</time>
      </trkpt>
      <trkpt lat="52.16784" lon="4.44599">
        <ele>46.884924</ele>
        <time>2024-07-04T13:47:29.292Z</time>
      </trkpt>
      <trkpt lat="52.16794" lon="4.44599">
        <ele>46.827044</ele>
        <time>2024-07-04T13:47:31.283Z</time>
      </trkpt>
      <trkpt lat="52.16803" lon="4.44599">
        <ele>46.772169</ele>
        <time>2024-07-04T13:47:33.305Z</time>
      </trkpt>
      <trkpt lat="52.16816" lon="4.44602">
        <ele>46.691763</ele>
        <time>2024-07-04T13:47:36.295Z</time>
      </trkpt>
      <trkpt lat="52.16828" lon="4.44605">
        <ele>46.619816</ele>
        <time>2024-07-04T13:47:39.304Z</time>
      </trkpt>
      <trkpt lat="52.16841" lon="4.44605">
        <ele>46.54263</ele>
        <time>2024-07-04T13:47:42.300Z</time>
      </trkpt>
      <trkpt lat="52.16852" lon="4.44613">
        <ele>46.469202</ele>
        <time>2024-07-04T13:47:45.317Z</time>
      </trkpt>
      <trkpt lat="52.1685" lon="4.44629">
        <ele>46.407611</ele>
        <time>2024-07-04T13:47:48.295Z</time>
      </trkpt>
      <trkpt lat="52.16846" lon="4.44647">
        <ele>46.336516</ele>
        <time>2024-07-04T13:47:51.299Z</time>
      </trkpt>
      <trkpt lat="52.16839" lon="4.44659">
        <ele>46.278006</ele>
        <time>2024-07-04T13:47:54.292Z</time>
      </trkpt>
      <trkpt lat="52.16846" lon="4.44646">
        <ele>46.216938</ele>
        <time>2024-07-04T13:48:06.294Z</time>
      </trkpt>
      <trkpt lat="52.16849" lon="4.44631">
        <ele>46.244856</ele>
        <time>2024-07-04T13:48:10.305Z</time>
      </trkpt>
      <trkpt lat="52.1685" lon="4.44616">
        <ele>46.381368</ele>
        <time>2024-07-04T13:48:14.310Z</time>
      </trkpt>
      <trkpt lat="52.16859" lon="4.44609">
        <ele>46.539478</ele>
        <time>2024-07-04T13:48:19.288Z</time>
      </trkpt>
      <trkpt lat="52.16869" lon="4.44616">
        <ele>46.697235</ele>
        <time>2024-07-04T13:48:22.307Z</time>
      </trkpt>
      <trkpt lat="52.16877" lon="4.44627">
        <ele>46.84538</ele>
        <time>2024-07-04T13:48:25.317Z</time>
      </trkpt>
      <trkpt lat="52.16882" lon="4.44642">
        <ele>46.999854</ele>
        <time>2024-07-04T13:48:28.291Z</time>
      </trkpt>
      <trkpt lat="52.16886" lon="4.44658">
        <ele>47.156146</ele>
        <time>2024-07-04T13:48:31.293Z</time>
      </trkpt>
      <trkpt lat="52.16888" lon="4.44677">
        <ele>47.329235</ele>
        <time>2024-07-04T13:48:34.289Z</time>
      </trkpt>
      <trkpt lat="52.16889" lon="4.44695">
        <ele>47.495164</ele>
        <time>2024-07-04T13:48:37.292Z</time>
      </trkpt>
      <trkpt lat="52.1689" lon="4.44713">
        <ele>47.658724</ele>
        <time>2024-07-04T13:48:40.306Z</time>
      </trkpt>
      <trkpt lat="52.16891" lon="4.44731">
        <ele>47.817579</ele>
        <time>2024-07-04T13:48:43.311Z</time>
      </trkpt>
      <trkpt lat="52.16891" lon="4.44749">
        <ele>47.97801</ele>
        <time>2024-07-04T13:48:46.302Z</time>
      </trkpt>
      <trkpt lat="52.16892" lon="4.44765">
        <ele>48.120592</ele>
        <time>2024-07-04T13:48:49.305Z</time>
      </trkpt>
      <trkpt lat="52.16884" lon="4.44778">
        <ele>48.28646</ele>
        <time>2024-07-04T13:48:53.282Z</time>
      </trkpt>
      <trkpt lat="52.16875" lon="4.44785">
        <ele>48.433551</ele>
        <time>2024-07-04T13:48:56.292Z</time>
      </trkpt>
      <trkpt lat="52.1687" lon="4.44801">
        <ele>48.591715</ele>
        <time>2024-07-04T13:48:59.287Z</time>
      </trkpt>
      <trkpt lat="52.16864" lon="4.44818">
        <ele>48.763936</ele>
        <time>2024-07-04T13:49:02.313Z</time>
      </trkpt>
      <trkpt lat="52.16859" lon="4.44834">
        <ele>48.825919</ele>
        <time>2024-07-04T13:49:05.300Z</time>
      </trkpt>
      <trkpt lat="52.16853" lon="4.44852">
        <ele>48.825919</ele>
        <time>2024-07-04T13:49:08.302Z</time>
      </trkpt>
      <trkpt lat="52.16847" lon="4.4487">
        <ele>48.825919</ele>
        <time>2024-07-04T13:49:11.292Z</time>
      </trkpt>
      <trkpt lat="52.1684" lon="4.44888">
        <ele>48.825919</ele>
        <time>2024-07-04T13:49:14.297Z</time>
      </trkpt>
      <trkpt lat="52.16834" lon="4.44906">
        <ele>48.825919</ele>
        <time>2024-07-04T13:49:17.300Z</time>
      </trkpt>
      <trkpt lat="52.16827" lon="4.44924">
        <ele>48.825919</ele>
        <time>2024-07-04T13:49:20.313Z</time>
      </trkpt>
      <trkpt lat="52.16821" lon="4.44943">
        <ele>48.825919</ele>
        <time>2024-07-04T13:49:23.299Z</time>
      </trkpt>
      <trkpt lat="52.16816" lon="4.44956">
        <ele>48.825919</ele>
        <time>2024-07-04T13:49:25.273Z</time>
      </trkpt>
      <trkpt lat="52.1681" lon="4.44968">
        <ele>48.825919</ele>
        <time>2024-07-04T13:49:27.296Z</time>
      </trkpt>
      <trkpt lat="52.16802" lon="4.44985">
        <ele>48.825919</ele>
        <time>2024-07-04T13:49:30.315Z</time>
      </trkpt>
      <trkpt lat="52.16793" lon="4.44997">
        <ele>48.825919</ele>
        <time>2024-07-04T13:49:33.297Z</time>
      </trkpt>
      <trkpt lat="52.16788" lon="4.45013">
        <ele>48.825919</ele>
        <time>2024-07-04T13:49:36.281Z</time>
      </trkpt>
      <trkpt lat="52.16782" lon="4.45028">
        <ele>48.825919</ele>
        <time>2024-07-04T13:49:39.305Z</time>
      </trkpt>
      <trkpt lat="52.16779" lon="4.45043">
        <ele>48.825919</ele>
        <time>2024-07-04T13:49:43.288Z</time>
      </trkpt>
      <trkpt lat="52.16788" lon="4.45053">
        <ele>48.825919</ele>
        <time>2024-07-04T13:49:47.287Z</time>
      </trkpt>
      <trkpt lat="52.16798" lon="4.45053">
        <ele>48.825919</ele>
        <time>2024-07-04T13:49:51.318Z</time>
      </trkpt>
      <trkpt lat="52.16807" lon="4.45062">
        <ele>48.825919</ele>
        <time>2024-07-04T13:49:54.295Z</time>
      </trkpt>
      <trkpt lat="52.16809" lon="4.45066">
        <ele>48.825919</ele>
        <time>2024-07-04T13:49:56.063Z</time>
      </trkpt>
    </trkseg>
  </trk>
</gpx>